
Distance (Route):
Temperature : 16.5°C
Humidity : 68.9%
Pressure : 0hPa| Receiver | Frames | First received | Last received |
|---|---|---|---|
| OE3MUC-15 | 911 | 2026-09-05 02:28:25 | 2026-09-05 04:07:15 |
| PETON7-10 | 566 | 2026-09-05 02:28:18 | 2026-09-05 04:07:06 |
| OM5KV | 472 | 2026-09-05 02:29:08 | 2026-09-05 04:03:10 |
| OE5MMP-10 | 371 | 2026-09-05 02:18:28 | 2026-09-05 03:40:33 |
| OE3JTB-15 | 321 | 2026-09-05 02:16:59 | 2026-09-05 04:07:29 |
| PG1ADW-2 | 221 | 2026-09-05 02:16:16 | 2026-09-05 03:55:33 |
| DO3MHA-12 | 200 | 2026-09-05 02:25:41 | 2026-09-05 03:39:03 |
| OE5WHR-10 | 165 | 2026-09-05 02:15:18 | 2026-09-05 03:39:45 |
| OE5DRO-10 | 159 | 2026-09-05 02:15:09 | 2026-09-05 03:56:48 |
| OE5DXL-15 | 133 | 2026-09-05 02:18:30 | 2026-09-05 03:49:04 |
| OE5FHM-15 | 106 | 2026-09-05 02:20:38 | 2026-09-05 03:28:35 |
| OE3OSB-13 | 106 | 2026-09-05 02:33:32 | 2026-09-05 04:06:46 |
| OE8JPQ-2 | 94 | 2026-09-05 02:49:08 | 2026-09-05 03:33:12 |
| S52SK | 60 | 2026-09-05 02:27:07 | 2026-09-05 03:54:40 |
| OE5HKT-10 | 38 | 2026-09-05 02:16:18 | 2026-09-05 02:35:08 |
| OK1ALN | 25 | 2026-09-05 02:45:21 | 2026-09-05 03:29:22 |
| SP3BTT-10 | 11 | 2026-09-05 03:00:24 | 2026-09-05 03:30:01 |
| SONDE2-11 | 11 | 2026-09-05 03:11:38 | 2026-09-05 03:25:06 |
| DB0NH | 6 | 2026-09-05 02:43:28 | 2026-09-05 02:54:54 |
| DB0UT-7 | 4 | 2026-09-05 03:21:25 | 2026-09-05 03:23:36 |
| NBG1-10 | 3 | 2026-09-05 02:41:16 | 2026-09-05 02:42:25 |
| Receiver | Date | Latitude | Longitude | Direction | Speed | Altitude | Climb | Temperature | Humidity | Pressure | Voltage | Killtimer | Uptime | BKT | XDATA |
|---|---|---|---|---|---|---|---|---|---|---|---|---|---|---|---|
| OE3JTB-15 | 2026-09-05 04:07:29 | 48.24403 | 16.23484 | 160° | 31km/h | 510m | -1.7m/s | 16.5°C | 68.9% | 0hPa | 2.7V | 00:00:00 | 02:18:46 | 00:00:00 | |
| OE3JTB-15 | 2026-09-05 04:07:27 | 48.24420 | 16.23477 | 163° | 38km/h | 515m | -2.5m/s | 16.3°C | 70.6% | 0hPa | 2.7V | 00:00:00 | 00:00:00 | 00:00:00 | |
| OE3JTB-15 | 2026-09-05 04:07:25 | 48.24437 | 16.23468 | 161° | 37km/h | 520m | -3.5m/s | 16.6°C | 68.5% | 0hPa | 2.7V | 00:00:00 | 00:00:00 | 00:00:00 | |
| OE3JTB-15 | 2026-09-05 04:07:23 | 48.24455 | 16.23459 | 163° | 44km/h | 527m | -5.2m/s | 17.1°C | 63.5% | 0hPa | 2.7V | 00:00:00 | 02:18:40 | 00:00:00 | |
| OE3JTB-15 | 2026-09-05 04:07:21 | 48.24476 | 16.23449 | 164° | 40km/h | 536m | -5.3m/s | 17.2°C | 61.9% | 0hPa | 2.7V | 00:00:00 | 00:00:00 | 00:00:00 | |
| OE3JTB-15 | 2026-09-05 04:07:19 | 48.24495 | 16.23440 | 166° | 40km/h | 544m | -3.6m/s | 17.0°C | 63.6% | 0hPa | 2.7V | 00:00:00 | 00:00:00 | 00:00:00 | |
| OE3JTB-15 | 2026-09-05 04:07:17 | 48.24515 | 16.23432 | 167° | 42km/h | 550m | -4.3m/s | 16.9°C | 64.0% | 0hPa | 2.7V | 07:46:00 | 02:18:34 | 00:00:00 | |
| OE3JTB-15 | 2026-09-05 04:07:15 | 48.24535 | 16.23423 | 166° | 44km/h | 558m | -4.1m/s | 16.8°C | 64.4% | 0hPa | 2.7V | 00:00:00 | 00:00:00 | 00:00:00 | |
| OE3MUC-15 | 2026-09-05 04:07:15 | 48.24535 | 16.23423 | 166° | 46km/h | 558m | -4.1m/s | 16.8°C | 64.4% | 0hPa | 2.7V | 00:00:00 | 00:00:00 | 00:00:00 | |
| OE3JTB-15 | 2026-09-05 04:07:13 | 48.24557 | 16.23415 | 167° | 46km/h | 566m | -3.3m/s | 16.7°C | 64.8% | 0hPa | 2.7V | 00:00:00 | 00:00:00 | 00:00:00 | |
| OE3JTB-15 | 2026-09-05 04:07:11 | 48.24580 | 16.23406 | 162° | 47km/h | 574m | -3.3m/s | 16.7°C | 64.3% | 0hPa | 2.7V | 00:00:00 | 02:18:28 | 00:00:00 | |
| OE3MUC-15 | 2026-09-05 04:07:11 | 48.24580 | 16.23406 | 162° | 49km/h | 574m | -3.3m/s | 16.7°C | 64.3% | 0hPa | 2.7V | 00:00:00 | 00:00:00 | 00:00:00 | |
| OE3JTB-15 | 2026-09-05 04:07:09 | 48.24603 | 16.23394 | 163° | 51km/h | 581m | -4.4m/s | 16.7°C | 64.0% | 0hPa | 2.7V | 00:00:00 | 00:00:00 | 00:00:00 | |
| OE3JTB-15 | 2026-09-05 04:07:07 | 48.24627 | 16.23382 | 162° | 49km/h | 590m | -4.5m/s | 16.9°C | 60.1% | 0hPa | 2.7V | 00:00:00 | 00:00:00 | 00:00:00 | |
| OE3MUC-15 | 2026-09-05 04:07:07 | 48.24627 | 16.23382 | 162° | 47km/h | 590m | -4.5m/s | 16.9°C | 60.1% | 0hPa | 2.7V | 00:00:00 | 00:00:00 | 00:00:00 | |
| PETON7-10 | 2026-09-05 04:07:06 | 48.24640 | 16.23376 | 163° | 49km/h | 595m | -3.8m/s | 16.7°C | 62.5% | 0hPa | 2.7V | 07:46:00 | 00:00:00 | 00:00:00 | |
| OE3JTB-15 | 2026-09-05 04:07:05 | 48.24651 | 16.23371 | 167° | 49km/h | 599m | -4.4m/s | 16.7°C | 63.0% | 0hPa | 2.7V | 00:00:00 | 02:18:22 | 00:00:00 | |
| PETON7-10 | 2026-09-05 04:07:05 | 48.24651 | 16.23371 | 167° | 47km/h | 599m | -4.4m/s | 16.7°C | 63.0% | 0hPa | 2.7V | 00:00:00 | 02:18:22 | 00:00:00 | |
| PETON7-10 | 2026-09-05 04:07:04 | 48.24663 | 16.23367 | 167° | 49km/h | 603m | -3.3m/s | 16.6°C | 63.8% | 0hPa | 2.7V | 00:00:00 | 00:00:00 | 00:00:00 | |
| OE3JTB-15 | 2026-09-05 04:07:03 | 48.24675 | 16.23362 | 168° | 46km/h | 606m | -3.4m/s | 16.6°C | 63.4% | 0hPa | 2.7V | 00:00:00 | 00:00:00 | 00:00:00 | |
| PETON7-10 | 2026-09-05 04:07:03 | 48.24675 | 16.23362 | 168° | 47km/h | 606m | -3.4m/s | 16.6°C | 63.4% | 0hPa | 2.7V | 00:00:00 | 00:00:00 | 00:00:00 | |
| PETON7-10 | 2026-09-05 04:07:02 | 48.24686 | 16.23358 | 167° | 46km/h | 610m | -3.3m/s | 16.6°C | 63.4% | 0hPa | 2.7V | 00:00:00 | 02:18:19 | 00:00:00 | |
| OE3OSB-13 | 2026-09-05 04:06:46 | 48.24895 | 16.23289 | 169° | 49km/h | 671m | -3.3m/s | 17.0°C | 57.5% | -1.0hPa | 2.7V | 00:00:00 | 00:00:00 | 00:00:00 | |
| PETON7-10 | 2026-09-05 04:06:46 | 48.24882 | 16.23293 | 170° | 51km/h | 668m | -3.7m/s | 17.0°C | 56.7% | 0hPa | 2.7V | 00:00:00 | 00:00:00 | 00:00:00 | |
| OE3JTB-15 | 2026-09-05 04:06:45 | 48.24895 | 16.23289 | 170° | 49km/h | 672m | -3.3m/s | 17.0°C | 56.8% | 0hPa | 2.7V | 07:46:00 | 00:00:00 | 00:00:00 | |
| PETON7-10 | 2026-09-05 04:06:45 | 48.24895 | 16.23289 | 170° | 49km/h | 672m | -3.3m/s | 17.0°C | 56.8% | 0hPa | 2.7V | 00:00:00 | 02:18:02 | 00:00:00 | |
| OE3MUC-15 | 2026-09-05 04:06:44 | 48.24907 | 16.23286 | 169° | 49km/h | 675m | -3.3m/s | 16.9°C | 56.9% | 0hPa | 2.7V | 00:00:00 | 00:00:00 | 00:00:00 | |
| PETON7-10 | 2026-09-05 04:06:44 | 48.24907 | 16.23286 | 169° | 49km/h | 675m | -3.3m/s | 16.9°C | 56.9% | 0hPa | 2.7V | 00:00:00 | 00:00:00 | 00:00:00 | |
| OE3JTB-15 | 2026-09-05 04:06:43 | 48.24919 | 16.23282 | 170° | 49km/h | 678m | -2.8m/s | 16.9°C | 57.0% | 0hPa | 2.7V | 00:00:00 | 00:00:00 | 00:00:00 | |
| PETON7-10 | 2026-09-05 04:06:43 | 48.24919 | 16.23282 | 170° | 47km/h | 678m | -2.8m/s | 16.9°C | 57.0% | 0hPa | 2.7V | 00:00:00 | 00:00:00 | 00:00:00 | |
| PETON7-10 | 2026-09-05 04:06:42 | 48.24932 | 16.23279 | 169° | 49km/h | 681m | -3.1m/s | 16.9°C | 57.1% | 0hPa | 2.7V | 00:00:00 | 02:17:59 | 00:00:00 | |
| OE3JTB-15 | 2026-09-05 04:06:41 | 48.24944 | 16.23275 | 167° | 49km/h | 684m | -3.2m/s | 16.8°C | 57.2% | 0hPa | 2.7V | 00:00:00 | 02:17:58 | 00:00:00 | |
| PETON7-10 | 2026-09-05 04:06:41 | 48.24944 | 16.23275 | 167° | 49km/h | 684m | -3.2m/s | 16.8°C | 57.2% | 0hPa | 2.7V | 00:00:00 | 00:00:00 | 00:00:00 | |
| OE3MUC-15 | 2026-09-05 04:06:40 | 48.24956 | 16.23270 | 167° | 51km/h | 688m | -4.1m/s | 16.8°C | 57.2% | 0hPa | 2.7V | 00:00:00 | 00:00:00 | 00:00:00 | |
| PETON7-10 | 2026-09-05 04:06:40 | 48.24956 | 16.23270 | 167° | 49km/h | 688m | -4.1m/s | 16.8°C | 57.2% | 0hPa | 2.7V | 07:46:00 | 00:00:00 | 00:00:00 | |
| OE3JTB-15 | 2026-09-05 04:06:39 | 48.24968 | 16.23266 | 167° | 49km/h | 692m | -4.5m/s | 16.8°C | 57.4% | 0hPa | 2.7V | 00:00:00 | 00:00:00 | 00:00:00 | |
| PETON7-10 | 2026-09-05 04:06:39 | 48.24968 | 16.23266 | 167° | 49km/h | 692m | -4.5m/s | 16.8°C | 57.4% | 0hPa | 2.7V | 00:00:00 | 02:17:56 | 00:00:00 | |
| PETON7-10 | 2026-09-05 04:06:38 | 48.24980 | 16.23262 | 167° | 51km/h | 696m | -4.5m/s | 16.7°C | 57.5% | 0hPa | 2.7V | 00:00:00 | 00:00:00 | 00:00:00 | |
| OE3JTB-15 | 2026-09-05 04:06:37 | 48.24993 | 16.23257 | 168° | 51km/h | 701m | -3.7m/s | 16.7°C | 57.6% | 0hPa | 2.7V | 00:00:00 | 00:00:00 | 00:00:00 | |
| PETON7-10 | 2026-09-05 04:06:37 | 48.24993 | 16.23257 | 168° | 51km/h | 701m | -3.7m/s | 16.7°C | 57.6% | 0hPa | 2.7V | 00:00:00 | 00:00:00 | 00:00:00 | |
| OE3MUC-15 | 2026-09-05 04:06:36 | 48.25006 | 16.23253 | 168° | 49km/h | 704m | -3.5m/s | 16.7°C | 57.6% | 0hPa | 2.7V | 00:00:00 | 00:00:00 | 00:00:00 | |
| PETON7-10 | 2026-09-05 04:06:36 | 48.25006 | 16.23253 | 168° | 49km/h | 704m | -3.5m/s | 16.7°C | 57.6% | 0hPa | 2.7V | 00:00:00 | 02:17:53 | 00:00:00 | |
| OE3JTB-15 | 2026-09-05 04:06:35 | 48.25018 | 16.23249 | 168° | 49km/h | 708m | -3.7m/s | 16.6°C | 57.8% | 0hPa | 2.7V | 00:00:00 | 02:17:52 | 00:00:00 | |
| PETON7-10 | 2026-09-05 04:06:35 | 48.25018 | 16.23249 | 168° | 49km/h | 708m | -3.7m/s | 16.6°C | 57.8% | 0hPa | 2.7V | 00:00:00 | 00:00:00 | 00:00:00 | |
| PETON7-10 | 2026-09-05 04:06:34 | 48.25030 | 16.23245 | 167° | 51km/h | 712m | -4.1m/s | 16.6°C | 58.0% | 0hPa | 2.7V | 00:00:00 | 00:00:00 | 00:00:00 | |
| OE3JTB-15 | 2026-09-05 04:06:33 | 48.25042 | 16.23240 | 168° | 51km/h | 716m | -4.4m/s | 16.5°C | 58.1% | 0hPa | 2.7V | 00:00:00 | 00:00:00 | 00:00:00 | |
| PETON7-10 | 2026-09-05 04:06:33 | 48.25042 | 16.23240 | 168° | 51km/h | 716m | -4.4m/s | 16.5°C | 58.1% | 0hPa | 2.7V | 00:00:00 | 02:17:50 | 00:00:00 | |
| PETON7-10 | 2026-09-05 04:06:32 | 48.25055 | 16.23236 | 169° | 51km/h | 721m | -4.5m/s | 16.5°C | 58.2% | 0hPa | 2.7V | 07:47:00 | 00:00:00 | 00:00:00 | |
| OE3JTB-15 | 2026-09-05 04:06:31 | 48.25068 | 16.23232 | 168° | 51km/h | 725m | -4.0m/s | 16.5°C | 58.3% | 0hPa | 2.7V | 00:00:00 | 00:00:00 | 00:00:00 | |
| OE3MUC-15 | 2026-09-05 04:06:31 | 48.25068 | 16.23232 | 168° | 49km/h | 725m | -4.0m/s | 16.5°C | 58.3% | 0hPa | 2.7V | 00:00:00 | 00:00:00 | 00:00:00 | |
| PETON7-10 | 2026-09-05 04:06:31 | 48.25068 | 16.23232 | 168° | 51km/h | 725m | -4.0m/s | 16.5°C | 58.3% | 0hPa | 2.7V | 00:00:00 | 00:00:00 | 00:00:00 | |
| PETON7-10 | 2026-09-05 04:06:30 | 48.25080 | 16.23228 | 168° | 51km/h | 729m | -4.0m/s | 16.4°C | 58.5% | 0hPa | 2.7V | 00:00:00 | 02:17:47 | 00:00:00 | |
| OE3JTB-15 | 2026-09-05 04:06:29 | 48.25092 | 16.23224 | 169° | 49km/h | 733m | -4.0m/s | 16.4°C | 58.5% | 0hPa | 2.7V | 07:47:00 | 02:17:46 | 00:00:00 | |
| PETON7-10 | 2026-09-05 04:06:29 | 48.25092 | 16.23224 | 169° | 49km/h | 733m | -4.0m/s | 16.4°C | 58.5% | 0hPa | 2.7V | 00:00:00 | 00:00:00 | 00:00:00 | |
| PETON7-10 | 2026-09-05 04:06:28 | 48.25105 | 16.23220 | 168° | 49km/h | 738m | -4.4m/s | 16.4°C | 58.6% | 0hPa | 2.7V | 00:00:00 | 00:00:00 | 00:00:00 | |
| OE3JTB-15 | 2026-09-05 04:06:27 | 48.25117 | 16.23216 | 169° | 49km/h | 742m | -3.8m/s | 16.3°C | 58.8% | 0hPa | 2.7V | 00:00:00 | 00:00:00 | 00:00:00 | |
| PETON7-10 | 2026-09-05 04:06:27 | 48.25117 | 16.23216 | 169° | 49km/h | 742m | -3.8m/s | 16.3°C | 58.8% | 0hPa | 2.7V | 00:00:00 | 02:17:44 | 00:00:00 | |
| OE3MUC-15 | 2026-09-05 04:06:27 | 48.25117 | 16.23216 | 169° | 51km/h | 742m | -3.8m/s | 16.3°C | 58.8% | 0hPa | 2.7V | 00:00:00 | 00:00:00 | 00:00:00 | |
| PETON7-10 | 2026-09-05 04:06:26 | 48.25129 | 16.23212 | 168° | 49km/h | 746m | -3.8m/s | 16.3°C | 58.8% | 0hPa | 2.7V | 00:00:00 | 00:00:00 | 00:00:00 | |
| OE3JTB-15 | 2026-09-05 04:06:25 | 48.25142 | 16.23208 | 169° | 51km/h | 750m | -3.5m/s | 16.3°C | 58.9% | 0hPa | 2.7V | 00:00:00 | 00:00:00 | 00:00:00 | |
| PETON7-10 | 2026-09-05 04:06:25 | 48.25142 | 16.23208 | 169° | 49km/h | 750m | -3.5m/s | 16.3°C | 58.9% | 0hPa | 2.7V | 00:00:00 | 00:00:00 | 00:00:00 | |
| OE3JTB-15 | 2026-09-05 04:06:23 | 48.25167 | 16.23201 | 168° | 49km/h | 756m | -3.2m/s | 16.2°C | 58.9% | 0hPa | 2.7V | 00:00:00 | 02:17:40 | 00:00:00 | |
| OE3MUC-15 | 2026-09-05 04:06:23 | 48.25167 | 16.23201 | 168° | 51km/h | 756m | -3.2m/s | 16.2°C | 58.9% | 0hPa | 2.7V | 00:00:00 | 00:00:00 | 00:00:00 | |
| PETON7-10 | 2026-09-05 04:06:23 | 48.25167 | 16.23201 | 168° | 49km/h | 756m | -3.2m/s | 16.2°C | 58.9% | 0hPa | 2.7V | 00:00:00 | 00:00:00 | 00:00:00 | |
| PETON7-10 | 2026-09-05 04:06:22 | 48.25179 | 16.23197 | 168° | 49km/h | 759m | -3.3m/s | 16.2°C | 58.9% | 0hPa | 2.7V | 00:00:00 | 00:00:00 | 00:00:00 | |
| OE3JTB-15 | 2026-09-05 04:06:21 | 48.25191 | 16.23193 | 168° | 49km/h | 763m | -4.1m/s | 16.1°C | 59.0% | 0hPa | 2.7V | 00:00:00 | 00:00:00 | 00:00:00 | |
| PETON7-10 | 2026-09-05 04:06:21 | 48.25191 | 16.23193 | 168° | 49km/h | 763m | -4.1m/s | 16.1°C | 59.0% | 0hPa | 2.7V | 00:00:00 | 02:17:38 | 00:00:00 | |
| PETON7-10 | 2026-09-05 04:06:20 | 48.25204 | 16.23188 | 167° | 49km/h | 766m | -3.3m/s | 16.1°C | 59.7% | 0hPa | 2.7V | 00:00:00 | 00:00:00 | 00:00:00 | |
| OE3JTB-15 | 2026-09-05 04:06:19 | 48.25216 | 16.23184 | 167° | 51km/h | 770m | -3.6m/s | 16.0°C | 59.8% | 0hPa | 2.7V | 00:00:00 | 00:00:00 | 00:00:00 | |
| PETON7-10 | 2026-09-05 04:06:19 | 48.25216 | 16.23184 | 167° | 49km/h | 770m | -3.6m/s | 16.0°C | 59.8% | 0hPa | 2.7V | 00:00:00 | 00:00:00 | 00:00:00 | |
| PETON7-10 | 2026-09-05 04:06:18 | 48.25228 | 16.23180 | 167° | 51km/h | 773m | -3.7m/s | 16.0°C | 59.9% | 0hPa | 2.7V | 00:00:00 | 02:17:35 | 00:00:00 | |
| OE3JTB-15 | 2026-09-05 04:06:17 | 48.25241 | 16.23175 | 167° | 51km/h | 778m | -4.5m/s | 16.0°C | 59.8% | 0hPa | 2.7V | 00:00:00 | 02:17:34 | 00:00:00 | |
| PETON7-10 | 2026-09-05 04:06:17 | 48.25241 | 16.23175 | 167° | 51km/h | 778m | -4.5m/s | 16.0°C | 59.8% | 0hPa | 2.7V | 00:00:00 | 00:00:00 | 00:00:00 | |
| PETON7-10 | 2026-09-05 04:06:16 | 48.25254 | 16.23171 | 168° | 51km/h | 782m | -4.4m/s | 15.9°C | 60.0% | 0hPa | 2.7V | 07:47:00 | 00:00:00 | 00:00:00 | |
| OE3MUC-15 | 2026-09-05 04:06:16 | 48.25254 | 16.23171 | 168° | 51km/h | 782m | -4.4m/s | 15.9°C | 60.0% | 0hPa | 2.7V | 07:47:00 | 00:00:00 | 00:00:00 | |
| OE3JTB-15 | 2026-09-05 04:06:15 | 48.25266 | 16.23166 | 166° | 51km/h | 786m | -3.9m/s | 15.9°C | 60.2% | 0hPa | 2.7V | 00:00:00 | 00:00:00 | 00:00:00 | |
| PETON7-10 | 2026-09-05 04:06:15 | 48.25266 | 16.23166 | 166° | 51km/h | 786m | -3.9m/s | 15.9°C | 60.2% | 0hPa | 2.7V | 00:00:00 | 02:17:32 | 00:00:00 | |
| PETON7-10 | 2026-09-05 04:06:14 | 48.25279 | 16.23162 | 168° | 51km/h | 790m | -3.7m/s | 15.9°C | 60.3% | 0hPa | 2.7V | 00:00:00 | 00:00:00 | 00:00:00 | |
| OE3JTB-15 | 2026-09-05 04:06:13 | 48.25292 | 16.23158 | 168° | 51km/h | 794m | -3.5m/s | 15.8°C | 60.3% | 0hPa | 2.7V | 07:47:00 | 00:00:00 | 00:00:00 | |
| PETON7-10 | 2026-09-05 04:06:13 | 48.25292 | 16.23158 | 168° | 51km/h | 794m | -3.5m/s | 15.8°C | 60.3% | 0hPa | 2.7V | 00:00:00 | 00:00:00 | 00:00:00 | |
| OE3MUC-15 | 2026-09-05 04:06:12 | 48.25304 | 16.23153 | 167° | 51km/h | 797m | -3.7m/s | 15.8°C | 60.3% | 0hPa | 2.7V | 00:00:00 | 00:00:00 | 00:00:00 | |
| PETON7-10 | 2026-09-05 04:06:12 | 48.25304 | 16.23153 | 167° | 51km/h | 797m | -3.7m/s | 15.8°C | 60.3% | 0hPa | 2.7V | 00:00:00 | 02:17:29 | 00:00:00 | |
| OE3JTB-15 | 2026-09-05 04:06:11 | 48.25317 | 16.23149 | 167° | 53km/h | 801m | -4.0m/s | 15.8°C | 60.4% | 0hPa | 2.7V | 00:00:00 | 02:17:28 | 00:00:00 | |
| PETON7-10 | 2026-09-05 04:06:11 | 48.25317 | 16.23149 | 167° | 53km/h | 801m | -4.0m/s | 15.8°C | 60.4% | 0hPa | 2.7V | 00:00:00 | 00:00:00 | 00:00:00 | |
| PETON7-10 | 2026-09-05 04:06:10 | 48.25330 | 16.23144 | 166° | 51km/h | 805m | -4.3m/s | 15.8°C | 59.9% | 0hPa | 2.7V | 00:00:00 | 00:00:00 | 00:00:00 | |
| OE3JTB-15 | 2026-09-05 04:06:09 | 48.25342 | 16.23139 | 165° | 51km/h | 810m | -4.0m/s | 15.8°C | 59.8% | 0hPa | 2.7V | 00:00:00 | 00:00:00 | 00:00:00 | |
| PETON7-10 | 2026-09-05 04:06:09 | 48.25342 | 16.23139 | 165° | 51km/h | 810m | -4.0m/s | 15.8°C | 59.8% | 0hPa | 2.7V | 00:00:00 | 02:17:26 | 00:00:00 | |
| OE3MUC-15 | 2026-09-05 04:06:08 | 48.25355 | 16.23134 | 165° | 53km/h | 813m | -3.5m/s | 15.7°C | 59.7% | 0hPa | 2.7V | 00:00:00 | 00:00:00 | 00:00:00 | |
| PETON7-10 | 2026-09-05 04:06:08 | 48.25355 | 16.23134 | 165° | 53km/h | 813m | -3.5m/s | 15.7°C | 59.7% | 0hPa | 2.7V | 07:47:00 | 00:00:00 | 00:00:00 | |
| OE3JTB-15 | 2026-09-05 04:06:07 | 48.25368 | 16.23129 | 166° | 53km/h | 817m | -3.5m/s | 15.7°C | 59.9% | 0hPa | 2.7V | 00:00:00 | 00:00:00 | 00:00:00 | |
| PETON7-10 | 2026-09-05 04:06:07 | 48.25368 | 16.23129 | 166° | 53km/h | 817m | -3.5m/s | 15.7°C | 59.9% | 0hPa | 2.7V | 00:00:00 | 00:00:00 | 00:00:00 | |
| PETON7-10 | 2026-09-05 04:06:06 | 48.25381 | 16.23124 | 164° | 53km/h | 821m | -3.2m/s | 15.6°C | 60.3% | 0hPa | 2.7V | 00:00:00 | 02:17:23 | 00:00:00 | |
| OE3JTB-15 | 2026-09-05 04:06:05 | 48.25394 | 16.23118 | 165° | 53km/h | 824m | -3.2m/s | 15.6°C | 60.3% | 0hPa | 2.7V | 00:00:00 | 02:17:22 | 00:00:00 | |
| PETON7-10 | 2026-09-05 04:06:05 | 48.25394 | 16.23118 | 165° | 53km/h | 824m | -3.2m/s | 15.6°C | 60.3% | 0hPa | 2.7V | 00:00:00 | 00:00:00 | 00:00:00 | |
| PETON7-10 | 2026-09-05 04:06:04 | 48.25407 | 16.23113 | 165° | 53km/h | 827m | -3.3m/s | 15.6°C | 60.1% | 0hPa | 2.7V | 00:00:00 | 00:00:00 | 00:00:00 | |
| OE3MUC-15 | 2026-09-05 04:06:04 | 48.25407 | 16.23113 | 165° | 53km/h | 827m | -3.3m/s | 15.6°C | 60.1% | 0hPa | 2.7V | 00:00:00 | 00:00:00 | 00:00:00 | |
| PETON7-10 | 2026-09-05 04:06:02 | 48.25432 | 16.23103 | 166° | 53km/h | 834m | -3.1m/s | 15.5°C | 60.4% | 0hPa | 2.7V | 00:00:00 | 00:00:00 | 00:00:00 | |
| OE3JTB-15 | 2026-09-05 04:06:01 | 48.25445 | 16.23097 | 166° | 53km/h | 837m | -3.0m/s | 15.5°C | 60.5% | 0hPa | 2.7V | 00:00:00 | 00:00:00 | 00:00:00 | |
| PETON7-10 | 2026-09-05 04:06:01 | 48.25445 | 16.23097 | 166° | 53km/h | 837m | -3.0m/s | 15.5°C | 60.5% | 0hPa | 2.7V | 00:00:00 | 00:00:00 | 00:00:00 | |
| OE3MUC-15 | 2026-09-05 04:06:00 | 48.25458 | 16.23092 | 166° | 53km/h | 840m | -2.9m/s | 15.5°C | 60.6% | 0hPa | 2.7V | 00:00:00 | 00:00:00 | 00:00:00 | |
| PETON7-10 | 2026-09-05 04:06:00 | 48.25458 | 16.23092 | 166° | 53km/h | 840m | -2.9m/s | 15.5°C | 60.6% | 0hPa | 2.7V | 07:47:00 | 02:17:17 | 00:00:00 | |
| OE3JTB-15 | 2026-09-05 04:05:59 | 48.25471 | 16.23087 | 166° | 53km/h | 843m | -3.4m/s | 15.4°C | 60.6% | 0hPa | 2.7V | 00:00:00 | 02:17:16 | 00:00:00 | |
| PETON7-10 | 2026-09-05 04:05:59 | 48.25471 | 16.23087 | 166° | 53km/h | 843m | -3.4m/s | 15.4°C | 60.6% | 0hPa | 2.7V | 00:00:00 | 00:00:00 | 00:00:00 | |
| PETON7-10 | 2026-09-05 04:05:58 | 48.25484 | 16.23082 | 166° | 53km/h | 847m | -3.4m/s | 15.4°C | 60.8% | 0hPa | 2.7V | 00:00:00 | 00:00:00 | 00:00:00 | |
| OE3JTB-15 | 2026-09-05 04:05:57 | 48.25497 | 16.23077 | 166° | 51km/h | 851m | -3.5m/s | 15.3°C | 61.1% | 0hPa | 2.7V | 07:47:00 | 00:00:00 | 00:00:00 | |
| PETON7-10 | 2026-09-05 04:05:57 | 48.25497 | 16.23077 | 166° | 51km/h | 851m | -3.5m/s | 15.3°C | 61.1% | 0hPa | 2.7V | 00:00:00 | 02:17:14 | 00:00:00 | |
| PETON7-10 | 2026-09-05 04:05:56 | 48.25509 | 16.23072 | 167° | 53km/h | 854m | -3.6m/s | 15.3°C | 61.0% | 0hPa | 2.7V | 00:00:00 | 00:00:00 | 00:00:00 | |
| OE3MUC-15 | 2026-09-05 04:05:56 | 48.25509 | 16.23072 | 167° | 51km/h | 854m | -3.6m/s | 15.3°C | 61.0% | 0hPa | 2.7V | 00:00:00 | 00:00:00 | 00:00:00 | |
| OE3JTB-15 | 2026-09-05 04:05:55 | 48.25522 | 16.23067 | 165° | 51km/h | 858m | -3.3m/s | 15.3°C | 61.2% | 0hPa | 2.7V | 00:00:00 | 00:00:00 | 00:00:00 | |
| PETON7-10 | 2026-09-05 04:05:55 | 48.25522 | 16.23067 | 165° | 51km/h | 858m | -3.3m/s | 15.3°C | 61.2% | 0hPa | 2.7V | 00:00:00 | 00:00:00 | 00:00:00 | |
| PETON7-10 | 2026-09-05 04:05:54 | 48.25534 | 16.23062 | 165° | 51km/h | 861m | -3.2m/s | 15.3°C | 61.2% | 0hPa | 2.7V | 00:00:00 | 02:17:11 | 00:00:00 | |
| OE3JTB-15 | 2026-09-05 04:05:53 | 48.25547 | 16.23057 | 165° | 51km/h | 864m | -3.1m/s | 15.2°C | 61.3% | 0hPa | 2.7V | 00:00:00 | 02:17:10 | 00:00:00 | |
| PETON7-10 | 2026-09-05 04:05:53 | 48.25547 | 16.23057 | 165° | 51km/h | 864m | -3.1m/s | 15.2°C | 61.3% | 0hPa | 2.7V | 00:00:00 | 00:00:00 | 00:00:00 | |
| PETON7-10 | 2026-09-05 04:05:52 | 48.25559 | 16.23052 | 165° | 51km/h | 868m | -2.9m/s | 15.2°C | 61.1% | 0hPa | 2.7V | 07:47:00 | 00:00:00 | 00:00:00 | |
| OE3JTB-15 | 2026-09-05 04:05:51 | 48.25571 | 16.23047 | 165° | 51km/h | 871m | -3.2m/s | 15.2°C | 61.2% | 0hPa | 2.7V | 00:00:00 | 00:00:00 | 00:00:00 | |
| OE3MUC-15 | 2026-09-05 04:05:51 | 48.25571 | 16.23047 | 165° | 51km/h | 871m | -3.2m/s | 15.2°C | 61.2% | 0hPa | 2.7V | 00:00:00 | 00:00:00 | 00:00:00 | |
| PETON7-10 | 2026-09-05 04:05:51 | 48.25571 | 16.23047 | 165° | 49km/h | 871m | -3.2m/s | 15.2°C | 61.2% | 0hPa | 2.7V | 00:00:00 | 02:17:08 | 00:00:00 | |
| PETON7-10 | 2026-09-05 04:05:50 | 48.25584 | 16.23042 | 165° | 51km/h | 874m | -3.3m/s | 15.2°C | 61.3% | 0hPa | 2.7V | 00:00:00 | 00:00:00 | 00:00:00 | |
| OE3JTB-15 | 2026-09-05 04:05:49 | 48.25596 | 16.23036 | 164° | 51km/h | 878m | -3.0m/s | 15.1°C | 61.5% | 0hPa | 2.7V | 00:00:00 | 00:00:00 | 00:00:00 | |
| PETON7-10 | 2026-09-05 04:05:49 | 48.25596 | 16.23036 | 164° | 51km/h | 878m | -3.0m/s | 15.1°C | 61.5% | 0hPa | 2.7V | 00:00:00 | 00:00:00 | 00:00:00 | |
| PETON7-10 | 2026-09-05 04:05:48 | 48.25608 | 16.23031 | 166° | 51km/h | 881m | -2.8m/s | 15.1°C | 61.7% | 0hPa | 2.7V | 00:00:00 | 02:17:05 | 00:00:00 | |
| OE3JTB-15 | 2026-09-05 04:05:47 | 48.25621 | 16.23026 | 166° | 53km/h | 884m | -2.8m/s | 15.1°C | 61.9% | 0hPa | 2.7V | 00:00:00 | 02:17:04 | 00:00:00 | |
| PETON7-10 | 2026-09-05 04:05:47 | 48.25621 | 16.23026 | 166° | 53km/h | 884m | -2.8m/s | 15.1°C | 61.9% | 0hPa | 2.7V | 00:00:00 | 00:00:00 | 00:00:00 | |
| OE3MUC-15 | 2026-09-05 04:05:47 | 48.25621 | 16.23026 | 166° | 53km/h | 884m | -2.8m/s | 15.1°C | 61.9% | 0hPa | 2.7V | 00:00:00 | 02:17:04 | 00:00:00 | |
| PETON7-10 | 2026-09-05 04:05:46 | 48.25634 | 16.23021 | 164° | 51km/h | 887m | -2.3m/s | 15.1°C | 62.0% | 0hPa | 2.7V | 00:00:00 | 00:00:00 | 00:00:00 | |
| OE3JTB-15 | 2026-09-05 04:05:45 | 48.25647 | 16.23016 | 166° | 53km/h | 889m | -3.4m/s | 15.0°C | 62.1% | 0hPa | 2.7V | 00:00:00 | 00:00:00 | 00:00:00 | |
| PETON7-10 | 2026-09-05 04:05:45 | 48.25647 | 16.23016 | 166° | 51km/h | 889m | -3.4m/s | 15.0°C | 62.1% | 0hPa | 2.7V | 00:00:00 | 02:17:02 | 00:00:00 | |
| PETON7-10 | 2026-09-05 04:05:44 | 48.25659 | 16.23010 | 165° | 53km/h | 893m | -3.8m/s | 15.0°C | 62.3% | 0hPa | 2.7V | 07:47:00 | 00:00:00 | 00:00:00 | |
| OE3JTB-15 | 2026-09-05 04:05:43 | 48.25672 | 16.23005 | 165° | 55km/h | 897m | -3.6m/s | 14.9°C | 62.5% | 0hPa | 2.7V | 00:00:00 | 00:00:00 | 00:00:00 | |
| PETON7-10 | 2026-09-05 04:05:43 | 48.25672 | 16.23005 | 165° | 53km/h | 897m | -3.6m/s | 14.9°C | 62.5% | 0hPa | 2.7V | 00:00:00 | 00:00:00 | 00:00:00 | |
| PETON7-10 | 2026-09-05 04:05:42 | 48.25686 | 16.22999 | 164° | 55km/h | 900m | -3.2m/s | 14.9°C | 62.6% | 0hPa | 2.7V | 00:00:00 | 02:16:59 | 00:00:00 | |
| OE3JTB-15 | 2026-09-05 04:05:41 | 48.25699 | 16.22993 | 162° | 53km/h | 904m | -3.4m/s | 14.9°C | 62.6% | 0hPa | 2.7V | 07:47:00 | 02:16:58 | 00:00:00 | |
| PETON7-10 | 2026-09-05 04:05:41 | 48.25699 | 16.22993 | 162° | 53km/h | 904m | -3.4m/s | 14.9°C | 62.6% | 0hPa | 2.7V | 00:00:00 | 00:00:00 | 00:00:00 | |
| PETON7-10 | 2026-09-05 04:05:40 | 48.25711 | 16.22987 | 162° | 53km/h | 907m | -2.9m/s | 14.8°C | 62.8% | 0hPa | 2.7V | 00:00:00 | 00:00:00 | 00:00:00 | |
| OE3JTB-15 | 2026-09-05 04:05:39 | 48.25724 | 16.22981 | 162° | 53km/h | 910m | -3.3m/s | 14.8°C | 62.9% | 0hPa | 2.7V | 00:00:00 | 00:00:00 | 00:00:00 | |
| PETON7-10 | 2026-09-05 04:05:39 | 48.25724 | 16.22981 | 162° | 53km/h | 910m | -3.3m/s | 14.8°C | 62.9% | 0hPa | 2.7V | 00:00:00 | 02:16:56 | 00:00:00 | |
| PETON7-10 | 2026-09-05 04:05:38 | 48.25736 | 16.22974 | 159° | 51km/h | 913m | -2.9m/s | 14.8°C | 62.9% | 0hPa | 2.7V | 00:00:00 | 00:00:00 | 00:00:00 | |
| OE3JTB-15 | 2026-09-05 04:05:37 | 48.25748 | 16.22967 | 160° | 49km/h | 916m | -3.4m/s | 14.8°C | 63.0% | 0hPa | 2.7V | 00:00:00 | 00:00:00 | 00:00:00 | |
| PETON7-10 | 2026-09-05 04:05:37 | 48.25748 | 16.22967 | 160° | 49km/h | 916m | -3.4m/s | 14.8°C | 63.0% | 0hPa | 2.7V | 00:00:00 | 00:00:00 | 00:00:00 | |
| PETON7-10 | 2026-09-05 04:05:36 | 48.25760 | 16.22961 | 160° | 49km/h | 920m | -3.4m/s | 14.7°C | 63.3% | 0hPa | 2.7V | 07:48:00 | 02:16:53 | 00:00:00 | |
| PETON7-10 | 2026-09-05 04:05:34 | 48.25784 | 16.22948 | 161° | 51km/h | 927m | -3.3m/s | 14.7°C | 63.4% | 0hPa | 2.7V | 00:00:00 | 00:00:00 | 00:00:00 | |
| OE3JTB-15 | 2026-09-05 04:05:33 | 48.25796 | 16.22942 | 159° | 47km/h | 930m | -2.6m/s | 14.6°C | 63.4% | 0hPa | 2.7V | 00:00:00 | 00:00:00 | 00:00:00 | |
| PETON7-10 | 2026-09-05 04:05:33 | 48.25796 | 16.22942 | 159° | 49km/h | 930m | -2.6m/s | 14.6°C | 63.4% | 0hPa | 2.7V | 00:00:00 | 02:16:50 | 00:00:00 | |
| PETON7-10 | 2026-09-05 04:05:32 | 48.25808 | 16.22936 | 161° | 47km/h | 933m | -3.7m/s | 14.6°C | 63.4% | 0hPa | 2.7V | 00:00:00 | 00:00:00 | 00:00:00 | |
| OE3JTB-15 | 2026-09-05 04:05:31 | 48.25819 | 16.22929 | 161° | 49km/h | 936m | -2.9m/s | 14.6°C | 63.4% | 0hPa | 2.7V | 00:00:00 | 00:00:00 | 00:00:00 | |
| PETON7-10 | 2026-09-05 04:05:31 | 48.25819 | 16.22929 | 161° | 49km/h | 936m | -2.9m/s | 14.6°C | 63.4% | 0hPa | 2.7V | 00:00:00 | 00:00:00 | 00:00:00 | |
| PETON7-10 | 2026-09-05 04:05:30 | 48.25831 | 16.22923 | 160° | 49km/h | 939m | -2.9m/s | 14.6°C | 63.5% | 0hPa | 2.7V | 00:00:00 | 02:16:47 | 00:00:00 | |
| OE3JTB-15 | 2026-09-05 04:05:29 | 48.25842 | 16.22917 | 161° | 49km/h | 942m | -2.9m/s | 14.5°C | 63.5% | 0hPa | 2.7V | 00:00:00 | 02:16:46 | 00:00:00 | |
| PETON7-10 | 2026-09-05 04:05:29 | 48.25842 | 16.22917 | 161° | 49km/h | 942m | -2.9m/s | 14.5°C | 63.5% | 0hPa | 2.7V | 00:00:00 | 00:00:00 | 00:00:00 | |
| PETON7-10 | 2026-09-05 04:05:28 | 48.25854 | 16.22910 | 160° | 47km/h | 945m | -2.6m/s | 14.5°C | 63.6% | 0hPa | 2.7V | 07:48:00 | 00:00:00 | 00:00:00 | |
| OE3JTB-15 | 2026-09-05 04:05:27 | 48.25866 | 16.22904 | 161° | 51km/h | 948m | -3.2m/s | 14.5°C | 63.7% | 0hPa | 2.7V | 00:00:00 | 00:00:00 | 00:00:00 | |
| PETON7-10 | 2026-09-05 04:05:27 | 48.25866 | 16.22904 | 161° | 51km/h | 948m | -3.2m/s | 14.5°C | 63.7% | 0hPa | 2.7V | 00:00:00 | 02:16:44 | 00:00:00 | |
| PETON7-10 | 2026-09-05 04:05:26 | 48.25878 | 16.22897 | 160° | 49km/h | 951m | -3.0m/s | 14.5°C | 63.7% | 0hPa | 2.7V | 00:00:00 | 00:00:00 | 00:00:00 | |
| OE3JTB-15 | 2026-09-05 04:05:25 | 48.25890 | 16.22891 | 160° | 49km/h | 954m | -3.0m/s | 14.4°C | 63.7% | 0hPa | 2.7V | 07:48:00 | 00:00:00 | 00:00:00 | |
| PETON7-10 | 2026-09-05 04:05:25 | 48.25890 | 16.22891 | 160° | 49km/h | 954m | -3.0m/s | 14.4°C | 63.7% | 0hPa | 2.7V | 00:00:00 | 00:00:00 | 00:00:00 | |
| PETON7-10 | 2026-09-05 04:05:24 | 48.25901 | 16.22884 | 161° | 49km/h | 957m | -3.0m/s | 14.4°C | 63.8% | 0hPa | 2.7V | 00:00:00 | 02:16:41 | 00:00:00 | |
| OE3JTB-15 | 2026-09-05 04:05:23 | 48.25913 | 16.22878 | 161° | 49km/h | 960m | -3.1m/s | 14.4°C | 63.9% | 0hPa | 2.7V | 00:00:00 | 02:16:40 | 00:00:00 | |
| PETON7-10 | 2026-09-05 04:05:23 | 48.25913 | 16.22878 | 161° | 49km/h | 960m | -3.1m/s | 14.4°C | 63.9% | 0hPa | 2.7V | 00:00:00 | 00:00:00 | 00:00:00 | |
| PETON7-10 | 2026-09-05 04:05:22 | 48.25925 | 16.22872 | 161° | 51km/h | 963m | -2.5m/s | 14.4°C | 64.1% | 0hPa | 2.7V | 00:00:00 | 00:00:00 | 00:00:00 | |
| OE3JTB-15 | 2026-09-05 04:05:21 | 48.25937 | 16.22866 | 160° | 49km/h | 965m | -2.2m/s | 14.3°C | 64.1% | 0hPa | 2.7V | 00:00:00 | 00:00:00 | 00:00:00 | |
| OE3MUC-15 | 2026-09-05 04:05:21 | 48.25937 | 16.22866 | 160° | 49km/h | 965m | -2.2m/s | 14.3°C | 64.1% | 0hPa | 2.7V | 00:00:00 | 00:00:00 | 00:00:00 | |
| PETON7-10 | 2026-09-05 04:05:21 | 48.25937 | 16.22866 | 160° | 49km/h | 965m | -2.2m/s | 14.3°C | 64.1% | 0hPa | 2.7V | 00:00:00 | 02:16:38 | 00:00:00 | |
| PETON7-10 | 2026-09-05 04:05:20 | 48.25949 | 16.22859 | 161° | 49km/h | 967m | -2.7m/s | 14.3°C | 64.2% | 0hPa | 2.7V | 07:48:00 | 00:00:00 | 00:00:00 | |
| OE3JTB-15 | 2026-09-05 04:05:19 | 48.25961 | 16.22853 | 161° | 51km/h | 970m | -3.0m/s | 14.3°C | 64.3% | 0hPa | 2.7V | 00:00:00 | 00:00:00 | 00:00:00 | |
| PETON7-10 | 2026-09-05 04:05:19 | 48.25961 | 16.22853 | 161° | 51km/h | 970m | -3.0m/s | 14.3°C | 64.3% | 0hPa | 2.7V | 00:00:00 | 00:00:00 | 00:00:00 | |
| PETON7-10 | 2026-09-05 04:05:18 | 48.25973 | 16.22846 | 161° | 51km/h | 974m | -3.1m/s | 14.3°C | 64.3% | 0hPa | 2.7V | 00:00:00 | 02:16:35 | 00:00:00 | |
| OE3MUC-15 | 2026-09-05 04:05:17 | 48.25985 | 16.22840 | 161° | 51km/h | 977m | -3.4m/s | 14.3°C | 64.4% | 0hPa | 2.7V | 00:00:00 | 00:00:00 | 00:00:00 | |
| OE3JTB-15 | 2026-09-05 04:05:17 | 48.25985 | 16.22840 | 161° | 51km/h | 977m | -3.4m/s | 14.3°C | 64.4% | 0hPa | 2.7V | 00:00:00 | 02:16:34 | 00:00:00 | |
| PETON7-10 | 2026-09-05 04:05:17 | 48.25985 | 16.22840 | 161° | 51km/h | 977m | -3.4m/s | 14.3°C | 64.4% | 0hPa | 2.7V | 00:00:00 | 00:00:00 | 00:00:00 | |
| PETON7-10 | 2026-09-05 04:05:16 | 48.25997 | 16.22833 | 161° | 49km/h | 980m | -2.3m/s | 14.2°C | 64.6% | 0hPa | 2.7V | 00:00:00 | 00:00:00 | 00:00:00 | |
| OE3JTB-15 | 2026-09-05 04:05:15 | 48.26009 | 16.22827 | 159° | 53km/h | 982m | -2.2m/s | 14.2°C | 64.8% | 0hPa | 2.7V | 00:00:00 | 00:00:00 | 00:00:00 | |
| PETON7-10 | 2026-09-05 04:05:15 | 48.26009 | 16.22827 | 159° | 51km/h | 982m | -2.2m/s | 14.2°C | 64.8% | 0hPa | 2.7V | 00:00:00 | 02:16:32 | 00:00:00 | |
| PETON7-10 | 2026-09-05 04:05:14 | 48.26022 | 16.22819 | 160° | 53km/h | 985m | -2.5m/s | 14.2°C | 64.9% | 0hPa | 2.7V | 00:00:00 | 00:00:00 | 00:00:00 | |
| OE3JTB-15 | 2026-09-05 04:05:13 | 48.26034 | 16.22812 | 161° | 53km/h | 988m | -2.6m/s | 14.1°C | 65.0% | 0hPa | 2.7V | 00:00:00 | 00:00:00 | 00:00:00 | |
| OE3MUC-15 | 2026-09-05 04:05:13 | 48.26034 | 16.22812 | 161° | 53km/h | 988m | -2.6m/s | 14.1°C | 65.0% | 0hPa | 2.7V | 00:00:00 | 00:00:00 | 00:00:00 | |
| PETON7-10 | 2026-09-05 04:05:13 | 48.26034 | 16.22812 | 161° | 55km/h | 988m | -2.6m/s | 14.1°C | 65.0% | 0hPa | 2.7V | 00:00:00 | 00:00:00 | 00:00:00 | |
| PETON7-10 | 2026-09-05 04:05:12 | 48.26047 | 16.22805 | 160° | 53km/h | 990m | -2.5m/s | 14.1°C | 65.2% | 0hPa | 2.7V | 07:48:00 | 02:16:29 | 00:00:00 | |
| OE3JTB-15 | 2026-09-05 04:05:11 | 48.26060 | 16.22798 | 160° | 53km/h | 993m | -2.9m/s | 14.1°C | 65.2% | 0hPa | 2.7V | 00:00:00 | 02:16:28 | 00:00:00 | |
| PETON7-10 | 2026-09-05 04:05:11 | 48.26060 | 16.22798 | 160° | 53km/h | 993m | -2.9m/s | 14.1°C | 65.2% | 0hPa | 2.7V | 00:00:00 | 00:00:00 | 00:00:00 | |
| PETON7-10 | 2026-09-05 04:05:10 | 48.26072 | 16.22791 | 159° | 55km/h | 996m | -3.0m/s | 14.0°C | 65.2% | 0hPa | 2.7V | 00:00:00 | 00:00:00 | 00:00:00 | |
| OE3MUC-15 | 2026-09-05 04:05:09 | 48.26085 | 16.22784 | 159° | 53km/h | 999m | -2.6m/s | 14.0°C | 65.3% | 0hPa | 2.7V | 07:48:00 | 00:00:00 | 00:00:00 | |
| OE3JTB-15 | 2026-09-05 04:05:09 | 48.26085 | 16.22784 | 159° | 53km/h | 999m | -2.6m/s | 14.0°C | 65.3% | 0hPa | 2.7V | 07:48:00 | 00:00:00 | 00:00:00 | |
| PETON7-10 | 2026-09-05 04:05:09 | 48.26085 | 16.22784 | 159° | 53km/h | 999m | -2.6m/s | 14.0°C | 65.3% | 0hPa | 2.7V | 00:00:00 | 02:16:26 | 00:00:00 | |
| PETON7-10 | 2026-09-05 04:05:08 | 48.26097 | 16.22776 | 157° | 51km/h | 1002m | -3.3m/s | 14.0°C | 65.4% | 0hPa | 2.7V | 00:00:00 | 00:00:00 | 00:00:00 | |
| OE3JTB-15 | 2026-09-05 04:05:07 | 48.26110 | 16.22768 | 157° | 53km/h | 1005m | -2.8m/s | 14.0°C | 65.5% | 0hPa | 2.7V | 00:00:00 | 00:00:00 | 00:00:00 | |
| PETON7-10 | 2026-09-05 04:05:07 | 48.26110 | 16.22768 | 157° | 53km/h | 1005m | -2.8m/s | 14.0°C | 65.5% | 0hPa | 2.7V | 00:00:00 | 00:00:00 | 00:00:00 | |
| PETON7-10 | 2026-09-05 04:05:06 | 48.26122 | 16.22760 | 157° | 53km/h | 1009m | -3.6m/s | 13.9°C | 65.7% | 0hPa | 2.7V | 00:00:00 | 02:16:23 | 00:00:00 | |
| OE3JTB-15 | 2026-09-05 04:05:05 | 48.26134 | 16.22751 | 157° | 53km/h | 1012m | -2.9m/s | 13.9°C | 65.9% | 0hPa | 2.7V | 00:00:00 | 02:16:22 | 00:00:00 | |
| OE3MUC-15 | 2026-09-05 04:05:05 | 48.26134 | 16.22751 | 157° | 55km/h | 1012m | -2.9m/s | 13.9°C | 65.9% | 0hPa | 2.7V | 00:00:00 | 00:00:00 | 00:00:00 | |
| PETON7-10 | 2026-09-05 04:05:05 | 48.26134 | 16.22751 | 157° | 55km/h | 1012m | -2.9m/s | 13.9°C | 65.9% | 0hPa | 2.7V | 00:00:00 | 00:00:00 | 00:00:00 | |
| PETON7-10 | 2026-09-05 04:05:04 | 48.26147 | 16.22743 | 157° | 53km/h | 1016m | -3.6m/s | 13.9°C | 65.9% | 0hPa | 2.7V | 07:48:00 | 00:00:00 | 00:00:00 | |
| OE3JTB-15 | 2026-09-05 04:05:03 | 48.26159 | 16.22735 | 157° | 55km/h | 1019m | -3.1m/s | 13.8°C | 65.9% | 0hPa | 2.7V | 00:00:00 | 00:00:00 | 00:00:00 | |
| PETON7-10 | 2026-09-05 04:05:03 | 48.26159 | 16.22735 | 157° | 53km/h | 1019m | -3.1m/s | 13.8°C | 65.9% | 0hPa | 2.7V | 00:00:00 | 02:16:20 | 00:00:00 | |
| PETON7-10 | 2026-09-05 04:05:02 | 48.26172 | 16.22727 | 156° | 55km/h | 1022m | -2.7m/s | 13.8°C | 66.0% | 0hPa | 2.7V | 00:00:00 | 00:00:00 | 00:00:00 | |
| OE3MUC-15 | 2026-09-05 04:05:01 | 48.26184 | 16.22718 | 156° | 55km/h | 1025m | -2.8m/s | 13.8°C | 66.0% | 0hPa | 2.7V | 00:00:00 | 00:00:00 | 00:00:00 | |
| OE3JTB-15 | 2026-09-05 04:05:01 | 48.26184 | 16.22718 | 156° | 55km/h | 1025m | -2.8m/s | 13.8°C | 66.0% | 0hPa | 2.7V | 00:00:00 | 00:00:00 | 00:00:00 | |
| PETON7-10 | 2026-09-05 04:05:01 | 48.26184 | 16.22718 | 156° | 55km/h | 1025m | -2.8m/s | 13.8°C | 66.0% | 0hPa | 2.7V | 00:00:00 | 00:00:00 | 00:00:00 | |
| PETON7-10 | 2026-09-05 04:05:00 | 48.26197 | 16.22710 | 156° | 55km/h | 1027m | -2.3m/s | 13.7°C | 66.3% | 0hPa | 2.7V | 00:00:00 | 02:16:17 | 00:00:00 | |
| OE3JTB-15 | 2026-09-05 04:04:59 | 48.26210 | 16.22701 | 159° | 55km/h | 1031m | -3.3m/s | 13.7°C | 66.4% | 0hPa | 2.7V | 00:00:00 | 02:16:16 | 00:00:00 | |
| PETON7-10 | 2026-09-05 04:04:59 | 48.26210 | 16.22701 | 159° | 57km/h | 1031m | -3.3m/s | 13.7°C | 66.4% | 0hPa | 2.7V | 00:00:00 | 00:00:00 | 00:00:00 | |
| PETON7-10 | 2026-09-05 04:04:58 | 48.26223 | 16.22693 | 158° | 53km/h | 1033m | -1.8m/s | 13.7°C | 66.8% | 0hPa | 2.7V | 00:00:00 | 00:00:00 | 00:00:00 | |
| OE3JTB-15 | 2026-09-05 04:04:57 | 48.26235 | 16.22686 | 159° | 53km/h | 1035m | -2.9m/s | 13.7°C | 66.8% | 0hPa | 2.7V | 00:00:00 | 00:00:00 | 00:00:00 | |
| OE3MUC-15 | 2026-09-05 04:04:57 | 48.26235 | 16.22686 | 159° | 53km/h | 1035m | -2.9m/s | 13.7°C | 66.8% | 0hPa | 2.7V | 00:00:00 | 00:00:00 | 00:00:00 | |
| PETON7-10 | 2026-09-05 04:04:57 | 48.26235 | 16.22686 | 159° | 53km/h | 1035m | -2.9m/s | 13.7°C | 66.8% | 0hPa | 2.7V | 00:00:00 | 02:16:14 | 00:00:00 | |
| PETON7-10 | 2026-09-05 04:04:56 | 48.26247 | 16.22678 | 158° | 53km/h | 1038m | -3.0m/s | 13.6°C | 66.7% | 0hPa | 2.7V | 07:48:00 | 00:00:00 | 00:00:00 | |
| OE3JTB-15 | 2026-09-05 04:04:55 | 48.26260 | 16.22671 | 159° | 53km/h | 1042m | -3.1m/s | 13.6°C | 67.0% | 0hPa | 2.7V | 00:00:00 | 00:00:00 | 00:00:00 | |
| PETON7-10 | 2026-09-05 04:04:55 | 48.26260 | 16.22671 | 159° | 53km/h | 1042m | -3.1m/s | 13.6°C | 67.0% | 0hPa | 2.7V | 00:00:00 | 00:00:00 | 00:00:00 | |
| PETON7-10 | 2026-09-05 04:04:54 | 48.26273 | 16.22664 | 160° | 51km/h | 1045m | -3.5m/s | 13.6°C | 67.1% | 0hPa | 2.7V | 00:00:00 | 02:16:11 | 00:00:00 | |
| OE3MUC-15 | 2026-09-05 04:04:53 | 48.26285 | 16.22657 | 159° | 53km/h | 1049m | -3.1m/s | 13.5°C | 67.5% | 0hPa | 2.7V | 00:00:00 | 00:00:00 | 00:00:00 | |
| OE3JTB-15 | 2026-09-05 04:04:53 | 48.26285 | 16.22657 | 159° | 53km/h | 1049m | -3.1m/s | 13.5°C | 67.5% | 0hPa | 2.7V | 07:48:00 | 02:16:10 | 00:00:00 | |
| PETON7-10 | 2026-09-05 04:04:53 | 48.26285 | 16.22657 | 159° | 53km/h | 1049m | -3.1m/s | 13.5°C | 67.5% | 0hPa | 2.7V | 00:00:00 | 00:00:00 | 00:00:00 | |
| PETON7-10 | 2026-09-05 04:04:52 | 48.26297 | 16.22649 | 159° | 53km/h | 1052m | -3.7m/s | 13.5°C | 67.5% | 0hPa | 2.7V | 00:00:00 | 00:00:00 | 00:00:00 | |
| OE3JTB-15 | 2026-09-05 04:04:51 | 48.26310 | 16.22642 | 161° | 55km/h | 1056m | -3.6m/s | 13.4°C | 67.6% | 0hPa | 2.7V | 00:00:00 | 00:00:00 | 00:00:00 | |
| PETON7-10 | 2026-09-05 04:04:51 | 48.26310 | 16.22642 | 161° | 57km/h | 1056m | -3.6m/s | 13.4°C | 67.6% | 0hPa | 2.7V | 00:00:00 | 02:16:08 | 00:00:00 | |
| PETON7-10 | 2026-09-05 04:04:50 | 48.26323 | 16.22635 | 159° | 53km/h | 1060m | -4.3m/s | 13.4°C | 67.5% | 0hPa | 2.7V | 00:00:00 | 00:00:00 | 00:00:00 | |
| OE3JTB-15 | 2026-09-05 04:04:49 | 48.26336 | 16.22627 | 159° | 55km/h | 1064m | -4.9m/s | 13.4°C | 67.6% | 0hPa | 2.7V | 00:00:00 | 00:00:00 | 00:00:00 | |
| OE3MUC-15 | 2026-09-05 04:04:49 | 48.26336 | 16.22627 | 159° | 57km/h | 1064m | -4.9m/s | 13.4°C | 67.6% | 0hPa | 2.7V | 00:00:00 | 00:00:00 | 00:00:00 | |
| PETON7-10 | 2026-09-05 04:04:49 | 48.26336 | 16.22627 | 159° | 55km/h | 1064m | -4.9m/s | 13.4°C | 67.6% | 0hPa | 2.7V | 00:00:00 | 00:00:00 | 00:00:00 | |
| PETON7-10 | 2026-09-05 04:04:48 | 48.26349 | 16.22619 | 157° | 57km/h | 1069m | -4.7m/s | 13.4°C | 67.6% | 0hPa | 2.7V | 07:48:00 | 02:16:05 | 00:00:00 | |
| OE3JTB-15 | 2026-09-05 04:04:47 | 48.26362 | 16.22611 | 157° | 58km/h | 1074m | -3.9m/s | 13.5°C | 67.2% | 0hPa | 2.7V | 00:00:00 | 02:16:04 | 00:00:00 | |
| PETON7-10 | 2026-09-05 04:04:47 | 48.26362 | 16.22611 | 157° | 57km/h | 1074m | -3.9m/s | 13.5°C | 67.2% | 0hPa | 2.7V | 00:00:00 | 00:00:00 | 00:00:00 | |
| PETON7-10 | 2026-09-05 04:04:46 | 48.26375 | 16.22602 | 156° | 58km/h | 1077m | -3.9m/s | 13.7°C | 63.3% | 0hPa | 2.7V | 00:00:00 | 00:00:00 | 00:00:00 | |
| OE3JTB-15 | 2026-09-05 04:04:45 | 48.26388 | 16.22592 | 154° | 58km/h | 1081m | -3.5m/s | 13.7°C | 63.4% | 0hPa | 2.7V | 00:00:00 | 00:00:00 | 00:00:00 | |
| PETON7-10 | 2026-09-05 04:04:45 | 48.26388 | 16.22592 | 154° | 58km/h | 1081m | -3.5m/s | 13.7°C | 63.4% | 0hPa | 2.7V | 00:00:00 | 02:16:02 | 00:00:00 | |
| PETON7-10 | 2026-09-05 04:04:44 | 48.26402 | 16.22583 | 156° | 58km/h | 1085m | -3.9m/s | 13.7°C | 63.0% | 0hPa | 2.7V | 00:00:00 | 00:00:00 | 00:00:00 | |
| OE3JTB-15 | 2026-09-05 04:04:43 | 48.26415 | 16.22574 | 156° | 58km/h | 1089m | -3.9m/s | 13.7°C | 63.4% | 0hPa | 2.7V | 00:00:00 | 00:00:00 | 00:00:00 | |
| PETON7-10 | 2026-09-05 04:04:43 | 48.26415 | 16.22574 | 156° | 60km/h | 1089m | -3.9m/s | 13.7°C | 63.4% | 0hPa | 2.7V | 00:00:00 | 00:00:00 | 00:00:00 | |
| PETON7-10 | 2026-09-05 04:04:42 | 48.26429 | 16.22564 | 155° | 58km/h | 1093m | -3.5m/s | 13.6°C | 63.4% | 0hPa | 2.7V | 00:00:00 | 02:15:59 | 00:00:00 | |
| OE3OSB-13 | 2026-09-05 04:04:42 | 48.26442 | 16.22555 | 155° | 58km/h | 1096m | -3.6m/s | 13.6°C | 64.5% | -1.0hPa | 2.7V | 00:00:00 | 00:00:00 | 00:00:00 | |
| PETON7-10 | 2026-09-05 04:04:40 | 48.26456 | 16.22545 | 156° | 58km/h | 1100m | -3.3m/s | 13.5°C | 64.3% | 0hPa | 2.7V | 07:48:00 | 00:00:00 | 00:00:00 | |
| OE3JTB-15 | 2026-09-05 04:04:39 | 48.26469 | 16.22536 | 157° | 60km/h | 1104m | -4.0m/s | 13.5°C | 64.5% | 0hPa | 2.7V | 00:00:00 | 00:00:00 | 00:00:00 | |
| PETON7-10 | 2026-09-05 04:04:39 | 48.26469 | 16.22536 | 157° | 60km/h | 1104m | -4.0m/s | 13.5°C | 64.5% | 0hPa | 2.7V | 00:00:00 | 02:15:56 | 00:00:00 | |
| PETON7-10 | 2026-09-05 04:04:38 | 48.26484 | 16.22527 | 157° | 60km/h | 1108m | -3.9m/s | 13.4°C | 64.8% | 0hPa | 2.7V | 00:00:00 | 00:00:00 | 00:00:00 | |
| PETON7-10 | 2026-09-05 04:04:37 | 48.26497 | 16.22518 | 157° | 58km/h | 1112m | -3.9m/s | 13.4°C | 64.4% | 0hPa | 2.7V | 00:00:00 | 00:00:00 | 00:00:00 | |
| OE3MUC-15 | 2026-09-05 04:04:37 | 48.26497 | 16.22518 | 157° | 60km/h | 1112m | -3.9m/s | 13.4°C | 64.4% | 0hPa | 2.7V | 00:00:00 | 00:00:00 | 00:00:00 | |
| OE3JTB-15 | 2026-09-05 04:04:37 | 48.26497 | 16.22518 | 157° | 58km/h | 1112m | -3.9m/s | 13.4°C | 64.4% | 0hPa | 2.7V | 07:48:00 | 00:00:00 | 00:00:00 | |
| PETON7-10 | 2026-09-05 04:04:36 | 48.26511 | 16.22509 | 156° | 58km/h | 1116m | -3.0m/s | 13.4°C | 64.6% | 0hPa | 2.7V | 00:00:00 | 02:15:53 | 00:00:00 | |
| OE3JTB-15 | 2026-09-05 04:04:35 | 48.26525 | 16.22500 | 158° | 58km/h | 1119m | -3.5m/s | 13.3°C | 64.8% | 0hPa | 2.7V | 00:00:00 | 02:15:52 | 00:00:00 | |
| PETON7-10 | 2026-09-05 04:04:35 | 48.26525 | 16.22500 | 158° | 58km/h | 1119m | -3.5m/s | 13.3°C | 64.8% | 0hPa | 2.7V | 00:00:00 | 00:00:00 | 00:00:00 | |
| PETON7-10 | 2026-09-05 04:04:34 | 48.26538 | 16.22492 | 158° | 58km/h | 1122m | -3.4m/s | 13.3°C | 64.9% | 0hPa | 2.7V | 00:00:00 | 00:00:00 | 00:00:00 | |
| OE3JTB-15 | 2026-09-05 04:04:33 | 48.26552 | 16.22483 | 158° | 58km/h | 1126m | -3.5m/s | 13.3°C | 65.0% | 0hPa | 2.7V | 00:00:00 | 00:00:00 | 00:00:00 | |
| PETON7-10 | 2026-09-05 04:04:33 | 48.26552 | 16.22483 | 158° | 58km/h | 1126m | -3.5m/s | 13.3°C | 65.0% | 0hPa | 2.7V | 00:00:00 | 02:15:50 | 00:00:00 | |
| PETON7-10 | 2026-09-05 04:04:32 | 48.26566 | 16.22475 | 158° | 58km/h | 1130m | -3.5m/s | 13.2°C | 65.5% | 0hPa | 2.7V | 07:49:00 | 00:00:00 | 00:00:00 | |
| OE3JTB-15 | 2026-09-05 04:04:31 | 48.26580 | 16.22466 | 157° | 58km/h | 1133m | -3.2m/s | 13.2°C | 65.7% | 0hPa | 2.7V | 00:00:00 | 00:00:00 | 00:00:00 | |
| PETON7-10 | 2026-09-05 04:04:31 | 48.26580 | 16.22466 | 157° | 58km/h | 1133m | -3.2m/s | 13.2°C | 65.7% | 0hPa | 2.7V | 00:00:00 | 00:00:00 | 00:00:00 | |
| PETON7-10 | 2026-09-05 04:04:30 | 48.26593 | 16.22457 | 158° | 58km/h | 1136m | -3.2m/s | 13.2°C | 64.9% | 0hPa | 2.7V | 00:00:00 | 02:15:47 | 00:00:00 | |
| OE3JTB-15 | 2026-09-05 04:04:29 | 48.26607 | 16.22449 | 158° | 60km/h | 1140m | -2.8m/s | 13.2°C | 65.4% | 0hPa | 2.7V | 00:00:00 | 02:15:46 | 00:00:00 | |
| PETON7-10 | 2026-09-05 04:04:29 | 48.26607 | 16.22449 | 158° | 60km/h | 1140m | -2.8m/s | 13.2°C | 65.4% | 0hPa | 2.7V | 00:00:00 | 00:00:00 | 00:00:00 | |
| PETON7-10 | 2026-09-05 04:04:28 | 48.26621 | 16.22440 | 157° | 60km/h | 1143m | -3.1m/s | 13.1°C | 65.6% | 0hPa | 2.7V | 00:00:00 | 00:00:00 | 00:00:00 | |
| OE3JTB-15 | 2026-09-05 04:04:27 | 48.26636 | 16.22431 | 159° | 60km/h | 1146m | -3.3m/s | 13.1°C | 65.5% | 0hPa | 2.7V | 00:00:00 | 00:00:00 | 00:00:00 | |
| PETON7-10 | 2026-09-05 04:04:27 | 48.26636 | 16.22431 | 159° | 60km/h | 1146m | -3.3m/s | 13.1°C | 65.5% | 0hPa | 2.7V | 00:00:00 | 02:15:44 | 00:00:00 | |
| PETON7-10 | 2026-09-05 04:04:26 | 48.26650 | 16.22423 | 159° | 60km/h | 1149m | -3.7m/s | 13.1°C | 65.5% | 0hPa | 2.7V | 00:00:00 | 00:00:00 | 00:00:00 | |
| OE3JTB-15 | 2026-09-05 04:04:25 | 48.26664 | 16.22414 | 158° | 60km/h | 1153m | -3.7m/s | 13.1°C | 65.5% | 0hPa | 2.7V | 00:00:00 | 00:00:00 | 00:00:00 | |
| PETON7-10 | 2026-09-05 04:04:25 | 48.26664 | 16.22414 | 158° | 60km/h | 1153m | -3.7m/s | 13.1°C | 65.5% | 0hPa | 2.7V | 00:00:00 | 00:00:00 | 00:00:00 | |
| PETON7-10 | 2026-09-05 04:04:24 | 48.26678 | 16.22405 | 158° | 60km/h | 1157m | -3.2m/s | 13.0°C | 65.8% | 0hPa | 2.7V | 07:49:00 | 02:15:41 | 00:00:00 | |
| OE3JTB-15 | 2026-09-05 04:04:23 | 48.26692 | 16.22397 | 158° | 60km/h | 1160m | -3.0m/s | 13.1°C | 65.2% | 0hPa | 2.7V | 00:00:00 | 02:15:40 | 00:00:00 | |
| PETON7-10 | 2026-09-05 04:04:23 | 48.26692 | 16.22397 | 158° | 60km/h | 1160m | -3.0m/s | 13.1°C | 65.2% | 0hPa | 2.7V | 00:00:00 | 00:00:00 | 00:00:00 | |
| OE3MUC-15 | 2026-09-05 04:04:22 | 48.26706 | 16.22388 | 158° | 60km/h | 1163m | -3.4m/s | 13.1°C | 64.7% | 0hPa | 2.7V | 07:49:00 | 00:00:00 | 00:00:00 | |
| PETON7-10 | 2026-09-05 04:04:22 | 48.26706 | 16.22388 | 158° | 62km/h | 1163m | -3.4m/s | 13.1°C | 64.7% | 0hPa | 2.7V | 00:00:00 | 00:00:00 | 00:00:00 | |
| PETON7-10 | 2026-09-05 04:04:22 | 48.26721 | 16.22379 | 157° | 60km/h | 1167m | -3.0m/s | 13.1°C | 64.5% | 0hPa | 2.7V | 00:00:00 | 02:15:38 | 00:00:00 | |
| OE3JTB-15 | 2026-09-05 04:04:21 | 48.26721 | 16.22379 | 157° | 60km/h | 1167m | -3.0m/s | 13.1°C | 64.5% | 0hPa | 2.7V | 07:49:00 | 00:00:00 | 00:00:00 | |
| PETON7-10 | 2026-09-05 04:04:20 | 48.26735 | 16.22370 | 158° | 60km/h | 1170m | -3.7m/s | 13.2°C | 61.7% | 0hPa | 2.7V | 00:00:00 | 00:00:00 | 00:00:00 | |
| OE3JTB-15 | 2026-09-05 04:04:19 | 48.26749 | 16.22361 | 158° | 62km/h | 1174m | -3.7m/s | 13.1°C | 62.0% | 0hPa | 2.7V | 00:00:00 | 00:00:00 | 00:00:00 | |
| PETON7-10 | 2026-09-05 04:04:19 | 48.26749 | 16.22361 | 158° | 62km/h | 1174m | -3.7m/s | 13.1°C | 62.0% | 0hPa | 2.7V | 00:00:00 | 00:00:00 | 00:00:00 | |
| OE3MUC-15 | 2026-09-05 04:04:18 | 48.26763 | 16.22352 | 158° | 60km/h | 1178m | -3.3m/s | 13.1°C | 62.1% | 0hPa | 2.7V | 00:00:00 | 00:00:00 | 00:00:00 | |
| PETON7-10 | 2026-09-05 04:04:18 | 48.26763 | 16.22352 | 158° | 60km/h | 1178m | -3.3m/s | 13.1°C | 62.1% | 0hPa | 2.7V | 00:00:00 | 02:15:35 | 00:00:00 | |
| OE3JTB-15 | 2026-09-05 04:04:17 | 48.26777 | 16.22343 | 158° | 60km/h | 1181m | -3.1m/s | 13.1°C | 62.4% | 0hPa | 2.7V | 00:00:00 | 02:15:34 | 00:00:00 | |
| PETON7-10 | 2026-09-05 04:04:17 | 48.26777 | 16.22343 | 158° | 62km/h | 1181m | -3.1m/s | 13.1°C | 62.4% | 0hPa | 2.7V | 00:00:00 | 00:00:00 | 00:00:00 | |
| PETON7-10 | 2026-09-05 04:04:16 | 48.26792 | 16.22334 | 156° | 60km/h | 1184m | -3.2m/s | 13.1°C | 62.1% | 0hPa | 2.7V | 07:49:00 | 00:00:00 | 00:00:00 | |
| OE3JTB-15 | 2026-09-05 04:04:15 | 48.26806 | 16.22325 | 157° | 60km/h | 1188m | -3.4m/s | 13.1°C | 61.1% | 0hPa | 2.7V | 00:00:00 | 00:00:00 | 00:00:00 | |
| PETON7-10 | 2026-09-05 04:04:15 | 48.26806 | 16.22325 | 157° | 60km/h | 1188m | -3.4m/s | 13.1°C | 61.1% | 0hPa | 2.7V | 00:00:00 | 02:15:32 | 00:00:00 | |
| PETON7-10 | 2026-09-05 04:04:14 | 48.26820 | 16.22316 | 157° | 62km/h | 1191m | -3.5m/s | 13.0°C | 61.1% | 0hPa | 2.7V | 00:00:00 | 00:00:00 | 00:00:00 | |
| OE3JTB-15 | 2026-09-05 04:04:13 | 48.26834 | 16.22307 | 157° | 60km/h | 1195m | -3.0m/s | 13.0°C | 60.1% | 0hPa | 2.7V | 00:00:00 | 00:00:00 | 00:00:00 | |
| OE3MUC-15 | 2026-09-05 04:04:13 | 48.26834 | 16.22307 | 157° | 60km/h | 1195m | -3.0m/s | 13.0°C | 60.1% | 0hPa | 2.7V | 00:00:00 | 00:00:00 | 00:00:00 | |
| PETON7-10 | 2026-09-05 04:04:13 | 48.26834 | 16.22307 | 157° | 60km/h | 1195m | -3.0m/s | 13.0°C | 60.1% | 0hPa | 2.7V | 00:00:00 | 00:00:00 | 00:00:00 | |
| PETON7-10 | 2026-09-05 04:04:12 | 48.26848 | 16.22297 | 157° | 60km/h | 1198m | -3.4m/s | 13.0°C | 61.0% | 0hPa | 2.7V | 00:00:00 | 02:15:29 | 00:00:00 | |
| PETON7-10 | 2026-09-05 04:04:10 | 48.26876 | 16.22279 | 157° | 58km/h | 1204m | -2.9m/s | 12.9°C | 60.5% | 0hPa | 2.7V | 00:00:00 | 00:00:00 | 00:00:00 | |
| OE3JTB-15 | 2026-09-05 04:04:09 | 48.26890 | 16.22269 | 155° | 60km/h | 1207m | -3.0m/s | 12.9°C | 60.5% | 0hPa | 2.7V | 00:00:00 | 00:00:00 | 00:00:00 | |
| PETON7-10 | 2026-09-05 04:04:09 | 48.26890 | 16.22269 | 155° | 60km/h | 1207m | -3.0m/s | 12.9°C | 60.5% | 0hPa | 2.7V | 00:00:00 | 02:15:26 | 00:00:00 | |
| OE3MUC-15 | 2026-09-05 04:04:08 | 48.26903 | 16.22260 | 157° | 58km/h | 1210m | -3.1m/s | 12.9°C | 60.0% | 0hPa | 2.7V | 00:00:00 | 00:00:00 | 00:00:00 | |
| PETON7-10 | 2026-09-05 04:04:08 | 48.26903 | 16.22260 | 157° | 58km/h | 1210m | -3.1m/s | 12.9°C | 60.0% | 0hPa | 2.7V | 07:49:00 | 00:00:00 | 00:00:00 | |
| OE3JTB-15 | 2026-09-05 04:04:07 | 48.26917 | 16.22251 | 155° | 60km/h | 1213m | -2.7m/s | 12.9°C | 59.6% | 0hPa | 2.7V | 00:00:00 | 00:00:00 | 00:00:00 | |
| PETON7-10 | 2026-09-05 04:04:07 | 48.26917 | 16.22251 | 155° | 60km/h | 1213m | -2.7m/s | 12.9°C | 59.6% | 0hPa | 2.7V | 00:00:00 | 00:00:00 | 00:00:00 | |
| PETON7-10 | 2026-09-05 04:04:06 | 48.26931 | 16.22241 | 157° | 60km/h | 1216m | -3.3m/s | 12.9°C | 59.8% | 0hPa | 2.7V | 00:00:00 | 02:15:23 | 00:00:00 | |
| PETON7-10 | 2026-09-05 04:04:05 | 48.26945 | 16.22232 | 156° | 60km/h | 1219m | -3.0m/s | 12.8°C | 59.4% | 0hPa | 2.7V | 00:00:00 | 00:00:00 | 00:00:00 | |
| OE3JTB-15 | 2026-09-05 04:04:05 | 48.26945 | 16.22232 | 156° | 60km/h | 1219m | -3.0m/s | 12.8°C | 59.4% | 0hPa | 2.7V | 07:49:00 | 02:15:22 | 00:00:00 | |
| PETON7-10 | 2026-09-05 04:04:04 | 48.26958 | 16.22223 | 157° | 60km/h | 1222m | -3.2m/s | 12.8°C | 59.3% | 0hPa | 2.7V | 00:00:00 | 00:00:00 | 00:00:00 | |
| OE3JTB-15 | 2026-09-05 04:04:03 | 48.26972 | 16.22213 | 156° | 58km/h | 1226m | -3.1m/s | 12.8°C | 59.2% | 0hPa | 2.7V | 00:00:00 | 00:00:00 | 00:00:00 | |
| PETON7-10 | 2026-09-05 04:04:03 | 48.26972 | 16.22213 | 156° | 57km/h | 1226m | -3.1m/s | 12.8°C | 59.2% | 0hPa | 2.7V | 00:00:00 | 02:15:20 | 00:00:00 | |
| PETON7-10 | 2026-09-05 04:04:02 | 48.26985 | 16.22204 | 155° | 58km/h | 1229m | -2.9m/s | 12.9°C | 58.8% | 0hPa | 2.7V | 00:00:00 | 00:00:00 | 00:00:00 | |
| OE3JTB-15 | 2026-09-05 04:04:01 | 48.26999 | 16.22194 | 154° | 58km/h | 1232m | -3.5m/s | 13.0°C | 56.9% | 0hPa | 2.7V | 00:00:00 | 00:00:00 | 00:00:00 | |
| PETON7-10 | 2026-09-05 04:04:01 | 48.26999 | 16.22194 | 154° | 58km/h | 1232m | -3.5m/s | 13.0°C | 56.9% | 0hPa | 2.7V | 00:00:00 | 00:00:00 | 00:00:00 | |
| OE3MUC-15 | 2026-09-05 04:04:01 | 48.26999 | 16.22194 | 154° | 58km/h | 1232m | -3.5m/s | 13.0°C | 56.9% | 0hPa | 2.7V | 00:00:00 | 00:00:00 | 00:00:00 | |
| PETON7-10 | 2026-09-05 04:04:00 | 48.27012 | 16.22185 | 156° | 58km/h | 1235m | -3.3m/s | 13.0°C | 56.5% | 0hPa | 2.7V | 07:49:00 | 02:15:17 | 00:00:00 | |
| OE3JTB-15 | 2026-09-05 04:03:59 | 48.27026 | 16.22175 | 155° | 58km/h | 1239m | -3.4m/s | 13.0°C | 55.2% | 0hPa | 2.7V | 00:00:00 | 02:15:16 | 00:00:00 | |
| PETON7-10 | 2026-09-05 04:03:59 | 48.27026 | 16.22175 | 155° | 60km/h | 1239m | -3.4m/s | 13.0°C | 55.2% | 0hPa | 2.7V | 00:00:00 | 00:00:00 | 00:00:00 | |
| PETON7-10 | 2026-09-05 04:03:58 | 48.27039 | 16.22166 | 154° | 58km/h | 1242m | -3.1m/s | 13.1°C | 54.6% | 0hPa | 2.7V | 00:00:00 | 00:00:00 | 00:00:00 | |
| PETON7-10 | 2026-09-05 04:03:57 | 48.27052 | 16.22156 | 153° | 58km/h | 1245m | -3.6m/s | 13.1°C | 54.2% | 0hPa | 2.7V | 00:00:00 | 02:15:14 | 00:00:00 | |
| OE3JTB-15 | 2026-09-05 04:03:57 | 48.27052 | 16.22156 | 153° | 58km/h | 1245m | -3.6m/s | 13.1°C | 54.2% | 0hPa | 2.7V | 00:00:00 | 00:00:00 | 00:00:00 | |
| PETON7-10 | 2026-09-05 04:03:56 | 48.27065 | 16.22145 | 152° | 58km/h | 1249m | -2.6m/s | 13.2°C | 54.5% | 0hPa | 2.7V | 00:00:00 | 00:00:00 | 00:00:00 | |
| OE3JTB-15 | 2026-09-05 04:03:55 | 48.27078 | 16.22135 | 154° | 57km/h | 1252m | -3.6m/s | 13.3°C | 54.7% | 0hPa | 2.7V | 00:00:00 | 00:00:00 | 00:00:00 | |
| OE3MUC-15 | 2026-09-05 04:03:55 | 48.27078 | 16.22135 | 154° | 57km/h | 1252m | -3.6m/s | 13.3°C | 54.7% | 0hPa | 2.7V | 00:00:00 | 00:00:00 | 00:00:00 | |
| PETON7-10 | 2026-09-05 04:03:55 | 48.27078 | 16.22135 | 154° | 57km/h | 1252m | -3.6m/s | 13.3°C | 54.7% | 0hPa | 2.7V | 00:00:00 | 00:00:00 | 00:00:00 | |
| PETON7-10 | 2026-09-05 04:03:54 | 48.27091 | 16.22126 | 154° | 57km/h | 1255m | -3.3m/s | 13.2°C | 55.3% | 0hPa | 2.7V | 00:00:00 | 02:15:11 | 00:00:00 | |
| OE3JTB-15 | 2026-09-05 04:03:53 | 48.27104 | 16.22116 | 154° | 57km/h | 1259m | -3.6m/s | 13.2°C | 54.5% | 0hPa | 2.7V | 00:00:00 | 02:15:10 | 00:00:00 | |
| PETON7-10 | 2026-09-05 04:03:53 | 48.27104 | 16.22116 | 154° | 58km/h | 1259m | -3.6m/s | 13.2°C | 54.5% | 0hPa | 2.7V | 00:00:00 | 00:00:00 | 00:00:00 | |
| PETON7-10 | 2026-09-05 04:03:52 | 48.27117 | 16.22106 | 151° | 57km/h | 1262m | -3.4m/s | 13.2°C | 55.1% | 0hPa | 2.7V | 07:49:00 | 00:00:00 | 00:00:00 | |
| OE3JTB-15 | 2026-09-05 04:03:51 | 48.27129 | 16.22096 | 153° | 55km/h | 1266m | -3.1m/s | 13.2°C | 55.5% | 0hPa | 2.7V | 00:00:00 | 00:00:00 | 00:00:00 | |
| PETON7-10 | 2026-09-05 04:03:51 | 48.27129 | 16.22096 | 153° | 57km/h | 1266m | -3.1m/s | 13.2°C | 55.5% | 0hPa | 2.7V | 00:00:00 | 02:15:08 | 00:00:00 | |
| PETON7-10 | 2026-09-05 04:03:50 | 48.27142 | 16.22086 | 153° | 55km/h | 1269m | -3.5m/s | 13.2°C | 55.5% | 0hPa | 2.7V | 00:00:00 | 00:00:00 | 00:00:00 | |
| OE3MUC-15 | 2026-09-05 04:03:49 | 48.27155 | 16.22076 | 154° | 58km/h | 1273m | -3.0m/s | 13.2°C | 55.9% | 0hPa | 2.7V | 00:00:00 | 00:00:00 | 00:00:00 | |
| PETON7-10 | 2026-09-05 04:03:49 | 48.27155 | 16.22076 | 154° | 58km/h | 1273m | -3.0m/s | 13.2°C | 55.9% | 0hPa | 2.7V | 00:00:00 | 00:00:00 | 00:00:00 | |
| OE3JTB-15 | 2026-09-05 04:03:49 | 48.27155 | 16.22076 | 154° | 57km/h | 1273m | -3.0m/s | 13.2°C | 55.9% | 0hPa | 2.7V | 07:49:00 | 00:00:00 | 00:00:00 | |
| PETON7-10 | 2026-09-05 04:03:48 | 48.27167 | 16.22066 | 152° | 55km/h | 1276m | -3.6m/s | 13.1°C | 55.8% | 0hPa | 2.7V | 00:00:00 | 02:15:05 | 00:00:00 | |
| OE3JTB-15 | 2026-09-05 04:03:47 | 48.27180 | 16.22056 | 151° | 55km/h | 1279m | -2.4m/s | 13.1°C | 56.2% | 0hPa | 2.7V | 00:00:00 | 02:15:04 | 00:00:00 | |
| PETON7-10 | 2026-09-05 04:03:47 | 48.27180 | 16.22056 | 151° | 57km/h | 1279m | -2.4m/s | 13.1°C | 56.2% | 0hPa | 2.7V | 00:00:00 | 00:00:00 | 00:00:00 | |
| PETON7-10 | 2026-09-05 04:03:46 | 48.27192 | 16.22046 | 153° | 55km/h | 1282m | -3.6m/s | 13.1°C | 56.4% | 0hPa | 2.7V | 00:00:00 | 00:00:00 | 00:00:00 | |
| OE3JTB-15 | 2026-09-05 04:03:45 | 48.27204 | 16.22036 | 151° | 55km/h | 1285m | -2.6m/s | 13.1°C | 56.8% | 0hPa | 2.7V | 00:00:00 | 00:00:00 | 00:00:00 | |
| PETON7-10 | 2026-09-05 04:03:45 | 48.27204 | 16.22036 | 151° | 53km/h | 1285m | -2.6m/s | 13.1°C | 56.8% | 0hPa | 2.7V | 00:00:00 | 02:15:02 | 00:00:00 | |
| OE3MUC-15 | 2026-09-05 04:03:45 | 48.27204 | 16.22036 | 151° | 55km/h | 1285m | -2.6m/s | 13.1°C | 56.8% | 0hPa | 2.7V | 00:00:00 | 00:00:00 | 00:00:00 | |
| PETON7-10 | 2026-09-05 04:03:44 | 48.27216 | 16.22026 | 152° | 55km/h | 1288m | -3.1m/s | 13.0°C | 56.5% | 0hPa | 2.7V | 07:49:00 | 00:00:00 | 00:00:00 | |
| OE3JTB-15 | 2026-09-05 04:03:43 | 48.27228 | 16.22016 | 151° | 55km/h | 1291m | -3.0m/s | 13.1°C | 56.8% | 0hPa | 2.7V | 00:00:00 | 00:00:00 | 00:00:00 | |
| PETON7-10 | 2026-09-05 04:03:43 | 48.27228 | 16.22016 | 151° | 55km/h | 1291m | -3.0m/s | 13.1°C | 56.8% | 0hPa | 2.7V | 00:00:00 | 00:00:00 | 00:00:00 | |
| PETON7-10 | 2026-09-05 04:03:42 | 48.27240 | 16.22006 | 152° | 55km/h | 1294m | -3.2m/s | 13.1°C | 58.1% | 0hPa | 2.7V | 00:00:00 | 02:14:59 | 00:00:00 | |
| PETON7-10 | 2026-09-05 04:03:41 | 48.27252 | 16.21995 | 150° | 55km/h | 1298m | -3.2m/s | 13.1°C | 58.2% | 0hPa | 2.7V | 00:00:00 | 00:00:00 | 00:00:00 | |
| OE3JTB-15 | 2026-09-05 04:03:41 | 48.27252 | 16.21995 | 150° | 55km/h | 1298m | -3.2m/s | 13.1°C | 58.2% | 0hPa | 2.7V | 00:00:00 | 02:14:58 | 00:00:00 | |
| PETON7-10 | 2026-09-05 04:03:40 | 48.27264 | 16.21985 | 152° | 55km/h | 1301m | -3.4m/s | 13.1°C | 58.5% | 0hPa | 2.7V | 00:00:00 | 00:00:00 | 00:00:00 | |
| OE3OSB-13 | 2026-09-05 04:03:39 | 48.27277 | 16.21975 | 151° | 53km/h | 1305m | -3.6m/s | 13.1°C | 59.8% | -1.0hPa | 2.7V | 00:00:00 | 00:00:00 | 00:00:00 | |
| OE3JTB-15 | 2026-09-05 04:03:39 | 48.27277 | 16.21975 | 152° | 55km/h | 1305m | -3.6m/s | 13.1°C | 59.2% | 0hPa | 2.7V | 00:00:00 | 00:00:00 | 00:00:00 | |
| PETON7-10 | 2026-09-05 04:03:39 | 48.27277 | 16.21975 | 152° | 55km/h | 1305m | -3.6m/s | 13.1°C | 59.2% | 0hPa | 2.7V | 00:00:00 | 02:14:56 | 00:00:00 | |
| PETON7-10 | 2026-09-05 04:03:38 | 48.27289 | 16.21965 | 152° | 55km/h | 1308m | -3.6m/s | 13.0°C | 59.2% | 0hPa | 2.7V | 00:00:00 | 00:00:00 | 00:00:00 | |
| OE3JTB-15 | 2026-09-05 04:03:37 | 48.27301 | 16.21955 | 152° | 55km/h | 1312m | -3.7m/s | 13.0°C | 59.0% | 0hPa | 2.7V | 00:00:00 | 00:00:00 | 00:00:00 | |
| PETON7-10 | 2026-09-05 04:03:37 | 48.27301 | 16.21955 | 152° | 57km/h | 1312m | -3.7m/s | 13.0°C | 59.0% | 0hPa | 2.7V | 00:00:00 | 00:00:00 | 00:00:00 | |
| PETON7-10 | 2026-09-05 04:03:36 | 48.27313 | 16.21945 | 151° | 55km/h | 1316m | -3.6m/s | 13.1°C | 60.8% | 0hPa | 2.7V | 07:50:00 | 02:14:53 | 00:00:00 | |
| OE3JTB-15 | 2026-09-05 04:03:35 | 48.27325 | 16.21935 | 151° | 53km/h | 1319m | -3.7m/s | 13.1°C | 60.6% | 0hPa | 2.7V | 00:00:00 | 02:14:52 | 00:00:00 | |
| PETON7-10 | 2026-09-05 04:03:35 | 48.27325 | 16.21935 | 151° | 55km/h | 1319m | -3.7m/s | 13.1°C | 60.6% | 0hPa | 2.7V | 00:00:00 | 00:00:00 | 00:00:00 | |
| PETON7-10 | 2026-09-05 04:03:34 | 48.27337 | 16.21924 | 149° | 51km/h | 1323m | -3.7m/s | 13.1°C | 61.0% | 0hPa | 2.7V | 00:00:00 | 00:00:00 | 00:00:00 | |
| PETON7-10 | 2026-09-05 04:03:33 | 48.27348 | 16.21914 | 148° | 51km/h | 1326m | -3.5m/s | 13.2°C | 62.9% | 0hPa | 2.7V | 00:00:00 | 02:14:50 | 00:00:00 | |
| OE3JTB-15 | 2026-09-05 04:03:33 | 48.27348 | 16.21914 | 148° | 51km/h | 1326m | -3.5m/s | 13.2°C | 62.9% | 0hPa | 2.7V | 07:50:00 | 00:00:00 | 00:00:00 | |
| PETON7-10 | 2026-09-05 04:03:32 | 48.27358 | 16.21903 | 147° | 49km/h | 1330m | -4.0m/s | 13.2°C | 64.2% | 0hPa | 2.7V | 00:00:00 | 00:00:00 | 00:00:00 | |
| OE3JTB-15 | 2026-09-05 04:03:31 | 48.27369 | 16.21893 | 148° | 49km/h | 1334m | -3.5m/s | 13.2°C | 64.5% | 0hPa | 2.7V | 00:00:00 | 00:00:00 | 00:00:00 | |
| PETON7-10 | 2026-09-05 04:03:31 | 48.27369 | 16.21893 | 148° | 51km/h | 1334m | -3.5m/s | 13.2°C | 64.5% | 0hPa | 2.7V | 00:00:00 | 00:00:00 | 00:00:00 | |
| PETON7-10 | 2026-09-05 04:03:30 | 48.27380 | 16.21883 | 146° | 49km/h | 1338m | -3.7m/s | 13.1°C | 64.8% | 0hPa | 2.7V | 00:00:00 | 02:14:47 | 00:00:00 | |
| OE3JTB-15 | 2026-09-05 04:03:29 | 48.27390 | 16.21872 | 145° | 49km/h | 1341m | -3.3m/s | 13.1°C | 65.0% | 0hPa | 2.7V | 00:00:00 | 02:14:46 | 00:00:00 | |
| PETON7-10 | 2026-09-05 04:03:29 | 48.27390 | 16.21872 | 145° | 49km/h | 1341m | -3.3m/s | 13.1°C | 65.0% | 0hPa | 2.7V | 00:00:00 | 00:00:00 | 00:00:00 | |
| PETON7-10 | 2026-09-05 04:03:28 | 48.27400 | 16.21861 | 147° | 51km/h | 1345m | -4.1m/s | 13.1°C | 65.6% | 0hPa | 2.7V | 07:50:00 | 00:00:00 | 00:00:00 | |
| OE3JTB-15 | 2026-09-05 04:03:27 | 48.27411 | 16.21851 | 146° | 49km/h | 1349m | -3.7m/s | 13.1°C | 66.0% | 0hPa | 2.7V | 00:00:00 | 00:00:00 | 00:00:00 | |
| PETON7-10 | 2026-09-05 04:03:27 | 48.27411 | 16.21851 | 146° | 49km/h | 1349m | -3.7m/s | 13.1°C | 66.0% | 0hPa | 2.7V | 00:00:00 | 02:14:44 | 00:00:00 | |
| PETON7-10 | 2026-09-05 04:03:26 | 48.27421 | 16.21840 | 146° | 51km/h | 1353m | -4.3m/s | 13.0°C | 66.0% | 0hPa | 2.7V | 00:00:00 | 00:00:00 | 00:00:00 | |
| PETON7-10 | 2026-09-05 04:03:25 | 48.27432 | 16.21829 | 146° | 49km/h | 1357m | -3.6m/s | 13.0°C | 66.3% | 0hPa | 2.7V | 00:00:00 | 00:00:00 | 00:00:00 | |
| OE3JTB-15 | 2026-09-05 04:03:25 | 48.27432 | 16.21829 | 146° | 49km/h | 1357m | -3.6m/s | 13.0°C | 66.3% | 0hPa | 2.7V | 00:00:00 | 00:00:00 | 00:00:00 | |
| PETON7-10 | 2026-09-05 04:03:24 | 48.27442 | 16.21819 | 146° | 49km/h | 1361m | -3.3m/s | 13.0°C | 66.1% | 0hPa | 2.7V | 00:00:00 | 02:14:41 | 00:00:00 | |
| OE3JTB-15 | 2026-09-05 04:03:23 | 48.27452 | 16.21808 | 147° | 49km/h | 1364m | -3.1m/s | 12.9°C | 66.3% | 0hPa | 2.7V | 00:00:00 | 02:14:40 | 00:00:00 | |
| PETON7-10 | 2026-09-05 04:03:23 | 48.27452 | 16.21808 | 147° | 49km/h | 1364m | -3.1m/s | 12.9°C | 66.3% | 0hPa | 2.7V | 00:00:00 | 00:00:00 | 00:00:00 | |
| PETON7-10 | 2026-09-05 04:03:22 | 48.27463 | 16.21798 | 147° | 49km/h | 1367m | -3.5m/s | 12.9°C | 67.1% | 0hPa | 2.7V | 00:00:00 | 00:00:00 | 00:00:00 | |
| OE3JTB-15 | 2026-09-05 04:03:21 | 48.27473 | 16.21787 | 147° | 51km/h | 1371m | -3.3m/s | 12.9°C | 67.2% | 0hPa | 2.7V | 00:00:00 | 00:00:00 | 00:00:00 | |
| PETON7-10 | 2026-09-05 04:03:21 | 48.27473 | 16.21787 | 147° | 51km/h | 1371m | -3.3m/s | 12.9°C | 67.2% | 0hPa | 2.7V | 00:00:00 | 02:14:38 | 00:00:00 | |
| OE3MUC-15 | 2026-09-05 04:03:20 | 48.27484 | 16.21777 | 146° | 49km/h | 1374m | -3.1m/s | 12.9°C | 67.7% | 0hPa | 2.7V | 00:00:00 | 00:00:00 | 00:00:00 | |
| PETON7-10 | 2026-09-05 04:03:20 | 48.27484 | 16.21777 | 146° | 49km/h | 1374m | -3.1m/s | 12.9°C | 67.7% | 0hPa | 2.7V | 07:50:00 | 00:00:00 | 00:00:00 | |
| OE3JTB-15 | 2026-09-05 04:03:19 | 48.27494 | 16.21766 | 147° | 49km/h | 1377m | -3.3m/s | 12.8°C | 67.4% | 0hPa | 2.7V | 00:00:00 | 00:00:00 | 00:00:00 | |
| PETON7-10 | 2026-09-05 04:03:19 | 48.27494 | 16.21766 | 147° | 49km/h | 1377m | -3.3m/s | 12.8°C | 67.4% | 0hPa | 2.7V | 00:00:00 | 00:00:00 | 00:00:00 | |
| PETON7-10 | 2026-09-05 04:03:18 | 48.27505 | 16.21755 | 147° | 51km/h | 1381m | -3.0m/s | 12.8°C | 67.9% | 0hPa | 2.7V | 00:00:00 | 02:14:35 | 00:00:00 | |
| PETON7-10 | 2026-09-05 04:03:17 | 48.27516 | 16.21745 | 146° | 49km/h | 1384m | -2.6m/s | 12.8°C | 67.8% | 0hPa | 2.7V | 00:00:00 | 00:00:00 | 00:00:00 | |
| OE3JTB-15 | 2026-09-05 04:03:17 | 48.27516 | 16.21745 | 146° | 49km/h | 1384m | -2.6m/s | 12.8°C | 67.8% | 0hPa | 2.7V | 07:50:00 | 02:14:34 | 00:00:00 | |
| OE3MUC-15 | 2026-09-05 04:03:16 | 48.27526 | 16.21734 | 146° | 49km/h | 1387m | -2.8m/s | 12.7°C | 67.5% | 0hPa | 2.7V | 00:00:00 | 00:00:00 | 00:00:00 | |
| PETON7-10 | 2026-09-05 04:03:16 | 48.27526 | 16.21734 | 146° | 49km/h | 1387m | -2.8m/s | 12.7°C | 67.5% | 0hPa | 2.7V | 00:00:00 | 00:00:00 | 00:00:00 | |
| OE3JTB-15 | 2026-09-05 04:03:15 | 48.27536 | 16.21724 | 148° | 51km/h | 1390m | -2.7m/s | 12.7°C | 67.0% | 0hPa | 2.7V | 00:00:00 | 00:00:00 | 00:00:00 | |
| PETON7-10 | 2026-09-05 04:03:15 | 48.27536 | 16.21724 | 148° | 51km/h | 1390m | -2.7m/s | 12.7°C | 67.0% | 0hPa | 2.7V | 00:00:00 | 02:14:32 | 00:00:00 | |
| PETON7-10 | 2026-09-05 04:03:14 | 48.27547 | 16.21713 | 146° | 49km/h | 1392m | -2.8m/s | 12.6°C | 67.0% | 0hPa | 2.7V | 00:00:00 | 00:00:00 | 00:00:00 | |
| OE3JTB-15 | 2026-09-05 04:03:13 | 48.27558 | 16.21703 | 147° | 49km/h | 1395m | -3.0m/s | 12.6°C | 67.3% | 0hPa | 2.7V | 00:00:00 | 00:00:00 | 00:00:00 | |
| PETON7-10 | 2026-09-05 04:03:13 | 48.27558 | 16.21703 | 147° | 49km/h | 1395m | -3.0m/s | 12.6°C | 67.3% | 0hPa | 2.7V | 00:00:00 | 00:00:00 | 00:00:00 | |
| OE3MUC-15 | 2026-09-05 04:03:12 | 48.27568 | 16.21692 | 146° | 49km/h | 1398m | -3.0m/s | 12.5°C | 67.7% | 0hPa | 2.7V | 00:00:00 | 00:00:00 | 00:00:00 | |
| PETON7-10 | 2026-09-05 04:03:12 | 48.27568 | 16.21692 | 146° | 49km/h | 1398m | -3.0m/s | 12.5°C | 67.7% | 0hPa | 2.7V | 07:50:00 | 02:14:29 | 00:00:00 | |
| OE3JTB-15 | 2026-09-05 04:03:11 | 48.27578 | 16.21681 | 147° | 49km/h | 1401m | -3.3m/s | 12.4°C | 65.4% | 0hPa | 2.7V | 00:00:00 | 02:14:28 | 00:00:00 | |
| PETON7-10 | 2026-09-05 04:03:11 | 48.27578 | 16.21681 | 147° | 51km/h | 1401m | -3.3m/s | 12.4°C | 65.4% | 0hPa | 2.7V | 00:00:00 | 00:00:00 | 00:00:00 | |
| OM5KV | 2026-09-05 04:03:10 | 48.27578 | 16.21681 | 148° | 51km/h | 1401m | -3.3m/s | 12.5°C | 66.0% | 0hPa | 2.7V | 00:00:00 | 00:00:00 | 00:00:00 | |
| PETON7-10 | 2026-09-05 04:03:10 | 48.27589 | 16.21671 | 147° | 49km/h | 1405m | -3.5m/s | 12.5°C | 67.2% | 0hPa | 2.7V | 00:00:00 | 00:00:00 | 00:00:00 | |
| OE3JTB-15 | 2026-09-05 04:03:09 | 48.27599 | 16.21660 | 146° | 49km/h | 1408m | -3.2m/s | 12.5°C | 68.9% | 0hPa | 2.7V | 00:00:00 | 00:00:00 | 00:00:00 | |
| PETON7-10 | 2026-09-05 04:03:09 | 48.27599 | 16.21660 | 146° | 49km/h | 1408m | -3.2m/s | 12.5°C | 68.9% | 0hPa | 2.7V | 00:00:00 | 02:14:26 | 00:00:00 | |
| OE3OSB-13 | 2026-09-05 04:03:08 | 48.27610 | 16.21650 | 146° | 49km/h | 1412m | -3.3m/s | 12.6°C | 69.8% | -1.0hPa | 2.7V | 00:00:00 | 00:00:00 | 00:00:00 | |
| PETON7-10 | 2026-09-05 04:03:08 | 48.27610 | 16.21650 | 147° | 51km/h | 1412m | -3.3m/s | 12.5°C | 69.1% | 0hPa | 2.7V | 00:00:00 | 00:00:00 | 00:00:00 | |
| OE3JTB-15 | 2026-09-05 04:03:07 | 48.27620 | 16.21639 | 145° | 47km/h | 1415m | -3.6m/s | 12.5°C | 69.8% | 0hPa | 2.7V | 00:00:00 | 00:00:00 | 00:00:00 | |
| PETON7-10 | 2026-09-05 04:03:07 | 48.27620 | 16.21639 | 145° | 47km/h | 1415m | -3.6m/s | 12.5°C | 69.8% | 0hPa | 2.7V | 00:00:00 | 00:00:00 | 00:00:00 | |
| PETON7-10 | 2026-09-05 04:03:06 | 48.27630 | 16.21629 | 144° | 49km/h | 1419m | -3.8m/s | 12.5°C | 69.9% | 0hPa | 2.7V | 00:00:00 | 02:14:23 | 00:00:00 | |
| OE3MUC-15 | 2026-09-05 04:03:06 | 48.27630 | 16.21629 | 144° | 47km/h | 1419m | -3.8m/s | 12.5°C | 69.9% | 0hPa | 2.7V | 07:50:00 | 00:00:00 | 00:00:00 | |
| OE3JTB-15 | 2026-09-05 04:03:05 | 48.27640 | 16.21618 | 144° | 47km/h | 1423m | -4.4m/s | 12.5°C | 70.3% | 0hPa | 2.7V | 00:00:00 | 02:14:22 | 00:00:00 | |
| PETON7-10 | 2026-09-05 04:03:05 | 48.27640 | 16.21618 | 144° | 47km/h | 1423m | -4.4m/s | 12.5°C | 70.3% | 0hPa | 2.7V | 00:00:00 | 00:00:00 | 00:00:00 | |
| PETON7-10 | 2026-09-05 04:03:04 | 48.27649 | 16.21608 | 144° | 47km/h | 1427m | -3.9m/s | 12.4°C | 70.5% | 0hPa | 2.7V | 07:50:00 | 00:00:00 | 00:00:00 | |
| OE3JTB-15 | 2026-09-05 04:03:03 | 48.27659 | 16.21597 | 144° | 47km/h | 1431m | -3.9m/s | 12.4°C | 71.0% | 0hPa | 2.7V | 00:00:00 | 00:00:00 | 00:00:00 | |
| PETON7-10 | 2026-09-05 04:03:03 | 48.27659 | 16.21597 | 144° | 47km/h | 1431m | -3.9m/s | 12.4°C | 71.0% | 0hPa | 2.7V | 00:00:00 | 02:14:20 | 00:00:00 | |
| PETON7-10 | 2026-09-05 04:03:02 | 48.27668 | 16.21586 | 143° | 47km/h | 1435m | -4.1m/s | 12.4°C | 70.9% | 0hPa | 2.7V | 00:00:00 | 00:00:00 | 00:00:00 | |
| OE3MUC-15 | 2026-09-05 04:03:02 | 48.27668 | 16.21586 | 143° | 47km/h | 1435m | -4.1m/s | 12.4°C | 70.9% | 0hPa | 2.7V | 00:00:00 | 00:00:00 | 00:00:00 | |
| OE3JTB-15 | 2026-09-05 04:03:01 | 48.27678 | 16.21575 | 144° | 47km/h | 1439m | -3.6m/s | 12.4°C | 71.7% | 0hPa | 2.7V | 07:50:00 | 00:00:00 | 00:00:00 | |
| PETON7-10 | 2026-09-05 04:03:01 | 48.27678 | 16.21575 | 144° | 46km/h | 1439m | -3.6m/s | 12.4°C | 71.7% | 0hPa | 2.7V | 00:00:00 | 00:00:00 | 00:00:00 | |
| PETON7-10 | 2026-09-05 04:03:00 | 48.27687 | 16.21565 | 144° | 47km/h | 1443m | -4.5m/s | 12.4°C | 71.7% | 0hPa | 2.7V | 00:00:00 | 02:14:17 | 00:00:00 | |
| OE3JTB-15 | 2026-09-05 04:02:59 | 48.27697 | 16.21554 | 145° | 47km/h | 1447m | -3.9m/s | 12.3°C | 71.9% | 0hPa | 2.7V | 00:00:00 | 02:14:16 | 00:00:00 | |
| PETON7-10 | 2026-09-05 04:02:59 | 48.27697 | 16.21554 | 145° | 47km/h | 1447m | -3.9m/s | 12.3°C | 71.9% | 0hPa | 2.7V | 00:00:00 | 00:00:00 | 00:00:00 | |
| OE3MUC-15 | 2026-09-05 04:02:58 | 48.27706 | 16.21544 | 145° | 46km/h | 1451m | -3.8m/s | 12.3°C | 72.0% | 0hPa | 2.7V | 00:00:00 | 00:00:00 | 00:00:00 | |
| PETON7-10 | 2026-09-05 04:02:58 | 48.27706 | 16.21544 | 145° | 46km/h | 1451m | -3.8m/s | 12.3°C | 72.0% | 0hPa | 2.7V | 00:00:00 | 00:00:00 | 00:00:00 | |
| OE3JTB-15 | 2026-09-05 04:02:57 | 48.27716 | 16.21534 | 145° | 46km/h | 1455m | -3.0m/s | 12.3°C | 72.3% | 0hPa | 2.7V | 00:00:00 | 00:00:00 | 00:00:00 | |
| PETON7-10 | 2026-09-05 04:02:57 | 48.27716 | 16.21534 | 145° | 47km/h | 1455m | -3.0m/s | 12.3°C | 72.3% | 0hPa | 2.7V | 00:00:00 | 02:14:14 | 00:00:00 | |
| PETON7-10 | 2026-09-05 04:02:56 | 48.27725 | 16.21523 | 145° | 46km/h | 1458m | -2.8m/s | 12.2°C | 72.3% | 0hPa | 2.7V | 07:50:00 | 00:00:00 | 00:00:00 | |
| OE3JTB-15 | 2026-09-05 04:02:55 | 48.27735 | 16.21514 | 146° | 47km/h | 1461m | -3.3m/s | 12.2°C | 72.6% | 0hPa | 2.7V | 00:00:00 | 00:00:00 | 00:00:00 | |
| PETON7-10 | 2026-09-05 04:02:55 | 48.27735 | 16.21514 | 146° | 47km/h | 1461m | -3.3m/s | 12.2°C | 72.6% | 0hPa | 2.7V | 00:00:00 | 00:00:00 | 00:00:00 | |
| PETON7-10 | 2026-09-05 04:02:54 | 48.27745 | 16.21503 | 146° | 46km/h | 1464m | -3.5m/s | 12.1°C | 72.5% | 0hPa | 2.7V | 00:00:00 | 02:14:11 | 00:00:00 | |
| OE3MUC-15 | 2026-09-05 04:02:54 | 48.27745 | 16.21503 | 146° | 46km/h | 1464m | -3.5m/s | 12.1°C | 72.5% | 0hPa | 2.7V | 00:00:00 | 00:00:00 | 00:00:00 | |
| OE3JTB-15 | 2026-09-05 04:02:53 | 48.27754 | 16.21493 | 146° | 46km/h | 1468m | -4.4m/s | 12.1°C | 72.7% | 0hPa | 2.7V | 00:00:00 | 02:14:10 | 00:00:00 | |
| PETON7-10 | 2026-09-05 04:02:53 | 48.27754 | 16.21493 | 146° | 47km/h | 1468m | -4.4m/s | 12.1°C | 72.7% | 0hPa | 2.7V | 00:00:00 | 00:00:00 | 00:00:00 | |
| PETON7-10 | 2026-09-05 04:02:52 | 48.27764 | 16.21484 | 146° | 46km/h | 1472m | -4.0m/s | 12.1°C | 72.6% | 0hPa | 2.7V | 00:00:00 | 00:00:00 | 00:00:00 | |
| OE3JTB-15 | 2026-09-05 04:02:51 | 48.27774 | 16.21474 | 146° | 46km/h | 1476m | -4.2m/s | 12.1°C | 73.3% | 0hPa | 2.7V | 00:00:00 | 00:00:00 | 00:00:00 | |
| PETON7-10 | 2026-09-05 04:02:51 | 48.27774 | 16.21474 | 146° | 46km/h | 1476m | -4.2m/s | 12.1°C | 73.3% | 0hPa | 2.7V | 00:00:00 | 02:14:08 | 00:00:00 | |
| OE3MUC-15 | 2026-09-05 04:02:50 | 48.27783 | 16.21464 | 145° | 44km/h | 1481m | -3.7m/s | 12.0°C | 73.3% | 0hPa | 2.7V | 00:00:00 | 00:00:00 | 00:00:00 | |
| PETON7-10 | 2026-09-05 04:02:50 | 48.27783 | 16.21464 | 145° | 44km/h | 1481m | -3.7m/s | 12.0°C | 73.3% | 0hPa | 2.7V | 00:00:00 | 00:00:00 | 00:00:00 | |
| OE3JTB-15 | 2026-09-05 04:02:49 | 48.27792 | 16.21454 | 144° | 46km/h | 1485m | -4.0m/s | 12.0°C | 73.7% | 0hPa | 2.7V | 00:00:00 | 00:00:00 | 00:00:00 | |
| PETON7-10 | 2026-09-05 04:02:49 | 48.27792 | 16.21454 | 144° | 46km/h | 1485m | -4.0m/s | 12.0°C | 73.7% | 0hPa | 2.7V | 00:00:00 | 00:00:00 | 00:00:00 | |
| OM5KV | 2026-09-05 04:02:48 | 48.27792 | 16.21454 | 145° | 46km/h | 1485m | -4.0m/s | 12.1°C | 74.3% | 0hPa | 2.7V | 07:51:00 | 00:00:00 | 00:00:00 | |
| PETON7-10 | 2026-09-05 04:02:48 | 48.27802 | 16.21444 | 147° | 46km/h | 1489m | -3.8m/s | 12.0°C | 73.8% | 0hPa | 2.7V | 07:50:00 | 02:14:05 | 00:00:00 | |
| OE3JTB-15 | 2026-09-05 04:02:47 | 48.27811 | 16.21434 | 145° | 44km/h | 1493m | -3.8m/s | 12.0°C | 74.2% | 0hPa | 2.7V | 00:00:00 | 02:14:04 | 00:00:00 | |
| PETON7-10 | 2026-09-05 04:02:47 | 48.27811 | 16.21434 | 145° | 44km/h | 1493m | -3.8m/s | 12.0°C | 74.2% | 0hPa | 2.7V | 00:00:00 | 00:00:00 | 00:00:00 | |
| OE3MUC-15 | 2026-09-05 04:02:46 | 48.27820 | 16.21425 | 143° | 44km/h | 1497m | -3.2m/s | 12.0°C | 74.6% | 0hPa | 2.7V | 00:00:00 | 00:00:00 | 00:00:00 | |
| OE3JTB-15 | 2026-09-05 04:02:45 | 48.27829 | 16.21415 | 142° | 44km/h | 1500m | -3.7m/s | 11.9°C | 74.9% | 0hPa | 2.7V | 07:50:00 | 00:00:00 | 00:00:00 | |
| PETON7-10 | 2026-09-05 04:02:45 | 48.27829 | 16.21415 | 142° | 44km/h | 1500m | -3.7m/s | 11.9°C | 74.9% | 0hPa | 2.7V | 00:00:00 | 00:00:00 | 00:00:00 | |
| OE3JTB-15 | 2026-09-05 04:02:43 | 48.27846 | 16.21394 | 141° | 42km/h | 1508m | -3.9m/s | 11.9°C | 75.2% | 0hPa | 2.7V | 00:00:00 | 00:00:00 | 00:00:00 | |
| OE3MUC-15 | 2026-09-05 04:02:42 | 48.27855 | 16.21384 | 140° | 42km/h | 1512m | -3.8m/s | 11.9°C | 75.2% | 0hPa | 2.7V | 00:00:00 | 00:00:00 | 00:00:00 | |
| OE3JTB-15 | 2026-09-05 04:02:41 | 48.27863 | 16.21373 | 140° | 42km/h | 1515m | -3.2m/s | 11.9°C | 76.6% | 0hPa | 2.7V | 00:00:00 | 02:13:58 | 00:00:00 | |
| PETON7-10 | 2026-09-05 04:02:40 | 48.27871 | 16.21363 | 140° | 40km/h | 1519m | -3.8m/s | 11.9°C | 76.3% | 0hPa | 2.7V | 00:00:00 | 02:13:57 | 00:00:00 | |
| OE3JTB-15 | 2026-09-05 04:02:39 | 48.27879 | 16.21353 | 142° | 42km/h | 1522m | -3.0m/s | 11.8°C | 76.3% | 0hPa | 2.7V | 00:00:00 | 00:00:00 | 00:00:00 | |
| OE3MUC-15 | 2026-09-05 04:02:38 | 48.27887 | 16.21343 | 139° | 40km/h | 1526m | -3.7m/s | 11.8°C | 76.5% | 0hPa | 2.7V | 00:00:00 | 00:00:00 | 00:00:00 | |
| OE3JTB-15 | 2026-09-05 04:02:37 | 48.27895 | 16.21332 | 138° | 40km/h | 1529m | -3.0m/s | 11.8°C | 76.7% | 0hPa | 2.7V | 00:00:00 | 00:00:00 | 00:00:00 | |
| OM5KV | 2026-09-05 04:02:35 | 48.27902 | 16.21322 | 139° | 38km/h | 1533m | -3.8m/s | 11.8°C | 77.3% | 0hPa | 2.7V | 07:51:00 | 00:00:00 | 00:00:00 | |
| OE3JTB-15 | 2026-09-05 04:02:35 | 48.27910 | 16.21312 | 138° | 38km/h | 1536m | -1.7m/s | 11.7°C | 77.1% | 0hPa | 2.7V | 00:00:00 | 02:13:52 | 00:00:00 | |
| PETON7-10 | 2026-09-05 04:02:35 | 48.27910 | 16.21312 | 138° | 38km/h | 1536m | -1.7m/s | 11.7°C | 77.1% | 0hPa | 2.7V | 00:00:00 | 00:00:00 | 00:00:00 | |
| OE3MUC-15 | 2026-09-05 04:02:34 | 48.27917 | 16.21303 | 139° | 40km/h | 1538m | -1.8m/s | 11.7°C | 76.9% | 0hPa | 2.7V | 07:51:00 | 00:00:00 | 00:00:00 | |
| OE3JTB-15 | 2026-09-05 04:02:33 | 48.27924 | 16.21293 | 138° | 38km/h | 1540m | -2.8m/s | 11.7°C | 76.8% | 0hPa | 2.7V | 00:00:00 | 00:00:00 | 00:00:00 | |
| OE3JTB-15 | 2026-09-05 04:02:31 | 48.27939 | 16.21273 | 139° | 40km/h | 1547m | -3.6m/s | 11.7°C | 78.1% | 0hPa | 2.7V | 00:00:00 | 00:00:00 | 00:00:00 | |
| PETON7-10 | 2026-09-05 04:02:30 | 48.27947 | 16.21263 | 140° | 38km/h | 1551m | -4.0m/s | 11.6°C | 78.3% | 0hPa | 2.7V | 00:00:00 | 00:00:00 | 00:00:00 | |
| OE3MUC-15 | 2026-09-05 04:02:30 | 48.27947 | 16.21263 | 140° | 40km/h | 1551m | -4.0m/s | 11.6°C | 78.3% | 0hPa | 2.7V | 00:00:00 | 00:00:00 | 00:00:00 | |
| OE3JTB-15 | 2026-09-05 04:02:29 | 48.27955 | 16.21253 | 143° | 40km/h | 1555m | -4.5m/s | 11.6°C | 78.3% | 0hPa | 2.7V | 07:51:00 | 02:13:46 | 00:00:00 | |
| OE3JTB-15 | 2026-09-05 04:02:27 | 48.27970 | 16.21235 | 142° | 38km/h | 1564m | -4.5m/s | 11.6°C | 79.1% | 0hPa | 2.7V | 00:00:00 | 00:00:00 | 00:00:00 | |
| OE3MUC-15 | 2026-09-05 04:02:26 | 48.27977 | 16.21225 | 138° | 38km/h | 1568m | -4.0m/s | 11.6°C | 79.7% | 0hPa | 2.7V | 00:00:00 | 00:00:00 | 00:00:00 | |
| OE3JTB-15 | 2026-09-05 04:02:25 | 48.27984 | 16.21216 | 139° | 38km/h | 1572m | -4.4m/s | 11.6°C | 80.3% | 0hPa | 2.7V | 00:00:00 | 00:00:00 | 00:00:00 | |
| PETON7-10 | 2026-09-05 04:02:25 | 48.27984 | 16.21216 | 139° | 38km/h | 1572m | -4.4m/s | 11.6°C | 80.3% | 0hPa | 2.7V | 00:00:00 | 02:13:42 | 00:00:00 | |
| OE3JTB-15 | 2026-09-05 04:02:23 | 48.27998 | 16.21195 | 136° | 40km/h | 1581m | -4.1m/s | 11.5°C | 80.2% | 0hPa | 2.7V | 00:00:00 | 02:13:40 | 00:00:00 | |
| OE3MUC-15 | 2026-09-05 04:02:22 | 48.28005 | 16.21184 | 135° | 40km/h | 1585m | -4.0m/s | 11.6°C | 81.9% | 0hPa | 2.7V | 00:00:00 | 02:13:39 | 00:00:00 | |
| OE3JTB-15 | 2026-09-05 04:02:21 | 48.28012 | 16.21174 | 134° | 38km/h | 1589m | -4.3m/s | 11.6°C | 82.4% | 0hPa | 2.7V | 00:00:00 | 00:00:00 | 00:00:00 | |
| PETON7-10 | 2026-09-05 04:02:20 | 48.28019 | 16.21163 | 133° | 38km/h | 1593m | -4.1m/s | 11.5°C | 82.7% | 0hPa | 2.7V | 00:00:00 | 00:00:00 | 00:00:00 | |
| OE3JTB-15 | 2026-09-05 04:02:19 | 48.28026 | 16.21152 | 134° | 38km/h | 1597m | -4.1m/s | 11.5°C | 82.0% | 0hPa | 2.7V | 00:00:00 | 00:00:00 | 00:00:00 | |
| OE3MUC-15 | 2026-09-05 04:02:18 | 48.28033 | 16.21141 | 133° | 38km/h | 1601m | -3.2m/s | 11.5°C | 82.4% | 0hPa | 2.7V | 00:00:00 | 00:00:00 | 00:00:00 | |
| OE3JTB-15 | 2026-09-05 04:02:17 | 48.28039 | 16.21130 | 134° | 38km/h | 1604m | -3.6m/s | 11.5°C | 83.2% | 0hPa | 2.7V | 00:00:00 | 02:13:34 | 00:00:00 | |
| OE3JTB-15 | 2026-09-05 04:02:15 | 48.28053 | 16.21110 | 134° | 38km/h | 1612m | -3.9m/s | 11.4°C | 83.4% | 0hPa | 2.7V | 00:00:00 | 00:00:00 | 00:00:00 | |
| PETON7-10 | 2026-09-05 04:02:15 | 48.28053 | 16.21110 | 134° | 38km/h | 1612m | -3.9m/s | 11.4°C | 83.4% | 0hPa | 2.7V | 07:51:00 | 00:00:00 | 00:00:00 | |
| OE3MUC-15 | 2026-09-05 04:02:14 | 48.28059 | 16.21099 | 134° | 37km/h | 1615m | -3.3m/s | 11.3°C | 83.5% | 0hPa | 2.7V | 00:00:00 | 00:00:00 | 00:00:00 | |
| OE3JTB-15 | 2026-09-05 04:02:13 | 48.28066 | 16.21089 | 135° | 38km/h | 1619m | -3.7m/s | 11.3°C | 83.4% | 0hPa | 2.7V | 07:51:00 | 00:00:00 | 00:00:00 | |
| OE3JTB-15 | 2026-09-05 04:02:11 | 48.28079 | 16.21068 | 135° | 38km/h | 1626m | -3.3m/s | 11.3°C | 84.1% | 0hPa | 2.7V | 00:00:00 | 02:13:28 | 00:00:00 | |
| PETON7-10 | 2026-09-05 04:02:10 | 48.28086 | 16.21058 | 135° | 37km/h | 1629m | -3.3m/s | 11.2°C | 84.6% | 0hPa | 2.7V | 00:00:00 | 02:13:27 | 00:00:00 | |
| OM5KV | 2026-09-05 04:02:09 | 48.28086 | 16.21058 | 136° | 37km/h | 1629m | -3.3m/s | 11.3°C | 85.3% | 0hPa | 2.7V | 07:51:00 | 00:00:00 | 00:00:00 | |
| OE3JTB-15 | 2026-09-05 04:02:09 | 48.28093 | 16.21048 | 135° | 37km/h | 1633m | -3.7m/s | 11.2°C | 84.2% | 0hPa | 2.7V | 00:00:00 | 00:00:00 | 00:00:00 | |
| OE3JTB-15 | 2026-09-05 04:02:07 | 48.28105 | 16.21029 | 134° | 37km/h | 1640m | -3.2m/s | 11.1°C | 84.7% | 0hPa | 2.7V | 00:00:00 | 00:00:00 | 00:00:00 | |
| OE3MUC-15 | 2026-09-05 04:02:07 | 48.28105 | 16.21029 | 134° | 35km/h | 1640m | -3.2m/s | 11.1°C | 84.7% | 0hPa | 2.7V | 00:00:00 | 00:00:00 | 00:00:00 | |
| OE3OSB-13 | 2026-09-05 04:02:06 | 48.28117 | 16.21009 | 131° | 35km/h | 1647m | -3.0m/s | 11.1°C | 85.9% | -1.0hPa | 2.7V | 00:00:00 | 00:00:00 | 00:00:00 | |
| OE3JTB-15 | 2026-09-05 04:02:05 | 48.28117 | 16.21009 | 132° | 35km/h | 1647m | -2.9m/s | 11.1°C | 85.2% | 0hPa | 2.7V | 00:00:00 | 02:13:22 | 00:00:00 | |
| PETON7-10 | 2026-09-05 04:02:05 | 48.28117 | 16.21009 | 132° | 35km/h | 1647m | -2.9m/s | 11.1°C | 85.2% | 0hPa | 2.7V | 00:00:00 | 00:00:00 | 00:00:00 | |
| OM5KV | 2026-09-05 04:02:04 | 48.28117 | 16.21009 | 133° | 35km/h | 1647m | -3.0m/s | 11.1°C | 85.8% | 0hPa | 2.7V | 07:52:00 | 00:00:00 | 00:00:00 | |
| OE3JTB-15 | 2026-09-05 04:02:03 | 48.28129 | 16.20990 | 135° | 35km/h | 1653m | -3.0m/s | 11.0°C | 85.4% | 0hPa | 2.7V | 00:00:00 | 00:00:00 | 00:00:00 | |
| OE3MUC-15 | 2026-09-05 04:02:03 | 48.28129 | 16.20990 | 135° | 35km/h | 1653m | -3.0m/s | 11.0°C | 85.4% | 0hPa | 2.7V | 00:00:00 | 00:00:00 | 00:00:00 | |
| PETON7-10 | 2026-09-05 04:02:00 | 48.28147 | 16.20962 | 132° | 33km/h | 1662m | -2.9m/s | 10.9°C | 85.8% | 0hPa | 2.7V | 00:00:00 | 00:00:00 | 00:00:00 | |
| OE3JTB-15 | 2026-09-05 04:01:59 | 48.28152 | 16.20952 | 130° | 33km/h | 1665m | -3.9m/s | 10.9°C | 85.9% | 0hPa | 2.7V | 00:00:00 | 02:13:16 | 00:00:00 | |
| OE3MUC-15 | 2026-09-05 04:01:59 | 48.28152 | 16.20952 | 130° | 33km/h | 1665m | -3.9m/s | 10.9°C | 85.9% | 0hPa | 2.7V | 07:51:00 | 00:00:00 | 00:00:00 | |
| OM5KV | 2026-09-05 04:01:57 | 48.28158 | 16.20942 | 128° | 31km/h | 1669m | -2.9m/s | 10.9°C | 86.4% | 0hPa | 2.7V | 07:52:00 | 00:00:00 | 00:00:00 | |
| OE3JTB-15 | 2026-09-05 04:01:57 | 48.28163 | 16.20933 | 129° | 33km/h | 1672m | -3.4m/s | 10.8°C | 85.7% | 0hPa | 2.7V | 07:51:00 | 00:00:00 | 00:00:00 | |
| OE3JTB-15 | 2026-09-05 04:01:55 | 48.28173 | 16.20913 | 132° | 31km/h | 1679m | -3.9m/s | 10.8°C | 86.7% | 0hPa | 2.7V | 00:00:00 | 00:00:00 | 00:00:00 | |
| PETON7-10 | 2026-09-05 04:01:55 | 48.28173 | 16.20913 | 132° | 31km/h | 1679m | -3.9m/s | 10.8°C | 86.7% | 0hPa | 2.7V | 00:00:00 | 02:13:12 | 00:00:00 | |
| OE3JTB-15 | 2026-09-05 04:01:53 | 48.28183 | 16.20895 | 130° | 31km/h | 1685m | -3.5m/s | 10.7°C | 87.0% | 0hPa | 2.7V | 00:00:00 | 02:13:10 | 00:00:00 | |
| OE3JTB-15 | 2026-09-05 04:01:51 | 48.28193 | 16.20876 | 126° | 33km/h | 1692m | -3.7m/s | 10.7°C | 87.2% | 0hPa | 2.7V | 00:00:00 | 00:00:00 | 00:00:00 | |
| OM5KV | 2026-09-05 04:01:50 | 48.28193 | 16.20876 | 126° | 33km/h | 1692m | -3.7m/s | 10.8°C | 87.8% | 0hPa | 2.7V | 07:52:00 | 00:00:00 | 00:00:00 | |
| PETON7-10 | 2026-09-05 04:01:50 | 48.28197 | 16.20866 | 125° | 35km/h | 1695m | -2.7m/s | 10.7°C | 87.8% | 0hPa | 2.7V | 00:00:00 | 00:00:00 | 00:00:00 | |
| OE3JTB-15 | 2026-09-05 04:01:49 | 48.28202 | 16.20855 | 125° | 35km/h | 1698m | -3.2m/s | 10.7°C | 87.9% | 0hPa | 2.7V | 00:00:00 | 00:00:00 | 00:00:00 | |
| OE3JTB-15 | 2026-09-05 04:01:47 | 48.28212 | 16.20834 | 123° | 35km/h | 1704m | -3.2m/s | 10.6°C | 88.2% | 0hPa | 2.7V | 00:00:00 | 02:13:04 | 00:00:00 | |
| OE3MUC-15 | 2026-09-05 04:01:47 | 48.28212 | 16.20834 | 123° | 33km/h | 1704m | -3.2m/s | 10.6°C | 88.2% | 0hPa | 2.7V | 00:00:00 | 00:00:00 | 00:00:00 | |
| OE3JTB-15 | 2026-09-05 04:01:45 | 48.28222 | 16.20812 | 121° | 35km/h | 1711m | -3.5m/s | 10.6°C | 88.6% | 0hPa | 2.7V | 00:00:00 | 00:00:00 | 00:00:00 | |
| PETON7-10 | 2026-09-05 04:01:45 | 48.28222 | 16.20812 | 121° | 35km/h | 1711m | -3.5m/s | 10.6°C | 88.6% | 0hPa | 2.7V | 00:00:00 | 00:00:00 | 00:00:00 | |
| OE3JTB-15 | 2026-09-05 04:01:43 | 48.28231 | 16.20790 | 126° | 37km/h | 1717m | -2.8m/s | 10.5°C | 89.3% | 0hPa | 2.7V | 00:00:00 | 00:00:00 | 00:00:00 | |
| OE3JTB-15 | 2026-09-05 04:01:41 | 48.28240 | 16.20767 | 120° | 33km/h | 1723m | -3.5m/s | 10.4°C | 89.0% | 0hPa | 2.7V | 07:51:00 | 02:12:58 | 00:00:00 | |
| PETON7-10 | 2026-09-05 04:01:40 | 48.28244 | 16.20756 | 121° | 35km/h | 1726m | -3.4m/s | 10.4°C | 89.2% | 0hPa | 2.7V | 00:00:00 | 02:12:57 | 00:00:00 | |
| OE3JTB-15 | 2026-09-05 04:01:39 | 48.28249 | 16.20745 | 124° | 37km/h | 1729m | -3.2m/s | 10.4°C | 89.4% | 0hPa | 2.7V | 00:00:00 | 00:00:00 | 00:00:00 | |
| OE3OSB-13 | 2026-09-05 04:01:35 | 48.28267 | 16.20699 | 120° | 35km/h | 1743m | -2.8m/s | 10.3°C | 90.7% | -1.0hPa | 2.7V | 00:00:00 | 00:00:00 | 00:00:00 | |
| OE3JTB-15 | 2026-09-05 04:01:35 | 48.28267 | 16.20699 | 121° | 37km/h | 1743m | -2.8m/s | 10.2°C | 90.0% | 0hPa | 2.7V | 00:00:00 | 02:12:52 | 00:00:00 | |
| PETON7-10 | 2026-09-05 04:01:35 | 48.28267 | 16.20699 | 121° | 35km/h | 1743m | -2.8m/s | 10.2°C | 90.0% | 0hPa | 2.7V | 07:52:00 | 00:00:00 | 00:00:00 | |
| OM5KV | 2026-09-05 04:01:33 | 48.28271 | 16.20687 | 119° | 37km/h | 1747m | -3.4m/s | 10.2°C | 90.5% | 0hPa | 2.7V | 07:52:00 | 00:00:00 | 00:00:00 | |
| OE3JTB-15 | 2026-09-05 04:01:33 | 48.28275 | 16.20675 | 120° | 35km/h | 1750m | -2.9m/s | 10.2°C | 90.1% | 0hPa | 2.7V | 00:00:00 | 00:00:00 | 00:00:00 | |
| OE3JTB-15 | 2026-09-05 04:01:31 | 48.28284 | 16.20652 | 117° | 35km/h | 1757m | -3.0m/s | 10.3°C | 92.1% | 0hPa | 2.7V | 00:00:00 | 00:00:00 | 00:00:00 | |
| PETON7-10 | 2026-09-05 04:01:30 | 48.28288 | 16.20640 | 117° | 35km/h | 1760m | -3.1m/s | 10.2°C | 91.5% | 0hPa | 2.7V | 00:00:00 | 00:00:00 | 00:00:00 | |
| OE3JTB-15 | 2026-09-05 04:01:29 | 48.28292 | 16.20629 | 119° | 37km/h | 1763m | -3.1m/s | 10.1°C | 91.0% | 0hPa | 2.7V | 00:00:00 | 02:12:46 | 00:00:00 | |
| OM5KV | 2026-09-05 04:01:27 | 48.28296 | 16.20616 | 114° | 37km/h | 1766m | -3.3m/s | 10.1°C | 91.5% | 0hPa | 2.7V | 07:52:00 | 00:00:00 | 00:00:00 | |
| OE3JTB-15 | 2026-09-05 04:01:27 | 48.28299 | 16.20604 | 112° | 37km/h | 1770m | -3.3m/s | 10.1°C | 92.4% | 0hPa | 2.7V | 00:00:00 | 00:00:00 | 00:00:00 | |
| OE3JTB-15 | 2026-09-05 04:01:25 | 48.28306 | 16.20578 | 111° | 37km/h | 1776m | -3.3m/s | 10.2°C | 93.6% | 0hPa | 2.7V | 07:52:00 | 00:00:00 | 00:00:00 | |
| PETON7-10 | 2026-09-05 04:01:25 | 48.28306 | 16.20578 | 111° | 37km/h | 1776m | -3.3m/s | 10.2°C | 93.6% | 0hPa | 2.7V | 00:00:00 | 02:12:42 | 00:00:00 | |
| OE3JTB-15 | 2026-09-05 04:01:23 | 48.28312 | 16.20552 | 110° | 37km/h | 1783m | -3.5m/s | 10.2°C | 95.1% | 0hPa | 2.7V | 00:00:00 | 02:12:40 | 00:00:00 | |
| OM5KV | 2026-09-05 04:01:21 | 48.28316 | 16.20540 | 114° | 37km/h | 1786m | -3.1m/s | 10.2°C | 96.0% | 0hPa | 2.7V | 07:52:00 | 00:00:00 | 00:00:00 | |
| OE3JTB-15 | 2026-09-05 04:01:21 | 48.28319 | 16.20526 | 110° | 38km/h | 1790m | -3.6m/s | 10.1°C | 95.3% | 0hPa | 2.7V | 00:00:00 | 00:00:00 | 00:00:00 | |
| PETON7-10 | 2026-09-05 04:01:20 | 48.28323 | 16.20512 | 107° | 38km/h | 1793m | -2.9m/s | 10.0°C | 95.3% | 0hPa | 2.7V | 00:00:00 | 00:00:00 | 00:00:00 | |
| OE3JTB-15 | 2026-09-05 04:01:19 | 48.28325 | 16.20498 | 106° | 38km/h | 1796m | -3.4m/s | 10.0°C | 95.5% | 0hPa | 2.7V | 00:00:00 | 00:00:00 | 00:00:00 | |
| OE3MUC-15 | 2026-09-05 04:01:18 | 48.28328 | 16.20484 | 104° | 40km/h | 1800m | -2.6m/s | 10.0°C | 95.5% | 0hPa | 2.7V | 00:00:00 | 00:00:00 | 00:00:00 | |
| OE3JTB-15 | 2026-09-05 04:01:17 | 48.28330 | 16.20470 | 106° | 38km/h | 1803m | -2.8m/s | 10.1°C | 95.5% | 0hPa | 2.7V | 00:00:00 | 02:12:34 | 00:00:00 | |
| OE3JTB-15 | 2026-09-05 04:01:15 | 48.28336 | 16.20441 | 103° | 42km/h | 1809m | -3.1m/s | 10.1°C | 96.1% | 0hPa | 2.7V | 00:00:00 | 00:00:00 | 00:00:00 | |
| PETON7-10 | 2026-09-05 04:01:15 | 48.28336 | 16.20441 | 103° | 40km/h | 1809m | -3.1m/s | 10.1°C | 96.1% | 0hPa | 2.7V | 00:00:00 | 00:00:00 | 00:00:00 | |
| OE3MUC-15 | 2026-09-05 04:01:14 | 48.28338 | 16.20426 | 103° | 40km/h | 1812m | -3.0m/s | 10.1°C | 96.0% | 0hPa | 2.7V | 00:00:00 | 00:00:00 | 00:00:00 | |
| OE3JTB-15 | 2026-09-05 04:01:13 | 48.28340 | 16.20410 | 102° | 40km/h | 1815m | -2.5m/s | 10.0°C | 96.4% | 0hPa | 2.7V | 00:00:00 | 00:00:00 | 00:00:00 | |
| OE3JTB-15 | 2026-09-05 04:01:11 | 48.28344 | 16.20380 | 103° | 40km/h | 1821m | -2.3m/s | 10.0°C | 96.8% | 0hPa | 2.7V | 00:00:00 | 02:12:28 | 00:00:00 | |
| OM5KV | 2026-09-05 04:01:11 | 48.28344 | 16.20380 | 103° | 40km/h | 1821m | -2.3m/s | 10.0°C | 97.5% | 0hPa | 2.7V | 07:53:00 | 00:00:00 | 00:00:00 | |
| PETON7-10 | 2026-09-05 04:01:10 | 48.28346 | 16.20365 | 101° | 42km/h | 1823m | -3.0m/s | 9.9°C | 96.6% | 0hPa | 2.7V | 00:00:00 | 02:12:27 | 00:00:00 | |
| OE3JTB-15 | 2026-09-05 04:01:09 | 48.28349 | 16.20349 | 104° | 42km/h | 1826m | -2.4m/s | 9.9°C | 97.2% | 0hPa | 2.7V | 07:52:00 | 00:00:00 | 00:00:00 | |
| OE3JTB-15 | 2026-09-05 04:01:07 | 48.28354 | 16.20319 | 103° | 40km/h | 1832m | -2.4m/s | 9.9°C | 97.0% | 0hPa | 2.7V | 00:00:00 | 00:00:00 | 00:00:00 | |
| OE3JTB-15 | 2026-09-05 04:01:05 | 48.28358 | 16.20288 | 102° | 42km/h | 1837m | -2.0m/s | 9.8°C | 97.3% | 0hPa | 2.7V | 00:00:00 | 02:12:22 | 00:00:00 | |
| PETON7-10 | 2026-09-05 04:01:05 | 48.28358 | 16.20288 | 102° | 42km/h | 1837m | -2.0m/s | 9.8°C | 97.3% | 0hPa | 2.7V | 00:00:00 | 00:00:00 | 00:00:00 | |
| OE3OSB-13 | 2026-09-05 04:01:04 | 48.28363 | 16.20257 | 100° | 42km/h | 1843m | -2.5m/s | 9.9°C | 98.2% | -1.0hPa | 2.7V | 00:00:00 | 00:00:00 | 00:00:00 | |
| OE3JTB-15 | 2026-09-05 04:01:03 | 48.28362 | 16.20257 | 101° | 42km/h | 1843m | -2.4m/s | 9.8°C | 97.4% | 0hPa | 2.7V | 00:00:00 | 00:00:00 | 00:00:00 | |
| OE3JTB-15 | 2026-09-05 04:01:01 | 48.28366 | 16.20225 | 98° | 46km/h | 1848m | -2.6m/s | 9.9°C | 97.1% | 0hPa | 2.7V | 00:00:00 | 00:00:00 | 00:00:00 | |
| OM5KV | 2026-09-05 04:01:00 | 48.28366 | 16.20225 | 99° | 46km/h | 1848m | -2.7m/s | 9.9°C | 97.8% | 0hPa | 2.7V | 07:53:00 | 00:00:00 | 00:00:00 | |
| PETON7-10 | 2026-09-05 04:01:00 | 48.28368 | 16.20208 | 101° | 46km/h | 1851m | -2.7m/s | 9.9°C | 97.3% | 0hPa | 2.7V | 00:00:00 | 00:00:00 | 00:00:00 | |
| OE3JTB-15 | 2026-09-05 04:00:59 | 48.28370 | 16.20191 | 97° | 46km/h | 1854m | -3.0m/s | 9.8°C | 97.2% | 0hPa | 2.7V | 00:00:00 | 02:12:16 | 00:00:00 | |
| OE3JTB-15 | 2026-09-05 04:00:57 | 48.28373 | 16.20157 | 100° | 47km/h | 1860m | -3.1m/s | 9.8°C | 97.7% | 0hPa | 2.7V | 00:00:00 | 00:00:00 | 00:00:00 | |
| OE3JTB-15 | 2026-09-05 04:00:55 | 48.28376 | 16.20122 | 99° | 47km/h | 1865m | -2.8m/s | 9.8°C | 97.6% | 0hPa | 2.7V | 00:00:00 | 00:00:00 | 00:00:00 | |
| PETON7-10 | 2026-09-05 04:00:55 | 48.28376 | 16.20122 | 99° | 47km/h | 1865m | -2.8m/s | 9.8°C | 97.6% | 0hPa | 2.7V | 07:52:00 | 02:12:12 | 00:00:00 | |
| OE3JTB-15 | 2026-09-05 04:00:53 | 48.28379 | 16.20086 | 97° | 47km/h | 1870m | -3.1m/s | 10.0°C | 95.8% | 0hPa | 2.7V | 07:52:00 | 02:12:10 | 00:00:00 | |
| OE3JTB-15 | 2026-09-05 04:00:51 | 48.28383 | 16.20050 | 97° | 49km/h | 1876m | -3.2m/s | 10.2°C | 94.3% | 0hPa | 2.7V | 00:00:00 | 00:00:00 | 00:00:00 | |
| PETON7-10 | 2026-09-05 04:00:50 | 48.28384 | 16.20031 | 96° | 49km/h | 1879m | -2.2m/s | 10.2°C | 94.3% | 0hPa | 2.7V | 00:00:00 | 00:00:00 | 00:00:00 | |
| OM5KV | 2026-09-05 04:00:49 | 48.28384 | 16.20031 | 97° | 51km/h | 1879m | -2.3m/s | 10.2°C | 95.0% | 0hPa | 2.7V | 07:53:00 | 00:00:00 | 00:00:00 | |
| OE3JTB-15 | 2026-09-05 04:00:49 | 48.28385 | 16.20012 | 96° | 51km/h | 1882m | -2.1m/s | 10.1°C | 94.4% | 0hPa | 2.7V | 00:00:00 | 00:00:00 | 00:00:00 | |
| OE3MUC-15 | 2026-09-05 04:00:48 | 48.28387 | 16.19993 | 97° | 49km/h | 1884m | -2.2m/s | 10.1°C | 94.4% | 0hPa | 2.7V | 07:52:00 | 00:00:00 | 00:00:00 | |
| OE3JTB-15 | 2026-09-05 04:00:47 | 48.28388 | 16.19974 | 96° | 49km/h | 1886m | -2.5m/s | 10.2°C | 94.1% | 0hPa | 2.7V | 00:00:00 | 02:12:04 | 00:00:00 | |
| OE3JTB-15 | 2026-09-05 04:00:45 | 48.28391 | 16.19937 | 98° | 49km/h | 1891m | -2.4m/s | 10.2°C | 94.2% | 0hPa | 2.7V | 00:00:00 | 00:00:00 | 00:00:00 | |
| PETON7-10 | 2026-09-05 04:00:45 | 48.28391 | 16.19937 | 98° | 49km/h | 1891m | -2.4m/s | 10.2°C | 94.2% | 0hPa | 2.7V | 00:00:00 | 00:00:00 | 00:00:00 | |
| OE3MUC-15 | 2026-09-05 04:00:44 | 48.28392 | 16.19919 | 97° | 49km/h | 1894m | -2.9m/s | 10.3°C | 93.3% | 0hPa | 2.7V | 00:00:00 | 00:00:00 | 00:00:00 | |
| OM5KV | 2026-09-05 04:00:43 | 48.28392 | 16.19919 | 97° | 49km/h | 1894m | -3.0m/s | 10.3°C | 94.0% | 0hPa | 2.7V | 07:53:00 | 00:00:00 | 00:00:00 | |
| OE3JTB-15 | 2026-09-05 04:00:43 | 48.28394 | 16.19900 | 96° | 49km/h | 1897m | -2.6m/s | 10.3°C | 93.3% | 0hPa | 2.7V | 00:00:00 | 00:00:00 | 00:00:00 | |
| OE3JTB-15 | 2026-09-05 04:00:41 | 48.28396 | 16.19863 | 96° | 49km/h | 1902m | -2.7m/s | 10.2°C | 93.5% | 0hPa | 2.7V | 00:00:00 | 02:11:58 | 00:00:00 | |
| PETON7-10 | 2026-09-05 04:00:40 | 48.28397 | 16.19844 | 95° | 49km/h | 1905m | -2.6m/s | 10.2°C | 93.5% | 0hPa | 2.7V | 00:00:00 | 02:11:57 | 00:00:00 | |
| OE3JTB-15 | 2026-09-05 04:00:39 | 48.28398 | 16.19825 | 96° | 51km/h | 1908m | -2.7m/s | 10.2°C | 93.4% | 0hPa | 2.7V | 00:00:00 | 00:00:00 | 00:00:00 | |
| OE3MUC-15 | 2026-09-05 04:00:39 | 48.28398 | 16.19825 | 96° | 51km/h | 1908m | -2.7m/s | 10.2°C | 93.4% | 0hPa | 2.7V | 00:00:00 | 00:00:00 | 00:00:00 | |
| OM5KV | 2026-09-05 04:00:36 | 48.28400 | 16.19788 | 97° | 49km/h | 1913m | -2.9m/s | 10.3°C | 93.8% | 0hPa | 2.7V | 07:53:00 | 00:00:00 | 00:00:00 | |
| PETON7-10 | 2026-09-05 04:00:35 | 48.28403 | 16.19749 | 97° | 51km/h | 1920m | -2.9m/s | 10.5°C | 91.8% | 0hPa | 2.7V | 00:00:00 | 00:00:00 | 00:00:00 | |
| OE3MUC-15 | 2026-09-05 04:00:34 | 48.28404 | 16.19730 | 96° | 51km/h | 1923m | -2.9m/s | 10.5°C | 91.4% | 0hPa | 2.7V | 00:00:00 | 00:00:00 | 00:00:00 | |
| OE3OSB-13 | 2026-09-05 04:00:33 | 48.28407 | 16.19691 | 97° | 49km/h | 1928m | -2.9m/s | 10.7°C | 91.2% | -1.0hPa | 2.7V | 00:00:00 | 00:00:00 | 00:00:00 | |
| OE3JTB-15 | 2026-09-05 04:00:32 | 48.28407 | 16.19691 | 98° | 51km/h | 1928m | -2.9m/s | 10.7°C | 90.5% | 0hPa | 2.7V | 07:53:00 | 00:00:00 | 00:00:00 | |
| OE3MUC-15 | 2026-09-05 04:00:30 | 48.28409 | 16.19653 | 95° | 51km/h | 1934m | -2.6m/s | 10.7°C | 90.6% | 0hPa | 2.7V | 00:00:00 | 00:00:00 | 00:00:00 | |
| OE3MUC-15 | 2026-09-05 04:00:26 | 48.28414 | 16.19575 | 98° | 51km/h | 1945m | -2.8m/s | 10.7°C | 91.0% | 0hPa | 2.7V | 00:00:00 | 00:00:00 | 00:00:00 | |
| PETON7-10 | 2026-09-05 04:00:25 | 48.28415 | 16.19556 | 94° | 51km/h | 1948m | -2.7m/s | 10.7°C | 91.1% | 0hPa | 2.7V | 00:00:00 | 00:00:00 | 00:00:00 | |
| OM5KV | 2026-09-05 04:00:23 | 48.28416 | 16.19536 | 95° | 53km/h | 1950m | -2.5m/s | 10.7°C | 91.9% | 0hPa | 2.7V | 07:53:00 | 00:00:00 | 00:00:00 | |
| OE3JTB-15 | 2026-09-05 04:00:23 | 48.28417 | 16.19517 | 96° | 51km/h | 1953m | -3.1m/s | 10.6°C | 91.5% | 0hPa | 2.7V | 00:00:00 | 02:11:40 | 00:00:00 | |
| OE3MUC-15 | 2026-09-05 04:00:21 | 48.28419 | 16.19477 | 95° | 53km/h | 1959m | -2.7m/s | 10.6°C | 91.7% | 0hPa | 2.7V | 00:00:00 | 00:00:00 | 00:00:00 | |
| OE3MUC-15 | 2026-09-05 04:00:17 | 48.28423 | 16.19398 | 97° | 51km/h | 1970m | -3.1m/s | 10.6°C | 91.9% | 0hPa | 2.7V | 00:00:00 | 00:00:00 | 00:00:00 | |
| PETON7-10 | 2026-09-05 04:00:15 | 48.28426 | 16.19359 | 96° | 51km/h | 1976m | -3.2m/s | 10.6°C | 91.7% | 0hPa | 2.7V | 00:00:00 | 02:11:32 | 00:00:00 | |
| OE3JTB-15 | 2026-09-05 04:00:14 | 48.28427 | 16.19340 | 94° | 51km/h | 1979m | -2.6m/s | 10.6°C | 91.7% | 0hPa | 2.7V | 00:00:00 | 00:00:00 | 00:00:00 | |
| OE3MUC-15 | 2026-09-05 04:00:13 | 48.28428 | 16.19320 | 95° | 51km/h | 1982m | -2.5m/s | 10.6°C | 91.7% | 0hPa | 2.7V | 07:53:00 | 00:00:00 | 00:00:00 | |
| OM5KV | 2026-09-05 04:00:12 | 48.28428 | 16.19320 | 96° | 53km/h | 1982m | -2.6m/s | 10.7°C | 92.3% | 0hPa | 2.7V | 07:53:00 | 00:00:00 | 00:00:00 | |
| OE3MUC-15 | 2026-09-05 04:00:09 | 48.28434 | 16.19242 | 97° | 51km/h | 1993m | -2.9m/s | 10.6°C | 91.9% | 0hPa | 2.7V | 00:00:00 | 00:00:00 | 00:00:00 | |
| OM5KV | 2026-09-05 04:00:06 | 48.28437 | 16.19203 | 100° | 51km/h | 1999m | -3.2m/s | 10.6°C | 92.8% | 0hPa | 2.7V | 07:53:00 | 00:00:00 | 00:00:00 | |
| PETON7-10 | 2026-09-05 04:00:05 | 48.28441 | 16.19164 | 100° | 53km/h | 2006m | -2.9m/s | 10.5°C | 92.3% | 0hPa | 2.7V | 00:00:00 | 00:00:00 | 00:00:00 | |
| OE3OSB-13 | 2026-09-05 04:00:02 | 48.28448 | 16.19084 | 97° | 53km/h | 2017m | -3.0m/s | 10.4°C | 93.5% | -1.0hPa | 2.7V | 00:00:00 | 00:00:00 | 00:00:00 | |
| OE3MUC-15 | 2026-09-05 04:00:01 | 48.28448 | 16.19084 | 98° | 55km/h | 2017m | -3.0m/s | 10.4°C | 92.8% | 0hPa | 2.7V | 00:00:00 | 00:00:00 | 00:00:00 | |
| OM5KV | 2026-09-05 04:00:00 | 48.28448 | 16.19084 | 99° | 53km/h | 2017m | -3.0m/s | 10.4°C | 93.5% | 0hPa | 2.7V | 07:53:00 | 00:00:00 | 00:00:00 | |
| OE3MUC-15 | 2026-09-05 03:59:57 | 48.28455 | 16.19003 | 98° | 55km/h | 2029m | -3.0m/s | 10.3°C | 93.2% | 0hPa | 2.7V | 00:00:00 | 00:00:00 | 00:00:00 | |
| OE3JTB-15 | 2026-09-05 03:59:56 | 48.28457 | 16.18982 | 99° | 55km/h | 2032m | -3.7m/s | 10.2°C | 93.3% | 0hPa | 2.7V | 00:00:00 | 02:11:13 | 00:00:00 | |
| PETON7-10 | 2026-09-05 03:59:55 | 48.28459 | 16.18962 | 98° | 55km/h | 2035m | -3.3m/s | 10.2°C | 93.4% | 0hPa | 2.7V | 07:53:00 | 00:00:00 | 00:00:00 | |
| OM5KV | 2026-09-05 03:59:53 | 48.28461 | 16.18942 | 99° | 55km/h | 2039m | -3.6m/s | 10.3°C | 94.0% | 0hPa | 2.7V | 07:53:00 | 00:00:00 | 00:00:00 | |
| OE3MUC-15 | 2026-09-05 03:59:52 | 48.28465 | 16.18901 | 99° | 57km/h | 2046m | -3.6m/s | 10.2°C | 93.5% | 0hPa | 2.7V | 00:00:00 | 00:00:00 | 00:00:00 | |
| OE3MUC-15 | 2026-09-05 03:59:47 | 48.28475 | 16.18796 | 100° | 57km/h | 2063m | -3.7m/s | 10.3°C | 92.8% | 0hPa | 2.7V | 00:00:00 | 00:00:00 | 00:00:00 | |
| PETON7-10 | 2026-09-05 03:59:45 | 48.28480 | 16.18754 | 99° | 58km/h | 2070m | -3.5m/s | 10.3°C | 92.1% | 0hPa | 2.7V | 00:00:00 | 02:11:02 | 00:00:00 | |
| OE3MUC-15 | 2026-09-05 03:59:43 | 48.28484 | 16.18712 | 99° | 57km/h | 2077m | -3.5m/s | 10.3°C | 91.7% | 0hPa | 2.7V | 00:00:00 | 00:00:00 | 00:00:00 | |
| OE3JTB-15 | 2026-09-05 03:59:38 | 48.28495 | 16.18603 | 100° | 60km/h | 2093m | -3.6m/s | 10.4°C | 89.8% | 0hPa | 2.7V | 00:00:00 | 00:00:00 | 00:00:00 | |
| OM5KV | 2026-09-05 03:59:36 | 48.28497 | 16.18582 | 99° | 60km/h | 2097m | -3.5m/s | 10.5°C | 90.0% | 0hPa | 2.7V | 07:53:00 | 00:00:00 | 00:00:00 | |
| PETON7-10 | 2026-09-05 03:59:35 | 48.28502 | 16.18537 | 100° | 62km/h | 2104m | -3.1m/s | 10.5°C | 88.8% | 0hPa | 2.7V | 00:00:00 | 00:00:00 | 00:00:00 | |
| OE3OSB-13 | 2026-09-05 03:59:31 | 48.28514 | 16.18423 | 97° | 60km/h | 2121m | -3.6m/s | 10.6°C | 88.3% | -1.0hPa | 2.7V | 00:00:00 | 00:00:00 | 00:00:00 | |
| OE3JTB-15 | 2026-09-05 03:59:29 | 48.28516 | 16.18400 | 98° | 62km/h | 2124m | -3.2m/s | 10.6°C | 87.5% | 0hPa | 2.7V | 00:00:00 | 02:10:46 | 00:00:00 | |
| OM5KV | 2026-09-05 03:59:26 | 48.28520 | 16.18353 | 98° | 64km/h | 2131m | -2.9m/s | 10.6°C | 88.2% | 0hPa | 2.7V | 07:54:00 | 00:00:00 | 00:00:00 | |
| PETON7-10 | 2026-09-05 03:59:25 | 48.28525 | 16.18306 | 99° | 64km/h | 2138m | -3.4m/s | 10.5°C | 87.8% | 0hPa | 2.7V | 00:00:00 | 00:00:00 | 00:00:00 | |
| OE3JTB-15 | 2026-09-05 03:59:20 | 48.28536 | 16.18189 | 97° | 64km/h | 2155m | -3.3m/s | 10.4°C | 87.9% | 0hPa | 2.7V | 07:54:00 | 00:00:00 | 00:00:00 | |
| OE3MUC-15 | 2026-09-05 03:59:19 | 48.28538 | 16.18165 | 97° | 64km/h | 2158m | -3.4m/s | 10.4°C | 87.8% | 0hPa | 2.7V | 00:00:00 | 00:00:00 | 00:00:00 | |
| OE3MUC-15 | 2026-09-05 03:59:15 | 48.28545 | 16.18068 | 98° | 66km/h | 2173m | -3.8m/s | 10.5°C | 86.3% | 0hPa | 2.7V | 00:00:00 | 00:00:00 | 00:00:00 | |
| OE3MUC-15 | 2026-09-05 03:59:11 | 48.28553 | 16.17970 | 97° | 66km/h | 2187m | -4.0m/s | 10.4°C | 86.0% | 0hPa | 2.7V | 00:00:00 | 00:00:00 | 00:00:00 | |
| OE3MUC-15 | 2026-09-05 03:59:07 | 48.28561 | 16.17870 | 96° | 66km/h | 2201m | -3.4m/s | 10.3°C | 85.9% | 0hPa | 2.7V | 07:54:00 | 00:00:00 | 00:00:00 | |
| PETON7-10 | 2026-09-05 03:59:05 | 48.28564 | 16.17820 | 97° | 68km/h | 2208m | -3.4m/s | 10.3°C | 85.9% | 0hPa | 2.7V | 00:00:00 | 00:00:00 | 00:00:00 | |
| OE3MUC-15 | 2026-09-05 03:59:03 | 48.28568 | 16.17770 | 97° | 68km/h | 2216m | -3.5m/s | 10.2°C | 86.5% | 0hPa | 2.7V | 00:00:00 | 00:00:00 | 00:00:00 | |
| OE3JTB-15 | 2026-09-05 03:59:02 | 48.28571 | 16.17745 | 98° | 68km/h | 2219m | -3.4m/s | 10.2°C | 86.4% | 0hPa | 2.7V | 00:00:00 | 02:10:19 | 00:00:00 | |
| OE3OSB-13 | 2026-09-05 03:59:00 | 48.28577 | 16.17668 | 95° | 68km/h | 2230m | -3.3m/s | 10.2°C | 86.7% | -1.0hPa | 2.7V | 00:00:00 | 00:00:00 | 00:00:00 | |
| OE3MUC-15 | 2026-09-05 03:58:59 | 48.28577 | 16.17668 | 96° | 68km/h | 2230m | -3.3m/s | 10.2°C | 86.1% | 0hPa | 2.7V | 00:00:00 | 00:00:00 | 00:00:00 | |
| PETON7-10 | 2026-09-05 03:58:55 | 48.28584 | 16.17567 | 96° | 69km/h | 2244m | -3.6m/s | 10.1°C | 85.8% | 0hPa | 2.7V | 00:00:00 | 00:00:00 | 00:00:00 | |
| OE3JTB-15 | 2026-09-05 03:58:53 | 48.28587 | 16.17516 | 97° | 69km/h | 2251m | -3.8m/s | 10.0°C | 86.3% | 0hPa | 2.7V | 00:00:00 | 00:00:00 | 00:00:00 | |
| OE3MUC-15 | 2026-09-05 03:58:51 | 48.28591 | 16.17464 | 97° | 69km/h | 2258m | -3.5m/s | 10.1°C | 85.5% | 0hPa | 2.6V | 00:00:00 | 00:00:00 | 00:00:00 | |
| OM5KV | 2026-09-05 03:58:50 | 48.28591 | 16.17464 | 98° | 68km/h | 2258m | -3.6m/s | 10.1°C | 86.1% | 0hPa | 2.6V | 07:54:00 | 00:00:00 | 00:00:00 | |
| OE3MUC-15 | 2026-09-05 03:58:47 | 48.28598 | 16.17360 | 95° | 69km/h | 2272m | -3.6m/s | 10.0°C | 85.6% | 0hPa | 2.6V | 00:00:00 | 00:00:00 | 00:00:00 | |
| PETON7-10 | 2026-09-05 03:58:45 | 48.28602 | 16.17307 | 97° | 71km/h | 2279m | -3.6m/s | 10.0°C | 84.7% | 0hPa | 2.7V | 00:00:00 | 02:10:02 | 00:00:00 | |
| OE3JTB-15 | 2026-09-05 03:58:44 | 48.28603 | 16.17281 | 96° | 71km/h | 2283m | -3.7m/s | 10.0°C | 84.5% | 0hPa | 2.7V | 00:00:00 | 00:00:00 | 00:00:00 | |
| OE3MUC-15 | 2026-09-05 03:58:43 | 48.28605 | 16.17254 | 95° | 71km/h | 2287m | -3.7m/s | 10.0°C | 84.6% | 0hPa | 2.7V | 00:00:00 | 00:00:00 | 00:00:00 | |
| OE3MUC-15 | 2026-09-05 03:58:39 | 48.28611 | 16.17146 | 96° | 71km/h | 2302m | -3.9m/s | 9.8°C | 85.2% | 0hPa | 2.7V | 00:00:00 | 02:09:56 | 00:00:00 | |
| OM5KV | 2026-09-05 03:58:38 | 48.28611 | 16.17146 | 97° | 71km/h | 2302m | -4.0m/s | 9.9°C | 85.7% | 0hPa | 2.7V | 07:55:00 | 00:00:00 | 00:00:00 | |
| OE3MUC-15 | 2026-09-05 03:58:35 | 48.28617 | 16.17037 | 96° | 71km/h | 2316m | -3.7m/s | 9.7°C | 85.5% | 0hPa | 2.7V | 07:55:00 | 00:00:00 | 00:00:00 | |
| OE3MUC-15 | 2026-09-05 03:58:31 | 48.28625 | 16.16930 | 97° | 71km/h | 2330m | -3.7m/s | 9.6°C | 85.4% | 0hPa | 2.7V | 00:00:00 | 00:00:00 | 00:00:00 | |
| OE3OSB-13 | 2026-09-05 03:58:29 | 48.28632 | 16.16849 | 97° | 71km/h | 2341m | -4.0m/s | 9.6°C | 86.6% | -1.0hPa | 2.7V | 00:00:00 | 00:00:00 | 00:00:00 | |
| OE3JTB-15 | 2026-09-05 03:58:26 | 48.28636 | 16.16794 | 97° | 73km/h | 2350m | -4.1m/s | 9.5°C | 86.2% | 0hPa | 2.7V | 00:00:00 | 00:00:00 | 00:00:00 | |
| PETON7-10 | 2026-09-05 03:58:25 | 48.28638 | 16.16767 | 96° | 75km/h | 2354m | -3.7m/s | 9.5°C | 85.5% | 0hPa | 2.7V | 00:00:00 | 00:00:00 | 00:00:00 | |
| OE3MUC-15 | 2026-09-05 03:58:23 | 48.28642 | 16.16712 | 98° | 73km/h | 2361m | -4.0m/s | 9.7°C | 82.7% | 0hPa | 2.7V | 00:00:00 | 00:00:00 | 00:00:00 | |
| OE3MUC-15 | 2026-09-05 03:58:19 | 48.28650 | 16.16600 | 96° | 75km/h | 2377m | -3.9m/s | 9.7°C | 81.5% | 0hPa | 2.6V | 00:00:00 | 00:00:00 | 00:00:00 | |
| OE3JTB-15 | 2026-09-05 03:58:17 | 48.28655 | 16.16543 | 97° | 75km/h | 2385m | -4.2m/s | 9.7°C | 81.4% | 0hPa | 2.6V | 00:00:00 | 00:00:00 | 00:00:00 | |
| PETON7-10 | 2026-09-05 03:58:15 | 48.28659 | 16.16487 | 96° | 75km/h | 2394m | -4.4m/s | 9.6°C | 81.5% | 0hPa | 2.6V | 00:00:00 | 02:09:32 | 00:00:00 | |
| OE3MUC-15 | 2026-09-05 03:58:11 | 48.28667 | 16.16373 | 96° | 75km/h | 2411m | -4.1m/s | 9.5°C | 81.6% | 0hPa | 2.6V | 00:00:00 | 00:00:00 | 00:00:00 | |
| OM5KV | 2026-09-05 03:58:09 | 48.28669 | 16.16345 | 97° | 75km/h | 2415m | -4.6m/s | 9.5°C | 82.0% | 0hPa | 2.7V | 07:55:00 | 00:00:00 | 00:00:00 | |
| OE3MUC-15 | 2026-09-05 03:58:07 | 48.28675 | 16.16260 | 97° | 75km/h | 2428m | -4.3m/s | 9.4°C | 81.0% | 0hPa | 2.7V | 00:00:00 | 00:00:00 | 00:00:00 | |
| OE3MUC-15 | 2026-09-05 03:58:03 | 48.28684 | 16.16146 | 98° | 77km/h | 2445m | -3.9m/s | 9.3°C | 81.3% | 0hPa | 2.7V | 07:55:00 | 00:00:00 | 00:00:00 | |
| PETON7-10 | 2026-09-05 03:58:00 | 48.28691 | 16.16060 | 96° | 78km/h | 2457m | -4.2m/s | 9.3°C | 80.6% | 0hPa | 2.7V | 00:00:00 | 00:00:00 | 00:00:00 | |
| OE3MUC-15 | 2026-09-05 03:57:59 | 48.28693 | 16.16032 | 97° | 77km/h | 2461m | -4.5m/s | 9.2°C | 80.5% | 0hPa | 2.7V | 00:00:00 | 00:00:00 | 00:00:00 | |
| OE3JTB-15 | 2026-09-05 03:57:58 | 48.28695 | 16.16003 | 97° | 78km/h | 2466m | -4.2m/s | 9.2°C | 80.6% | 0hPa | 2.6V | 07:55:00 | 02:09:15 | 00:00:00 | |
| OE3MUC-15 | 2026-09-05 03:57:55 | 48.28702 | 16.15916 | 98° | 78km/h | 2478m | -3.8m/s | 9.2°C | 80.1% | 0hPa | 2.6V | 00:00:00 | 00:00:00 | 00:00:00 | |
| OM5KV | 2026-09-05 03:57:52 | 48.28707 | 16.15857 | 97° | 78km/h | 2485m | -3.7m/s | 9.2°C | 80.6% | 0hPa | 2.6V | 00:00:00 | 00:00:00 | 00:00:00 | |
| OE3MUC-15 | 2026-09-05 03:57:51 | 48.28711 | 16.15798 | 97° | 78km/h | 2493m | -4.4m/s | 9.0°C | 80.4% | 0hPa | 2.6V | 00:00:00 | 00:00:00 | 00:00:00 | |
| OE3MUC-15 | 2026-09-05 03:57:47 | 48.28720 | 16.15679 | 96° | 78km/h | 2509m | -4.2m/s | 8.9°C | 80.4% | 0hPa | 2.6V | 00:00:00 | 00:00:00 | 00:00:00 | |
| PETON7-10 | 2026-09-05 03:57:45 | 48.28724 | 16.15619 | 98° | 80km/h | 2518m | -4.2m/s | 8.9°C | 80.6% | 0hPa | 2.6V | 00:00:00 | 00:00:00 | 00:00:00 | |
| OE3MUC-15 | 2026-09-05 03:57:43 | 48.28729 | 16.15560 | 97° | 78km/h | 2526m | -3.9m/s | 8.8°C | 81.1% | 0hPa | 2.6V | 00:00:00 | 00:00:00 | 00:00:00 | |
| OE3JTB-15 | 2026-09-05 03:57:39 | 48.28739 | 16.15440 | 97° | 80km/h | 2542m | -4.1m/s | 8.7°C | 81.1% | 0hPa | 2.6V | 00:00:00 | 00:00:00 | 00:00:00 | |
| OM5KV | 2026-09-05 03:57:34 | 48.28748 | 16.15320 | 98° | 80km/h | 2559m | -4.5m/s | 8.6°C | 81.5% | 0hPa | 2.7V | 00:00:00 | 00:00:00 | 00:00:00 | |
| PETON7-10 | 2026-09-05 03:57:30 | 48.28760 | 16.15169 | 97° | 80km/h | 2580m | -4.1m/s | 8.4°C | 81.6% | 0hPa | 2.7V | 00:00:00 | 02:08:47 | 00:00:00 | |
| OE3OSB-13 | 2026-09-05 03:57:26 | 48.28770 | 16.15047 | 96° | 80km/h | 2597m | -4.4m/s | 8.3°C | 82.7% | -1.0hPa | 2.7V | 00:00:00 | 00:00:00 | 00:00:00 | |
| OM5KV | 2026-09-05 03:57:23 | 48.28775 | 16.14986 | 99° | 80km/h | 2605m | -4.0m/s | 8.3°C | 83.1% | 0hPa | 2.7V | 00:00:00 | 00:00:00 | 00:00:00 | |
| OE3JTB-15 | 2026-09-05 03:57:20 | 48.28784 | 16.14864 | 97° | 84km/h | 2622m | -4.5m/s | 8.1°C | 83.1% | 0hPa | 2.7V | 00:00:00 | 00:00:00 | 00:00:00 | |
| OE3MUC-15 | 2026-09-05 03:57:19 | 48.28786 | 16.14834 | 98° | 82km/h | 2627m | -4.2m/s | 8.0°C | 83.2% | 0hPa | 2.7V | 00:00:00 | 00:00:00 | 00:00:00 | |
| PETON7-10 | 2026-09-05 03:57:15 | 48.28796 | 16.14711 | 96° | 84km/h | 2644m | -4.4m/s | 8.0°C | 83.0% | 0hPa | 2.7V | 00:00:00 | 00:00:00 | 00:00:00 | |
| OE3MUC-15 | 2026-09-05 03:57:11 | 48.28805 | 16.14585 | 98° | 84km/h | 2663m | -4.5m/s | 7.9°C | 82.1% | 0hPa | 2.6V | 00:00:00 | 00:00:00 | 00:00:00 | |
| OE3MUC-15 | 2026-09-05 03:57:07 | 48.28815 | 16.14458 | 97° | 86km/h | 2682m | -4.5m/s | 7.7°C | 83.3% | 0hPa | 2.7V | 00:00:00 | 00:00:00 | 00:00:00 | |
| OE3MUC-15 | 2026-09-05 03:57:03 | 48.28825 | 16.14330 | 98° | 86km/h | 2700m | -4.0m/s | 7.5°C | 83.7% | 0hPa | 2.7V | 00:00:00 | 00:00:00 | 00:00:00 | |
| OE3OSB-13 | 2026-09-05 03:56:56 | 48.28844 | 16.14070 | 94° | 84km/h | 2732m | -4.1m/s | 7.4°C | 83.3% | -1.0hPa | 2.7V | 00:00:00 | 00:00:00 | 00:00:00 | |
| OE3MUC-15 | 2026-09-05 03:56:55 | 48.28843 | 16.14070 | 95° | 86km/h | 2732m | -4.1m/s | 7.4°C | 82.9% | 0hPa | 2.7V | 00:00:00 | 00:00:00 | 00:00:00 | |
| OE3MUC-15 | 2026-09-05 03:56:51 | 48.28851 | 16.13939 | 95° | 88km/h | 2749m | -3.9m/s | 7.2°C | 84.3% | 0hPa | 2.7V | 00:00:00 | 00:00:00 | 00:00:00 | |
| OE5DRO-10 | 2026-09-05 03:56:48 | 48.28856 | 16.13840 | 96° | 89km/h | 2760m | -4.2m/s | 7.1°C | 83.1% | 0hPa | 2.7V | 07:56:00 | 00:00:00 | 00:00:00 | |
| OE3MUC-15 | 2026-09-05 03:56:47 | 48.28858 | 16.13807 | 95° | 88km/h | 2765m | -4.0m/s | 7.1°C | 83.7% | 0hPa | 2.7V | 00:00:00 | 00:00:00 | 00:00:00 | |
| PETON7-10 | 2026-09-05 03:56:45 | 48.28863 | 16.13740 | 95° | 89km/h | 2772m | -4.2m/s | 7.0°C | 83.5% | 0hPa | 2.7V | 07:56:00 | 02:08:02 | 00:00:00 | |
| OE3MUC-15 | 2026-09-05 03:56:43 | 48.28867 | 16.13674 | 95° | 89km/h | 2781m | -3.9m/s | 7.0°C | 83.5% | 0hPa | 2.7V | 00:00:00 | 00:00:00 | 00:00:00 | |
| OE3JTB-15 | 2026-09-05 03:56:42 | 48.28869 | 16.13640 | 96° | 89km/h | 2785m | -4.5m/s | 7.0°C | 82.4% | 0hPa | 2.7V | 00:00:00 | 00:00:00 | 00:00:00 | |
| OE3MUC-15 | 2026-09-05 03:56:39 | 48.28876 | 16.13539 | 95° | 89km/h | 2798m | -4.2m/s | 7.0°C | 81.7% | 0hPa | 2.7V | 00:00:00 | 00:00:00 | 00:00:00 | |
| OE5DRO-10 | 2026-09-05 03:56:32 | 48.28889 | 16.13304 | 96° | 91km/h | 2828m | -4.5m/s | 6.7°C | 83.3% | 0hPa | 2.7V | 00:00:00 | 00:00:00 | 00:00:00 | |
| OE3MUC-15 | 2026-09-05 03:56:31 | 48.28891 | 16.13270 | 96° | 89km/h | 2833m | -4.3m/s | 6.6°C | 83.5% | 0hPa | 2.7V | 00:00:00 | 00:00:00 | 00:00:00 | |
| PETON7-10 | 2026-09-05 03:56:30 | 48.28893 | 16.13237 | 96° | 91km/h | 2837m | -4.2m/s | 6.6°C | 84.2% | 0hPa | 2.7V | 00:00:00 | 00:00:00 | 00:00:00 | |
| OE3MUC-15 | 2026-09-05 03:56:27 | 48.28899 | 16.13134 | 97° | 91km/h | 2849m | -4.1m/s | 6.5°C | 83.3% | 0hPa | 2.6V | 07:57:00 | 00:00:00 | 00:00:00 | |
| OE3OSB-13 | 2026-09-05 03:56:24 | 48.28905 | 16.13032 | 94° | 89km/h | 2863m | -4.4m/s | 6.4°C | 84.1% | -1.0hPa | 2.6V | 00:00:00 | 00:00:00 | 00:00:00 | |
| OE3JTB-15 | 2026-09-05 03:56:23 | 48.28907 | 16.12997 | 95° | 93km/h | 2868m | -4.0m/s | 6.4°C | 84.0% | 0hPa | 2.6V | 00:00:00 | 00:00:00 | 00:00:00 | |
| OE3MUC-15 | 2026-09-05 03:56:19 | 48.28914 | 16.12858 | 94° | 93km/h | 2884m | -3.9m/s | 6.2°C | 84.6% | 0hPa | 2.6V | 00:00:00 | 00:00:00 | 00:00:00 | |
| OE5DRO-10 | 2026-09-05 03:56:16 | 48.28919 | 16.12754 | 94° | 95km/h | 2897m | -4.2m/s | 6.1°C | 85.2% | 0hPa | 2.6V | 00:00:00 | 00:00:00 | 00:00:00 | |
| PETON7-10 | 2026-09-05 03:56:15 | 48.28921 | 16.12719 | 95° | 93km/h | 2901m | -4.6m/s | 6.0°C | 85.3% | 0hPa | 2.6V | 00:00:00 | 00:00:00 | 00:00:00 | |
| OE3MUC-15 | 2026-09-05 03:56:11 | 48.28929 | 16.12578 | 96° | 95km/h | 2919m | -4.1m/s | 5.9°C | 85.9% | 0hPa | 2.6V | 00:00:00 | 00:00:00 | 00:00:00 | |
| OE3MUC-15 | 2026-09-05 03:56:07 | 48.28936 | 16.12436 | 95° | 95km/h | 2935m | -4.0m/s | 5.8°C | 85.9% | 0hPa | 2.6V | 00:00:00 | 00:00:00 | 00:00:00 | |
| OE3JTB-15 | 2026-09-05 03:56:04 | 48.28941 | 16.12329 | 95° | 95km/h | 2947m | -3.9m/s | 5.7°C | 86.4% | 0hPa | 2.6V | 00:00:00 | 02:07:21 | 00:00:00 | |
| OE3OSB-13 | 2026-09-05 03:55:55 | 48.28958 | 16.11935 | 93° | 95km/h | 2991m | -3.6m/s | 5.7°C | 82.1% | -1.0hPa | 2.6V | 00:00:00 | 00:00:00 | 00:00:00 | |
| OE3MUC-15 | 2026-09-05 03:55:51 | 48.28961 | 16.11862 | 94° | 95km/h | 2998m | -3.7m/s | 5.6°C | 82.0% | 0hPa | 2.6V | 00:00:00 | 00:00:00 | 00:00:00 | |
| OE3MUC-15 | 2026-09-05 03:55:47 | 48.28967 | 16.11718 | 95° | 95km/h | 3015m | -4.5m/s | 5.5°C | 81.5% | 0hPa | 2.6V | 00:00:00 | 00:00:00 | 00:00:00 | |
| PETON7-10 | 2026-09-05 03:55:45 | 48.28971 | 16.11647 | 94° | 95km/h | 3023m | -3.7m/s | 5.4°C | 81.9% | 0hPa | 2.7V | 00:00:00 | 00:00:00 | 00:00:00 | |
| PG1ADW-2 | 2026-09-05 03:55:33 | 48.28993 | 16.11216 | 95° | 97km/h | 3073m | -3.8m/s | 5.0°C | 82.4% | 0hPa | 2.7V | 00:00:00 | 00:00:00 | 00:00:00 | |
| PETON7-10 | 2026-09-05 03:55:30 | 48.29000 | 16.11107 | 96° | 97km/h | 3085m | -4.2m/s | 4.9°C | 82.5% | 0hPa | 2.7V | 00:00:00 | 00:00:00 | 00:00:00 | |
| OE3JTB-15 | 2026-09-05 03:55:26 | 48.29010 | 16.10963 | 95° | 97km/h | 3101m | -4.0m/s | 4.8°C | 82.9% | 0hPa | 2.7V | 07:58:00 | 00:00:00 | 00:00:00 | |
| OE3OSB-13 | 2026-09-05 03:55:22 | 48.29019 | 16.10819 | 96° | 95km/h | 3117m | -4.3m/s | 4.7°C | 83.9% | -1.0hPa | 2.7V | 00:00:00 | 00:00:00 | 00:00:00 | |
| OE3MUC-15 | 2026-09-05 03:55:19 | 48.29027 | 16.10710 | 98° | 97km/h | 3129m | -3.9m/s | 4.6°C | 83.6% | 0hPa | 2.7V | 00:00:00 | 00:00:00 | 00:00:00 | |
| OE3MUC-15 | 2026-09-05 03:55:15 | 48.29038 | 16.10564 | 97° | 97km/h | 3146m | -4.3m/s | 4.6°C | 83.3% | 0hPa | 2.7V | 00:00:00 | 00:00:00 | 00:00:00 | |
| PG1ADW-2 | 2026-09-05 03:55:13 | 48.29044 | 16.10491 | 98° | 97km/h | 3154m | -4.0m/s | 4.5°C | 83.4% | 0hPa | 2.7V | 00:00:00 | 00:00:00 | 00:00:00 | |
| OE3MUC-15 | 2026-09-05 03:55:11 | 48.29049 | 16.10419 | 96° | 97km/h | 3162m | -4.5m/s | 4.4°C | 83.7% | 0hPa | 2.7V | 00:00:00 | 00:00:00 | 00:00:00 | |
| OE3MUC-15 | 2026-09-05 03:55:07 | 48.29060 | 16.10273 | 97° | 97km/h | 3178m | -4.1m/s | 4.4°C | 82.4% | 0hPa | 2.6V | 00:00:00 | 00:00:00 | 00:00:00 | |
| OE3MUC-15 | 2026-09-05 03:55:03 | 48.29071 | 16.10127 | 97° | 97km/h | 3195m | -4.1m/s | 4.4°C | 80.8% | 0hPa | 2.6V | 00:00:00 | 00:00:00 | 00:00:00 | |
| PETON7-10 | 2026-09-05 03:55:00 | 48.29079 | 16.10017 | 96° | 97km/h | 3207m | -4.0m/s | 4.3°C | 80.7% | 0hPa | 2.6V | 00:00:00 | 00:00:00 | 00:00:00 | |
| OE3MUC-15 | 2026-09-05 03:54:59 | 48.29082 | 16.09980 | 96° | 97km/h | 3211m | -3.9m/s | 4.3°C | 80.9% | 0hPa | 2.6V | 00:00:00 | 00:00:00 | 00:00:00 | |
| OE3MUC-15 | 2026-09-05 03:54:55 | 48.29092 | 16.09834 | 96° | 95km/h | 3225m | -3.2m/s | 4.2°C | 81.1% | 0hPa | 2.7V | 00:00:00 | 00:00:00 | 00:00:00 | |
| OE3MUC-15 | 2026-09-05 03:54:51 | 48.29102 | 16.09690 | 98° | 97km/h | 3240m | -3.8m/s | 4.1°C | 81.1% | 0hPa | 2.7V | 07:58:00 | 00:00:00 | 00:00:00 | |
| PG1ADW-2 | 2026-09-05 03:54:50 | 48.29105 | 16.09653 | 98° | 97km/h | 3244m | -3.6m/s | 4.1°C | 80.9% | 0hPa | 2.7V | 00:00:00 | 00:00:00 | 00:00:00 | |
| OE3JTB-15 | 2026-09-05 03:54:48 | 48.29110 | 16.09580 | 97° | 97km/h | 3251m | -4.0m/s | 4.0°C | 81.5% | 0hPa | 2.7V | 00:00:00 | 00:00:00 | 00:00:00 | |
| OE3MUC-15 | 2026-09-05 03:54:47 | 48.29113 | 16.09544 | 96° | 97km/h | 3255m | -4.3m/s | 4.0°C | 81.3% | 0hPa | 2.7V | 00:00:00 | 00:00:00 | 00:00:00 | |
| OE3MUC-15 | 2026-09-05 03:54:43 | 48.29123 | 16.09398 | 96° | 95km/h | 3272m | -4.1m/s | 3.9°C | 81.2% | 0hPa | 2.7V | 00:00:00 | 00:00:00 | 00:00:00 | |
| S52SK | 2026-09-05 03:54:40 | 48.29128 | 16.09325 | 97° | 95km/h | 3280m | -4.0m/s | 3.9°C | 80.5% | 0hPa | 2.7V | 00:00:00 | 00:00:00 | 00:00:00 | |
| OE3MUC-15 | 2026-09-05 03:54:39 | 48.29134 | 16.09253 | 97° | 95km/h | 3288m | -4.3m/s | 3.8°C | 80.7% | 0hPa | 2.7V | 00:00:00 | 00:00:00 | 00:00:00 | |
| OE3MUC-15 | 2026-09-05 03:54:35 | 48.29145 | 16.09109 | 96° | 97km/h | 3305m | -4.0m/s | 3.7°C | 80.8% | 0hPa | 2.7V | 00:00:00 | 00:00:00 | 00:00:00 | |
| OE3MUC-15 | 2026-09-05 03:54:31 | 48.29154 | 16.08963 | 96° | 99km/h | 3321m | -3.9m/s | 3.6°C | 80.1% | 0hPa | 2.7V | 00:00:00 | 00:00:00 | 00:00:00 | |
| PETON7-10 | 2026-09-05 03:54:30 | 48.29157 | 16.08925 | 96° | 97km/h | 3325m | -4.5m/s | 3.6°C | 79.8% | 0hPa | 2.7V | 00:00:00 | 02:05:47 | 00:00:00 | |
| OE3MUC-15 | 2026-09-05 03:54:27 | 48.29164 | 16.08815 | 95° | 97km/h | 3338m | -3.6m/s | 3.5°C | 79.2% | 0hPa | 2.7V | 00:00:00 | 00:00:00 | 00:00:00 | |
| OE3MUC-15 | 2026-09-05 03:54:23 | 48.29172 | 16.08669 | 95° | 97km/h | 3355m | -4.2m/s | 3.5°C | 76.7% | 0hPa | 2.7V | 00:00:00 | 00:00:00 | 00:00:00 | |
| OE3OSB-13 | 2026-09-05 03:54:20 | 48.29178 | 16.08559 | 94° | 95km/h | 3367m | -4.4m/s | 3.5°C | 77.4% | -1.0hPa | 2.6V | 00:00:00 | 00:00:00 | 00:00:00 | |
| OE3MUC-15 | 2026-09-05 03:54:19 | 48.29179 | 16.08523 | 94° | 95km/h | 3371m | -4.7m/s | 3.4°C | 76.9% | 0hPa | 2.6V | 07:59:00 | 00:00:00 | 00:00:00 | |
| PETON7-10 | 2026-09-05 03:54:15 | 48.29185 | 16.08378 | 94° | 97km/h | 3388m | -4.4m/s | 3.2°C | 77.0% | 0hPa | 2.6V | 00:00:00 | 00:00:00 | 00:00:00 | |
| OE3MUC-15 | 2026-09-05 03:54:11 | 48.29191 | 16.08234 | 93° | 97km/h | 3406m | -3.7m/s | 3.0°C | 79.3% | 0hPa | 2.7V | 00:00:00 | 00:00:00 | 00:00:00 | |
| PG1ADW-2 | 2026-09-05 03:54:10 | 48.29192 | 16.08198 | 94° | 97km/h | 3410m | -3.9m/s | 2.9°C | 79.3% | 0hPa | 2.7V | 00:00:00 | 00:00:00 | 00:00:00 | |
| OE3MUC-15 | 2026-09-05 03:54:07 | 48.29196 | 16.08088 | 93° | 99km/h | 3421m | -4.2m/s | 2.8°C | 79.9% | 0hPa | 2.7V | 00:00:00 | 00:00:00 | 00:00:00 | |
| OE3MUC-15 | 2026-09-05 03:54:03 | 48.29201 | 16.07940 | 93° | 99km/h | 3439m | -4.4m/s | 2.7°C | 80.4% | 0hPa | 2.7V | 00:00:00 | 00:00:00 | 00:00:00 | |
| OE3OSB-13 | 2026-09-05 03:53:49 | 48.29218 | 16.07383 | 92° | 99km/h | 3503m | -3.6m/s | 2.1°C | 82.6% | -1.0hPa | 2.7V | 00:00:00 | 00:00:00 | 00:00:00 | |
| OE3MUC-15 | 2026-09-05 03:53:47 | 48.29219 | 16.07345 | 93° | 102km/h | 3507m | -3.3m/s | 2.1°C | 81.8% | 0hPa | 2.7V | 07:59:00 | 00:00:00 | 00:00:00 | |
| PETON7-10 | 2026-09-05 03:53:45 | 48.29221 | 16.07269 | 93° | 102km/h | 3513m | -3.0m/s | 2.1°C | 79.7% | 0hPa | 2.7V | 00:00:00 | 02:05:02 | 00:00:00 | |
| OE5DRO-10 | 2026-09-05 03:53:43 | 48.29223 | 16.07191 | 92° | 102km/h | 3519m | -3.7m/s | 2.0°C | 79.9% | 0hPa | 2.7V | 00:00:00 | 00:00:00 | 00:00:00 | |
| PETON7-10 | 2026-09-05 03:53:30 | 48.29236 | 16.06686 | 93° | 104km/h | 3571m | -3.8m/s | 1.6°C | 81.5% | 0hPa | 2.7V | 00:00:00 | 00:00:00 | 00:00:00 | |
| OE5DRO-10 | 2026-09-05 03:53:27 | 48.29240 | 16.06568 | 93° | 106km/h | 3584m | -3.8m/s | 1.4°C | 82.9% | 0hPa | 2.7V | 00:00:00 | 00:00:00 | 00:00:00 | |
| OM5KV | 2026-09-05 03:53:26 | 48.29240 | 16.06568 | 93° | 104km/h | 3584m | -3.8m/s | 1.5°C | 83.0% | 0hPa | 2.7V | 08:00:00 | 00:00:00 | 00:00:00 | |
| OE3JTB-15 | 2026-09-05 03:53:21 | 48.29246 | 16.06330 | 92° | 106km/h | 3610m | -4.7m/s | 1.2°C | 82.1% | 0hPa | 2.7V | 00:00:00 | 00:00:00 | 00:00:00 | |
| OE3MUC-15 | 2026-09-05 03:53:19 | 48.29248 | 16.06249 | 94° | 106km/h | 3620m | -4.6m/s | 1.2°C | 81.1% | 0hPa | 2.6V | 00:00:00 | 00:00:00 | 00:00:00 | |
| OE3OSB-13 | 2026-09-05 03:53:18 | 48.29250 | 16.06169 | 91° | 104km/h | 3629m | -4.9m/s | 1.1°C | 81.1% | -1.0hPa | 2.6V | 00:00:00 | 00:00:00 | 00:00:00 | |
| PETON7-10 | 2026-09-05 03:53:15 | 48.29253 | 16.06089 | 93° | 108km/h | 3638m | -4.4m/s | 1.0°C | 81.9% | 0hPa | 2.6V | 00:00:00 | 00:00:00 | 00:00:00 | |
| OM5KV | 2026-09-05 03:53:14 | 48.29253 | 16.06088 | 94° | 108km/h | 3638m | -4.5m/s | 1.0°C | 81.9% | 0hPa | 2.6V | 08:00:00 | 00:00:00 | 00:00:00 | |
| OE3MUC-15 | 2026-09-05 03:53:11 | 48.29259 | 16.05927 | 93° | 106km/h | 3657m | -4.3m/s | 0.8°C | 82.4% | 0hPa | 2.6V | 00:00:00 | 00:00:00 | 00:00:00 | |
| PG1ADW-2 | 2026-09-05 03:53:10 | 48.29260 | 16.05886 | 93° | 108km/h | 3661m | -4.2m/s | 0.8°C | 82.3% | 0hPa | 2.7V | 00:00:00 | 02:04:27 | 00:00:00 | |
| OE3MUC-15 | 2026-09-05 03:53:07 | 48.29264 | 16.05766 | 94° | 108km/h | 3674m | -4.4m/s | 0.7°C | 82.8% | 0hPa | 2.7V | 00:00:00 | 00:00:00 | 00:00:00 | |
| S52SK | 2026-09-05 03:53:04 | 48.29267 | 16.05684 | 93° | 110km/h | 3684m | -4.2m/s | 0.6°C | 83.1% | 0hPa | 2.7V | 00:00:00 | 00:00:00 | 00:00:00 | |
| OE3MUC-15 | 2026-09-05 03:53:03 | 48.29269 | 16.05603 | 93° | 108km/h | 3692m | -4.1m/s | 0.5°C | 84.4% | 0hPa | 2.7V | 00:00:00 | 00:00:00 | 00:00:00 | |
| PETON7-10 | 2026-09-05 03:53:00 | 48.29273 | 16.05481 | 93° | 108km/h | 3705m | -4.6m/s | 0.4°C | 84.9% | 0hPa | 2.7V | 00:00:00 | 02:04:17 | 00:00:00 | |
| OE3MUC-15 | 2026-09-05 03:52:59 | 48.29275 | 16.05440 | 94° | 108km/h | 3710m | -4.5m/s | 0.3°C | 84.8% | 0hPa | 2.7V | 00:00:00 | 00:00:00 | 00:00:00 | |
| OM5KV | 2026-09-05 03:52:58 | 48.29275 | 16.05441 | 94° | 108km/h | 3710m | -4.6m/s | 0.4°C | 84.7% | 0hPa | 2.6V | 08:00:00 | 00:00:00 | 00:00:00 | |
| OE3MUC-15 | 2026-09-05 03:52:55 | 48.29280 | 16.05279 | 93° | 108km/h | 3729m | -4.3m/s | 0.2°C | 86.0% | 0hPa | 2.6V | 00:00:00 | 00:00:00 | 00:00:00 | |
| OE3JTB-15 | 2026-09-05 03:52:52 | 48.29284 | 16.05157 | 94° | 108km/h | 3743m | -4.9m/s | 0.1°C | 84.7% | 0hPa | 2.6V | 00:00:00 | 00:00:00 | 00:00:00 | |
| OE3MUC-15 | 2026-09-05 03:52:51 | 48.29286 | 16.05116 | 93° | 108km/h | 3748m | -4.7m/s | 0.0°C | 84.8% | 0hPa | 2.6V | 00:00:00 | 00:00:00 | 00:00:00 | |
| PG1ADW-2 | 2026-09-05 03:52:50 | 48.29287 | 16.05075 | 93° | 108km/h | 3753m | -4.5m/s | 0.0°C | 85.1% | 0hPa | 2.6V | 00:00:00 | 00:00:00 | 00:00:00 | |
| OM5KV | 2026-09-05 03:52:48 | 48.29288 | 16.05034 | 93° | 108km/h | 3757m | -4.3m/s | 0.0°C | 85.3% | 0hPa | 2.7V | 08:00:00 | 00:00:00 | 00:00:00 | |
| OE3MUC-15 | 2026-09-05 03:52:47 | 48.29290 | 16.04953 | 92° | 108km/h | 3766m | -4.4m/s | -0.0°C | 85.7% | 0hPa | 2.7V | 08:00:00 | 02:04:04 | 00:00:00 | |
| OM5KV | 2026-09-05 03:52:46 | 48.29290 | 16.04953 | 93° | 108km/h | 3766m | -4.4m/s | -0.1°C | 85.7% | 0hPa | 2.7V | 08:01:00 | 00:00:00 | 00:00:00 | |
| PETON7-10 | 2026-09-05 03:52:45 | 48.29292 | 16.04872 | 93° | 108km/h | 3774m | -4.1m/s | -0.1°C | 86.2% | 0hPa | 2.7V | 00:00:00 | 00:00:00 | 00:00:00 | |
| OE3MUC-15 | 2026-09-05 03:52:43 | 48.29295 | 16.04789 | 93° | 110km/h | 3781m | -3.6m/s | -0.2°C | 86.6% | 0hPa | 2.7V | 00:00:00 | 00:00:00 | 00:00:00 | |
| OM5KV | 2026-09-05 03:52:40 | 48.29297 | 16.04706 | 94° | 108km/h | 3789m | -4.1m/s | -0.3°C | 87.0% | 0hPa | 2.7V | 08:01:00 | 00:00:00 | 00:00:00 | |
| OE3MUC-15 | 2026-09-05 03:52:39 | 48.29300 | 16.04625 | 94° | 108km/h | 3798m | -4.2m/s | -0.3°C | 87.4% | 0hPa | 2.7V | 00:00:00 | 00:00:00 | 00:00:00 | |
| OM5KV | 2026-09-05 03:52:36 | 48.29304 | 16.04544 | 94° | 106km/h | 3806m | -4.2m/s | -0.4°C | 87.8% | 0hPa | 2.7V | 08:01:00 | 00:00:00 | 00:00:00 | |
| OM5KV | 2026-09-05 03:52:35 | 48.29307 | 16.04462 | 94° | 108km/h | 3814m | -3.2m/s | -0.5°C | 88.1% | 0hPa | 2.7V | 08:01:00 | 00:00:00 | 00:00:00 | |
| OE3MUC-15 | 2026-09-05 03:52:31 | 48.29313 | 16.04301 | 93° | 108km/h | 3830m | -3.8m/s | -0.6°C | 88.7% | 0hPa | 2.7V | 00:00:00 | 00:00:00 | 00:00:00 | |
| PG1ADW-2 | 2026-09-05 03:52:30 | 48.29314 | 16.04260 | 92° | 110km/h | 3833m | -3.8m/s | -0.6°C | 88.2% | 0hPa | 2.7V | 00:00:00 | 00:00:00 | 00:00:00 | |
| OM5KV | 2026-09-05 03:52:28 | 48.29316 | 16.04219 | 94° | 108km/h | 3837m | -4.1m/s | -0.7°C | 88.1% | 0hPa | 2.7V | 08:01:00 | 00:00:00 | 00:00:00 | |
| OE3MUC-15 | 2026-09-05 03:52:27 | 48.29318 | 16.04136 | 92° | 108km/h | 3846m | -3.5m/s | -0.7°C | 89.1% | 0hPa | 2.7V | 00:00:00 | 00:00:00 | 00:00:00 | |
| OM5KV | 2026-09-05 03:52:24 | 48.29319 | 16.04054 | 92° | 108km/h | 3853m | -3.7m/s | -0.8°C | 89.4% | 0hPa | 2.7V | 08:01:00 | 00:00:00 | 00:00:00 | |
| OE3JTB-15 | 2026-09-05 03:52:23 | 48.29320 | 16.03972 | 92° | 110km/h | 3861m | -4.1m/s | -0.8°C | 89.5% | 0hPa | 2.7V | 00:00:00 | 02:03:40 | 00:00:00 | |
| OM5KV | 2026-09-05 03:52:22 | 48.29320 | 16.03972 | 92° | 108km/h | 3861m | -4.1m/s | -0.9°C | 89.4% | 0hPa | 2.7V | 08:01:00 | 00:00:00 | 00:00:00 | |
| OE3MUC-15 | 2026-09-05 03:52:19 | 48.29323 | 16.03808 | 92° | 110km/h | 3876m | -3.2m/s | -1.0°C | 90.2% | 0hPa | 2.7V | 00:00:00 | 00:00:00 | 00:00:00 | |
| OM5KV | 2026-09-05 03:52:18 | 48.29323 | 16.03808 | 93° | 110km/h | 3876m | -3.3m/s | -1.0°C | 90.1% | 0hPa | 2.7V | 08:01:00 | 00:00:00 | 00:00:00 | |
| OE3OSB-13 | 2026-09-05 03:52:16 | 48.29326 | 16.03640 | 91° | 110km/h | 3891m | -3.6m/s | -1.1°C | 89.9% | -1.0hPa | 2.7V | 00:00:00 | 00:00:00 | 00:00:00 | |
| PETON7-10 | 2026-09-05 03:52:15 | 48.29326 | 16.03640 | 92° | 110km/h | 3891m | -3.5m/s | -1.1°C | 90.0% | 0hPa | 2.7V | 00:00:00 | 02:03:32 | 00:00:00 | |
| OE3MUC-15 | 2026-09-05 03:52:11 | 48.29329 | 16.03472 | 90° | 110km/h | 3906m | -3.8m/s | -1.2°C | 91.0% | 0hPa | 2.7V | 08:01:00 | 00:00:00 | 00:00:00 | |
| PG1ADW-2 | 2026-09-05 03:52:10 | 48.29329 | 16.03431 | 90° | 110km/h | 3910m | -3.5m/s | -1.2°C | 91.1% | 0hPa | 2.7V | 00:00:00 | 00:00:00 | 00:00:00 | |
| OE3MUC-15 | 2026-09-05 03:52:07 | 48.29328 | 16.03306 | 90° | 110km/h | 3921m | -3.7m/s | -1.3°C | 89.1% | 0hPa | 2.7V | 00:00:00 | 00:00:00 | 00:00:00 | |
| OM5KV | 2026-09-05 03:52:05 | 48.29328 | 16.03264 | 92° | 110km/h | 3925m | -3.9m/s | -1.4°C | 88.8% | 0hPa | 2.7V | 08:01:00 | 00:00:00 | 00:00:00 | |
| PETON7-10 | 2026-09-05 03:52:00 | 48.29327 | 16.03012 | 91° | 110km/h | 3948m | -3.9m/s | -1.3°C | 87.8% | 0hPa | 2.7V | 08:01:00 | 00:00:00 | 00:00:00 | |
| OE3MUC-15 | 2026-09-05 03:51:59 | 48.29327 | 16.02970 | 89° | 111km/h | 3952m | -4.0m/s | -1.3°C | 87.1% | 0hPa | 2.7V | 00:00:00 | 00:00:00 | 00:00:00 | |
| OM5KV | 2026-09-05 03:51:58 | 48.29327 | 16.02970 | 90° | 113km/h | 3952m | -4.1m/s | -1.3°C | 86.9% | 0hPa | 2.7V | 08:01:00 | 00:00:00 | 00:00:00 | |
| OE3MUC-15 | 2026-09-05 03:51:55 | 48.29325 | 16.02801 | 89° | 110km/h | 3969m | -4.4m/s | -1.2°C | 91.0% | 0hPa | 2.7V | 00:00:00 | 00:00:00 | 00:00:00 | |
| OE3JTB-15 | 2026-09-05 03:51:54 | 48.29325 | 16.02759 | 89° | 110km/h | 3974m | -4.8m/s | -1.2°C | 94.1% | 0hPa | 2.7V | 00:00:00 | 00:00:00 | 00:00:00 | |
| OM5KV | 2026-09-05 03:51:52 | 48.29324 | 16.02718 | 90° | 110km/h | 3979m | -4.2m/s | -1.3°C | 93.8% | 0hPa | 2.6V | 08:02:00 | 00:00:00 | 00:00:00 | |
| OE3MUC-15 | 2026-09-05 03:51:51 | 48.29324 | 16.02634 | 91° | 110km/h | 3987m | -4.4m/s | -1.3°C | 93.6% | 0hPa | 2.6V | 00:00:00 | 00:00:00 | 00:00:00 | |
| PG1ADW-2 | 2026-09-05 03:51:50 | 48.29324 | 16.02592 | 90° | 110km/h | 3992m | -4.0m/s | -1.3°C | 93.2% | 0hPa | 2.6V | 00:00:00 | 02:03:07 | 00:00:00 | |
| OE3MUC-15 | 2026-09-05 03:51:47 | 48.29322 | 16.02467 | 89° | 110km/h | 4003m | -3.7m/s | -1.4°C | 93.4% | 0hPa | 2.7V | 00:00:00 | 00:00:00 | 00:00:00 | |
| OM5KV | 2026-09-05 03:51:46 | 48.29322 | 16.02467 | 89° | 110km/h | 4003m | -3.7m/s | -1.5°C | 93.3% | 0hPa | 2.7V | 08:02:00 | 00:00:00 | 00:00:00 | |
| PETON7-10 | 2026-09-05 03:51:45 | 48.29321 | 16.02384 | 90° | 110km/h | 4011m | -3.4m/s | -1.5°C | 93.2% | 0hPa | 2.7V | 00:00:00 | 00:00:00 | 00:00:00 | |
| OE3MUC-15 | 2026-09-05 03:51:43 | 48.29320 | 16.02302 | 89° | 110km/h | 4019m | -4.1m/s | -1.6°C | 92.3% | 0hPa | 2.7V | 00:00:00 | 00:00:00 | 00:00:00 | |
| S52SK | 2026-09-05 03:51:38 | 48.29317 | 16.02135 | 89° | 110km/h | 4036m | -4.1m/s | -1.7°C | 92.8% | 0hPa | 2.7V | 00:00:00 | 00:00:00 | 00:00:00 | |
| OE5DRO-10 | 2026-09-05 03:51:35 | 48.29317 | 16.01968 | 90° | 108km/h | 4052m | -4.6m/s | -1.8°C | 94.1% | 0hPa | 2.7V | 00:00:00 | 00:00:00 | 00:00:00 | |
| S52SK | 2026-09-05 03:51:33 | 48.29317 | 16.01927 | 91° | 110km/h | 4057m | -4.2m/s | -1.9°C | 95.6% | 0hPa | 2.7V | 00:00:00 | 00:00:00 | 00:00:00 | |
| PETON7-10 | 2026-09-05 03:51:30 | 48.29314 | 16.01762 | 88° | 108km/h | 4072m | -3.4m/s | -2.0°C | 93.7% | 0hPa | 2.7V | 00:00:00 | 02:02:47 | 00:00:00 | |
| OE3JTB-15 | 2026-09-05 03:51:25 | 48.29309 | 16.01558 | 88° | 104km/h | 4092m | -4.0m/s | -2.1°C | 96.8% | 0hPa | 2.7V | 00:00:00 | 00:00:00 | 00:00:00 | |
| OE3MUC-15 | 2026-09-05 03:51:19 | 48.29304 | 16.01316 | 89° | 108km/h | 4114m | -2.9m/s | -2.2°C | 97.1% | 0hPa | 2.7V | 00:00:00 | 00:00:00 | 00:00:00 | |
| OE3MUC-15 | 2026-09-05 03:51:15 | 48.29301 | 16.01154 | 88° | 106km/h | 4130m | -4.1m/s | -2.3°C | 98.4% | 0hPa | 2.7V | 00:00:00 | 00:00:00 | 00:00:00 | |
| OE3OSB-13 | 2026-09-05 03:51:14 | 48.29299 | 16.01075 | 88° | 104km/h | 4139m | -4.7m/s | -2.4°C | 96.7% | -1.0hPa | 2.7V | 00:00:00 | 00:00:00 | 00:00:00 | |
| OE3MUC-15 | 2026-09-05 03:51:11 | 48.29297 | 16.00994 | 88° | 104km/h | 4148m | -4.6m/s | -2.5°C | 96.5% | 0hPa | 2.7V | 00:00:00 | 00:00:00 | 00:00:00 | |
| OE3MUC-15 | 2026-09-05 03:51:07 | 48.29293 | 16.00836 | 87° | 102km/h | 4164m | -4.3m/s | -2.6°C | 95.1% | 0hPa | 2.7V | 00:00:00 | 00:00:00 | 00:00:00 | |
| OE3MUC-15 | 2026-09-05 03:51:03 | 48.29289 | 16.00681 | 89° | 102km/h | 4181m | -3.6m/s | -2.8°C | 95.0% | 0hPa | 2.7V | 00:00:00 | 00:00:00 | 00:00:00 | |
| PETON7-10 | 2026-09-05 03:51:00 | 48.29287 | 16.00565 | 89° | 100km/h | 4191m | -3.4m/s | -2.9°C | 95.7% | 0hPa | 2.7V | 00:00:00 | 00:00:00 | 00:00:00 | |
| OE3MUC-15 | 2026-09-05 03:50:59 | 48.29286 | 16.00527 | 89° | 102km/h | 4195m | -4.0m/s | -2.9°C | 95.9% | 0hPa | 2.7V | 08:02:00 | 00:00:00 | 00:00:00 | |
| OE3JTB-15 | 2026-09-05 03:50:56 | 48.29284 | 16.00411 | 89° | 99km/h | 4207m | -4.6m/s | -3.0°C | 96.5% | 0hPa | 2.7V | 00:00:00 | 02:02:13 | 00:00:00 | |
| OE3MUC-15 | 2026-09-05 03:50:55 | 48.29284 | 16.00373 | 89° | 100km/h | 4211m | -4.1m/s | -3.0°C | 96.7% | 0hPa | 2.7V | 00:00:00 | 00:00:00 | 00:00:00 | |
| OM5KV | 2026-09-05 03:50:54 | 48.29284 | 16.00373 | 90° | 100km/h | 4211m | -4.1m/s | -3.1°C | 96.4% | 0hPa | 2.7V | 08:03:00 | 00:00:00 | 00:00:00 | |
| OM5KV | 2026-09-05 03:50:51 | 48.29281 | 16.00259 | 89° | 100km/h | 4225m | -3.9m/s | -3.2°C | 96.8% | 0hPa | 2.7V | 08:03:00 | 00:00:00 | 00:00:00 | |
| PG1ADW-2 | 2026-09-05 03:50:50 | 48.29280 | 16.00184 | 90° | 99km/h | 4233m | -4.1m/s | -3.3°C | 97.3% | 0hPa | 2.7V | 08:02:00 | 00:00:00 | 00:00:00 | |
| OE3MUC-15 | 2026-09-05 03:50:47 | 48.29279 | 16.00069 | 88° | 102km/h | 4246m | -4.6m/s | -3.4°C | 97.0% | 0hPa | 2.7V | 00:00:00 | 00:00:00 | 00:00:00 | |
| OM5KV | 2026-09-05 03:50:46 | 48.29279 | 16.00069 | 89° | 102km/h | 4246m | -4.7m/s | -3.4°C | 96.7% | 0hPa | 2.7V | 08:03:00 | 00:00:00 | 00:00:00 | |
| PETON7-10 | 2026-09-05 03:50:45 | 48.29277 | 15.99992 | 88° | 99km/h | 4256m | -4.3m/s | -3.4°C | 96.0% | 0hPa | 2.7V | 00:00:00 | 02:02:02 | 00:00:00 | |
| OE3OSB-13 | 2026-09-05 03:50:43 | 48.29273 | 15.99878 | 86° | 100km/h | 4270m | -4.7m/s | -3.5°C | 94.8% | -1.0hPa | 2.7V | 00:00:00 | 00:00:00 | 00:00:00 | |
| OM5KV | 2026-09-05 03:50:40 | 48.29271 | 15.99840 | 88° | 100km/h | 4275m | -5.3m/s | -3.5°C | 93.5% | 0hPa | 2.7V | 08:03:00 | 00:00:00 | 00:00:00 | |
| OE3MUC-15 | 2026-09-05 03:50:39 | 48.29268 | 15.99764 | 87° | 97km/h | 4283m | -3.7m/s | -3.6°C | 94.7% | 0hPa | 2.7V | 00:00:00 | 00:00:00 | 00:00:00 | |
| OE3MUC-15 | 2026-09-05 03:50:35 | 48.29263 | 15.99618 | 89° | 97km/h | 4302m | -5.4m/s | -3.8°C | 96.0% | 0hPa | 2.7V | 00:00:00 | 00:00:00 | 00:00:00 | |
| OM5KV | 2026-09-05 03:50:34 | 48.29263 | 15.99618 | 89° | 97km/h | 4302m | -5.5m/s | -3.8°C | 95.6% | 0hPa | 2.6V | 08:03:00 | 00:00:00 | 00:00:00 | |
| OE3MUC-15 | 2026-09-05 03:50:31 | 48.29258 | 15.99472 | 87° | 97km/h | 4322m | -4.8m/s | -3.8°C | 0% | 0hPa | 2.6V | 00:00:00 | 00:00:00 | 00:00:00 | |
| PETON7-10 | 2026-09-05 03:50:30 | 48.29257 | 15.99436 | 87° | 99km/h | 4327m | -5.2m/s | -3.6°C | 0% | 0hPa | 2.6V | 00:00:00 | 00:00:00 | 00:00:00 | |
| OM5KV | 2026-09-05 03:50:28 | 48.29255 | 15.99399 | 89° | 97km/h | 4332m | -5.4m/s | -3.6°C | 0% | 0hPa | 2.7V | 08:03:00 | 00:00:00 | 00:00:00 | |
| OE3MUC-15 | 2026-09-05 03:50:27 | 48.29252 | 15.99326 | 86° | 99km/h | 4342m | -5.1m/s | -3.6°C | 0% | 0hPa | 2.7V | 00:00:00 | 00:00:00 | 00:00:00 | |
| S52SK | 2026-09-05 03:50:24 | 48.29249 | 15.99252 | 86° | 99km/h | 4353m | -5.0m/s | -3.8°C | 99.9% | 0hPa | 2.7V | 00:00:00 | 00:00:00 | 00:00:00 | |
| OE3MUC-15 | 2026-09-05 03:50:23 | 48.29244 | 15.99178 | 85° | 99km/h | 4363m | -5.5m/s | -3.8°C | 0% | 0hPa | 2.7V | 08:03:00 | 00:00:00 | 00:00:00 | |
| OM5KV | 2026-09-05 03:50:22 | 48.29244 | 15.99178 | 85° | 99km/h | 4363m | -5.5m/s | -3.8°C | 0% | 0hPa | 2.7V | 08:03:00 | 00:00:00 | 00:00:00 | |
| OE3MUC-15 | 2026-09-05 03:50:19 | 48.29234 | 15.99031 | 84° | 99km/h | 4385m | -5.1m/s | -3.8°C | 0% | 0hPa | 2.7V | 00:00:00 | 00:00:00 | 00:00:00 | |
| S52SK | 2026-09-05 03:50:18 | 48.29234 | 15.99031 | 85° | 99km/h | 4385m | -5.1m/s | -3.8°C | 99.2% | 0hPa | 2.7V | 00:00:00 | 00:00:00 | 00:00:00 | |
| OM5KV | 2026-09-05 03:50:16 | 48.29229 | 15.98957 | 85° | 99km/h | 4396m | -4.9m/s | -3.7°C | 0% | 0hPa | 2.7V | 08:03:00 | 00:00:00 | 00:00:00 | |
| PETON7-10 | 2026-09-05 03:50:15 | 48.29223 | 15.98882 | 84° | 100km/h | 4406m | -5.1m/s | -3.7°C | 0% | 0hPa | 2.7V | 00:00:00 | 00:00:00 | 00:00:00 | |
| OE3OSB-13 | 2026-09-05 03:50:12 | 48.29212 | 15.98733 | 83° | 99km/h | 4425m | -4.9m/s | -3.9°C | 100.0% | -1.0hPa | 2.7V | 00:00:00 | 00:00:00 | 00:00:00 | |
| OE3MUC-15 | 2026-09-05 03:50:11 | 48.29212 | 15.98732 | 84° | 100km/h | 4426m | -4.8m/s | -3.8°C | 0% | 0hPa | 2.7V | 00:00:00 | 00:00:00 | 00:00:00 | |
| PG1ADW-2 | 2026-09-05 03:50:10 | 48.29210 | 15.98695 | 84° | 100km/h | 4431m | -4.9m/s | -3.8°C | 0% | 0hPa | 2.7V | 00:00:00 | 00:00:00 | 00:00:00 | |
| OE3MUC-15 | 2026-09-05 03:50:07 | 48.29200 | 15.98582 | 83° | 100km/h | 4446m | -5.3m/s | -3.9°C | 0% | 0hPa | 2.7V | 00:00:00 | 00:00:00 | 00:00:00 | |
| OM5KV | 2026-09-05 03:50:04 | 48.29193 | 15.98506 | 83° | 100km/h | 4456m | -5.3m/s | -4.0°C | 99.5% | 0hPa | 2.7V | 08:04:00 | 00:00:00 | 00:00:00 | |
| OE3MUC-15 | 2026-09-05 03:50:03 | 48.29186 | 15.98431 | 83° | 100km/h | 4466m | -5.6m/s | -4.0°C | 0% | 0hPa | 2.7V | 00:00:00 | 00:00:00 | 00:00:00 | |
| PETON7-10 | 2026-09-05 03:50:00 | 48.29176 | 15.98317 | 82° | 102km/h | 4482m | -5.3m/s | -4.1°C | 0% | 0hPa | 2.7V | 00:00:00 | 02:01:17 | 00:00:00 | |
| OE3MUC-15 | 2026-09-05 03:49:59 | 48.29173 | 15.98279 | 82° | 102km/h | 4487m | -5.1m/s | -4.1°C | 0% | 0hPa | 2.7V | 00:00:00 | 00:00:00 | 00:00:00 | |
| OE3JTB-15 | 2026-09-05 03:49:58 | 48.29169 | 15.98241 | 82° | 102km/h | 4492m | -5.3m/s | -4.2°C | 0% | 0hPa | 2.6V | 00:00:00 | 00:00:00 | 00:00:00 | |
| OE3MUC-15 | 2026-09-05 03:49:55 | 48.29157 | 15.98126 | 81° | 102km/h | 4508m | -5.5m/s | -4.3°C | 0% | 0hPa | 2.6V | 00:00:00 | 00:00:00 | 00:00:00 | |
| OM5KV | 2026-09-05 03:49:52 | 48.29149 | 15.98049 | 84° | 102km/h | 4518m | -5.5m/s | -4.4°C | 99.5% | 0hPa | 2.6V | 08:04:00 | 00:00:00 | 00:00:00 | |
| OE3MUC-15 | 2026-09-05 03:49:51 | 48.29142 | 15.97972 | 82° | 102km/h | 4529m | -5.1m/s | -4.4°C | 0% | 0hPa | 2.6V | 00:00:00 | 02:01:08 | 00:00:00 | |
| PG1ADW-2 | 2026-09-05 03:49:50 | 48.29138 | 15.97934 | 83° | 102km/h | 4535m | -5.4m/s | -4.5°C | 0% | 0hPa | 2.6V | 00:00:00 | 00:00:00 | 00:00:00 | |
| OE3MUC-15 | 2026-09-05 03:49:47 | 48.29127 | 15.97819 | 81° | 102km/h | 4551m | -5.8m/s | -4.5°C | 98.9% | 0hPa | 2.7V | 08:03:00 | 00:00:00 | 00:00:00 | |
| OM5KV | 2026-09-05 03:49:46 | 48.29127 | 15.97819 | 82° | 100km/h | 4551m | -5.8m/s | -4.6°C | 98.4% | 0hPa | 2.7V | 08:04:00 | 00:00:00 | 00:00:00 | |
| PETON7-10 | 2026-09-05 03:49:45 | 48.29119 | 15.97743 | 82° | 104km/h | 4563m | -6.2m/s | -4.4°C | 96.7% | 0hPa | 2.7V | 08:03:00 | 00:00:00 | 00:00:00 | |
| OE3MUC-15 | 2026-09-05 03:49:43 | 48.29110 | 15.97666 | 81° | 102km/h | 4575m | -6.2m/s | -4.4°C | 95.1% | 0hPa | 2.6V | 00:00:00 | 00:00:00 | 00:00:00 | |
| OM5KV | 2026-09-05 03:49:40 | 48.29102 | 15.97589 | 82° | 102km/h | 4587m | -6.0m/s | -4.2°C | 90.7% | 0hPa | 2.6V | 08:04:00 | 00:00:00 | 00:00:00 | |
| PETON7-10 | 2026-09-05 03:49:30 | 48.29058 | 15.97161 | 81° | 104km/h | 4647m | -5.3m/s | -4.2°C | 84.8% | 0hPa | 2.6V | 00:00:00 | 00:00:00 | 00:00:00 | |
| OE3JTB-15 | 2026-09-05 03:49:29 | 48.29053 | 15.97122 | 81° | 104km/h | 4652m | -5.1m/s | -4.3°C | 85.9% | 0hPa | 2.6V | 00:00:00 | 02:00:46 | 00:00:00 | |
| OM5KV | 2026-09-05 03:49:28 | 48.29053 | 15.97122 | 82° | 104km/h | 4652m | -5.2m/s | -4.3°C | 85.5% | 0hPa | 2.6V | 08:04:00 | 00:00:00 | 00:00:00 | |
| OE5DRO-10 | 2026-09-05 03:49:27 | 48.29045 | 15.97045 | 83° | 104km/h | 4663m | -5.2m/s | -4.2°C | 84.1% | 0hPa | 2.6V | 08:04:00 | 00:00:00 | 00:00:00 | |
| OM5KV | 2026-09-05 03:49:22 | 48.29030 | 15.96887 | 82° | 104km/h | 4685m | -5.8m/s | -4.3°C | 81.9% | 0hPa | 2.6V | 08:05:00 | 00:00:00 | 00:00:00 | |
| OE3MUC-15 | 2026-09-05 03:49:19 | 48.29014 | 15.96730 | 82° | 104km/h | 4707m | -5.5m/s | -4.5°C | 83.5% | 0hPa | 2.6V | 00:00:00 | 00:00:00 | 00:00:00 | |
| OM5KV | 2026-09-05 03:49:16 | 48.29006 | 15.96651 | 83° | 104km/h | 4719m | -5.7m/s | -4.7°C | 84.8% | 0hPa | 2.6V | 08:05:00 | 00:00:00 | 00:00:00 | |
| PETON7-10 | 2026-09-05 03:49:15 | 48.28998 | 15.96573 | 82° | 106km/h | 4730m | -5.5m/s | -4.7°C | 86.2% | 0hPa | 2.6V | 00:00:00 | 02:00:32 | 00:00:00 | |
| OE3MUC-15 | 2026-09-05 03:49:11 | 48.28982 | 15.96416 | 83° | 106km/h | 4751m | -5.1m/s | -4.9°C | 86.4% | 0hPa | 2.6V | 08:04:00 | 00:00:00 | 00:00:00 | |
| PG1ADW-2 | 2026-09-05 03:49:10 | 48.28979 | 15.96376 | 83° | 106km/h | 4756m | -5.5m/s | -4.9°C | 86.4% | 0hPa | 2.6V | 00:00:00 | 02:00:27 | 00:00:00 | |
| OE3OSB-13 | 2026-09-05 03:49:09 | 48.28975 | 15.96336 | 82° | 106km/h | 4761m | -5.4m/s | -5.0°C | 85.7% | -1.0hPa | 2.6V | 00:00:00 | 00:00:00 | 00:00:00 | |
| OE3MUC-15 | 2026-09-05 03:49:07 | 48.28967 | 15.96256 | 82° | 106km/h | 4772m | -5.1m/s | -5.0°C | 86.3% | 0hPa | 2.6V | 00:00:00 | 00:00:00 | 00:00:00 | |
| OE5DXL-15 | 2026-09-05 03:49:04 | 48.28955 | 15.96138 | 81° | 104km/h | 4787m | -5.0m/s | -5.2°C | 88.8% | 0hPa | 2.6V | 00:00:00 | 00:00:00 | 00:00:00 | |
| OE3MUC-15 | 2026-09-05 03:49:03 | 48.28950 | 15.96099 | 81° | 106km/h | 4791m | -4.6m/s | -5.3°C | 88.9% | 0hPa | 2.6V | 00:00:00 | 00:00:00 | 00:00:00 | |
| PETON7-10 | 2026-09-05 03:49:00 | 48.28937 | 15.95980 | 81° | 104km/h | 4806m | -4.6m/s | -5.3°C | 88.2% | 0hPa | 2.6V | 00:00:00 | 00:00:00 | 00:00:00 | |
| OE3MUC-15 | 2026-09-05 03:48:59 | 48.28933 | 15.95941 | 80° | 106km/h | 4811m | -4.7m/s | -5.4°C | 88.7% | 0hPa | 2.6V | 00:00:00 | 00:00:00 | 00:00:00 | |
| OM5KV | 2026-09-05 03:48:58 | 48.28933 | 15.95941 | 81° | 106km/h | 4811m | -4.7m/s | -5.4°C | 88.2% | 0hPa | 2.7V | 08:05:00 | 00:00:00 | 00:00:00 | |
| OE3MUC-15 | 2026-09-05 03:48:55 | 48.28914 | 15.95783 | 80° | 106km/h | 4830m | -5.3m/s | -5.5°C | 88.5% | 0hPa | 2.7V | 00:00:00 | 00:00:00 | 00:00:00 | |
| OM5KV | 2026-09-05 03:48:52 | 48.28904 | 15.95705 | 80° | 104km/h | 4840m | -4.9m/s | -5.7°C | 88.7% | 0hPa | 2.7V | 08:05:00 | 00:00:00 | 00:00:00 | |
| OE3MUC-15 | 2026-09-05 03:48:51 | 48.28894 | 15.95627 | 80° | 104km/h | 4849m | -4.7m/s | -5.7°C | 88.6% | 0hPa | 2.7V | 00:00:00 | 00:00:00 | 00:00:00 | |
| PG1ADW-2 | 2026-09-05 03:48:50 | 48.28889 | 15.95588 | 81° | 106km/h | 4854m | -4.8m/s | -5.7°C | 89.2% | 0hPa | 2.7V | 00:00:00 | 00:00:00 | 00:00:00 | |
| OE3MUC-15 | 2026-09-05 03:48:47 | 48.28875 | 15.95472 | 80° | 106km/h | 4868m | -4.7m/s | -5.9°C | 90.2% | 0hPa | 2.7V | 00:00:00 | 00:00:00 | 00:00:00 | |
| OM5KV | 2026-09-05 03:48:46 | 48.28875 | 15.95472 | 81° | 104km/h | 4868m | -4.7m/s | -5.9°C | 89.7% | 0hPa | 2.6V | 08:05:00 | 00:00:00 | 00:00:00 | |
| PETON7-10 | 2026-09-05 03:48:45 | 48.28865 | 15.95393 | 80° | 106km/h | 4878m | -4.5m/s | -5.8°C | 86.5% | 0hPa | 2.6V | 00:00:00 | 00:00:00 | 00:00:00 | |
| OE3MUC-15 | 2026-09-05 03:48:43 | 48.28855 | 15.95314 | 79° | 106km/h | 4887m | -4.2m/s | -5.9°C | 88.9% | 0hPa | 2.6V | 00:00:00 | 00:00:00 | 00:00:00 | |
| OM5KV | 2026-09-05 03:48:42 | 48.28855 | 15.95314 | 79° | 106km/h | 4887m | -4.3m/s | -6.0°C | 88.3% | 0hPa | 2.6V | 08:05:00 | 00:00:00 | 00:00:00 | |
| OM5KV | 2026-09-05 03:48:40 | 48.28844 | 15.95235 | 80° | 108km/h | 4894m | -4.3m/s | -6.1°C | 89.6% | 0hPa | 2.6V | 08:05:00 | 00:00:00 | 00:00:00 | |
| OE3MUC-15 | 2026-09-05 03:48:39 | 48.28834 | 15.95156 | 79° | 106km/h | 4902m | -3.7m/s | -6.1°C | 90.5% | 0hPa | 2.6V | 00:00:00 | 00:00:00 | 00:00:00 | |
| OE3OSB-13 | 2026-09-05 03:48:38 | 48.28828 | 15.95118 | 78° | 104km/h | 4906m | -3.9m/s | -6.2°C | 90.0% | -1.0hPa | 2.6V | 00:00:00 | 00:00:00 | 00:00:00 | |
| OE3MUC-15 | 2026-09-05 03:48:35 | 48.28812 | 15.95001 | 79° | 104km/h | 4917m | -3.9m/s | -6.2°C | 91.1% | 0hPa | 2.6V | 08:05:00 | 00:00:00 | 00:00:00 | |
| OM5KV | 2026-09-05 03:48:34 | 48.28812 | 15.95001 | 79° | 104km/h | 4917m | -3.9m/s | -6.3°C | 90.5% | 0hPa | 2.6V | 08:05:00 | 00:00:00 | 00:00:00 | |
| OE3MUC-15 | 2026-09-05 03:48:31 | 48.28790 | 15.94845 | 80° | 106km/h | 4932m | -3.9m/s | -6.4°C | 91.7% | 0hPa | 2.6V | 00:00:00 | 00:00:00 | 00:00:00 | |
| PETON7-10 | 2026-09-05 03:48:30 | 48.28786 | 15.94806 | 80° | 106km/h | 4936m | -4.1m/s | -6.4°C | 92.2% | 0hPa | 2.6V | 00:00:00 | 01:59:47 | 00:00:00 | |
| OM5KV | 2026-09-05 03:48:28 | 48.28780 | 15.94766 | 80° | 106km/h | 4940m | -3.9m/s | -6.5°C | 90.6% | 0hPa | 2.6V | 08:05:00 | 00:00:00 | 00:00:00 | |
| OE3MUC-15 | 2026-09-05 03:48:27 | 48.28770 | 15.94686 | 79° | 108km/h | 4947m | -3.3m/s | -6.4°C | 90.5% | 0hPa | 2.6V | 00:00:00 | 00:00:00 | 00:00:00 | |
| OE5DRO-10 | 2026-09-05 03:48:23 | 48.28749 | 15.94527 | 78° | 104km/h | 4959m | -3.6m/s | -6.6°C | 91.7% | 0hPa | 2.6V | 00:00:00 | 00:00:00 | 00:00:00 | |
| OM5KV | 2026-09-05 03:48:22 | 48.28749 | 15.94527 | 79° | 106km/h | 4959m | -3.7m/s | -6.6°C | 91.0% | 0hPa | 2.6V | 08:05:00 | 00:00:00 | 00:00:00 | |
| OE3JTB-15 | 2026-09-05 03:48:21 | 48.28738 | 15.94449 | 79° | 104km/h | 4967m | -3.3m/s | -6.7°C | 92.9% | 0hPa | 2.6V | 00:00:00 | 00:00:00 | 00:00:00 | |
| OE3MUC-15 | 2026-09-05 03:48:19 | 48.28728 | 15.94371 | 79° | 104km/h | 4973m | -3.6m/s | -6.7°C | 93.1% | 0hPa | 2.6V | 00:00:00 | 00:00:00 | 00:00:00 | |
| OM5KV | 2026-09-05 03:48:16 | 48.28717 | 15.94294 | 80° | 104km/h | 4981m | -4.2m/s | -6.8°C | 92.9% | 0hPa | 2.6V | 08:05:00 | 00:00:00 | 00:00:00 | |
| PETON7-10 | 2026-09-05 03:48:15 | 48.28707 | 15.94216 | 81° | 104km/h | 4989m | -3.8m/s | -6.8°C | 93.5% | 0hPa | 2.6V | 00:00:00 | 00:00:00 | 00:00:00 | |
| OE3MUC-15 | 2026-09-05 03:48:11 | 48.28687 | 15.94059 | 81° | 106km/h | 5004m | -3.8m/s | -7.0°C | 93.2% | 0hPa | 2.6V | 00:00:00 | 00:00:00 | 00:00:00 | |
| PG1ADW-2 | 2026-09-05 03:48:10 | 48.28682 | 15.94019 | 79° | 104km/h | 5007m | -3.6m/s | -7.0°C | 93.3% | 0hPa | 2.6V | 00:00:00 | 00:00:00 | 00:00:00 | |
| OE3MUC-15 | 2026-09-05 03:48:07 | 48.28667 | 15.93902 | 80° | 104km/h | 5019m | -4.5m/s | -7.1°C | 94.7% | 0hPa | 2.6V | 00:00:00 | 00:00:00 | 00:00:00 | |
| OE3MUC-15 | 2026-09-05 03:48:03 | 48.28647 | 15.93747 | 79° | 102km/h | 5037m | -4.6m/s | -7.3°C | 95.0% | 0hPa | 2.6V | 00:00:00 | 00:00:00 | 00:00:00 | |
| PETON7-10 | 2026-09-05 03:48:00 | 48.28633 | 15.93632 | 81° | 104km/h | 5050m | -4.2m/s | -7.4°C | 95.6% | 0hPa | 2.6V | 00:00:00 | 00:00:00 | 00:00:00 | |
| OE3MUC-15 | 2026-09-05 03:47:59 | 48.28629 | 15.93594 | 81° | 102km/h | 5054m | -4.3m/s | -7.4°C | 95.8% | 0hPa | 2.6V | 08:05:00 | 00:00:00 | 00:00:00 | |
| OE5DXL-15 | 2026-09-05 03:47:56 | 48.28615 | 15.93479 | 81° | 102km/h | 5066m | -3.8m/s | -7.6°C | 96.5% | 0hPa | 2.6V | 00:00:00 | 01:59:13 | 00:00:00 | |
| OE3MUC-15 | 2026-09-05 03:47:55 | 48.28611 | 15.93439 | 81° | 106km/h | 5070m | -3.6m/s | -7.7°C | 96.7% | 0hPa | 2.6V | 00:00:00 | 00:00:00 | 00:00:00 | |
| S52SK | 2026-09-05 03:47:54 | 48.28611 | 15.93439 | 82° | 104km/h | 5070m | -3.6m/s | -7.7°C | 96.0% | 0hPa | 2.6V | 00:00:00 | 00:00:00 | 00:00:00 | |
| OE3MUC-15 | 2026-09-05 03:47:51 | 48.28594 | 15.93282 | 81° | 106km/h | 5085m | -4.1m/s | -7.8°C | 97.2% | 0hPa | 2.6V | 00:00:00 | 00:00:00 | 00:00:00 | |
| PG1ADW-2 | 2026-09-05 03:47:50 | 48.28589 | 15.93243 | 80° | 104km/h | 5089m | -4.1m/s | -7.9°C | 97.4% | 0hPa | 2.6V | 08:05:00 | 01:59:07 | 00:00:00 | |
| OM5KV | 2026-09-05 03:47:49 | 48.28584 | 15.93203 | 81° | 106km/h | 5093m | -4.0m/s | -8.0°C | 97.0% | 0hPa | 2.6V | 08:05:00 | 00:00:00 | 00:00:00 | |
| S52SK | 2026-09-05 03:47:48 | 48.28584 | 15.93203 | 81° | 106km/h | 5093m | -4.0m/s | -8.0°C | 97.0% | 0hPa | 2.6V | 00:00:00 | 00:00:00 | 00:00:00 | |
| OE3MUC-15 | 2026-09-05 03:47:47 | 48.28575 | 15.93124 | 80° | 106km/h | 5101m | -3.9m/s | -8.0°C | 98.1% | 0hPa | 2.6V | 00:00:00 | 00:00:00 | 00:00:00 | |
| PETON7-10 | 2026-09-05 03:47:45 | 48.28566 | 15.93046 | 80° | 102km/h | 5108m | -3.6m/s | -8.0°C | 98.5% | 0hPa | 2.6V | 00:00:00 | 01:59:02 | 00:00:00 | |
| OE3MUC-15 | 2026-09-05 03:47:43 | 48.28556 | 15.92967 | 80° | 104km/h | 5115m | -3.5m/s | -8.1°C | 98.8% | 0hPa | 2.6V | 00:00:00 | 00:00:00 | 00:00:00 | |
| OM5KV | 2026-09-05 03:47:42 | 48.28556 | 15.92967 | 81° | 104km/h | 5115m | -3.6m/s | -8.1°C | 98.0% | 0hPa | 2.6V | 08:05:00 | 00:00:00 | 00:00:00 | |
| OE3OSB-13 | 2026-09-05 03:47:36 | 48.28522 | 15.92657 | 81° | 100km/h | 5142m | -3.4m/s | -8.3°C | 99.1% | -1.0hPa | 2.6V | 00:00:00 | 00:00:00 | 00:00:00 | |
| OE5DRO-10 | 2026-09-05 03:47:35 | 48.28522 | 15.92657 | 82° | 102km/h | 5142m | -3.3m/s | -8.2°C | 0% | 0hPa | 2.6V | 00:00:00 | 00:00:00 | 00:00:00 | |
| PG1ADW-2 | 2026-09-05 03:47:30 | 48.28500 | 15.92468 | 80° | 100km/h | 5161m | -4.7m/s | -8.3°C | 0% | 0hPa | 2.6V | 00:00:00 | 00:00:00 | 00:00:00 | |
| OM5KV | 2026-09-05 03:47:24 | 48.28478 | 15.92279 | 81° | 102km/h | 5186m | -5.3m/s | -8.5°C | 99.3% | 0hPa | 2.6V | 08:06:00 | 00:00:00 | 00:00:00 | |
| OE3JTB-15 | 2026-09-05 03:47:23 | 48.28470 | 15.92203 | 81° | 104km/h | 5197m | -5.2m/s | -8.5°C | 0% | 0hPa | 2.6V | 00:00:00 | 00:00:00 | 00:00:00 | |
| OE5DRO-10 | 2026-09-05 03:47:19 | 48.28452 | 15.92051 | 79° | 102km/h | 5216m | -5.0m/s | -8.6°C | 0% | 0hPa | 2.5V | 00:00:00 | 00:00:00 | 00:00:00 | |
| OM5KV | 2026-09-05 03:47:18 | 48.28452 | 15.92051 | 80° | 100km/h | 5216m | -5.1m/s | -8.7°C | 99.4% | 0hPa | 2.5V | 08:06:00 | 00:00:00 | 00:00:00 | |
| OE5DXL-15 | 2026-09-05 03:47:16 | 48.28436 | 15.91940 | 77° | 106km/h | 5231m | -4.8m/s | -8.7°C | 0% | 0hPa | 2.5V | 00:00:00 | 00:00:00 | 00:00:00 | |
| PETON7-10 | 2026-09-05 03:47:15 | 48.28430 | 15.91902 | 77° | 102km/h | 5235m | -4.3m/s | -8.8°C | 0% | 0hPa | 2.5V | 00:00:00 | 00:00:00 | 00:00:00 | |
| OM5KV | 2026-09-05 03:47:12 | 48.28418 | 15.91828 | 77° | 100km/h | 5246m | -5.3m/s | -8.9°C | 0% | 0hPa | 2.5V | 08:06:00 | 00:00:00 | 00:00:00 | |
| PG1ADW-2 | 2026-09-05 03:47:10 | 48.28401 | 15.91717 | 77° | 106km/h | 5261m | -4.3m/s | -9.0°C | 0% | 0hPa | 2.5V | 00:00:00 | 00:00:00 | 00:00:00 | |
| OE3MUC-15 | 2026-09-05 03:47:07 | 48.28383 | 15.91603 | 78° | 104km/h | 5274m | -4.3m/s | -9.2°C | 0% | 0hPa | 2.5V | 00:00:00 | 00:00:00 | 00:00:00 | |
| OM5KV | 2026-09-05 03:47:06 | 48.28384 | 15.91603 | 79° | 102km/h | 5274m | -4.4m/s | -9.2°C | 100.0% | 0hPa | 2.5V | 08:06:00 | 00:00:00 | 00:00:00 | |
| OE3MUC-15 | 2026-09-05 03:47:03 | 48.28358 | 15.91449 | 76° | 104km/h | 5292m | -4.6m/s | -9.3°C | 0% | 0hPa | 2.5V | 00:00:00 | 00:00:00 | 00:00:00 | |
| PETON7-10 | 2026-09-05 03:47:00 | 48.28337 | 15.91335 | 74° | 108km/h | 5306m | -4.5m/s | -9.0°C | 88.2% | 0hPa | 2.5V | 00:00:00 | 01:58:17 | 00:00:00 | |
| OE3MUC-15 | 2026-09-05 03:46:59 | 48.28330 | 15.91297 | 74° | 106km/h | 5311m | -4.6m/s | -8.6°C | 74.2% | 0hPa | 2.5V | 00:00:00 | 00:00:00 | 00:00:00 | |
| OE3MUC-15 | 2026-09-05 03:46:55 | 48.28299 | 15.91142 | 74° | 108km/h | 5329m | -5.0m/s | -8.6°C | 69.1% | 0hPa | 2.6V | 00:00:00 | 01:58:12 | 00:00:00 | |
| OM5KV | 2026-09-05 03:46:53 | 48.28292 | 15.91103 | 75° | 108km/h | 5334m | -5.0m/s | -8.4°C | 64.7% | 0hPa | 2.6V | 08:06:00 | 00:00:00 | 00:00:00 | |
| OE3MUC-15 | 2026-09-05 03:46:51 | 48.28268 | 15.90984 | 73° | 108km/h | 5349m | -4.5m/s | -7.6°C | 42.6% | 0hPa | 2.6V | 00:00:00 | 00:00:00 | 00:00:00 | |
| PG1ADW-2 | 2026-09-05 03:46:50 | 48.28260 | 15.90945 | 73° | 108km/h | 5354m | -5.0m/s | -7.7°C | 42.9% | 0hPa | 2.6V | 00:00:00 | 00:00:00 | 00:00:00 | |
| OE3MUC-15 | 2026-09-05 03:46:47 | 48.28235 | 15.90827 | 73° | 108km/h | 5369m | -5.3m/s | -7.7°C | 40.0% | 0hPa | 2.6V | 08:06:00 | 00:00:00 | 00:00:00 | |
| PETON7-10 | 2026-09-05 03:46:45 | 48.28218 | 15.90749 | 73° | 108km/h | 5379m | -5.0m/s | -7.7°C | 39.3% | 0hPa | 2.6V | 00:00:00 | 00:00:00 | 00:00:00 | |
| OE5DRO-10 | 2026-09-05 03:46:44 | 48.28210 | 15.90710 | 73° | 110km/h | 5384m | -5.3m/s | -7.8°C | 39.5% | 0hPa | 2.6V | 00:00:00 | 00:00:00 | 00:00:00 | |
| OE3MUC-15 | 2026-09-05 03:46:43 | 48.28201 | 15.90671 | 73° | 110km/h | 5390m | -5.0m/s | -7.8°C | 40.1% | 0hPa | 2.6V | 00:00:00 | 00:00:00 | 00:00:00 | |
| OM5KV | 2026-09-05 03:46:41 | 48.28193 | 15.90632 | 73° | 108km/h | 5395m | -5.0m/s | -7.9°C | 39.9% | 0hPa | 2.6V | 08:07:00 | 00:00:00 | 00:00:00 | |
| S52SK | 2026-09-05 03:46:40 | 48.28184 | 15.90593 | 74° | 110km/h | 5400m | -5.2m/s | -7.9°C | 40.3% | 0hPa | 2.6V | 00:00:00 | 00:00:00 | 00:00:00 | |
| OE3MUC-15 | 2026-09-05 03:46:39 | 48.28167 | 15.90514 | 72° | 110km/h | 5410m | -5.1m/s | -7.9°C | 41.0% | 0hPa | 2.6V | 00:00:00 | 00:00:00 | 00:00:00 | |
| OE3MUC-15 | 2026-09-05 03:46:35 | 48.28133 | 15.90358 | 72° | 108km/h | 5430m | -4.9m/s | -8.0°C | 41.5% | 0hPa | 2.6V | 00:00:00 | 00:00:00 | 00:00:00 | |
| OE3OSB-13 | 2026-09-05 03:46:34 | 48.28117 | 15.90280 | 72° | 108km/h | 5441m | -5.4m/s | -8.1°C | 43.6% | -1.0hPa | 2.5V | 00:00:00 | 00:00:00 | 00:00:00 | |
| OE3MUC-15 | 2026-09-05 03:46:31 | 48.28100 | 15.90201 | 73° | 108km/h | 5451m | -4.9m/s | -8.1°C | 46.9% | 0hPa | 2.5V | 00:00:00 | 00:00:00 | 00:00:00 | |
| PG1ADW-2 | 2026-09-05 03:46:30 | 48.28092 | 15.90162 | 73° | 110km/h | 5456m | -5.3m/s | -8.2°C | 47.7% | 0hPa | 2.5V | 00:00:00 | 01:57:47 | 00:00:00 | |
| PETON7-10 | 2026-09-05 03:46:29 | 48.28084 | 15.90123 | 74° | 110km/h | 5461m | -5.0m/s | -8.2°C | 47.8% | 0hPa | 2.5V | 00:00:00 | 00:00:00 | 00:00:00 | |
| OE3MUC-15 | 2026-09-05 03:46:27 | 48.28068 | 15.90044 | 74° | 110km/h | 5471m | -4.7m/s | -8.3°C | 48.8% | 0hPa | 2.5V | 00:00:00 | 00:00:00 | 00:00:00 | |
| OE5DRO-10 | 2026-09-05 03:46:25 | 48.28052 | 15.89964 | 74° | 110km/h | 5481m | -4.6m/s | -8.4°C | 48.7% | 0hPa | 2.5V | 00:00:00 | 00:00:00 | 00:00:00 | |
| OE3MUC-15 | 2026-09-05 03:46:23 | 48.28035 | 15.89884 | 73° | 110km/h | 5491m | -5.8m/s | -8.4°C | 50.8% | 0hPa | 2.5V | 00:00:00 | 00:00:00 | 00:00:00 | |
| OE3JTB-15 | 2026-09-05 03:46:22 | 48.28027 | 15.89844 | 74° | 110km/h | 5496m | -5.7m/s | -8.5°C | 52.0% | 0hPa | 2.5V | 00:00:00 | 01:57:39 | 00:00:00 | |
| OM5KV | 2026-09-05 03:46:21 | 48.28027 | 15.89844 | 74° | 110km/h | 5496m | -5.7m/s | -8.5°C | 51.4% | 0hPa | 2.5V | 08:07:00 | 00:00:00 | 00:00:00 | |
| OE3MUC-15 | 2026-09-05 03:46:19 | 48.28003 | 15.89723 | 74° | 110km/h | 5512m | -5.1m/s | -8.5°C | 50.1% | 0hPa | 2.5V | 00:00:00 | 00:00:00 | 00:00:00 | |
| OE5DXL-15 | 2026-09-05 03:46:16 | 48.27981 | 15.89603 | 76° | 110km/h | 5528m | -5.1m/s | -8.6°C | 50.1% | 0hPa | 2.5V | 00:00:00 | 00:00:00 | 00:00:00 | |
| OE3MUC-15 | 2026-09-05 03:46:15 | 48.27974 | 15.89563 | 77° | 108km/h | 5533m | -4.9m/s | -8.7°C | 48.8% | 0hPa | 2.6V | 00:00:00 | 00:00:00 | 00:00:00 | |
| PETON7-10 | 2026-09-05 03:46:14 | 48.27967 | 15.89523 | 76° | 110km/h | 5538m | -4.5m/s | -8.7°C | 48.3% | 0hPa | 2.6V | 00:00:00 | 01:57:31 | 00:00:00 | |
| OM5KV | 2026-09-05 03:46:13 | 48.27967 | 15.89523 | 76° | 108km/h | 5538m | -4.5m/s | -8.8°C | 47.7% | 0hPa | 2.6V | 08:07:00 | 00:00:00 | 00:00:00 | |
| OE3MUC-15 | 2026-09-05 03:46:11 | 48.27947 | 15.89403 | 76° | 110km/h | 5552m | -4.5m/s | -8.9°C | 47.9% | 0hPa | 2.6V | 08:07:00 | 00:00:00 | 00:00:00 | |
| PG1ADW-2 | 2026-09-05 03:46:10 | 48.27940 | 15.89363 | 76° | 110km/h | 5556m | -5.3m/s | -8.9°C | 47.9% | 0hPa | 2.6V | 00:00:00 | 00:00:00 | 00:00:00 | |
| OE3MUC-15 | 2026-09-05 03:46:07 | 48.27920 | 15.89241 | 77° | 111km/h | 5571m | -5.0m/s | -9.1°C | 48.0% | 0hPa | 2.6V | 00:00:00 | 00:00:00 | 00:00:00 | |
| OE5DRO-10 | 2026-09-05 03:46:06 | 48.27913 | 15.89200 | 76° | 110km/h | 5576m | -4.5m/s | -9.1°C | 48.0% | 0hPa | 2.6V | 00:00:00 | 00:00:00 | 00:00:00 | |
| OE3MUC-15 | 2026-09-05 03:46:03 | 48.27892 | 15.89078 | 77° | 110km/h | 5590m | -5.1m/s | -9.2°C | 49.2% | 0hPa | 2.6V | 00:00:00 | 00:00:00 | 00:00:00 | |
| PETON7-10 | 2026-09-05 03:45:59 | 48.27868 | 15.88915 | 78° | 110km/h | 5610m | -5.5m/s | -9.2°C | 56.7% | 0hPa | 2.6V | 00:00:00 | 00:00:00 | 00:00:00 | |
| OE3MUC-15 | 2026-09-05 03:45:55 | 48.27846 | 15.88751 | 79° | 111km/h | 5632m | -5.4m/s | -9.5°C | 60.9% | 0hPa | 2.6V | 00:00:00 | 00:00:00 | 00:00:00 | |
| OE3JTB-15 | 2026-09-05 03:45:53 | 48.27835 | 15.88669 | 79° | 113km/h | 5643m | -5.1m/s | -9.6°C | 61.8% | 0hPa | 2.6V | 08:07:00 | 00:00:00 | 00:00:00 | |
| OE3MUC-15 | 2026-09-05 03:45:51 | 48.27823 | 15.88587 | 78° | 110km/h | 5653m | -5.2m/s | -9.7°C | 62.2% | 0hPa | 2.6V | 00:00:00 | 00:00:00 | 00:00:00 | |
| PG1ADW-2 | 2026-09-05 03:45:50 | 48.27817 | 15.88546 | 78° | 113km/h | 5659m | -5.1m/s | -9.7°C | 62.3% | 0hPa | 2.6V | 00:00:00 | 00:00:00 | 00:00:00 | |
| OE3MUC-15 | 2026-09-05 03:45:47 | 48.27800 | 15.88423 | 80° | 111km/h | 5674m | -5.1m/s | -9.9°C | 63.1% | 0hPa | 2.5V | 00:00:00 | 00:00:00 | 00:00:00 | |
| OE5DXL-15 | 2026-09-05 03:45:46 | 48.27795 | 15.88382 | 80° | 115km/h | 5679m | -5.0m/s | -9.9°C | 63.4% | 0hPa | 2.6V | 00:00:00 | 00:00:00 | 00:00:00 | |
| OM5KV | 2026-09-05 03:45:45 | 48.27795 | 15.88382 | 81° | 110km/h | 5679m | -5.1m/s | -10.0°C | 62.6% | 0hPa | 2.6V | 08:08:00 | 00:00:00 | 00:00:00 | |
| PETON7-10 | 2026-09-05 03:45:44 | 48.27784 | 15.88299 | 79° | 113km/h | 5689m | -4.9m/s | -10.0°C | 63.9% | 0hPa | 2.6V | 00:00:00 | 00:00:00 | 00:00:00 | |
| OE3MUC-15 | 2026-09-05 03:45:43 | 48.27779 | 15.88257 | 79° | 113km/h | 5694m | -4.9m/s | -10.1°C | 64.4% | 0hPa | 2.6V | 00:00:00 | 00:00:00 | 00:00:00 | |
| OM5KV | 2026-09-05 03:45:39 | 48.27762 | 15.88131 | 81° | 113km/h | 5710m | -5.3m/s | -10.3°C | 64.0% | 0hPa | 2.6V | 08:08:00 | 00:00:00 | 00:00:00 | |
| OM5KV | 2026-09-05 03:45:33 | 48.27729 | 15.87877 | 79° | 113km/h | 5742m | -5.3m/s | -10.6°C | 65.0% | 0hPa | 2.6V | 08:08:00 | 00:00:00 | 00:00:00 | |
| OE3OSB-13 | 2026-09-05 03:45:32 | 48.27713 | 15.87750 | 78° | 113km/h | 5757m | -5.4m/s | -10.7°C | 62.1% | -1.0hPa | 2.6V | 00:00:00 | 00:00:00 | 00:00:00 | |
| PG1ADW-2 | 2026-09-05 03:45:30 | 48.27707 | 15.87707 | 79° | 117km/h | 5763m | -5.1m/s | -10.6°C | 62.6% | 0hPa | 2.6V | 00:00:00 | 00:00:00 | 00:00:00 | |
| PETON7-10 | 2026-09-05 03:45:29 | 48.27701 | 15.87664 | 79° | 117km/h | 5768m | -5.4m/s | -10.6°C | 56.2% | 0hPa | 2.6V | 00:00:00 | 01:56:46 | 00:00:00 | |
| OE5DRO-10 | 2026-09-05 03:45:28 | 48.27695 | 15.87622 | 78° | 117km/h | 5773m | -5.1m/s | -10.5°C | 45.9% | 0hPa | 2.6V | 00:00:00 | 00:00:00 | 00:00:00 | |
| OE3JTB-15 | 2026-09-05 03:45:24 | 48.27672 | 15.87450 | 78° | 117km/h | 5794m | -5.2m/s | -10.3°C | 22.6% | 0hPa | 2.6V | 00:00:00 | 00:00:00 | 00:00:00 | |
| OE3MUC-15 | 2026-09-05 03:45:19 | 48.27642 | 15.87233 | 79° | 117km/h | 5819m | -5.4m/s | -10.4°C | 23.0% | 0hPa | 2.6V | 00:00:00 | 00:00:00 | 00:00:00 | |
| OE5DXL-15 | 2026-09-05 03:45:16 | 48.27623 | 15.87103 | 78° | 117km/h | 5835m | -5.5m/s | -10.5°C | 23.9% | 0hPa | 2.6V | 00:00:00 | 00:00:00 | 00:00:00 | |
| OE3MUC-15 | 2026-09-05 03:45:15 | 48.27617 | 15.87060 | 79° | 117km/h | 5841m | -5.5m/s | -10.6°C | 23.7% | 0hPa | 2.6V | 00:00:00 | 00:00:00 | 00:00:00 | |
| PETON7-10 | 2026-09-05 03:45:14 | 48.27611 | 15.87016 | 78° | 117km/h | 5846m | -5.4m/s | -10.6°C | 23.7% | 0hPa | 2.6V | 08:08:00 | 00:00:00 | 00:00:00 | |
| S52SK | 2026-09-05 03:45:13 | 48.27611 | 15.87016 | 79° | 117km/h | 5846m | -5.4m/s | -10.7°C | 23.1% | 0hPa | 2.5V | 00:00:00 | 00:00:00 | 00:00:00 | |
| OE3MUC-15 | 2026-09-05 03:45:11 | 48.27593 | 15.86885 | 79° | 119km/h | 5863m | -5.8m/s | -10.8°C | 23.8% | 0hPa | 2.5V | 00:00:00 | 00:00:00 | 00:00:00 | |
| PG1ADW-2 | 2026-09-05 03:45:10 | 48.27586 | 15.86842 | 78° | 117km/h | 5868m | -5.6m/s | -10.8°C | 23.9% | 0hPa | 2.6V | 00:00:00 | 01:56:27 | 00:00:00 | |
| OE5DRO-10 | 2026-09-05 03:45:09 | 48.27581 | 15.86798 | 80° | 117km/h | 5874m | -5.4m/s | -10.9°C | 24.3% | 0hPa | 2.6V | 00:00:00 | 00:00:00 | 00:00:00 | |
| OM5KV | 2026-09-05 03:45:08 | 48.27581 | 15.86798 | 80° | 117km/h | 5874m | -5.4m/s | -10.9°C | 23.7% | 0hPa | 2.6V | 08:09:00 | 00:00:00 | 00:00:00 | |
| OE3MUC-15 | 2026-09-05 03:45:07 | 48.27569 | 15.86710 | 79° | 117km/h | 5885m | -5.5m/s | -11.0°C | 0% | 0hPa | 2.6V | 00:00:00 | 00:00:00 | 00:00:00 | |
| OE3MUC-15 | 2026-09-05 03:45:03 | 48.27546 | 15.86534 | 79° | 117km/h | 5906m | -5.4m/s | -11.2°C | 61.7% | 0hPa | 2.6V | 00:00:00 | 00:00:00 | 00:00:00 | |
| OM5KV | 2026-09-05 03:45:02 | 48.27546 | 15.86534 | 80° | 117km/h | 5906m | -5.5m/s | -11.2°C | 60.9% | 0hPa | 2.6V | 08:09:00 | 00:00:00 | 00:00:00 | |
| OE3OSB-13 | 2026-09-05 03:45:01 | 48.27530 | 15.86404 | 79° | 115km/h | 5922m | -5.3m/s | -11.3°C | 71.2% | -1.0hPa | 2.6V | 00:00:00 | 00:00:00 | 00:00:00 | |
| PETON7-10 | 2026-09-05 03:44:59 | 48.27525 | 15.86361 | 80° | 117km/h | 5927m | -5.1m/s | -11.2°C | 69.8% | 0hPa | 2.6V | 00:00:00 | 00:00:00 | 00:00:00 | |
| OM5KV | 2026-09-05 03:44:57 | 48.27519 | 15.86317 | 81° | 117km/h | 5933m | -5.6m/s | -11.3°C | 67.5% | 0hPa | 2.6V | 08:09:00 | 00:00:00 | 00:00:00 | |
| OE3JTB-15 | 2026-09-05 03:44:55 | 48.27504 | 15.86186 | 80° | 117km/h | 5948m | -5.3m/s | -11.3°C | 70.1% | 0hPa | 2.6V | 00:00:00 | 01:56:12 | 00:00:00 | |
| OM5KV | 2026-09-05 03:44:53 | 48.27499 | 15.86143 | 81° | 117km/h | 5953m | -5.0m/s | -11.3°C | 65.5% | 0hPa | 2.6V | 08:09:00 | 00:00:00 | 00:00:00 | |
| OE3MUC-15 | 2026-09-05 03:44:51 | 48.27484 | 15.86011 | 82° | 117km/h | 5969m | -5.4m/s | -10.9°C | 24.1% | 0hPa | 2.6V | 00:00:00 | 00:00:00 | 00:00:00 | |
| PG1ADW-2 | 2026-09-05 03:44:50 | 48.27480 | 15.85967 | 81° | 117km/h | 5974m | -5.2m/s | -10.9°C | 22.2% | 0hPa | 2.6V | 08:08:00 | 00:00:00 | 00:00:00 | |
| OE3MUC-15 | 2026-09-05 03:44:47 | 48.27466 | 15.85835 | 82° | 117km/h | 5991m | -5.5m/s | -10.8°C | 22.2% | 0hPa | 2.6V | 00:00:00 | 00:00:00 | 00:00:00 | |
| OE5DXL-15 | 2026-09-05 03:44:46 | 48.27461 | 15.85792 | 82° | 117km/h | 5996m | -5.3m/s | -10.7°C | 22.7% | 0hPa | 2.6V | 08:08:00 | 00:00:00 | 00:00:00 | |
| OM5KV | 2026-09-05 03:44:45 | 48.27461 | 15.85792 | 82° | 117km/h | 5996m | -5.4m/s | -10.8°C | 22.2% | 0hPa | 2.6V | 08:09:00 | 00:00:00 | 00:00:00 | |
| PETON7-10 | 2026-09-05 03:44:44 | 48.27453 | 15.85704 | 82° | 117km/h | 6006m | -5.1m/s | -10.8°C | 22.6% | 0hPa | 2.6V | 00:00:00 | 01:56:01 | 00:00:00 | |
| OE3MUC-15 | 2026-09-05 03:44:43 | 48.27449 | 15.85660 | 82° | 117km/h | 6012m | -5.3m/s | -10.9°C | 22.8% | 0hPa | 2.6V | 00:00:00 | 00:00:00 | 00:00:00 | |
| OE3MUC-15 | 2026-09-05 03:44:39 | 48.27432 | 15.85485 | 83° | 117km/h | 6032m | -5.1m/s | -11.1°C | 23.1% | 0hPa | 2.6V | 00:00:00 | 00:00:00 | 00:00:00 | |
| OM5KV | 2026-09-05 03:44:38 | 48.27432 | 15.85485 | 84° | 115km/h | 6032m | -5.2m/s | -11.1°C | 22.6% | 0hPa | 2.6V | 08:09:00 | 00:00:00 | 00:00:00 | |
| OE3MUC-15 | 2026-09-05 03:44:35 | 48.27417 | 15.85310 | 83° | 117km/h | 6053m | -5.4m/s | -11.2°C | 23.3% | 0hPa | 2.6V | 00:00:00 | 00:00:00 | 00:00:00 | |
| OM5KV | 2026-09-05 03:44:32 | 48.27409 | 15.85223 | 84° | 117km/h | 6063m | -5.1m/s | -11.4°C | 22.7% | 0hPa | 2.5V | 08:09:00 | 00:00:00 | 00:00:00 | |
| OE3MUC-15 | 2026-09-05 03:44:31 | 48.27403 | 15.85134 | 85° | 119km/h | 6073m | -5.1m/s | -11.4°C | 23.4% | 0hPa | 2.5V | 00:00:00 | 00:00:00 | 00:00:00 | |
| OE3OSB-13 | 2026-09-05 03:44:30 | 48.27396 | 15.85045 | 83° | 119km/h | 6084m | -5.5m/s | -11.6°C | 22.8% | -1.0hPa | 2.5V | 00:00:00 | 00:00:00 | 00:00:00 | |
| PETON7-10 | 2026-09-05 03:44:29 | 48.27396 | 15.85045 | 84° | 119km/h | 6084m | -5.5m/s | -11.5°C | 23.4% | 0hPa | 2.5V | 00:00:00 | 00:00:00 | 00:00:00 | |
| OE3MUC-15 | 2026-09-05 03:44:27 | 48.27389 | 15.84956 | 84° | 117km/h | 6094m | -4.9m/s | -11.6°C | 23.4% | 0hPa | 2.6V | 00:00:00 | 00:00:00 | 00:00:00 | |
| OE3JTB-15 | 2026-09-05 03:44:26 | 48.27386 | 15.84911 | 84° | 119km/h | 6099m | -5.6m/s | -11.7°C | 23.5% | 0hPa | 2.6V | 00:00:00 | 00:00:00 | 00:00:00 | |
| OE3MUC-15 | 2026-09-05 03:44:23 | 48.27376 | 15.84779 | 85° | 119km/h | 6115m | -5.3m/s | -11.8°C | 23.7% | 0hPa | 2.5V | 08:09:00 | 00:00:00 | 00:00:00 | |
| OE3MUC-15 | 2026-09-05 03:44:19 | 48.27364 | 15.84601 | 85° | 119km/h | 6135m | -5.2m/s | -12.0°C | 23.4% | 0hPa | 2.5V | 00:00:00 | 00:00:00 | 00:00:00 | |
| OM5KV | 2026-09-05 03:44:17 | 48.27361 | 15.84556 | 85° | 119km/h | 6141m | -5.4m/s | -12.0°C | 23.1% | 0hPa | 2.5V | 08:10:00 | 00:00:00 | 00:00:00 | |
| OE5DXL-15 | 2026-09-05 03:44:16 | 48.27356 | 15.84467 | 85° | 119km/h | 6151m | -5.4m/s | -12.1°C | 23.9% | 0hPa | 2.5V | 00:00:00 | 00:00:00 | 00:00:00 | |
| OE3MUC-15 | 2026-09-05 03:44:15 | 48.27353 | 15.84422 | 85° | 119km/h | 6156m | -5.3m/s | -12.1°C | 24.2% | 0hPa | 2.5V | 00:00:00 | 00:00:00 | 00:00:00 | |
| PETON7-10 | 2026-09-05 03:44:14 | 48.27350 | 15.84377 | 85° | 119km/h | 6162m | -5.0m/s | -12.1°C | 24.4% | 0hPa | 2.5V | 00:00:00 | 00:00:00 | 00:00:00 | |
| OE5DRO-10 | 2026-09-05 03:44:12 | 48.27345 | 15.84286 | 86° | 119km/h | 6172m | -5.2m/s | -12.2°C | 25.3% | 0hPa | 2.5V | 08:09:00 | 00:00:00 | 00:00:00 | |
| OE3MUC-15 | 2026-09-05 03:44:11 | 48.27342 | 15.84242 | 85° | 119km/h | 6177m | -5.1m/s | -12.2°C | 25.3% | 0hPa | 2.6V | 00:00:00 | 00:00:00 | 00:00:00 | |
| PG1ADW-2 | 2026-09-05 03:44:10 | 48.27339 | 15.84196 | 85° | 119km/h | 6182m | -5.2m/s | -12.3°C | 25.4% | 0hPa | 2.6V | 00:00:00 | 00:00:00 | 00:00:00 | |
| OM5KV | 2026-09-05 03:44:08 | 48.27337 | 15.84151 | 86° | 119km/h | 6187m | -5.0m/s | -12.4°C | 24.8% | 0hPa | 2.6V | 08:10:00 | 00:00:00 | 00:00:00 | |
| OE3MUC-15 | 2026-09-05 03:44:07 | 48.27332 | 15.84061 | 86° | 119km/h | 6198m | -5.4m/s | -12.4°C | 25.5% | 0hPa | 2.6V | 00:00:00 | 00:00:00 | 00:00:00 | |
| OM5KV | 2026-09-05 03:44:06 | 48.27332 | 15.84062 | 86° | 119km/h | 6198m | -5.5m/s | -12.5°C | 24.9% | 0hPa | 2.6V | 08:10:00 | 00:00:00 | 00:00:00 | |
| OE3MUC-15 | 2026-09-05 03:44:03 | 48.27321 | 15.83881 | 85° | 120km/h | 6219m | -4.8m/s | -12.6°C | 25.8% | 0hPa | 2.6V | 00:00:00 | 00:00:00 | 00:00:00 | |
| PETON7-10 | 2026-09-05 03:43:59 | 48.27311 | 15.83701 | 85° | 120km/h | 6239m | -4.8m/s | -12.8°C | 26.3% | 0hPa | 2.6V | 00:00:00 | 01:55:16 | 00:00:00 | |
| S52SK | 2026-09-05 03:43:58 | 48.27311 | 15.83701 | 85° | 119km/h | 6239m | -4.8m/s | -12.9°C | 25.7% | 0hPa | 2.6V | 00:00:00 | 00:00:00 | 00:00:00 | |
| OE3JTB-15 | 2026-09-05 03:43:57 | 48.27306 | 15.83610 | 87° | 120km/h | 6248m | -5.1m/s | -12.9°C | 26.5% | 0hPa | 2.6V | 00:00:00 | 00:00:00 | 00:00:00 | |
| OE3MUC-15 | 2026-09-05 03:43:55 | 48.27301 | 15.83519 | 85° | 120km/h | 6259m | -5.1m/s | -13.0°C | 26.7% | 0hPa | 2.6V | 00:00:00 | 00:00:00 | 00:00:00 | |
| OE5DRO-10 | 2026-09-05 03:43:53 | 48.27295 | 15.83429 | 85° | 120km/h | 6269m | -5.3m/s | -13.1°C | 26.9% | 0hPa | 2.6V | 00:00:00 | 00:00:00 | 00:00:00 | |
| S52SK | 2026-09-05 03:43:52 | 48.27295 | 15.83429 | 86° | 120km/h | 6269m | -5.4m/s | -13.2°C | 26.2% | 0hPa | 2.6V | 00:00:00 | 00:00:00 | 00:00:00 | |
| OE3MUC-15 | 2026-09-05 03:43:51 | 48.27290 | 15.83338 | 85° | 120km/h | 6279m | -5.0m/s | -13.2°C | 27.1% | 0hPa | 2.6V | 00:00:00 | 00:00:00 | 00:00:00 | |
| PG1ADW-2 | 2026-09-05 03:43:50 | 48.27287 | 15.83293 | 85° | 120km/h | 6285m | -5.0m/s | -13.2°C | 27.3% | 0hPa | 2.6V | 00:00:00 | 01:55:07 | 00:00:00 | |
| OE3MUC-15 | 2026-09-05 03:43:47 | 48.27280 | 15.83157 | 86° | 120km/h | 6300m | -5.2m/s | -13.4°C | 27.5% | 0hPa | 2.5V | 08:09:00 | 00:00:00 | 00:00:00 | |
| OE5DXL-15 | 2026-09-05 03:43:46 | 48.27277 | 15.83111 | 85° | 120km/h | 6305m | -5.2m/s | -13.4°C | 27.7% | 0hPa | 2.6V | 00:00:00 | 00:00:00 | 00:00:00 | |
| OM5KV | 2026-09-05 03:43:45 | 48.27277 | 15.83111 | 85° | 119km/h | 6305m | -5.3m/s | -13.5°C | 27.0% | 0hPa | 2.6V | 08:10:00 | 00:00:00 | 00:00:00 | |
| PETON7-10 | 2026-09-05 03:43:44 | 48.27271 | 15.83021 | 85° | 120km/h | 6316m | -5.1m/s | -13.5°C | 28.2% | 0hPa | 2.6V | 00:00:00 | 00:00:00 | 00:00:00 | |
| OM5KV | 2026-09-05 03:43:39 | 48.27260 | 15.82839 | 85° | 119km/h | 6336m | -5.1m/s | -13.8°C | 28.2% | 0hPa | 2.6V | 08:10:00 | 00:00:00 | 00:00:00 | |
| OM5KV | 2026-09-05 03:43:37 | 48.27254 | 15.82748 | 86° | 120km/h | 6347m | -5.0m/s | -13.9°C | 28.4% | 0hPa | 2.6V | 08:10:00 | 00:00:00 | 00:00:00 | |
| OE5DRO-10 | 2026-09-05 03:43:34 | 48.27241 | 15.82566 | 84° | 120km/h | 6367m | -5.1m/s | -14.0°C | 29.7% | 0hPa | 2.6V | 00:00:00 | 00:00:00 | 00:00:00 | |
| OM5KV | 2026-09-05 03:43:31 | 48.27235 | 15.82475 | 85° | 119km/h | 6377m | -5.2m/s | -14.2°C | 29.3% | 0hPa | 2.6V | 08:10:00 | 00:00:00 | 00:00:00 | |
| PG1ADW-2 | 2026-09-05 03:43:30 | 48.27229 | 15.82384 | 84° | 120km/h | 6387m | -5.0m/s | -14.2°C | 30.5% | 0hPa | 2.6V | 00:00:00 | 00:00:00 | 00:00:00 | |
| PETON7-10 | 2026-09-05 03:43:29 | 48.27226 | 15.82339 | 84° | 120km/h | 6392m | -5.1m/s | -14.3°C | 30.8% | 0hPa | 2.6V | 00:00:00 | 00:00:00 | 00:00:00 | |
| OE3JTB-15 | 2026-09-05 03:43:28 | 48.27223 | 15.82293 | 85° | 120km/h | 6397m | -5.0m/s | -14.3°C | 31.0% | 0hPa | 2.6V | 00:00:00 | 01:54:45 | 00:00:00 | |
| OE3OSB-13 | 2026-09-05 03:43:27 | 48.27219 | 15.82248 | 83° | 120km/h | 6402m | -4.9m/s | -14.4°C | 30.4% | -1.0hPa | 2.6V | 00:00:00 | 00:00:00 | 00:00:00 | |
| OM5KV | 2026-09-05 03:43:22 | 48.27205 | 15.82067 | 84° | 119km/h | 6423m | -5.2m/s | -14.6°C | 31.0% | 0hPa | 2.6V | 08:10:00 | 00:00:00 | 00:00:00 | |
| OM5KV | 2026-09-05 03:43:20 | 48.27198 | 15.81976 | 84° | 120km/h | 6433m | -5.2m/s | -14.7°C | 31.2% | 0hPa | 2.6V | 08:10:00 | 00:00:00 | 00:00:00 | |
| OE3MUC-15 | 2026-09-05 03:43:19 | 48.27191 | 15.81886 | 84° | 120km/h | 6443m | -5.1m/s | -14.7°C | 32.3% | 0hPa | 2.6V | 00:00:00 | 00:00:00 | 00:00:00 | |
| OE5DXL-15 | 2026-09-05 03:43:16 | 48.27180 | 15.81751 | 84° | 122km/h | 6458m | -5.4m/s | -14.9°C | 32.6% | 0hPa | 2.6V | 00:00:00 | 00:00:00 | 00:00:00 | |
| OE3MUC-15 | 2026-09-05 03:43:15 | 48.27176 | 15.81706 | 83° | 120km/h | 6464m | -5.2m/s | -14.9°C | 32.7% | 0hPa | 2.6V | 00:00:00 | 00:00:00 | 00:00:00 | |
| PETON7-10 | 2026-09-05 03:43:14 | 48.27173 | 15.81661 | 84° | 120km/h | 6469m | -5.0m/s | -15.0°C | 32.9% | 0hPa | 2.6V | 00:00:00 | 01:54:31 | 00:00:00 | |
| OE3MUC-15 | 2026-09-05 03:43:11 | 48.27161 | 15.81525 | 84° | 120km/h | 6484m | -4.8m/s | -15.1°C | 33.8% | 0hPa | 2.6V | 08:10:00 | 00:00:00 | 00:00:00 | |
| PG1ADW-2 | 2026-09-05 03:43:10 | 48.27158 | 15.81480 | 83° | 122km/h | 6489m | -4.9m/s | -15.2°C | 34.2% | 0hPa | 2.6V | 00:00:00 | 00:00:00 | 00:00:00 | |
| OE3MUC-15 | 2026-09-05 03:43:07 | 48.27146 | 15.81343 | 83° | 122km/h | 6504m | -4.9m/s | -15.3°C | 35.0% | 0hPa | 2.6V | 00:00:00 | 00:00:00 | 00:00:00 | |
| OE3MUC-15 | 2026-09-05 03:43:03 | 48.27129 | 15.81160 | 82° | 122km/h | 6523m | -4.9m/s | -15.5°C | 35.8% | 0hPa | 2.6V | 00:00:00 | 00:00:00 | 00:00:00 | |
| OM5KV | 2026-09-05 03:43:02 | 48.27129 | 15.81160 | 83° | 124km/h | 6523m | -5.0m/s | -15.5°C | 34.9% | 0hPa | 2.6V | 08:10:00 | 00:00:00 | 00:00:00 | |
| OE3MUC-15 | 2026-09-05 03:42:59 | 48.27112 | 15.80977 | 82° | 122km/h | 6543m | -5.3m/s | -15.6°C | 37.8% | 0hPa | 2.6V | 00:00:00 | 00:00:00 | 00:00:00 | |
| OM5KV | 2026-09-05 03:42:58 | 48.27112 | 15.80977 | 82° | 122km/h | 6543m | -5.3m/s | -15.7°C | 36.8% | 0hPa | 2.5V | 08:10:00 | 00:00:00 | 00:00:00 | |
| OE5DRO-10 | 2026-09-05 03:42:56 | 48.27098 | 15.80839 | 83° | 122km/h | 6559m | -5.1m/s | -15.8°C | 38.4% | 0hPa | 2.5V | 00:00:00 | 00:00:00 | 00:00:00 | |
| OE3MUC-15 | 2026-09-05 03:42:55 | 48.27094 | 15.80793 | 82° | 122km/h | 6565m | -5.5m/s | -15.8°C | 38.4% | 0hPa | 2.5V | 00:00:00 | 00:00:00 | 00:00:00 | |
| OE3MUC-15 | 2026-09-05 03:42:51 | 48.27076 | 15.80609 | 82° | 122km/h | 6586m | -5.0m/s | -16.0°C | 39.1% | 0hPa | 2.5V | 00:00:00 | 00:00:00 | 00:00:00 | |
| PG1ADW-2 | 2026-09-05 03:42:50 | 48.27071 | 15.80563 | 81° | 124km/h | 6591m | -5.3m/s | -16.1°C | 39.6% | 0hPa | 2.5V | 00:00:00 | 00:00:00 | 00:00:00 | |
| OE3MUC-15 | 2026-09-05 03:42:47 | 48.27057 | 15.80425 | 82° | 124km/h | 6607m | -5.0m/s | -16.1°C | 42.3% | 0hPa | 2.6V | 00:00:00 | 00:00:00 | 00:00:00 | |
| OE5DXL-15 | 2026-09-05 03:42:46 | 48.27052 | 15.80378 | 81° | 124km/h | 6612m | -5.1m/s | -16.1°C | 42.3% | 0hPa | 2.6V | 00:00:00 | 00:00:00 | 00:00:00 | |
| PETON7-10 | 2026-09-05 03:42:44 | 48.27042 | 15.80286 | 81° | 124km/h | 6622m | -5.3m/s | -16.2°C | 43.1% | 0hPa | 2.6V | 00:00:00 | 00:00:00 | 00:00:00 | |
| OE3MUC-15 | 2026-09-05 03:42:43 | 48.27037 | 15.80240 | 81° | 124km/h | 6628m | -5.5m/s | -16.2°C | 43.9% | 0hPa | 2.6V | 00:00:00 | 00:00:00 | 00:00:00 | |
| OM5KV | 2026-09-05 03:42:41 | 48.27032 | 15.80194 | 82° | 124km/h | 6633m | -5.2m/s | -16.3°C | 43.1% | 0hPa | 2.6V | 08:10:00 | 00:00:00 | 00:00:00 | |
| S52SK | 2026-09-05 03:42:38 | 48.27011 | 15.80008 | 82° | 122km/h | 6654m | -5.3m/s | -16.5°C | 44.2% | 0hPa | 2.6V | 08:10:00 | 00:00:00 | 00:00:00 | |
| OE5DRO-10 | 2026-09-05 03:42:37 | 48.27006 | 15.79962 | 81° | 124km/h | 6659m | -4.9m/s | -16.5°C | 45.6% | 0hPa | 2.6V | 00:00:00 | 00:00:00 | 00:00:00 | |
| OE3MUC-15 | 2026-09-05 03:42:35 | 48.26997 | 15.79869 | 81° | 124km/h | 6669m | -5.4m/s | -16.6°C | 46.7% | 0hPa | 2.6V | 08:11:00 | 00:00:00 | 00:00:00 | |
| OE3MUC-15 | 2026-09-05 03:42:31 | 48.26977 | 15.79682 | 81° | 124km/h | 6691m | -5.4m/s | -16.7°C | 58.8% | 0hPa | 2.6V | 00:00:00 | 00:00:00 | 00:00:00 | |
| OE3JTB-15 | 2026-09-05 03:42:30 | 48.26972 | 15.79636 | 82° | 126km/h | 6696m | -5.2m/s | -16.7°C | 64.4% | 0hPa | 2.6V | 00:00:00 | 00:00:00 | 00:00:00 | |
| PETON7-10 | 2026-09-05 03:42:29 | 48.26967 | 15.79588 | 82° | 126km/h | 6701m | -5.3m/s | -16.8°C | 65.0% | 0hPa | 2.6V | 00:00:00 | 01:53:46 | 00:00:00 | |
| OE3MUC-15 | 2026-09-05 03:42:27 | 48.26957 | 15.79495 | 83° | 126km/h | 6712m | -5.2m/s | -16.8°C | 69.8% | 0hPa | 2.6V | 00:00:00 | 00:00:00 | 00:00:00 | |
| OE3OSB-13 | 2026-09-05 03:42:25 | 48.26948 | 15.79401 | 80° | 124km/h | 6722m | -5.5m/s | -16.9°C | 63.6% | -1.0hPa | 2.6V | 00:00:00 | 00:00:00 | 00:00:00 | |
| OM5KV | 2026-09-05 03:42:24 | 48.26948 | 15.79401 | 82° | 126km/h | 6723m | -5.5m/s | -16.9°C | 63.6% | 0hPa | 2.6V | 08:11:00 | 00:00:00 | 00:00:00 | |
| OE3MUC-15 | 2026-09-05 03:42:23 | 48.26938 | 15.79307 | 82° | 124km/h | 6734m | -5.6m/s | -17.0°C | 68.4% | 0hPa | 2.6V | 00:00:00 | 00:00:00 | 00:00:00 | |
| OE3MUC-15 | 2026-09-05 03:42:19 | 48.26918 | 15.79119 | 81° | 126km/h | 6756m | -5.5m/s | -17.2°C | 65.2% | 0hPa | 2.6V | 00:00:00 | 00:00:00 | 00:00:00 | |
| OE5DRO-10 | 2026-09-05 03:42:18 | 48.26913 | 15.79073 | 82° | 126km/h | 6761m | -5.7m/s | -17.3°C | 67.8% | 0hPa | 2.6V | 00:00:00 | 00:00:00 | 00:00:00 | |
| OM5KV | 2026-09-05 03:42:17 | 48.26913 | 15.79073 | 82° | 126km/h | 6761m | -5.7m/s | -17.3°C | 66.3% | 0hPa | 2.5V | 08:11:00 | 00:00:00 | 00:00:00 | |
| OE5DXL-15 | 2026-09-05 03:42:16 | 48.26903 | 15.78979 | 81° | 126km/h | 6773m | -5.5m/s | -17.4°C | 69.5% | 0hPa | 2.5V | 00:00:00 | 00:00:00 | 00:00:00 | |
| OE3MUC-15 | 2026-09-05 03:42:15 | 48.26897 | 15.78931 | 80° | 126km/h | 6778m | -5.6m/s | -17.4°C | 68.6% | 0hPa | 2.5V | 00:00:00 | 00:00:00 | 00:00:00 | |
| PETON7-10 | 2026-09-05 03:42:14 | 48.26892 | 15.78884 | 81° | 126km/h | 6784m | -5.7m/s | -17.5°C | 67.6% | 0hPa | 2.5V | 00:00:00 | 00:00:00 | 00:00:00 | |
| OM5KV | 2026-09-05 03:42:12 | 48.26886 | 15.78837 | 81° | 124km/h | 6789m | -5.4m/s | -17.6°C | 60.2% | 0hPa | 2.6V | 08:11:00 | 00:00:00 | 00:00:00 | |
| OE3MUC-15 | 2026-09-05 03:42:11 | 48.26875 | 15.78743 | 81° | 126km/h | 6800m | -5.3m/s | -17.5°C | 49.8% | 0hPa | 2.6V | 00:00:00 | 00:00:00 | 00:00:00 | |
| PG1ADW-2 | 2026-09-05 03:42:10 | 48.26870 | 15.78696 | 81° | 126km/h | 6806m | -5.4m/s | -17.6°C | 50.7% | 0hPa | 2.6V | 00:00:00 | 00:00:00 | 00:00:00 | |
| OE3MUC-15 | 2026-09-05 03:42:07 | 48.26855 | 15.78555 | 81° | 126km/h | 6823m | -5.6m/s | -17.7°C | 52.5% | 0hPa | 2.6V | 00:00:00 | 00:00:00 | 00:00:00 | |
| OM5KV | 2026-09-05 03:42:05 | 48.26850 | 15.78508 | 81° | 124km/h | 6828m | -5.4m/s | -17.8°C | 52.5% | 0hPa | 2.6V | 08:11:00 | 00:00:00 | 00:00:00 | |
| OE3MUC-15 | 2026-09-05 03:42:03 | 48.26834 | 15.78367 | 81° | 126km/h | 6845m | -5.8m/s | -17.9°C | 63.8% | 0hPa | 2.6V | 00:00:00 | 00:00:00 | 00:00:00 | |
| OE3JTB-15 | 2026-09-05 03:42:01 | 48.26824 | 15.78273 | 80° | 126km/h | 6856m | -5.4m/s | -17.9°C | 68.7% | 0hPa | 2.6V | 00:00:00 | 01:53:18 | 00:00:00 | |
| PETON7-10 | 2026-09-05 03:41:59 | 48.26813 | 15.78179 | 79° | 126km/h | 6867m | -5.4m/s | -18.0°C | 70.2% | 0hPa | 2.6V | 00:00:00 | 00:00:00 | 00:00:00 | |
| OM5KV | 2026-09-05 03:41:58 | 48.26813 | 15.78179 | 80° | 128km/h | 6867m | -5.4m/s | -18.0°C | 68.6% | 0hPa | 2.6V | 08:11:00 | 00:00:00 | 00:00:00 | |
| OE3MUC-15 | 2026-09-05 03:41:54 | 48.26783 | 15.77944 | 80° | 126km/h | 6894m | -5.3m/s | -18.2°C | 71.2% | 0hPa | 2.6V | 00:00:00 | 00:00:00 | 00:00:00 | |
| OM5KV | 2026-09-05 03:41:53 | 48.26783 | 15.77944 | 80° | 126km/h | 6894m | -5.3m/s | -18.3°C | 69.7% | 0hPa | 2.6V | 08:11:00 | 00:00:00 | 00:00:00 | |
| PG1ADW-2 | 2026-09-05 03:41:50 | 48.26759 | 15.77755 | 81° | 126km/h | 6916m | -5.5m/s | -18.4°C | 70.9% | 0hPa | 2.6V | 08:11:00 | 00:00:00 | 00:00:00 | |
| OE5DXL-15 | 2026-09-05 03:41:46 | 48.26736 | 15.77567 | 79° | 128km/h | 6938m | -5.3m/s | -18.6°C | 74.7% | 0hPa | 2.6V | 00:00:00 | 00:00:00 | 00:00:00 | |
| PETON7-10 | 2026-09-05 03:41:44 | 48.26724 | 15.77473 | 79° | 128km/h | 6948m | -5.3m/s | -18.7°C | 76.4% | 0hPa | 2.5V | 00:00:00 | 01:53:01 | 00:00:00 | |
| OM5KV | 2026-09-05 03:41:42 | 48.26718 | 15.77427 | 80° | 128km/h | 6953m | -5.2m/s | -18.8°C | 74.8% | 0hPa | 2.5V | 08:12:00 | 00:00:00 | 00:00:00 | |
| OE5DRO-10 | 2026-09-05 03:41:40 | 48.26700 | 15.77285 | 80° | 128km/h | 6969m | -5.2m/s | -18.9°C | 76.1% | 0hPa | 2.5V | 00:00:00 | 00:00:00 | 00:00:00 | |
| OE3JTB-15 | 2026-09-05 03:41:32 | 48.26655 | 15.76906 | 80° | 128km/h | 7012m | -5.2m/s | -19.3°C | 80.6% | 0hPa | 2.5V | 08:12:00 | 00:00:00 | 00:00:00 | |
| PG1ADW-2 | 2026-09-05 03:41:30 | 48.26644 | 15.76811 | 81° | 128km/h | 7022m | -5.3m/s | -19.3°C | 77.9% | 0hPa | 2.5V | 00:00:00 | 00:00:00 | 00:00:00 | |
| PETON7-10 | 2026-09-05 03:41:29 | 48.26638 | 15.76764 | 82° | 128km/h | 7027m | -5.2m/s | -19.4°C | 79.0% | 0hPa | 2.5V | 00:00:00 | 00:00:00 | 00:00:00 | |
| S52SK | 2026-09-05 03:41:24 | 48.26617 | 15.76574 | 81° | 130km/h | 7049m | -5.8m/s | -19.6°C | 78.9% | 0hPa | 2.5V | 00:00:00 | 00:00:00 | 00:00:00 | |
| OE3OSB-13 | 2026-09-05 03:41:23 | 48.26601 | 15.76430 | 80° | 130km/h | 7065m | -5.9m/s | -19.6°C | 82.3% | -1.0hPa | 2.5V | 00:00:00 | 00:00:00 | 00:00:00 | |
| OE5DRO-10 | 2026-09-05 03:41:21 | 48.26595 | 15.76381 | 81° | 126km/h | 7071m | -5.9m/s | -19.6°C | 84.7% | 0hPa | 2.5V | 08:12:00 | 00:00:00 | 00:00:00 | |
| OE3MUC-15 | 2026-09-05 03:41:19 | 48.26584 | 15.76285 | 81° | 128km/h | 7083m | -6.0m/s | -19.6°C | 83.5% | 0hPa | 2.6V | 00:00:00 | 00:00:00 | 00:00:00 | |
| OM5KV | 2026-09-05 03:41:17 | 48.26579 | 15.76237 | 82° | 126km/h | 7089m | -5.9m/s | -19.7°C | 81.0% | 0hPa | 2.6V | 08:12:00 | 00:00:00 | 00:00:00 | |
| OE5DXL-15 | 2026-09-05 03:41:16 | 48.26569 | 15.76142 | 80° | 126km/h | 7100m | -5.6m/s | -19.7°C | 75.5% | 0hPa | 2.6V | 00:00:00 | 00:00:00 | 00:00:00 | |
| OE3MUC-15 | 2026-09-05 03:41:15 | 48.26563 | 15.76095 | 81° | 128km/h | 7106m | -5.7m/s | -19.8°C | 68.8% | 0hPa | 2.6V | 08:12:00 | 00:00:00 | 00:00:00 | |
| PETON7-10 | 2026-09-05 03:41:14 | 48.26558 | 15.76047 | 81° | 126km/h | 7112m | -6.0m/s | -19.8°C | 66.3% | 0hPa | 2.6V | 00:00:00 | 00:00:00 | 00:00:00 | |
| OE3MUC-15 | 2026-09-05 03:41:11 | 48.26543 | 15.75905 | 81° | 126km/h | 7129m | -6.0m/s | -19.9°C | 62.8% | 0hPa | 2.6V | 00:00:00 | 00:00:00 | 00:00:00 | |
| PG1ADW-2 | 2026-09-05 03:41:10 | 48.26538 | 15.75858 | 82° | 126km/h | 7135m | -5.8m/s | -19.9°C | 62.8% | 0hPa | 2.6V | 00:00:00 | 01:52:27 | 00:00:00 | |
| OE3MUC-15 | 2026-09-05 03:41:07 | 48.26523 | 15.75716 | 81° | 126km/h | 7153m | -5.9m/s | -20.1°C | 70.2% | 0hPa | 2.6V | 00:00:00 | 00:00:00 | 00:00:00 | |
| OE3MUC-15 | 2026-09-05 03:41:03 | 48.26503 | 15.75527 | 81° | 126km/h | 7177m | -5.9m/s | -20.3°C | 87.6% | 0hPa | 2.6V | 00:00:00 | 00:00:00 | 00:00:00 | |
| OE5DRO-10 | 2026-09-05 03:41:02 | 48.26498 | 15.75480 | 82° | 124km/h | 7183m | -6.1m/s | -20.3°C | 87.7% | 0hPa | 2.6V | 00:00:00 | 00:00:00 | 00:00:00 | |
| OE3OSB-13 | 2026-09-05 03:40:52 | 48.26447 | 15.74967 | 80° | 124km/h | 7249m | -6.1m/s | -20.6°C | 57.4% | -1.0hPa | 2.6V | 00:00:00 | 00:00:00 | 00:00:00 | |
| OE3MUC-15 | 2026-09-05 03:40:51 | 48.26447 | 15.74983 | 81° | 124km/h | 7249m | -6.1m/s | -20.6°C | 59.0% | 0hPa | 2.6V | 00:00:00 | 00:00:00 | 00:00:00 | |
| PG1ADW-2 | 2026-09-05 03:40:50 | 48.26441 | 15.74920 | 81° | 122km/h | 7255m | -6.1m/s | -20.6°C | 57.4% | 0hPa | 2.5V | 00:00:00 | 00:00:00 | 00:00:00 | |
| OE3MUC-15 | 2026-09-05 03:40:47 | 48.26426 | 15.74782 | 80° | 122km/h | 7273m | -6.2m/s | -20.7°C | 56.7% | 0hPa | 2.6V | 00:00:00 | 00:00:00 | 00:00:00 | |
| OE5DXL-15 | 2026-09-05 03:40:46 | 48.26421 | 15.74736 | 81° | 124km/h | 7280m | -6.1m/s | -20.8°C | 55.9% | 0hPa | 2.6V | 00:00:00 | 00:00:00 | 00:00:00 | |
| PETON7-10 | 2026-09-05 03:40:44 | 48.26411 | 15.74644 | 81° | 122km/h | 7292m | -5.8m/s | -20.9°C | 54.9% | 0hPa | 2.6V | 08:12:00 | 00:00:00 | 00:00:00 | |
| OE3MUC-15 | 2026-09-05 03:40:43 | 48.26406 | 15.74598 | 81° | 122km/h | 7298m | -6.2m/s | -20.9°C | 54.5% | 0hPa | 2.6V | 00:00:00 | 00:00:00 | 00:00:00 | |
| OM5KV | 2026-09-05 03:40:42 | 48.26406 | 15.74598 | 81° | 122km/h | 7298m | -6.3m/s | -21.0°C | 52.9% | 0hPa | 2.6V | 08:13:00 | 00:00:00 | 00:00:00 | |
| OM5KV | 2026-09-05 03:40:41 | 48.26401 | 15.74553 | 81° | 122km/h | 7304m | -6.1m/s | -21.0°C | 52.7% | 0hPa | 2.6V | 08:13:00 | 00:00:00 | 00:00:00 | |
| OE3MUC-15 | 2026-09-05 03:40:39 | 48.26385 | 15.74416 | 81° | 122km/h | 7322m | -5.9m/s | -21.1°C | 57.1% | 0hPa | 2.6V | 08:12:00 | 00:00:00 | 00:00:00 | |
| OE3MUC-15 | 2026-09-05 03:40:35 | 48.26363 | 15.74232 | 80° | 124km/h | 7347m | -5.9m/s | -21.3°C | 68.6% | 0hPa | 2.6V | 00:00:00 | 00:00:00 | 00:00:00 | |
| OE3JTB-15 | 2026-09-05 03:40:34 | 48.26358 | 15.74186 | 80° | 124km/h | 7353m | -5.9m/s | -21.3°C | 68.5% | 0hPa | 2.6V | 00:00:00 | 01:51:51 | 00:00:00 | |
| OE5MMP-10 | 2026-09-05 03:40:33 | 48.26352 | 15.74140 | 80° | 124km/h | 7359m | -5.9m/s | -21.3°C | 69.2% | 0hPa | 2.6V | 00:00:00 | 01:51:50 | 00:00:00 | |
| OE3MUC-15 | 2026-09-05 03:40:31 | 48.26340 | 15.74047 | 80° | 124km/h | 7371m | -5.7m/s | -21.4°C | 69.5% | 0hPa | 2.6V | 00:00:00 | 00:00:00 | 00:00:00 | |
| PG1ADW-2 | 2026-09-05 03:40:30 | 48.26335 | 15.74001 | 80° | 124km/h | 7377m | -5.8m/s | -21.5°C | 69.4% | 0hPa | 2.6V | 00:00:00 | 00:00:00 | 00:00:00 | |
| OM5KV | 2026-09-05 03:40:29 | 48.26335 | 15.74001 | 80° | 126km/h | 7377m | -5.9m/s | -21.5°C | 67.6% | 0hPa | 2.6V | 08:13:00 | 00:00:00 | 00:00:00 | |
| OE3MUC-15 | 2026-09-05 03:40:27 | 48.26317 | 15.73862 | 80° | 124km/h | 7395m | -6.1m/s | -21.6°C | 70.1% | 0hPa | 2.6V | 00:00:00 | 00:00:00 | 00:00:00 | |
| OE5DRO-10 | 2026-09-05 03:40:24 | 48.26301 | 15.73723 | 82° | 124km/h | 7413m | -5.7m/s | -21.7°C | 68.6% | 0hPa | 2.5V | 00:00:00 | 00:00:00 | 00:00:00 | |
| OE3MUC-15 | 2026-09-05 03:40:23 | 48.26296 | 15.73677 | 81° | 124km/h | 7419m | -5.5m/s | -21.6°C | 66.4% | 0hPa | 2.5V | 00:00:00 | 00:00:00 | 00:00:00 | |
| OE3OSB-13 | 2026-09-05 03:40:21 | 48.26280 | 15.73537 | 79° | 122km/h | 7436m | -5.9m/s | -21.7°C | 56.4% | -1.0hPa | 2.5V | 00:00:00 | 00:00:00 | 00:00:00 | |
| OE3MUC-15 | 2026-09-05 03:40:19 | 48.26274 | 15.73491 | 80° | 124km/h | 7442m | -5.6m/s | -21.7°C | 57.4% | 0hPa | 2.5V | 00:00:00 | 00:00:00 | 00:00:00 | |
| OM5KV | 2026-09-05 03:40:18 | 48.26274 | 15.73491 | 81° | 126km/h | 7442m | -5.7m/s | -21.7°C | 55.7% | 0hPa | 2.5V | 08:13:00 | 00:00:00 | 00:00:00 | |
| OE5DXL-15 | 2026-09-05 03:40:16 | 48.26258 | 15.73351 | 81° | 124km/h | 7459m | -5.8m/s | -21.8°C | 53.5% | 0hPa | 2.5V | 08:13:00 | 00:00:00 | 00:00:00 | |
| PETON7-10 | 2026-09-05 03:40:14 | 48.26248 | 15.73258 | 81° | 124km/h | 7471m | -5.6m/s | -21.8°C | 45.7% | 0hPa | 2.6V | 00:00:00 | 01:51:31 | 00:00:00 | |
| OE5MMP-10 | 2026-09-05 03:40:13 | 48.26243 | 15.73211 | 82° | 124km/h | 7477m | -5.7m/s | -21.8°C | 42.2% | 0hPa | 2.6V | 00:00:00 | 01:51:30 | 00:00:00 | |
| OE3MUC-15 | 2026-09-05 03:40:11 | 48.26232 | 15.73118 | 81° | 124km/h | 7489m | -5.7m/s | -21.9°C | 34.6% | 0hPa | 2.6V | 00:00:00 | 00:00:00 | 00:00:00 | |
| PG1ADW-2 | 2026-09-05 03:40:10 | 48.26227 | 15.73071 | 82° | 122km/h | 7494m | -5.6m/s | -21.9°C | 28.0% | 0hPa | 2.6V | 00:00:00 | 00:00:00 | 00:00:00 | |
| S52SK | 2026-09-05 03:40:09 | 48.26227 | 15.73071 | 83° | 124km/h | 7494m | -5.6m/s | -21.9°C | 26.8% | 0hPa | 2.6V | 08:13:00 | 00:00:00 | 00:00:00 | |
| OE3MUC-15 | 2026-09-05 03:40:07 | 48.26212 | 15.72933 | 81° | 124km/h | 7512m | -5.9m/s | -21.9°C | 19.4% | 0hPa | 2.6V | 00:00:00 | 00:00:00 | 00:00:00 | |
| OE3JTB-15 | 2026-09-05 03:40:05 | 48.26203 | 15.72840 | 81° | 124km/h | 7524m | -5.7m/s | -22.0°C | 18.8% | 0hPa | 2.6V | 00:00:00 | 00:00:00 | 00:00:00 | |
| OE3MUC-15 | 2026-09-05 03:40:03 | 48.26192 | 15.72748 | 81° | 122km/h | 7535m | -5.7m/s | -22.1°C | 18.5% | 0hPa | 2.5V | 08:13:00 | 00:00:00 | 00:00:00 | |
| OM5KV | 2026-09-05 03:40:02 | 48.26192 | 15.72748 | 82° | 124km/h | 7535m | -5.7m/s | -22.2°C | 17.5% | 0hPa | 2.6V | 08:14:00 | 00:00:00 | 00:00:00 | |
| OM5KV | 2026-09-05 03:40:01 | 48.26188 | 15.72702 | 83° | 122km/h | 7541m | -5.5m/s | -22.2°C | 17.1% | 0hPa | 2.6V | 08:14:00 | 00:00:00 | 00:00:00 | |
| PETON7-10 | 2026-09-05 03:39:59 | 48.26173 | 15.72564 | 82° | 124km/h | 7558m | -5.8m/s | -22.2°C | 17.3% | 0hPa | 2.6V | 00:00:00 | 00:00:00 | 00:00:00 | |
| OE3MUC-15 | 2026-09-05 03:39:55 | 48.26154 | 15.72380 | 83° | 122km/h | 7582m | -5.8m/s | -22.5°C | 17.2% | 0hPa | 2.5V | 00:00:00 | 00:00:00 | 00:00:00 | |
| OE5MMP-10 | 2026-09-05 03:39:53 | 48.26145 | 15.72288 | 82° | 124km/h | 7593m | -5.8m/s | -22.6°C | 17.3% | 0hPa | 2.5V | 00:00:00 | 01:51:10 | 00:00:00 | |
| OE3MUC-15 | 2026-09-05 03:39:51 | 48.26136 | 15.72195 | 83° | 124km/h | 7606m | -5.8m/s | -22.7°C | 17.3% | 0hPa | 2.5V | 00:00:00 | 00:00:00 | 00:00:00 | |
| PG1ADW-2 | 2026-09-05 03:39:50 | 48.26132 | 15.72149 | 82° | 124km/h | 7612m | -6.0m/s | -22.7°C | 17.3% | 0hPa | 2.5V | 00:00:00 | 01:51:07 | 00:00:00 | |
| OE3MUC-15 | 2026-09-05 03:39:47 | 48.26118 | 15.72009 | 82° | 124km/h | 7630m | -5.8m/s | -22.9°C | 17.1% | 0hPa | 2.5V | 00:00:00 | 00:00:00 | 00:00:00 | |
| OE5DXL-15 | 2026-09-05 03:39:46 | 48.26114 | 15.71962 | 82° | 124km/h | 7636m | -5.8m/s | -22.9°C | 17.0% | 0hPa | 2.5V | 00:00:00 | 00:00:00 | 00:00:00 | |
| OE5WHR-10 | 2026-09-05 03:39:45 | 48.26109 | 15.71914 | 83° | 124km/h | 7643m | -5.5m/s | -23.0°C | 16.9% | 0hPa | 2.5V | 00:00:00 | 00:00:00 | 00:00:00 | |
| PETON7-10 | 2026-09-05 03:39:44 | 48.26105 | 15.71868 | 83° | 124km/h | 7648m | -5.5m/s | -23.0°C | 16.9% | 0hPa | 2.5V | 00:00:00 | 00:00:00 | 00:00:00 | |
| OE3MUC-15 | 2026-09-05 03:39:43 | 48.26101 | 15.71821 | 82° | 122km/h | 7654m | -5.6m/s | -23.0°C | 16.8% | 0hPa | 2.5V | 00:00:00 | 00:00:00 | 00:00:00 | |
| OM5KV | 2026-09-05 03:39:39 | 48.26086 | 15.71682 | 82° | 122km/h | 7672m | -6.6m/s | -23.2°C | 16.2% | 0hPa | 2.5V | 08:14:00 | 00:00:00 | 00:00:00 | |
| OE3JTB-15 | 2026-09-05 03:39:36 | 48.26067 | 15.71498 | 82° | 124km/h | 7696m | -4.9m/s | -23.4°C | 17.9% | 0hPa | 2.5V | 00:00:00 | 00:00:00 | 00:00:00 | |
| OE5MMP-10 | 2026-09-05 03:39:33 | 48.26055 | 15.71359 | 84° | 124km/h | 7714m | -6.1m/s | -23.6°C | 18.2% | 0hPa | 2.5V | 08:14:00 | 01:50:50 | 00:00:00 | |
| PG1ADW-2 | 2026-09-05 03:39:30 | 48.26043 | 15.71217 | 83° | 124km/h | 7732m | -5.9m/s | -23.7°C | 18.6% | 0hPa | 2.6V | 00:00:00 | 00:00:00 | 00:00:00 | |
| PETON7-10 | 2026-09-05 03:39:29 | 48.26038 | 15.71170 | 82° | 124km/h | 7738m | -5.7m/s | -23.8°C | 18.7% | 0hPa | 2.6V | 00:00:00 | 01:50:46 | 00:00:00 | |
| OM5KV | 2026-09-05 03:39:28 | 48.26038 | 15.71170 | 83° | 126km/h | 7738m | -5.8m/s | -23.8°C | 17.7% | 0hPa | 2.6V | 08:14:00 | 00:00:00 | 00:00:00 | |
| OE5DRO-10 | 2026-09-05 03:39:27 | 48.26030 | 15.71077 | 84° | 124km/h | 7750m | -5.8m/s | -23.9°C | 18.9% | 0hPa | 2.6V | 00:00:00 | 00:00:00 | 00:00:00 | |
| OE5MMP-10 | 2026-09-05 03:39:23 | 48.26012 | 15.70890 | 82° | 124km/h | 7785m | -11.9m/s | -24.1°C | 18.2% | 0hPa | 2.5V | 00:00:00 | 01:50:40 | 00:00:00 | |
| OE3MUC-15 | 2026-09-05 03:39:19 | 48.25995 | 15.70703 | 83° | 124km/h | 7833m | -11.0m/s | -24.4°C | 17.3% | 0hPa | 2.5V | 00:00:00 | 00:00:00 | 00:00:00 | |
| OE5DXL-15 | 2026-09-05 03:39:16 | 48.25982 | 15.70562 | 82° | 122km/h | 7868m | -12.0m/s | -24.5°C | 16.7% | 0hPa | 2.5V | 00:00:00 | 00:00:00 | 00:00:00 | |
| OE3MUC-15 | 2026-09-05 03:39:15 | 48.25977 | 15.70515 | 82° | 124km/h | 7881m | -12.0m/s | -24.7°C | 16.7% | 0hPa | 2.5V | 00:00:00 | 00:00:00 | 00:00:00 | |
| PETON7-10 | 2026-09-05 03:39:14 | 48.25973 | 15.70469 | 82° | 122km/h | 7893m | -12.9m/s | -24.7°C | 16.6% | 0hPa | 2.5V | 00:00:00 | 00:00:00 | 00:00:00 | |
| OE5MMP-10 | 2026-09-05 03:39:13 | 48.25968 | 15.70422 | 82° | 122km/h | 7906m | -12.3m/s | -24.8°C | 16.5% | 0hPa | 2.6V | 00:00:00 | 01:50:30 | 00:00:00 | |
| OE3MUC-15 | 2026-09-05 03:39:11 | 48.25959 | 15.70330 | 82° | 122km/h | 7931m | -12.2m/s | -25.0°C | 16.8% | 0hPa | 2.6V | 00:00:00 | 00:00:00 | 00:00:00 | |
| OE5DRO-10 | 2026-09-05 03:39:08 | 48.25945 | 15.70192 | 82° | 124km/h | 7968m | -12.4m/s | -25.2°C | 16.4% | 0hPa | 2.6V | 00:00:00 | 00:00:00 | 00:00:00 | |
| OE3MUC-15 | 2026-09-05 03:39:07 | 48.25941 | 15.70145 | 82° | 122km/h | 7981m | -12.4m/s | -25.3°C | 16.1% | 0hPa | 2.6V | 00:00:00 | 00:00:00 | 00:00:00 | |
| DO3MHA-12 | 2026-09-05 03:39:03 | 48.25924 | 15.69961 | 83° | 124km/h | 8031m | -12.9m/s | -25.6°C | 13.7% | 0hPa | 2.6V | 00:00:00 | 01:50:20 | 00:00:00 | |
| OE3OSB-13 | 2026-09-05 03:38:48 | 48.25849 | 15.69220 | 80° | 122km/h | 8240m | -12.9m/s | -27.4°C | 20.5% | -1.0hPa | 2.6V | 00:00:00 | 00:00:00 | 00:00:00 | |
| PG1ADW-2 | 2026-09-05 03:38:47 | 48.25849 | 15.69220 | 81° | 124km/h | 8240m | -12.9m/s | -27.3°C | 22.0% | 0hPa | 2.6V | 08:14:00 | 00:00:00 | 00:00:00 | |
| OE5DXL-15 | 2026-09-05 03:38:46 | 48.25844 | 15.69174 | 81° | 126km/h | 8253m | -12.7m/s | -27.4°C | 22.4% | 0hPa | 2.6V | 00:00:00 | 00:00:00 | 00:00:00 | |
| PETON7-10 | 2026-09-05 03:38:44 | 48.25834 | 15.69082 | 81° | 124km/h | 8278m | -12.8m/s | -27.7°C | 23.0% | 0hPa | 2.5V | 00:00:00 | 01:50:01 | 00:00:00 | |
| OE3MUC-15 | 2026-09-05 03:38:43 | 48.25829 | 15.69036 | 81° | 124km/h | 8291m | -12.8m/s | -27.8°C | 23.5% | 0hPa | 2.5V | 00:00:00 | 00:00:00 | 00:00:00 | |
| OE3MUC-15 | 2026-09-05 03:38:39 | 48.25810 | 15.68849 | 83° | 124km/h | 8344m | -13.2m/s | -28.3°C | 25.5% | 0hPa | 2.5V | 00:00:00 | 00:00:00 | 00:00:00 | |
| OE3JTB-15 | 2026-09-05 03:38:38 | 48.25806 | 15.68803 | 82° | 126km/h | 8358m | -14.0m/s | -28.4°C | 28.9% | 0hPa | 2.5V | 00:00:00 | 00:00:00 | 00:00:00 | |
| OE3MUC-15 | 2026-09-05 03:38:35 | 48.25793 | 15.68664 | 82° | 124km/h | 8397m | -13.4m/s | -28.7°C | 33.1% | 0hPa | 2.6V | 00:00:00 | 00:00:00 | 00:00:00 | |
| OE5MMP-10 | 2026-09-05 03:38:33 | 48.25784 | 15.68571 | 83° | 126km/h | 8424m | -13.8m/s | -29.0°C | 32.9% | 0hPa | 2.6V | 00:00:00 | 01:49:50 | 00:00:00 | |
| OM5KV | 2026-09-05 03:38:32 | 48.25785 | 15.68571 | 83° | 126km/h | 8424m | -13.9m/s | -29.0°C | 31.1% | 0hPa | 2.5V | 08:15:00 | 00:00:00 | 00:00:00 | |
| OE3MUC-15 | 2026-09-05 03:38:31 | 48.25777 | 15.68477 | 84° | 126km/h | 8451m | -14.3m/s | -29.1°C | 31.1% | 0hPa | 2.5V | 00:00:00 | 00:00:00 | 00:00:00 | |
| OE5DRO-10 | 2026-09-05 03:38:30 | 48.25773 | 15.68430 | 84° | 128km/h | 8466m | -14.7m/s | -29.1°C | 29.5% | 0hPa | 2.5V | 08:15:00 | 00:00:00 | 00:00:00 | |
| PETON7-10 | 2026-09-05 03:38:29 | 48.25770 | 15.68383 | 84° | 128km/h | 8480m | -13.9m/s | -29.2°C | 28.4% | 0hPa | 2.5V | 08:15:00 | 00:00:00 | 00:00:00 | |
| OE3MUC-15 | 2026-09-05 03:38:27 | 48.25763 | 15.68289 | 85° | 126km/h | 8507m | -13.7m/s | -29.4°C | 25.0% | 0hPa | 2.6V | 00:00:00 | 00:00:00 | 00:00:00 | |
| OM5KV | 2026-09-05 03:38:26 | 48.25763 | 15.68289 | 85° | 126km/h | 8507m | -13.8m/s | -29.4°C | 23.4% | 0hPa | 2.6V | 08:15:00 | 00:00:00 | 00:00:00 | |
| OE5MMP-10 | 2026-09-05 03:38:23 | 48.25751 | 15.68099 | 86° | 128km/h | 8559m | -13.2m/s | -29.7°C | 23.9% | 0hPa | 2.6V | 00:00:00 | 01:49:40 | 00:00:00 | |
| OE3MUC-15 | 2026-09-05 03:38:19 | 48.25743 | 15.67904 | 88° | 128km/h | 8611m | -12.5m/s | -29.8°C | 21.1% | 0hPa | 2.6V | 00:00:00 | 00:00:00 | 00:00:00 | |
| OE5DXL-15 | 2026-09-05 03:38:16 | 48.25738 | 15.67757 | 88° | 126km/h | 8648m | -12.4m/s | -30.1°C | 21.8% | 0hPa | 2.6V | 00:00:00 | 00:00:00 | 00:00:00 | |
| OE3MUC-15 | 2026-09-05 03:38:15 | 48.25736 | 15.67708 | 87° | 128km/h | 8661m | -12.4m/s | -30.2°C | 22.0% | 0hPa | 2.6V | 08:15:00 | 00:00:00 | 00:00:00 | |
| OE5WHR-10 | 2026-09-05 03:38:14 | 48.25734 | 15.67659 | 87° | 128km/h | 8673m | -12.0m/s | -30.3°C | 22.2% | 0hPa | 2.6V | 00:00:00 | 00:00:00 | 00:00:00 | |
| OE5MMP-10 | 2026-09-05 03:38:13 | 48.25732 | 15.67611 | 87° | 128km/h | 8686m | -12.3m/s | -30.5°C | 22.4% | 0hPa | 2.6V | 00:00:00 | 01:49:30 | 00:00:00 | |
| OE3MUC-15 | 2026-09-05 03:38:11 | 48.25728 | 15.67514 | 87° | 128km/h | 8710m | -12.4m/s | -30.7°C | 22.6% | 0hPa | 2.6V | 00:00:00 | 00:00:00 | 00:00:00 | |
| OE3JTB-15 | 2026-09-05 03:38:09 | 48.25724 | 15.67417 | 87° | 126km/h | 8736m | -13.3m/s | -30.9°C | 22.6% | 0hPa | 2.6V | 00:00:00 | 00:00:00 | 00:00:00 | |
| PG1ADW-2 | 2026-09-05 03:38:07 | 48.25720 | 15.67319 | 86° | 126km/h | 8763m | -13.2m/s | -31.2°C | 22.6% | 0hPa | 2.6V | 00:00:00 | 00:00:00 | 00:00:00 | |
| OE3MUC-15 | 2026-09-05 03:38:03 | 48.25710 | 15.67125 | 86° | 126km/h | 8815m | -12.8m/s | -31.7°C | 21.9% | 0hPa | 2.6V | 00:00:00 | 00:00:00 | 00:00:00 | |
| OE3OSB-13 | 2026-09-05 03:37:46 | 48.25663 | 15.66271 | 85° | 124km/h | 9043m | -12.0m/s | -33.4°C | 22.2% | -1.0hPa | 2.5V | 00:00:00 | 00:00:00 | 00:00:00 | |
| PETON7-10 | 2026-09-05 03:37:44 | 48.25660 | 15.66224 | 86° | 126km/h | 9055m | -12.4m/s | -33.5°C | 24.4% | 0hPa | 2.5V | 00:00:00 | 00:00:00 | 00:00:00 | |
| OE3MUC-15 | 2026-09-05 03:37:43 | 48.25658 | 15.66176 | 86° | 126km/h | 9068m | -12.8m/s | -33.6°C | 24.6% | 0hPa | 2.5V | 00:00:00 | 00:00:00 | 00:00:00 | |
| OM5KV | 2026-09-05 03:37:41 | 48.25655 | 15.66129 | 86° | 126km/h | 9081m | -13.4m/s | -33.7°C | 22.9% | 0hPa | 2.5V | 08:16:00 | 00:00:00 | 00:00:00 | |
| OE3JTB-15 | 2026-09-05 03:37:40 | 48.25649 | 15.66033 | 86° | 126km/h | 9107m | -13.6m/s | -33.9°C | 25.2% | 0hPa | 2.5V | 00:00:00 | 01:48:57 | 00:00:00 | |
| S52SK | 2026-09-05 03:37:36 | 48.25642 | 15.65890 | 87° | 126km/h | 9145m | -11.8m/s | -34.4°C | 23.8% | 0hPa | 2.5V | 08:16:00 | 00:00:00 | 00:00:00 | |
| OM5KV | 2026-09-05 03:37:34 | 48.25637 | 15.65795 | 87° | 126km/h | 9169m | -12.7m/s | -34.6°C | 24.1% | 0hPa | 2.5V | 08:16:00 | 00:00:00 | 00:00:00 | |
| OE5MMP-10 | 2026-09-05 03:37:33 | 48.25632 | 15.65700 | 86° | 126km/h | 9192m | -11.5m/s | -34.8°C | 26.4% | 0hPa | 2.5V | 00:00:00 | 01:48:50 | 00:00:00 | |
| OE5WHR-10 | 2026-09-05 03:37:32 | 48.25630 | 15.65653 | 85° | 122km/h | 9204m | -11.7m/s | -34.9°C | 26.5% | 0hPa | 2.5V | 08:16:00 | 00:00:00 | 00:00:00 | |
| S52SK | 2026-09-05 03:37:30 | 48.25627 | 15.65606 | 86° | 124km/h | 9216m | -12.1m/s | -35.0°C | 24.4% | 0hPa | 2.5V | 08:16:00 | 00:00:00 | 00:00:00 | |
| PETON7-10 | 2026-09-05 03:37:29 | 48.25621 | 15.65512 | 85° | 126km/h | 9240m | -11.9m/s | -35.2°C | 26.6% | 0hPa | 2.5V | 00:00:00 | 00:00:00 | 00:00:00 | |
| OM5KV | 2026-09-05 03:37:28 | 48.25621 | 15.65512 | 86° | 126km/h | 9240m | -12.0m/s | -35.3°C | 24.4% | 0hPa | 2.5V | 08:16:00 | 00:00:00 | 00:00:00 | |
| PG1ADW-2 | 2026-09-05 03:37:27 | 48.25617 | 15.65417 | 86° | 126km/h | 9264m | -12.3m/s | -35.4°C | 26.4% | 0hPa | 2.5V | 00:00:00 | 00:00:00 | 00:00:00 | |
| OE5MMP-10 | 2026-09-05 03:37:23 | 48.25607 | 15.65227 | 87° | 126km/h | 9313m | -12.9m/s | -35.8°C | 26.8% | 0hPa | 2.5V | 00:00:00 | 01:48:40 | 00:00:00 | |
| OM5KV | 2026-09-05 03:37:22 | 48.25607 | 15.65227 | 87° | 128km/h | 9313m | -12.9m/s | -35.9°C | 24.6% | 0hPa | 2.5V | 08:16:00 | 00:00:00 | 00:00:00 | |
| OE3MUC-15 | 2026-09-05 03:37:19 | 48.25600 | 15.65035 | 89° | 126km/h | 9363m | -11.8m/s | -36.3°C | 27.5% | 0hPa | 2.5V | 00:00:00 | 00:00:00 | 00:00:00 | |
| OE5DXL-15 | 2026-09-05 03:37:16 | 48.25597 | 15.64893 | 88° | 122km/h | 9397m | -11.5m/s | -36.6°C | 27.6% | 0hPa | 2.5V | 00:00:00 | 00:00:00 | 00:00:00 | |
| OE3MUC-15 | 2026-09-05 03:37:15 | 48.25596 | 15.64846 | 89° | 124km/h | 9409m | -11.4m/s | -36.7°C | 27.5% | 0hPa | 2.5V | 00:00:00 | 00:00:00 | 00:00:00 | |
| PETON7-10 | 2026-09-05 03:37:14 | 48.25595 | 15.64800 | 89° | 122km/h | 9420m | -11.7m/s | -36.8°C | 27.2% | 0hPa | 2.5V | 00:00:00 | 01:48:31 | 00:00:00 | |
| OE5MMP-10 | 2026-09-05 03:37:13 | 48.25595 | 15.64753 | 89° | 124km/h | 9431m | -10.8m/s | -36.9°C | 26.9% | 0hPa | 2.5V | 00:00:00 | 01:48:30 | 00:00:00 | |
| OE3MUC-15 | 2026-09-05 03:37:11 | 48.25593 | 15.64660 | 89° | 124km/h | 9454m | -12.4m/s | -37.1°C | 25.7% | 0hPa | 2.5V | 00:00:00 | 00:00:00 | 00:00:00 | |
| OE3MUC-15 | 2026-09-05 03:37:07 | 48.25594 | 15.64473 | 91° | 122km/h | 9502m | -12.2m/s | -37.4°C | 24.1% | 0hPa | 2.5V | 00:00:00 | 00:00:00 | 00:00:00 | |
| OM5KV | 2026-09-05 03:37:05 | 48.25595 | 15.64426 | 92° | 122km/h | 9514m | -12.9m/s | -37.5°C | 21.6% | 0hPa | 2.5V | 08:16:00 | 00:00:00 | 00:00:00 | |
| OE3MUC-15 | 2026-09-05 03:37:03 | 48.25597 | 15.64288 | 92° | 122km/h | 9552m | -12.6m/s | -37.5°C | 23.2% | 0hPa | 2.5V | 08:16:00 | 00:00:00 | 00:00:00 | |
| OM5KV | 2026-09-05 03:37:02 | 48.25597 | 15.64288 | 92° | 122km/h | 9552m | -12.7m/s | -37.6°C | 21.0% | 0hPa | 2.5V | 08:16:00 | 00:00:00 | 00:00:00 | |
| OM5KV | 2026-09-05 03:37:00 | 48.25599 | 15.64196 | 92° | 122km/h | 9576m | -12.8m/s | -37.7°C | 21.2% | 0hPa | 2.5V | 08:16:00 | 00:00:00 | 00:00:00 | |
| OE3MUC-15 | 2026-09-05 03:36:59 | 48.25601 | 15.64104 | 91° | 122km/h | 9601m | -12.6m/s | -37.9°C | 24.0% | 0hPa | 2.5V | 00:00:00 | 00:00:00 | 00:00:00 | |
| OM5KV | 2026-09-05 03:36:56 | 48.25602 | 15.64012 | 92° | 120km/h | 9626m | -12.8m/s | -38.2°C | 22.1% | 0hPa | 2.5V | 08:16:00 | 00:00:00 | 00:00:00 | |
| OE3MUC-15 | 2026-09-05 03:36:55 | 48.25603 | 15.63920 | 91° | 120km/h | 9651m | -13.0m/s | -38.4°C | 24.9% | 0hPa | 2.5V | 00:00:00 | 00:00:00 | 00:00:00 | |
| OM5KV | 2026-09-05 03:36:54 | 48.25603 | 15.63920 | 92° | 120km/h | 9651m | -13.0m/s | -38.5°C | 22.5% | 0hPa | 2.5V | 08:16:00 | 00:00:00 | 00:00:00 | |
| OE5MMP-10 | 2026-09-05 03:36:53 | 48.25603 | 15.63829 | 91° | 120km/h | 9676m | -13.2m/s | -38.7°C | 25.3% | 0hPa | 2.5V | 00:00:00 | 01:48:10 | 00:00:00 | |
| OE5WHR-10 | 2026-09-05 03:36:52 | 48.25603 | 15.63784 | 90° | 120km/h | 9689m | -12.3m/s | -38.8°C | 25.6% | 0hPa | 2.5V | 00:00:00 | 00:00:00 | 00:00:00 | |
| OM5KV | 2026-09-05 03:36:51 | 48.25603 | 15.63784 | 91° | 120km/h | 9689m | -12.3m/s | -38.9°C | 23.2% | 0hPa | 2.5V | 08:16:00 | 00:00:00 | 00:00:00 | |
| PG1ADW-2 | 2026-09-05 03:36:47 | 48.25603 | 15.63554 | 91° | 120km/h | 9750m | -12.9m/s | -39.4°C | 26.9% | 0hPa | 2.5V | 00:00:00 | 00:00:00 | 00:00:00 | |
| OE5DXL-15 | 2026-09-05 03:36:46 | 48.25603 | 15.63508 | 90° | 120km/h | 9763m | -13.0m/s | -39.5°C | 27.1% | 0hPa | 2.6V | 00:00:00 | 00:00:00 | 00:00:00 | |
| PETON7-10 | 2026-09-05 03:36:44 | 48.25602 | 15.63416 | 90° | 120km/h | 9789m | -12.4m/s | -39.8°C | 27.8% | 0hPa | 2.6V | 00:00:00 | 00:00:00 | 00:00:00 | |
| OE3MUC-15 | 2026-09-05 03:36:43 | 48.25602 | 15.63371 | 91° | 119km/h | 9801m | -11.7m/s | -39.9°C | 28.0% | 0hPa | 2.6V | 00:00:00 | 00:00:00 | 00:00:00 | |
| OE3JTB-15 | 2026-09-05 03:36:42 | 48.25601 | 15.63325 | 89° | 122km/h | 9813m | -12.1m/s | -40.0°C | 28.4% | 0hPa | 2.6V | 00:00:00 | 00:00:00 | 00:00:00 | |
| OM5KV | 2026-09-05 03:36:41 | 48.25601 | 15.63325 | 90° | 119km/h | 9813m | -12.1m/s | -40.1°C | 25.7% | 0hPa | 2.6V | 08:16:00 | 00:00:00 | 00:00:00 | |
| OM5KV | 2026-09-05 03:36:40 | 48.25601 | 15.63280 | 89° | 120km/h | 9825m | -11.8m/s | -40.2°C | 26.0% | 0hPa | 2.6V | 08:16:00 | 00:00:00 | 00:00:00 | |
| OE3MUC-15 | 2026-09-05 03:36:39 | 48.25599 | 15.63189 | 88° | 122km/h | 9849m | -11.8m/s | -40.4°C | 28.9% | 0hPa | 2.6V | 00:00:00 | 00:00:00 | 00:00:00 | |
| OE5DRO-10 | 2026-09-05 03:36:36 | 48.25596 | 15.63050 | 90° | 122km/h | 9886m | -12.1m/s | -40.7°C | 29.0% | 0hPa | 2.5V | 00:00:00 | 00:00:00 | 00:00:00 | |
| OE3MUC-15 | 2026-09-05 03:36:35 | 48.25595 | 15.63004 | 89° | 120km/h | 9897m | -11.0m/s | -40.8°C | 28.9% | 0hPa | 2.6V | 00:00:00 | 00:00:00 | 00:00:00 | |
| OM5KV | 2026-09-05 03:36:34 | 48.25595 | 15.63004 | 89° | 120km/h | 9897m | -11.0m/s | -40.9°C | 26.2% | 0hPa | 2.6V | 08:17:00 | 00:00:00 | 00:00:00 | |
| OE5MMP-10 | 2026-09-05 03:36:33 | 48.25593 | 15.62912 | 90° | 120km/h | 9921m | -12.4m/s | -41.1°C | 28.5% | 0hPa | 2.6V | 08:17:00 | 01:47:50 | 00:00:00 | |
| OE3MUC-15 | 2026-09-05 03:36:31 | 48.25592 | 15.62820 | 90° | 120km/h | 9946m | -12.9m/s | -41.2°C | 28.1% | 0hPa | 2.6V | 00:00:00 | 00:00:00 | 00:00:00 | |
| PETON7-10 | 2026-09-05 03:36:29 | 48.25592 | 15.62728 | 89° | 122km/h | 9971m | -11.0m/s | -41.4°C | 28.4% | 0hPa | 2.6V | 00:00:00 | 01:47:46 | 00:00:00 | |
| OE3MUC-15 | 2026-09-05 03:36:27 | 48.25590 | 15.62636 | 90° | 120km/h | 9994m | -11.8m/s | -41.7°C | 28.3% | 0hPa | 2.6V | 08:17:00 | 00:00:00 | 00:00:00 | |
| OE3MUC-15 | 2026-09-05 03:36:23 | 48.25591 | 15.62453 | 92° | 124km/h | 10045m | -12.3m/s | -41.9°C | 27.7% | 0hPa | 2.6V | 00:00:00 | 00:00:00 | 00:00:00 | |
| OM5KV | 2026-09-05 03:36:22 | 48.25591 | 15.62453 | 92° | 122km/h | 10045m | -12.4m/s | -42.0°C | 24.8% | 0hPa | 2.6V | 08:17:00 | 00:00:00 | 00:00:00 | |
| OE3MUC-15 | 2026-09-05 03:36:18 | 48.25596 | 15.62218 | 92° | 122km/h | 10107m | -11.6m/s | -42.5°C | 28.8% | 0hPa | 2.6V | 00:00:00 | 00:00:00 | 00:00:00 | |
| OE5DXL-15 | 2026-09-05 03:36:16 | 48.25599 | 15.62125 | 93° | 122km/h | 10131m | -12.6m/s | -42.8°C | 29.0% | 0hPa | 2.6V | 00:00:00 | 00:00:00 | 00:00:00 | |
| PETON7-10 | 2026-09-05 03:36:14 | 48.25601 | 15.62031 | 93° | 122km/h | 10154m | -11.6m/s | -43.0°C | 29.5% | 0hPa | 2.6V | 08:17:00 | 00:00:00 | 00:00:00 | |
| OE5MMP-10 | 2026-09-05 03:36:13 | 48.25603 | 15.61984 | 93° | 122km/h | 10165m | -11.1m/s | -43.1°C | 29.4% | 0hPa | 2.5V | 00:00:00 | 01:47:30 | 00:00:00 | |
| OE3OSB-13 | 2026-09-05 03:36:12 | 48.25606 | 15.61891 | 93° | 120km/h | 10189m | -11.9m/s | -43.4°C | 25.9% | -1.0hPa | 2.5V | 00:00:00 | 00:00:00 | 00:00:00 | |
| OE5WHR-10 | 2026-09-05 03:36:10 | 48.25608 | 15.61845 | 94° | 122km/h | 10200m | -12.7m/s | -43.4°C | 29.1% | 0hPa | 2.5V | 00:00:00 | 00:00:00 | 00:00:00 | |
| PG1ADW-2 | 2026-09-05 03:36:07 | 48.25616 | 15.61706 | 96° | 122km/h | 10238m | -12.7m/s | -43.6°C | 29.2% | 0hPa | 2.6V | 00:00:00 | 00:00:00 | 00:00:00 | |
| OE3MUC-15 | 2026-09-05 03:36:06 | 48.25619 | 15.61660 | 96° | 122km/h | 10251m | -13.4m/s | -43.5°C | 29.0% | 0hPa | 2.6V | 00:00:00 | 00:00:00 | 00:00:00 | |
| OM5KV | 2026-09-05 03:36:05 | 48.25619 | 15.61660 | 97° | 122km/h | 10251m | -13.4m/s | -43.6°C | 25.9% | 0hPa | 2.6V | 08:17:00 | 00:00:00 | 00:00:00 | |
| OE5MMP-10 | 2026-09-05 03:36:03 | 48.25629 | 15.61523 | 96° | 122km/h | 10289m | -13.4m/s | -43.9°C | 30.4% | 0hPa | 2.6V | 00:00:00 | 01:47:20 | 00:00:00 | |
| OE3MUC-15 | 2026-09-05 03:36:02 | 48.25632 | 15.61476 | 96° | 124km/h | 10303m | -13.8m/s | -44.0°C | 30.8% | 0hPa | 2.6V | 00:00:00 | 00:00:00 | 00:00:00 | |
| PETON7-10 | 2026-09-05 03:35:59 | 48.25643 | 15.61337 | 98° | 120km/h | 10340m | -12.8m/s | -44.3°C | 31.7% | 0hPa | 2.6V | 00:00:00 | 00:00:00 | 00:00:00 | |
| OE3MUC-15 | 2026-09-05 03:35:58 | 48.25647 | 15.61290 | 97° | 122km/h | 10353m | -12.6m/s | -44.4°C | 31.9% | 0hPa | 2.6V | 00:00:00 | 00:00:00 | 00:00:00 | |
| OM5KV | 2026-09-05 03:35:57 | 48.25647 | 15.61290 | 98° | 124km/h | 10353m | -12.6m/s | -44.4°C | 28.6% | 0hPa | 2.6V | 08:17:00 | 00:00:00 | 00:00:00 | |
| OE3MUC-15 | 2026-09-05 03:35:54 | 48.25662 | 15.61106 | 97° | 122km/h | 10404m | -12.9m/s | -44.7°C | 33.4% | 0hPa | 2.6V | 00:00:00 | 00:00:00 | 00:00:00 | |
| OE5MMP-10 | 2026-09-05 03:35:53 | 48.25666 | 15.61060 | 97° | 120km/h | 10417m | -13.2m/s | -44.8°C | 33.7% | 0hPa | 2.6V | 00:00:00 | 01:47:10 | 00:00:00 | |
| OE3MUC-15 | 2026-09-05 03:35:50 | 48.25676 | 15.60922 | 97° | 120km/h | 10457m | -13.5m/s | -45.1°C | 35.0% | 0hPa | 2.6V | 08:17:00 | 00:00:00 | 00:00:00 | |
| OE5WHR-10 | 2026-09-05 03:35:49 | 48.25680 | 15.60877 | 98° | 115km/h | 10470m | -13.1m/s | -45.2°C | 35.6% | 0hPa | 2.5V | 00:00:00 | 00:00:00 | 00:00:00 | |
| PG1ADW-2 | 2026-09-05 03:35:47 | 48.25688 | 15.60786 | 98° | 115km/h | 10496m | -12.4m/s | -45.4°C | 36.8% | 0hPa | 2.5V | 08:17:00 | 01:47:04 | 00:00:00 | |
| OE3MUC-15 | 2026-09-05 03:35:46 | 48.25692 | 15.60742 | 97° | 117km/h | 10508m | -12.1m/s | -45.5°C | 37.6% | 0hPa | 2.6V | 00:00:00 | 00:00:00 | 00:00:00 | |
| PETON7-10 | 2026-09-05 03:35:44 | 48.25699 | 15.60653 | 96° | 115km/h | 10532m | -11.3m/s | -45.7°C | 39.0% | 0hPa | 2.6V | 00:00:00 | 01:47:01 | 00:00:00 | |
| OE5MMP-10 | 2026-09-05 03:35:43 | 48.25702 | 15.60609 | 97° | 115km/h | 10544m | -12.6m/s | -45.8°C | 39.7% | 0hPa | 2.6V | 00:00:00 | 01:47:00 | 00:00:00 | |
| OE3OSB-13 | 2026-09-05 03:35:41 | 48.25709 | 15.60521 | 95° | 115km/h | 10570m | -12.3m/s | -46.1°C | 37.6% | -1.0hPa | 2.6V | 00:00:00 | 00:00:00 | 00:00:00 | |
| OE5DRO-10 | 2026-09-05 03:35:39 | 48.25715 | 15.60435 | 96° | 111km/h | 10596m | -12.7m/s | -46.3°C | 44.6% | 0hPa | 2.6V | 08:17:00 | 00:00:00 | 00:00:00 | |
| OM5KV | 2026-09-05 03:35:35 | 48.25723 | 15.60304 | 96° | 115km/h | 10631m | -12.2m/s | -46.6°C | 44.7% | 0hPa | 2.6V | 08:18:00 | 00:00:00 | 00:00:00 | |
| OE5MMP-10 | 2026-09-05 03:35:33 | 48.25730 | 15.60176 | 95° | 110km/h | 10666m | -12.6m/s | -46.4°C | 51.2% | 0hPa | 2.6V | 00:00:00 | 01:46:50 | 00:00:00 | |
| PETON7-10 | 2026-09-05 03:35:29 | 48.25739 | 15.60008 | 96° | 108km/h | 10718m | -13.3m/s | -46.6°C | 57.2% | 0hPa | 2.5V | 00:00:00 | 00:00:00 | 00:00:00 | |
| OE5WHR-10 | 2026-09-05 03:35:28 | 48.25742 | 15.59967 | 96° | 108km/h | 10730m | -11.8m/s | -46.6°C | 59.0% | 0hPa | 2.5V | 00:00:00 | 01:46:45 | 00:00:00 | |
| PG1ADW-2 | 2026-09-05 03:35:27 | 48.25744 | 15.59926 | 96° | 108km/h | 10743m | -13.1m/s | -46.6°C | 60.5% | 0hPa | 2.5V | 00:00:00 | 00:00:00 | 00:00:00 | |
| OE5MMP-10 | 2026-09-05 03:35:23 | 48.25754 | 15.59762 | 96° | 108km/h | 10793m | -11.3m/s | -46.9°C | 67.5% | 0hPa | 2.5V | 00:00:00 | 01:46:40 | 00:00:00 | |
| OM5KV | 2026-09-05 03:35:21 | 48.25757 | 15.59721 | 97° | 108km/h | 10805m | -11.9m/s | -47.0°C | 63.3% | 0hPa | 2.5V | 08:18:00 | 00:00:00 | 00:00:00 | |
| OE5DRO-10 | 2026-09-05 03:35:20 | 48.25762 | 15.59639 | 96° | 106km/h | 10829m | -11.8m/s | -47.1°C | 69.9% | 0hPa | 2.5V | 00:00:00 | 00:00:00 | 00:00:00 | |
| OE3MUC-15 | 2026-09-05 03:35:19 | 48.25765 | 15.59598 | 96° | 108km/h | 10840m | -12.1m/s | -47.2°C | 69.7% | 0hPa | 2.5V | 00:00:00 | 00:00:00 | 00:00:00 | |
| OM5KV | 2026-09-05 03:35:18 | 48.25765 | 15.59598 | 97° | 108km/h | 10840m | -12.1m/s | -47.3°C | 64.3% | 0hPa | 2.5V | 08:18:00 | 00:00:00 | 00:00:00 | |
| OE5DXL-15 | 2026-09-05 03:35:16 | 48.25772 | 15.59476 | 95° | 104km/h | 10879m | -13.5m/s | -47.5°C | 69.4% | 0hPa | 2.5V | 00:00:00 | 00:00:00 | 00:00:00 | |
| OE3JTB-15 | 2026-09-05 03:35:15 | 48.25775 | 15.59435 | 96° | 104km/h | 10893m | -13.2m/s | -47.6°C | 69.2% | 0hPa | 2.5V | 00:00:00 | 00:00:00 | 00:00:00 | |
| PETON7-10 | 2026-09-05 03:35:14 | 48.25777 | 15.59395 | 96° | 106km/h | 10906m | -13.5m/s | -47.7°C | 68.6% | 0hPa | 2.5V | 00:00:00 | 00:00:00 | 00:00:00 | |
| OE3MUC-15 | 2026-09-05 03:35:10 | 48.25786 | 15.59233 | 95° | 106km/h | 10962m | -13.4m/s | -48.1°C | 67.3% | 0hPa | 2.5V | 08:18:00 | 00:00:00 | 00:00:00 | |
| OE5WHR-10 | 2026-09-05 03:35:07 | 48.25792 | 15.59112 | 96° | 104km/h | 11002m | -12.3m/s | -48.4°C | 66.6% | 0hPa | 2.5V | 00:00:00 | 00:00:00 | 00:00:00 | |
| OE3MUC-15 | 2026-09-05 03:35:06 | 48.25795 | 15.59072 | 96° | 104km/h | 11015m | -12.9m/s | -48.5°C | 65.9% | 0hPa | 2.6V | 00:00:00 | 00:00:00 | 00:00:00 | |
| OM5KV | 2026-09-05 03:35:05 | 48.25795 | 15.59072 | 96° | 106km/h | 11015m | -12.9m/s | -48.6°C | 60.4% | 0hPa | 2.6V | 08:18:00 | 00:00:00 | 00:00:00 | |
| OM5KV | 2026-09-05 03:35:04 | 48.25797 | 15.59032 | 96° | 104km/h | 11028m | -13.1m/s | -48.7°C | 60.4% | 0hPa | 2.6V | 08:18:00 | 00:00:00 | 00:00:00 | |
| OE5MMP-10 | 2026-09-05 03:35:03 | 48.25802 | 15.58953 | 95° | 104km/h | 11054m | -12.6m/s | -48.9°C | 65.6% | 0hPa | 2.6V | 08:18:00 | 01:46:20 | 00:00:00 | |
| OE3MUC-15 | 2026-09-05 03:35:02 | 48.25804 | 15.58914 | 96° | 104km/h | 11067m | -13.5m/s | -49.1°C | 65.7% | 0hPa | 2.5V | 00:00:00 | 00:00:00 | 00:00:00 | |
| OE5DRO-10 | 2026-09-05 03:35:01 | 48.25806 | 15.58875 | 95° | 104km/h | 11081m | -12.9m/s | -49.2°C | 65.8% | 0hPa | 2.5V | 00:00:00 | 00:00:00 | 00:00:00 | |
| PETON7-10 | 2026-09-05 03:34:59 | 48.25810 | 15.58796 | 95° | 104km/h | 11109m | -13.4m/s | -49.5°C | 66.4% | 0hPa | 2.5V | 00:00:00 | 01:46:16 | 00:00:00 | |
| OE3MUC-15 | 2026-09-05 03:34:58 | 48.25813 | 15.58756 | 95° | 104km/h | 11123m | -13.6m/s | -49.6°C | 67.0% | 0hPa | 2.5V | 00:00:00 | 01:46:15 | 00:00:00 | |
| OE3MUC-15 | 2026-09-05 03:34:54 | 48.25820 | 15.58598 | 94° | 104km/h | 11176m | -13.8m/s | -50.0°C | 67.3% | 0hPa | 2.5V | 00:00:00 | 00:00:00 | 00:00:00 | |
| OE5MMP-10 | 2026-09-05 03:34:53 | 48.25821 | 15.58558 | 93° | 104km/h | 11190m | -13.5m/s | -50.1°C | 67.4% | 0hPa | 2.5V | 00:00:00 | 01:46:10 | 00:00:00 | |
| OM5KV | 2026-09-05 03:34:52 | 48.25822 | 15.58558 | 93° | 104km/h | 11190m | -13.6m/s | -50.1°C | 61.5% | 0hPa | 2.5V | 08:19:00 | 00:00:00 | 00:00:00 | |
| OE3MUC-15 | 2026-09-05 03:34:50 | 48.25825 | 15.58438 | 93° | 104km/h | 11230m | -13.6m/s | -50.3°C | 66.6% | 0hPa | 2.5V | 00:00:00 | 00:00:00 | 00:00:00 | |
| PG1ADW-2 | 2026-09-05 03:34:47 | 48.25827 | 15.58319 | 92° | 104km/h | 11270m | -13.6m/s | -50.6°C | 66.1% | 0hPa | 2.5V | 00:00:00 | 00:00:00 | 00:00:00 | |
| OE3MUC-15 | 2026-09-05 03:34:46 | 48.25828 | 15.58279 | 92° | 104km/h | 11283m | -12.3m/s | -50.7°C | 65.9% | 0hPa | 2.5V | 00:00:00 | 00:00:00 | 00:00:00 | |
| PETON7-10 | 2026-09-05 03:34:44 | 48.25829 | 15.58200 | 91° | 104km/h | 11310m | -13.1m/s | -50.9°C | 64.9% | 0hPa | 2.6V | 00:00:00 | 00:00:00 | 00:00:00 | |
| OE5MMP-10 | 2026-09-05 03:34:43 | 48.25829 | 15.58161 | 91° | 104km/h | 11324m | -13.1m/s | -51.0°C | 64.6% | 0hPa | 2.5V | 00:00:00 | 01:46:00 | 00:00:00 | |
| OE5DRO-10 | 2026-09-05 03:34:42 | 48.25829 | 15.58121 | 91° | 104km/h | 11337m | -13.1m/s | -51.1°C | 64.2% | 0hPa | 2.5V | 00:00:00 | 00:00:00 | 00:00:00 | |
| OM5KV | 2026-09-05 03:34:40 | 48.25830 | 15.58082 | 92° | 104km/h | 11351m | -13.4m/s | -51.3°C | 58.0% | 0hPa | 2.6V | 08:19:00 | 00:00:00 | 00:00:00 | |
| OE3OSB-13 | 2026-09-05 03:34:39 | 48.25830 | 15.57963 | 90° | 104km/h | 11391m | -13.1m/s | -51.6°C | 57.3% | -1.0hPa | 2.6V | 00:00:00 | 00:00:00 | 00:00:00 | |
| OE3MUC-15 | 2026-09-05 03:34:36 | 48.25830 | 15.57883 | 90° | 106km/h | 11418m | -13.2m/s | -51.8°C | 63.1% | 0hPa | 2.6V | 00:00:00 | 00:00:00 | 00:00:00 | |
| OE5MMP-10 | 2026-09-05 03:34:33 | 48.25829 | 15.57762 | 91° | 104km/h | 11459m | -14.1m/s | -52.1°C | 62.1% | 0hPa | 2.6V | 00:00:00 | 01:45:50 | 00:00:00 | |
| OE3MUC-15 | 2026-09-05 03:34:32 | 48.25828 | 15.57722 | 89° | 104km/h | 11472m | -12.3m/s | -52.3°C | 61.9% | 0hPa | 2.5V | 00:00:00 | 00:00:00 | 00:00:00 | |
| OM5KV | 2026-09-05 03:34:30 | 48.25828 | 15.57682 | 90° | 104km/h | 11485m | -12.6m/s | -52.4°C | 55.4% | 0hPa | 2.5V | 08:19:00 | 00:00:00 | 00:00:00 | |
| PETON7-10 | 2026-09-05 03:34:29 | 48.25826 | 15.57603 | 89° | 106km/h | 11510m | -12.4m/s | -52.5°C | 59.7% | 0hPa | 2.5V | 00:00:00 | 00:00:00 | 00:00:00 | |
| PG1ADW-2 | 2026-09-05 03:34:27 | 48.25825 | 15.57524 | 89° | 106km/h | 11535m | -12.8m/s | -52.8°C | 59.6% | 0hPa | 2.5V | 00:00:00 | 01:45:44 | 00:00:00 | |
| S52SK | 2026-09-05 03:34:26 | 48.25825 | 15.57524 | 90° | 104km/h | 11535m | -12.9m/s | -52.8°C | 53.6% | 0hPa | 2.5V | 00:00:00 | 00:00:00 | 00:00:00 | |
| OE5WHR-10 | 2026-09-05 03:34:25 | 48.25824 | 15.57445 | 90° | 108km/h | 11560m | -13.5m/s | -53.0°C | 59.2% | 0hPa | 2.5V | 00:00:00 | 01:45:42 | 00:00:00 | |
| OE5DRO-10 | 2026-09-05 03:34:23 | 48.25823 | 15.57366 | 91° | 108km/h | 11587m | -13.8m/s | -53.2°C | 58.6% | 0hPa | 2.5V | 00:00:00 | 00:00:00 | 00:00:00 | |
| OE3MUC-15 | 2026-09-05 03:34:22 | 48.25823 | 15.57327 | 90° | 106km/h | 11600m | -13.0m/s | -53.3°C | 58.7% | 0hPa | 2.5V | 08:19:00 | 00:00:00 | 00:00:00 | |
| S52SK | 2026-09-05 03:34:21 | 48.25823 | 15.57327 | 91° | 104km/h | 11600m | -13.1m/s | -53.3°C | 52.6% | 0hPa | 2.5V | 00:00:00 | 00:00:00 | 00:00:00 | |
| OM5KV | 2026-09-05 03:34:19 | 48.25823 | 15.57247 | 91° | 106km/h | 11627m | -12.8m/s | -53.5°C | 52.4% | 0hPa | 2.5V | 08:19:00 | 00:00:00 | 00:00:00 | |
| OE3MUC-15 | 2026-09-05 03:34:18 | 48.25823 | 15.57166 | 89° | 108km/h | 11655m | -13.5m/s | -53.7°C | 58.9% | 0hPa | 2.5V | 00:00:00 | 00:00:00 | 00:00:00 | |
| OE3JTB-15 | 2026-09-05 03:34:17 | 48.25823 | 15.57126 | 91° | 110km/h | 11669m | -13.6m/s | -53.8°C | 59.4% | 0hPa | 2.5V | 00:00:00 | 00:00:00 | 00:00:00 | |
| OE5DXL-15 | 2026-09-05 03:34:16 | 48.25823 | 15.57085 | 91° | 110km/h | 11682m | -12.1m/s | -53.9°C | 59.8% | 0hPa | 2.5V | 00:00:00 | 00:00:00 | 00:00:00 | |
| S52SK | 2026-09-05 03:34:15 | 48.25823 | 15.57085 | 91° | 108km/h | 11682m | -12.1m/s | -53.9°C | 53.3% | 0hPa | 2.5V | 00:00:00 | 00:00:00 | 00:00:00 | |
| PETON7-10 | 2026-09-05 03:34:14 | 48.25823 | 15.57004 | 90° | 110km/h | 11705m | -12.2m/s | -54.1°C | 59.0% | 0hPa | 2.5V | 00:00:00 | 01:45:31 | 00:00:00 | |
| OE5MMP-10 | 2026-09-05 03:34:13 | 48.25823 | 15.56964 | 90° | 110km/h | 11718m | -13.3m/s | -54.2°C | 58.5% | 0hPa | 2.5V | 00:00:00 | 01:45:30 | 00:00:00 | |
| OM5KV | 2026-09-05 03:34:11 | 48.25823 | 15.56923 | 91° | 110km/h | 11731m | -13.9m/s | -54.3°C | 51.7% | 0hPa | 2.5V | 08:19:00 | 00:00:00 | 00:00:00 | |
| OE3MUC-15 | 2026-09-05 03:34:10 | 48.25822 | 15.56840 | 89° | 110km/h | 11759m | -14.2m/s | -54.5°C | 57.5% | 0hPa | 2.5V | 00:00:00 | 00:00:00 | 00:00:00 | |
| OE3OSB-13 | 2026-09-05 03:34:08 | 48.25820 | 15.56717 | 87° | 108km/h | 11803m | -14.4m/s | -54.9°C | 50.3% | -1.0hPa | 2.5V | 00:00:00 | 00:00:00 | 00:00:00 | |
| PG1ADW-2 | 2026-09-05 03:34:07 | 48.25820 | 15.56717 | 88° | 110km/h | 11803m | -14.4m/s | -54.9°C | 56.9% | 0hPa | 2.5V | 00:00:00 | 00:00:00 | 00:00:00 | |
| OM5KV | 2026-09-05 03:34:05 | 48.25819 | 15.56675 | 89° | 110km/h | 11818m | -14.8m/s | -55.0°C | 50.7% | 0hPa | 2.5V | 08:20:00 | 00:00:00 | 00:00:00 | |
| OE5WHR-10 | 2026-09-05 03:34:04 | 48.25817 | 15.56593 | 88° | 111km/h | 11846m | -15.0m/s | -55.2°C | 56.5% | 0hPa | 2.5V | 08:19:00 | 00:00:00 | 00:00:00 | |
| OE5MMP-10 | 2026-09-05 03:34:03 | 48.25816 | 15.56552 | 89° | 110km/h | 11860m | -13.3m/s | -55.3°C | 56.3% | 0hPa | 2.5V | 00:00:00 | 01:45:20 | 00:00:00 | |
| PETON7-10 | 2026-09-05 03:33:59 | 48.25811 | 15.56386 | 88° | 111km/h | 11917m | -14.3m/s | -55.9°C | 55.4% | 0hPa | 2.5V | 08:19:00 | 00:00:00 | 00:00:00 | |
| OE3MUC-15 | 2026-09-05 03:33:58 | 48.25810 | 15.56345 | 88° | 108km/h | 11932m | -14.6m/s | -56.0°C | 55.2% | 0hPa | 2.5V | 00:00:00 | 00:00:00 | 00:00:00 | |
| OM5KV | 2026-09-05 03:33:57 | 48.25810 | 15.56345 | 89° | 108km/h | 11932m | -14.6m/s | -56.0°C | 48.7% | 0hPa | 2.5V | 08:20:00 | 00:00:00 | 00:00:00 | |
| OE3MUC-15 | 2026-09-05 03:33:54 | 48.25806 | 15.56180 | 90° | 111km/h | 11988m | -13.7m/s | -56.5°C | 54.6% | 0hPa | 2.5V | 00:00:00 | 00:00:00 | 00:00:00 | |
| OE5MMP-10 | 2026-09-05 03:33:53 | 48.25806 | 15.56138 | 90° | 113km/h | 12002m | -14.4m/s | -56.6°C | 54.4% | 0hPa | 2.5V | 00:00:00 | 01:45:10 | 00:00:00 | |
| OM5KV | 2026-09-05 03:33:52 | 48.25806 | 15.56138 | 90° | 111km/h | 12002m | -14.5m/s | -56.6°C | 47.8% | 0hPa | 2.5V | 08:20:00 | 00:00:00 | 00:00:00 | |
| OM5KV | 2026-09-05 03:33:51 | 48.25806 | 15.56095 | 90° | 111km/h | 12015m | -12.8m/s | -56.8°C | 47.8% | 0hPa | 2.5V | 08:20:00 | 00:00:00 | 00:00:00 | |
| OE3MUC-15 | 2026-09-05 03:33:50 | 48.25805 | 15.56010 | 90° | 113km/h | 12040m | -12.2m/s | -57.0°C | 53.5% | 0hPa | 2.5V | 00:00:00 | 00:00:00 | 00:00:00 | |
| OE3JTB-15 | 2026-09-05 03:33:48 | 48.25805 | 15.55925 | 90° | 115km/h | 12069m | -15.0m/s | -57.2°C | 52.3% | 0hPa | 2.5V | 00:00:00 | 00:00:00 | 00:00:00 | |
| PG1ADW-2 | 2026-09-05 03:33:47 | 48.25805 | 15.55882 | 90° | 113km/h | 12083m | -15.5m/s | -57.3°C | 52.0% | 0hPa | 2.5V | 00:00:00 | 00:00:00 | 00:00:00 | |
| OE5DXL-15 | 2026-09-05 03:33:46 | 48.25804 | 15.55839 | 90° | 115km/h | 12099m | -16.2m/s | -57.4°C | 51.8% | 0hPa | 2.5V | 00:00:00 | 00:00:00 | 00:00:00 | |
| OE5DRO-10 | 2026-09-05 03:33:45 | 48.25804 | 15.55796 | 90° | 113km/h | 12114m | -14.2m/s | -57.5°C | 51.6% | 0hPa | 2.5V | 00:00:00 | 00:00:00 | 00:00:00 | |
| PETON7-10 | 2026-09-05 03:33:44 | 48.25804 | 15.55753 | 90° | 113km/h | 12129m | -14.6m/s | -57.7°C | 51.2% | 0hPa | 2.5V | 00:00:00 | 00:00:00 | 00:00:00 | |
| OE5WHR-10 | 2026-09-05 03:33:43 | 48.25804 | 15.55710 | 90° | 115km/h | 12143m | -14.4m/s | -57.8°C | 50.7% | 0hPa | 2.5V | 00:00:00 | 00:00:00 | 00:00:00 | |
| OM5KV | 2026-09-05 03:33:40 | 48.25804 | 15.55624 | 91° | 111km/h | 12173m | -15.1m/s | -58.1°C | 43.3% | 0hPa | 2.5V | 08:20:00 | 00:00:00 | 00:00:00 | |
| OM5KV | 2026-09-05 03:33:39 | 48.25804 | 15.55581 | 91° | 111km/h | 12188m | -15.2m/s | -58.2°C | 43.3% | 0hPa | 2.5V | 08:20:00 | 00:00:00 | 00:00:00 | |
| OE3OSB-13 | 2026-09-05 03:33:37 | 48.25803 | 15.55410 | 89° | 111km/h | 12244m | -14.1m/s | -58.7°C | 41.8% | -1.0hPa | 2.5V | 00:00:00 | 00:00:00 | 00:00:00 | |
| OE5MMP-10 | 2026-09-05 03:33:33 | 48.25802 | 15.55282 | 90° | 117km/h | 12286m | -13.5m/s | -59.0°C | 48.2% | 0hPa | 2.5V | 08:20:00 | 01:44:50 | 00:00:00 | |
| PETON7-10 | 2026-09-05 03:33:29 | 48.25801 | 15.55110 | 89° | 117km/h | 12339m | -14.0m/s | -59.5°C | 46.6% | 0hPa | 2.5V | 00:00:00 | 01:44:46 | 00:00:00 | |
| OM5KV | 2026-09-05 03:33:28 | 48.25801 | 15.55110 | 89° | 115km/h | 12339m | -14.1m/s | -59.5°C | 39.7% | 0hPa | 2.5V | 08:20:00 | 00:00:00 | 00:00:00 | |
| PG1ADW-2 | 2026-09-05 03:33:27 | 48.25800 | 15.55022 | 89° | 117km/h | 12367m | -14.1m/s | -59.7°C | 45.9% | 0hPa | 2.5V | 00:00:00 | 00:00:00 | 00:00:00 | |
| OE5DRO-10 | 2026-09-05 03:33:26 | 48.25800 | 15.54977 | 90° | 117km/h | 12381m | -13.9m/s | -59.6°C | 45.2% | 0hPa | 2.5V | 00:00:00 | 00:00:00 | 00:00:00 | |
| OE5MMP-10 | 2026-09-05 03:33:23 | 48.25798 | 15.54842 | 90° | 117km/h | 12423m | -13.7m/s | -59.8°C | 43.3% | 0hPa | 2.5V | 00:00:00 | 01:44:40 | 00:00:00 | |
| OE5WHR-10 | 2026-09-05 03:33:22 | 48.25798 | 15.54797 | 90° | 117km/h | 12436m | -13.8m/s | -59.9°C | 42.9% | 0hPa | 2.5V | 00:00:00 | 01:44:39 | 00:00:00 | |
| OE3JTB-15 | 2026-09-05 03:33:19 | 48.25797 | 15.54663 | 91° | 117km/h | 12477m | -13.6m/s | -60.3°C | 41.8% | 0hPa | 2.5V | 00:00:00 | 01:44:36 | 00:00:00 | |
| OE3MUC-15 | 2026-09-05 03:33:18 | 48.25797 | 15.54619 | 92° | 117km/h | 12491m | -14.2m/s | -60.4°C | 41.4% | 0hPa | 2.5V | 00:00:00 | 00:00:00 | 00:00:00 | |
| OE5DXL-15 | 2026-09-05 03:33:16 | 48.25798 | 15.54530 | 92° | 119km/h | 12519m | -13.8m/s | -60.6°C | 40.2% | 0hPa | 2.6V | 00:00:00 | 00:00:00 | 00:00:00 | |
| PETON7-10 | 2026-09-05 03:33:14 | 48.25799 | 15.54442 | 92° | 117km/h | 12548m | -13.9m/s | -60.8°C | 39.0% | 0hPa | 2.6V | 00:00:00 | 00:00:00 | 00:00:00 | |
| OE5MMP-10 | 2026-09-05 03:33:13 | 48.25800 | 15.54397 | 92° | 117km/h | 12562m | -13.7m/s | -61.0°C | 38.2% | 0hPa | 2.5V | 00:00:00 | 01:44:30 | 00:00:00 | |
| OE8JPQ-2 | 2026-09-05 03:33:12 | 48.25801 | 15.54353 | 92° | 119km/h | 12576m | -13.6m/s | -61.1°C | 37.6% | 0hPa | 2.5V | 00:00:00 | 00:00:00 | 00:00:00 | |
| OE3MUC-15 | 2026-09-05 03:33:10 | 48.25801 | 15.54264 | 91° | 115km/h | 12602m | -13.6m/s | -61.3°C | 35.9% | 0hPa | 2.5V | 00:00:00 | 00:00:00 | 00:00:00 | |
| PG1ADW-2 | 2026-09-05 03:33:07 | 48.25801 | 15.54133 | 90° | 119km/h | 12642m | -13.5m/s | -61.6°C | 33.4% | 0hPa | 2.5V | 00:00:00 | 01:44:24 | 00:00:00 | |
| OE3OSB-13 | 2026-09-05 03:33:06 | 48.25799 | 15.54046 | 88° | 115km/h | 12669m | -13.6m/s | -61.6°C | 25.1% | -1.0hPa | 2.5V | 00:00:00 | 00:00:00 | 00:00:00 | |
| OE3MUC-15 | 2026-09-05 03:33:05 | 48.25799 | 15.54046 | 89° | 117km/h | 12669m | -13.5m/s | -61.6°C | 31.9% | 0hPa | 2.5V | 08:20:00 | 00:00:00 | 00:00:00 | |
| OM5KV | 2026-09-05 03:33:04 | 48.25799 | 15.54046 | 90° | 115km/h | 12669m | -13.6m/s | -61.6°C | 25.5% | 0hPa | 2.5V | 08:21:00 | 00:00:00 | 00:00:00 | |
| OE5MMP-10 | 2026-09-05 03:33:03 | 48.25796 | 15.53958 | 86° | 117km/h | 12696m | -14.0m/s | -61.1°C | 29.9% | 0hPa | 2.5V | 00:00:00 | 01:44:20 | 00:00:00 | |
| S52SK | 2026-09-05 03:33:02 | 48.25797 | 15.53958 | 87° | 117km/h | 12696m | -14.0m/s | -61.2°C | 23.8% | 0hPa | 2.5V | 00:00:00 | 00:00:00 | 00:00:00 | |
| OE3MUC-15 | 2026-09-05 03:33:01 | 48.25792 | 15.53871 | 85° | 115km/h | 12725m | -14.5m/s | -60.5°C | 27.0% | 0hPa | 2.5V | 00:00:00 | 00:00:00 | 00:00:00 | |
| PETON7-10 | 2026-09-05 03:32:59 | 48.25786 | 15.53783 | 85° | 120km/h | 12753m | -13.6m/s | -60.7°C | 26.4% | 0hPa | 2.5V | 00:00:00 | 00:00:00 | 00:00:00 | |
| OM5KV | 2026-09-05 03:32:58 | 48.25786 | 15.53783 | 86° | 117km/h | 12753m | -13.6m/s | -60.8°C | 20.7% | 0hPa | 2.5V | 08:21:00 | 00:00:00 | 00:00:00 | |
| OE3MUC-15 | 2026-09-05 03:32:57 | 48.25782 | 15.53697 | 87° | 117km/h | 12781m | -13.8m/s | -60.9°C | 25.3% | 0hPa | 2.5V | 00:00:00 | 00:00:00 | 00:00:00 | |
| OM5KV | 2026-09-05 03:32:54 | 48.25779 | 15.53609 | 89° | 119km/h | 12810m | -14.1m/s | -60.9°C | 18.6% | 0hPa | 2.5V | 08:21:00 | 00:00:00 | 00:00:00 | |
| OE3MUC-15 | 2026-09-05 03:32:53 | 48.25776 | 15.53519 | 88° | 122km/h | 12837m | -14.0m/s | -61.0°C | 23.3% | 0hPa | 2.5V | 00:00:00 | 00:00:00 | 00:00:00 | |
| OE3JTB-15 | 2026-09-05 03:32:50 | 48.25770 | 15.53381 | 86° | 128km/h | 12878m | -14.1m/s | -61.1°C | 22.3% | 0hPa | 2.6V | 08:20:00 | 00:00:00 | 00:00:00 | |
| OE3MUC-15 | 2026-09-05 03:32:49 | 48.25768 | 15.53334 | 86° | 126km/h | 12892m | -14.3m/s | -60.9°C | 21.3% | 0hPa | 2.5V | 00:00:00 | 00:00:00 | 00:00:00 | |
| OE5DRO-10 | 2026-09-05 03:32:48 | 48.25766 | 15.53287 | 86° | 130km/h | 12906m | -14.2m/s | -61.0°C | 21.0% | 0hPa | 2.5V | 08:20:00 | 00:00:00 | 00:00:00 | |
| PG1ADW-2 | 2026-09-05 03:32:47 | 48.25764 | 15.53240 | 86° | 130km/h | 12920m | -13.6m/s | -61.0°C | 20.6% | 0hPa | 2.5V | 08:20:00 | 00:00:00 | 00:00:00 | |
| OE5DXL-15 | 2026-09-05 03:32:46 | 48.25761 | 15.53192 | 86° | 128km/h | 12934m | -13.9m/s | -61.1°C | 20.4% | 0hPa | 2.5V | 00:00:00 | 00:00:00 | 00:00:00 | |
| OE3MUC-15 | 2026-09-05 03:32:45 | 48.25758 | 15.53145 | 86° | 126km/h | 12948m | -14.2m/s | -61.2°C | 20.1% | 0hPa | 2.5V | 00:00:00 | 00:00:00 | 00:00:00 | |
| PETON7-10 | 2026-09-05 03:32:44 | 48.25756 | 15.53097 | 86° | 131km/h | 12962m | -14.0m/s | -61.3°C | 19.9% | 0hPa | 2.5V | 00:00:00 | 01:44:01 | 00:00:00 | |
| OE5MMP-10 | 2026-09-05 03:32:43 | 48.25753 | 15.53049 | 86° | 131km/h | 12975m | -13.2m/s | -61.2°C | 19.5% | 0hPa | 2.5V | 00:00:00 | 01:44:00 | 00:00:00 | |
| OM5KV | 2026-09-05 03:32:42 | 48.25753 | 15.53049 | 86° | 128km/h | 12975m | -13.2m/s | -61.3°C | 14.4% | 0hPa | 2.5V | 08:21:00 | 00:00:00 | 00:00:00 | |
| OE3MUC-15 | 2026-09-05 03:32:41 | 48.25747 | 15.52953 | 86° | 131km/h | 13002m | -13.7m/s | -61.2°C | 18.8% | 0hPa | 2.5V | 00:00:00 | 00:00:00 | 00:00:00 | |
| OE5WHR-10 | 2026-09-05 03:32:40 | 48.25745 | 15.52904 | 86° | 128km/h | 13016m | -14.1m/s | -61.3°C | 18.8% | 0hPa | 2.5V | 00:00:00 | 00:00:00 | 00:00:00 | |
| OE3MUC-15 | 2026-09-05 03:32:37 | 48.25738 | 15.52755 | 87° | 133km/h | 13057m | -13.3m/s | -61.3°C | 18.6% | 0hPa | 2.5V | 00:00:00 | 00:00:00 | 00:00:00 | |
| OE3OSB-13 | 2026-09-05 03:32:35 | 48.25731 | 15.52605 | 85° | 131km/h | 13096m | -14.2m/s | -60.9°C | 12.3% | -1.0hPa | 2.5V | 00:00:00 | 00:00:00 | 00:00:00 | |
| OE5MMP-10 | 2026-09-05 03:32:33 | 48.25729 | 15.52555 | 86° | 128km/h | 13111m | -14.3m/s | -60.9°C | 17.3% | 0hPa | 2.5V | 00:00:00 | 01:43:50 | 00:00:00 | |
| OE3MUC-15 | 2026-09-05 03:32:32 | 48.25727 | 15.52505 | 87° | 130km/h | 13125m | -14.6m/s | -60.9°C | 17.2% | 0hPa | 2.5V | 00:00:00 | 00:00:00 | 00:00:00 | |
| OM5KV | 2026-09-05 03:32:31 | 48.25727 | 15.52505 | 87° | 133km/h | 13125m | -14.7m/s | -61.0°C | 12.3% | 0hPa | 2.5V | 08:21:00 | 00:00:00 | 00:00:00 | |
| PETON7-10 | 2026-09-05 03:32:29 | 48.25721 | 15.52357 | 88° | 124km/h | 13167m | -14.1m/s | -61.0°C | 16.7% | 0hPa | 2.5V | 00:00:00 | 00:00:00 | 00:00:00 | |
| OE3MUC-15 | 2026-09-05 03:32:28 | 48.25720 | 15.52309 | 89° | 124km/h | 13181m | -14.1m/s | -61.0°C | 16.6% | 0hPa | 2.5V | 08:21:00 | 00:00:00 | 00:00:00 | |
| OE8JPQ-2 | 2026-09-05 03:32:27 | 48.25719 | 15.52262 | 89° | 122km/h | 13195m | -13.7m/s | -61.1°C | 16.7% | 0hPa | 2.5V | 00:00:00 | 00:00:00 | 00:00:00 | |
| OE3MUC-15 | 2026-09-05 03:32:24 | 48.25719 | 15.52122 | 91° | 122km/h | 13237m | -13.6m/s | -61.0°C | 16.2% | 0hPa | 2.5V | 00:00:00 | 00:00:00 | 00:00:00 | |
| OE5MMP-10 | 2026-09-05 03:32:23 | 48.25719 | 15.52076 | 91° | 122km/h | 13251m | -13.9m/s | -61.0°C | 16.1% | 0hPa | 2.5V | 00:00:00 | 01:43:40 | 00:00:00 | |
| OE3JTB-15 | 2026-09-05 03:32:21 | 48.25720 | 15.51984 | 91° | 120km/h | 13280m | -14.8m/s | -60.8°C | 15.1% | 0hPa | 2.5V | 00:00:00 | 00:00:00 | 00:00:00 | |
| OE3MUC-15 | 2026-09-05 03:32:20 | 48.25720 | 15.51937 | 91° | 122km/h | 13294m | -14.3m/s | -60.6°C | 14.6% | 0hPa | 2.5V | 00:00:00 | 00:00:00 | 00:00:00 | |
| OE5WHR-10 | 2026-09-05 03:32:19 | 48.25720 | 15.51891 | 91° | 122km/h | 13308m | -13.7m/s | -60.5°C | 14.0% | 0hPa | 2.5V | 00:00:00 | 01:43:36 | 00:00:00 | |
| OE5DXL-15 | 2026-09-05 03:32:16 | 48.25721 | 15.51752 | 91° | 120km/h | 13351m | -13.4m/s | -60.4°C | 13.5% | 0hPa | 2.5V | 00:00:00 | 00:00:00 | 00:00:00 | |
| PETON7-10 | 2026-09-05 03:32:14 | 48.25722 | 15.51658 | 92° | 120km/h | 13377m | -13.7m/s | -60.0°C | 12.7% | 0hPa | 2.5V | 00:00:00 | 00:00:00 | 00:00:00 | |
| OE5MMP-10 | 2026-09-05 03:32:13 | 48.25723 | 15.51611 | 92° | 122km/h | 13391m | -14.1m/s | -59.9°C | 12.5% | 0hPa | 2.5V | 00:00:00 | 01:43:30 | 00:00:00 | |
| OE3MUC-15 | 2026-09-05 03:32:12 | 48.25724 | 15.51565 | 92° | 122km/h | 13405m | -13.5m/s | -59.8°C | 12.3% | 0hPa | 2.5V | 00:00:00 | 00:00:00 | 00:00:00 | |
| OM5KV | 2026-09-05 03:32:11 | 48.25724 | 15.51565 | 93° | 122km/h | 13405m | -13.6m/s | -59.9°C | 8.4% | 0hPa | 2.5V | 08:22:00 | 00:00:00 | 00:00:00 | |
| OE5DRO-10 | 2026-09-05 03:32:10 | 48.25727 | 15.51473 | 93° | 119km/h | 13433m | -14.0m/s | -59.8°C | 11.9% | 0hPa | 2.5V | 00:00:00 | 00:00:00 | 00:00:00 | |
| OE3MUC-15 | 2026-09-05 03:32:08 | 48.25730 | 15.51380 | 93° | 122km/h | 13461m | -14.7m/s | -60.0°C | 12.0% | 0hPa | 2.5V | 00:00:00 | 00:00:00 | 00:00:00 | |
| PG1ADW-2 | 2026-09-05 03:32:07 | 48.25732 | 15.51333 | 93° | 119km/h | 13476m | -15.6m/s | -60.1°C | 12.0% | 0hPa | 2.5V | 00:00:00 | 00:00:00 | 00:00:00 | |
| DO3MHA-12 | 2026-09-05 03:32:06 | 48.25734 | 15.51287 | 94° | 119km/h | 13492m | -16.1m/s | -60.3°C | 12.1% | 0hPa | 2.5V | 00:00:00 | 01:43:23 | 00:00:00 | |
| OE3MUC-15 | 2026-09-05 03:32:04 | 48.25737 | 15.51195 | 93° | 119km/h | 13522m | -14.3m/s | -60.6°C | 12.1% | 0hPa | 2.5V | 00:00:00 | 00:00:00 | 00:00:00 | |
| OE5MMP-10 | 2026-09-05 03:32:03 | 48.25739 | 15.51149 | 93° | 117km/h | 13536m | -14.1m/s | -60.7°C | 12.1% | 0hPa | 2.5V | 08:21:00 | 01:43:20 | 00:00:00 | |
| OE3MUC-15 | 2026-09-05 03:32:00 | 48.25744 | 15.51015 | 94° | 119km/h | 13579m | -14.5m/s | -61.1°C | 11.8% | 0hPa | 2.5V | 00:00:00 | 00:00:00 | 00:00:00 | |
| PETON7-10 | 2026-09-05 03:31:59 | 48.25746 | 15.50970 | 94° | 117km/h | 13593m | -14.6m/s | -61.2°C | 11.7% | 0hPa | 2.5V | 00:00:00 | 01:43:16 | 00:00:00 | |
| OE5WHR-10 | 2026-09-05 03:31:58 | 48.25748 | 15.50925 | 94° | 117km/h | 13607m | -15.0m/s | -61.3°C | 11.7% | 0hPa | 2.5V | 00:00:00 | 00:00:00 | 00:00:00 | |
| DO3MHA-12 | 2026-09-05 03:31:56 | 48.25751 | 15.50836 | 92° | 119km/h | 13637m | -15.1m/s | -61.5°C | 11.7% | 0hPa | 2.5V | 00:00:00 | 01:43:13 | 00:00:00 | |
| OM5KV | 2026-09-05 03:31:54 | 48.25751 | 15.50792 | 93° | 115km/h | 13652m | -15.0m/s | -61.5°C | 7.3% | 0hPa | 2.5V | 08:22:00 | 00:00:00 | 00:00:00 | |
| OE5MMP-10 | 2026-09-05 03:31:53 | 48.25752 | 15.50704 | 91° | 119km/h | 13682m | -13.6m/s | -61.1°C | 10.9% | 0hPa | 2.5V | 00:00:00 | 01:43:10 | 00:00:00 | |
| OE3MUC-15 | 2026-09-05 03:31:52 | 48.25753 | 15.50659 | 90° | 119km/h | 13695m | -13.8m/s | -61.1°C | 10.7% | 0hPa | 2.5V | 08:21:00 | 00:00:00 | 00:00:00 | |
| OE5DRO-10 | 2026-09-05 03:31:51 | 48.25753 | 15.50614 | 90° | 117km/h | 13709m | -14.9m/s | -61.2°C | 10.5% | 0hPa | 2.5V | 00:00:00 | 00:00:00 | 00:00:00 | |
| OE3MUC-15 | 2026-09-05 03:31:48 | 48.25752 | 15.50479 | 90° | 119km/h | 13754m | -14.2m/s | -61.5°C | 10.3% | 0hPa | 2.5V | 00:00:00 | 00:00:00 | 00:00:00 | |
| OE8JPQ-2 | 2026-09-05 03:31:47 | 48.25751 | 15.50434 | 90° | 115km/h | 13768m | -14.8m/s | -61.6°C | 10.3% | 0hPa | 2.5V | 00:00:00 | 01:43:04 | 00:00:00 | |
| OE5DXL-15 | 2026-09-05 03:31:46 | 48.25751 | 15.50389 | 89° | 113km/h | 13783m | -14.2m/s | -61.7°C | 10.3% | 0hPa | 2.5V | 00:00:00 | 00:00:00 | 00:00:00 | |
| OM5KV | 2026-09-05 03:31:45 | 48.25751 | 15.50389 | 90° | 119km/h | 13783m | -14.3m/s | -61.8°C | 5.9% | 0hPa | 2.5V | 08:22:00 | 00:00:00 | 00:00:00 | |
| OE3MUC-15 | 2026-09-05 03:31:44 | 48.25749 | 15.50299 | 89° | 119km/h | 13810m | -13.0m/s | -61.7°C | 10.3% | 0hPa | 2.5V | 00:00:00 | 01:43:01 | 00:00:00 | |
| OE5MMP-10 | 2026-09-05 03:31:43 | 48.25748 | 15.50254 | 89° | 117km/h | 13823m | -13.3m/s | -61.4°C | 9.9% | 0hPa | 2.5V | 00:00:00 | 01:43:00 | 00:00:00 | |
| OM5KV | 2026-09-05 03:31:42 | 48.25748 | 15.50254 | 89° | 119km/h | 13823m | -13.4m/s | -61.4°C | 5.6% | 0hPa | 2.5V | 08:22:00 | 00:00:00 | 00:00:00 | |
| OE5WHR-10 | 2026-09-05 03:31:37 | 48.25742 | 15.49986 | 89° | 111km/h | 13901m | -12.7m/s | -60.3°C | 9.1% | 0hPa | 2.5V | 00:00:00 | 00:00:00 | 00:00:00 | |
| DO3MHA-12 | 2026-09-05 03:31:34 | 48.25740 | 15.49856 | 89° | 111km/h | 13941m | -13.7m/s | -59.3°C | 8.3% | 0hPa | 2.5V | 00:00:00 | 01:42:51 | 00:00:00 | |
| OE5MMP-10 | 2026-09-05 03:31:33 | 48.25740 | 15.49812 | 89° | 111km/h | 13955m | -14.0m/s | -59.3°C | 8.3% | 0hPa | 2.5V | 00:00:00 | 01:42:50 | 00:00:00 | |
| OE5DRO-10 | 2026-09-05 03:31:32 | 48.25739 | 15.49770 | 89° | 110km/h | 13969m | -14.1m/s | -59.3°C | 8.2% | 0hPa | 2.5V | 00:00:00 | 00:00:00 | 00:00:00 | |
| PETON7-10 | 2026-09-05 03:31:29 | 48.25739 | 15.49642 | 90° | 110km/h | 14010m | -13.6m/s | -58.9°C | 8.0% | 0hPa | 2.5V | 00:00:00 | 00:00:00 | 00:00:00 | |
| OM5KV | 2026-09-05 03:31:28 | 48.25739 | 15.49642 | 91° | 113km/h | 14010m | -13.7m/s | -59.0°C | 4.4% | 0hPa | 2.5V | 08:22:00 | 00:00:00 | 00:00:00 | |
| PG1ADW-2 | 2026-09-05 03:31:27 | 48.25739 | 15.49557 | 91° | 108km/h | 14038m | -14.7m/s | -58.6°C | 7.7% | 0hPa | 2.5V | 00:00:00 | 00:00:00 | 00:00:00 | |
| DO3MHA-12 | 2026-09-05 03:31:24 | 48.25740 | 15.49432 | 91° | 108km/h | 14080m | -14.1m/s | -58.0°C | 7.3% | 0hPa | 2.5V | 00:00:00 | 01:42:41 | 00:00:00 | |
| OE5MMP-10 | 2026-09-05 03:31:23 | 48.25740 | 15.49392 | 91° | 110km/h | 14095m | -16.1m/s | -57.9°C | 7.3% | 0hPa | 2.5V | 00:00:00 | 01:42:40 | 00:00:00 | |
| OM5KV | 2026-09-05 03:31:22 | 48.25740 | 15.49392 | 92° | 108km/h | 14095m | -16.1m/s | -57.9°C | 4.0% | 0hPa | 2.5V | 08:22:00 | 00:00:00 | 00:00:00 | |
| OE3MUC-15 | 2026-09-05 03:31:20 | 48.25741 | 15.49267 | 92° | 108km/h | 14138m | -14.4m/s | -57.6°C | 7.0% | 0hPa | 2.5V | 00:00:00 | 00:00:00 | 00:00:00 | |
| OE5DXL-15 | 2026-09-05 03:31:16 | 48.25745 | 15.49103 | 93° | 100km/h | 14197m | -14.2m/s | -57.2°C | 6.8% | 0hPa | 2.5V | 08:22:00 | 00:00:00 | 00:00:00 | |
| PETON7-10 | 2026-09-05 03:31:14 | 48.25748 | 15.49021 | 93° | 104km/h | 14225m | -15.4m/s | -57.0°C | 6.7% | 0hPa | 2.5V | 00:00:00 | 01:42:31 | 00:00:00 | |
| OE5MMP-10 | 2026-09-05 03:31:13 | 48.25749 | 15.48980 | 94° | 104km/h | 14241m | -14.2m/s | -57.1°C | 6.7% | 0hPa | 2.5V | 00:00:00 | 01:42:30 | 00:00:00 | |
| OE3MUC-15 | 2026-09-05 03:31:12 | 48.25751 | 15.48940 | 95° | 106km/h | 14255m | -14.0m/s | -57.2°C | 6.7% | 0hPa | 2.5V | 00:00:00 | 00:00:00 | 00:00:00 | |
| OM5KV | 2026-09-05 03:31:11 | 48.25751 | 15.48940 | 96° | 106km/h | 14255m | -14.1m/s | -57.2°C | 3.6% | 0hPa | 2.5V | 08:22:00 | 00:00:00 | 00:00:00 | |
| OE3MUC-15 | 2026-09-05 03:31:08 | 48.25760 | 15.48780 | 95° | 104km/h | 14310m | -15.3m/s | -57.3°C | 6.8% | 0hPa | 2.5V | 00:00:00 | 00:00:00 | 00:00:00 | |
| OE8JPQ-2 | 2026-09-05 03:31:07 | 48.25763 | 15.48740 | 96° | 97km/h | 14325m | -15.6m/s | -57.1°C | 6.7% | 0hPa | 2.5V | 00:00:00 | 00:00:00 | 00:00:00 | |
| OM5KV | 2026-09-05 03:31:05 | 48.25766 | 15.48701 | 97° | 104km/h | 14341m | -15.2m/s | -56.9°C | 3.5% | 0hPa | 2.5V | 08:22:00 | 00:00:00 | 00:00:00 | |
| OE3MUC-15 | 2026-09-05 03:31:04 | 48.25771 | 15.48625 | 97° | 100km/h | 14372m | -16.4m/s | -56.7°C | 6.4% | 0hPa | 2.5V | 00:00:00 | 00:00:00 | 00:00:00 | |
| OE5MMP-10 | 2026-09-05 03:31:03 | 48.25774 | 15.48586 | 96° | 99km/h | 14387m | -15.7m/s | -56.8°C | 6.4% | 0hPa | 2.6V | 00:00:00 | 01:42:20 | 00:00:00 | |
| OE3OSB-13 | 2026-09-05 03:31:02 | 48.25780 | 15.48511 | 96° | 99km/h | 14419m | -15.6m/s | -57.1°C | 3.3% | -1.0hPa | 2.5V | 00:00:00 | 00:00:00 | 00:00:00 | |
| DO3MHA-12 | 2026-09-05 03:31:00 | 48.25782 | 15.48473 | 96° | 95km/h | 14434m | -15.6m/s | -57.2°C | 6.5% | 0hPa | 2.5V | 00:00:00 | 01:42:17 | 00:00:00 | |
| PETON7-10 | 2026-09-05 03:30:59 | 48.25785 | 15.48436 | 95° | 93km/h | 14450m | -14.5m/s | -57.3°C | 6.5% | 0hPa | 2.5V | 00:00:00 | 00:00:00 | 00:00:00 | |
| OE3MUC-15 | 2026-09-05 03:30:56 | 48.25790 | 15.48325 | 96° | 95km/h | 14496m | -13.7m/s | -57.3°C | 6.5% | 0hPa | 2.5V | 00:00:00 | 00:00:00 | 00:00:00 | |
| OE5WHR-10 | 2026-09-05 03:30:55 | 48.25792 | 15.48289 | 95° | 91km/h | 14510m | -14.4m/s | -57.3°C | 6.4% | 0hPa | 2.5V | 08:22:00 | 00:00:00 | 00:00:00 | |
| OE3JTB-15 | 2026-09-05 03:30:54 | 48.25794 | 15.48253 | 95° | 89km/h | 14525m | -13.8m/s | -57.3°C | 6.5% | 0hPa | 2.5V | 00:00:00 | 00:00:00 | 00:00:00 | |
| OE5MMP-10 | 2026-09-05 03:30:53 | 48.25796 | 15.48217 | 95° | 91km/h | 14540m | -15.0m/s | -57.3°C | 6.4% | 0hPa | 2.5V | 00:00:00 | 01:42:10 | 00:00:00 | |
| OE3MUC-15 | 2026-09-05 03:30:52 | 48.25797 | 15.48182 | 95° | 91km/h | 14555m | -13.5m/s | -57.4°C | 6.4% | 0hPa | 2.5V | 00:00:00 | 00:00:00 | 00:00:00 | |
| DO3MHA-12 | 2026-09-05 03:30:50 | 48.25800 | 15.48113 | 94° | 89km/h | 14584m | -14.5m/s | -57.5°C | 6.4% | 0hPa | 2.5V | 00:00:00 | 01:42:07 | 00:00:00 | |
| OE3MUC-15 | 2026-09-05 03:30:48 | 48.25803 | 15.48045 | 95° | 89km/h | 14613m | -14.6m/s | -57.5°C | 6.4% | 0hPa | 2.5V | 00:00:00 | 00:00:00 | 00:00:00 | |
| PG1ADW-2 | 2026-09-05 03:30:47 | 48.25805 | 15.48011 | 96° | 89km/h | 14629m | -14.9m/s | -57.6°C | 6.4% | 0hPa | 2.5V | 00:00:00 | 00:00:00 | 00:00:00 | |
| OE5DXL-15 | 2026-09-05 03:30:46 | 48.25807 | 15.47977 | 96° | 88km/h | 14644m | -14.3m/s | -57.6°C | 6.4% | 0hPa | 2.5V | 00:00:00 | 00:00:00 | 00:00:00 | |
| PETON7-10 | 2026-09-05 03:30:44 | 48.25811 | 15.47909 | 96° | 89km/h | 14673m | -14.4m/s | -57.7°C | 6.4% | 0hPa | 2.5V | 00:00:00 | 00:00:00 | 00:00:00 | |
| OE5MMP-10 | 2026-09-05 03:30:43 | 48.25813 | 15.47874 | 96° | 89km/h | 14688m | -14.3m/s | -57.8°C | 6.4% | 0hPa | 2.5V | 00:00:00 | 01:42:00 | 00:00:00 | |
| OM5KV | 2026-09-05 03:30:41 | 48.25816 | 15.47840 | 97° | 89km/h | 14702m | -14.8m/s | -57.9°C | 3.3% | 0hPa | 2.5V | 08:23:00 | 00:00:00 | 00:00:00 | |
| OE3MUC-15 | 2026-09-05 03:30:40 | 48.25821 | 15.47772 | 96° | 91km/h | 14732m | -15.3m/s | -58.0°C | 6.3% | 0hPa | 2.5V | 08:22:00 | 00:00:00 | 00:00:00 | |
| OM5KV | 2026-09-05 03:30:39 | 48.25821 | 15.47772 | 96° | 89km/h | 14732m | -15.4m/s | -58.1°C | 3.2% | 0hPa | 2.6V | 08:23:00 | 00:00:00 | 00:00:00 | |
| OE3MUC-15 | 2026-09-05 03:30:36 | 48.25829 | 15.47635 | 98° | 89km/h | 14797m | -17.2m/s | -58.4°C | 6.4% | 0hPa | 2.6V | 00:00:00 | 00:00:00 | 00:00:00 | |
| OE5DRO-10 | 2026-09-05 03:30:35 | 48.25832 | 15.47601 | 97° | 86km/h | 14813m | -16.0m/s | -58.6°C | 6.5% | 0hPa | 2.6V | 00:00:00 | 00:00:00 | 00:00:00 | |
| OE5WHR-10 | 2026-09-05 03:30:34 | 48.25834 | 15.47567 | 98° | 86km/h | 14829m | -16.0m/s | -58.7°C | 6.5% | 0hPa | 2.6V | 00:00:00 | 00:00:00 | 00:00:00 | |
| OE5MMP-10 | 2026-09-05 03:30:33 | 48.25837 | 15.47533 | 97° | 89km/h | 14845m | -15.1m/s | -58.7°C | 6.5% | 0hPa | 2.6V | 08:23:00 | 01:41:50 | 00:00:00 | |
| OE3MUC-15 | 2026-09-05 03:30:32 | 48.25840 | 15.47499 | 98° | 89km/h | 14861m | -16.3m/s | -58.6°C | 6.4% | 0hPa | 2.6V | 00:00:00 | 00:00:00 | 00:00:00 | |
| OE3OSB-13 | 2026-09-05 03:30:31 | 48.25846 | 15.47432 | 98° | 88km/h | 14893m | -16.1m/s | -58.3°C | 2.8% | -1.0hPa | 2.6V | 00:00:00 | 00:00:00 | 00:00:00 | |
| DO3MHA-12 | 2026-09-05 03:30:30 | 48.25846 | 15.47432 | 99° | 86km/h | 14893m | -16.0m/s | -58.2°C | 6.1% | 0hPa | 2.6V | 00:00:00 | 01:41:47 | 00:00:00 | |
| PETON7-10 | 2026-09-05 03:30:29 | 48.25849 | 15.47398 | 99° | 86km/h | 14909m | -14.8m/s | -58.2°C | 6.1% | 0hPa | 2.6V | 00:00:00 | 01:41:46 | 00:00:00 | |
| OE3MUC-15 | 2026-09-05 03:30:28 | 48.25853 | 15.47365 | 100° | 88km/h | 14925m | -16.0m/s | -58.2°C | 6.0% | 0hPa | 2.6V | 00:00:00 | 00:00:00 | 00:00:00 | |
| OE8JPQ-2 | 2026-09-05 03:30:27 | 48.25856 | 15.47331 | 100° | 82km/h | 14941m | -16.3m/s | -58.2°C | 6.0% | 0hPa | 2.6V | 00:00:00 | 00:00:00 | 00:00:00 | |
| OE3JTB-15 | 2026-09-05 03:30:25 | 48.25863 | 15.47265 | 100° | 80km/h | 14974m | -17.3m/s | -58.2°C | 5.9% | 0hPa | 2.6V | 00:00:00 | 01:41:42 | 00:00:00 | |
| OE3MUC-15 | 2026-09-05 03:30:24 | 48.25867 | 15.47232 | 100° | 84km/h | 14991m | -16.6m/s | -58.3°C | 6.1% | 0hPa | 2.6V | 00:00:00 | 00:00:00 | 00:00:00 | |
| OE5MMP-10 | 2026-09-05 03:30:23 | 48.25870 | 15.47201 | 100° | 82km/h | 15007m | -15.9m/s | -58.4°C | 6.1% | 0hPa | 2.6V | 00:00:00 | 01:41:40 | 00:00:00 | |
| DO3MHA-12 | 2026-09-05 03:30:20 | 48.25880 | 15.47107 | 100° | 82km/h | 15055m | -15.3m/s | -58.2°C | 5.9% | 0hPa | 2.6V | 00:00:00 | 01:41:37 | 00:00:00 | |
| OE3MUC-15 | 2026-09-05 03:30:16 | 48.25891 | 15.46983 | 96° | 82km/h | 15122m | -16.2m/s | -58.3°C | 5.9% | 0hPa | 2.6V | 00:00:00 | 00:00:00 | 00:00:00 | |
| OM5KV | 2026-09-05 03:30:14 | 48.25893 | 15.46952 | 98° | 82km/h | 15139m | -14.5m/s | -58.5°C | 2.8% | 0hPa | 2.6V | 08:23:00 | 00:00:00 | 00:00:00 | |
| OE5WHR-10 | 2026-09-05 03:30:13 | 48.25897 | 15.46890 | 95° | 77km/h | 15168m | -14.3m/s | -58.6°C | 6.1% | 0hPa | 2.6V | 00:00:00 | 01:41:30 | 00:00:00 | |
| OE3MUC-15 | 2026-09-05 03:30:12 | 48.25898 | 15.46860 | 93° | 78km/h | 15182m | -13.6m/s | -58.5°C | 6.0% | 0hPa | 2.6V | 00:00:00 | 00:00:00 | 00:00:00 | |
| DO3MHA-12 | 2026-09-05 03:30:10 | 48.25899 | 15.46801 | 92° | 77km/h | 15210m | -13.9m/s | -58.4°C | 5.9% | 0hPa | 2.6V | 00:00:00 | 01:41:27 | 00:00:00 | |
| OE3MUC-15 | 2026-09-05 03:30:08 | 48.25899 | 15.46741 | 89° | 77km/h | 15238m | -14.2m/s | -58.5°C | 5.9% | 0hPa | 2.6V | 00:00:00 | 00:00:00 | 00:00:00 | |
| PG1ADW-2 | 2026-09-05 03:30:07 | 48.25898 | 15.46712 | 88° | 77km/h | 15253m | -14.4m/s | -58.6°C | 5.9% | 0hPa | 2.6V | 00:00:00 | 00:00:00 | 00:00:00 | |
| S52SK | 2026-09-05 03:30:06 | 48.25898 | 15.46712 | 88° | 77km/h | 15253m | -14.4m/s | -58.6°C | 2.7% | 0hPa | 2.6V | 00:00:00 | 00:00:00 | 00:00:00 | |
| OM5KV | 2026-09-05 03:30:05 | 48.25897 | 15.46682 | 87° | 77km/h | 15267m | -14.0m/s | -58.6°C | 2.7% | 0hPa | 2.6V | 08:23:00 | 00:00:00 | 00:00:00 | |
| OE3MUC-15 | 2026-09-05 03:30:04 | 48.25893 | 15.46626 | 81° | 75km/h | 15298m | -15.2m/s | -58.1°C | 5.7% | 0hPa | 2.6V | 08:23:00 | 00:00:00 | 00:00:00 | |
| OE5MMP-10 | 2026-09-05 03:30:03 | 48.25890 | 15.46598 | 80° | 77km/h | 15313m | -14.5m/s | -57.9°C | 5.5% | 0hPa | 2.6V | 00:00:00 | 01:41:20 | 00:00:00 | |
| SP3BTT-10 | 2026-09-05 03:30:01 | 48.25883 | 15.46542 | 80° | 77km/h | 15342m | -16.1m/s | -57.6°C | 5.3% | 0hPa | 2.5V | 00:00:00 | 00:00:00 | 00:00:00 | |
| OE3MUC-15 | 2026-09-05 03:30:00 | 48.25879 | 15.46514 | 78° | 77km/h | 15358m | -16.1m/s | -57.6°C | 5.3% | 0hPa | 2.5V | 00:00:00 | 00:00:00 | 00:00:00 | |
| PETON7-10 | 2026-09-05 03:29:59 | 48.25874 | 15.46486 | 77° | 77km/h | 15373m | -15.0m/s | -57.6°C | 5.3% | 0hPa | 2.5V | 00:00:00 | 00:00:00 | 00:00:00 | |
| OE5DRO-10 | 2026-09-05 03:29:57 | 48.25865 | 15.46430 | 77° | 77km/h | 15403m | -15.3m/s | -57.8°C | 5.3% | 0hPa | 2.5V | 08:23:00 | 00:00:00 | 00:00:00 | |
| OE3MUC-15 | 2026-09-05 03:29:56 | 48.25860 | 15.46402 | 78° | 77km/h | 15419m | -16.8m/s | -58.0°C | 5.3% | 0hPa | 2.6V | 00:00:00 | 00:00:00 | 00:00:00 | |
| OE5MMP-10 | 2026-09-05 03:29:53 | 48.25849 | 15.46316 | 78° | 77km/h | 15470m | -15.2m/s | -58.4°C | 5.6% | 0hPa | 2.6V | 00:00:00 | 01:41:10 | 00:00:00 | |
| OE3MUC-15 | 2026-09-05 03:29:52 | 48.25845 | 15.46288 | 79° | 78km/h | 15485m | -16.5m/s | -58.5°C | 5.6% | 0hPa | 2.6V | 00:00:00 | 00:00:00 | 00:00:00 | |
| OM5KV | 2026-09-05 03:29:51 | 48.25845 | 15.46288 | 80° | 77km/h | 15485m | -16.5m/s | -58.6°C | 2.5% | 0hPa | 2.6V | 08:23:00 | 00:00:00 | 00:00:00 | |
| DO3MHA-12 | 2026-09-05 03:29:50 | 48.25838 | 15.46230 | 82° | 77km/h | 15516m | -14.4m/s | -58.7°C | 5.7% | 0hPa | 2.6V | 00:00:00 | 01:41:07 | 00:00:00 | |
| OE3MUC-15 | 2026-09-05 03:29:48 | 48.25833 | 15.46172 | 82° | 75km/h | 15545m | -15.0m/s | -58.9°C | 5.7% | 0hPa | 2.6V | 00:00:00 | 00:00:00 | 00:00:00 | |
| PG1ADW-2 | 2026-09-05 03:29:47 | 48.25830 | 15.46144 | 83° | 75km/h | 15561m | -16.2m/s | -58.9°C | 5.8% | 0hPa | 2.6V | 08:23:00 | 00:00:00 | 00:00:00 | |
| OE5DXL-15 | 2026-09-05 03:29:46 | 48.25828 | 15.46116 | 85° | 69km/h | 15578m | -16.7m/s | -59.1°C | 5.8% | 0hPa | 2.6V | 00:00:00 | 00:00:00 | 00:00:00 | |
| OM5KV | 2026-09-05 03:29:45 | 48.25828 | 15.46116 | 85° | 75km/h | 15578m | -16.8m/s | -59.1°C | 2.5% | 0hPa | 2.6V | 08:24:00 | 00:00:00 | 00:00:00 | |
| PETON7-10 | 2026-09-05 03:29:44 | 48.25824 | 15.46060 | 85° | 75km/h | 15612m | -16.3m/s | -59.2°C | 5.9% | 0hPa | 2.6V | 00:00:00 | 01:41:01 | 00:00:00 | |
| OE5MMP-10 | 2026-09-05 03:29:43 | 48.25822 | 15.46031 | 85° | 77km/h | 15628m | -16.3m/s | -59.3°C | 5.9% | 0hPa | 2.6V | 00:00:00 | 01:41:00 | 00:00:00 | |
| OM5KV | 2026-09-05 03:29:42 | 48.25822 | 15.46031 | 86° | 77km/h | 15628m | -16.3m/s | -59.4°C | 2.6% | 0hPa | 2.6V | 08:24:00 | 00:00:00 | 00:00:00 | |
| DO3MHA-12 | 2026-09-05 03:29:40 | 48.25817 | 15.45945 | 85° | 75km/h | 15678m | -16.6m/s | -59.5°C | 6.0% | 0hPa | 2.6V | 00:00:00 | 01:40:57 | 00:00:00 | |
| OE5DRO-10 | 2026-09-05 03:29:38 | 48.25813 | 15.45887 | 85° | 68km/h | 15713m | -17.3m/s | -59.5°C | 6.0% | 0hPa | 2.5V | 00:00:00 | 00:00:00 | 00:00:00 | |
| OM5KV | 2026-09-05 03:29:35 | 48.25809 | 15.45830 | 86° | 77km/h | 15748m | -17.8m/s | -59.5°C | 2.6% | 0hPa | 2.5V | 08:24:00 | 00:00:00 | 00:00:00 | |
| OE5MMP-10 | 2026-09-05 03:29:33 | 48.25806 | 15.45745 | 87° | 69km/h | 15801m | -19.9m/s | -59.3°C | 5.9% | 0hPa | 2.5V | 00:00:00 | 01:40:50 | 00:00:00 | |
| OE5WHR-10 | 2026-09-05 03:29:31 | 48.25804 | 15.45689 | 89° | 62km/h | 15839m | -16.7m/s | -59.3°C | 5.9% | 0hPa | 2.6V | 00:00:00 | 00:00:00 | 00:00:00 | |
| DO3MHA-12 | 2026-09-05 03:29:30 | 48.25804 | 15.45662 | 91° | 64km/h | 15855m | -14.6m/s | -59.3°C | 5.9% | 0hPa | 2.6V | 00:00:00 | 01:40:47 | 00:00:00 | |
| PETON7-10 | 2026-09-05 03:29:29 | 48.25804 | 15.45634 | 92° | 60km/h | 15870m | -14.3m/s | -59.3°C | 5.9% | 0hPa | 2.6V | 08:24:00 | 00:00:00 | 00:00:00 | |
| OE3OSB-13 | 2026-09-05 03:29:28 | 48.25804 | 15.45608 | 90° | 69km/h | 15886m | -17.4m/s | -59.2°C | 2.2% | -1.0hPa | 2.5V | 00:00:00 | 00:00:00 | 00:00:00 | |
| PG1ADW-2 | 2026-09-05 03:29:27 | 48.25804 | 15.45582 | 93° | 60km/h | 15904m | -17.4m/s | -59.1°C | 5.7% | 0hPa | 2.5V | 00:00:00 | 00:00:00 | 00:00:00 | |
| OE5MMP-10 | 2026-09-05 03:29:23 | 48.25806 | 15.45488 | 92° | 58km/h | 15973m | -17.5m/s | -58.9°C | 5.6% | 0hPa | 2.5V | 00:00:00 | 01:40:40 | 00:00:00 | |
| OK1ALN | 2026-09-05 03:29:22 | 48.25807 | 15.45488 | 93° | 58km/h | 15973m | -17.6m/s | -58.9°C | 2.3% | 0hPa | 2.5V | 08:24:00 | 00:00:00 | 00:00:00 | |
| OE3MUC-15 | 2026-09-05 03:29:20 | 48.25808 | 15.45423 | 91° | 58km/h | 16027m | -17.0m/s | -58.6°C | 5.5% | 0hPa | 2.5V | 00:00:00 | 00:00:00 | 00:00:00 | |
| OE5DRO-10 | 2026-09-05 03:29:19 | 48.25808 | 15.45401 | 90° | 64km/h | 16045m | -16.8m/s | -58.6°C | 5.5% | 0hPa | 2.5V | 00:00:00 | 00:00:00 | 00:00:00 | |
| OM5KV | 2026-09-05 03:29:18 | 48.25808 | 15.45401 | 91° | 58km/h | 16045m | -16.8m/s | -58.6°C | 2.2% | 0hPa | 2.5V | 08:24:00 | 00:00:00 | 00:00:00 | |
| OM5KV | 2026-09-05 03:29:17 | 48.25808 | 15.45379 | 90° | 60km/h | 16062m | -17.9m/s | -58.6°C | 2.2% | 0hPa | 2.5V | 08:24:00 | 00:00:00 | 00:00:00 | |
| OE5DXL-15 | 2026-09-05 03:29:16 | 48.25806 | 15.45334 | 88° | 62km/h | 16097m | -17.4m/s | -58.5°C | 5.5% | 0hPa | 2.5V | 00:00:00 | 00:00:00 | 00:00:00 | |
| PETON7-10 | 2026-09-05 03:29:14 | 48.25805 | 15.45288 | 86° | 66km/h | 16132m | -17.2m/s | -58.2°C | 5.4% | 0hPa | 2.5V | 00:00:00 | 00:00:00 | 00:00:00 | |
| OE5MMP-10 | 2026-09-05 03:29:13 | 48.25803 | 15.45265 | 86° | 68km/h | 16149m | -16.3m/s | -58.3°C | 5.5% | 0hPa | 2.5V | 00:00:00 | 01:40:30 | 00:00:00 | |
| OE3MUC-15 | 2026-09-05 03:29:12 | 48.25803 | 15.45242 | 88° | 64km/h | 16165m | -16.0m/s | -58.3°C | 5.5% | 0hPa | 2.5V | 00:00:00 | 00:00:00 | 00:00:00 | |
| OE5WHR-10 | 2026-09-05 03:29:10 | 48.25801 | 15.45194 | 89° | 64km/h | 16198m | -15.7m/s | -58.5°C | 5.6% | 0hPa | 2.5V | 00:00:00 | 01:40:27 | 00:00:00 | |
| DO3MHA-12 | 2026-09-05 03:29:09 | 48.25801 | 15.45169 | 90° | 69km/h | 16214m | -15.8m/s | -58.5°C | 5.5% | 0hPa | 2.5V | 08:24:00 | 01:40:26 | 00:00:00 | |
| OE3MUC-15 | 2026-09-05 03:29:08 | 48.25801 | 15.45144 | 90° | 69km/h | 16231m | -18.2m/s | -58.6°C | 5.5% | 0hPa | 2.5V | 00:00:00 | 00:00:00 | 00:00:00 | |
| OE8JPQ-2 | 2026-09-05 03:29:07 | 48.25801 | 15.45118 | 93° | 62km/h | 16248m | -16.4m/s | -58.6°C | 5.6% | 0hPa | 2.5V | 00:00:00 | 00:00:00 | 00:00:00 | |
| OM5KV | 2026-09-05 03:29:06 | 48.25801 | 15.45118 | 94° | 69km/h | 16248m | -16.5m/s | -58.7°C | 2.2% | 0hPa | 2.5V | 08:24:00 | 00:00:00 | 00:00:00 | |
| OE5MMP-10 | 2026-09-05 03:29:03 | 48.25806 | 15.45012 | 98° | 64km/h | 16319m | -16.1m/s | -58.1°C | 5.4% | 0hPa | 2.5V | 08:24:00 | 01:40:20 | 00:00:00 | |
| OM5KV | 2026-09-05 03:29:02 | 48.25806 | 15.45012 | 99° | 69km/h | 16319m | -16.2m/s | -58.1°C | 2.1% | 0hPa | 2.5V | 08:24:00 | 00:00:00 | 00:00:00 | |
| OE3OSB-13 | 2026-09-05 03:28:57 | 48.25818 | 15.44861 | 98° | 62km/h | 16416m | -14.6m/s | -58.0°C | 1.8% | -1.0hPa | 2.5V | 00:00:00 | 00:00:00 | 00:00:00 | |
| OE5MMP-10 | 2026-09-05 03:28:53 | 48.25824 | 15.44775 | 95° | 55km/h | 16482m | -14.8m/s | -57.0°C | 4.8% | 0hPa | 2.5V | 00:00:00 | 01:40:10 | 00:00:00 | |
| OE3MUC-15 | 2026-09-05 03:28:52 | 48.25825 | 15.44754 | 94° | 53km/h | 16499m | -17.2m/s | -56.9°C | 4.8% | 0hPa | 2.5V | 08:24:00 | 00:00:00 | 00:00:00 | |
| DO3MHA-12 | 2026-09-05 03:28:49 | 48.25831 | 15.44695 | 100° | 55km/h | 16548m | -17.1m/s | -56.2°C | 4.5% | 0hPa | 2.5V | 00:00:00 | 01:40:06 | 00:00:00 | |
| OE3MUC-15 | 2026-09-05 03:28:48 | 48.25833 | 15.44675 | 102° | 55km/h | 16564m | -15.8m/s | -56.1°C | 4.4% | 0hPa | 2.5V | 00:00:00 | 01:40:05 | 00:00:00 | |
| PG1ADW-2 | 2026-09-05 03:28:47 | 48.25836 | 15.44655 | 102° | 58km/h | 16580m | -15.2m/s | -56.1°C | 4.5% | 0hPa | 2.5V | 00:00:00 | 00:00:00 | 00:00:00 | |
| OE5DXL-15 | 2026-09-05 03:28:46 | 48.25839 | 15.44635 | 107° | 57km/h | 16595m | -15.0m/s | -56.2°C | 4.4% | 0hPa | 2.6V | 00:00:00 | 00:00:00 | 00:00:00 | |
| PETON7-10 | 2026-09-05 03:28:44 | 48.25847 | 15.44594 | 109° | 60km/h | 16624m | -15.3m/s | -56.3°C | 4.5% | 0hPa | 2.6V | 00:00:00 | 00:00:00 | 00:00:00 | |
| OE5MMP-10 | 2026-09-05 03:28:43 | 48.25851 | 15.44574 | 108° | 58km/h | 16639m | -13.7m/s | -56.4°C | 4.5% | 0hPa | 2.5V | 00:00:00 | 01:40:00 | 00:00:00 | |
| OE5DRO-10 | 2026-09-05 03:28:41 | 48.25860 | 15.44535 | 110° | 58km/h | 16670m | -16.3m/s | -56.5°C | 4.6% | 0hPa | 2.5V | 00:00:00 | 00:00:00 | 00:00:00 | |
| OE3MUC-15 | 2026-09-05 03:28:40 | 48.25865 | 15.44514 | 109° | 60km/h | 16685m | -14.3m/s | -56.6°C | 4.7% | 0hPa | 2.5V | 00:00:00 | 00:00:00 | 00:00:00 | |
| DO3MHA-12 | 2026-09-05 03:28:38 | 48.25875 | 15.44472 | 112° | 62km/h | 16713m | -14.0m/s | -56.8°C | 4.7% | 0hPa | 2.6V | 00:00:00 | 01:39:55 | 00:00:00 | |
| OM5KV | 2026-09-05 03:28:37 | 48.25875 | 15.44472 | 113° | 60km/h | 16713m | -14.1m/s | -56.8°C | 1.8% | 0hPa | 2.6V | 08:25:00 | 00:00:00 | 00:00:00 | |
| OE3MUC-15 | 2026-09-05 03:28:36 | 48.25886 | 15.44429 | 111° | 62km/h | 16746m | -18.8m/s | -57.0°C | 4.7% | 0hPa | 2.6V | 00:00:00 | 00:00:00 | 00:00:00 | |
| OE5FHM-15 | 2026-09-05 03:28:35 | 48.25892 | 15.44408 | 114° | 35km/h | 16765m | -19.0m/s | -57.1°C | 4.7% | 0hPa | 2.6V | 00:00:00 | 01:39:52 | 00:00:00 | |
| OE5MMP-10 | 2026-09-05 03:28:33 | 48.25904 | 15.44365 | 113° | 60km/h | 16801m | -17.7m/s | -57.3°C | 4.8% | 0hPa | 2.6V | 00:00:00 | 01:39:50 | 00:00:00 | |
| OE3MUC-15 | 2026-09-05 03:28:32 | 48.25910 | 15.44342 | 113° | 62km/h | 16819m | -15.9m/s | -57.4°C | 4.9% | 0hPa | 2.5V | 00:00:00 | 00:00:00 | 00:00:00 | |
| OM5KV | 2026-09-05 03:28:31 | 48.25910 | 15.44342 | 114° | 64km/h | 16819m | -16.0m/s | -57.5°C | 1.8% | 0hPa | 2.5V | 08:25:00 | 00:00:00 | 00:00:00 | |
| OE3JTB-15 | 2026-09-05 03:28:29 | 48.25930 | 15.44277 | 117° | 49km/h | 16866m | -15.5m/s | -57.6°C | 5.0% | 0hPa | 2.5V | 08:25:00 | 00:00:00 | 00:00:00 | |
| DO3MHA-12 | 2026-09-05 03:28:28 | 48.25937 | 15.44257 | 117° | 53km/h | 16881m | -15.8m/s | -57.5°C | 4.9% | 0hPa | 2.6V | 00:00:00 | 01:39:45 | 00:00:00 | |
| OE8JPQ-2 | 2026-09-05 03:28:27 | 48.25943 | 15.44238 | 116° | 51km/h | 16896m | -15.2m/s | -57.5°C | 5.0% | 0hPa | 2.6V | 08:25:00 | 00:00:00 | 00:00:00 | |
| OE3OSB-13 | 2026-09-05 03:28:26 | 48.25949 | 15.44218 | 112° | 55km/h | 16911m | -14.9m/s | -57.4°C | 1.7% | -1.0hPa | 2.6V | 00:00:00 | 00:00:00 | 00:00:00 | |
| OM5KV | 2026-09-05 03:28:25 | 48.25949 | 15.44218 | 113° | 55km/h | 16911m | -14.9m/s | -57.4°C | 1.9% | 0hPa | 2.6V | 08:25:00 | 00:00:00 | 00:00:00 | |
| OE3MUC-15 | 2026-09-05 03:28:24 | 48.25959 | 15.44180 | 110° | 53km/h | 16941m | -14.9m/s | -57.1°C | 4.8% | 0hPa | 2.6V | 00:00:00 | 00:00:00 | 00:00:00 | |
| OE5MMP-10 | 2026-09-05 03:28:23 | 48.25964 | 15.44160 | 108° | 49km/h | 16956m | -15.1m/s | -56.9°C | 4.8% | 0hPa | 2.6V | 00:00:00 | 01:39:40 | 00:00:00 | |
| OE5DRO-10 | 2026-09-05 03:28:22 | 48.25967 | 15.44141 | 109° | 49km/h | 16970m | -13.7m/s | -56.7°C | 4.8% | 0hPa | 2.6V | 00:00:00 | 00:00:00 | 00:00:00 | |
| OM5KV | 2026-09-05 03:28:21 | 48.25967 | 15.44141 | 109° | 51km/h | 16970m | -13.7m/s | -56.8°C | 1.8% | 0hPa | 2.6V | 08:25:00 | 00:00:00 | 00:00:00 | |
| DO3MHA-12 | 2026-09-05 03:28:18 | 48.25982 | 15.44069 | 105° | 49km/h | 17027m | -17.7m/s | -56.7°C | 4.7% | 0hPa | 2.6V | 00:00:00 | 01:39:35 | 00:00:00 | |
| OE3MUC-15 | 2026-09-05 03:28:16 | 48.25986 | 15.44033 | 98° | 49km/h | 17059m | -14.4m/s | -56.8°C | 4.9% | 0hPa | 2.6V | 08:25:00 | 00:00:00 | 00:00:00 | |
| PETON7-10 | 2026-09-05 03:28:14 | 48.25989 | 15.43997 | 95° | 47km/h | 17090m | -14.7m/s | -56.8°C | 4.9% | 0hPa | 2.6V | 00:00:00 | 01:39:31 | 00:00:00 | |
| OE5MMP-10 | 2026-09-05 03:28:13 | 48.25990 | 15.43978 | 93° | 49km/h | 17104m | -14.8m/s | -56.9°C | 5.0% | 0hPa | 2.6V | 00:00:00 | 01:39:30 | 00:00:00 | |
| OE3MUC-15 | 2026-09-05 03:28:12 | 48.25990 | 15.43959 | 94° | 51km/h | 17119m | -14.6m/s | -56.9°C | 4.9% | 0hPa | 2.6V | 00:00:00 | 00:00:00 | 00:00:00 | |
| S52SK | 2026-09-05 03:28:10 | 48.25991 | 15.43940 | 92° | 51km/h | 17136m | -16.8m/s | -57.0°C | 1.8% | 0hPa | 2.6V | 08:25:00 | 00:00:00 | 00:00:00 | |
| OE3MUC-15 | 2026-09-05 03:28:08 | 48.25991 | 15.43882 | 92° | 46km/h | 17181m | -15.8m/s | -57.3°C | 5.2% | 0hPa | 2.6V | 00:00:00 | 00:00:00 | 00:00:00 | |
| PG1ADW-2 | 2026-09-05 03:28:07 | 48.25992 | 15.43865 | 90° | 40km/h | 17197m | -15.3m/s | -57.3°C | 5.3% | 0hPa | 2.6V | 00:00:00 | 00:00:00 | 00:00:00 | |
| S52SK | 2026-09-05 03:28:05 | 48.25991 | 15.43847 | 88° | 44km/h | 17212m | -16.7m/s | -57.1°C | 1.9% | 0hPa | 2.6V | 00:00:00 | 00:00:00 | 00:00:00 | |
| OM5KV | 2026-09-05 03:28:04 | 48.25990 | 15.43813 | 91° | 46km/h | 17239m | -14.0m/s | -56.4°C | 1.8% | 0hPa | 2.6V | 08:26:00 | 00:00:00 | 00:00:00 | |
| OE5MMP-10 | 2026-09-05 03:28:03 | 48.25990 | 15.43796 | 92° | 42km/h | 17254m | -14.1m/s | -56.2°C | 4.9% | 0hPa | 2.6V | 00:00:00 | 01:39:20 | 00:00:00 | |
| OE3OSB-13 | 2026-09-05 03:27:55 | 48.25996 | 15.43653 | 101° | 38km/h | 17382m | -14.9m/s | -54.8°C | 1.4% | -1.0hPa | 2.6V | 00:00:00 | 00:00:00 | 00:00:00 | |
| OM5KV | 2026-09-05 03:27:54 | 48.25996 | 15.43653 | 102° | 40km/h | 17382m | -14.9m/s | -54.8°C | 1.5% | 0hPa | 2.6V | 08:26:00 | 00:00:00 | 00:00:00 | |
| OE5MMP-10 | 2026-09-05 03:27:53 | 48.25998 | 15.43639 | 107° | 35km/h | 17396m | -14.0m/s | -54.8°C | 4.3% | 0hPa | 2.6V | 00:00:00 | 01:39:10 | 00:00:00 | |
| OE3MUC-15 | 2026-09-05 03:27:52 | 48.26001 | 15.43626 | 110° | 37km/h | 17410m | -14.5m/s | -54.7°C | 4.2% | 0hPa | 2.6V | 00:00:00 | 00:00:00 | 00:00:00 | |
| OE3MUC-15 | 2026-09-05 03:27:48 | 48.26014 | 15.43577 | 119° | 33km/h | 17467m | -13.0m/s | -54.6°C | 4.2% | 0hPa | 2.5V | 00:00:00 | 00:00:00 | 00:00:00 | |
| OE8JPQ-2 | 2026-09-05 03:27:47 | 48.26019 | 15.43565 | 118° | 24km/h | 17480m | -13.0m/s | -54.6°C | 4.1% | 0hPa | 2.5V | 00:00:00 | 01:39:04 | 00:00:00 | |
| OE5DXL-15 | 2026-09-05 03:27:46 | 48.26022 | 15.43554 | 116° | 24km/h | 17493m | -14.2m/s | -54.6°C | 4.1% | 0hPa | 2.5V | 00:00:00 | 00:00:00 | 00:00:00 | |
| PETON7-10 | 2026-09-05 03:27:44 | 48.26029 | 15.43533 | 115° | 24km/h | 17522m | -14.3m/s | -54.4°C | 4.1% | 0hPa | 2.5V | 00:00:00 | 00:00:00 | 00:00:00 | |
| OE5MMP-10 | 2026-09-05 03:27:43 | 48.26031 | 15.43523 | 111° | 22km/h | 17536m | -15.6m/s | -54.2°C | 4.0% | 0hPa | 2.5V | 00:00:00 | 01:39:00 | 00:00:00 | |
| OM5KV | 2026-09-05 03:27:39 | 48.26036 | 15.43495 | 106° | 26km/h | 17581m | -14.3m/s | -54.2°C | 1.4% | 0hPa | 2.5V | 08:26:00 | 00:00:00 | 00:00:00 | |
| DO3MHA-12 | 2026-09-05 03:27:37 | 48.26040 | 15.43471 | 104° | 22km/h | 17627m | -15.9m/s | -54.5°C | 3.9% | 0hPa | 2.5V | 00:00:00 | 01:38:54 | 00:00:00 | |
| OE5MMP-10 | 2026-09-05 03:27:33 | 48.26042 | 15.43442 | 89° | 22km/h | 17686m | -13.0m/s | -54.9°C | 4.0% | 0hPa | 2.5V | 08:26:00 | 01:38:50 | 00:00:00 | |
| OM5KV | 2026-09-05 03:27:32 | 48.26042 | 15.43442 | 89° | 20km/h | 17686m | -13.1m/s | -55.0°C | 1.5% | 0hPa | 2.5V | 08:26:00 | 00:00:00 | 00:00:00 | |
| OE3JTB-15 | 2026-09-05 03:27:31 | 48.26042 | 15.43426 | 82° | 27km/h | 17713m | -14.6m/s | -55.1°C | 4.0% | 0hPa | 2.5V | 00:00:00 | 01:38:48 | 00:00:00 | |
| PETON7-10 | 2026-09-05 03:27:29 | 48.26039 | 15.43409 | 75° | 24km/h | 17742m | -16.5m/s | -55.4°C | 4.0% | 0hPa | 2.5V | 00:00:00 | 01:38:46 | 00:00:00 | |
| DO3MHA-12 | 2026-09-05 03:27:27 | 48.26035 | 15.43392 | 68° | 24km/h | 17776m | -17.1m/s | -55.7°C | 4.2% | 0hPa | 2.5V | 00:00:00 | 01:38:44 | 00:00:00 | |
| OE5DRO-10 | 2026-09-05 03:27:25 | 48.26031 | 15.43377 | 65° | 27km/h | 17808m | -15.5m/s | -55.9°C | 4.2% | 0hPa | 2.5V | 00:00:00 | 00:00:00 | 00:00:00 | |
| OE3OSB-13 | 2026-09-05 03:27:24 | 48.26025 | 15.43361 | 60° | 24km/h | 17839m | -15.1m/s | -56.2°C | 1.4% | -1.0hPa | 2.5V | 00:00:00 | 00:00:00 | 00:00:00 | |
| OE5MMP-10 | 2026-09-05 03:27:23 | 48.26025 | 15.43361 | 61° | 26km/h | 17839m | -15.0m/s | -56.1°C | 4.3% | 0hPa | 2.5V | 00:00:00 | 01:38:40 | 00:00:00 | |
| OE3MUC-15 | 2026-09-05 03:27:20 | 48.26015 | 15.43338 | 58° | 26km/h | 17881m | -13.0m/s | -56.3°C | 4.3% | 0hPa | 2.5V | 00:00:00 | 00:00:00 | 00:00:00 | |
| OM5KV | 2026-09-05 03:27:18 | 48.26012 | 15.43330 | 60° | 26km/h | 17894m | -13.8m/s | -56.4°C | 1.5% | 0hPa | 2.5V | 08:26:00 | 00:00:00 | 00:00:00 | |
| PETON7-10 | 2026-09-05 03:27:14 | 48.25993 | 15.43289 | 51° | 33km/h | 17971m | -15.4m/s | -56.8°C | 4.4% | 0hPa | 2.5V | 08:26:00 | 00:00:00 | 00:00:00 | |
| OE5MMP-10 | 2026-09-05 03:27:13 | 48.25988 | 15.43280 | 52° | 31km/h | 17987m | -15.5m/s | -56.9°C | 4.4% | 0hPa | 2.5V | 00:00:00 | 01:38:30 | 00:00:00 | |
| OM5KV | 2026-09-05 03:27:09 | 48.25975 | 15.43253 | 57° | 31km/h | 18034m | -16.8m/s | -57.3°C | 1.6% | 0hPa | 2.5V | 08:27:00 | 00:00:00 | 00:00:00 | |
| OE3MUC-15 | 2026-09-05 03:27:08 | 48.25965 | 15.43234 | 54° | 33km/h | 18065m | -15.1m/s | -57.5°C | 4.5% | 0hPa | 2.5V | 00:00:00 | 00:00:00 | 00:00:00 | |
| PG1ADW-2 | 2026-09-05 03:27:07 | 48.25961 | 15.43224 | 55° | 38km/h | 18080m | -15.0m/s | -57.6°C | 4.6% | 0hPa | 2.5V | 00:00:00 | 00:00:00 | 00:00:00 | |
| OE5DRO-10 | 2026-09-05 03:27:06 | 48.25956 | 15.43214 | 53° | 38km/h | 18095m | -15.3m/s | -57.7°C | 4.6% | 0hPa | 2.5V | 08:26:00 | 00:00:00 | 00:00:00 | |
| OE3MUC-15 | 2026-09-05 03:27:04 | 48.25945 | 15.43194 | 54° | 35km/h | 18126m | -14.6m/s | -57.8°C | 4.6% | 0hPa | 2.5V | 08:26:00 | 00:00:00 | 00:00:00 | |
| OE5FHM-15 | 2026-09-05 03:27:02 | 48.25934 | 15.43173 | 54° | 44km/h | 18158m | -17.0m/s | -58.1°C | 4.7% | 0hPa | 2.5V | 00:00:00 | 01:38:19 | 00:00:00 | |
| OE3MUC-15 | 2026-09-05 03:27:00 | 48.25924 | 15.43152 | 56° | 37km/h | 18189m | -15.5m/s | -58.4°C | 4.8% | 0hPa | 2.5V | 00:00:00 | 00:00:00 | 00:00:00 | |
| PETON7-10 | 2026-09-05 03:26:59 | 48.25919 | 15.43141 | 54° | 44km/h | 18205m | -16.4m/s | -58.5°C | 4.9% | 0hPa | 2.5V | 00:00:00 | 00:00:00 | 00:00:00 | |
| OE3MUC-15 | 2026-09-05 03:26:56 | 48.25901 | 15.43107 | 51° | 40km/h | 18250m | -14.3m/s | -58.9°C | 5.2% | 0hPa | 2.5V | 00:00:00 | 00:00:00 | 00:00:00 | |
| DO3MHA-12 | 2026-09-05 03:26:54 | 48.25889 | 15.43083 | 56° | 42km/h | 18279m | -15.0m/s | -59.1°C | 5.3% | 0hPa | 2.5V | 00:00:00 | 01:38:11 | 00:00:00 | |
| OE5MMP-10 | 2026-09-05 03:26:53 | 48.25884 | 15.43070 | 60° | 46km/h | 18294m | -15.8m/s | -59.2°C | 5.3% | 0hPa | 2.5V | 00:00:00 | 01:38:10 | 00:00:00 | |
| OE3MUC-15 | 2026-09-05 03:26:52 | 48.25878 | 15.43056 | 61° | 46km/h | 18309m | -15.9m/s | -59.3°C | 5.3% | 0hPa | 2.5V | 00:00:00 | 00:00:00 | 00:00:00 | |
| OM5KV | 2026-09-05 03:26:49 | 48.25868 | 15.43026 | 65° | 47km/h | 18339m | -14.6m/s | -59.5°C | 1.9% | 0hPa | 2.5V | 08:27:00 | 00:00:00 | 00:00:00 | |
| OE3MUC-15 | 2026-09-05 03:26:48 | 48.25858 | 15.42993 | 68° | 47km/h | 18369m | -15.4m/s | -59.6°C | 5.5% | 0hPa | 2.5V | 00:00:00 | 00:00:00 | 00:00:00 | |
| PG1ADW-2 | 2026-09-05 03:26:47 | 48.25853 | 15.42976 | 73° | 47km/h | 18385m | -14.7m/s | -59.6°C | 5.6% | 0hPa | 2.5V | 08:26:00 | 00:00:00 | 00:00:00 | |
| OE5DXL-15 | 2026-09-05 03:26:46 | 48.25850 | 15.42959 | 74° | 44km/h | 18399m | -15.7m/s | -59.7°C | 5.6% | 0hPa | 2.5V | 08:26:00 | 00:00:00 | 00:00:00 | |
| OE3MUC-15 | 2026-09-05 03:26:44 | 48.25843 | 15.42925 | 76° | 47km/h | 18429m | -14.9m/s | -59.5°C | 5.7% | 0hPa | 2.5V | 00:00:00 | 00:00:00 | 00:00:00 | |
| OE5WHR-10 | 2026-09-05 03:26:43 | 48.25841 | 15.42908 | 77° | 47km/h | 18444m | -15.9m/s | -58.8°C | 5.3% | 0hPa | 2.5V | 00:00:00 | 00:00:00 | 00:00:00 | |
| S52SK | 2026-09-05 03:26:42 | 48.25841 | 15.42908 | 77° | 47km/h | 18444m | -15.9m/s | -58.9°C | 1.9% | 0hPa | 2.6V | 00:00:00 | 00:00:00 | 00:00:00 | |
| OE3MUC-15 | 2026-09-05 03:26:40 | 48.25834 | 15.42854 | 81° | 47km/h | 18493m | -15.2m/s | -57.8°C | 4.8% | 0hPa | 2.6V | 00:00:00 | 00:00:00 | 00:00:00 | |
| OE3MUC-15 | 2026-09-05 03:26:36 | 48.25828 | 15.42784 | 90° | 47km/h | 18558m | -16.7m/s | -58.1°C | 5.0% | 0hPa | 2.6V | 00:00:00 | 00:00:00 | 00:00:00 | |
| OM5KV | 2026-09-05 03:26:35 | 48.25829 | 15.42784 | 91° | 46km/h | 18558m | -16.8m/s | -58.1°C | 1.7% | 0hPa | 2.6V | 08:27:00 | 00:00:00 | 00:00:00 | |
| OE5MMP-10 | 2026-09-05 03:26:33 | 48.25829 | 15.42731 | 95° | 47km/h | 18609m | -16.9m/s | -58.1°C | 5.0% | 0hPa | 2.6V | 00:00:00 | 01:37:50 | 00:00:00 | |
| OE5FHM-15 | 2026-09-05 03:26:32 | 48.25830 | 15.42713 | 97° | 31km/h | 18626m | -16.5m/s | -58.2°C | 5.1% | 0hPa | 2.5V | 00:00:00 | 01:37:49 | 00:00:00 | |
| OM5KV | 2026-09-05 03:26:30 | 48.25834 | 15.42675 | 104° | 51km/h | 18659m | -17.8m/s | -58.4°C | 1.8% | 0hPa | 2.6V | 08:27:00 | 00:00:00 | 00:00:00 | |
| PETON7-10 | 2026-09-05 03:26:29 | 48.25837 | 15.42656 | 104° | 35km/h | 18678m | -17.4m/s | -58.3°C | 5.2% | 0hPa | 2.6V | 00:00:00 | 00:00:00 | 00:00:00 | |
| OE3MUC-15 | 2026-09-05 03:26:28 | 48.25840 | 15.42638 | 104° | 47km/h | 18695m | -17.8m/s | -58.3°C | 5.2% | 0hPa | 2.6V | 08:27:00 | 00:00:00 | 00:00:00 | |
| OE8JPQ-2 | 2026-09-05 03:26:27 | 48.25843 | 15.42621 | 102° | 29km/h | 18713m | -16.1m/s | -58.3°C | 5.2% | 0hPa | 2.5V | 00:00:00 | 00:00:00 | 00:00:00 | |
| OE3MUC-15 | 2026-09-05 03:26:24 | 48.25850 | 15.42570 | 105° | 37km/h | 18760m | -14.8m/s | -58.3°C | 5.3% | 0hPa | 2.6V | 00:00:00 | 00:00:00 | 00:00:00 | |
| OE5MMP-10 | 2026-09-05 03:26:23 | 48.25852 | 15.42555 | 108° | 27km/h | 18774m | -14.5m/s | -58.3°C | 5.3% | 0hPa | 2.6V | 00:00:00 | 01:37:40 | 00:00:00 | |
| OE5WHR-10 | 2026-09-05 03:26:22 | 48.25855 | 15.42542 | 107° | 26km/h | 18788m | -14.2m/s | -58.3°C | 5.3% | 0hPa | 2.6V | 00:00:00 | 00:00:00 | 00:00:00 | |
| OE3MUC-15 | 2026-09-05 03:26:20 | 48.25859 | 15.42518 | 102° | 26km/h | 18819m | -16.1m/s | -58.0°C | 5.1% | 0hPa | 2.6V | 00:00:00 | 00:00:00 | 00:00:00 | |
| OM5KV | 2026-09-05 03:26:17 | 48.25862 | 15.42498 | 106° | 24km/h | 18848m | -14.0m/s | -57.7°C | 1.7% | 0hPa | 2.6V | 08:27:00 | 00:00:00 | 00:00:00 | |
| OE3MUC-15 | 2026-09-05 03:26:16 | 48.25864 | 15.42481 | 99° | 20km/h | 18877m | -14.7m/s | -57.1°C | 4.8% | 0hPa | 2.6V | 00:00:00 | 00:00:00 | 00:00:00 | |
| PETON7-10 | 2026-09-05 03:26:14 | 48.25864 | 15.42466 | 80° | 26km/h | 18907m | -15.4m/s | -56.6°C | 4.6% | 0hPa | 2.5V | 00:00:00 | 00:00:00 | 00:00:00 | |
| OE5MMP-10 | 2026-09-05 03:26:13 | 48.25863 | 15.42459 | 76° | 24km/h | 18923m | -15.4m/s | -56.3°C | 4.4% | 0hPa | 2.5V | 00:00:00 | 01:37:30 | 00:00:00 | |
| OE3MUC-15 | 2026-09-05 03:26:12 | 48.25862 | 15.42451 | 76° | 22km/h | 18939m | -17.2m/s | -56.1°C | 4.3% | 0hPa | 2.5V | 00:00:00 | 00:00:00 | 00:00:00 | |
| OM5KV | 2026-09-05 03:26:11 | 48.25862 | 15.42451 | 76° | 22km/h | 18939m | -17.2m/s | -56.1°C | 1.4% | 0hPa | 2.5V | 08:27:00 | 00:00:00 | 00:00:00 | |
| OE5DRO-10 | 2026-09-05 03:26:09 | 48.25858 | 15.42427 | 71° | 33km/h | 18986m | -15.4m/s | -56.3°C | 4.4% | 0hPa | 2.5V | 00:00:00 | 00:00:00 | 00:00:00 | |
| OE3MUC-15 | 2026-09-05 03:26:08 | 48.25856 | 15.42419 | 71° | 26km/h | 19001m | -15.9m/s | -56.3°C | 4.3% | 0hPa | 2.5V | 00:00:00 | 00:00:00 | 00:00:00 | |
| PG1ADW-2 | 2026-09-05 03:26:07 | 48.25854 | 15.42410 | 70° | 37km/h | 19018m | -17.2m/s | -56.3°C | 4.4% | 0hPa | 2.5V | 00:00:00 | 00:00:00 | 00:00:00 | |
| OM5KV | 2026-09-05 03:26:05 | 48.25851 | 15.42401 | 65° | 26km/h | 19035m | -17.1m/s | -56.3°C | 1.5% | 0hPa | 2.5V | 08:27:00 | 00:00:00 | 00:00:00 | |
| OE3MUC-15 | 2026-09-05 03:26:04 | 48.25845 | 15.42382 | 65° | 31km/h | 19070m | -17.2m/s | -56.4°C | 4.4% | 0hPa | 2.5V | 00:00:00 | 00:00:00 | 00:00:00 | |
| OM5KV | 2026-09-05 03:26:01 | 48.25839 | 15.42360 | 66° | 33km/h | 19105m | -18.9m/s | -56.6°C | 1.5% | 0hPa | 2.5V | 08:27:00 | 00:00:00 | 00:00:00 | |
| OE3OSB-13 | 2026-09-05 03:25:51 | 48.25803 | 15.42199 | 77° | 46km/h | 19297m | -13.9m/s | -57.5°C | 1.5% | -1.0hPa | 2.5V | 00:00:00 | 00:00:00 | 00:00:00 | |
| OE5DRO-10 | 2026-09-05 03:25:50 | 48.25803 | 15.42199 | 78° | 44km/h | 19297m | -13.9m/s | -57.4°C | 5.0% | 0hPa | 2.5V | 00:00:00 | 00:00:00 | 00:00:00 | |
| OE3MUC-15 | 2026-09-05 03:25:48 | 48.25799 | 15.42164 | 88° | 49km/h | 19325m | -14.1m/s | -57.2°C | 4.9% | 0hPa | 2.5V | 00:00:00 | 00:00:00 | 00:00:00 | |
| PG1ADW-2 | 2026-09-05 03:25:47 | 48.25799 | 15.42146 | 88° | 38km/h | 19339m | -13.2m/s | -57.1°C | 4.9% | 0hPa | 2.5V | 00:00:00 | 00:00:00 | 00:00:00 | |
| OE5DXL-15 | 2026-09-05 03:25:46 | 48.25799 | 15.42128 | 90° | 27km/h | 19353m | -15.0m/s | -57.0°C | 4.9% | 0hPa | 2.5V | 00:00:00 | 01:37:03 | 00:00:00 | |
| OE3MUC-15 | 2026-09-05 03:25:44 | 48.25799 | 15.42090 | 91° | 51km/h | 19383m | -15.8m/s | -56.8°C | 4.7% | 0hPa | 2.5V | 00:00:00 | 00:00:00 | 00:00:00 | |
| OE5MMP-10 | 2026-09-05 03:25:43 | 48.25799 | 15.42071 | 92° | 42km/h | 19400m | -16.1m/s | -56.7°C | 4.8% | 0hPa | 2.5V | 00:00:00 | 01:37:00 | 00:00:00 | |
| OM5KV | 2026-09-05 03:25:42 | 48.25799 | 15.42071 | 92° | 53km/h | 19400m | -16.1m/s | -56.8°C | 1.6% | 0hPa | 2.5V | 08:27:00 | 00:00:00 | 00:00:00 | |
| OE5WHR-10 | 2026-09-05 03:25:40 | 48.25801 | 15.42014 | 96° | 29km/h | 19446m | -17.6m/s | -56.4°C | 4.6% | 0hPa | 2.5V | 00:00:00 | 00:00:00 | 00:00:00 | |
| OM5KV | 2026-09-05 03:25:37 | 48.25804 | 15.41983 | 100° | 37km/h | 19483m | -17.1m/s | -56.5°C | 1.5% | 0hPa | 2.5V | 08:27:00 | 00:00:00 | 00:00:00 | |
| OM5KV | 2026-09-05 03:25:36 | 48.25805 | 15.41969 | 99° | 37km/h | 19499m | -16.0m/s | -56.4°C | 1.5% | 0hPa | 2.5V | 08:27:00 | 00:00:00 | 00:00:00 | |
| OE3JTB-15 | 2026-09-05 03:25:35 | 48.25808 | 15.41942 | 105° | 27km/h | 19530m | -14.5m/s | -56.4°C | 4.7% | 0hPa | 2.5V | 00:00:00 | 00:00:00 | 00:00:00 | |
| OE5MMP-10 | 2026-09-05 03:25:33 | 48.25812 | 15.41919 | 104° | 24km/h | 19558m | -14.8m/s | -56.5°C | 4.7% | 0hPa | 2.6V | 00:00:00 | 01:36:50 | 00:00:00 | |
| OE5FHM-15 | 2026-09-05 03:25:31 | 48.25816 | 15.41899 | 113° | 26km/h | 19589m | -14.2m/s | -56.5°C | 4.8% | 0hPa | 2.6V | 00:00:00 | 01:36:48 | 00:00:00 | |
| PETON7-10 | 2026-09-05 03:25:29 | 48.25820 | 15.41880 | 110° | 26km/h | 19618m | -14.7m/s | -56.1°C | 4.6% | 0hPa | 2.6V | 00:00:00 | 00:00:00 | 00:00:00 | |
| PG1ADW-2 | 2026-09-05 03:25:27 | 48.25824 | 15.41863 | 107° | 27km/h | 19648m | -14.9m/s | -55.6°C | 4.3% | 0hPa | 2.6V | 00:00:00 | 00:00:00 | 00:00:00 | |
| OM5KV | 2026-09-05 03:25:26 | 48.25824 | 15.41863 | 108° | 20km/h | 19648m | -15.0m/s | -55.7°C | 1.4% | 0hPa | 2.6V | 08:28:00 | 00:00:00 | 00:00:00 | |
| OE5MMP-10 | 2026-09-05 03:25:23 | 48.25829 | 15.41833 | 94° | 27km/h | 19713m | -17.7m/s | -55.4°C | 4.3% | 0hPa | 2.6V | 00:00:00 | 01:36:40 | 00:00:00 | |
| S52SK | 2026-09-05 03:25:22 | 48.25829 | 15.41833 | 95° | 26km/h | 19713m | -17.7m/s | -55.5°C | 1.4% | 0hPa | 2.6V | 00:00:00 | 00:00:00 | 00:00:00 | |
| OE3MUC-15 | 2026-09-05 03:25:20 | 48.25830 | 15.41802 | 92° | 29km/h | 19761m | -16.6m/s | -55.5°C | 4.3% | 0hPa | 2.6V | 00:00:00 | 00:00:00 | 00:00:00 | |
| OE5WHR-10 | 2026-09-05 03:25:19 | 48.25830 | 15.41792 | 94° | 24km/h | 19778m | -17.2m/s | -55.5°C | 4.3% | 0hPa | 2.6V | 00:00:00 | 00:00:00 | 00:00:00 | |
| OM5KV | 2026-09-05 03:25:18 | 48.25830 | 15.41792 | 95° | 27km/h | 19778m | -17.2m/s | -55.5°C | 1.4% | 0hPa | 2.6V | 08:28:00 | 00:00:00 | 00:00:00 | |
| OE3MUC-15 | 2026-09-05 03:25:16 | 48.25832 | 15.41760 | 103° | 27km/h | 19828m | -17.2m/s | -55.4°C | 4.3% | 0hPa | 2.6V | 08:28:00 | 00:00:00 | 00:00:00 | |
| OM5KV | 2026-09-05 03:25:15 | 48.25833 | 15.41760 | 104° | 27km/h | 19828m | -17.2m/s | -55.5°C | 1.4% | 0hPa | 2.5V | 08:28:00 | 00:00:00 | 00:00:00 | |
| PETON7-10 | 2026-09-05 03:25:14 | 48.25835 | 15.41739 | 106° | 24km/h | 19863m | -15.4m/s | -55.7°C | 4.4% | 0hPa | 2.5V | 00:00:00 | 01:36:31 | 00:00:00 | |
| OE5MMP-10 | 2026-09-05 03:25:13 | 48.25837 | 15.41728 | 102° | 27km/h | 19879m | -17.1m/s | -55.8°C | 4.5% | 0hPa | 2.5V | 00:00:00 | 01:36:30 | 00:00:00 | |
| OE3MUC-15 | 2026-09-05 03:25:12 | 48.25838 | 15.41718 | 101° | 29km/h | 19896m | -16.6m/s | -55.9°C | 4.5% | 0hPa | 2.5V | 00:00:00 | 00:00:00 | 00:00:00 | |
| S52SK | 2026-09-05 03:25:11 | 48.25838 | 15.41718 | 101° | 27km/h | 19896m | -16.7m/s | -55.9°C | 1.4% | 0hPa | 2.5V | 00:00:00 | 00:00:00 | 00:00:00 | |
| OE5DRO-10 | 2026-09-05 03:25:09 | 48.25841 | 15.41684 | 100° | 26km/h | 19942m | -14.2m/s | -56.0°C | 4.6% | 0hPa | 2.5V | 00:00:00 | 00:00:00 | 00:00:00 | |
| OE3MUC-15 | 2026-09-05 03:25:08 | 48.25842 | 15.41674 | 97° | 26km/h | 19958m | -16.6m/s | -56.0°C | 4.6% | 0hPa | 2.6V | 00:00:00 | 00:00:00 | 00:00:00 | |
| OE8JPQ-2 | 2026-09-05 03:25:07 | 48.25843 | 15.41663 | 93° | 20km/h | 19974m | -16.8m/s | -55.7°C | 4.5% | 0hPa | 2.6V | 00:00:00 | 00:00:00 | 00:00:00 | |
| SONDE2-11 | 2026-09-05 03:25:06 | 48.25844 | 15.41643 | 96° | 22km/h | 20007m | -16.4m/s | -55.8°C | 1.3% | -1.0hPa | 2.6V | 00:00:00 | 00:00:00 | 00:00:00 | |
| OE3MUC-15 | 2026-09-05 03:25:04 | 48.25844 | 15.41635 | 94° | 16km/h | 20023m | -14.9m/s | -55.7°C | 4.5% | 0hPa | 2.6V | 00:00:00 | 00:00:00 | 00:00:00 | |
| OE5MMP-10 | 2026-09-05 03:25:03 | 48.25845 | 15.41628 | 94° | 15km/h | 20038m | -16.4m/s | -55.7°C | 4.6% | 0hPa | 2.5V | 00:00:00 | 01:36:20 | 00:00:00 | |
| OM5KV | 2026-09-05 03:25:02 | 48.25845 | 15.41628 | 95° | 16km/h | 20038m | -16.5m/s | -55.8°C | 1.5% | 0hPa | 2.5V | 08:28:00 | 00:00:00 | 00:00:00 | |
| OE3OSB-13 | 2026-09-05 03:24:49 | 48.25855 | 15.41527 | 119° | 29km/h | 20299m | -18.5m/s | -54.9°C | 1.2% | -1.0hPa | 2.5V | 00:00:00 | 00:00:00 | 00:00:00 | |
| OE3MUC-15 | 2026-09-05 03:24:48 | 48.25855 | 15.41527 | 120° | 33km/h | 20299m | -18.4m/s | -54.8°C | 4.2% | 0hPa | 2.5V | 00:00:00 | 00:00:00 | 00:00:00 | |
| PG1ADW-2 | 2026-09-05 03:24:47 | 48.25860 | 15.41517 | 122° | 18km/h | 20317m | -17.6m/s | -54.9°C | 4.3% | 0hPa | 2.5V | 00:00:00 | 00:00:00 | 00:00:00 | |
| OE5DRO-10 | 2026-09-05 03:24:46 | 48.25864 | 15.41506 | 127° | 18km/h | 20335m | -16.2m/s | -54.9°C | 4.3% | 0hPa | 2.5V | 00:00:00 | 00:00:00 | 00:00:00 | |
| PETON7-10 | 2026-09-05 03:24:44 | 48.25874 | 15.41487 | 130° | 18km/h | 20368m | -16.6m/s | -54.9°C | 4.3% | 0hPa | 2.5V | 00:00:00 | 00:00:00 | 00:00:00 | |
| OE5MMP-10 | 2026-09-05 03:24:43 | 48.25879 | 15.41477 | 134° | 22km/h | 20385m | -17.9m/s | -54.8°C | 4.2% | 0hPa | 2.5V | 00:00:00 | 01:36:00 | 00:00:00 | |
| OM5KV | 2026-09-05 03:24:41 | 48.25885 | 15.41469 | 137° | 31km/h | 20403m | -18.7m/s | -54.7°C | 1.3% | 0hPa | 2.5V | 08:29:00 | 00:00:00 | 00:00:00 | |
| OE3MUC-15 | 2026-09-05 03:24:40 | 48.25895 | 15.41454 | 136° | 24km/h | 20441m | -19.0m/s | -54.7°C | 4.2% | 0hPa | 2.5V | 08:28:00 | 00:00:00 | 00:00:00 | |
| OM5KV | 2026-09-05 03:24:38 | 48.25899 | 15.41448 | 143° | 24km/h | 20459m | -15.9m/s | -54.8°C | 1.3% | 0hPa | 2.6V | 08:29:00 | 00:00:00 | 00:00:00 | |
| OE5WHR-10 | 2026-09-05 03:24:37 | 48.25908 | 15.41438 | 149° | 9km/h | 20492m | -16.8m/s | -54.5°C | 4.1% | 0hPa | 2.6V | 08:28:00 | 00:00:00 | 00:00:00 | |
| OE3MUC-15 | 2026-09-05 03:24:36 | 48.25911 | 15.41435 | 145° | 13km/h | 20509m | -18.0m/s | -54.0°C | 4.0% | 0hPa | 2.5V | 00:00:00 | 00:00:00 | 00:00:00 | |
| SP3BTT-10 | 2026-09-05 03:24:35 | 48.25914 | 15.41432 | 139° | 16km/h | 20526m | -17.5m/s | -53.8°C | 3.8% | 0hPa | 2.5V | 00:00:00 | 00:00:00 | 00:00:00 | |
| SONDE2-11 | 2026-09-05 03:24:34 | 48.25916 | 15.41429 | 135° | 11km/h | 20544m | -17.2m/s | -53.8°C | 1.1% | -1.0hPa | 2.5V | 00:00:00 | 00:00:00 | 00:00:00 | |
| OE5MMP-10 | 2026-09-05 03:24:33 | 48.25918 | 15.41426 | 137° | 5km/h | 20561m | -17.8m/s | -53.9°C | 3.8% | 0hPa | 2.5V | 08:29:00 | 01:35:50 | 00:00:00 | |
| OE3MUC-15 | 2026-09-05 03:24:32 | 48.25919 | 15.41423 | 145° | 7km/h | 20578m | -16.0m/s | -54.0°C | 3.8% | 0hPa | 2.5V | 00:00:00 | 00:00:00 | 00:00:00 | |
| OE5FHM-15 | 2026-09-05 03:24:31 | 48.25921 | 15.41422 | 146° | 15km/h | 20595m | -17.4m/s | -54.1°C | 3.9% | 0hPa | 2.5V | 00:00:00 | 01:35:48 | 00:00:00 | |
| PETON7-10 | 2026-09-05 03:24:29 | 48.25922 | 15.41418 | 121° | 11km/h | 20629m | -16.6m/s | -54.2°C | 3.9% | 0hPa | 2.5V | 00:00:00 | 01:35:46 | 00:00:00 | |
| OE3MUC-15 | 2026-09-05 03:24:28 | 48.25922 | 15.41417 | 103° | 5km/h | 20645m | -16.3m/s | -54.1°C | 3.9% | 0hPa | 2.5V | 00:00:00 | 00:00:00 | 00:00:00 | |
| OE8JPQ-2 | 2026-09-05 03:24:27 | 48.25922 | 15.41415 | 77° | 15km/h | 20661m | -16.9m/s | -54.1°C | 3.8% | 0hPa | 2.5V | 00:00:00 | 00:00:00 | 00:00:00 | |
| OM5KV | 2026-09-05 03:24:26 | 48.25922 | 15.41415 | 78° | 4km/h | 20661m | -16.9m/s | -54.2°C | 1.2% | 0hPa | 2.5V | 08:29:00 | 00:00:00 | 00:00:00 | |
| OE3MUC-15 | 2026-09-05 03:24:24 | 48.25919 | 15.41410 | 43° | 9km/h | 20714m | -18.8m/s | -54.5°C | 3.9% | 0hPa | 2.5V | 00:00:00 | 00:00:00 | 00:00:00 | |
| OE5MMP-10 | 2026-09-05 03:24:23 | 48.25917 | 15.41408 | 35° | 15km/h | 20731m | -15.9m/s | -54.7°C | 4.0% | 0hPa | 2.5V | 00:00:00 | 01:35:40 | 00:00:00 | |
| OE3MUC-15 | 2026-09-05 03:24:20 | 48.25911 | 15.41401 | 36° | 15km/h | 20781m | -17.6m/s | -55.0°C | 4.1% | 0hPa | 2.5V | 00:00:00 | 00:00:00 | 00:00:00 | |
| OE3OSB-13 | 2026-09-05 03:24:18 | 48.25903 | 15.41391 | 42° | 15km/h | 20832m | -17.4m/s | -55.5°C | 1.2% | -1.0hPa | 2.5V | 00:00:00 | 00:00:00 | 00:00:00 | |
| OE3MUC-15 | 2026-09-05 03:24:16 | 48.25901 | 15.41386 | 43° | 20km/h | 20849m | -16.2m/s | -55.6°C | 4.3% | 0hPa | 2.5V | 00:00:00 | 00:00:00 | 00:00:00 | |
| PETON7-10 | 2026-09-05 03:24:14 | 48.25895 | 15.41375 | 51° | 22km/h | 20884m | -17.8m/s | -55.9°C | 4.4% | 0hPa | 2.5V | 00:00:00 | 00:00:00 | 00:00:00 | |
| OE5MMP-10 | 2026-09-05 03:24:13 | 48.25892 | 15.41368 | 56° | 24km/h | 20902m | -18.6m/s | -55.9°C | 4.4% | 0hPa | 2.5V | 00:00:00 | 01:35:30 | 00:00:00 | |
| OE3MUC-15 | 2026-09-05 03:24:12 | 48.25889 | 15.41361 | 64° | 26km/h | 20921m | -18.0m/s | -56.0°C | 4.5% | 0hPa | 2.5V | 00:00:00 | 00:00:00 | 00:00:00 | |
| OE3MUC-15 | 2026-09-05 03:24:08 | 48.25882 | 15.41325 | 82° | 24km/h | 20987m | -16.3m/s | -55.9°C | 4.5% | 0hPa | 2.5V | 00:00:00 | 00:00:00 | 00:00:00 | |
| OE8JPQ-2 | 2026-09-05 03:24:07 | 48.25881 | 15.41317 | 83° | 20km/h | 21003m | -16.2m/s | -55.9°C | 4.5% | 0hPa | 2.5V | 00:00:00 | 00:00:00 | 00:00:00 | |
| OE3MUC-15 | 2026-09-05 03:24:04 | 48.25880 | 15.41290 | 89° | 20km/h | 21056m | -18.6m/s | -56.1°C | 4.7% | 0hPa | 2.5V | 08:29:00 | 00:00:00 | 00:00:00 | |
| SONDE2-11 | 2026-09-05 03:24:03 | 48.25880 | 15.41283 | 87° | 16km/h | 21074m | -18.4m/s | -56.2°C | 1.3% | -1.0hPa | 2.5V | 00:00:00 | 00:00:00 | 00:00:00 | |
| OM5KV | 2026-09-05 03:24:01 | 48.25879 | 15.41275 | 83° | 18km/h | 21091m | -17.3m/s | -56.1°C | 1.5% | 0hPa | 2.5V | 08:29:00 | 00:00:00 | 00:00:00 | |
| OE3OSB-13 | 2026-09-05 03:23:47 | 48.25890 | 15.41163 | 120° | 20km/h | 21379m | -15.7m/s | -55.0°C | 1.3% | -1.0hPa | 2.5V | 00:00:00 | 00:00:00 | 00:00:00 | |
| SP3BTT-10 | 2026-09-05 03:23:46 | 48.25890 | 15.41163 | 121° | 20km/h | 21380m | -15.6m/s | -54.9°C | 4.5% | 0hPa | 2.5V | 00:00:00 | 00:00:00 | 00:00:00 | |
| S52SK | 2026-09-05 03:23:45 | 48.25890 | 15.41163 | 122° | 22km/h | 21380m | -15.7m/s | -55.0°C | 1.4% | 0hPa | 2.5V | 00:00:00 | 00:00:00 | 00:00:00 | |
| OE3MUC-15 | 2026-09-05 03:23:44 | 48.25896 | 15.41150 | 128° | 20km/h | 21413m | -17.4m/s | -54.5°C | 4.3% | 0hPa | 2.5V | 00:00:00 | 00:00:00 | 00:00:00 | |
| OE5MMP-10 | 2026-09-05 03:23:43 | 48.25900 | 15.41143 | 128° | 15km/h | 21430m | -19.1m/s | -54.2°C | 4.2% | 0hPa | 2.5V | 00:00:00 | 01:35:00 | 00:00:00 | |
| OM5KV | 2026-09-05 03:23:39 | 48.25910 | 15.41127 | 133° | 16km/h | 21488m | -18.6m/s | -53.9°C | 1.3% | 0hPa | 2.5V | 00:00:00 | 00:00:00 | 00:00:00 | |
| DB0UT-7 | 2026-09-05 03:23:36 | 48.25920 | 15.41113 | 135° | 9km/h | 21564m | -18.6m/s | -53.6°C | 4.0% | 0hPa | 2.5V | 00:00:00 | 00:00:00 | 00:00:00 | |
| OE5WHR-10 | 2026-09-05 03:23:34 | 48.25925 | 15.41107 | 134° | 7km/h | 21600m | -18.1m/s | -53.6°C | 4.0% | 0hPa | 2.6V | 00:00:00 | 00:00:00 | 00:00:00 | |
| OM5KV | 2026-09-05 03:23:33 | 48.25927 | 15.41103 | 136° | 11km/h | 21618m | -19.8m/s | -53.5°C | 1.2% | 0hPa | 2.5V | 00:00:00 | 00:00:00 | 00:00:00 | |
| SONDE2-11 | 2026-09-05 03:23:32 | 48.25929 | 15.41101 | 129° | 11km/h | 21638m | -19.8m/s | -53.5°C | 1.1% | -1.0hPa | 2.5V | 00:00:00 | 00:00:00 | 00:00:00 | |
| OE5FHM-15 | 2026-09-05 03:23:31 | 48.25931 | 15.41097 | 129° | 9km/h | 21657m | -20.1m/s | -53.4°C | 4.0% | 0hPa | 2.5V | 00:00:00 | 01:34:48 | 08:30:00 | |
| PETON7-10 | 2026-09-05 03:23:29 | 48.25934 | 15.41091 | 116° | 5km/h | 21694m | -18.6m/s | -53.6°C | 4.1% | 0hPa | 2.6V | 00:00:00 | 00:00:00 | 00:00:00 | |
| OE5DRO-10 | 2026-09-05 03:23:28 | 48.25935 | 15.41088 | 112° | 13km/h | 21714m | -20.1m/s | -53.6°C | 4.1% | 0hPa | 2.5V | 00:00:00 | 00:00:00 | 00:00:00 | |
| OE8JPQ-2 | 2026-09-05 03:23:27 | 48.25936 | 15.41085 | 104° | 7km/h | 21732m | -18.4m/s | -53.6°C | 4.2% | 0hPa | 2.5V | 00:00:00 | 00:00:00 | 00:00:00 | |
| OM5KV | 2026-09-05 03:23:26 | 48.25936 | 15.41085 | 104° | 9km/h | 21732m | -18.4m/s | -53.7°C | 1.3% | 0hPa | 2.5V | 00:00:00 | 00:00:00 | 00:00:00 | |
| OE5DXL-15 | 2026-09-05 03:23:24 | 48.25937 | 15.41075 | 91° | 9km/h | 21790m | -20.3m/s | -53.5°C | 4.1% | 0hPa | 2.5V | 00:00:00 | 00:00:00 | 00:00:00 | |
| OE5MMP-10 | 2026-09-05 03:23:23 | 48.25937 | 15.41072 | 125° | 4km/h | 21810m | -21.2m/s | -53.5°C | 4.0% | 0hPa | 2.6V | 00:00:00 | 01:34:40 | 00:00:00 | |
| OM5KV | 2026-09-05 03:23:21 | 48.25938 | 15.41071 | 133° | 4km/h | 21831m | -20.4m/s | -53.6°C | 1.2% | 0hPa | 2.6V | 00:00:00 | 00:00:00 | 00:00:00 | |
| OE3MUC-15 | 2026-09-05 03:23:20 | 48.25940 | 15.41069 | 164° | 4km/h | 21876m | -23.1m/s | -53.4°C | 3.9% | 0hPa | 2.6V | 00:00:00 | 00:00:00 | 00:00:00 | |
| OE3MUC-15 | 2026-09-05 03:23:16 | 48.25941 | 15.41072 | 335° | 7km/h | 21971m | -23.9m/s | -53.3°C | 3.8% | 0hPa | 2.6V | 00:00:00 | 00:00:00 | 00:00:00 | |
| OM5KV | 2026-09-05 03:23:15 | 48.25941 | 15.41072 | 335° | 5km/h | 21971m | -23.9m/s | -53.4°C | 1.2% | 0hPa | 2.5V | 00:00:00 | 00:00:00 | 00:00:00 | |
| PETON7-10 | 2026-09-05 03:23:14 | 48.25938 | 15.41073 | 341° | 11km/h | 22016m | -21.4m/s | -53.3°C | 3.7% | 0hPa | 2.5V | 00:00:00 | 00:00:00 | 00:00:00 | |
| OE5WHR-10 | 2026-09-05 03:23:13 | 48.25936 | 15.41074 | 350° | 11km/h | 22037m | -21.1m/s | -53.2°C | 3.7% | 0hPa | 2.5V | 00:00:00 | 00:00:00 | 00:00:00 | |
| OE3MUC-15 | 2026-09-05 03:23:12 | 48.25933 | 15.41074 | 9° | 15km/h | 22057m | -19.5m/s | -53.2°C | 3.7% | 0hPa | 2.5V | 00:00:00 | 00:00:00 | 00:00:00 | |
| OE3JTB-15 | 2026-09-05 03:23:10 | 48.25926 | 15.41072 | 16° | 9km/h | 22094m | -16.7m/s | -53.1°C | 3.8% | 0hPa | 2.5V | 00:00:00 | 01:34:27 | 00:00:00 | |
| OE3MUC-15 | 2026-09-05 03:23:08 | 48.25919 | 15.41071 | 7° | 9km/h | 22124m | -13.4m/s | -53.2°C | 3.9% | 0hPa | 2.5V | 00:00:00 | 00:00:00 | 00:00:00 | |
| OE8JPQ-2 | 2026-09-05 03:23:07 | 48.25917 | 15.41070 | 18° | 9km/h | 22135m | -9.0m/s | -53.2°C | 3.9% | 0hPa | 2.5V | 00:00:00 | 00:00:00 | 00:00:00 | |
| DB0UT-7 | 2026-09-05 03:23:06 | 48.25914 | 15.41069 | 19° | 7km/h | 22140m | -0.4m/s | -53.2°C | 4.0% | 0hPa | 2.5V | 00:00:00 | 01:34:23 | 00:00:00 | |
| OE3MUC-15 | 2026-09-05 03:23:04 | 48.25910 | 15.41067 | 355° | 7km/h | 22132m | 4.1m/s | -53.2°C | 3.9% | 0hPa | 2.5V | 00:00:00 | 00:00:00 | 00:00:00 | |
| OE5FHM-15 | 2026-09-05 03:23:01 | 48.25905 | 15.41067 | 4° | 7km/h | 22114m | 5.7m/s | -53.1°C | 3.8% | 0hPa | 2.6V | 00:00:00 | 01:34:18 | 00:00:00 | |
| OE3MUC-15 | 2026-09-05 03:23:00 | 48.25902 | 15.41068 | 334° | 13km/h | 22108m | 6.9m/s | -53.2°C | 3.9% | 0hPa | 2.6V | 00:00:00 | 00:00:00 | 00:00:00 | |
| PETON7-10 | 2026-09-05 03:22:59 | 48.25899 | 15.41071 | 319° | 7km/h | 22102m | 5.3m/s | -53.2°C | 3.9% | 0hPa | 2.6V | 00:00:00 | 01:34:16 | 00:00:00 | |
| OE3MUC-15 | 2026-09-05 03:22:56 | 48.25891 | 15.41077 | 342° | 9km/h | 22085m | 4.5m/s | -53.3°C | 3.9% | 0hPa | 2.6V | 00:00:00 | 01:34:13 | 00:00:00 | |
| OE5DXL-15 | 2026-09-05 03:22:54 | 48.25886 | 15.41080 | 325° | 5km/h | 22073m | 5.1m/s | -53.3°C | 3.9% | 0hPa | 2.6V | 00:00:00 | 00:00:00 | 00:00:00 | |
| PG1ADW-2 | 2026-09-05 03:22:53 | 48.25884 | 15.41082 | 346° | 4km/h | 22068m | 5.9m/s | -53.3°C | 3.9% | 0hPa | 2.6V | 00:00:00 | 00:00:00 | 00:00:00 | |
| OE3MUC-15 | 2026-09-05 03:22:52 | 48.25882 | 15.41082 | 355° | 4km/h | 22061m | 5.8m/s | -53.2°C | 3.9% | 0hPa | 2.6V | 00:00:00 | 00:00:00 | 08:30:00 | |
| OM5KV | 2026-09-05 03:22:50 | 48.25882 | 15.41082 | 14° | 2km/h | 22057m | 4.6m/s | -53.3°C | 1.2% | 0hPa | 2.5V | 00:00:00 | 00:00:00 | 00:00:00 | |
| OE3MUC-15 | 2026-09-05 03:22:48 | 48.25880 | 15.41086 | 276° | 7km/h | 22039m | 5.5m/s | -53.3°C | 3.9% | 0hPa | 2.5V | 00:00:00 | 00:00:00 | 00:00:00 | |
| OE8JPQ-2 | 2026-09-05 03:22:47 | 48.25880 | 15.41089 | 273° | 5km/h | 22032m | 6.9m/s | -53.4°C | 3.9% | 0hPa | 2.5V | 00:00:00 | 01:34:04 | 00:00:00 | |
| OM5KV | 2026-09-05 03:22:45 | 48.25880 | 15.41091 | 294° | 5km/h | 22026m | 5.6m/s | -53.5°C | 1.2% | 0hPa | 2.5V | 00:00:00 | 00:00:00 | 00:00:00 | |
| OE3MUC-15 | 2026-09-05 03:22:44 | 48.25879 | 15.41095 | 285° | 5km/h | 22015m | 6.6m/s | -53.4°C | 3.9% | 0hPa | 2.5V | 00:00:00 | 00:00:00 | 00:00:00 | |
| OE5MMP-10 | 2026-09-05 03:22:43 | 48.25878 | 15.41098 | 258° | 4km/h | 22009m | 5.9m/s | -53.3°C | 3.9% | 0hPa | 2.5V | 00:00:00 | 01:34:00 | 00:00:00 | |
| OE3JTB-15 | 2026-09-05 03:22:41 | 48.25878 | 15.41100 | 22° | 5km/h | 21996m | 5.6m/s | -53.3°C | 3.9% | 0hPa | 2.5V | 00:00:00 | 00:00:00 | 00:00:00 | |
| OE3MUC-15 | 2026-09-05 03:22:40 | 48.25878 | 15.41100 | 209° | 2km/h | 21990m | 6.2m/s | -53.3°C | 3.9% | 0hPa | 2.6V | 00:00:00 | 00:00:00 | 00:00:00 | |
| OE3MUC-15 | 2026-09-05 03:22:36 | 48.25878 | 15.41102 | 271° | 5km/h | 21966m | 5.8m/s | -53.5°C | 4.0% | 0hPa | 2.7V | 00:00:00 | 00:00:00 | 00:00:00 | |
| OM5KV | 2026-09-05 03:22:34 | 48.25878 | 15.41103 | 294° | 4km/h | 21960m | 6.6m/s | -53.6°C | 1.3% | 0hPa | 2.7V | 00:00:00 | 00:00:00 | 00:00:00 | |
| OE5MMP-10 | 2026-09-05 03:22:33 | 48.25878 | 15.41108 | 255° | 5km/h | 21948m | 4.2m/s | -53.5°C | 4.0% | 0hPa | 2.7V | 00:00:00 | 01:33:50 | 00:00:00 | |
| OE3MUC-15 | 2026-09-05 03:22:32 | 48.25879 | 15.41111 | 245° | 5km/h | 21942m | 6.7m/s | -53.5°C | 4.0% | 0hPa | 2.6V | 00:00:00 | 00:00:00 | 00:00:00 | |
| OE5FHM-15 | 2026-09-05 03:22:31 | 48.25879 | 15.41111 | 148° | 7km/h | 21936m | 4.9m/s | -53.5°C | 4.0% | 0hPa | 2.6V | 00:00:00 | 01:33:48 | 00:00:00 | |
| PETON7-10 | 2026-09-05 03:22:29 | 48.25882 | 15.41109 | 155° | 7km/h | 21925m | 6.5m/s | -53.4°C | 4.0% | 0hPa | 2.6V | 00:00:00 | 00:00:00 | 00:00:00 | |
| OE3MUC-15 | 2026-09-05 03:22:28 | 48.25884 | 15.41108 | 137° | 5km/h | 21919m | 4.9m/s | -53.4°C | 3.9% | 0hPa | 2.6V | 00:00:00 | 00:00:00 | 00:00:00 | |
| OE8JPQ-2 | 2026-09-05 03:22:27 | 48.25885 | 15.41105 | 120° | 7km/h | 21914m | 5.5m/s | -53.4°C | 3.9% | 0hPa | 2.7V | 00:00:00 | 00:00:00 | 08:30:00 | |
| OE3MUC-15 | 2026-09-05 03:22:24 | 48.25884 | 15.41100 | 43° | 5km/h | 21896m | 6.4m/s | -53.3°C | 3.9% | 0hPa | 2.7V | 00:00:00 | 00:00:00 | 00:00:00 | |
| OE5MMP-10 | 2026-09-05 03:22:23 | 48.25883 | 15.41100 | 1° | 7km/h | 21891m | 4.6m/s | -53.3°C | 3.9% | 0hPa | 2.7V | 00:00:00 | 01:33:40 | 00:00:00 | |
| OM5KV | 2026-09-05 03:22:21 | 48.25883 | 15.41099 | 49° | 4km/h | 21885m | 7.2m/s | -53.4°C | 1.2% | 0hPa | 2.7V | 00:00:00 | 00:00:00 | 00:00:00 | |
| OE3MUC-15 | 2026-09-05 03:22:20 | 48.25882 | 15.41095 | 98° | 7km/h | 21873m | 5.1m/s | -53.3°C | 3.9% | 0hPa | 2.7V | 00:00:00 | 00:00:00 | 00:00:00 | |
| OM5KV | 2026-09-05 03:22:18 | 48.25882 | 15.41093 | 137° | 5km/h | 21868m | 6.5m/s | -53.4°C | 1.2% | 0hPa | 2.7V | 00:00:00 | 00:00:00 | 00:00:00 | |
| OE3MUC-15 | 2026-09-05 03:22:16 | 48.25886 | 15.41087 | 106° | 7km/h | 21849m | 5.4m/s | -53.5°C | 4.0% | 0hPa | 2.7V | 00:00:00 | 00:00:00 | 08:30:00 | |
| OM5KV | 2026-09-05 03:22:15 | 48.25886 | 15.41087 | 107° | 7km/h | 21849m | 5.4m/s | -53.6°C | 1.2% | 0hPa | 2.6V | 00:00:00 | 00:00:00 | 00:00:00 | |
| OE3OSB-13 | 2026-09-05 03:22:14 | 48.25888 | 15.41080 | 133° | 7km/h | 21831m | 5.3m/s | -53.6°C | 1.1% | -1.0hPa | 2.6V | 00:00:00 | 00:00:00 | 00:00:00 | |
| PG1ADW-2 | 2026-09-05 03:22:13 | 48.25888 | 15.41080 | 134° | 7km/h | 21831m | 5.2m/s | -53.5°C | 4.0% | 0hPa | 2.6V | 00:00:00 | 00:00:00 | 00:00:00 | |
| OE3MUC-15 | 2026-09-05 03:22:12 | 48.25889 | 15.41078 | 114° | 9km/h | 21826m | 5.8m/s | -53.5°C | 4.0% | 0hPa | 2.6V | 00:00:00 | 00:00:00 | 00:00:00 | |
| OE3MUC-15 | 2026-09-05 03:22:08 | 48.25891 | 15.41064 | 102° | 11km/h | 21800m | 5.3m/s | -53.4°C | 4.0% | 0hPa | 2.6V | 00:00:00 | 00:00:00 | 00:00:00 | |
| OE8JPQ-2 | 2026-09-05 03:22:07 | 48.25892 | 15.41060 | 101° | 7km/h | 21794m | 6.9m/s | -53.3°C | 3.9% | 0hPa | 2.6V | 00:00:00 | 00:00:00 | 00:00:00 | |
| OE3MUC-15 | 2026-09-05 03:22:04 | 48.25892 | 15.41049 | 107° | 5km/h | 21776m | 6.6m/s | -53.3°C | 3.9% | 0hPa | 2.6V | 00:00:00 | 00:00:00 | 00:00:00 | |
| OE5FHM-15 | 2026-09-05 03:22:01 | 48.25894 | 15.41046 | 118° | 11km/h | 21759m | 5.8m/s | -53.4°C | 4.0% | 0hPa | 2.6V | 00:00:00 | 01:33:18 | 00:00:00 | |
| OE3MUC-15 | 2026-09-05 03:22:00 | 48.25895 | 15.41044 | 119° | 7km/h | 21753m | 5.8m/s | -53.4°C | 4.0% | 0hPa | 2.7V | 00:00:00 | 00:00:00 | 00:00:00 | |
| PETON7-10 | 2026-09-05 03:21:59 | 48.25895 | 15.41043 | 153° | 9km/h | 21747m | 5.9m/s | -53.4°C | 4.0% | 0hPa | 2.7V | 00:00:00 | 00:00:00 | 00:00:00 | |
| OE3MUC-15 | 2026-09-05 03:21:56 | 48.25900 | 15.41039 | 120° | 7km/h | 21729m | 6.9m/s | -53.5°C | 4.0% | 0hPa | 2.7V | 00:00:00 | 00:00:00 | 00:00:00 | |
| DB0UT-7 | 2026-09-05 03:21:55 | 48.25900 | 15.41036 | 98° | 11km/h | 21723m | 5.5m/s | 0°C | 0% | 0hPa | 2.7V | 00:00:00 | 00:00:00 | 00:00:00 | |
| OE5DXL-15 | 2026-09-05 03:21:54 | 48.25901 | 15.41034 | 102° | 11km/h | 21717m | 6.4m/s | -53.4°C | 4.0% | 0hPa | 2.7V | 00:00:00 | 00:00:00 | 08:30:00 | |
| OE5MMP-10 | 2026-09-05 03:21:53 | 48.25901 | 15.41032 | 110° | 9km/h | 21711m | 6.2m/s | -53.4°C | 4.0% | 0hPa | 2.5V | 00:00:00 | 01:33:10 | 00:00:00 | |
| OE3MUC-15 | 2026-09-05 03:21:52 | 48.25901 | 15.41030 | 127° | 7km/h | 21705m | 4.8m/s | -53.4°C | 4.0% | 0hPa | 2.5V | 00:00:00 | 00:00:00 | 00:00:00 | |
| OE5WHR-10 | 2026-09-05 03:21:49 | 48.25904 | 15.41023 | 127° | 15km/h | 21686m | 6.6m/s | -53.3°C | 4.0% | 0hPa | 2.6V | 00:00:00 | 01:33:06 | 00:00:00 | |
| OE3MUC-15 | 2026-09-05 03:21:48 | 48.25906 | 15.41020 | 150° | 13km/h | 21680m | 5.9m/s | -53.3°C | 4.0% | 0hPa | 2.6V | 00:00:00 | 00:00:00 | 00:00:00 | |
| OE8JPQ-2 | 2026-09-05 03:21:47 | 48.25909 | 15.41018 | 151° | 15km/h | 21674m | 5.1m/s | -53.3°C | 4.0% | 0hPa | 2.6V | 00:00:00 | 01:33:04 | 00:00:00 | |
| OM5KV | 2026-09-05 03:21:45 | 48.25912 | 15.41015 | 147° | 15km/h | 21668m | 7.3m/s | -53.3°C | 1.2% | 0hPa | 2.6V | 00:00:00 | 00:00:00 | 00:00:00 | |
| OE3MUC-15 | 2026-09-05 03:21:44 | 48.25916 | 15.41008 | 123° | 9km/h | 21656m | 5.4m/s | -53.2°C | 3.9% | 0hPa | 2.6V | 00:00:00 | 00:00:00 | 00:00:00 | |
| OE5MMP-10 | 2026-09-05 03:21:43 | 48.25918 | 15.41004 | 136° | 13km/h | 21650m | 6.8m/s | -53.2°C | 3.9% | 0hPa | 2.6V | 00:00:00 | 01:33:00 | 00:00:00 | |
| OE3OSB-13 | 2026-09-05 03:21:42 | 48.25919 | 15.41002 | 131° | 7km/h | 21644m | 5.6m/s | -53.2°C | 1.1% | -1.0hPa | 2.6V | 00:00:00 | 00:00:00 | 00:00:00 | |
| OE5DRO-10 | 2026-09-05 03:21:39 | 48.25922 | 15.40995 | 157° | 13km/h | 21626m | 6.7m/s | -53.1°C | 3.9% | 0hPa | 2.6V | 00:00:00 | 00:00:00 | 00:00:00 | |
| OM5KV | 2026-09-05 03:21:37 | 48.25924 | 15.40994 | 154° | 9km/h | 21620m | 5.2m/s | -53.2°C | 1.2% | 0hPa | 2.6V | 00:00:00 | 00:00:00 | 00:00:00 | |
| OM5KV | 2026-09-05 03:21:34 | 48.25934 | 15.40985 | 159° | 18km/h | 21603m | 6.9m/s | -53.2°C | 1.2% | 0hPa | 2.6V | 00:00:00 | 00:00:00 | 00:00:00 | |
| OE5MMP-10 | 2026-09-05 03:21:33 | 48.25944 | 15.40979 | 158° | 13km/h | 21591m | 6.2m/s | -53.2°C | 3.9% | 0hPa | 2.6V | 00:00:00 | 01:32:50 | 08:30:00 | |
| OE5FHM-15 | 2026-09-05 03:21:31 | 48.25953 | 15.40971 | 150° | 15km/h | 21579m | 5.3m/s | -53.2°C | 3.9% | 0hPa | 2.6V | 00:00:00 | 01:32:48 | 00:00:00 | |
| PETON7-10 | 2026-09-05 03:21:29 | 48.25960 | 15.40966 | 162° | 13km/h | 21567m | 4.6m/s | -53.3°C | 3.9% | 0hPa | 2.6V | 00:00:00 | 01:32:46 | 00:00:00 | |
| OE5WHR-10 | 2026-09-05 03:21:28 | 48.25963 | 15.40964 | 154° | 13km/h | 21562m | 6.3m/s | -53.3°C | 3.9% | 0hPa | 2.6V | 00:00:00 | 00:00:00 | 08:30:00 | |
| OE8JPQ-2 | 2026-09-05 03:21:27 | 48.25965 | 15.40962 | 113° | 13km/h | 21555m | 7.0m/s | -53.3°C | 3.9% | 0hPa | 2.6V | 00:00:00 | 00:00:00 | 00:00:00 | |
| OM5KV | 2026-09-05 03:21:26 | 48.25965 | 15.40962 | 113° | 9km/h | 21555m | 7.1m/s | -53.4°C | 1.2% | 0hPa | 2.6V | 00:00:00 | 00:00:00 | 00:00:00 | |
| DB0UT-7 | 2026-09-05 03:21:25 | 48.25966 | 15.40958 | 148° | 7km/h | 21543m | 6.8m/s | 0°C | 0% | 0hPa | 2.6V | 00:00:00 | 01:32:42 | 00:00:00 | |
| OE5DXL-15 | 2026-09-05 03:21:24 | 48.25967 | 15.40957 | 141° | 18km/h | 21537m | 5.5m/s | -53.2°C | 3.8% | 0hPa | 2.6V | 00:00:00 | 00:00:00 | 00:00:00 | |
| OE5MMP-10 | 2026-09-05 03:21:23 | 48.25968 | 15.40955 | 118° | 15km/h | 21530m | 7.0m/s | -53.2°C | 3.9% | 0hPa | 2.6V | 00:00:00 | 01:32:40 | 00:00:00 | |
| OE3MUC-15 | 2026-09-05 03:21:20 | 48.25973 | 15.40945 | 150° | 18km/h | 21514m | 6.7m/s | -53.4°C | 3.9% | 0hPa | 2.6V | 00:00:00 | 00:00:00 | 00:00:00 | |
| OE3MUC-15 | 2026-09-05 03:21:16 | 48.25989 | 15.40930 | 130° | 15km/h | 21489m | 5.3m/s | -53.3°C | 3.9% | 0hPa | 2.6V | 00:00:00 | 00:00:00 | 00:00:00 | |
| PETON7-10 | 2026-09-05 03:21:14 | 48.25994 | 15.40921 | 126° | 20km/h | 21477m | 5.5m/s | -53.2°C | 3.8% | 0hPa | 2.7V | 00:00:00 | 00:00:00 | 00:00:00 | |
| OE5MMP-10 | 2026-09-05 03:21:13 | 48.25995 | 15.40917 | 112° | 18km/h | 21470m | 7.1m/s | -53.2°C | 3.8% | 0hPa | 2.7V | 00:00:00 | 01:32:30 | 00:00:00 | |
| OE3MUC-15 | 2026-09-05 03:21:12 | 48.25996 | 15.40911 | 99° | 15km/h | 21464m | 5.5m/s | -53.2°C | 3.8% | 0hPa | 2.7V | 00:00:00 | 00:00:00 | 00:00:00 | |
| OE3OSB-13 | 2026-09-05 03:21:11 | 48.25999 | 15.40901 | 130° | 9km/h | 21452m | 6.1m/s | -53.4°C | 1.1% | -1.0hPa | 2.7V | 00:00:00 | 00:00:00 | 00:00:00 | |
| OM5KV | 2026-09-05 03:21:09 | 48.25999 | 15.40901 | 132° | 11km/h | 21452m | 6.1m/s | -53.4°C | 1.2% | 0hPa | 2.7V | 00:00:00 | 00:00:00 | 00:00:00 | |
| OE3MUC-15 | 2026-09-05 03:21:08 | 48.26005 | 15.40894 | 146° | 24km/h | 21439m | 7.1m/s | -53.6°C | 3.8% | 0hPa | 2.7V | 00:00:00 | 00:00:00 | 00:00:00 | |
| OE5WHR-10 | 2026-09-05 03:21:07 | 48.26009 | 15.40890 | 143° | 24km/h | 21433m | 5.4m/s | -53.6°C | 3.8% | 0hPa | 2.7V | 00:00:00 | 00:00:00 | 00:00:00 | |
| OM5KV | 2026-09-05 03:21:06 | 48.26009 | 15.40890 | 144° | 24km/h | 21433m | 5.4m/s | -53.7°C | 1.2% | 0hPa | 2.7V | 00:00:00 | 00:00:00 | 00:00:00 | |
| OE3MUC-15 | 2026-09-05 03:21:04 | 48.26025 | 15.40876 | 148° | 26km/h | 21415m | 5.5m/s | -53.7°C | 3.8% | 0hPa | 2.7V | 00:00:00 | 00:00:00 | 08:30:00 | |
| OE5MMP-10 | 2026-09-05 03:21:03 | 48.26030 | 15.40870 | 138° | 26km/h | 21409m | 6.4m/s | -53.7°C | 3.8% | 0hPa | 2.7V | 00:00:00 | 01:32:20 | 00:00:00 | |
| SONDE2-11 | 2026-09-05 03:20:57 | 48.26048 | 15.40821 | 115° | 26km/h | 21373m | 5.2m/s | -54.1°C | 1.1% | -1.0hPa | 2.7V | 00:00:00 | 00:00:00 | 00:00:00 | |
| OE3MUC-15 | 2026-09-05 03:20:56 | 48.26051 | 15.40812 | 121° | 26km/h | 21367m | 6.6m/s | -54.1°C | 3.9% | 0hPa | 2.7V | 00:00:00 | 00:00:00 | 00:00:00 | |
| OE5DXL-15 | 2026-09-05 03:20:54 | 48.26059 | 15.40797 | 129° | 20km/h | 21356m | 6.6m/s | -54.2°C | 3.9% | 0hPa | 2.7V | 00:00:00 | 00:00:00 | 00:00:00 | |
| PG1ADW-2 | 2026-09-05 03:20:53 | 48.26063 | 15.40790 | 133° | 22km/h | 21350m | 5.8m/s | -54.3°C | 4.0% | 0hPa | 2.7V | 00:00:00 | 00:00:00 | 00:00:00 | |
| OE3MUC-15 | 2026-09-05 03:20:52 | 48.26067 | 15.40783 | 139° | 18km/h | 21344m | 7.0m/s | -54.4°C | 4.0% | 0hPa | 2.7V | 00:00:00 | 00:00:00 | 00:00:00 | |
| OM5KV | 2026-09-05 03:20:51 | 48.26067 | 15.40783 | 140° | 24km/h | 21344m | 7.0m/s | -54.4°C | 1.2% | 0hPa | 2.6V | 00:00:00 | 00:00:00 | 00:00:00 | |
| S52SK | 2026-09-05 03:20:50 | 48.26071 | 15.40778 | 132° | 18km/h | 21338m | 4.8m/s | -54.5°C | 1.3% | 0hPa | 2.6V | 00:00:00 | 00:00:00 | 00:00:00 | |
| OE3MUC-15 | 2026-09-05 03:20:48 | 48.26075 | 15.40758 | 80° | 22km/h | 21322m | 5.4m/s | -54.6°C | 4.1% | 0hPa | 2.6V | 00:00:00 | 00:00:00 | 00:00:00 | |
| OE8JPQ-2 | 2026-09-05 03:20:47 | 48.26073 | 15.40751 | 70° | 22km/h | 21317m | 5.2m/s | -54.7°C | 4.1% | 0hPa | 2.6V | 00:00:00 | 01:32:04 | 00:00:00 | |
| OE5WHR-10 | 2026-09-05 03:20:46 | 48.26071 | 15.40743 | 66° | 20km/h | 21311m | 6.3m/s | -54.7°C | 4.1% | 0hPa | 2.6V | 00:00:00 | 01:32:03 | 00:00:00 | |
| OE3JTB-15 | 2026-09-05 03:20:45 | 48.26069 | 15.40736 | 70° | 18km/h | 21305m | 5.2m/s | -54.7°C | 4.1% | 0hPa | 2.6V | 00:00:00 | 00:00:00 | 00:00:00 | |
| OE3MUC-15 | 2026-09-05 03:20:44 | 48.26068 | 15.40728 | 82° | 24km/h | 21300m | 6.0m/s | -54.7°C | 4.1% | 0hPa | 2.6V | 00:00:00 | 00:00:00 | 00:00:00 | |
| OE5MMP-10 | 2026-09-05 03:20:43 | 48.26068 | 15.40720 | 90° | 22km/h | 21294m | 6.6m/s | -54.8°C | 4.1% | 0hPa | 2.6V | 00:00:00 | 01:32:00 | 00:00:00 | |
| OM5KV | 2026-09-05 03:20:42 | 48.26068 | 15.40720 | 90° | 24km/h | 21294m | 6.7m/s | -54.9°C | 1.3% | 0hPa | 2.6V | 00:00:00 | 00:00:00 | 00:00:00 | |
| OE3MUC-15 | 2026-09-05 03:20:40 | 48.26072 | 15.40694 | 120° | 22km/h | 21276m | 4.5m/s | -55.2°C | 4.2% | 0hPa | 2.6V | 00:00:00 | 00:00:00 | 00:00:00 | |
| OM5KV | 2026-09-05 03:20:39 | 48.26072 | 15.40694 | 121° | 22km/h | 21276m | 4.6m/s | -55.2°C | 1.4% | 0hPa | 2.6V | 00:00:00 | 00:00:00 | 00:00:00 | |
| OE3MUC-15 | 2026-09-05 03:20:36 | 48.26084 | 15.40666 | 125° | 20km/h | 21253m | 6.9m/s | -55.4°C | 4.3% | 0hPa | 2.6V | 00:00:00 | 00:00:00 | 00:00:00 | |
| OE5MMP-10 | 2026-09-05 03:20:33 | 48.26088 | 15.40646 | 89° | 16km/h | 21236m | 6.3m/s | -55.3°C | 4.2% | 0hPa | 2.6V | 00:00:00 | 01:31:50 | 00:00:00 | |
| OE3MUC-15 | 2026-09-05 03:20:32 | 48.26087 | 15.40638 | 81° | 20km/h | 21230m | 4.9m/s | -55.2°C | 4.2% | 0hPa | 2.7V | 00:00:00 | 00:00:00 | 00:00:00 | |
| PETON7-10 | 2026-09-05 03:20:29 | 48.26084 | 15.40615 | 77° | 16km/h | 21213m | 5.7m/s | -55.3°C | 4.2% | 0hPa | 2.7V | 00:00:00 | 00:00:00 | 08:30:00 | |
| OE3MUC-15 | 2026-09-05 03:20:28 | 48.26083 | 15.40608 | 79° | 13km/h | 21207m | 5.2m/s | -55.3°C | 4.2% | 0hPa | 2.6V | 00:00:00 | 00:00:00 | 08:30:00 | |
| OE8JPQ-2 | 2026-09-05 03:20:27 | 48.26082 | 15.40602 | 77° | 16km/h | 21202m | 4.9m/s | -55.4°C | 4.2% | 0hPa | 2.6V | 00:00:00 | 00:00:00 | 00:00:00 | |
| OE5FHM-15 | 2026-09-05 03:20:25 | 48.26080 | 15.40593 | 81° | 22km/h | 21190m | 4.7m/s | -55.4°C | 4.2% | 0hPa | 2.7V | 00:00:00 | 01:31:42 | 00:00:00 | |
| OE3MUC-15 | 2026-09-05 03:20:24 | 48.26080 | 15.40590 | 90° | 15km/h | 21185m | 6.7m/s | -55.4°C | 4.3% | 0hPa | 2.6V | 00:00:00 | 00:00:00 | 00:00:00 | |
| OE5MMP-10 | 2026-09-05 03:20:23 | 48.26080 | 15.40584 | 89° | 18km/h | 21179m | 5.1m/s | -55.4°C | 4.3% | 0hPa | 2.6V | 00:00:00 | 01:31:40 | 00:00:00 | |
| OM5KV | 2026-09-05 03:20:22 | 48.26080 | 15.40584 | 90° | 15km/h | 21179m | 5.2m/s | -55.4°C | 1.4% | 0hPa | 2.6V | 00:00:00 | 00:00:00 | 00:00:00 | |
| OE5DRO-10 | 2026-09-05 03:20:21 | 48.26079 | 15.40573 | 68° | 20km/h | 21166m | 6.1m/s | -55.4°C | 4.3% | 0hPa | 2.6V | 00:00:00 | 00:00:00 | 00:00:00 | |
| OE3MUC-15 | 2026-09-05 03:20:20 | 48.26077 | 15.40568 | 62° | 20km/h | 21161m | 4.5m/s | -55.4°C | 4.3% | 0hPa | 2.6V | 00:00:00 | 00:00:00 | 00:00:00 | |
| OM5KV | 2026-09-05 03:20:19 | 48.26077 | 15.40568 | 63° | 18km/h | 21161m | 4.5m/s | -55.5°C | 1.4% | 0hPa | 2.6V | 00:00:00 | 00:00:00 | 00:00:00 | |
| OE3MUC-15 | 2026-09-05 03:20:16 | 48.26068 | 15.40540 | 68° | 16km/h | 21140m | 5.9m/s | -55.4°C | 4.3% | 0hPa | 2.6V | 00:00:00 | 00:00:00 | 00:00:00 | |
| PETON7-10 | 2026-09-05 03:20:14 | 48.26064 | 15.40529 | 49° | 18km/h | 21129m | 4.5m/s | -55.4°C | 4.2% | 0hPa | 2.7V | 00:00:00 | 00:00:00 | 00:00:00 | |
| PG1ADW-2 | 2026-09-05 03:20:13 | 48.26061 | 15.40524 | 51° | 20km/h | 21123m | 6.3m/s | -55.4°C | 4.2% | 0hPa | 2.7V | 00:00:00 | 00:00:00 | 08:30:00 | |
| OE3MUC-15 | 2026-09-05 03:20:12 | 48.26058 | 15.40519 | 56° | 16km/h | 21117m | 5.6m/s | -55.4°C | 4.2% | 0hPa | 2.7V | 00:00:00 | 00:00:00 | 00:00:00 | |
| OE3OSB-13 | 2026-09-05 03:20:09 | 48.26049 | 15.40498 | 70° | 13km/h | 21096m | 4.3m/s | -55.6°C | 1.2% | -1.0hPa | 2.7V | 00:00:00 | 00:00:00 | 00:00:00 | |
| OE3MUC-15 | 2026-09-05 03:20:08 | 48.26049 | 15.40498 | 71° | 20km/h | 21096m | 4.3m/s | -55.5°C | 4.3% | 0hPa | 2.7V | 00:00:00 | 00:00:00 | 00:00:00 | |
| OE8JPQ-2 | 2026-09-05 03:20:07 | 48.26048 | 15.40492 | 80° | 22km/h | 21090m | 6.7m/s | -55.6°C | 4.3% | 0hPa | 2.7V | 00:00:00 | 00:00:00 | 00:00:00 | |
| OM5KV | 2026-09-05 03:20:05 | 48.26047 | 15.40485 | 83° | 22km/h | 21084m | 5.1m/s | -55.7°C | 1.4% | 0hPa | 2.7V | 00:00:00 | 00:00:00 | 00:00:00 | |
| OE5WHR-10 | 2026-09-05 03:20:04 | 48.26046 | 15.40468 | 89° | 22km/h | 21073m | 5.5m/s | -55.7°C | 4.3% | 0hPa | 2.7V | 00:00:00 | 00:00:00 | 00:00:00 | |
| OE5MMP-10 | 2026-09-05 03:20:03 | 48.26046 | 15.40460 | 87° | 22km/h | 21068m | 4.0m/s | -55.8°C | 4.4% | 0hPa | 2.7V | 00:00:00 | 01:31:20 | 08:30:00 | |
| OM5KV | 2026-09-05 03:20:01 | 48.26045 | 15.40453 | 84° | 22km/h | 21063m | 6.6m/s | -55.8°C | 1.4% | 0hPa | 2.6V | 00:00:00 | 00:00:00 | 00:00:00 | |
| SONDE2-11 | 2026-09-05 03:19:55 | 48.26046 | 15.40394 | 91° | 22km/h | 21023m | 6.6m/s | -55.9°C | 1.3% | -1.0hPa | 2.6V | 00:00:00 | 00:00:00 | 00:00:00 | |
| OE5DXL-15 | 2026-09-05 03:19:54 | 48.26046 | 15.40386 | 86° | 24km/h | 21017m | 5.3m/s | -55.8°C | 4.4% | 0hPa | 2.6V | 00:00:00 | 00:00:00 | 00:00:00 | |
| OE5MMP-10 | 2026-09-05 03:19:53 | 48.26045 | 15.40377 | 82° | 22km/h | 21012m | 5.0m/s | -55.8°C | 4.4% | 0hPa | 2.6V | 00:00:00 | 01:31:10 | 00:00:00 | |
| OE3MUC-15 | 2026-09-05 03:19:52 | 48.26044 | 15.40369 | 77° | 26km/h | 21006m | 6.3m/s | -55.8°C | 4.4% | 0hPa | 2.6V | 00:00:00 | 00:00:00 | 08:30:00 | |
| OE5FHM-15 | 2026-09-05 03:19:49 | 48.26037 | 15.40341 | 67° | 22km/h | 20989m | 5.9m/s | -55.7°C | 4.3% | 0hPa | 2.6V | 00:00:00 | 01:31:06 | 00:00:00 | |
| OE3MUC-15 | 2026-09-05 03:19:48 | 48.26035 | 15.40334 | 70° | 20km/h | 20983m | 4.7m/s | -55.7°C | 4.4% | 0hPa | 2.6V | 00:00:00 | 00:00:00 | 00:00:00 | |
| OE8JPQ-2 | 2026-09-05 03:19:47 | 48.26034 | 15.40326 | 77° | 24km/h | 20978m | 6.3m/s | -55.7°C | 4.3% | 0hPa | 2.6V | 00:00:00 | 01:31:04 | 00:00:00 | |
| OM5KV | 2026-09-05 03:19:46 | 48.26034 | 15.40326 | 78° | 22km/h | 20978m | 6.4m/s | -55.8°C | 1.4% | 0hPa | 2.6V | 00:00:00 | 00:00:00 | 00:00:00 | |
| OE3MUC-15 | 2026-09-05 03:19:44 | 48.26030 | 15.40306 | 67° | 22km/h | 20960m | 4.2m/s | -55.8°C | 4.4% | 0hPa | 2.6V | 00:00:00 | 00:00:00 | 00:00:00 | |
| OE5WHR-10 | 2026-09-05 03:19:43 | 48.26028 | 15.40299 | 67° | 24km/h | 20956m | 4.1m/s | -55.8°C | 4.4% | 0hPa | 2.6V | 00:00:00 | 01:31:00 | 00:00:00 | |
| OM5KV | 2026-09-05 03:19:40 | 48.26023 | 15.40283 | 71° | 24km/h | 20946m | 4.9m/s | -55.9°C | 1.4% | 0hPa | 2.6V | 00:00:00 | 00:00:00 | 00:00:00 | |
| OM5KV | 2026-09-05 03:19:37 | 48.26014 | 15.40260 | 51° | 24km/h | 20930m | 3.7m/s | -56.0°C | 1.4% | 0hPa | 2.6V | 00:00:00 | 00:00:00 | 00:00:00 | |
| OE5MMP-10 | 2026-09-05 03:19:33 | 48.25998 | 15.40219 | 58° | 26km/h | 20903m | 4.3m/s | -55.9°C | 4.5% | 0hPa | 2.6V | 00:00:00 | 01:30:50 | 00:00:00 | |
| OM5KV | 2026-09-05 03:19:32 | 48.25998 | 15.40219 | 58° | 24km/h | 20903m | 4.3m/s | -55.9°C | 1.4% | 0hPa | 2.7V | 00:00:00 | 00:00:00 | 00:00:00 | |
| PETON7-10 | 2026-09-05 03:19:29 | 48.25983 | 15.40188 | 48° | 20km/h | 20882m | 5.3m/s | -55.7°C | 4.4% | 0hPa | 2.7V | 00:00:00 | 00:00:00 | 00:00:00 | |
| SP3BTT-10 | 2026-09-05 03:19:28 | 48.25978 | 15.40181 | 35° | 15km/h | 20876m | 6.1m/s | -55.7°C | 4.4% | 0hPa | 2.7V | 00:00:00 | 00:00:00 | 00:00:00 | |
| OE8JPQ-2 | 2026-09-05 03:19:27 | 48.25972 | 15.40176 | 23° | 18km/h | 20871m | 4.5m/s | -55.7°C | 4.5% | 0hPa | 2.7V | 00:00:00 | 00:00:00 | 08:30:00 | |
| OM5KV | 2026-09-05 03:19:26 | 48.25972 | 15.40176 | 23° | 27km/h | 20871m | 4.5m/s | -55.7°C | 1.5% | 0hPa | 2.6V | 00:00:00 | 00:00:00 | 00:00:00 | |
| OE5DXL-15 | 2026-09-05 03:19:24 | 48.25956 | 15.40164 | 31° | 15km/h | 20855m | 3.8m/s | -55.6°C | 4.5% | 0hPa | 2.6V | 00:00:00 | 00:00:00 | 00:00:00 | |
| OE5MMP-10 | 2026-09-05 03:19:23 | 48.25952 | 15.40161 | 26° | 18km/h | 20851m | 5.1m/s | -55.5°C | 4.5% | 0hPa | 2.6V | 00:00:00 | 01:30:40 | 00:00:00 | |
| OE5WHR-10 | 2026-09-05 03:19:22 | 48.25948 | 15.40159 | 8° | 16km/h | 20846m | 5.7m/s | -55.5°C | 4.5% | 0hPa | 2.6V | 00:00:00 | 00:00:00 | 00:00:00 | |
| OM5KV | 2026-09-05 03:19:21 | 48.25948 | 15.40159 | 9° | 13km/h | 20846m | 5.8m/s | -55.5°C | 1.5% | 0hPa | 2.7V | 00:00:00 | 00:00:00 | 00:00:00 | |
| OE3MUC-15 | 2026-09-05 03:19:20 | 48.25943 | 15.40157 | 36° | 18km/h | 20836m | 5.7m/s | -55.4°C | 4.5% | 0hPa | 2.7V | 00:00:00 | 00:00:00 | 00:00:00 | |
| OE5FHM-15 | 2026-09-05 03:19:19 | 48.25940 | 15.40153 | 49° | 15km/h | 20830m | 5.2m/s | -55.4°C | 4.4% | 0hPa | 2.7V | 00:00:00 | 01:30:36 | 00:00:00 | |
| OE3JTB-15 | 2026-09-05 03:19:18 | 48.25937 | 15.40148 | 49° | 15km/h | 20825m | 3.9m/s | -55.4°C | 4.4% | 0hPa | 2.7V | 00:00:00 | 00:00:00 | 00:00:00 | |
| OE3MUC-15 | 2026-09-05 03:19:16 | 48.25929 | 15.40136 | 33° | 22km/h | 20816m | 5.3m/s | -55.3°C | 4.5% | 0hPa | 2.7V | 00:00:00 | 00:00:00 | 08:30:00 | |
| OM5KV | 2026-09-05 03:19:15 | 48.25928 | 15.40136 | 34° | 24km/h | 20816m | 5.4m/s | -55.3°C | 1.4% | 0hPa | 2.7V | 00:00:00 | 00:00:00 | 00:00:00 | |
| PETON7-10 | 2026-09-05 03:19:14 | 48.25919 | 15.40127 | 33° | 16km/h | 20805m | 6.6m/s | -55.2°C | 4.5% | 0hPa | 2.7V | 00:00:00 | 01:30:31 | 00:00:00 | |
| OE5MMP-10 | 2026-09-05 03:19:13 | 48.25914 | 15.40123 | 29° | 16km/h | 20799m | 4.5m/s | -55.2°C | 4.4% | 0hPa | 2.7V | 00:00:00 | 01:30:30 | 00:00:00 | |
| OE3MUC-15 | 2026-09-05 03:19:12 | 48.25910 | 15.40121 | 18° | 18km/h | 20794m | 5.0m/s | -55.1°C | 4.4% | 0hPa | 2.7V | 00:00:00 | 00:00:00 | 00:00:00 | |
| OM5KV | 2026-09-05 03:19:09 | 48.25901 | 15.40118 | 6° | 16km/h | 20784m | 3.9m/s | -55.1°C | 1.4% | 0hPa | 2.7V | 00:00:00 | 00:00:00 | 00:00:00 | |
| OE3MUC-15 | 2026-09-05 03:19:08 | 48.25893 | 15.40116 | 17° | 15km/h | 20773m | 5.0m/s | -55.0°C | 4.3% | 0hPa | 2.7V | 00:00:00 | 00:00:00 | 00:00:00 | |
| OE8JPQ-2 | 2026-09-05 03:19:07 | 48.25890 | 15.40114 | 19° | 11km/h | 20768m | 4.7m/s | -54.9°C | 4.3% | 0hPa | 2.7V | 00:00:00 | 00:00:00 | 00:00:00 | |
| OE3MUC-15 | 2026-09-05 03:19:04 | 48.25880 | 15.40108 | 44° | 15km/h | 20751m | 7.6m/s | -54.8°C | 4.3% | 0hPa | 2.7V | 00:00:00 | 00:00:00 | 00:00:00 | |
| OE5WHR-10 | 2026-09-05 03:19:01 | 48.25871 | 15.40098 | 21° | 9km/h | 20732m | 5.3m/s | -54.6°C | 4.2% | 0hPa | 2.7V | 00:00:00 | 00:00:00 | 00:00:00 | |
| OE3MUC-15 | 2026-09-05 03:19:00 | 48.25867 | 15.40096 | 14° | 9km/h | 20728m | 3.8m/s | -54.6°C | 4.2% | 0hPa | 2.7V | 00:00:00 | 00:00:00 | 00:00:00 | |
| PETON7-10 | 2026-09-05 03:18:59 | 48.25864 | 15.40095 | 20° | 9km/h | 20723m | 6.2m/s | -54.6°C | 4.2% | 0hPa | 2.7V | 00:00:00 | 00:00:00 | 00:00:00 | |
| OM5KV | 2026-09-05 03:18:58 | 48.25864 | 15.40095 | 21° | 11km/h | 20723m | 6.2m/s | -54.6°C | 1.3% | 0hPa | 2.6V | 00:00:00 | 00:00:00 | 00:00:00 | |
| OM5KV | 2026-09-05 03:18:57 | 48.25862 | 15.40093 | 56° | 5km/h | 20717m | 6.3m/s | -54.6°C | 1.3% | 0hPa | 2.6V | 00:00:00 | 00:00:00 | 00:00:00 | |
| OE3MUC-15 | 2026-09-05 03:18:56 | 48.25860 | 15.40089 | 66° | 7km/h | 20705m | 6.3m/s | -54.4°C | 4.1% | 0hPa | 2.6V | 00:00:00 | 00:00:00 | 00:00:00 | |
| SP3BTT-10 | 2026-09-05 03:18:55 | 48.25859 | 15.40086 | 58° | 7km/h | 20700m | 4.5m/s | -54.4°C | 4.1% | 0hPa | 2.6V | 00:00:00 | 00:00:00 | 00:00:00 | |
| OE5DXL-15 | 2026-09-05 03:18:54 | 48.25858 | 15.40083 | 72° | 7km/h | 20695m | 5.4m/s | -54.3°C | 4.1% | 0hPa | 2.6V | 00:00:00 | 00:00:00 | 00:00:00 | |
| OE5MMP-10 | 2026-09-05 03:18:53 | 48.25858 | 15.40081 | 104° | 9km/h | 20689m | 6.5m/s | -54.3°C | 4.1% | 0hPa | 2.7V | 00:00:00 | 01:30:10 | 00:00:00 | |
| OE3MUC-15 | 2026-09-05 03:18:52 | 48.25858 | 15.40079 | 64° | 9km/h | 20683m | 4.0m/s | -54.3°C | 4.0% | 0hPa | 2.7V | 00:00:00 | 00:00:00 | 00:00:00 | |
| OE5FHM-15 | 2026-09-05 03:18:49 | 48.25851 | 15.40078 | 348° | 9km/h | 20668m | 3.8m/s | -54.3°C | 4.0% | 0hPa | 2.6V | 00:00:00 | 01:30:06 | 08:30:00 | |
| OE3MUC-15 | 2026-09-05 03:18:48 | 48.25847 | 15.40080 | 339° | 9km/h | 20662m | 6.5m/s | -54.3°C | 4.0% | 0hPa | 2.7V | 00:00:00 | 00:00:00 | 00:00:00 | |
| OE8JPQ-2 | 2026-09-05 03:18:47 | 48.25845 | 15.40081 | 332° | 5km/h | 20657m | 4.9m/s | -54.3°C | 4.0% | 0hPa | 2.7V | 00:00:00 | 01:30:04 | 00:00:00 | |
| OM5KV | 2026-09-05 03:18:46 | 48.25845 | 15.40081 | 333° | 9km/h | 20657m | 5.0m/s | -54.4°C | 1.3% | 0hPa | 2.7V | 00:00:00 | 00:00:00 | 00:00:00 | |
| PETON7-10 | 2026-09-05 03:18:44 | 48.25840 | 15.40081 | 30° | 5km/h | 20640m | 5.0m/s | -54.4°C | 4.0% | 0hPa | 2.7V | 00:00:00 | 00:00:00 | 00:00:00 | |
| OE5MMP-10 | 2026-09-05 03:18:43 | 48.25838 | 15.40080 | 33° | 5km/h | 20635m | 6.1m/s | -54.5°C | 4.1% | 0hPa | 2.7V | 00:00:00 | 01:30:00 | 00:00:00 | |
| PG1ADW-2 | 2026-09-05 03:18:41 | 48.25837 | 15.40078 | 97° | 11km/h | 20624m | 4.7m/s | -54.5°C | 4.1% | 0hPa | 2.7V | 00:00:00 | 01:29:58 | 00:00:00 | |
| OE3MUC-15 | 2026-09-05 03:18:40 | 48.25837 | 15.40076 | 118° | 5km/h | 20619m | 6.4m/s | -54.5°C | 4.0% | 0hPa | 2.6V | 00:00:00 | 00:00:00 | 08:30:00 | |
| OM5KV | 2026-09-05 03:18:39 | 48.25837 | 15.40076 | 118° | 5km/h | 20619m | 6.4m/s | -54.5°C | 1.3% | 0hPa | 2.6V | 00:00:00 | 00:00:00 | 00:00:00 | |
| OE3MUC-15 | 2026-09-05 03:18:36 | 48.25842 | 15.40072 | 137° | 4km/h | 20594m | 7.0m/s | -54.5°C | 4.0% | 0hPa | 2.6V | 00:00:00 | 00:00:00 | 00:00:00 | |
| OM5KV | 2026-09-05 03:18:34 | 48.25843 | 15.40070 | 121° | 5km/h | 20589m | 4.5m/s | -54.5°C | 1.3% | 0hPa | 2.6V | 00:00:00 | 00:00:00 | 00:00:00 | |
| OE5MMP-10 | 2026-09-05 03:18:33 | 48.25844 | 15.40069 | 243° | 9km/h | 20577m | 6.1m/s | -54.5°C | 3.9% | 0hPa | 2.6V | 00:00:00 | 01:29:50 | 08:30:00 | |
| OE3MUC-15 | 2026-09-05 03:18:32 | 48.25844 | 15.40070 | 212° | 5km/h | 20571m | 5.4m/s | -54.5°C | 3.9% | 0hPa | 2.6V | 00:00:00 | 00:00:00 | 00:00:00 | |
| OK1ALN | 2026-09-05 03:18:31 | 48.25844 | 15.40070 | 0° | 0km/h | 20571m | 5.5m/s | -54.6°C | 1.2% | 0hPa | 2.6V | 00:00:00 | 00:00:00 | 00:00:00 | |
| PETON7-10 | 2026-09-05 03:18:29 | 48.25845 | 15.40066 | 124° | 16km/h | 20555m | 5.8m/s | -55.0°C | 4.1% | 0hPa | 2.6V | 00:00:00 | 01:29:46 | 00:00:00 | |
| OE3MUC-15 | 2026-09-05 03:18:28 | 48.25847 | 15.40063 | 140° | 13km/h | 20550m | 5.2m/s | -55.1°C | 4.1% | 0hPa | 2.6V | 00:00:00 | 00:00:00 | 00:00:00 | |
| OE8JPQ-2 | 2026-09-05 03:18:27 | 48.25849 | 15.40060 | 132° | 22km/h | 20545m | 5.0m/s | -55.2°C | 4.1% | 0hPa | 2.6V | 00:00:00 | 00:00:00 | 00:00:00 | |
| SP3BTT-10 | 2026-09-05 03:18:25 | 48.25854 | 15.40051 | 134° | 13km/h | 20533m | 6.2m/s | -55.4°C | 4.2% | 0hPa | 2.7V | 00:00:00 | 00:00:00 | 00:00:00 | |
| OE3MUC-15 | 2026-09-05 03:18:24 | 48.25856 | 15.40048 | 143° | 13km/h | 20527m | 6.6m/s | -55.4°C | 4.2% | 0hPa | 2.6V | 00:00:00 | 00:00:00 | 00:00:00 | |
| OE5MMP-10 | 2026-09-05 03:18:23 | 48.25858 | 15.40045 | 139° | 22km/h | 20522m | 3.3m/s | -55.5°C | 4.2% | 0hPa | 2.6V | 00:00:00 | 01:29:40 | 00:00:00 | |
| OE5DRO-10 | 2026-09-05 03:18:22 | 48.25860 | 15.40043 | 127° | 27km/h | 20517m | 6.0m/s | -55.5°C | 4.2% | 0hPa | 2.6V | 00:00:00 | 00:00:00 | 00:00:00 | |
| OE3MUC-15 | 2026-09-05 03:18:20 | 48.25864 | 15.40032 | 113° | 24km/h | 20506m | 5.1m/s | -55.6°C | 4.3% | 0hPa | 2.6V | 00:00:00 | 00:00:00 | 00:00:00 | |
| OE5FHM-15 | 2026-09-05 03:18:19 | 48.25866 | 15.40025 | 116° | 27km/h | 20500m | 6.1m/s | -55.6°C | 4.3% | 0hPa | 2.6V | 00:00:00 | 01:29:36 | 00:00:00 | |
| PG1ADW-2 | 2026-09-05 03:18:18 | 48.25869 | 15.40017 | 126° | 22km/h | 20494m | 6.1m/s | -55.6°C | 4.3% | 0hPa | 2.6V | 00:00:00 | 00:00:00 | 00:00:00 | |
| OE3MUC-15 | 2026-09-05 03:18:16 | 48.25879 | 15.40003 | 136° | 27km/h | 20483m | 4.0m/s | -55.7°C | 4.3% | 0hPa | 2.6V | 00:00:00 | 00:00:00 | 00:00:00 | |
| PETON7-10 | 2026-09-05 03:18:14 | 48.25887 | 15.39986 | 119° | 29km/h | 20472m | 4.8m/s | -55.9°C | 4.4% | 0hPa | 2.7V | 00:00:00 | 00:00:00 | 08:30:00 | |
| OE5MMP-10 | 2026-09-05 03:18:13 | 48.25890 | 15.39977 | 116° | 29km/h | 20468m | 4.5m/s | -55.9°C | 4.4% | 0hPa | 2.7V | 00:00:00 | 01:29:30 | 00:00:00 | |
| OE3MUC-15 | 2026-09-05 03:18:12 | 48.25893 | 15.39969 | 117° | 29km/h | 20462m | 5.3m/s | -55.9°C | 4.4% | 0hPa | 2.7V | 00:00:00 | 00:00:00 | 00:00:00 | |
| OE3MUC-15 | 2026-09-05 03:18:08 | 48.25906 | 15.39928 | 111° | 33km/h | 20440m | 4.0m/s | -56.0°C | 4.4% | 0hPa | 2.7V | 00:00:00 | 00:00:00 | 00:00:00 | |
| OE8JPQ-2 | 2026-09-05 03:18:07 | 48.25910 | 15.39917 | 116° | 26km/h | 20435m | 6.2m/s | -56.0°C | 4.4% | 0hPa | 2.7V | 00:00:00 | 00:00:00 | 00:00:00 | |
| OM5KV | 2026-09-05 03:18:06 | 48.25910 | 15.39917 | 117° | 33km/h | 20435m | 6.3m/s | -56.1°C | 1.4% | 0hPa | 2.7V | 00:00:00 | 00:00:00 | 00:00:00 | |
| OE3OSB-13 | 2026-09-05 03:18:05 | 48.25922 | 15.39886 | 119° | 29km/h | 20419m | 5.8m/s | -56.0°C | 1.3% | -1.0hPa | 2.7V | 00:00:00 | 00:00:00 | 00:00:00 | |
| OE3MUC-15 | 2026-09-05 03:18:04 | 48.25922 | 15.39886 | 120° | 27km/h | 20419m | 5.8m/s | -55.9°C | 4.4% | 0hPa | 2.7V | 00:00:00 | 00:00:00 | 08:30:00 | |
| OE5MMP-10 | 2026-09-05 03:18:03 | 48.25925 | 15.39877 | 114° | 27km/h | 20414m | 4.3m/s | -55.9°C | 4.4% | 0hPa | 2.7V | 00:00:00 | 01:29:20 | 00:00:00 | |
| OE3MUC-15 | 2026-09-05 03:18:00 | 48.25934 | 15.39850 | 116° | 26km/h | 20399m | 4.2m/s | -55.9°C | 4.5% | 0hPa | 2.6V | 00:00:00 | 00:00:00 | 00:00:00 | |
| PETON7-10 | 2026-09-05 03:17:59 | 48.25936 | 15.39842 | 106° | 20km/h | 20394m | 5.9m/s | -55.9°C | 4.4% | 0hPa | 2.6V | 00:00:00 | 00:00:00 | 00:00:00 | |
| OE5WHR-10 | 2026-09-05 03:17:58 | 48.25938 | 15.39832 | 100° | 20km/h | 20388m | 5.0m/s | -55.8°C | 4.4% | 0hPa | 2.6V | 00:00:00 | 00:00:00 | 00:00:00 | |
| OE3MUC-15 | 2026-09-05 03:17:56 | 48.25941 | 15.39812 | 107° | 27km/h | 20376m | 5.7m/s | -55.7°C | 4.4% | 0hPa | 2.6V | 00:00:00 | 00:00:00 | 00:00:00 | |
| OE5DXL-15 | 2026-09-05 03:17:54 | 48.25944 | 15.39791 | 96° | 15km/h | 20366m | 6.6m/s | -55.7°C | 4.3% | 0hPa | 2.6V | 00:00:00 | 00:00:00 | 00:00:00 | |
| OE5MMP-10 | 2026-09-05 03:17:53 | 48.25944 | 15.39781 | 91° | 16km/h | 20360m | 3.8m/s | -55.6°C | 4.4% | 0hPa | 2.6V | 00:00:00 | 01:29:10 | 00:00:00 | |
| S52SK | 2026-09-05 03:17:52 | 48.25944 | 15.39781 | 92° | 26km/h | 20360m | 3.9m/s | -55.7°C | 1.4% | 0hPa | 2.6V | 00:00:00 | 00:00:00 | 00:00:00 | |
| OE3JTB-15 | 2026-09-05 03:17:51 | 48.25945 | 15.39763 | 101° | 13km/h | 20350m | 4.9m/s | -55.6°C | 4.3% | 0hPa | 2.6V | 00:00:00 | 00:00:00 | 00:00:00 | |
| OE5FHM-15 | 2026-09-05 03:17:49 | 48.25947 | 15.39749 | 93° | 11km/h | 20340m | 6.5m/s | -55.5°C | 4.3% | 0hPa | 2.6V | 00:00:00 | 01:29:06 | 00:00:00 | |
| OE3MUC-15 | 2026-09-05 03:17:48 | 48.25946 | 15.39744 | 81° | 11km/h | 20334m | 4.8m/s | -55.5°C | 4.3% | 0hPa | 2.6V | 00:00:00 | 00:00:00 | 00:00:00 | |
| OE8JPQ-2 | 2026-09-05 03:17:47 | 48.25946 | 15.39739 | 80° | 13km/h | 20329m | 5.2m/s | -55.4°C | 4.3% | 0hPa | 2.6V | 00:00:00 | 01:29:04 | 00:00:00 | |
| OK1ALN | 2026-09-05 03:17:45 | 48.25945 | 15.39735 | 88° | 9km/h | 20323m | 6.3m/s | -55.4°C | 1.4% | 0hPa | 2.6V | 00:00:00 | 00:00:00 | 00:00:00 | |
| OE3MUC-15 | 2026-09-05 03:17:44 | 48.25945 | 15.39728 | 86° | 16km/h | 20312m | 6.8m/s | -55.3°C | 4.2% | 0hPa | 2.6V | 00:00:00 | 00:00:00 | 00:00:00 | |
| OE5MMP-10 | 2026-09-05 03:17:43 | 48.25945 | 15.39723 | 98° | 16km/h | 20306m | 5.1m/s | -55.3°C | 4.1% | 0hPa | 2.6V | 00:00:00 | 01:29:00 | 00:00:00 | |
| PG1ADW-2 | 2026-09-05 03:17:42 | 48.25946 | 15.39717 | 101° | 7km/h | 20299m | 7.5m/s | -55.4°C | 4.2% | 0hPa | 2.6V | 00:00:00 | 00:00:00 | 00:00:00 | |
| OE5WHR-10 | 2026-09-05 03:17:37 | 48.25947 | 15.39679 | 91° | 7km/h | 20271m | 5.1m/s | -56.1°C | 4.5% | 0hPa | 2.6V | 00:00:00 | 01:28:54 | 00:00:00 | |
| OE3OSB-13 | 2026-09-05 03:17:34 | 48.25942 | 15.39665 | 25° | 9km/h | 20251m | 3.6m/s | -56.0°C | 1.3% | -1.0hPa | 2.6V | 00:00:00 | 00:00:00 | 00:00:00 | |
| OE5MMP-10 | 2026-09-05 03:17:33 | 48.25942 | 15.39665 | 26° | 7km/h | 20251m | 3.6m/s | -56.0°C | 4.4% | 0hPa | 2.6V | 00:00:00 | 01:28:50 | 00:00:00 | |
| OM5KV | 2026-09-05 03:17:30 | 48.25939 | 15.39664 | 355° | 5km/h | 20241m | 5.7m/s | -56.0°C | 1.4% | 0hPa | 2.6V | 00:00:00 | 00:00:00 | 00:00:00 | |
| PETON7-10 | 2026-09-05 03:17:29 | 48.25936 | 15.39662 | 43° | 7km/h | 20230m | 6.2m/s | -55.9°C | 4.4% | 0hPa | 2.6V | 00:00:00 | 00:00:00 | 00:00:00 | |
| OE8JPQ-2 | 2026-09-05 03:17:27 | 48.25932 | 15.39657 | 48° | 11km/h | 20219m | 5.7m/s | -55.9°C | 4.4% | 0hPa | 2.6V | 00:00:00 | 00:00:00 | 00:00:00 | |
| OE5DXL-15 | 2026-09-05 03:17:24 | 48.25930 | 15.39651 | 68° | 15km/h | 20200m | 7.0m/s | -55.9°C | 4.4% | 0hPa | 2.7V | 00:00:00 | 00:00:00 | 08:30:00 | |
| OE5MMP-10 | 2026-09-05 03:17:23 | 48.25929 | 15.39648 | 67° | 7km/h | 20194m | 5.1m/s | -55.9°C | 4.4% | 0hPa | 2.7V | 00:00:00 | 01:28:40 | 00:00:00 | |
| OE3JTB-15 | 2026-09-05 03:17:22 | 48.25929 | 15.39645 | 72° | 16km/h | 20188m | 5.4m/s | -55.9°C | 4.4% | 0hPa | 2.7V | 00:00:00 | 01:28:39 | 00:00:00 | |
| OE3MUC-15 | 2026-09-05 03:17:20 | 48.25928 | 15.39641 | 105° | 5km/h | 20177m | 4.6m/s | -56.1°C | 4.4% | 0hPa | 2.7V | 00:00:00 | 00:00:00 | 00:00:00 | |
| OE5FHM-15 | 2026-09-05 03:17:19 | 48.25929 | 15.39640 | 79° | 18km/h | 20171m | 6.1m/s | -56.1°C | 4.4% | 0hPa | 2.7V | 00:00:00 | 01:28:36 | 00:00:00 | |
| PG1ADW-2 | 2026-09-05 03:17:16 | 48.25926 | 15.39634 | 72° | 16km/h | 20153m | 6.6m/s | -56.0°C | 4.4% | 0hPa | 2.6V | 00:00:00 | 00:00:00 | 00:00:00 | |
| PETON7-10 | 2026-09-05 03:17:14 | 48.25926 | 15.39628 | 80° | 18km/h | 20142m | 5.9m/s | -56.0°C | 4.4% | 0hPa | 2.6V | 00:00:00 | 00:00:00 | 00:00:00 | |
| OE5MMP-10 | 2026-09-05 03:17:13 | 48.25925 | 15.39623 | 80° | 18km/h | 20136m | 6.3m/s | -56.0°C | 4.4% | 0hPa | 2.6V | 00:00:00 | 01:28:30 | 00:00:00 | |
| OE3MUC-15 | 2026-09-05 03:17:12 | 48.25925 | 15.39616 | 89° | 18km/h | 20130m | 6.1m/s | -55.9°C | 4.4% | 0hPa | 2.6V | 00:00:00 | 00:00:00 | 00:00:00 | |
| OE3MUC-15 | 2026-09-05 03:17:08 | 48.25927 | 15.39588 | 91° | 16km/h | 20106m | 5.1m/s | -56.0°C | 4.4% | 0hPa | 2.6V | 00:00:00 | 00:00:00 | 00:00:00 | |
| OE8JPQ-2 | 2026-09-05 03:17:07 | 48.25927 | 15.39582 | 100° | 22km/h | 20100m | 6.0m/s | -56.0°C | 4.4% | 0hPa | 2.6V | 00:00:00 | 00:00:00 | 00:00:00 | |
| OE3MUC-15 | 2026-09-05 03:17:04 | 48.25932 | 15.39564 | 114° | 18km/h | 20082m | 6.3m/s | -55.9°C | 4.4% | 0hPa | 2.6V | 00:00:00 | 01:28:21 | 00:00:00 | |
| OE3OSB-13 | 2026-09-05 03:17:03 | 48.25936 | 15.39553 | 120° | 18km/h | 20071m | 7.0m/s | -56.0°C | 1.3% | -1.0hPa | 2.6V | 00:00:00 | 00:00:00 | 00:00:00 | |
| OE3MUC-15 | 2026-09-05 03:17:00 | 48.25941 | 15.39540 | 110° | 22km/h | 20059m | 6.9m/s | -55.9°C | 4.4% | 0hPa | 2.6V | 00:00:00 | 00:00:00 | 00:00:00 | |
| PETON7-10 | 2026-09-05 03:16:59 | 48.25942 | 15.39532 | 103° | 26km/h | 20054m | 4.7m/s | -55.9°C | 4.4% | 0hPa | 2.6V | 00:00:00 | 01:28:16 | 00:00:00 | |
| OM5KV | 2026-09-05 03:16:57 | 48.25944 | 15.39524 | 108° | 24km/h | 20048m | 7.0m/s | -56.0°C | 1.4% | 0hPa | 2.6V | 00:00:00 | 00:00:00 | 00:00:00 | |
| OE3MUC-15 | 2026-09-05 03:16:56 | 48.25948 | 15.39506 | 112° | 26km/h | 20035m | 5.8m/s | -56.0°C | 4.4% | 0hPa | 2.6V | 00:00:00 | 00:00:00 | 00:00:00 | |
| OE5WHR-10 | 2026-09-05 03:16:55 | 48.25950 | 15.39497 | 107° | 27km/h | 20029m | 6.5m/s | -56.1°C | 4.4% | 0hPa | 2.6V | 00:00:00 | 00:00:00 | 00:00:00 | |
| OE5DXL-15 | 2026-09-05 03:16:54 | 48.25952 | 15.39488 | 106° | 29km/h | 20023m | 4.1m/s | -56.1°C | 4.4% | 0hPa | 2.6V | 00:00:00 | 00:00:00 | 00:00:00 | |
| OE3JTB-15 | 2026-09-05 03:16:53 | 48.25954 | 15.39480 | 112° | 29km/h | 20018m | 6.5m/s | -56.1°C | 4.4% | 0hPa | 2.6V | 00:00:00 | 00:00:00 | 00:00:00 | |
| OE3MUC-15 | 2026-09-05 03:16:52 | 48.25957 | 15.39472 | 120° | 24km/h | 20011m | 5.7m/s | -56.1°C | 4.4% | 0hPa | 2.7V | 00:00:00 | 00:00:00 | 08:30:00 | |
| OE5FHM-15 | 2026-09-05 03:16:49 | 48.25966 | 15.39449 | 118° | 29km/h | 19994m | 3.6m/s | -56.3°C | 4.5% | 0hPa | 2.6V | 00:00:00 | 01:28:06 | 00:00:00 | |
| OE3MUC-15 | 2026-09-05 03:16:48 | 48.25969 | 15.39441 | 121° | 29km/h | 19988m | 6.3m/s | -56.3°C | 4.5% | 0hPa | 2.6V | 00:00:00 | 00:00:00 | 00:00:00 | |
| OE8JPQ-2 | 2026-09-05 03:16:47 | 48.25973 | 15.39432 | 120° | 31km/h | 19982m | 5.3m/s | -56.3°C | 4.6% | 0hPa | 2.6V | 00:00:00 | 01:28:04 | 00:00:00 | |
| PETON7-10 | 2026-09-05 03:16:44 | 48.25980 | 15.39402 | 100° | 31km/h | 19965m | 4.9m/s | -56.3°C | 4.6% | 0hPa | 2.6V | 00:00:00 | 00:00:00 | 00:00:00 | |
| OE5MMP-10 | 2026-09-05 03:16:43 | 48.25981 | 15.39391 | 102° | 29km/h | 19959m | 6.6m/s | -56.3°C | 4.6% | 0hPa | 2.7V | 00:00:00 | 01:28:00 | 00:00:00 | |
| OE3MUC-15 | 2026-09-05 03:16:40 | 48.25987 | 15.39358 | 106° | 27km/h | 19943m | 6.9m/s | -56.2°C | 4.6% | 0hPa | 2.7V | 00:00:00 | 00:00:00 | 00:00:00 | |
| PG1ADW-2 | 2026-09-05 03:16:36 | 48.25995 | 15.39320 | 104° | 29km/h | 19919m | 5.7m/s | -56.2°C | 4.5% | 0hPa | 2.6V | 00:00:00 | 00:00:00 | 00:00:00 | |
| OE5WHR-10 | 2026-09-05 03:16:34 | 48.25997 | 15.39297 | 95° | 27km/h | 19907m | 5.6m/s | -56.1°C | 4.5% | 0hPa | 2.6V | 00:00:00 | 01:27:51 | 00:00:00 | |
| OE5MMP-10 | 2026-09-05 03:16:33 | 48.25998 | 15.39284 | 96° | 29km/h | 19901m | 6.1m/s | -56.1°C | 4.5% | 0hPa | 2.6V | 00:00:00 | 01:27:50 | 00:00:00 | |
| OE3OSB-13 | 2026-09-05 03:16:32 | 48.25999 | 15.39256 | 89° | 37km/h | 19890m | 6.6m/s | -56.0°C | 1.3% | -1.0hPa | 2.6V | 00:00:00 | 00:00:00 | 00:00:00 | |
| PETON7-10 | 2026-09-05 03:16:29 | 48.25999 | 15.39231 | 92° | 26km/h | 19879m | 5.6m/s | -56.0°C | 4.5% | 0hPa | 2.6V | 00:00:00 | 00:00:00 | 00:00:00 | |
| OE3MUC-15 | 2026-09-05 03:16:28 | 48.25999 | 15.39220 | 98° | 26km/h | 19873m | 5.4m/s | -55.9°C | 4.5% | 0hPa | 2.6V | 00:00:00 | 00:00:00 | 00:00:00 | |
| OE8JPQ-2 | 2026-09-05 03:16:27 | 48.26001 | 15.39210 | 102° | 26km/h | 19868m | 4.6m/s | -55.9°C | 4.4% | 0hPa | 2.6V | 00:00:00 | 00:00:00 | 08:30:00 | |
| OE3MUC-15 | 2026-09-05 03:16:24 | 48.26005 | 15.39185 | 110° | 24km/h | 19850m | 7.0m/s | -55.7°C | 4.4% | 0hPa | 2.6V | 00:00:00 | 00:00:00 | 00:00:00 | |
| OE5MMP-10 | 2026-09-05 03:16:23 | 48.26007 | 15.39177 | 113° | 26km/h | 19844m | 5.0m/s | -55.7°C | 4.4% | 0hPa | 2.6V | 00:00:00 | 01:27:40 | 00:00:00 | |
| S52SK | 2026-09-05 03:16:21 | 48.26008 | 15.39169 | 109° | 24km/h | 19838m | 6.6m/s | -55.7°C | 1.5% | 0hPa | 2.6V | 00:00:00 | 00:00:00 | 00:00:00 | |
| OE3MUC-15 | 2026-09-05 03:16:20 | 48.26012 | 15.39151 | 104° | 29km/h | 19827m | 6.1m/s | -55.6°C | 4.4% | 0hPa | 2.6V | 00:00:00 | 00:00:00 | 00:00:00 | |
| OE5FHM-15 | 2026-09-05 03:16:19 | 48.26014 | 15.39140 | 107° | 27km/h | 19821m | 5.3m/s | -55.6°C | 4.4% | 0hPa | 2.6V | 00:00:00 | 01:27:36 | 00:00:00 | |
| OM5KV | 2026-09-05 03:16:17 | 48.26016 | 15.39130 | 104° | 29km/h | 19815m | 5.4m/s | -55.7°C | 1.4% | 0hPa | 2.6V | 00:00:00 | 00:00:00 | 00:00:00 | |
| OE3MUC-15 | 2026-09-05 03:16:16 | 48.26018 | 15.39110 | 99° | 24km/h | 19804m | 4.2m/s | -55.6°C | 4.3% | 0hPa | 2.6V | 00:00:00 | 00:00:00 | 08:30:00 | |
| PETON7-10 | 2026-09-05 03:16:14 | 48.26021 | 15.39093 | 110° | 27km/h | 19793m | 5.5m/s | -55.6°C | 4.3% | 0hPa | 2.7V | 00:00:00 | 01:27:31 | 00:00:00 | |
| OE5WHR-10 | 2026-09-05 03:16:13 | 48.26023 | 15.39084 | 108° | 27km/h | 19788m | 4.7m/s | -55.6°C | 4.3% | 0hPa | 2.7V | 00:00:00 | 00:00:00 | 00:00:00 | |
| OE3MUC-15 | 2026-09-05 03:16:12 | 48.26025 | 15.39076 | 101° | 26km/h | 19782m | 6.5m/s | -55.6°C | 4.4% | 0hPa | 2.6V | 00:00:00 | 00:00:00 | 00:00:00 | |
| OE3MUC-15 | 2026-09-05 03:16:08 | 48.26030 | 15.39036 | 100° | 29km/h | 19760m | 6.5m/s | -55.5°C | 4.3% | 0hPa | 2.6V | 00:00:00 | 00:00:00 | 00:00:00 | |
| OE8JPQ-2 | 2026-09-05 03:16:07 | 48.26032 | 15.39026 | 99° | 27km/h | 19755m | 4.4m/s | -55.5°C | 4.4% | 0hPa | 2.6V | 00:00:00 | 00:00:00 | 00:00:00 | |
| OE3MUC-15 | 2026-09-05 03:16:04 | 48.26039 | 15.38995 | 123° | 29km/h | 19739m | 4.0m/s | -55.4°C | 4.3% | 0hPa | 2.6V | 00:00:00 | 00:00:00 | 00:00:00 | |
| OE3OSB-13 | 2026-09-05 03:16:01 | 48.26056 | 15.38958 | 118° | 29km/h | 19715m | 5.5m/s | -55.5°C | 1.3% | -1.0hPa | 2.6V | 00:00:00 | 00:00:00 | 00:00:00 | |
| SONDE2-11 | 2026-09-05 03:15:47 | 48.26088 | 15.38831 | 129° | 31km/h | 19640m | 5.9m/s | -55.8°C | 1.3% | -1.0hPa | 2.6V | 00:00:00 | 00:00:00 | 00:00:00 | |
| OE3MUC-15 | 2026-09-05 03:15:44 | 48.26098 | 15.38812 | 130° | 27km/h | 19629m | 6.2m/s | -55.8°C | 4.3% | 0hPa | 2.6V | 00:00:00 | 00:00:00 | 00:00:00 | |
| OE5MMP-10 | 2026-09-05 03:15:43 | 48.26102 | 15.38803 | 127° | 27km/h | 19624m | 4.9m/s | -55.9°C | 4.3% | 0hPa | 2.6V | 00:00:00 | 01:27:00 | 00:00:00 | |
| OM5KV | 2026-09-05 03:15:42 | 48.26102 | 15.38804 | 127° | 27km/h | 19624m | 5.0m/s | -55.9°C | 1.4% | 0hPa | 2.6V | 00:00:00 | 00:00:00 | 00:00:00 | |
| OM5KV | 2026-09-05 03:15:41 | 48.26105 | 15.38795 | 118° | 27km/h | 19619m | 5.5m/s | -56.0°C | 1.5% | 0hPa | 2.6V | 00:00:00 | 00:00:00 | 00:00:00 | |
| PG1ADW-2 | 2026-09-05 03:15:36 | 48.26120 | 15.38740 | 115° | 37km/h | 19585m | 4.7m/s | -56.6°C | 4.6% | 0hPa | 2.6V | 00:00:00 | 01:26:53 | 00:00:00 | |
| OK1ALN | 2026-09-05 03:15:34 | 48.26123 | 15.38730 | 120° | 29km/h | 19579m | 6.7m/s | -56.6°C | 1.5% | 0hPa | 2.6V | 00:00:00 | 00:00:00 | 00:00:00 | |
| OE5MMP-10 | 2026-09-05 03:15:33 | 48.26132 | 15.38711 | 127° | 37km/h | 19569m | 4.8m/s | -56.5°C | 4.6% | 0hPa | 2.6V | 00:00:00 | 01:26:50 | 08:30:00 | |
| OE5WHR-10 | 2026-09-05 03:15:31 | 48.26142 | 15.38689 | 127° | 38km/h | 19558m | 4.4m/s | -56.5°C | 4.6% | 0hPa | 2.6V | 00:00:00 | 01:26:48 | 00:00:00 | |
| OE3OSB-13 | 2026-09-05 03:15:30 | 48.26153 | 15.38667 | 121° | 35km/h | 19547m | 4.9m/s | -56.4°C | 1.4% | -1.0hPa | 2.6V | 00:00:00 | 00:00:00 | 00:00:00 | |
| PETON7-10 | 2026-09-05 03:15:29 | 48.26153 | 15.38667 | 122° | 38km/h | 19547m | 4.9m/s | -56.4°C | 4.5% | 0hPa | 2.6V | 00:00:00 | 01:26:46 | 00:00:00 | |
| OE8JPQ-2 | 2026-09-05 03:15:27 | 48.26161 | 15.38641 | 111° | 40km/h | 19535m | 5.4m/s | -56.3°C | 4.5% | 0hPa | 2.6V | 00:00:00 | 00:00:00 | 00:00:00 | |
| OE3JTB-15 | 2026-09-05 03:15:26 | 48.26164 | 15.38627 | 106° | 42km/h | 19529m | 6.7m/s | -56.3°C | 4.5% | 0hPa | 2.6V | 00:00:00 | 00:00:00 | 08:30:00 | |
| OM5KV | 2026-09-05 03:15:25 | 48.26164 | 15.38627 | 107° | 35km/h | 19529m | 6.7m/s | -56.3°C | 1.5% | 0hPa | 2.6V | 00:00:00 | 00:00:00 | 00:00:00 | |
| OE5DXL-15 | 2026-09-05 03:15:24 | 48.26168 | 15.38602 | 101° | 44km/h | 19519m | 5.7m/s | -56.2°C | 4.4% | 0hPa | 2.6V | 00:00:00 | 00:00:00 | 00:00:00 | |
| OE5MMP-10 | 2026-09-05 03:15:23 | 48.26169 | 15.38589 | 97° | 38km/h | 19513m | 5.7m/s | -56.2°C | 4.5% | 0hPa | 2.6V | 00:00:00 | 01:26:40 | 00:00:00 | |
| OE3MUC-15 | 2026-09-05 03:15:20 | 48.26173 | 15.38547 | 104° | 40km/h | 19497m | 5.1m/s | -56.1°C | 4.4% | 0hPa | 2.6V | 00:00:00 | 00:00:00 | 00:00:00 | |
| SONDE2-11 | 2026-09-05 03:15:16 | 48.26191 | 15.38476 | 112° | 38km/h | 19468m | 5.0m/s | -56.1°C | 1.3% | -1.0hPa | 2.6V | 00:00:00 | 00:00:00 | 00:00:00 | |
| PETON7-10 | 2026-09-05 03:15:14 | 48.26194 | 15.38462 | 108° | 46km/h | 19464m | 4.9m/s | -56.1°C | 4.4% | 0hPa | 2.6V | 00:00:00 | 00:00:00 | 00:00:00 | |
| OE5MMP-10 | 2026-09-05 03:15:13 | 48.26197 | 15.38447 | 105° | 46km/h | 19458m | 5.5m/s | -56.1°C | 4.4% | 0hPa | 2.6V | 00:00:00 | 01:26:30 | 00:00:00 | |
| OE3MUC-15 | 2026-09-05 03:15:12 | 48.26199 | 15.38430 | 103° | 46km/h | 19453m | 5.0m/s | -56.1°C | 4.4% | 0hPa | 2.6V | 00:00:00 | 00:00:00 | 00:00:00 | |
| OE5WHR-10 | 2026-09-05 03:15:10 | 48.26205 | 15.38397 | 103° | 47km/h | 19442m | 4.5m/s | -56.1°C | 4.4% | 0hPa | 2.6V | 00:00:00 | 00:00:00 | 08:30:00 | |
| OE3MUC-15 | 2026-09-05 03:15:08 | 48.26209 | 15.38364 | 100° | 44km/h | 19431m | 6.0m/s | -56.0°C | 4.3% | 0hPa | 2.6V | 00:00:00 | 00:00:00 | 00:00:00 | |
| OE8JPQ-2 | 2026-09-05 03:15:07 | 48.26211 | 15.38346 | 99° | 47km/h | 19425m | 5.2m/s | -56.0°C | 4.4% | 0hPa | 2.6V | 00:00:00 | 00:00:00 | 00:00:00 | |
| OE3MUC-15 | 2026-09-05 03:15:04 | 48.26216 | 15.38297 | 99° | 47km/h | 19409m | 6.0m/s | -56.1°C | 4.3% | 0hPa | 2.6V | 00:00:00 | 00:00:00 | 08:30:00 | |
| OE5MMP-10 | 2026-09-05 03:15:03 | 48.26218 | 15.38279 | 99° | 49km/h | 19404m | 4.3m/s | -56.1°C | 4.3% | 0hPa | 2.6V | 00:00:00 | 01:26:20 | 00:00:00 | |
| OM5KV | 2026-09-05 03:15:01 | 48.26220 | 15.38261 | 102° | 47km/h | 19399m | 6.1m/s | -56.2°C | 1.5% | 0hPa | 2.6V | 00:00:00 | 00:00:00 | 00:00:00 | |
| OE3MUC-15 | 2026-09-05 03:15:00 | 48.26226 | 15.38227 | 104° | 47km/h | 19388m | 4.4m/s | -56.2°C | 4.3% | 0hPa | 2.6V | 00:00:00 | 00:00:00 | 00:00:00 | |
| PETON7-10 | 2026-09-05 03:14:59 | 48.26229 | 15.38209 | 102° | 46km/h | 19382m | 6.4m/s | -56.3°C | 4.3% | 0hPa | 2.6V | 00:00:00 | 00:00:00 | 00:00:00 | |
| OE5DRO-10 | 2026-09-05 03:14:58 | 48.26231 | 15.38191 | 102° | 49km/h | 19377m | 4.0m/s | -56.4°C | 4.3% | 0hPa | 2.6V | 00:00:00 | 00:00:00 | 00:00:00 | |
| OE3JTB-15 | 2026-09-05 03:14:57 | 48.26234 | 15.38173 | 103° | 44km/h | 19372m | 5.9m/s | -56.4°C | 4.4% | 0hPa | 2.6V | 00:00:00 | 00:00:00 | 00:00:00 | |
| OE3MUC-15 | 2026-09-05 03:14:56 | 48.26236 | 15.38155 | 101° | 49km/h | 19367m | 4.0m/s | -56.5°C | 4.4% | 0hPa | 2.6V | 00:00:00 | 00:00:00 | 00:00:00 | |
| S52SK | 2026-09-05 03:14:55 | 48.26236 | 15.38155 | 102° | 49km/h | 19367m | 4.0m/s | -56.5°C | 1.4% | 0hPa | 2.6V | 00:00:00 | 00:00:00 | 00:00:00 | |
| OE5MMP-10 | 2026-09-05 03:14:53 | 48.26242 | 15.38098 | 99° | 44km/h | 19351m | 5.3m/s | -56.7°C | 4.5% | 0hPa | 2.6V | 00:00:00 | 01:26:10 | 00:00:00 | |
| OE3MUC-15 | 2026-09-05 03:14:52 | 48.26244 | 15.38080 | 101° | 46km/h | 19345m | 5.9m/s | -56.7°C | 4.5% | 0hPa | 2.6V | 00:00:00 | 00:00:00 | 00:00:00 | |
| OE5FHM-15 | 2026-09-05 03:14:50 | 48.26247 | 15.38047 | 98° | 40km/h | 19335m | 6.2m/s | -56.8°C | 4.5% | 0hPa | 2.7V | 00:00:00 | 01:26:07 | 00:00:00 | |
| OE5WHR-10 | 2026-09-05 03:14:49 | 48.26248 | 15.38030 | 96° | 42km/h | 19329m | 4.2m/s | -56.8°C | 4.5% | 0hPa | 2.7V | 00:00:00 | 00:00:00 | 00:00:00 | |
| OE3MUC-15 | 2026-09-05 03:14:48 | 48.26249 | 15.38012 | 95° | 42km/h | 19325m | 5.1m/s | -56.8°C | 4.5% | 0hPa | 2.7V | 00:00:00 | 00:00:00 | 00:00:00 | |
| OE8JPQ-2 | 2026-09-05 03:14:47 | 48.26250 | 15.37996 | 93° | 42km/h | 19319m | 5.6m/s | -56.8°C | 4.5% | 0hPa | 2.7V | 00:00:00 | 01:26:04 | 00:00:00 | |
| OM5KV | 2026-09-05 03:14:45 | 48.26251 | 15.37980 | 95° | 40km/h | 19314m | 5.4m/s | -57.0°C | 1.5% | 0hPa | 2.7V | 00:00:00 | 00:00:00 | 00:00:00 | |
| PETON7-10 | 2026-09-05 03:14:44 | 48.26251 | 15.37949 | 91° | 42km/h | 19302m | 4.5m/s | -57.0°C | 4.6% | 0hPa | 2.7V | 00:00:00 | 01:26:01 | 00:00:00 | |
| OE5MMP-10 | 2026-09-05 03:14:43 | 48.26251 | 15.37934 | 87° | 44km/h | 19297m | 5.2m/s | -57.0°C | 4.6% | 0hPa | 2.7V | 00:00:00 | 01:26:00 | 00:00:00 | |
| OE3MUC-15 | 2026-09-05 03:14:40 | 48.26247 | 15.37886 | 83° | 46km/h | 19282m | 5.4m/s | -57.0°C | 4.6% | 0hPa | 2.7V | 00:00:00 | 00:00:00 | 00:00:00 | |
| OE5DRO-10 | 2026-09-05 03:14:39 | 48.26246 | 15.37869 | 83° | 37km/h | 19276m | 5.0m/s | -57.0°C | 4.6% | 0hPa | 2.7V | 00:00:00 | 00:00:00 | 00:00:00 | |
| OE3MUC-15 | 2026-09-05 03:14:36 | 48.26238 | 15.37819 | 73° | 44km/h | 19259m | 5.2m/s | -57.0°C | 4.6% | 0hPa | 2.6V | 00:00:00 | 00:00:00 | 00:00:00 | |
| OM5KV | 2026-09-05 03:14:34 | 48.26234 | 15.37803 | 76° | 46km/h | 19254m | 4.8m/s | -57.1°C | 1.6% | 0hPa | 2.6V | 00:00:00 | 00:00:00 | 00:00:00 | |
| OE5MMP-10 | 2026-09-05 03:14:33 | 48.26228 | 15.37770 | 74° | 37km/h | 19244m | 5.1m/s | -57.1°C | 4.7% | 0hPa | 2.6V | 00:00:00 | 01:25:50 | 00:00:00 | |
| OE3MUC-15 | 2026-09-05 03:14:32 | 48.26226 | 15.37756 | 79° | 38km/h | 19240m | 4.2m/s | -57.1°C | 4.7% | 0hPa | 2.7V | 00:00:00 | 00:00:00 | 00:00:00 | |
| PETON7-10 | 2026-09-05 03:14:29 | 48.26222 | 15.37712 | 84° | 33km/h | 19225m | 4.2m/s | -57.0°C | 4.6% | 0hPa | 2.7V | 00:00:00 | 00:00:00 | 00:00:00 | |
| OE3MUC-15 | 2026-09-05 03:14:28 | 48.26221 | 15.37699 | 84° | 35km/h | 19220m | 5.4m/s | -57.1°C | 4.7% | 0hPa | 2.7V | 00:00:00 | 00:00:00 | 08:30:00 | |
| OE8JPQ-2 | 2026-09-05 03:14:27 | 48.26220 | 15.37686 | 81° | 33km/h | 19216m | 3.8m/s | -57.1°C | 4.7% | 0hPa | 2.6V | 00:00:00 | 00:00:00 | 00:00:00 | |
| OE3MUC-15 | 2026-09-05 03:14:24 | 48.26216 | 15.37648 | 76° | 35km/h | 19200m | 5.1m/s | -57.2°C | 4.8% | 0hPa | 2.6V | 00:00:00 | 00:00:00 | 00:00:00 | |
| OE5MMP-10 | 2026-09-05 03:14:23 | 48.26213 | 15.37636 | 70° | 33km/h | 19194m | 5.7m/s | -57.2°C | 4.8% | 0hPa | 2.6V | 00:00:00 | 01:25:40 | 00:00:00 | |
| OE5FHM-15 | 2026-09-05 03:14:20 | 48.26205 | 15.37599 | 74° | 29km/h | 19180m | 4.2m/s | -57.1°C | 4.8% | 0hPa | 2.6V | 00:00:00 | 01:25:37 | 00:00:00 | |
| OE3MUC-15 | 2026-09-05 03:14:16 | 48.26199 | 15.37553 | 82° | 31km/h | 19158m | 3.9m/s | -56.9°C | 4.7% | 0hPa | 2.6V | 00:00:00 | 00:00:00 | 00:00:00 | |
| OE5DRO-10 | 2026-09-05 03:14:15 | 48.26198 | 15.37542 | 78° | 29km/h | 19153m | 5.9m/s | -56.9°C | 4.7% | 0hPa | 2.7V | 00:00:00 | 00:00:00 | 00:00:00 | |
| PETON7-10 | 2026-09-05 03:14:14 | 48.26196 | 15.37530 | 70° | 29km/h | 19148m | 4.4m/s | -56.8°C | 4.6% | 0hPa | 2.7V | 00:00:00 | 00:00:00 | 00:00:00 | |
| OE5MMP-10 | 2026-09-05 03:14:13 | 48.26193 | 15.37519 | 65° | 29km/h | 19143m | 3.9m/s | -56.8°C | 4.6% | 0hPa | 2.7V | 00:00:00 | 01:25:30 | 00:00:00 | |
| OE3MUC-15 | 2026-09-05 03:14:12 | 48.26189 | 15.37508 | 62° | 31km/h | 19138m | 6.4m/s | -56.7°C | 4.6% | 0hPa | 2.7V | 00:00:00 | 00:00:00 | 00:00:00 | |
| OM5KV | 2026-09-05 03:14:09 | 48.26181 | 15.37487 | 60° | 29km/h | 19129m | 4.8m/s | -56.7°C | 1.5% | 0hPa | 2.7V | 00:00:00 | 00:00:00 | 00:00:00 | |
| OE3MUC-15 | 2026-09-05 03:14:08 | 48.26173 | 15.37469 | 58° | 29km/h | 19119m | 3.8m/s | -56.6°C | 4.6% | 0hPa | 2.7V | 00:00:00 | 01:25:25 | 00:00:00 | |
| OE5WHR-10 | 2026-09-05 03:14:07 | 48.26169 | 15.37460 | 67° | 27km/h | 19114m | 5.8m/s | -56.5°C | 4.5% | 0hPa | 2.7V | 00:00:00 | 00:00:00 | 00:00:00 | |
| OE3MUC-15 | 2026-09-05 03:14:04 | 48.26164 | 15.37428 | 79° | 27km/h | 19097m | 6.2m/s | -56.4°C | 4.5% | 0hPa | 2.6V | 00:00:00 | 00:00:00 | 00:00:00 | |
| OM5KV | 2026-09-05 03:14:02 | 48.26162 | 15.37419 | 76° | 26km/h | 19092m | 3.4m/s | -56.4°C | 1.5% | 0hPa | 2.6V | 00:00:00 | 00:00:00 | 00:00:00 | |
| OE3MUC-15 | 2026-09-05 03:14:00 | 48.26158 | 15.37388 | 77° | 26km/h | 19077m | 6.0m/s | -56.3°C | 4.6% | 0hPa | 2.6V | 00:00:00 | 00:00:00 | 00:00:00 | |
| PETON7-10 | 2026-09-05 03:13:59 | 48.26156 | 15.37378 | 74° | 26km/h | 19071m | 5.7m/s | -56.3°C | 4.5% | 0hPa | 2.6V | 00:00:00 | 01:25:16 | 00:00:00 | |
| PG1ADW-2 | 2026-09-05 03:13:56 | 48.26149 | 15.37350 | 70° | 24km/h | 19056m | 4.2m/s | -56.3°C | 4.5% | 0hPa | 2.6V | 00:00:00 | 00:00:00 | 00:00:00 | |
| OM5KV | 2026-09-05 03:13:55 | 48.26149 | 15.37350 | 71° | 29km/h | 19056m | 4.3m/s | -56.3°C | 1.5% | 0hPa | 2.6V | 00:00:00 | 00:00:00 | 00:00:00 | |
| OE5DRO-10 | 2026-09-05 03:13:54 | 48.26143 | 15.37330 | 67° | 22km/h | 19047m | 5.3m/s | -56.3°C | 4.5% | 0hPa | 2.6V | 00:00:00 | 00:00:00 | 00:00:00 | |
| OE5MMP-10 | 2026-09-05 03:13:53 | 48.26141 | 15.37321 | 70° | 24km/h | 19042m | 4.1m/s | -56.3°C | 4.5% | 0hPa | 2.6V | 00:00:00 | 01:25:10 | 00:00:00 | |
| OE3MUC-15 | 2026-09-05 03:13:52 | 48.26139 | 15.37311 | 73° | 27km/h | 19037m | 6.2m/s | -56.3°C | 4.5% | 0hPa | 2.6V | 00:00:00 | 00:00:00 | 08:30:00 | |
| OE5FHM-15 | 2026-09-05 03:13:50 | 48.26136 | 15.37290 | 84° | 18km/h | 19027m | 4.5m/s | -56.3°C | 4.5% | 0hPa | 2.7V | 00:00:00 | 01:25:07 | 08:30:00 | |
| OM5KV | 2026-09-05 03:13:49 | 48.26136 | 15.37290 | 85° | 27km/h | 19027m | 4.5m/s | -56.4°C | 1.6% | 0hPa | 2.6V | 00:00:00 | 00:00:00 | 00:00:00 | |
| OE3MUC-15 | 2026-09-05 03:13:48 | 48.26135 | 15.37272 | 81° | 22km/h | 19016m | 4.1m/s | -56.4°C | 4.5% | 0hPa | 2.6V | 00:00:00 | 00:00:00 | 00:00:00 | |
| OE8JPQ-2 | 2026-09-05 03:13:47 | 48.26134 | 15.37264 | 85° | 18km/h | 19011m | 5.5m/s | -56.4°C | 4.5% | 0hPa | 2.6V | 00:00:00 | 01:25:04 | 00:00:00 | |
| OE5WHR-10 | 2026-09-05 03:13:46 | 48.26134 | 15.37255 | 89° | 18km/h | 19006m | 5.7m/s | -56.4°C | 4.5% | 0hPa | 2.6V | 00:00:00 | 00:00:00 | 00:00:00 | |
| OE3MUC-15 | 2026-09-05 03:13:44 | 48.26132 | 15.37238 | 79° | 22km/h | 18994m | 5.2m/s | -56.3°C | 4.4% | 0hPa | 2.6V | 00:00:00 | 00:00:00 | 00:00:00 | |
| OE5MMP-10 | 2026-09-05 03:13:43 | 48.26132 | 15.37231 | 84° | 18km/h | 18989m | 5.1m/s | -56.3°C | 4.4% | 0hPa | 2.6V | 00:00:00 | 01:25:00 | 00:00:00 | |
| SONDE2-11 | 2026-09-05 03:13:42 | 48.26131 | 15.37223 | 91° | 22km/h | 18983m | 5.0m/s | -56.3°C | 1.4% | -1.0hPa | 2.6V | 00:00:00 | 00:00:00 | 00:00:00 | |
| OM5KV | 2026-09-05 03:13:37 | 48.26135 | 15.37195 | 104° | 15km/h | 18964m | 4.5m/s | -56.2°C | 1.5% | 0hPa | 2.6V | 00:00:00 | 00:00:00 | 00:00:00 | |
| PG1ADW-2 | 2026-09-05 03:13:36 | 48.26137 | 15.37182 | 108° | 18km/h | 18954m | 4.1m/s | -56.1°C | 4.3% | 0hPa | 2.6V | 00:00:00 | 00:00:00 | 00:00:00 | |
| OE5DRO-10 | 2026-09-05 03:13:35 | 48.26139 | 15.37175 | 108° | 18km/h | 18949m | 6.2m/s | -56.1°C | 4.3% | 0hPa | 2.6V | 00:00:00 | 00:00:00 | 00:00:00 | |
| OE5MMP-10 | 2026-09-05 03:13:33 | 48.26140 | 15.37162 | 101° | 16km/h | 18938m | 5.9m/s | -56.1°C | 4.2% | 0hPa | 2.7V | 00:00:00 | 01:24:50 | 00:00:00 | |
| OK1ALN | 2026-09-05 03:13:32 | 48.26140 | 15.37162 | 101° | 20km/h | 18938m | 5.9m/s | -56.1°C | 1.5% | 0hPa | 2.6V | 00:00:00 | 00:00:00 | 00:00:00 | |
| OE5DXL-15 | 2026-09-05 03:13:30 | 48.26144 | 15.37140 | 112° | 26km/h | 18923m | 6.8m/s | -56.3°C | 4.2% | 0hPa | 2.6V | 00:00:00 | 00:00:00 | 00:00:00 | |
| PETON7-10 | 2026-09-05 03:13:29 | 48.26146 | 15.37135 | 118° | 18km/h | 18917m | 5.4m/s | -56.4°C | 4.3% | 0hPa | 2.6V | 00:00:00 | 00:00:00 | 00:00:00 | |
| OE8JPQ-2 | 2026-09-05 03:13:27 | 48.26150 | 15.37127 | 133° | 26km/h | 18908m | 5.8m/s | -56.8°C | 4.3% | 0hPa | 2.6V | 00:00:00 | 00:00:00 | 08:30:00 | |
| S52SK | 2026-09-05 03:13:26 | 48.26150 | 15.37127 | 133° | 15km/h | 18908m | 5.8m/s | -56.8°C | 1.5% | 0hPa | 2.6V | 00:00:00 | 00:00:00 | 00:00:00 | |
| OE5WHR-10 | 2026-09-05 03:13:25 | 48.26155 | 15.37119 | 132° | 27km/h | 18897m | 5.9m/s | -57.2°C | 4.6% | 0hPa | 2.6V | 00:00:00 | 01:24:42 | 00:00:00 | |
| OE5MMP-10 | 2026-09-05 03:13:23 | 48.26159 | 15.37110 | 121° | 22km/h | 18888m | 4.9m/s | -57.3°C | 4.6% | 0hPa | 2.6V | 00:00:00 | 01:24:40 | 00:00:00 | |
| OE5FHM-15 | 2026-09-05 03:13:20 | 48.26166 | 15.37090 | 121° | 35km/h | 18871m | 5.9m/s | -57.4°C | 4.7% | 0hPa | 2.6V | 00:00:00 | 01:24:37 | 00:00:00 | |
| PG1ADW-2 | 2026-09-05 03:13:16 | 48.26178 | 15.37062 | 128° | 35km/h | 18850m | 5.8m/s | -57.5°C | 4.6% | 0hPa | 2.6V | 00:00:00 | 00:00:00 | 08:30:00 | |
| PETON7-10 | 2026-09-05 03:13:14 | 48.26187 | 15.37046 | 128° | 35km/h | 18841m | 3.7m/s | -57.5°C | 4.7% | 0hPa | 2.7V | 00:00:00 | 01:24:31 | 00:00:00 | |
| OE5MMP-10 | 2026-09-05 03:13:13 | 48.26191 | 15.37037 | 120° | 35km/h | 18836m | 5.1m/s | -57.5°C | 4.7% | 0hPa | 2.7V | 00:00:00 | 01:24:30 | 00:00:00 | |
| OE3MUC-15 | 2026-09-05 03:13:12 | 48.26195 | 15.37026 | 116° | 37km/h | 18831m | 3.5m/s | -57.5°C | 4.7% | 0hPa | 2.7V | 00:00:00 | 00:00:00 | 00:00:00 | |
| OK1ALN | 2026-09-05 03:13:11 | 48.26195 | 15.37026 | 116° | 37km/h | 18831m | 3.5m/s | -57.6°C | 1.6% | 0hPa | 2.7V | 00:00:00 | 00:00:00 | 00:00:00 | |
| OM5KV | 2026-09-05 03:13:10 | 48.26199 | 15.37013 | 113° | 35km/h | 18827m | 5.3m/s | -57.6°C | 1.6% | 0hPa | 2.7V | 00:00:00 | 00:00:00 | 00:00:00 | |
| OE3MUC-15 | 2026-09-05 03:13:08 | 48.26209 | 15.36974 | 111° | 35km/h | 18812m | 4.0m/s | -57.8°C | 4.7% | 0hPa | 2.7V | 00:00:00 | 00:00:00 | 00:00:00 | |
| OE8JPQ-2 | 2026-09-05 03:13:07 | 48.26212 | 15.36961 | 109° | 40km/h | 18807m | 5.7m/s | -57.9°C | 4.7% | 0hPa | 2.7V | 00:00:00 | 00:00:00 | 00:00:00 | |
| OE3MUC-15 | 2026-09-05 03:13:04 | 48.26221 | 15.36925 | 112° | 35km/h | 18791m | 4.6m/s | -58.1°C | 4.8% | 0hPa | 2.7V | 00:00:00 | 00:00:00 | 00:00:00 | |
| OE5MMP-10 | 2026-09-05 03:13:03 | 48.26224 | 15.36913 | 111° | 40km/h | 18785m | 5.9m/s | -58.1°C | 4.9% | 0hPa | 2.6V | 00:00:00 | 01:24:20 | 00:00:00 | |
| OM5KV | 2026-09-05 03:13:01 | 48.26227 | 15.36901 | 111° | 33km/h | 18780m | 4.7m/s | -58.1°C | 1.7% | 0hPa | 2.6V | 00:00:00 | 00:00:00 | 00:00:00 | |
| OE3OSB-13 | 2026-09-05 03:12:54 | 48.26264 | 15.36771 | 114° | 44km/h | 18738m | 4.4m/s | -58.1°C | 1.6% | -1.0hPa | 2.6V | 00:00:00 | 00:00:00 | 00:00:00 | |
| OM5KV | 2026-09-05 03:12:53 | 48.26259 | 15.36787 | 116° | 46km/h | 18743m | 4.9m/s | -58.1°C | 1.7% | 0hPa | 2.6V | 00:00:00 | 00:00:00 | 00:00:00 | |
| OE3MUC-15 | 2026-09-05 03:12:52 | 48.26268 | 15.36756 | 113° | 46km/h | 18733m | 5.1m/s | -58.0°C | 4.9% | 0hPa | 2.6V | 00:00:00 | 00:00:00 | 00:00:00 | |
| OE5FHM-15 | 2026-09-05 03:12:50 | 48.26277 | 15.36725 | 116° | 49km/h | 18724m | 6.2m/s | -58.0°C | 4.9% | 0hPa | 2.6V | 00:00:00 | 01:24:07 | 00:00:00 | |
| OM5KV | 2026-09-05 03:12:49 | 48.26277 | 15.36725 | 117° | 47km/h | 18724m | 6.3m/s | -58.0°C | 1.7% | 0hPa | 2.6V | 00:00:00 | 00:00:00 | 00:00:00 | |
| OE3MUC-15 | 2026-09-05 03:12:48 | 48.26288 | 15.36691 | 114° | 51km/h | 18713m | 6.0m/s | -58.1°C | 4.9% | 0hPa | 2.6V | 00:00:00 | 00:00:00 | 00:00:00 | |
| OE8JPQ-2 | 2026-09-05 03:12:47 | 48.26293 | 15.36673 | 112° | 49km/h | 18707m | 4.8m/s | -58.1°C | 4.9% | 0hPa | 2.6V | 00:00:00 | 01:24:04 | 00:00:00 | |
| PETON7-10 | 2026-09-05 03:12:44 | 48.26307 | 15.36619 | 111° | 47km/h | 18693m | 3.9m/s | -58.2°C | 5.0% | 0hPa | 2.6V | 00:00:00 | 00:00:00 | 00:00:00 | |
| OE5WHR-10 | 2026-09-05 03:12:43 | 48.26311 | 15.36601 | 107° | 49km/h | 18688m | 6.4m/s | -58.2°C | 5.0% | 0hPa | 2.6V | 00:00:00 | 00:00:00 | 00:00:00 | |
| OE3MUC-15 | 2026-09-05 03:12:40 | 48.26321 | 15.36547 | 103° | 47km/h | 18671m | 4.0m/s | -58.2°C | 4.9% | 0hPa | 2.6V | 00:00:00 | 00:00:00 | 08:30:00 | |
| OE5DRO-10 | 2026-09-05 03:12:38 | 48.26325 | 15.36512 | 97° | 47km/h | 18660m | 5.6m/s | -58.2°C | 4.9% | 0hPa | 2.6V | 00:00:00 | 00:00:00 | 08:30:00 | |
| OE3MUC-15 | 2026-09-05 03:12:36 | 48.26329 | 15.36477 | 101° | 46km/h | 18649m | 5.0m/s | -58.2°C | 4.9% | 0hPa | 2.6V | 00:00:00 | 00:00:00 | 00:00:00 | |
| OM5KV | 2026-09-05 03:12:35 | 48.26329 | 15.36477 | 102° | 46km/h | 18649m | 5.1m/s | -58.2°C | 1.7% | 0hPa | 2.6V | 00:00:00 | 00:00:00 | 00:00:00 | |
| OE5MMP-10 | 2026-09-05 03:12:33 | 48.26334 | 15.36425 | 99° | 51km/h | 18632m | 5.0m/s | -58.1°C | 4.9% | 0hPa | 2.6V | 00:00:00 | 01:23:50 | 08:30:00 | |
| OE3MUC-15 | 2026-09-05 03:12:32 | 48.26335 | 15.36408 | 98° | 49km/h | 18626m | 6.6m/s | -58.1°C | 4.9% | 0hPa | 2.6V | 00:00:00 | 00:00:00 | 00:00:00 | |
| OE5DXL-15 | 2026-09-05 03:12:30 | 48.26338 | 15.36372 | 96° | 47km/h | 18616m | 5.5m/s | -58.0°C | 4.9% | 0hPa | 2.6V | 00:00:00 | 00:00:00 | 08:30:00 | |
| PETON7-10 | 2026-09-05 03:12:29 | 48.26339 | 15.36353 | 92° | 47km/h | 18610m | 4.9m/s | -58.0°C | 4.9% | 0hPa | 2.6V | 00:00:00 | 01:23:46 | 00:00:00 | |
| OE3MUC-15 | 2026-09-05 03:12:28 | 48.26340 | 15.36334 | 93° | 53km/h | 18605m | 5.4m/s | -58.0°C | 4.9% | 0hPa | 2.6V | 00:00:00 | 00:00:00 | 00:00:00 | |
| OE8JPQ-2 | 2026-09-05 03:12:27 | 48.26340 | 15.36314 | 94° | 47km/h | 18600m | 5.4m/s | -58.0°C | 5.0% | 0hPa | 2.7V | 00:00:00 | 00:00:00 | 00:00:00 | |
| OM5KV | 2026-09-05 03:12:25 | 48.26341 | 15.36294 | 93° | 53km/h | 18595m | 4.1m/s | -58.1°C | 1.8% | 0hPa | 2.7V | 00:00:00 | 00:00:00 | 00:00:00 | |
| OE3MUC-15 | 2026-09-05 03:12:24 | 48.26341 | 15.36254 | 88° | 47km/h | 18584m | 4.9m/s | -58.0°C | 5.0% | 0hPa | 2.7V | 00:00:00 | 00:00:00 | 00:00:00 | |
| OE3OSB-13 | 2026-09-05 03:12:23 | 48.26342 | 15.36218 | 98° | 46km/h | 18574m | 6.0m/s | -58.0°C | 1.5% | -1.0hPa | 2.7V | 00:00:00 | 00:00:00 | 00:00:00 | |
| OE5WHR-10 | 2026-09-05 03:12:22 | 48.26342 | 15.36218 | 99° | 46km/h | 18574m | 5.9m/s | -57.9°C | 4.8% | 0hPa | 2.7V | 00:00:00 | 01:23:39 | 00:00:00 | |
| OE5FHM-15 | 2026-09-05 03:12:20 | 48.26346 | 15.36185 | 101° | 47km/h | 18563m | 5.7m/s | -58.0°C | 4.9% | 0hPa | 2.7V | 00:00:00 | 01:23:37 | 00:00:00 | |
| OE5DRO-10 | 2026-09-05 03:12:19 | 48.26347 | 15.36170 | 97° | 46km/h | 18557m | 4.9m/s | -58.1°C | 5.0% | 0hPa | 2.7V | 00:00:00 | 00:00:00 | 00:00:00 | |
| OE3MUC-15 | 2026-09-05 03:12:16 | 48.26351 | 15.36121 | 98° | 47km/h | 18543m | 5.0m/s | -58.1°C | 4.9% | 0hPa | 2.7V | 00:00:00 | 00:00:00 | 00:00:00 | |
| PETON7-10 | 2026-09-05 03:12:14 | 48.26352 | 15.36086 | 91° | 47km/h | 18530m | 4.9m/s | -58.0°C | 4.8% | 0hPa | 2.6V | 00:00:00 | 00:00:00 | 00:00:00 | |
| OE5MMP-10 | 2026-09-05 03:12:13 | 48.26352 | 15.36068 | 88° | 47km/h | 18525m | 5.9m/s | -58.0°C | 4.8% | 0hPa | 2.7V | 00:00:00 | 01:23:30 | 00:00:00 | |
| OE3MUC-15 | 2026-09-05 03:12:12 | 48.26351 | 15.36049 | 88° | 49km/h | 18519m | 6.5m/s | -58.0°C | 4.8% | 0hPa | 2.7V | 00:00:00 | 00:00:00 | 00:00:00 | |
| SONDE2-11 | 2026-09-05 03:12:09 | 48.26346 | 15.35993 | 76° | 46km/h | 18502m | 5.2m/s | -58.0°C | -1.0% | -1.0hPa | 2.7V | 00:00:00 | 00:00:00 | 00:00:00 | |
| OE3MUC-15 | 2026-09-05 03:12:08 | 48.26343 | 15.35977 | 80° | 44km/h | 18497m | 5.0m/s | -57.9°C | 4.8% | 0hPa | 2.7V | 00:00:00 | 00:00:00 | 00:00:00 | |
| OE8JPQ-2 | 2026-09-05 03:12:07 | 48.26341 | 15.35961 | 79° | 49km/h | 18491m | 5.7m/s | -57.8°C | 4.7% | 0hPa | 2.7V | 00:00:00 | 00:00:00 | 00:00:00 | |
| OE3MUC-15 | 2026-09-05 03:12:04 | 48.26335 | 15.35911 | 76° | 47km/h | 18475m | 6.1m/s | -57.7°C | 4.6% | 0hPa | 2.7V | 00:00:00 | 00:00:00 | 08:30:00 | |
| OE5WHR-10 | 2026-09-05 03:12:01 | 48.26325 | 15.35859 | 77° | 49km/h | 18458m | 5.2m/s | -57.6°C | 4.5% | 0hPa | 2.6V | 00:00:00 | 00:00:00 | 08:30:00 | |
| OE3MUC-15 | 2026-09-05 03:12:00 | 48.26323 | 15.35841 | 77° | 46km/h | 18452m | 6.7m/s | -57.7°C | 4.5% | 0hPa | 2.6V | 00:00:00 | 00:00:00 | 00:00:00 | |
| PETON7-10 | 2026-09-05 03:11:59 | 48.26320 | 15.35824 | 76° | 51km/h | 18446m | 4.2m/s | -58.0°C | 4.6% | 0hPa | 2.6V | 00:00:00 | 00:00:00 | 00:00:00 | |
| OK1ALN | 2026-09-05 03:11:58 | 48.26319 | 15.35824 | 76° | 46km/h | 18446m | 4.3m/s | -58.0°C | 1.6% | 0hPa | 2.6V | 00:00:00 | 00:00:00 | 00:00:00 | |
| PG1ADW-2 | 2026-09-05 03:11:56 | 48.26313 | 15.35773 | 80° | 51km/h | 18431m | 6.6m/s | -58.8°C | 5.0% | 0hPa | 2.6V | 00:00:00 | 00:00:00 | 00:00:00 | |
| S52SK | 2026-09-05 03:11:55 | 48.26313 | 15.35773 | 81° | 46km/h | 18431m | 6.6m/s | -58.8°C | 1.7% | 0hPa | 2.6V | 00:00:00 | 00:00:00 | 00:00:00 | |
| OE5MMP-10 | 2026-09-05 03:11:53 | 48.26306 | 15.35719 | 82° | 53km/h | 18413m | 4.5m/s | -59.0°C | 5.1% | 0hPa | 2.6V | 00:00:00 | 01:23:10 | 00:00:00 | |
| OE3MUC-15 | 2026-09-05 03:11:52 | 48.26304 | 15.35699 | 77° | 55km/h | 18409m | 4.1m/s | -59.0°C | 5.1% | 0hPa | 2.6V | 00:00:00 | 00:00:00 | 00:00:00 | |
| OM5KV | 2026-09-05 03:11:51 | 48.26304 | 15.35699 | 78° | 53km/h | 18409m | 4.1m/s | -59.0°C | 1.8% | 0hPa | 2.6V | 00:00:00 | 00:00:00 | 00:00:00 | |
| S52SK | 2026-09-05 03:11:49 | 48.26296 | 15.35660 | 68° | 55km/h | 18397m | 6.1m/s | -59.1°C | 1.8% | 0hPa | 2.6V | 00:00:00 | 00:00:00 | 00:00:00 | |
| OE3MUC-15 | 2026-09-05 03:11:48 | 48.26285 | 15.35623 | 67° | 51km/h | 18385m | 5.6m/s | -59.2°C | 5.2% | 0hPa | 2.6V | 00:00:00 | 00:00:00 | 00:00:00 | |
| OM5KV | 2026-09-05 03:11:45 | 48.26274 | 15.35587 | 63° | 51km/h | 18374m | 6.9m/s | -59.2°C | 1.8% | 0hPa | 2.6V | 00:00:00 | 00:00:00 | 00:00:00 | |
| OE5FHM-15 | 2026-09-05 03:11:44 | 48.26262 | 15.35554 | 65° | 44km/h | 18362m | 6.0m/s | -59.1°C | 5.3% | 0hPa | 2.6V | 00:00:00 | 01:23:01 | 00:00:00 | |
| OE5MMP-10 | 2026-09-05 03:11:43 | 48.26257 | 15.35537 | 67° | 49km/h | 18357m | 5.1m/s | -59.1°C | 5.3% | 0hPa | 2.6V | 00:00:00 | 01:23:00 | 00:00:00 | |
| OE5DRO-10 | 2026-09-05 03:11:41 | 48.26247 | 15.35503 | 62° | 46km/h | 18346m | 6.0m/s | -59.1°C | 5.2% | 0hPa | 2.6V | 00:00:00 | 00:00:00 | 00:00:00 | |
| OE5WHR-10 | 2026-09-05 03:11:40 | 48.26240 | 15.35486 | 62° | 46km/h | 18340m | 5.0m/s | -59.0°C | 5.2% | 0hPa | 2.6V | 00:00:00 | 00:00:00 | 00:00:00 | |
| OM5KV | 2026-09-05 03:11:39 | 48.26240 | 15.35486 | 62° | 51km/h | 18340m | 5.1m/s | -59.1°C | 1.8% | 0hPa | 2.6V | 00:00:00 | 00:00:00 | 00:00:00 | |
| SONDE2-11 | 2026-09-05 03:11:38 | 48.26228 | 15.35451 | 62° | 51km/h | 18328m | 5.3m/s | 0°C | -1.0% | -1.0hPa | 2.6V | 00:00:00 | 00:00:00 | 00:00:00 | |
| OK1ALN | 2026-09-05 03:11:37 | 48.26228 | 15.35451 | 63° | 53km/h | 18328m | 5.3m/s | -59.0°C | 1.8% | 0hPa | 2.6V | 00:00:00 | 00:00:00 | 00:00:00 | |
| PG1ADW-2 | 2026-09-05 03:11:36 | 48.26214 | 15.35418 | 56° | 42km/h | 18315m | 4.7m/s | -58.9°C | 5.3% | 0hPa | 2.6V | 00:00:00 | 01:22:53 | 00:00:00 | |
| OE3JTB-15 | 2026-09-05 03:11:34 | 48.26201 | 15.35388 | 59° | 40km/h | 18304m | 5.6m/s | -58.8°C | 5.2% | 0hPa | 2.6V | 00:00:00 | 01:22:51 | 00:00:00 | |
| OE5MMP-10 | 2026-09-05 03:11:33 | 48.26195 | 15.35375 | 58° | 42km/h | 18299m | 4.4m/s | -58.7°C | 5.2% | 0hPa | 2.6V | 00:00:00 | 01:22:50 | 00:00:00 | |
| OM5KV | 2026-09-05 03:11:32 | 48.26195 | 15.35375 | 59° | 42km/h | 18299m | 4.4m/s | -58.8°C | 1.8% | 0hPa | 2.6V | 00:00:00 | 00:00:00 | 00:00:00 | |
| OE5DXL-15 | 2026-09-05 03:11:30 | 48.26178 | 15.35335 | 59° | 40km/h | 18280m | 6.9m/s | -58.6°C | 5.2% | 0hPa | 2.6V | 00:00:00 | 00:00:00 | 00:00:00 | |
| PETON7-10 | 2026-09-05 03:11:29 | 48.26173 | 15.35322 | 62° | 42km/h | 18274m | 5.3m/s | -58.7°C | 5.2% | 0hPa | 2.6V | 00:00:00 | 00:00:00 | 08:30:00 | |
| OE8JPQ-2 | 2026-09-05 03:11:27 | 48.26161 | 15.35294 | 57° | 40km/h | 18261m | 5.9m/s | -58.6°C | 5.2% | 0hPa | 2.6V | 00:00:00 | 00:00:00 | 00:00:00 | |
| OM5KV | 2026-09-05 03:11:25 | 48.26155 | 15.35280 | 58° | 44km/h | 18256m | 5.1m/s | -58.6°C | 1.8% | 0hPa | 2.7V | 00:00:00 | 00:00:00 | 00:00:00 | |
| OE5MMP-10 | 2026-09-05 03:11:23 | 48.26137 | 15.35240 | 53° | 40km/h | 18238m | 6.4m/s | -58.4°C | 5.1% | 0hPa | 2.7V | 00:00:00 | 01:22:40 | 00:00:00 | |
| OE5DRO-10 | 2026-09-05 03:11:22 | 48.26130 | 15.35226 | 53° | 40km/h | 18232m | 4.8m/s | -58.3°C | 5.1% | 0hPa | 2.7V | 00:00:00 | 00:00:00 | 00:00:00 | |
| OE3OSB-13 | 2026-09-05 03:11:21 | 48.26119 | 15.35201 | 57° | 38km/h | 18220m | 5.1m/s | -58.3°C | 1.6% | -1.0hPa | 2.7V | 00:00:00 | 00:00:00 | 00:00:00 | |
| OE3MUC-15 | 2026-09-05 03:11:20 | 48.26119 | 15.35201 | 58° | 40km/h | 18221m | 5.0m/s | -58.2°C | 5.1% | 0hPa | 2.7V | 00:00:00 | 00:00:00 | 00:00:00 | |
| OE5WHR-10 | 2026-09-05 03:11:19 | 48.26113 | 15.35188 | 54° | 40km/h | 18214m | 7.1m/s | -58.2°C | 5.1% | 0hPa | 2.7V | 00:00:00 | 01:22:36 | 00:00:00 | |
| OE3MUC-15 | 2026-09-05 03:11:16 | 48.26096 | 15.35152 | 59° | 38km/h | 18196m | 4.9m/s | -58.0°C | 5.0% | 0hPa | 2.7V | 00:00:00 | 00:00:00 | 00:00:00 | |
| OE5FHM-15 | 2026-09-05 03:11:14 | 48.26086 | 15.35129 | 52° | 40km/h | 18184m | 5.9m/s | -57.9°C | 5.0% | 0hPa | 2.6V | 00:00:00 | 01:22:31 | 00:00:00 | |
| OE5MMP-10 | 2026-09-05 03:11:13 | 48.26080 | 15.35118 | 54° | 40km/h | 18179m | 4.6m/s | -57.9°C | 5.0% | 0hPa | 2.6V | 00:00:00 | 01:22:30 | 00:00:00 | |
| OE3MUC-15 | 2026-09-05 03:11:12 | 48.26074 | 15.35106 | 54° | 38km/h | 18173m | 6.9m/s | -57.8°C | 4.9% | 0hPa | 2.6V | 00:00:00 | 01:22:29 | 00:00:00 | |
| OM5KV | 2026-09-05 03:11:10 | 48.26068 | 15.35095 | 56° | 38km/h | 18166m | 5.1m/s | -57.8°C | 1.7% | 0hPa | 2.6V | 00:00:00 | 00:00:00 | 00:00:00 | |
| DO3MHA-12 | 2026-09-05 03:11:08 | 48.26050 | 15.35060 | 52° | 38km/h | 18147m | 7.4m/s | -57.6°C | 5.0% | 0hPa | 2.6V | 00:00:00 | 01:22:25 | 00:00:00 | |
| OE8JPQ-2 | 2026-09-05 03:11:07 | 48.26044 | 15.35048 | 56° | 40km/h | 18141m | 4.6m/s | -57.6°C | 5.0% | 0hPa | 2.7V | 00:00:00 | 00:00:00 | 00:00:00 | |
| OE3JTB-15 | 2026-09-05 03:11:05 | 48.26031 | 15.35023 | 52° | 38km/h | 18130m | 4.6m/s | -57.5°C | 4.9% | 0hPa | 2.7V | 00:00:00 | 00:00:00 | 08:30:00 | |
| OE3MUC-15 | 2026-09-05 03:11:04 | 48.26024 | 15.35010 | 52° | 42km/h | 18124m | 6.7m/s | -57.4°C | 4.9% | 0hPa | 2.6V | 00:00:00 | 00:00:00 | 00:00:00 | |
| OE3OSB-13 | 2026-09-05 03:10:50 | 48.25936 | 15.34826 | 57° | 35km/h | 18035m | 5.1m/s | -56.9°C | 1.4% | -1.0hPa | 2.6V | 00:00:00 | 00:00:00 | 00:00:00 | |
| OE3MUC-15 | 2026-09-05 03:10:48 | 48.25931 | 15.34814 | 54° | 37km/h | 18030m | 5.4m/s | -56.8°C | 4.6% | 0hPa | 2.6V | 00:00:00 | 00:00:00 | 00:00:00 | |
| OE8JPQ-2 | 2026-09-05 03:10:47 | 48.25925 | 15.34803 | 51° | 35km/h | 18024m | 6.5m/s | -56.8°C | 4.6% | 0hPa | 2.6V | 00:00:00 | 01:22:04 | 00:00:00 | |
| DO3MHA-12 | 2026-09-05 03:10:44 | 48.25909 | 15.34771 | 60° | 35km/h | 18007m | 4.8m/s | -56.7°C | 4.7% | 0hPa | 2.6V | 00:00:00 | 01:22:01 | 00:00:00 | |
| OE5FHM-15 | 2026-09-05 03:10:43 | 48.25904 | 15.34759 | 61° | 31km/h | 18001m | 6.6m/s | -56.7°C | 4.6% | 0hPa | 2.6V | 00:00:00 | 01:22:00 | 00:00:00 | |
| OE5DRO-10 | 2026-09-05 03:10:41 | 48.25896 | 15.34735 | 65° | 33km/h | 17990m | 4.7m/s | -56.6°C | 4.6% | 0hPa | 2.6V | 00:00:00 | 00:00:00 | 00:00:00 | |
| OE3MUC-15 | 2026-09-05 03:10:40 | 48.25892 | 15.34723 | 69° | 35km/h | 17985m | 6.3m/s | -56.6°C | 4.6% | 0hPa | 2.7V | 00:00:00 | 00:00:00 | 00:00:00 | |
| OE5WHR-10 | 2026-09-05 03:10:37 | 48.25883 | 15.34688 | 61° | 31km/h | 17969m | 5.6m/s | -56.6°C | 4.6% | 0hPa | 2.7V | 00:00:00 | 00:00:00 | 00:00:00 | |
| OE3MUC-15 | 2026-09-05 03:10:36 | 48.25878 | 15.34676 | 54° | 35km/h | 17965m | 3.7m/s | -56.6°C | 4.6% | 0hPa | 2.7V | 00:00:00 | 00:00:00 | 00:00:00 | |
| DO3MHA-12 | 2026-09-05 03:10:34 | 48.25867 | 15.34655 | 51° | 31km/h | 17955m | 5.0m/s | -56.5°C | 4.6% | 0hPa | 2.7V | 00:00:00 | 01:21:51 | 00:00:00 | |
| OE5MMP-10 | 2026-09-05 03:10:33 | 48.25861 | 15.34645 | 49° | 31km/h | 17949m | 6.1m/s | -56.6°C | 4.6% | 0hPa | 2.7V | 00:00:00 | 01:21:50 | 00:00:00 | |
| OE3MUC-15 | 2026-09-05 03:10:32 | 48.25855 | 15.34635 | 54° | 33km/h | 17943m | 5.1m/s | -56.5°C | 4.6% | 0hPa | 2.7V | 00:00:00 | 00:00:00 | 00:00:00 | |
| OE5DXL-15 | 2026-09-05 03:10:30 | 48.25845 | 15.34614 | 57° | 27km/h | 17932m | 5.8m/s | -56.5°C | 4.6% | 0hPa | 2.7V | 00:00:00 | 00:00:00 | 00:00:00 | |
| PETON7-10 | 2026-09-05 03:10:29 | 48.25841 | 15.34605 | 56° | 29km/h | 17927m | 4.9m/s | -56.4°C | 4.6% | 0hPa | 2.7V | 00:00:00 | 00:00:00 | 00:00:00 | |
| OE3MUC-15 | 2026-09-05 03:10:28 | 48.25837 | 15.34595 | 60° | 29km/h | 17921m | 6.1m/s | -56.4°C | 4.6% | 0hPa | 2.7V | 00:00:00 | 00:00:00 | 00:00:00 | |
| OE8JPQ-2 | 2026-09-05 03:10:27 | 48.25833 | 15.34585 | 62° | 27km/h | 17916m | 3.5m/s | -56.4°C | 4.6% | 0hPa | 2.6V | 00:00:00 | 00:00:00 | 08:30:00 | |
| DO3MHA-12 | 2026-09-05 03:10:24 | 48.25823 | 15.34558 | 50° | 29km/h | 17900m | 4.8m/s | -56.4°C | 4.6% | 0hPa | 2.6V | 00:00:00 | 01:21:41 | 00:00:00 | |
| OE5MMP-10 | 2026-09-05 03:10:23 | 48.25819 | 15.34551 | 53° | 29km/h | 17895m | 6.3m/s | -56.4°C | 4.6% | 0hPa | 2.6V | 00:00:00 | 01:21:40 | 00:00:00 | |
| OE5DRO-10 | 2026-09-05 03:10:22 | 48.25814 | 15.34542 | 53° | 26km/h | 17889m | 4.3m/s | -56.4°C | 4.6% | 0hPa | 2.6V | 00:00:00 | 00:00:00 | 00:00:00 | |
| OE3MUC-15 | 2026-09-05 03:10:20 | 48.25806 | 15.34525 | 61° | 31km/h | 17877m | 5.3m/s | -56.3°C | 4.6% | 0hPa | 2.6V | 00:00:00 | 00:00:00 | 00:00:00 | |
| OM5KV | 2026-09-05 03:10:18 | 48.25803 | 15.34515 | 59° | 31km/h | 17872m | 6.5m/s | -56.3°C | 1.6% | 0hPa | 2.6V | 00:00:00 | 00:00:00 | 00:00:00 | |
| PG1ADW-2 | 2026-09-05 03:10:16 | 48.25791 | 15.34483 | 63° | 24km/h | 17854m | 5.1m/s | -56.2°C | 4.6% | 0hPa | 2.6V | 00:00:00 | 01:21:33 | 08:30:00 | |
| PETON7-10 | 2026-09-05 03:10:14 | 48.25784 | 15.34463 | 59° | 24km/h | 17843m | 5.1m/s | -56.1°C | 4.6% | 0hPa | 2.6V | 00:00:00 | 01:21:31 | 00:00:00 | |
| OK1ALN | 2026-09-05 03:10:13 | 48.25784 | 15.34463 | 59° | 29km/h | 17843m | 5.1m/s | -56.2°C | 1.6% | 0hPa | 2.6V | 00:00:00 | 00:00:00 | 00:00:00 | |
| OE3MUC-15 | 2026-09-05 03:10:12 | 48.25777 | 15.34447 | 62° | 20km/h | 17833m | 5.8m/s | -56.0°C | 4.6% | 0hPa | 2.6V | 00:00:00 | 00:00:00 | 00:00:00 | |
| OM5KV | 2026-09-05 03:10:09 | 48.25773 | 15.34433 | 66° | 20km/h | 17822m | 6.0m/s | -56.0°C | 1.6% | 0hPa | 2.6V | 00:00:00 | 00:00:00 | 00:00:00 | |
| OE3MUC-15 | 2026-09-05 03:10:08 | 48.25769 | 15.34418 | 68° | 24km/h | 17811m | 6.6m/s | -55.8°C | 4.6% | 0hPa | 2.6V | 00:00:00 | 00:00:00 | 00:00:00 | |
| OE8JPQ-2 | 2026-09-05 03:10:07 | 48.25767 | 15.34411 | 69° | 24km/h | 17805m | 5.2m/s | -55.7°C | 4.6% | 0hPa | 2.6V | 00:00:00 | 00:00:00 | 00:00:00 | |
| OM5KV | 2026-09-05 03:10:05 | 48.25765 | 15.34403 | 64° | 24km/h | 17800m | 3.8m/s | -55.7°C | 1.6% | 0hPa | 2.6V | 00:00:00 | 00:00:00 | 00:00:00 | |
| DO3MHA-12 | 2026-09-05 03:10:04 | 48.25759 | 15.34385 | 63° | 22km/h | 17788m | 3.9m/s | -55.6°C | 4.5% | 0hPa | 2.6V | 00:00:00 | 01:21:21 | 08:30:00 | |
| OE5MMP-10 | 2026-09-05 03:10:03 | 48.25756 | 15.34375 | 67° | 22km/h | 17782m | 8.2m/s | -55.5°C | 4.5% | 0hPa | 2.6V | 00:00:00 | 01:21:20 | 00:00:00 | |
| OE3OSB-13 | 2026-09-05 03:09:48 | 48.25730 | 15.34243 | 69° | 26km/h | 17680m | 5.2m/s | -54.7°C | 1.4% | -1.0hPa | 2.7V | 00:00:00 | 00:00:00 | 00:00:00 | |
| OE8JPQ-2 | 2026-09-05 03:09:47 | 48.25730 | 15.34243 | 70° | 24km/h | 17680m | 5.2m/s | -54.7°C | 4.3% | 0hPa | 2.7V | 00:00:00 | 01:21:04 | 00:00:00 | |
| OM5KV | 2026-09-05 03:09:46 | 48.25730 | 15.34243 | 70° | 26km/h | 17680m | 5.2m/s | -54.7°C | 1.5% | 0hPa | 2.7V | 00:00:00 | 00:00:00 | 00:00:00 | |
| PETON7-10 | 2026-09-05 03:09:44 | 48.25724 | 15.34221 | 74° | 26km/h | 17660m | 6.7m/s | -54.5°C | 4.2% | 0hPa | 2.7V | 00:00:00 | 00:00:00 | 00:00:00 | |
| OE5FHM-15 | 2026-09-05 03:09:43 | 48.25723 | 15.34214 | 96° | 27km/h | 17653m | 6.5m/s | -54.5°C | 4.2% | 0hPa | 2.7V | 00:00:00 | 01:21:00 | 00:00:00 | |
| OE5DRO-10 | 2026-09-05 03:09:41 | 48.25725 | 15.34199 | 99° | 26km/h | 17642m | 7.1m/s | -54.3°C | 4.2% | 0hPa | 2.7V | 00:00:00 | 00:00:00 | 08:30:00 | |
| OM5KV | 2026-09-05 03:09:39 | 48.25726 | 15.34190 | 92° | 22km/h | 17636m | 5.4m/s | -54.3°C | 1.5% | 0hPa | 2.6V | 00:00:00 | 00:00:00 | 00:00:00 | |
| OE3JTB-15 | 2026-09-05 03:09:38 | 48.25726 | 15.34173 | 98° | 27km/h | 17625m | 5.6m/s | -54.2°C | 4.2% | 0hPa | 2.6V | 00:00:00 | 00:00:00 | 00:00:00 | |
| PG1ADW-2 | 2026-09-05 03:09:36 | 48.25729 | 15.34153 | 100° | 27km/h | 17613m | 5.3m/s | -54.2°C | 4.1% | 0hPa | 2.6V | 00:00:00 | 00:00:00 | 00:00:00 | |
| OE5WHR-10 | 2026-09-05 03:09:34 | 48.25730 | 15.34131 | 93° | 27km/h | 17602m | 4.2m/s | -54.1°C | 4.1% | 0hPa | 2.6V | 00:00:00 | 00:00:00 | 00:00:00 | |
| OE5MMP-10 | 2026-09-05 03:09:33 | 48.25730 | 15.34119 | 91° | 26km/h | 17596m | 7.5m/s | -54.2°C | 4.1% | 0hPa | 2.6V | 00:00:00 | 01:20:50 | 08:30:00 | |
| OE5DXL-15 | 2026-09-05 03:09:30 | 48.25730 | 15.34088 | 77° | 31km/h | 17578m | 6.0m/s | -54.1°C | 4.0% | 0hPa | 2.7V | 00:00:00 | 00:00:00 | 00:00:00 | |
| PETON7-10 | 2026-09-05 03:09:29 | 48.25728 | 15.34080 | 78° | 27km/h | 17573m | 4.4m/s | -54.1°C | 4.0% | 0hPa | 2.6V | 00:00:00 | 01:20:46 | 00:00:00 | |
| OE8JPQ-2 | 2026-09-05 03:09:27 | 48.25727 | 15.34064 | 93° | 29km/h | 17561m | 5.0m/s | -54.1°C | 4.0% | 0hPa | 2.6V | 00:00:00 | 00:00:00 | 00:00:00 | |
| OE5MMP-10 | 2026-09-05 03:09:23 | 48.25729 | 15.34025 | 99° | 29km/h | 17535m | 7.4m/s | -54.2°C | 4.0% | 0hPa | 2.6V | 00:00:00 | 01:20:40 | 00:00:00 | |
| OE5DRO-10 | 2026-09-05 03:09:22 | 48.25730 | 15.34014 | 107° | 33km/h | 17529m | 5.6m/s | -54.2°C | 4.0% | 0hPa | 2.6V | 00:00:00 | 00:00:00 | 00:00:00 | |
| OE3MUC-15 | 2026-09-05 03:09:20 | 48.25735 | 15.33990 | 103° | 29km/h | 17516m | 5.0m/s | -54.1°C | 4.0% | 0hPa | 2.6V | 00:00:00 | 00:00:00 | 00:00:00 | |
| OE3MUC-15 | 2026-09-05 03:09:16 | 48.25745 | 15.33950 | 112° | 27km/h | 17494m | 6.4m/s | -54.7°C | 4.2% | 0hPa | 2.6V | 00:00:00 | 00:00:00 | 00:00:00 | |
| OM5KV | 2026-09-05 03:09:15 | 48.25745 | 15.33950 | 113° | 27km/h | 17494m | 6.4m/s | -54.8°C | 1.6% | 0hPa | 2.7V | 00:00:00 | 00:00:00 | 00:00:00 | |
| PETON7-10 | 2026-09-05 03:09:14 | 48.25750 | 15.33930 | 113° | 35km/h | 17484m | 5.4m/s | -55.0°C | 4.2% | 0hPa | 2.7V | 00:00:00 | 00:00:00 | 08:30:00 | |
| OE5FHM-15 | 2026-09-05 03:09:13 | 48.25753 | 15.33920 | 117° | 38km/h | 17477m | 6.8m/s | -55.0°C | 4.2% | 0hPa | 2.7V | 00:00:00 | 01:20:30 | 08:30:00 | |
| OE3MUC-15 | 2026-09-05 03:09:12 | 48.25756 | 15.33910 | 115° | 35km/h | 17471m | 4.5m/s | -55.0°C | 4.2% | 0hPa | 2.6V | 00:00:00 | 00:00:00 | 00:00:00 | |
| OK1ALN | 2026-09-05 03:09:10 | 48.25759 | 15.33899 | 114° | 31km/h | 17465m | 6.5m/s | -55.0°C | 1.6% | 0hPa | 2.6V | 00:00:00 | 00:00:00 | 00:00:00 | |
| OE3JTB-15 | 2026-09-05 03:09:09 | 48.25764 | 15.33874 | 103° | 42km/h | 17457m | 2.5m/s | -55.1°C | 4.2% | 0hPa | 2.6V | 00:00:00 | 00:00:00 | 00:00:00 | |
| S52SK | 2026-09-05 03:09:08 | 48.25764 | 15.33874 | 104° | 38km/h | 17457m | 2.6m/s | -55.2°C | 1.6% | 0hPa | 2.6V | 00:00:00 | 00:00:00 | 00:00:00 | |
| OE3MUC-15 | 2026-09-05 03:09:07 | 48.25770 | 15.33845 | 108° | 38km/h | 17445m | 6.2m/s | -55.6°C | 4.4% | 0hPa | 2.6V | 00:00:00 | 00:00:00 | 00:00:00 | |
| OE3MUC-15 | 2026-09-05 03:09:03 | 48.25778 | 15.33791 | 106° | 33km/h | 17422m | 5.3m/s | -56.0°C | 4.4% | 0hPa | 2.6V | 00:00:00 | 00:00:00 | 08:30:00 | |
| S52SK | 2026-09-05 03:09:02 | 48.25778 | 15.33791 | 107° | 35km/h | 17422m | 5.3m/s | -56.0°C | 1.7% | 0hPa | 2.7V | 00:00:00 | 00:00:00 | 00:00:00 | |
| OE5DXL-15 | 2026-09-05 03:09:00 | 48.25782 | 15.33756 | 95° | 47km/h | 17407m | 4.9m/s | -55.9°C | 4.4% | 0hPa | 2.7V | 00:00:00 | 00:00:00 | 00:00:00 | |
| PETON7-10 | 2026-09-05 03:08:59 | 48.25783 | 15.33743 | 97° | 44km/h | 17402m | 5.6m/s | -55.9°C | 4.4% | 0hPa | 2.7V | 00:00:00 | 00:00:00 | 00:00:00 | |
| OE3MUC-15 | 2026-09-05 03:08:58 | 48.25784 | 15.33730 | 95° | 40km/h | 17397m | 4.0m/s | -55.9°C | 4.4% | 0hPa | 2.7V | 00:00:00 | 00:00:00 | 00:00:00 | |
| PG1ADW-2 | 2026-09-05 03:08:56 | 48.25784 | 15.33701 | 86° | 49km/h | 17386m | 5.3m/s | -55.9°C | 4.3% | 0hPa | 2.7V | 00:00:00 | 01:20:13 | 00:00:00 | |
| OE3MUC-15 | 2026-09-05 03:08:54 | 48.25782 | 15.33666 | 86° | 46km/h | 17375m | 5.6m/s | -55.9°C | 4.3% | 0hPa | 2.7V | 00:00:00 | 00:00:00 | 00:00:00 | |
| OE5MMP-10 | 2026-09-05 03:08:53 | 48.25781 | 15.33648 | 85° | 46km/h | 17370m | 4.1m/s | -55.9°C | 4.3% | 0hPa | 2.7V | 00:00:00 | 01:20:10 | 00:00:00 | |
| OE5WHR-10 | 2026-09-05 03:08:52 | 48.25780 | 15.33630 | 82° | 49km/h | 17365m | 6.3m/s | -56.0°C | 4.3% | 0hPa | 2.7V | 00:00:00 | 00:00:00 | 08:30:00 | |
| OM5KV | 2026-09-05 03:08:50 | 48.25778 | 15.33613 | 83° | 46km/h | 17360m | 4.2m/s | -56.2°C | 1.6% | 0hPa | 2.6V | 00:00:00 | 00:00:00 | 00:00:00 | |
| OE3MUC-15 | 2026-09-05 03:08:49 | 48.25777 | 15.33580 | 91° | 42km/h | 17349m | 6.1m/s | -56.7°C | 4.5% | 0hPa | 2.6V | 00:00:00 | 00:00:00 | 00:00:00 | |
| OE8JPQ-2 | 2026-09-05 03:08:47 | 48.25777 | 15.33548 | 94° | 51km/h | 17338m | 5.4m/s | -56.9°C | 4.6% | 0hPa | 2.6V | 00:00:00 | 01:20:04 | 00:00:00 | |
| OE3MUC-15 | 2026-09-05 03:08:45 | 48.25780 | 15.33515 | 102° | 51km/h | 17325m | 5.4m/s | -57.0°C | 4.7% | 0hPa | 2.6V | 00:00:00 | 00:00:00 | 00:00:00 | |
| PETON7-10 | 2026-09-05 03:08:44 | 48.25782 | 15.33497 | 99° | 51km/h | 17320m | 4.0m/s | -57.2°C | 4.7% | 0hPa | 2.6V | 00:00:00 | 01:20:01 | 00:00:00 | |
| OE5FHM-15 | 2026-09-05 03:08:43 | 48.25783 | 15.33479 | 95° | 49km/h | 17315m | 6.3m/s | -57.4°C | 4.8% | 0hPa | 2.6V | 00:00:00 | 01:20:00 | 00:00:00 | |
| OM5KV | 2026-09-05 03:08:41 | 48.25784 | 15.33459 | 93° | 53km/h | 17309m | 4.7m/s | -57.6°C | 1.9% | 0hPa | 2.6V | 00:00:00 | 00:00:00 | 00:00:00 | |
| OE3JTB-15 | 2026-09-05 03:08:40 | 48.25785 | 15.33418 | 90° | 47km/h | 17298m | 4.3m/s | -57.9°C | 5.0% | 0hPa | 2.6V | 00:00:00 | 01:19:57 | 00:00:00 | |
| PG1ADW-2 | 2026-09-05 03:08:36 | 48.25781 | 15.33332 | 86° | 47km/h | 17276m | 4.8m/s | -58.3°C | 5.2% | 0hPa | 2.6V | 00:00:00 | 00:00:00 | 00:00:00 | |
| OM5KV | 2026-09-05 03:08:35 | 48.25781 | 15.33332 | 87° | 55km/h | 17276m | 4.8m/s | -58.3°C | 2.0% | 0hPa | 2.6V | 00:00:00 | 00:00:00 | 00:00:00 | |
| OE3MUC-15 | 2026-09-05 03:08:34 | 48.25778 | 15.33293 | 82° | 47km/h | 17265m | 5.8m/s | -58.2°C | 5.2% | 0hPa | 2.6V | 00:00:00 | 00:00:00 | 00:00:00 | |
| OE5MMP-10 | 2026-09-05 03:08:33 | 48.25777 | 15.33275 | 83° | 47km/h | 17260m | 5.1m/s | -58.2°C | 5.2% | 0hPa | 2.6V | 00:00:00 | 01:19:50 | 00:00:00 | |
| OE5WHR-10 | 2026-09-05 03:08:31 | 48.25773 | 15.33240 | 81° | 46km/h | 17248m | 5.2m/s | -58.2°C | 5.2% | 0hPa | 2.6V | 00:00:00 | 00:00:00 | 00:00:00 | |
| OE5DXL-15 | 2026-09-05 03:08:30 | 48.25771 | 15.33223 | 79° | 47km/h | 17243m | 5.7m/s | -58.2°C | 5.2% | 0hPa | 2.6V | 00:00:00 | 00:00:00 | 00:00:00 | |
| PETON7-10 | 2026-09-05 03:08:29 | 48.25769 | 15.33206 | 80° | 46km/h | 17238m | 3.8m/s | -58.2°C | 5.2% | 0hPa | 2.6V | 00:00:00 | 00:00:00 | 00:00:00 | |
| OE3MUC-15 | 2026-09-05 03:08:28 | 48.25768 | 15.33189 | 84° | 49km/h | 17233m | 6.1m/s | -58.1°C | 5.2% | 0hPa | 2.6V | 00:00:00 | 00:00:00 | 00:00:00 | |
| OE8JPQ-2 | 2026-09-05 03:08:27 | 48.25766 | 15.33170 | 86° | 46km/h | 17228m | 3.9m/s | -58.1°C | 5.1% | 0hPa | 2.6V | 00:00:00 | 00:00:00 | 00:00:00 | |
| DO3MHA-12 | 2026-09-05 03:08:26 | 48.25765 | 15.33152 | 85° | 46km/h | 17223m | 6.0m/s | -58.0°C | 5.1% | 0hPa | 2.6V | 00:00:00 | 01:19:43 | 00:00:00 | |
| OE5DRO-10 | 2026-09-05 03:08:25 | 48.25764 | 15.33134 | 88° | 46km/h | 17217m | 4.3m/s | -58.0°C | 5.1% | 0hPa | 2.6V | 00:00:00 | 00:00:00 | 00:00:00 | |
| OE5MMP-10 | 2026-09-05 03:08:23 | 48.25765 | 15.33100 | 97° | 46km/h | 17206m | 4.5m/s | -57.9°C | 5.0% | 0hPa | 2.6V | 00:00:00 | 01:19:40 | 00:00:00 | |
| OE3MUC-15 | 2026-09-05 03:08:19 | 48.25769 | 15.33036 | 96° | 47km/h | 17185m | 6.9m/s | -57.8°C | 4.9% | 0hPa | 2.6V | 00:00:00 | 00:00:00 | 08:30:00 | |
| PG1ADW-2 | 2026-09-05 03:08:16 | 48.25770 | 15.32984 | 87° | 51km/h | 17168m | 5.5m/s | -57.9°C | 4.9% | 0hPa | 2.7V | 00:00:00 | 00:00:00 | 00:00:00 | |
| OE3MUC-15 | 2026-09-05 03:08:15 | 48.25769 | 15.32965 | 88° | 49km/h | 17163m | 5.1m/s | -57.9°C | 4.9% | 0hPa | 2.7V | 00:00:00 | 00:00:00 | 00:00:00 | |
| PETON7-10 | 2026-09-05 03:08:14 | 48.25769 | 15.32947 | 90° | 51km/h | 17157m | 6.2m/s | -57.9°C | 5.0% | 0hPa | 2.7V | 00:00:00 | 00:00:00 | 00:00:00 | |
| OE5MMP-10 | 2026-09-05 03:08:13 | 48.25769 | 15.32929 | 95° | 49km/h | 17152m | 4.2m/s | -57.9°C | 4.9% | 0hPa | 2.7V | 00:00:00 | 01:19:30 | 00:00:00 | |
| OE3MUC-15 | 2026-09-05 03:08:11 | 48.25771 | 15.32892 | 96° | 47km/h | 17141m | 5.1m/s | -58.0°C | 4.9% | 0hPa | 2.7V | 00:00:00 | 00:00:00 | 00:00:00 | |
| OE5WHR-10 | 2026-09-05 03:08:10 | 48.25773 | 15.32875 | 99° | 55km/h | 17135m | 5.9m/s | -58.0°C | 4.9% | 0hPa | 2.7V | 00:00:00 | 01:19:27 | 00:00:00 | |
| OE8JPQ-2 | 2026-09-05 03:08:07 | 48.25780 | 15.32823 | 102° | 57km/h | 17118m | 6.9m/s | -58.3°C | 5.0% | 0hPa | 2.7V | 00:00:00 | 00:00:00 | 00:00:00 | |
| OE5DRO-10 | 2026-09-05 03:08:06 | 48.25782 | 15.32805 | 98° | 57km/h | 17113m | 4.4m/s | -58.4°C | 5.1% | 0hPa | 2.7V | 00:00:00 | 00:00:00 | 00:00:00 | |
| DO3MHA-12 | 2026-09-05 03:08:04 | 48.25785 | 15.32767 | 99° | 57km/h | 17103m | 5.6m/s | -58.4°C | 5.1% | 0hPa | 2.7V | 00:00:00 | 01:19:21 | 00:00:00 | |
| OE5DXL-15 | 2026-09-05 03:08:00 | 48.25793 | 15.32684 | 98° | 60km/h | 17082m | 4.9m/s | -58.8°C | 5.3% | 0hPa | 2.6V | 00:00:00 | 00:00:00 | 08:30:00 | |
| PETON7-10 | 2026-09-05 03:07:59 | 48.25795 | 15.32661 | 99° | 60km/h | 17076m | 5.2m/s | -58.9°C | 5.3% | 0hPa | 2.7V | 00:00:00 | 01:19:16 | 00:00:00 | |
| PG1ADW-2 | 2026-09-05 03:07:56 | 48.25803 | 15.32597 | 105° | 62km/h | 17061m | 4.5m/s | -59.0°C | 5.3% | 0hPa | 2.7V | 00:00:00 | 00:00:00 | 00:00:00 | |
| OE3MUC-15 | 2026-09-05 03:07:55 | 48.25807 | 15.32576 | 108° | 58km/h | 17056m | 5.5m/s | -59.1°C | 5.4% | 0hPa | 2.7V | 00:00:00 | 00:00:00 | 00:00:00 | |
| DO3MHA-12 | 2026-09-05 03:07:54 | 48.25812 | 15.32556 | 111° | 62km/h | 17051m | 4.7m/s | -59.2°C | 5.5% | 0hPa | 2.7V | 00:00:00 | 01:19:11 | 00:00:00 | |
| OE5MMP-10 | 2026-09-05 03:07:53 | 48.25817 | 15.32536 | 112° | 62km/h | 17045m | 5.8m/s | -59.3°C | 5.5% | 0hPa | 2.7V | 00:00:00 | 01:19:10 | 00:00:00 | |
| OM5KV | 2026-09-05 03:07:52 | 48.25817 | 15.32536 | 113° | 57km/h | 17045m | 5.8m/s | -59.3°C | 2.2% | 0hPa | 2.7V | 00:00:00 | 00:00:00 | 00:00:00 | |
| OE3MUC-15 | 2026-09-05 03:07:50 | 48.25835 | 15.32473 | 111° | 64km/h | 17030m | 4.1m/s | -59.3°C | 5.6% | 0hPa | 2.7V | 00:00:00 | 00:00:00 | 00:00:00 | |
| OE5WHR-10 | 2026-09-05 03:07:49 | 48.25840 | 15.32451 | 108° | 62km/h | 17025m | 5.6m/s | -59.3°C | 5.6% | 0hPa | 2.6V | 00:00:00 | 00:00:00 | 00:00:00 | |
| OM5KV | 2026-09-05 03:07:47 | 48.25845 | 15.32428 | 106° | 64km/h | 17020m | 4.8m/s | -59.4°C | 2.2% | 0hPa | 2.6V | 00:00:00 | 00:00:00 | 00:00:00 | |
| OE3MUC-15 | 2026-09-05 03:07:46 | 48.25853 | 15.32381 | 106° | 62km/h | 17009m | 5.1m/s | -59.3°C | 5.6% | 0hPa | 2.6V | 00:00:00 | 00:00:00 | 00:00:00 | |
| DO3MHA-12 | 2026-09-05 03:07:44 | 48.25861 | 15.32336 | 106° | 62km/h | 16999m | 5.3m/s | -59.2°C | 5.6% | 0hPa | 2.6V | 00:00:00 | 01:19:01 | 00:00:00 | |
| OE5FHM-15 | 2026-09-05 03:07:43 | 48.25865 | 15.32314 | 107° | 58km/h | 16994m | 4.5m/s | -59.1°C | 5.6% | 0hPa | 2.6V | 00:00:00 | 01:19:00 | 00:00:00 | |
| OE3JTB-15 | 2026-09-05 03:07:42 | 48.25870 | 15.32292 | 109° | 58km/h | 16989m | 5.7m/s | -59.1°C | 5.6% | 0hPa | 2.6V | 00:00:00 | 00:00:00 | 00:00:00 | |
| OM5KV | 2026-09-05 03:07:39 | 48.25880 | 15.32246 | 109° | 64km/h | 16979m | 5.7m/s | -59.1°C | 2.2% | 0hPa | 2.6V | 00:00:00 | 00:00:00 | 00:00:00 | |
| PG1ADW-2 | 2026-09-05 03:07:36 | 48.25899 | 15.32153 | 106° | 58km/h | 16958m | 6.2m/s | -59.0°C | 5.6% | 0hPa | 2.6V | 00:00:00 | 01:18:53 | 00:00:00 | |
| OM5KV | 2026-09-05 03:07:35 | 48.25899 | 15.32153 | 106° | 64km/h | 16958m | 6.3m/s | -59.1°C | 2.2% | 0hPa | 2.6V | 00:00:00 | 00:00:00 | 00:00:00 | |
| DO3MHA-12 | 2026-09-05 03:07:34 | 48.25906 | 15.32108 | 103° | 58km/h | 16948m | 5.0m/s | -59.0°C | 5.6% | 0hPa | 2.6V | 00:00:00 | 01:18:51 | 08:30:00 | |
| OE5MMP-10 | 2026-09-05 03:07:33 | 48.25909 | 15.32086 | 106° | 58km/h | 16942m | 5.7m/s | -59.0°C | 5.6% | 0hPa | 2.6V | 00:00:00 | 01:18:50 | 00:00:00 | |
| OK1ALN | 2026-09-05 03:07:32 | 48.25909 | 15.32086 | 106° | 60km/h | 16942m | 5.8m/s | -59.0°C | 2.3% | 0hPa | 2.6V | 00:00:00 | 00:00:00 | 00:00:00 | |
| S52SK | 2026-09-05 03:07:31 | 48.25913 | 15.32065 | 105° | 58km/h | 16937m | 4.5m/s | -59.0°C | 2.3% | 0hPa | 2.6V | 00:00:00 | 00:00:00 | 00:00:00 | |
| OE5DXL-15 | 2026-09-05 03:07:30 | 48.25920 | 15.32024 | 107° | 53km/h | 16926m | 4.7m/s | -58.9°C | 5.6% | 0hPa | 2.6V | 00:00:00 | 00:00:00 | 00:00:00 | |
| PETON7-10 | 2026-09-05 03:07:29 | 48.25924 | 15.32003 | 108° | 58km/h | 16920m | 5.7m/s | -58.8°C | 5.6% | 0hPa | 2.6V | 00:00:00 | 00:00:00 | 00:00:00 | |
| OE5WHR-10 | 2026-09-05 03:07:28 | 48.25929 | 15.31982 | 107° | 55km/h | 16915m | 2.8m/s | -58.8°C | 5.6% | 0hPa | 2.6V | 00:00:00 | 00:00:00 | 00:00:00 | |
| OE8JPQ-2 | 2026-09-05 03:07:27 | 48.25933 | 15.31960 | 107° | 55km/h | 16912m | 5.3m/s | -58.8°C | 5.5% | 0hPa | 2.6V | 00:00:00 | 00:00:00 | 08:30:00 | |
| DO3MHA-12 | 2026-09-05 03:07:24 | 48.25942 | 15.31893 | 101° | 57km/h | 16896m | 5.2m/s | -58.7°C | 5.5% | 0hPa | 2.6V | 00:00:00 | 01:18:41 | 00:00:00 | |
| OE5MMP-10 | 2026-09-05 03:07:23 | 48.25945 | 15.31869 | 100° | 55km/h | 16892m | 4.3m/s | -58.7°C | 5.4% | 0hPa | 2.6V | 00:00:00 | 01:18:40 | 00:00:00 | |
| OE3MUC-15 | 2026-09-05 03:07:21 | 48.25950 | 15.31823 | 100° | 57km/h | 16881m | 4.2m/s | -58.7°C | 5.5% | 0hPa | 2.6V | 00:00:00 | 00:00:00 | 00:00:00 | |
| OE3MUC-15 | 2026-09-05 03:07:17 | 48.25962 | 15.31742 | 103° | 49km/h | 16859m | 4.5m/s | -58.6°C | 5.5% | 0hPa | 2.6V | 00:00:00 | 00:00:00 | 08:30:00 | |
| PG1ADW-2 | 2026-09-05 03:07:16 | 48.25965 | 15.31723 | 104° | 49km/h | 16853m | 6.9m/s | -58.6°C | 5.5% | 0hPa | 2.6V | 00:00:00 | 00:00:00 | 08:30:00 | |
| DO3MHA-12 | 2026-09-05 03:07:14 | 48.25971 | 15.31686 | 102° | 51km/h | 16842m | 5.2m/s | -58.5°C | 5.5% | 0hPa | 2.6V | 00:00:00 | 01:18:31 | 00:00:00 | |
| OE5FHM-15 | 2026-09-05 03:07:13 | 48.25973 | 15.31668 | 99° | 49km/h | 16836m | 6.1m/s | -58.5°C | 5.5% | 0hPa | 2.6V | 00:00:00 | 01:18:30 | 00:00:00 | |
| OE3OSB-13 | 2026-09-05 03:07:12 | 48.25977 | 15.31630 | 97° | 53km/h | 16825m | 5.1m/s | -58.6°C | 2.0% | -1.0hPa | 2.6V | 00:00:00 | 00:00:00 | 00:00:00 | |
| OE3MUC-15 | 2026-09-05 03:07:09 | 48.25979 | 15.31590 | 94° | 51km/h | 16815m | 5.4m/s | -58.5°C | 5.6% | 0hPa | 2.6V | 00:00:00 | 00:00:00 | 00:00:00 | |
| OE8JPQ-2 | 2026-09-05 03:07:07 | 48.25982 | 15.31551 | 100° | 47km/h | 16805m | 6.4m/s | -58.4°C | 5.6% | 0hPa | 2.6V | 00:00:00 | 00:00:00 | 00:00:00 | |
| OE3MUC-15 | 2026-09-05 03:07:05 | 48.25985 | 15.31515 | 98° | 46km/h | 16794m | 5.6m/s | -58.3°C | 5.6% | 0hPa | 2.6V | 00:00:00 | 00:00:00 | 00:00:00 | |
| DO3MHA-12 | 2026-09-05 03:07:04 | 48.25987 | 15.31499 | 97° | 47km/h | 16789m | 3.8m/s | -58.3°C | 5.5% | 0hPa | 2.6V | 00:00:00 | 01:18:21 | 00:00:00 | |
| OE5MMP-10 | 2026-09-05 03:07:03 | 48.25988 | 15.31482 | 100° | 49km/h | 16784m | 5.6m/s | -58.2°C | 5.5% | 0hPa | 2.6V | 00:00:00 | 01:18:20 | 00:00:00 | |
| OK1ALN | 2026-09-05 03:07:02 | 48.25988 | 15.31482 | 100° | 47km/h | 16784m | 5.6m/s | -58.3°C | 2.4% | 0hPa | 2.6V | 00:00:00 | 00:00:00 | 00:00:00 | |
| OE3MUC-15 | 2026-09-05 03:07:01 | 48.25991 | 15.31444 | 94° | 49km/h | 16774m | 5.1m/s | -58.1°C | 5.5% | 0hPa | 2.6V | 00:00:00 | 00:00:00 | 00:00:00 | |
| OE5DXL-15 | 2026-09-05 03:07:00 | 48.25991 | 15.31425 | 89° | 47km/h | 16768m | 6.2m/s | -58.1°C | 5.4% | 0hPa | 2.6V | 00:00:00 | 00:00:00 | 00:00:00 | |
| PETON7-10 | 2026-09-05 03:06:59 | 48.25991 | 15.31406 | 86° | 47km/h | 16762m | 4.6m/s | -58.0°C | 5.4% | 0hPa | 2.6V | 00:00:00 | 00:00:00 | 08:30:00 | |
| OE3MUC-15 | 2026-09-05 03:06:57 | 48.25989 | 15.31369 | 87° | 47km/h | 16752m | 5.7m/s | -57.9°C | 5.3% | 0hPa | 2.6V | 00:00:00 | 00:00:00 | 00:00:00 | |
| PG1ADW-2 | 2026-09-05 03:06:56 | 48.25988 | 15.31352 | 86° | 47km/h | 16747m | 4.3m/s | -57.9°C | 5.3% | 0hPa | 2.6V | 00:00:00 | 00:00:00 | 00:00:00 | |
| OM5KV | 2026-09-05 03:06:55 | 48.25988 | 15.31352 | 86° | 46km/h | 16747m | 4.4m/s | -57.9°C | 2.2% | 0hPa | 2.6V | 00:00:00 | 00:00:00 | 00:00:00 | |
| DO3MHA-12 | 2026-09-05 03:06:54 | 48.25986 | 15.31317 | 83° | 49km/h | 16735m | 4.3m/s | -57.8°C | 5.3% | 0hPa | 2.6V | 00:00:00 | 01:18:11 | 00:00:00 | |
| OE5MMP-10 | 2026-09-05 03:06:53 | 48.25984 | 15.31299 | 85° | 49km/h | 16730m | 6.7m/s | -57.7°C | 5.3% | 0hPa | 2.6V | 00:00:00 | 01:18:10 | 00:00:00 | |
| OE3MUC-15 | 2026-09-05 03:06:51 | 48.25983 | 15.31264 | 87° | 49km/h | 16719m | 5.2m/s | -57.7°C | 5.2% | 0hPa | 2.6V | 00:00:00 | 00:00:00 | 00:00:00 | |
| OE5DRO-10 | 2026-09-05 03:06:50 | 48.25982 | 15.31245 | 85° | 47km/h | 16714m | 4.7m/s | -57.6°C | 5.3% | 0hPa | 2.6V | 00:00:00 | 00:00:00 | 08:30:00 | |
| OM5KV | 2026-09-05 03:06:48 | 48.25981 | 15.31227 | 88° | 49km/h | 16710m | 4.2m/s | -57.7°C | 2.2% | 0hPa | 2.6V | 00:00:00 | 00:00:00 | 00:00:00 | |
| OE8JPQ-2 | 2026-09-05 03:06:47 | 48.25981 | 15.31190 | 94° | 47km/h | 16698m | 4.7m/s | -57.7°C | 5.4% | 0hPa | 2.6V | 00:00:00 | 01:18:04 | 00:00:00 | |
| OE5WHR-10 | 2026-09-05 03:06:46 | 48.25982 | 15.31170 | 93° | 47km/h | 16693m | 5.6m/s | -57.7°C | 5.3% | 0hPa | 2.6V | 00:00:00 | 00:00:00 | 00:00:00 | |
| DO3MHA-12 | 2026-09-05 03:06:44 | 48.25982 | 15.31133 | 88° | 46km/h | 16682m | 4.6m/s | -57.7°C | 5.4% | 0hPa | 2.6V | 00:00:00 | 01:18:01 | 00:00:00 | |
| OE5FHM-15 | 2026-09-05 03:06:43 | 48.25981 | 15.31115 | 89° | 49km/h | 16677m | 5.3m/s | -57.7°C | 5.4% | 0hPa | 2.6V | 00:00:00 | 01:18:00 | 00:00:00 | |
| OE3OSB-13 | 2026-09-05 03:06:41 | 48.25977 | 15.31063 | 77° | 44km/h | 16661m | 4.7m/s | -57.9°C | 2.1% | -1.0hPa | 2.6V | 00:00:00 | 00:00:00 | 00:00:00 | |
| OE3MUC-15 | 2026-09-05 03:06:39 | 48.25974 | 15.31047 | 79° | 42km/h | 16655m | 6.5m/s | -57.8°C | 5.4% | 0hPa | 2.6V | 00:00:00 | 00:00:00 | 08:30:00 | |
| PG1ADW-2 | 2026-09-05 03:06:36 | 48.25971 | 15.31000 | 83° | 51km/h | 16638m | 7.5m/s | -57.9°C | 5.4% | 0hPa | 2.6V | 00:00:00 | 00:00:00 | 00:00:00 | |
| OE3MUC-15 | 2026-09-05 03:06:35 | 48.25969 | 15.30982 | 83° | 47km/h | 16632m | 4.8m/s | -57.9°C | 5.4% | 0hPa | 2.6V | 00:00:00 | 00:00:00 | 00:00:00 | |
| DO3MHA-12 | 2026-09-05 03:06:34 | 48.25968 | 15.30965 | 84° | 49km/h | 16626m | 7.1m/s | -58.0°C | 5.3% | 0hPa | 2.6V | 00:00:00 | 01:17:51 | 00:00:00 | |
| OE5MMP-10 | 2026-09-05 03:06:33 | 48.25967 | 15.30947 | 88° | 51km/h | 16620m | 5.8m/s | -58.0°C | 5.4% | 0hPa | 2.6V | 00:00:00 | 01:17:50 | 08:30:00 | |
| OM5KV | 2026-09-05 03:06:32 | 48.25967 | 15.30947 | 89° | 49km/h | 16620m | 5.8m/s | -58.0°C | 2.3% | 0hPa | 2.7V | 00:00:00 | 00:00:00 | 00:00:00 | |
| OE3MUC-15 | 2026-09-05 03:06:31 | 48.25965 | 15.30909 | 85° | 49km/h | 16609m | 6.2m/s | -58.0°C | 5.4% | 0hPa | 2.7V | 00:00:00 | 00:00:00 | 00:00:00 | |
| OE5DXL-15 | 2026-09-05 03:06:30 | 48.25964 | 15.30891 | 88° | 58km/h | 16604m | 4.2m/s | -58.0°C | 5.4% | 0hPa | 2.7V | 00:00:00 | 00:00:00 | 00:00:00 | |
| PETON7-10 | 2026-09-05 03:06:29 | 48.25964 | 15.30873 | 90° | 53km/h | 16598m | 6.5m/s | -57.9°C | 5.4% | 0hPa | 2.6V | 00:00:00 | 01:17:46 | 00:00:00 | |
| OE8JPQ-2 | 2026-09-05 03:06:27 | 48.25965 | 15.30836 | 94° | 57km/h | 16587m | 6.0m/s | -57.9°C | 5.5% | 0hPa | 2.6V | 00:00:00 | 00:00:00 | 00:00:00 | |
| OE5WHR-10 | 2026-09-05 03:06:25 | 48.25967 | 15.30797 | 95° | 58km/h | 16577m | 3.8m/s | -57.8°C | 5.5% | 0hPa | 2.6V | 00:00:00 | 00:00:00 | 00:00:00 | |
| DO3MHA-12 | 2026-09-05 03:06:24 | 48.25968 | 15.30776 | 96° | 55km/h | 16572m | 6.2m/s | -57.8°C | 5.4% | 0hPa | 2.6V | 00:00:00 | 01:17:41 | 00:00:00 | |
| OE5MMP-10 | 2026-09-05 03:06:23 | 48.25969 | 15.30756 | 98° | 55km/h | 16566m | 5.5m/s | -57.8°C | 5.5% | 0hPa | 2.6V | 00:00:00 | 01:17:40 | 00:00:00 | |
| OM5KV | 2026-09-05 03:06:22 | 48.25969 | 15.30756 | 98° | 57km/h | 16566m | 5.5m/s | -57.9°C | 2.4% | 0hPa | 2.6V | 00:00:00 | 00:00:00 | 00:00:00 | |
| OE3MUC-15 | 2026-09-05 03:06:17 | 48.25977 | 15.30632 | 94° | 53km/h | 16532m | 6.4m/s | -58.0°C | 5.5% | 0hPa | 2.6V | 00:00:00 | 00:00:00 | 00:00:00 | |
| PG1ADW-2 | 2026-09-05 03:06:16 | 48.25978 | 15.30612 | 95° | 66km/h | 16527m | 4.1m/s | -58.1°C | 5.5% | 0hPa | 2.6V | 00:00:00 | 01:17:33 | 00:00:00 | |
| OE3JTB-15 | 2026-09-05 03:06:15 | 48.25980 | 15.30592 | 98° | 69km/h | 16521m | 6.4m/s | -58.1°C | 5.5% | 0hPa | 2.6V | 00:00:00 | 00:00:00 | 00:00:00 | |
| PETON7-10 | 2026-09-05 03:06:14 | 48.25982 | 15.30571 | 101° | 66km/h | 16516m | 5.0m/s | -58.2°C | 5.6% | 0hPa | 2.6V | 00:00:00 | 00:00:00 | 00:00:00 | |
| OE5FHM-15 | 2026-09-05 03:06:13 | 48.25984 | 15.30550 | 102° | 69km/h | 16510m | 4.8m/s | -58.3°C | 5.6% | 0hPa | 2.6V | 00:00:00 | 01:17:30 | 00:00:00 | |
| OE5DRO-10 | 2026-09-05 03:06:12 | 48.25987 | 15.30528 | 100° | 69km/h | 16505m | 6.0m/s | -58.4°C | 5.6% | 0hPa | 2.6V | 00:00:00 | 00:00:00 | 00:00:00 | |
| S52SK | 2026-09-05 03:06:11 | 48.25987 | 15.30528 | 101° | 60km/h | 16505m | 6.0m/s | -58.5°C | 2.4% | 0hPa | 2.6V | 00:00:00 | 00:00:00 | 00:00:00 | |
| OE3OSB-13 | 2026-09-05 03:06:10 | 48.25996 | 15.30460 | 101° | 62km/h | 16488m | 5.4m/s | -58.8°C | 2.4% | -1.0hPa | 2.6V | 00:00:00 | 00:00:00 | 00:00:00 | |
| OE3MUC-15 | 2026-09-05 03:06:09 | 48.25996 | 15.30460 | 102° | 62km/h | 16488m | 5.3m/s | -58.7°C | 5.8% | 0hPa | 2.6V | 00:00:00 | 00:00:00 | 00:00:00 | |
| OE8JPQ-2 | 2026-09-05 03:06:07 | 48.26001 | 15.30413 | 99° | 73km/h | 16476m | 4.5m/s | -58.9°C | 5.9% | 0hPa | 2.6V | 00:00:00 | 00:00:00 | 00:00:00 | |
| OE3MUC-15 | 2026-09-05 03:06:05 | 48.26007 | 15.30365 | 103° | 71km/h | 16465m | 5.0m/s | -58.8°C | 5.9% | 0hPa | 2.6V | 00:00:00 | 00:00:00 | 00:00:00 | |
| DO3MHA-12 | 2026-09-05 03:06:04 | 48.26011 | 15.30340 | 103° | 73km/h | 16460m | 4.8m/s | -58.8°C | 5.9% | 0hPa | 2.6V | 00:00:00 | 01:17:21 | 08:30:00 | |
| OE3MUC-15 | 2026-09-05 03:06:01 | 48.26023 | 15.30258 | 106° | 73km/h | 16444m | 6.5m/s | -58.7°C | 5.8% | 0hPa | 2.7V | 00:00:00 | 00:00:00 | 08:30:00 | |
| OE5DXL-15 | 2026-09-05 03:06:00 | 48.26029 | 15.30231 | 106° | 69km/h | 16438m | 5.5m/s | -58.6°C | 5.8% | 0hPa | 2.7V | 00:00:00 | 00:00:00 | 00:00:00 | |
| PETON7-10 | 2026-09-05 03:05:59 | 48.26033 | 15.30204 | 104° | 71km/h | 16431m | 6.7m/s | -58.6°C | 5.8% | 0hPa | 2.7V | 00:00:00 | 00:00:00 | 00:00:00 | |
| OE3MUC-15 | 2026-09-05 03:05:57 | 48.26041 | 15.30151 | 103° | 71km/h | 16420m | 6.3m/s | -58.6°C | 5.7% | 0hPa | 2.7V | 00:00:00 | 00:00:00 | 00:00:00 | |
| PG1ADW-2 | 2026-09-05 03:05:56 | 48.26045 | 15.30125 | 101° | 69km/h | 16414m | 4.8m/s | -58.6°C | 5.8% | 0hPa | 2.7V | 00:00:00 | 00:00:00 | 00:00:00 | |
| OM5KV | 2026-09-05 03:05:55 | 48.26045 | 15.30125 | 102° | 71km/h | 16414m | 4.8m/s | -58.7°C | 2.6% | 0hPa | 2.7V | 00:00:00 | 00:00:00 | 00:00:00 | |
| DO3MHA-12 | 2026-09-05 03:05:54 | 48.26050 | 15.30071 | 96° | 71km/h | 16403m | 4.5m/s | -58.8°C | 5.9% | 0hPa | 2.7V | 00:00:00 | 01:17:11 | 00:00:00 | |
| OE3MUC-15 | 2026-09-05 03:05:53 | 48.26052 | 15.30043 | 97° | 75km/h | 16398m | 6.1m/s | -58.8°C | 6.0% | 0hPa | 2.7V | 00:00:00 | 00:00:00 | 00:00:00 | |
| OM5KV | 2026-09-05 03:05:50 | 48.26057 | 15.29988 | 100° | 75km/h | 16387m | 4.5m/s | -58.8°C | 2.7% | 0hPa | 2.7V | 00:00:00 | 00:00:00 | 00:00:00 | |
| OE3MUC-15 | 2026-09-05 03:05:49 | 48.26063 | 15.29931 | 100° | 71km/h | 16377m | 4.3m/s | -58.8°C | 6.0% | 0hPa | 2.7V | 00:00:00 | 00:00:00 | 00:00:00 | |
| OE8JPQ-2 | 2026-09-05 03:05:47 | 48.26071 | 15.29877 | 104° | 66km/h | 16366m | 4.7m/s | -58.8°C | 6.0% | 0hPa | 2.6V | 00:00:00 | 01:17:04 | 00:00:00 | |
| OE3JTB-15 | 2026-09-05 03:05:46 | 48.26075 | 15.29853 | 103° | 66km/h | 16361m | 4.9m/s | -58.9°C | 6.0% | 0hPa | 2.6V | 00:00:00 | 01:17:03 | 00:00:00 | |
| OE3MUC-15 | 2026-09-05 03:05:45 | 48.26078 | 15.29829 | 101° | 66km/h | 16356m | 5.3m/s | -59.0°C | 6.0% | 0hPa | 2.6V | 00:00:00 | 00:00:00 | 00:00:00 | |
| PETON7-10 | 2026-09-05 03:05:44 | 48.26080 | 15.29804 | 98° | 68km/h | 16350m | 6.5m/s | -59.1°C | 6.0% | 0hPa | 2.6V | 00:00:00 | 01:17:01 | 00:00:00 | |
| OE5FHM-15 | 2026-09-05 03:05:43 | 48.26082 | 15.29779 | 95° | 64km/h | 16344m | 6.0m/s | -59.2°C | 6.0% | 0hPa | 2.6V | 00:00:00 | 01:17:00 | 00:00:00 | |
| OE3OSB-13 | 2026-09-05 03:05:39 | 48.26083 | 15.29652 | 92° | 68km/h | 16310m | 4.6m/s | -59.3°C | 2.5% | -1.0hPa | 2.6V | 00:00:00 | 00:00:00 | 00:00:00 | |
| PG1ADW-2 | 2026-09-05 03:05:36 | 48.26084 | 15.29601 | 92° | 64km/h | 16299m | 5.0m/s | -59.2°C | 6.1% | 0hPa | 2.6V | 00:00:00 | 00:00:00 | 00:00:00 | |
| DO3MHA-12 | 2026-09-05 03:05:34 | 48.26086 | 15.29549 | 94° | 64km/h | 16288m | 4.4m/s | -59.2°C | 6.1% | 0hPa | 2.6V | 00:00:00 | 01:16:51 | 00:00:00 | |
| OE5MMP-10 | 2026-09-05 03:05:33 | 48.26087 | 15.29523 | 92° | 64km/h | 16283m | 5.9m/s | -59.2°C | 6.1% | 0hPa | 2.6V | 00:00:00 | 01:16:50 | 00:00:00 | |
| OM5KV | 2026-09-05 03:05:32 | 48.26087 | 15.29523 | 93° | 68km/h | 16283m | 6.0m/s | -59.2°C | 2.7% | 0hPa | 2.6V | 00:00:00 | 00:00:00 | 00:00:00 | |
| OE5DXL-15 | 2026-09-05 03:05:30 | 48.26089 | 15.29447 | 95° | 60km/h | 16267m | 4.1m/s | -59.1°C | 6.1% | 0hPa | 2.6V | 00:00:00 | 00:00:00 | 00:00:00 | |
| PETON7-10 | 2026-09-05 03:05:29 | 48.26090 | 15.29422 | 95° | 62km/h | 16262m | 5.4m/s | -59.1°C | 6.1% | 0hPa | 2.6V | 00:00:00 | 00:00:00 | 00:00:00 | |
| OE8JPQ-2 | 2026-09-05 03:05:26 | 48.26093 | 15.29352 | 95° | 62km/h | 16246m | 6.2m/s | -59.1°C | 6.0% | 0hPa | 2.7V | 00:00:00 | 00:00:00 | 00:00:00 | |
| DO3MHA-12 | 2026-09-05 03:05:24 | 48.26095 | 15.29306 | 92° | 62km/h | 16235m | 6.1m/s | -59.0°C | 6.1% | 0hPa | 2.7V | 00:00:00 | 01:16:41 | 00:00:00 | |
| OE5MMP-10 | 2026-09-05 03:05:23 | 48.26095 | 15.29283 | 90° | 62km/h | 16230m | 4.1m/s | -59.0°C | 6.1% | 0hPa | 2.7V | 00:00:00 | 01:16:40 | 00:00:00 | |
| OE5WHR-10 | 2026-09-05 03:05:22 | 48.26094 | 15.29259 | 90° | 60km/h | 16226m | 4.7m/s | -59.0°C | 6.1% | 0hPa | 2.7V | 00:00:00 | 00:00:00 | 00:00:00 | |
| OE3MUC-15 | 2026-09-05 03:05:21 | 48.26095 | 15.29235 | 91° | 66km/h | 16221m | 4.9m/s | -59.0°C | 6.1% | 0hPa | 2.7V | 00:00:00 | 00:00:00 | 00:00:00 | |
| OM5KV | 2026-09-05 03:05:20 | 48.26094 | 15.29235 | 92° | 66km/h | 16221m | 4.9m/s | -59.0°C | 2.7% | 0hPa | 2.7V | 00:00:00 | 00:00:00 | 00:00:00 | |
| PG1ADW-2 | 2026-09-05 03:05:16 | 48.26093 | 15.29115 | 90° | 60km/h | 16197m | 5.1m/s | -58.9°C | 5.9% | 0hPa | 2.7V | 00:00:00 | 00:00:00 | 00:00:00 | |
| OE5DRO-10 | 2026-09-05 03:05:15 | 48.26093 | 15.29092 | 88° | 60km/h | 16192m | 4.9m/s | -58.9°C | 5.9% | 0hPa | 2.6V | 00:00:00 | 00:00:00 | 00:00:00 | |
| DO3MHA-12 | 2026-09-05 03:05:14 | 48.26092 | 15.29069 | 86° | 60km/h | 16187m | 5.8m/s | -58.9°C | 5.9% | 0hPa | 2.6V | 00:00:00 | 01:16:31 | 00:00:00 | |
| OE5FHM-15 | 2026-09-05 03:05:13 | 48.26091 | 15.29046 | 87° | 60km/h | 16182m | 4.8m/s | -59.0°C | 5.9% | 0hPa | 2.6V | 00:00:00 | 01:16:30 | 00:00:00 | |
| SP3BTT-10 | 2026-09-05 03:05:11 | 48.26090 | 15.29000 | 88° | 60km/h | 16171m | 4.3m/s | -59.2°C | 6.2% | 0hPa | 2.6V | 00:00:00 | 00:00:00 | 08:30:00 | |
| OM5KV | 2026-09-05 03:05:10 | 48.26090 | 15.29000 | 89° | 60km/h | 16171m | 4.4m/s | -59.3°C | 2.8% | 0hPa | 2.6V | 00:00:00 | 00:00:00 | 00:00:00 | |
| OE3MUC-15 | 2026-09-05 03:05:09 | 48.26088 | 15.28954 | 87° | 60km/h | 16160m | 4.0m/s | -59.3°C | 6.2% | 0hPa | 2.6V | 00:00:00 | 00:00:00 | 00:00:00 | |
| OE3OSB-13 | 2026-09-05 03:05:08 | 48.26089 | 15.28908 | 93° | 58km/h | 16149m | 5.4m/s | -59.3°C | 2.6% | -1.0hPa | 2.6V | 00:00:00 | 00:00:00 | 00:00:00 | |
| OE8JPQ-2 | 2026-09-05 03:05:06 | 48.26090 | 15.28886 | 94° | 58km/h | 16143m | 6.4m/s | -59.2°C | 6.2% | 0hPa | 2.6V | 00:00:00 | 00:00:00 | 00:00:00 | |
| OE3MUC-15 | 2026-09-05 03:05:05 | 48.26090 | 15.28864 | 93° | 57km/h | 16137m | 5.4m/s | -59.2°C | 6.2% | 0hPa | 2.6V | 00:00:00 | 00:00:00 | 00:00:00 | |
| DO3MHA-12 | 2026-09-05 03:05:04 | 48.26091 | 15.28842 | 95° | 62km/h | 16132m | 4.8m/s | -59.2°C | 6.1% | 0hPa | 2.6V | 00:00:00 | 01:16:21 | 00:00:00 | |
| OE5MMP-10 | 2026-09-05 03:05:03 | 48.26093 | 15.28821 | 98° | 60km/h | 16127m | 6.6m/s | -59.2°C | 6.1% | 0hPa | 2.7V | 00:00:00 | 01:16:20 | 08:30:00 | |
| OE5WHR-10 | 2026-09-05 03:05:01 | 48.26096 | 15.28778 | 97° | 60km/h | 16116m | 5.9m/s | -59.1°C | 6.2% | 0hPa | 2.6V | 00:00:00 | 01:16:18 | 00:00:00 | |
| OE5DXL-15 | 2026-09-05 03:05:00 | 48.26098 | 15.28756 | 96° | 60km/h | 16111m | 4.5m/s | -59.2°C | 6.2% | 0hPa | 2.6V | 00:00:00 | 00:00:00 | 00:00:00 | |
| PETON7-10 | 2026-09-05 03:04:59 | 48.26099 | 15.28734 | 97° | 60km/h | 16105m | 5.8m/s | -59.2°C | 6.1% | 0hPa | 2.7V | 00:00:00 | 01:16:16 | 00:00:00 | |
| PG1ADW-2 | 2026-09-05 03:04:56 | 48.26103 | 15.28663 | 91° | 60km/h | 16090m | 4.7m/s | -59.1°C | 6.1% | 0hPa | 2.7V | 00:00:00 | 01:16:13 | 00:00:00 | |
| OE5MMP-10 | 2026-09-05 03:04:53 | 48.26104 | 15.28591 | 92° | 58km/h | 16075m | 4.0m/s | -59.2°C | 6.1% | 0hPa | 2.7V | 00:00:00 | 01:16:10 | 00:00:00 | |
| DO3MHA-12 | 2026-09-05 03:04:52 | 48.26105 | 15.28568 | 91° | 58km/h | 16070m | 5.6m/s | -59.3°C | 6.2% | 0hPa | 2.7V | 00:00:00 | 01:16:09 | 00:00:00 | |
| OE3JTB-15 | 2026-09-05 03:04:49 | 48.26107 | 15.28481 | 92° | 62km/h | 16049m | 5.1m/s | -59.3°C | 6.3% | 0hPa | 2.7V | 00:00:00 | 00:00:00 | 00:00:00 | |
| OE3MUC-15 | 2026-09-05 03:04:48 | 48.26107 | 15.28481 | 92° | 57km/h | 16049m | 5.1m/s | -59.3°C | 6.3% | 0hPa | 2.7V | 00:00:00 | 00:00:00 | 08:30:00 | |
| S52SK | 2026-09-05 03:04:47 | 48.26107 | 15.28481 | 92° | 55km/h | 16049m | 5.1m/s | -59.4°C | 2.8% | 0hPa | 2.7V | 00:00:00 | 00:00:00 | 00:00:00 | |
| OE3MUC-15 | 2026-09-05 03:04:44 | 48.26111 | 15.28394 | 94° | 60km/h | 16030m | 5.5m/s | -59.3°C | 6.2% | 0hPa | 2.7V | 00:00:00 | 00:00:00 | 00:00:00 | |
| OE5FHM-15 | 2026-09-05 03:04:43 | 48.26112 | 15.28373 | 93° | 64km/h | 16025m | 4.1m/s | -59.3°C | 6.2% | 0hPa | 2.7V | 00:00:00 | 01:16:00 | 08:30:00 | |
| DO3MHA-12 | 2026-09-05 03:04:42 | 48.26112 | 15.28350 | 95° | 60km/h | 16020m | 5.9m/s | -59.3°C | 6.2% | 0hPa | 2.6V | 00:00:00 | 01:15:59 | 00:00:00 | |
| SP3BTT-10 | 2026-09-05 03:04:41 | 48.26114 | 15.28327 | 96° | 68km/h | 16015m | 4.4m/s | -59.2°C | 6.2% | 0hPa | 2.6V | 00:00:00 | 00:00:00 | 00:00:00 | |
| OE5WHR-10 | 2026-09-05 03:04:40 | 48.26115 | 15.28304 | 93° | 64km/h | 16010m | 5.5m/s | -59.2°C | 6.1% | 0hPa | 2.6V | 00:00:00 | 00:00:00 | 00:00:00 | |
| OE3MUC-15 | 2026-09-05 03:04:39 | 48.26115 | 15.28281 | 92° | 60km/h | 16005m | 4.2m/s | -59.2°C | 6.1% | 0hPa | 2.7V | 00:00:00 | 01:15:56 | 00:00:00 | |
| OE3OSB-13 | 2026-09-05 03:04:37 | 48.26118 | 15.28212 | 94° | 58km/h | 15990m | 4.9m/s | -59.1°C | 2.5% | -1.0hPa | 2.7V | 00:00:00 | 00:00:00 | 00:00:00 | |
| PG1ADW-2 | 2026-09-05 03:04:36 | 48.26118 | 15.28212 | 95° | 64km/h | 15990m | 4.9m/s | -59.1°C | 6.1% | 0hPa | 2.7V | 00:00:00 | 00:00:00 | 00:00:00 | |
| OE3MUC-15 | 2026-09-05 03:04:35 | 48.26119 | 15.28190 | 94° | 58km/h | 15986m | 4.4m/s | -59.0°C | 6.1% | 0hPa | 2.7V | 00:00:00 | 00:00:00 | 00:00:00 | |
| OM5KV | 2026-09-05 03:04:34 | 48.26119 | 15.28190 | 95° | 58km/h | 15986m | 4.4m/s | -59.1°C | 2.7% | 0hPa | 2.6V | 00:00:00 | 00:00:00 | 00:00:00 | |
| OE5MMP-10 | 2026-09-05 03:04:33 | 48.26122 | 15.28145 | 97° | 64km/h | 15975m | 4.5m/s | -59.0°C | 6.1% | 0hPa | 2.6V | 00:00:00 | 01:15:50 | 00:00:00 | |
| DO3MHA-12 | 2026-09-05 03:04:32 | 48.26124 | 15.28123 | 96° | 64km/h | 15970m | 6.0m/s | -59.0°C | 6.1% | 0hPa | 2.6V | 00:00:00 | 01:15:49 | 08:30:00 | |
| OE3MUC-15 | 2026-09-05 03:04:31 | 48.26125 | 15.28100 | 95° | 64km/h | 15965m | 4.3m/s | -59.0°C | 6.2% | 0hPa | 2.6V | 00:00:00 | 00:00:00 | 00:00:00 | |
| OE5DXL-15 | 2026-09-05 03:04:30 | 48.26127 | 15.28076 | 97° | 69km/h | 15960m | 5.6m/s | -59.0°C | 6.1% | 0hPa | 2.6V | 00:00:00 | 00:00:00 | 00:00:00 | |
| PETON7-10 | 2026-09-05 03:04:29 | 48.26129 | 15.28052 | 98° | 66km/h | 15955m | 4.0m/s | -58.9°C | 6.1% | 0hPa | 2.6V | 00:00:00 | 00:00:00 | 00:00:00 | |
| OE3MUC-15 | 2026-09-05 03:04:27 | 48.26133 | 15.28003 | 97° | 66km/h | 15946m | 4.4m/s | -58.9°C | 6.1% | 0hPa | 2.6V | 00:00:00 | 00:00:00 | 00:00:00 | |
| OE8JPQ-2 | 2026-09-05 03:04:26 | 48.26135 | 15.27978 | 98° | 69km/h | 15942m | 3.5m/s | -58.9°C | 6.1% | 0hPa | 2.6V | 00:00:00 | 00:00:00 | 08:30:00 | |
| OE5MMP-10 | 2026-09-05 03:04:23 | 48.26144 | 15.27905 | 101° | 68km/h | 15927m | 6.3m/s | -58.8°C | 6.1% | 0hPa | 2.6V | 00:00:00 | 01:15:40 | 00:00:00 | |
| DO3MHA-12 | 2026-09-05 03:04:22 | 48.26147 | 15.27881 | 100° | 68km/h | 15922m | 4.0m/s | -58.8°C | 6.1% | 0hPa | 2.6V | 00:00:00 | 01:15:39 | 00:00:00 | |
| OE3MUC-15 | 2026-09-05 03:04:19 | 48.26155 | 15.27805 | 100° | 68km/h | 15909m | 3.3m/s | -58.7°C | 6.0% | 0hPa | 2.6V | 00:00:00 | 00:00:00 | 00:00:00 | |
| OE5DRO-10 | 2026-09-05 03:04:18 | 48.26158 | 15.27779 | 98° | 73km/h | 15904m | 5.2m/s | -58.7°C | 6.1% | 0hPa | 2.6V | 00:00:00 | 00:00:00 | 00:00:00 | |
| PG1ADW-2 | 2026-09-05 03:04:16 | 48.26162 | 15.27729 | 97° | 73km/h | 15895m | 4.6m/s | -58.7°C | 6.0% | 0hPa | 2.6V | 00:00:00 | 00:00:00 | 08:30:00 | |
| OE3MUC-15 | 2026-09-05 03:04:15 | 48.26164 | 15.27703 | 100° | 69km/h | 15890m | 4.5m/s | -58.7°C | 6.0% | 0hPa | 2.6V | 00:00:00 | 00:00:00 | 00:00:00 | |
| PETON7-10 | 2026-09-05 03:04:14 | 48.26167 | 15.27679 | 99° | 75km/h | 15886m | 4.5m/s | -58.7°C | 6.0% | 0hPa | 2.6V | 00:00:00 | 01:15:31 | 00:00:00 | |
| OE5FHM-15 | 2026-09-05 03:04:13 | 48.26169 | 15.27653 | 99° | 75km/h | 15881m | 4.6m/s | -58.7°C | 6.0% | 0hPa | 2.6V | 00:00:00 | 01:15:30 | 00:00:00 | |
| DO3MHA-12 | 2026-09-05 03:04:12 | 48.26172 | 15.27627 | 100° | 75km/h | 15877m | 4.0m/s | -58.7°C | 6.0% | 0hPa | 2.6V | 00:00:00 | 01:15:29 | 00:00:00 | |
| OE3MUC-15 | 2026-09-05 03:04:11 | 48.26176 | 15.27600 | 101° | 78km/h | 15872m | 5.1m/s | -58.7°C | 6.1% | 0hPa | 2.6V | 00:00:00 | 00:00:00 | 08:30:00 | |
| OM5KV | 2026-09-05 03:04:09 | 48.26179 | 15.27571 | 101° | 78km/h | 15868m | 3.7m/s | -58.7°C | 2.7% | 0hPa | 2.6V | 00:00:00 | 00:00:00 | 00:00:00 | |
| OE3MUC-15 | 2026-09-05 03:04:07 | 48.26189 | 15.27483 | 100° | 75km/h | 15855m | 4.8m/s | -58.6°C | 6.0% | 0hPa | 2.6V | 00:00:00 | 00:00:00 | 00:00:00 | |
| OE3OSB-13 | 2026-09-05 03:04:06 | 48.26195 | 15.27426 | 98° | 75km/h | 15845m | 5.7m/s | -58.7°C | 2.5% | -1.0hPa | 2.6V | 00:00:00 | 00:00:00 | 00:00:00 | |
| OM5KV | 2026-09-05 03:04:04 | 48.26195 | 15.27426 | 100° | 75km/h | 15845m | 5.7m/s | -58.7°C | 2.7% | 0hPa | 2.6V | 00:00:00 | 00:00:00 | 00:00:00 | |
| DO3MHA-12 | 2026-09-05 03:04:02 | 48.26203 | 15.27344 | 99° | 75km/h | 15831m | 4.6m/s | -58.6°C | 6.0% | 0hPa | 2.6V | 00:00:00 | 01:15:19 | 00:00:00 | |
| OE5DXL-15 | 2026-09-05 03:04:00 | 48.26208 | 15.27289 | 98° | 77km/h | 15822m | 4.9m/s | -58.5°C | 6.0% | 0hPa | 2.7V | 00:00:00 | 00:00:00 | 00:00:00 | |
| PETON7-10 | 2026-09-05 03:03:59 | 48.26211 | 15.27261 | 99° | 77km/h | 15817m | 4.6m/s | -58.5°C | 5.9% | 0hPa | 2.7V | 00:00:00 | 00:00:00 | 00:00:00 | |
| OE5WHR-10 | 2026-09-05 03:03:58 | 48.26214 | 15.27233 | 100° | 77km/h | 15812m | 5.1m/s | -58.5°C | 6.0% | 0hPa | 2.7V | 00:00:00 | 01:15:15 | 00:00:00 | |
| PG1ADW-2 | 2026-09-05 03:03:56 | 48.26219 | 15.27177 | 97° | 77km/h | 15803m | 4.8m/s | -58.5°C | 6.0% | 0hPa | 2.7V | 00:00:00 | 00:00:00 | 00:00:00 | |
| OE3MUC-15 | 2026-09-05 03:03:55 | 48.26221 | 15.27149 | 97° | 77km/h | 15798m | 4.2m/s | -58.5°C | 6.0% | 0hPa | 2.7V | 00:00:00 | 00:00:00 | 00:00:00 | |
| OM5KV | 2026-09-05 03:03:54 | 48.26221 | 15.27149 | 97° | 75km/h | 15798m | 4.3m/s | -58.6°C | 2.7% | 0hPa | 2.7V | 00:00:00 | 00:00:00 | 00:00:00 | |
| OE5MMP-10 | 2026-09-05 03:03:53 | 48.26226 | 15.27092 | 96° | 77km/h | 15788m | 4.9m/s | -58.5°C | 6.0% | 0hPa | 2.7V | 00:00:00 | 01:15:10 | 00:00:00 | |
| DO3MHA-12 | 2026-09-05 03:03:52 | 48.26227 | 15.27064 | 95° | 77km/h | 15783m | 4.7m/s | -58.5°C | 6.0% | 0hPa | 2.7V | 00:00:00 | 01:15:09 | 00:00:00 | |
| OE3MUC-15 | 2026-09-05 03:03:51 | 48.26229 | 15.27035 | 94° | 78km/h | 15779m | 3.6m/s | -58.5°C | 5.9% | 0hPa | 2.7V | 00:00:00 | 00:00:00 | 00:00:00 | |
| OE3JTB-15 | 2026-09-05 03:03:50 | 48.26230 | 15.27005 | 95° | 77km/h | 15775m | 5.1m/s | -58.5°C | 6.0% | 0hPa | 2.7V | 00:00:00 | 00:00:00 | 00:00:00 | |
| OM5KV | 2026-09-05 03:03:48 | 48.26232 | 15.26976 | 94° | 78km/h | 15771m | 3.0m/s | -58.5°C | 2.7% | 0hPa | 2.6V | 00:00:00 | 00:00:00 | 00:00:00 | |
| OE3MUC-15 | 2026-09-05 03:03:47 | 48.26234 | 15.26917 | 95° | 77km/h | 15761m | 5.2m/s | -58.5°C | 5.9% | 0hPa | 2.6V | 00:00:00 | 00:00:00 | 00:00:00 | |
| OE8JPQ-2 | 2026-09-05 03:03:46 | 48.26236 | 15.26888 | 96° | 77km/h | 15756m | 5.0m/s | -58.4°C | 5.9% | 0hPa | 2.6V | 00:00:00 | 01:15:03 | 00:00:00 | |
| PETON7-10 | 2026-09-05 03:03:44 | 48.26239 | 15.26829 | 94° | 77km/h | 15747m | 6.0m/s | -58.4°C | 5.9% | 0hPa | 2.6V | 00:00:00 | 00:00:00 | 00:00:00 | |
| OE5FHM-15 | 2026-09-05 03:03:43 | 48.26240 | 15.26801 | 92° | 77km/h | 15741m | 4.7m/s | -58.4°C | 5.9% | 0hPa | 2.6V | 00:00:00 | 01:15:00 | 00:00:00 | |
| DO3MHA-12 | 2026-09-05 03:03:42 | 48.26241 | 15.26773 | 94° | 75km/h | 15736m | 5.6m/s | -58.4°C | 5.8% | 0hPa | 2.6V | 00:00:00 | 01:14:59 | 00:00:00 | |
| SP3BTT-10 | 2026-09-05 03:03:41 | 48.26242 | 15.26744 | 94° | 75km/h | 15730m | 5.1m/s | -58.3°C | 5.8% | 0hPa | 2.6V | 00:00:00 | 00:00:00 | 00:00:00 | |
| OE5DRO-10 | 2026-09-05 03:03:40 | 48.26243 | 15.26716 | 93° | 77km/h | 15726m | 3.8m/s | -58.4°C | 5.9% | 0hPa | 2.6V | 00:00:00 | 00:00:00 | 00:00:00 | |
| OE5WHR-10 | 2026-09-05 03:03:37 | 48.26243 | 15.26632 | 90° | 77km/h | 15710m | 5.4m/s | -58.4°C | 5.9% | 0hPa | 2.6V | 00:00:00 | 00:00:00 | 00:00:00 | |
| PG1ADW-2 | 2026-09-05 03:03:36 | 48.26243 | 15.26603 | 90° | 77km/h | 15705m | 4.3m/s | -58.4°C | 5.9% | 0hPa | 2.6V | 00:00:00 | 01:14:53 | 00:00:00 | |
| OE3OSB-13 | 2026-09-05 03:03:35 | 48.26242 | 15.26547 | 88° | 75km/h | 15695m | 4.8m/s | -58.4°C | 2.5% | -1.0hPa | 2.6V | 00:00:00 | 00:00:00 | 00:00:00 | |
| OE5MMP-10 | 2026-09-05 03:03:33 | 48.26242 | 15.26518 | 90° | 78km/h | 15690m | 5.1m/s | -58.4°C | 5.9% | 0hPa | 2.6V | 00:00:00 | 01:14:50 | 08:30:00 | |
| DO3MHA-12 | 2026-09-05 03:03:32 | 48.26242 | 15.26488 | 90° | 78km/h | 15685m | 4.3m/s | -58.4°C | 5.9% | 0hPa | 2.6V | 00:00:00 | 01:14:49 | 00:00:00 | |
| OE5DXL-15 | 2026-09-05 03:03:30 | 48.26241 | 15.26427 | 88° | 75km/h | 15676m | 4.4m/s | -58.4°C | 5.9% | 0hPa | 2.7V | 00:00:00 | 00:00:00 | 08:30:00 | |
| PETON7-10 | 2026-09-05 03:03:29 | 48.26240 | 15.26397 | 88° | 77km/h | 15672m | 3.9m/s | -58.4°C | 5.9% | 0hPa | 2.6V | 00:00:00 | 01:14:46 | 00:00:00 | |
| OE8JPQ-2 | 2026-09-05 03:03:26 | 48.26239 | 15.26307 | 88° | 75km/h | 15658m | 5.9m/s | -58.4°C | 5.9% | 0hPa | 2.6V | 00:00:00 | 00:00:00 | 00:00:00 | |
| OM5KV | 2026-09-05 03:03:24 | 48.26238 | 15.26278 | 87° | 75km/h | 15653m | 4.6m/s | -58.5°C | 2.7% | 0hPa | 2.7V | 00:00:00 | 00:00:00 | 00:00:00 | |
| DO3MHA-12 | 2026-09-05 03:03:22 | 48.26234 | 15.26193 | 86° | 75km/h | 15637m | 5.3m/s | -58.5°C | 6.0% | 0hPa | 2.7V | 00:00:00 | 01:14:39 | 00:00:00 | |
| OE3JTB-15 | 2026-09-05 03:03:21 | 48.26233 | 15.26164 | 85° | 75km/h | 15633m | 4.0m/s | -58.5°C | 6.0% | 0hPa | 2.7V | 00:00:00 | 00:00:00 | 00:00:00 | |
| OE3MUC-15 | 2026-09-05 03:03:19 | 48.26230 | 15.26108 | 88° | 77km/h | 15623m | 4.0m/s | -58.4°C | 6.0% | 0hPa | 2.7V | 00:00:00 | 00:00:00 | 00:00:00 | |
| OM5KV | 2026-09-05 03:03:18 | 48.26230 | 15.26108 | 89° | 75km/h | 15623m | 4.0m/s | -58.5°C | 2.7% | 0hPa | 2.7V | 00:00:00 | 00:00:00 | 00:00:00 | |
| OE5WHR-10 | 2026-09-05 03:03:16 | 48.26227 | 15.26021 | 88° | 75km/h | 15609m | 3.9m/s | -58.3°C | 5.9% | 0hPa | 2.7V | 00:00:00 | 00:00:00 | 00:00:00 | |
| PETON7-10 | 2026-09-05 03:03:14 | 48.26226 | 15.25964 | 89° | 73km/h | 15600m | 4.2m/s | -58.3°C | 6.0% | 0hPa | 2.7V | 00:00:00 | 00:00:00 | 00:00:00 | |
| OE5FHM-15 | 2026-09-05 03:03:13 | 48.26225 | 15.25935 | 87° | 75km/h | 15594m | 5.9m/s | -58.3°C | 5.9% | 0hPa | 2.6V | 00:00:00 | 01:14:30 | 00:00:00 | |
| DO3MHA-12 | 2026-09-05 03:03:12 | 48.26224 | 15.25907 | 86° | 73km/h | 15590m | 3.8m/s | -58.3°C | 6.0% | 0hPa | 2.7V | 00:00:00 | 01:14:29 | 00:00:00 | |
| OE3MUC-15 | 2026-09-05 03:03:10 | 48.26221 | 15.25852 | 87° | 73km/h | 15580m | 4.3m/s | -58.4°C | 6.0% | 0hPa | 2.7V | 00:00:00 | 00:00:00 | 00:00:00 | |
| OE3MUC-15 | 2026-09-05 03:03:06 | 48.26218 | 15.25741 | 89° | 73km/h | 15562m | 6.1m/s | -58.3°C | 5.9% | 0hPa | 2.6V | 00:00:00 | 00:00:00 | 00:00:00 | |
| OE3OSB-13 | 2026-09-05 03:03:04 | 48.26218 | 15.25659 | 91° | 73km/h | 15547m | 4.3m/s | -58.3°C | 2.5% | -1.0hPa | 2.6V | 00:00:00 | 00:00:00 | 00:00:00 | |
| OE5MMP-10 | 2026-09-05 03:03:03 | 48.26218 | 15.25659 | 92° | 77km/h | 15547m | 4.2m/s | -58.2°C | 6.0% | 0hPa | 2.6V | 00:00:00 | 01:14:20 | 00:00:00 | |
| DO3MHA-12 | 2026-09-05 03:03:02 | 48.26218 | 15.25631 | 94° | 77km/h | 15542m | 4.8m/s | -58.2°C | 6.0% | 0hPa | 2.6V | 00:00:00 | 01:14:19 | 08:30:00 | |
| OE5DXL-15 | 2026-09-05 03:03:00 | 48.26220 | 15.25575 | 92° | 77km/h | 15534m | 5.8m/s | -58.2°C | 6.0% | 0hPa | 2.6V | 00:00:00 | 01:14:17 | 00:00:00 | |
| PETON7-10 | 2026-09-05 03:02:59 | 48.26220 | 15.25545 | 91° | 77km/h | 15529m | 4.2m/s | -58.1°C | 6.0% | 0hPa | 2.6V | 00:00:00 | 00:00:00 | 00:00:00 | |
| OE3MUC-15 | 2026-09-05 03:02:58 | 48.26220 | 15.25516 | 90° | 78km/h | 15524m | 5.9m/s | -58.1°C | 6.0% | 0hPa | 2.6V | 00:00:00 | 00:00:00 | 08:30:00 | |
| PG1ADW-2 | 2026-09-05 03:02:56 | 48.26219 | 15.25458 | 88° | 77km/h | 15514m | 4.0m/s | -58.0°C | 5.9% | 0hPa | 2.7V | 00:00:00 | 00:00:00 | 00:00:00 | |
| OE5WHR-10 | 2026-09-05 03:02:55 | 48.26219 | 15.25428 | 88° | 77km/h | 15509m | 5.1m/s | -58.0°C | 5.9% | 0hPa | 2.7V | 00:00:00 | 01:14:12 | 00:00:00 | |
| OE3MUC-15 | 2026-09-05 03:02:54 | 48.26218 | 15.25398 | 88° | 77km/h | 15504m | 5.4m/s | -58.0°C | 5.9% | 0hPa | 2.7V | 00:00:00 | 00:00:00 | 00:00:00 | |
| OE5MMP-10 | 2026-09-05 03:02:53 | 48.26217 | 15.25369 | 90° | 77km/h | 15499m | 5.1m/s | -57.9°C | 5.9% | 0hPa | 2.7V | 00:00:00 | 01:14:10 | 00:00:00 | |
| DO3MHA-12 | 2026-09-05 03:02:52 | 48.26217 | 15.25341 | 89° | 77km/h | 15495m | 3.8m/s | -57.9°C | 5.9% | 0hPa | 2.7V | 00:00:00 | 01:14:09 | 00:00:00 | |
| OE3MUC-15 | 2026-09-05 03:02:50 | 48.26215 | 15.25284 | 87° | 77km/h | 15484m | 4.5m/s | -57.8°C | 5.9% | 0hPa | 2.7V | 00:00:00 | 00:00:00 | 00:00:00 | |
| OE8JPQ-2 | 2026-09-05 03:02:46 | 48.26211 | 15.25167 | 86° | 77km/h | 15464m | 4.6m/s | -57.7°C | 5.9% | 0hPa | 2.7V | 00:00:00 | 01:14:03 | 00:00:00 | |
| PETON7-10 | 2026-09-05 03:02:44 | 48.26209 | 15.25108 | 87° | 77km/h | 15454m | 3.5m/s | -57.6°C | 5.9% | 0hPa | 2.7V | 00:00:00 | 01:14:01 | 00:00:00 | |
| OE5FHM-15 | 2026-09-05 03:02:43 | 48.26207 | 15.25079 | 85° | 77km/h | 15449m | 5.8m/s | -57.6°C | 5.8% | 0hPa | 2.7V | 00:00:00 | 01:14:00 | 00:00:00 | |
| DO3MHA-12 | 2026-09-05 03:02:42 | 48.26206 | 15.25050 | 86° | 77km/h | 15444m | 4.8m/s | -57.6°C | 5.9% | 0hPa | 2.7V | 00:00:00 | 01:13:59 | 00:00:00 | |
| OE3MUC-15 | 2026-09-05 03:02:38 | 48.26199 | 15.24934 | 85° | 78km/h | 15424m | 4.3m/s | -57.4°C | 5.8% | 0hPa | 2.7V | 00:00:00 | 00:00:00 | 00:00:00 | |
| PG1ADW-2 | 2026-09-05 03:02:36 | 48.26196 | 15.24875 | 86° | 77km/h | 15414m | 4.2m/s | -57.4°C | 5.8% | 0hPa | 2.7V | 00:00:00 | 00:00:00 | 00:00:00 | |
| OE3MUC-15 | 2026-09-05 03:02:34 | 48.26192 | 15.24816 | 83° | 77km/h | 15405m | 4.8m/s | -57.3°C | 5.8% | 0hPa | 2.7V | 00:00:00 | 00:00:00 | 00:00:00 | |
| OE3OSB-13 | 2026-09-05 03:02:33 | 48.26188 | 15.24759 | 84° | 73km/h | 15394m | 4.8m/s | -57.3°C | 2.5% | -1.0hPa | 2.6V | 00:00:00 | 00:00:00 | 00:00:00 | |
| DO3MHA-12 | 2026-09-05 03:02:32 | 48.26188 | 15.24759 | 85° | 75km/h | 15394m | 4.8m/s | -57.2°C | 5.8% | 0hPa | 2.6V | 00:00:00 | 01:13:49 | 00:00:00 | |
| OE3MUC-15 | 2026-09-05 03:02:30 | 48.26183 | 15.24703 | 83° | 75km/h | 15384m | 4.1m/s | -57.2°C | 5.8% | 0hPa | 2.7V | 00:00:00 | 00:00:00 | 00:00:00 | |
| PETON7-10 | 2026-09-05 03:02:29 | 48.26181 | 15.24675 | 85° | 77km/h | 15379m | 6.0m/s | -57.1°C | 5.8% | 0hPa | 2.7V | 00:00:00 | 00:00:00 | 08:30:00 | |
| OM5KV | 2026-09-05 03:02:28 | 48.26181 | 15.24675 | 86° | 73km/h | 15379m | 6.0m/s | -57.2°C | 2.7% | 0hPa | 2.6V | 00:00:00 | 00:00:00 | 00:00:00 | |
| OE8JPQ-2 | 2026-09-05 03:02:26 | 48.26177 | 15.24590 | 85° | 77km/h | 15364m | 4.8m/s | -57.0°C | 5.8% | 0hPa | 2.6V | 00:00:00 | 00:00:00 | 00:00:00 | |
| OE5DRO-10 | 2026-09-05 03:02:24 | 48.26173 | 15.24532 | 85° | 77km/h | 15355m | 5.1m/s | -56.9°C | 5.8% | 0hPa | 2.6V | 00:00:00 | 00:00:00 | 00:00:00 | |
| OE5MMP-10 | 2026-09-05 03:02:23 | 48.26171 | 15.24503 | 85° | 78km/h | 15350m | 3.8m/s | -56.9°C | 5.7% | 0hPa | 2.6V | 00:00:00 | 01:13:40 | 00:00:00 | |
| OE3MUC-15 | 2026-09-05 03:02:22 | 48.26169 | 15.24473 | 83° | 78km/h | 15346m | 5.2m/s | -56.8°C | 5.7% | 0hPa | 2.6V | 00:00:00 | 00:00:00 | 08:30:00 | |
| OE3MUC-15 | 2026-09-05 03:02:18 | 48.26157 | 15.24355 | 80° | 77km/h | 15327m | 5.9m/s | -56.7°C | 5.7% | 0hPa | 2.6V | 00:00:00 | 00:00:00 | 00:00:00 | |
| PG1ADW-2 | 2026-09-05 03:02:16 | 48.26151 | 15.24297 | 82° | 77km/h | 15317m | 5.7m/s | -56.6°C | 5.6% | 0hPa | 2.6V | 00:00:00 | 01:13:33 | 00:00:00 | |
| OE3MUC-15 | 2026-09-05 03:02:14 | 48.26146 | 15.24240 | 82° | 75km/h | 15307m | 5.6m/s | -56.6°C | 5.7% | 0hPa | 2.7V | 00:00:00 | 00:00:00 | 00:00:00 | |
| OE5FHM-15 | 2026-09-05 03:02:13 | 48.26143 | 15.24212 | 84° | 77km/h | 15303m | 3.8m/s | -56.7°C | 5.7% | 0hPa | 2.7V | 00:00:00 | 01:13:30 | 00:00:00 | |
| DO3MHA-12 | 2026-09-05 03:02:12 | 48.26141 | 15.24184 | 86° | 77km/h | 15298m | 6.0m/s | -56.7°C | 5.7% | 0hPa | 2.7V | 00:00:00 | 01:13:29 | 00:00:00 | |
| OE3MUC-15 | 2026-09-05 03:02:10 | 48.26137 | 15.24127 | 83° | 78km/h | 15288m | 5.8m/s | -56.8°C | 5.8% | 0hPa | 2.7V | 00:00:00 | 00:00:00 | 00:00:00 | |
| OM5KV | 2026-09-05 03:02:09 | 48.26138 | 15.24127 | 84° | 77km/h | 15288m | 5.8m/s | -56.8°C | 2.8% | 0hPa | 2.7V | 00:00:00 | 00:00:00 | 00:00:00 | |
| OE3MUC-15 | 2026-09-05 03:02:06 | 48.26126 | 15.24010 | 82° | 78km/h | 15268m | 4.8m/s | -56.6°C | 5.8% | 0hPa | 2.7V | 00:00:00 | 00:00:00 | 00:00:00 | |
| OE5DRO-10 | 2026-09-05 03:02:05 | 48.26123 | 15.23980 | 82° | 77km/h | 15264m | 3.9m/s | -56.6°C | 5.8% | 0hPa | 2.7V | 00:00:00 | 00:00:00 | 00:00:00 | |
| OM5KV | 2026-09-05 03:02:03 | 48.26121 | 15.23951 | 86° | 77km/h | 15260m | 4.4m/s | -56.6°C | 2.8% | 0hPa | 2.6V | 00:00:00 | 00:00:00 | 00:00:00 | |
| DO3MHA-12 | 2026-09-05 03:02:02 | 48.26119 | 15.23893 | 88° | 77km/h | 15250m | 5.6m/s | -56.6°C | 5.8% | 0hPa | 2.6V | 00:00:00 | 01:13:19 | 00:00:00 | |
| OE3OSB-13 | 2026-09-05 03:02:01 | 48.26118 | 15.23865 | 88° | 73km/h | 15245m | 4.0m/s | -56.7°C | 2.7% | -1.0hPa | 2.7V | 00:00:00 | 00:00:00 | 00:00:00 | |
| OE5DXL-15 | 2026-09-05 03:02:00 | 48.26117 | 15.23837 | 89° | 78km/h | 15241m | 4.5m/s | -56.7°C | 5.8% | 0hPa | 2.7V | 00:00:00 | 00:00:00 | 00:00:00 | |
| PETON7-10 | 2026-09-05 03:01:59 | 48.26117 | 15.23808 | 89° | 77km/h | 15236m | 4.8m/s | -56.7°C | 5.9% | 0hPa | 2.6V | 00:00:00 | 01:13:16 | 00:00:00 | |
| OE3MUC-15 | 2026-09-05 03:01:58 | 48.26116 | 15.23779 | 89° | 75km/h | 15232m | 3.4m/s | -56.7°C | 5.9% | 0hPa | 2.6V | 00:00:00 | 00:00:00 | 00:00:00 | |
| PG1ADW-2 | 2026-09-05 03:01:56 | 48.26114 | 15.23723 | 84° | 77km/h | 15223m | 3.5m/s | -56.7°C | 5.8% | 0hPa | 2.6V | 00:00:00 | 00:00:00 | 00:00:00 | |
| OE3MUC-15 | 2026-09-05 03:01:54 | 48.26110 | 15.23665 | 86° | 77km/h | 15213m | 4.3m/s | -56.7°C | 5.9% | 0hPa | 2.6V | 00:00:00 | 00:00:00 | 00:00:00 | |
| OE5MMP-10 | 2026-09-05 03:01:53 | 48.26108 | 15.23636 | 86° | 77km/h | 15209m | 4.6m/s | -56.7°C | 5.8% | 0hPa | 2.6V | 00:00:00 | 01:13:10 | 00:00:00 | |
| DO3MHA-12 | 2026-09-05 03:01:52 | 48.26107 | 15.23606 | 87° | 77km/h | 15203m | 5.8m/s | -56.7°C | 5.8% | 0hPa | 2.6V | 00:00:00 | 01:13:09 | 00:00:00 | |
| OE3MUC-15 | 2026-09-05 03:01:50 | 48.26106 | 15.23549 | 91° | 77km/h | 15193m | 5.5m/s | -56.8°C | 5.9% | 0hPa | 2.6V | 00:00:00 | 00:00:00 | 00:00:00 | |
| OM5KV | 2026-09-05 03:01:47 | 48.26107 | 15.23491 | 92° | 75km/h | 15184m | 5.7m/s | -56.9°C | 3.0% | 0hPa | 2.6V | 00:00:00 | 00:00:00 | 00:00:00 | |
| OE3MUC-15 | 2026-09-05 03:01:46 | 48.26108 | 15.23434 | 92° | 77km/h | 15174m | 5.6m/s | -57.0°C | 5.9% | 0hPa | 2.6V | 00:00:00 | 00:00:00 | 08:30:00 | |
| OM5KV | 2026-09-05 03:01:45 | 48.26108 | 15.23434 | 92° | 77km/h | 15174m | 5.7m/s | -57.1°C | 3.0% | 0hPa | 2.7V | 00:00:00 | 00:00:00 | 00:00:00 | |
| PETON7-10 | 2026-09-05 03:01:44 | 48.26108 | 15.23376 | 90° | 80km/h | 15164m | 5.5m/s | -57.2°C | 6.0% | 0hPa | 2.7V | 00:00:00 | 00:00:00 | 00:00:00 | |
| OE5FHM-15 | 2026-09-05 03:01:43 | 48.26108 | 15.23347 | 90° | 82km/h | 15160m | 4.1m/s | -57.4°C | 6.2% | 0hPa | 2.6V | 00:00:00 | 01:13:00 | 00:00:00 | |
| DO3MHA-12 | 2026-09-05 03:01:42 | 48.26108 | 15.23318 | 91° | 78km/h | 15155m | 5.3m/s | -57.5°C | 6.2% | 0hPa | 2.6V | 00:00:00 | 01:12:59 | 00:00:00 | |
| OK1ALN | 2026-09-05 03:01:38 | 48.26113 | 15.23230 | 99° | 75km/h | 15141m | 4.3m/s | -57.7°C | 3.3% | 0hPa | 2.6V | 00:00:00 | 00:00:00 | 00:00:00 | |
| PG1ADW-2 | 2026-09-05 03:01:36 | 48.26123 | 15.23142 | 102° | 82km/h | 15127m | 3.9m/s | -57.6°C | 6.4% | 0hPa | 2.6V | 00:00:00 | 00:00:00 | 00:00:00 | |
| OE5MMP-10 | 2026-09-05 03:01:33 | 48.26134 | 15.23051 | 99° | 82km/h | 15113m | 5.0m/s | -57.6°C | 6.5% | 0hPa | 2.6V | 00:00:00 | 01:12:50 | 00:00:00 | |
| DO3MHA-12 | 2026-09-05 03:01:32 | 48.26137 | 15.23020 | 97° | 82km/h | 15108m | 4.3m/s | -57.6°C | 6.5% | 0hPa | 2.6V | 00:00:00 | 01:12:49 | 08:30:00 | |
| OE5WHR-10 | 2026-09-05 03:01:31 | 48.26139 | 15.22989 | 95° | 84km/h | 15103m | 5.5m/s | -57.6°C | 6.4% | 0hPa | 2.6V | 00:00:00 | 00:00:00 | 00:00:00 | |
| OE5DXL-15 | 2026-09-05 03:01:30 | 48.26141 | 15.22958 | 94° | 86km/h | 15098m | 3.7m/s | -57.6°C | 6.4% | 0hPa | 2.6V | 00:00:00 | 00:00:00 | 00:00:00 | |
| PETON7-10 | 2026-09-05 03:01:29 | 48.26142 | 15.22927 | 95° | 84km/h | 15094m | 5.2m/s | -57.7°C | 6.5% | 0hPa | 2.6V | 00:00:00 | 00:00:00 | 00:00:00 | |
| OM5KV | 2026-09-05 03:01:28 | 48.26142 | 15.22927 | 95° | 82km/h | 15094m | 5.3m/s | -57.7°C | 3.4% | 0hPa | 2.6V | 00:00:00 | 00:00:00 | 00:00:00 | |
| OE5DRO-10 | 2026-09-05 03:01:27 | 48.26146 | 15.22866 | 97° | 84km/h | 15084m | 5.3m/s | -57.8°C | 6.6% | 0hPa | 2.6V | 00:00:00 | 00:00:00 | 00:00:00 | |
| OE8JPQ-2 | 2026-09-05 03:01:26 | 48.26149 | 15.22836 | 99° | 86km/h | 15080m | 3.6m/s | -57.8°C | 6.6% | 0hPa | 2.6V | 00:00:00 | 00:00:00 | 08:30:00 | |
| OE3JTB-15 | 2026-09-05 03:01:25 | 48.26152 | 15.22806 | 100° | 88km/h | 15075m | 5.4m/s | -57.9°C | 6.6% | 0hPa | 2.6V | 00:00:00 | 01:12:42 | 00:00:00 | |
| SP3BTT-10 | 2026-09-05 03:01:24 | 48.26156 | 15.22775 | 101° | 86km/h | 15070m | 3.9m/s | 0°C | 0% | 0hPa | 2.6V | 00:00:00 | 00:00:00 | 00:00:00 | |
| OE5MMP-10 | 2026-09-05 03:01:23 | 48.26159 | 15.22744 | 101° | 86km/h | 15065m | 5.5m/s | -57.9°C | 6.7% | 0hPa | 2.6V | 00:00:00 | 01:12:40 | 00:00:00 | |
| DO3MHA-12 | 2026-09-05 03:01:22 | 48.26163 | 15.22714 | 100° | 86km/h | 15061m | 3.2m/s | -57.9°C | 6.8% | 0hPa | 2.6V | 00:00:00 | 01:12:39 | 00:00:00 | |
| OM5KV | 2026-09-05 03:01:19 | 48.26169 | 15.22651 | 100° | 88km/h | 15052m | 5.2m/s | -58.0°C | 3.6% | 0hPa | 2.6V | 00:00:00 | 00:00:00 | 00:00:00 | |
| OE3MUC-15 | 2026-09-05 03:01:18 | 48.26176 | 15.22586 | 98° | 86km/h | 15042m | 3.7m/s | -58.1°C | 6.8% | 0hPa | 2.6V | 00:00:00 | 00:00:00 | 00:00:00 | |
| PG1ADW-2 | 2026-09-05 03:01:16 | 48.26182 | 15.22520 | 99° | 89km/h | 15033m | 3.9m/s | -58.3°C | 6.9% | 0hPa | 2.6V | 00:00:00 | 00:00:00 | 08:30:00 | |
| PETON7-10 | 2026-09-05 03:01:14 | 48.26188 | 15.22456 | 99° | 88km/h | 15024m | 3.8m/s | -58.5°C | 7.1% | 0hPa | 2.6V | 00:00:00 | 01:12:31 | 00:00:00 | |
| OE5FHM-15 | 2026-09-05 03:01:13 | 48.26192 | 15.22424 | 100° | 89km/h | 15019m | 5.3m/s | -58.6°C | 7.2% | 0hPa | 2.6V | 00:00:00 | 01:12:30 | 00:00:00 | |
| DO3MHA-12 | 2026-09-05 03:01:12 | 48.26196 | 15.22392 | 102° | 88km/h | 15015m | 3.4m/s | -58.7°C | 7.3% | 0hPa | 2.6V | 00:00:00 | 01:12:29 | 00:00:00 | |
| OE3MUC-15 | 2026-09-05 03:01:10 | 48.26205 | 15.22329 | 103° | 88km/h | 15007m | 4.0m/s | -58.7°C | 7.3% | 0hPa | 2.6V | 00:00:00 | 00:00:00 | 08:30:00 | |
| OE5DRO-10 | 2026-09-05 03:01:08 | 48.26214 | 15.22266 | 102° | 91km/h | 14999m | 5.5m/s | -58.7°C | 7.3% | 0hPa | 2.7V | 00:00:00 | 00:00:00 | 08:30:00 | |
| OM5KV | 2026-09-05 03:01:07 | 48.26214 | 15.22266 | 102° | 88km/h | 14999m | 5.5m/s | -58.7°C | 4.0% | 0hPa | 2.6V | 00:00:00 | 00:00:00 | 00:00:00 | |
| OE3MUC-15 | 2026-09-05 03:01:06 | 48.26223 | 15.22199 | 102° | 91km/h | 14990m | 4.1m/s | -58.7°C | 7.3% | 0hPa | 2.6V | 00:00:00 | 00:00:00 | 00:00:00 | |
| OM5KV | 2026-09-05 03:01:04 | 48.26228 | 15.22165 | 103° | 89km/h | 14986m | 4.5m/s | -58.7°C | 4.0% | 0hPa | 2.6V | 00:00:00 | 00:00:00 | 00:00:00 | |
| OE3MUC-15 | 2026-09-05 03:01:02 | 48.26240 | 15.22064 | 100° | 91km/h | 14973m | 3.6m/s | -58.6°C | 7.4% | 0hPa | 2.6V | 00:00:00 | 00:00:00 | 00:00:00 | |
| OE3OSB-13 | 2026-09-05 03:01:00 | 48.26253 | 15.21963 | 100° | 91km/h | 14960m | 4.1m/s | -58.7°C | 3.8% | -1.0hPa | 2.6V | 00:00:00 | 00:00:00 | 00:00:00 | |
| PETON7-10 | 2026-09-05 03:00:59 | 48.26253 | 15.21962 | 101° | 93km/h | 14960m | 4.0m/s | -58.6°C | 7.4% | 0hPa | 2.6V | 00:00:00 | 00:00:00 | 00:00:00 | |
| OE3MUC-15 | 2026-09-05 03:00:58 | 48.26257 | 15.21928 | 102° | 93km/h | 14956m | 4.0m/s | -58.7°C | 7.4% | 0hPa | 2.7V | 00:00:00 | 00:00:00 | 00:00:00 | |
| PG1ADW-2 | 2026-09-05 03:00:56 | 48.26267 | 15.21860 | 103° | 91km/h | 14947m | 3.8m/s | -58.8°C | 7.5% | 0hPa | 2.7V | 00:00:00 | 01:12:13 | 00:00:00 | |
| OM5KV | 2026-09-05 03:00:55 | 48.26267 | 15.21860 | 103° | 93km/h | 14947m | 3.9m/s | -58.8°C | 4.1% | 0hPa | 2.7V | 00:00:00 | 00:00:00 | 00:00:00 | |
| OE3MUC-15 | 2026-09-05 03:00:54 | 48.26277 | 15.21790 | 103° | 93km/h | 14939m | 4.1m/s | -58.9°C | 7.6% | 0hPa | 2.7V | 00:00:00 | 00:00:00 | 00:00:00 | |
| OE5MMP-10 | 2026-09-05 03:00:53 | 48.26282 | 15.21756 | 103° | 91km/h | 14935m | 4.2m/s | -58.9°C | 7.7% | 0hPa | 2.7V | 00:00:00 | 01:12:10 | 00:00:00 | |
| DO3MHA-12 | 2026-09-05 03:00:52 | 48.26287 | 15.21722 | 101° | 91km/h | 14931m | 3.6m/s | -58.9°C | 7.7% | 0hPa | 2.7V | 00:00:00 | 01:12:09 | 00:00:00 | |
| OE3MUC-15 | 2026-09-05 03:00:50 | 48.26295 | 15.21652 | 98° | 93km/h | 14923m | 3.4m/s | -59.0°C | 7.7% | 0hPa | 2.7V | 00:00:00 | 00:00:00 | 00:00:00 | |
| OE5WHR-10 | 2026-09-05 03:00:49 | 48.26298 | 15.21617 | 98° | 89km/h | 14918m | 4.4m/s | -59.0°C | 7.8% | 0hPa | 2.7V | 00:00:00 | 01:12:06 | 00:00:00 | |
| OE3MUC-15 | 2026-09-05 03:00:46 | 48.26305 | 15.21513 | 95° | 89km/h | 14905m | 4.0m/s | -59.1°C | 7.8% | 0hPa | 2.7V | 00:00:00 | 00:00:00 | 00:00:00 | |
| PETON7-10 | 2026-09-05 03:00:44 | 48.26309 | 15.21446 | 98° | 88km/h | 14896m | 3.4m/s | -59.1°C | 7.9% | 0hPa | 2.6V | 00:00:00 | 00:00:00 | 00:00:00 | |
| OE5MMP-10 | 2026-09-05 03:00:43 | 48.26312 | 15.21413 | 98° | 88km/h | 14893m | 4.2m/s | -59.1°C | 8.0% | 0hPa | 2.6V | 00:00:00 | 01:12:00 | 00:00:00 | |
| DO3MHA-12 | 2026-09-05 03:00:42 | 48.26315 | 15.21380 | 98° | 88km/h | 14888m | 3.8m/s | -59.1°C | 7.9% | 0hPa | 2.6V | 00:00:00 | 01:11:59 | 00:00:00 | |
| OM5KV | 2026-09-05 03:00:40 | 48.26318 | 15.21347 | 99° | 86km/h | 14884m | 5.5m/s | -59.2°C | 4.4% | 0hPa | 2.6V | 00:00:00 | 00:00:00 | 00:00:00 | |
| OM5KV | 2026-09-05 03:00:39 | 48.26321 | 15.21315 | 99° | 86km/h | 14879m | 2.9m/s | -59.2°C | 4.4% | 0hPa | 2.6V | 00:00:00 | 00:00:00 | 00:00:00 | |
| OE3MUC-15 | 2026-09-05 03:00:38 | 48.26327 | 15.21249 | 98° | 88km/h | 14871m | 3.9m/s | -59.1°C | 7.9% | 0hPa | 2.6V | 00:00:00 | 00:00:00 | 00:00:00 | |
| PG1ADW-2 | 2026-09-05 03:00:36 | 48.26333 | 15.21183 | 98° | 89km/h | 14863m | 4.1m/s | -59.1°C | 7.9% | 0hPa | 2.6V | 00:00:00 | 00:00:00 | 00:00:00 | |
| OM5KV | 2026-09-05 03:00:35 | 48.26333 | 15.21183 | 99° | 88km/h | 14863m | 4.1m/s | -59.1°C | 4.4% | 0hPa | 2.6V | 00:00:00 | 00:00:00 | 00:00:00 | |
| OE3MUC-15 | 2026-09-05 03:00:34 | 48.26339 | 15.21117 | 97° | 88km/h | 14854m | 4.4m/s | -59.1°C | 7.9% | 0hPa | 2.6V | 00:00:00 | 00:00:00 | 08:30:00 | |
| OE5MMP-10 | 2026-09-05 03:00:33 | 48.26341 | 15.21083 | 96° | 89km/h | 14850m | 3.9m/s | -59.2°C | 8.0% | 0hPa | 2.6V | 00:00:00 | 01:11:50 | 08:30:00 | |
| DO3MHA-12 | 2026-09-05 03:00:32 | 48.26343 | 15.21049 | 95° | 89km/h | 14845m | 4.4m/s | -59.2°C | 8.1% | 0hPa | 2.6V | 00:00:00 | 01:11:49 | 00:00:00 | |
| OE3MUC-15 | 2026-09-05 03:00:30 | 48.26346 | 15.20983 | 93° | 88km/h | 14838m | 4.6m/s | -59.1°C | 8.0% | 0hPa | 2.6V | 00:00:00 | 00:00:00 | 00:00:00 | |
| PETON7-10 | 2026-09-05 03:00:29 | 48.26347 | 15.20950 | 93° | 91km/h | 14834m | 3.7m/s | -59.1°C | 8.0% | 0hPa | 2.6V | 00:00:00 | 01:11:46 | 00:00:00 | |
| OE5WHR-10 | 2026-09-05 03:00:28 | 48.26348 | 15.20916 | 93° | 89km/h | 14829m | 4.3m/s | -59.1°C | 8.0% | 0hPa | 2.6V | 00:00:00 | 00:00:00 | 00:00:00 | |
| OE3JTB-15 | 2026-09-05 03:00:27 | 48.26349 | 15.20883 | 94° | 89km/h | 14825m | 3.7m/s | -59.0°C | 8.0% | 0hPa | 2.6V | 00:00:00 | 00:00:00 | 00:00:00 | |
| OE8JPQ-2 | 2026-09-05 03:00:26 | 48.26350 | 15.20849 | 94° | 89km/h | 14821m | 5.2m/s | -59.0°C | 8.0% | 0hPa | 2.6V | 00:00:00 | 00:00:00 | 00:00:00 | |
| SP3BTT-10 | 2026-09-05 03:00:24 | 48.26353 | 15.20780 | 95° | 91km/h | 14812m | 4.5m/s | 0°C | 0% | 0hPa | 2.6V | 00:00:00 | 00:00:00 | 00:00:00 | |
| OE5MMP-10 | 2026-09-05 03:00:23 | 48.26355 | 15.20745 | 96° | 91km/h | 14808m | 4.0m/s | -58.9°C | 8.0% | 0hPa | 2.6V | 00:00:00 | 01:11:40 | 00:00:00 | |
| OE3MUC-15 | 2026-09-05 03:00:22 | 48.26358 | 15.20710 | 96° | 93km/h | 14804m | 3.2m/s | -58.9°C | 7.9% | 0hPa | 2.6V | 00:00:00 | 00:00:00 | 00:00:00 | |
| OE3MUC-15 | 2026-09-05 03:00:18 | 48.26366 | 15.20570 | 96° | 89km/h | 14787m | 3.9m/s | -58.9°C | 8.0% | 0hPa | 2.6V | 00:00:00 | 00:00:00 | 00:00:00 | |
| PG1ADW-2 | 2026-09-05 03:00:16 | 48.26369 | 15.20502 | 93° | 89km/h | 14779m | 3.9m/s | -59.0°C | 8.1% | 0hPa | 2.6V | 00:00:00 | 00:00:00 | 00:00:00 | |
| OE5FHM-15 | 2026-09-05 03:00:15 | 48.26370 | 15.20469 | 93° | 89km/h | 14774m | 4.7m/s | -59.0°C | 8.0% | 0hPa | 2.7V | 00:00:00 | 01:11:32 | 00:00:00 | |
| OE3MUC-15 | 2026-09-05 03:00:14 | 48.26371 | 15.20436 | 94° | 88km/h | 14770m | 4.1m/s | -59.0°C | 8.1% | 0hPa | 2.7V | 00:00:00 | 00:00:00 | 00:00:00 | |
| OE5MMP-10 | 2026-09-05 03:00:13 | 48.26373 | 15.20403 | 94° | 89km/h | 14766m | 3.4m/s | -59.0°C | 8.0% | 0hPa | 2.7V | 00:00:00 | 01:11:30 | 00:00:00 | |
| S52SK | 2026-09-05 03:00:12 | 48.26374 | 15.20370 | 94° | 89km/h | 14762m | 4.6m/s | -59.0°C | 4.5% | 0hPa | 2.7V | 00:00:00 | 00:00:00 | 00:00:00 | |
| OE5DRO-10 | 2026-09-05 03:00:11 | 48.26375 | 15.20336 | 94° | 89km/h | 14758m | 3.5m/s | -58.9°C | 8.0% | 0hPa | 2.7V | 00:00:00 | 00:00:00 | 00:00:00 | |
| OE3MUC-15 | 2026-09-05 03:00:10 | 48.26377 | 15.20303 | 95° | 88km/h | 14753m | 5.3m/s | -58.9°C | 8.0% | 0hPa | 2.6V | 00:00:00 | 00:00:00 | 00:00:00 | |
| OE5WHR-10 | 2026-09-05 03:00:07 | 48.26382 | 15.20203 | 94° | 91km/h | 14740m | 4.1m/s | -58.8°C | 8.0% | 0hPa | 2.7V | 00:00:00 | 00:00:00 | 00:00:00 | |
| OE3MUC-15 | 2026-09-05 03:00:06 | 48.26383 | 15.20168 | 94° | 91km/h | 14736m | 4.6m/s | -58.8°C | 8.0% | 0hPa | 2.7V | 00:00:00 | 00:00:00 | 00:00:00 | |
| DO3MHA-12 | 2026-09-05 03:00:02 | 48.26388 | 15.20032 | 92° | 89km/h | 14720m | 4.6m/s | -58.7°C | 7.9% | 0hPa | 2.7V | 00:00:00 | 01:11:19 | 08:30:00 | |
| OE3OSB-13 | 2026-09-05 02:59:57 | 48.26391 | 15.19829 | 89° | 88km/h | 14693m | 4.7m/s | -58.6°C | 4.2% | -1.0hPa | 2.6V | 00:00:00 | 00:00:00 | 00:00:00 | |
| PG1ADW-2 | 2026-09-05 02:59:56 | 48.26391 | 15.19829 | 90° | 91km/h | 14693m | 4.7m/s | -58.5°C | 7.9% | 0hPa | 2.6V | 00:00:00 | 00:00:00 | 00:00:00 | |
| OM5KV | 2026-09-05 02:59:55 | 48.26391 | 15.19829 | 91° | 88km/h | 14693m | 4.7m/s | -58.6°C | 4.4% | 0hPa | 2.6V | 00:00:00 | 00:00:00 | 00:00:00 | |
| OE3MUC-15 | 2026-09-05 02:59:54 | 48.26390 | 15.19762 | 89° | 91km/h | 14683m | 5.3m/s | -58.5°C | 7.9% | 0hPa | 2.6V | 00:00:00 | 00:00:00 | 00:00:00 | |
| OE5MMP-10 | 2026-09-05 02:59:53 | 48.26390 | 15.19727 | 90° | 93km/h | 14679m | 4.0m/s | -58.4°C | 7.8% | 0hPa | 2.6V | 00:00:00 | 01:11:10 | 00:00:00 | |
| DO3MHA-12 | 2026-09-05 02:59:52 | 48.26389 | 15.19693 | 91° | 93km/h | 14674m | 5.3m/s | -58.4°C | 7.9% | 0hPa | 2.6V | 00:00:00 | 01:11:09 | 00:00:00 | |
| OM5KV | 2026-09-05 02:59:50 | 48.26390 | 15.19659 | 93° | 89km/h | 14669m | 3.3m/s | -58.4°C | 4.5% | 0hPa | 2.6V | 00:00:00 | 00:00:00 | 00:00:00 | |
| OE3MUC-15 | 2026-09-05 02:59:49 | 48.26392 | 15.19590 | 92° | 95km/h | 14661m | 4.4m/s | -58.4°C | 7.9% | 0hPa | 2.6V | 00:00:00 | 00:00:00 | 00:00:00 | |
| OM5KV | 2026-09-05 02:59:47 | 48.26393 | 15.19554 | 93° | 95km/h | 14656m | 4.4m/s | -58.4°C | 4.5% | 0hPa | 2.6V | 00:00:00 | 00:00:00 | 00:00:00 | |
| OE8JPQ-2 | 2026-09-05 02:59:46 | 48.26395 | 15.19483 | 95° | 91km/h | 14647m | 3.0m/s | -58.3°C | 7.9% | 0hPa | 2.6V | 00:00:00 | 01:11:03 | 00:00:00 | |
| OE5FHM-15 | 2026-09-05 02:59:45 | 48.26397 | 15.19447 | 95° | 91km/h | 14643m | 5.3m/s | -58.3°C | 7.9% | 0hPa | 2.6V | 00:00:00 | 01:11:02 | 08:30:00 | |
| PETON7-10 | 2026-09-05 02:59:44 | 48.26399 | 15.19411 | 94° | 91km/h | 14638m | 3.8m/s | -58.3°C | 7.9% | 0hPa | 2.7V | 00:00:00 | 01:11:01 | 00:00:00 | |
| OE5MMP-10 | 2026-09-05 02:59:43 | 48.26400 | 15.19376 | 94° | 89km/h | 14633m | 5.6m/s | -58.3°C | 7.9% | 0hPa | 2.7V | 00:00:00 | 01:11:00 | 00:00:00 | |
| DO3MHA-12 | 2026-09-05 02:59:42 | 48.26401 | 15.19342 | 93° | 91km/h | 14629m | 3.5m/s | -58.3°C | 8.0% | 0hPa | 2.7V | 00:00:00 | 01:10:59 | 00:00:00 | |
| OK1ALN | 2026-09-05 02:59:40 | 48.26402 | 15.19308 | 92° | 89km/h | 14624m | 5.3m/s | -58.3°C | 4.5% | 0hPa | 2.7V | 00:00:00 | 00:00:00 | 00:00:00 | |
| OM5KV | 2026-09-05 02:59:38 | 48.26402 | 15.19240 | 90° | 88km/h | 14615m | 4.3m/s | -58.2°C | 4.6% | 0hPa | 2.7V | 00:00:00 | 00:00:00 | 00:00:00 | |
| PG1ADW-2 | 2026-09-05 02:59:36 | 48.26401 | 15.19139 | 90° | 91km/h | 14601m | 4.4m/s | -58.1°C | 8.0% | 0hPa | 2.7V | 00:00:00 | 01:10:53 | 00:00:00 | |
| OE5MMP-10 | 2026-09-05 02:59:33 | 48.26400 | 15.19034 | 89° | 93km/h | 14587m | 4.1m/s | -58.0°C | 7.9% | 0hPa | 2.7V | 00:00:00 | 01:10:50 | 00:00:00 | |
| DO3MHA-12 | 2026-09-05 02:59:32 | 48.26400 | 15.18998 | 89° | 91km/h | 14582m | 5.1m/s | -57.9°C | 7.9% | 0hPa | 2.7V | 00:00:00 | 01:10:49 | 00:00:00 | |
| OE5DXL-15 | 2026-09-05 02:59:30 | 48.26398 | 15.18927 | 88° | 95km/h | 14573m | 5.1m/s | -57.9°C | 7.9% | 0hPa | 2.6V | 00:00:00 | 00:00:00 | 00:00:00 | |
| PETON7-10 | 2026-09-05 02:59:29 | 48.26397 | 15.18892 | 87° | 91km/h | 14568m | 3.7m/s | -57.8°C | 7.9% | 0hPa | 2.6V | 00:00:00 | 00:00:00 | 00:00:00 | |
| OM5KV | 2026-09-05 02:59:27 | 48.26395 | 15.18856 | 88° | 93km/h | 14564m | 5.3m/s | -57.8°C | 4.5% | 0hPa | 2.7V | 00:00:00 | 00:00:00 | 00:00:00 | |
| OE8JPQ-2 | 2026-09-05 02:59:26 | 48.26393 | 15.18788 | 88° | 93km/h | 14554m | 5.0m/s | -57.7°C | 7.7% | 0hPa | 2.7V | 00:00:00 | 00:00:00 | 00:00:00 | |
| OE5WHR-10 | 2026-09-05 02:59:25 | 48.26392 | 15.18753 | 88° | 93km/h | 14549m | 5.0m/s | -57.8°C | 7.6% | 0hPa | 2.7V | 00:00:00 | 00:00:00 | 08:30:00 | |
| OE5MMP-10 | 2026-09-05 02:59:23 | 48.26390 | 15.18685 | 89° | 91km/h | 14538m | 5.3m/s | -57.8°C | 7.6% | 0hPa | 2.6V | 00:00:00 | 01:10:40 | 00:00:00 | |
| DO3MHA-12 | 2026-09-05 02:59:22 | 48.26390 | 15.18652 | 90° | 91km/h | 14533m | 4.2m/s | -57.8°C | 7.6% | 0hPa | 2.6V | 00:00:00 | 01:10:39 | 00:00:00 | |
| OM5KV | 2026-09-05 02:59:20 | 48.26390 | 15.18618 | 89° | 89km/h | 14528m | 6.3m/s | -57.8°C | 4.3% | 0hPa | 2.6V | 00:00:00 | 00:00:00 | 00:00:00 | |
| PG1ADW-2 | 2026-09-05 02:59:16 | 48.26387 | 15.18446 | 90° | 99km/h | 14501m | 5.5m/s | -57.9°C | 7.6% | 0hPa | 2.6V | 00:00:00 | 00:00:00 | 00:00:00 | |
| OE5FHM-15 | 2026-09-05 02:59:15 | 48.26387 | 15.18410 | 91° | 100km/h | 14496m | 5.1m/s | -58.0°C | 7.7% | 0hPa | 2.7V | 00:00:00 | 01:10:32 | 00:00:00 | |
| PETON7-10 | 2026-09-05 02:59:14 | 48.26388 | 15.18375 | 91° | 99km/h | 14491m | 5.0m/s | -58.1°C | 7.8% | 0hPa | 2.7V | 00:00:00 | 00:00:00 | 00:00:00 | |
| OE5MMP-10 | 2026-09-05 02:59:13 | 48.26388 | 15.18339 | 91° | 99km/h | 14486m | 3.6m/s | -58.1°C | 7.8% | 0hPa | 2.7V | 00:00:00 | 01:10:30 | 00:00:00 | |
| DO3MHA-12 | 2026-09-05 02:59:12 | 48.26388 | 15.18303 | 91° | 99km/h | 14482m | 5.3m/s | -58.0°C | 7.7% | 0hPa | 2.7V | 00:00:00 | 01:10:29 | 00:00:00 | |
| OM5KV | 2026-09-05 02:59:11 | 48.26388 | 15.18303 | 92° | 97km/h | 14482m | 5.4m/s | -58.1°C | 4.5% | 0hPa | 2.7V | 00:00:00 | 00:00:00 | 00:00:00 | |
| OE3MUC-15 | 2026-09-05 02:59:10 | 48.26389 | 15.18230 | 91° | 99km/h | 14472m | 5.0m/s | -58.2°C | 7.8% | 0hPa | 2.7V | 00:00:00 | 00:00:00 | 00:00:00 | |
| OM5KV | 2026-09-05 02:59:08 | 48.26390 | 15.18194 | 92° | 97km/h | 14468m | 4.1m/s | -58.7°C | 4.7% | 0hPa | 2.7V | 00:00:00 | 00:00:00 | 00:00:00 | |
| OE3MUC-15 | 2026-09-05 02:59:06 | 48.26390 | 15.18081 | 91° | 100km/h | 14454m | 5.2m/s | -58.8°C | 8.3% | 0hPa | 2.7V | 00:00:00 | 00:00:00 | 08:30:00 | |
| OE5WHR-10 | 2026-09-05 02:59:04 | 48.26391 | 15.18006 | 91° | 104km/h | 14445m | 5.3m/s | -58.9°C | 8.3% | 0hPa | 2.6V | 00:00:00 | 00:00:00 | 00:00:00 | |
| OE5MMP-10 | 2026-09-05 02:59:03 | 48.26391 | 15.17968 | 91° | 102km/h | 14440m | 4.3m/s | -58.9°C | 8.4% | 0hPa | 2.6V | 00:00:00 | 01:10:20 | 08:30:00 | |
| OE3MUC-15 | 2026-09-05 02:59:02 | 48.26391 | 15.17930 | 91° | 100km/h | 14435m | 5.3m/s | -58.9°C | 8.3% | 0hPa | 2.7V | 00:00:00 | 00:00:00 | 00:00:00 | |
| OE5DXL-15 | 2026-09-05 02:59:00 | 48.26392 | 15.17853 | 92° | 106km/h | 14425m | 5.6m/s | -58.9°C | 8.4% | 0hPa | 2.7V | 00:00:00 | 00:00:00 | 08:30:00 | |
| PETON7-10 | 2026-09-05 02:58:59 | 48.26392 | 15.17815 | 92° | 106km/h | 14420m | 4.0m/s | -58.9°C | 8.4% | 0hPa | 2.7V | 00:00:00 | 01:10:16 | 00:00:00 | |
| OE3MUC-15 | 2026-09-05 02:58:58 | 48.26393 | 15.17777 | 92° | 102km/h | 14415m | 5.4m/s | -58.9°C | 8.5% | 0hPa | 2.7V | 00:00:00 | 00:00:00 | 00:00:00 | |
| PG1ADW-2 | 2026-09-05 02:58:56 | 48.26394 | 15.17701 | 92° | 106km/h | 14405m | 5.3m/s | -59.0°C | 8.6% | 0hPa | 2.7V | 00:00:00 | 00:00:00 | 00:00:00 | |
| OE5DRO-10 | 2026-09-05 02:58:55 | 48.26395 | 15.17662 | 93° | 106km/h | 14401m | 3.4m/s | -59.2°C | 8.8% | 0hPa | 2.7V | 00:00:00 | 00:00:00 | 00:00:00 | |
| OE3MUC-15 | 2026-09-05 02:58:54 | 48.26396 | 15.17623 | 93° | 104km/h | 14396m | 5.6m/s | -59.3°C | 8.9% | 0hPa | 2.7V | 00:00:00 | 00:00:00 | 00:00:00 | |
| OE5MMP-10 | 2026-09-05 02:58:53 | 48.26397 | 15.17584 | 92° | 108km/h | 14391m | 3.6m/s | -59.4°C | 9.0% | 0hPa | 2.6V | 00:00:00 | 01:10:10 | 00:00:00 | |
| DO3MHA-12 | 2026-09-05 02:58:52 | 48.26398 | 15.17545 | 91° | 108km/h | 14387m | 5.4m/s | -59.4°C | 9.0% | 0hPa | 2.6V | 00:00:00 | 01:10:09 | 00:00:00 | |
| S52SK | 2026-09-05 02:58:51 | 48.26398 | 15.17545 | 92° | 104km/h | 14387m | 5.4m/s | -59.4°C | 5.4% | 0hPa | 2.6V | 00:00:00 | 00:00:00 | 00:00:00 | |
| OE3MUC-15 | 2026-09-05 02:58:50 | 48.26398 | 15.17465 | 90° | 108km/h | 14377m | 4.6m/s | -59.4°C | 9.1% | 0hPa | 2.6V | 00:00:00 | 00:00:00 | 00:00:00 | |
| OM5KV | 2026-09-05 02:58:48 | 48.26397 | 15.17424 | 90° | 108km/h | 14372m | 4.9m/s | -59.5°C | 5.5% | 0hPa | 2.6V | 00:00:00 | 00:00:00 | 00:00:00 | |
| OE8JPQ-2 | 2026-09-05 02:58:46 | 48.26396 | 15.17300 | 90° | 108km/h | 14359m | 3.6m/s | -59.5°C | 9.3% | 0hPa | 2.6V | 00:00:00 | 01:10:03 | 00:00:00 | |
| OE5FHM-15 | 2026-09-05 02:58:45 | 48.26395 | 15.17258 | 90° | 106km/h | 14354m | 4.9m/s | -59.5°C | 9.2% | 0hPa | 2.6V | 00:00:00 | 01:10:02 | 00:00:00 | |
| PETON7-10 | 2026-09-05 02:58:44 | 48.26395 | 15.17217 | 89° | 108km/h | 14349m | 5.0m/s | -59.5°C | 9.2% | 0hPa | 2.6V | 00:00:00 | 00:00:00 | 00:00:00 | |
| OE5MMP-10 | 2026-09-05 02:58:43 | 48.26394 | 15.17177 | 89° | 108km/h | 14344m | 4.5m/s | -59.4°C | 9.2% | 0hPa | 2.7V | 00:00:00 | 01:10:00 | 00:00:00 | |
| DO3MHA-12 | 2026-09-05 02:58:42 | 48.26394 | 15.17136 | 89° | 108km/h | 14339m | 4.7m/s | -59.4°C | 9.2% | 0hPa | 2.7V | 00:00:00 | 01:09:59 | 00:00:00 | |
| OM5KV | 2026-09-05 02:58:41 | 48.26394 | 15.17136 | 90° | 108km/h | 14339m | 4.7m/s | -59.5°C | 5.5% | 0hPa | 2.7V | 00:00:00 | 00:00:00 | 00:00:00 | |
| OE3MUC-15 | 2026-09-05 02:58:38 | 48.26390 | 15.16975 | 88° | 108km/h | 14319m | 4.0m/s | -59.3°C | 9.3% | 0hPa | 2.7V | 00:00:00 | 00:00:00 | 00:00:00 | |
| PG1ADW-2 | 2026-09-05 02:58:36 | 48.26388 | 15.16895 | 89° | 106km/h | 14309m | 3.9m/s | -59.2°C | 9.3% | 0hPa | 2.7V | 00:00:00 | 00:00:00 | 00:00:00 | |
| OE3MUC-15 | 2026-09-05 02:58:34 | 48.26387 | 15.16812 | 89° | 108km/h | 14300m | 3.5m/s | -59.2°C | 9.3% | 0hPa | 2.7V | 00:00:00 | 00:00:00 | 00:00:00 | |
| DO3MHA-12 | 2026-09-05 02:58:32 | 48.26385 | 15.16731 | 88° | 106km/h | 14291m | 4.1m/s | -59.1°C | 9.3% | 0hPa | 2.7V | 00:00:00 | 01:09:49 | 08:30:00 | |
| OE3JTB-15 | 2026-09-05 02:58:31 | 48.26384 | 15.16691 | 88° | 106km/h | 14286m | 5.3m/s | -59.1°C | 9.2% | 0hPa | 2.6V | 00:00:00 | 01:09:48 | 00:00:00 | |
| OE3MUC-15 | 2026-09-05 02:58:30 | 48.26383 | 15.16651 | 88° | 106km/h | 14281m | 4.8m/s | -59.0°C | 9.3% | 0hPa | 2.6V | 00:00:00 | 01:09:47 | 08:30:00 | |
| PETON7-10 | 2026-09-05 02:58:29 | 48.26382 | 15.16610 | 89° | 106km/h | 14276m | 4.6m/s | -59.0°C | 9.2% | 0hPa | 2.7V | 00:00:00 | 00:00:00 | 00:00:00 | |
| OE8JPQ-2 | 2026-09-05 02:58:26 | 48.26380 | 15.16492 | 89° | 106km/h | 14261m | 5.5m/s | -58.9°C | 9.3% | 0hPa | 2.7V | 00:00:00 | 00:00:00 | 08:30:00 | |
| OM5KV | 2026-09-05 02:58:25 | 48.26380 | 15.16492 | 90° | 106km/h | 14261m | 5.6m/s | -59.0°C | 5.7% | 0hPa | 2.7V | 00:00:00 | 00:00:00 | 00:00:00 | |
| OE3OSB-13 | 2026-09-05 02:58:24 | 48.26379 | 15.16371 | 88° | 106km/h | 14246m | 3.6m/s | -58.9°C | 5.5% | -1.0hPa | 2.7V | 00:00:00 | 00:00:00 | 00:00:00 | |
| OE5MMP-10 | 2026-09-05 02:58:23 | 48.26379 | 15.16371 | 89° | 106km/h | 14246m | 3.5m/s | -58.8°C | 9.4% | 0hPa | 2.7V | 00:00:00 | 01:09:40 | 00:00:00 | |
| OE3MUC-15 | 2026-09-05 02:58:22 | 48.26378 | 15.16330 | 89° | 108km/h | 14242m | 5.6m/s | -58.8°C | 9.3% | 0hPa | 2.7V | 00:00:00 | 00:00:00 | 00:00:00 | |
| OM5KV | 2026-09-05 02:58:20 | 48.26377 | 15.16288 | 89° | 108km/h | 14237m | 4.4m/s | -58.8°C | 5.7% | 0hPa | 2.7V | 00:00:00 | 00:00:00 | 00:00:00 | |
| OM5KV | 2026-09-05 02:58:19 | 48.26376 | 15.16248 | 88° | 106km/h | 14231m | 5.6m/s | -58.8°C | 5.7% | 0hPa | 2.7V | 00:00:00 | 00:00:00 | 00:00:00 | |
| OE3MUC-15 | 2026-09-05 02:58:18 | 48.26373 | 15.16167 | 86° | 104km/h | 14221m | 4.9m/s | -58.8°C | 9.3% | 0hPa | 2.7V | 00:00:00 | 00:00:00 | 00:00:00 | |
| OE5DRO-10 | 2026-09-05 02:58:17 | 48.26371 | 15.16127 | 86° | 104km/h | 14216m | 5.0m/s | -58.8°C | 9.3% | 0hPa | 2.7V | 00:00:00 | 00:00:00 | 08:30:00 | |
| PG1ADW-2 | 2026-09-05 02:58:16 | 48.26369 | 15.16088 | 85° | 104km/h | 14211m | 4.9m/s | -58.8°C | 9.5% | 0hPa | 2.6V | 00:00:00 | 01:09:33 | 08:30:00 | |
| OM5KV | 2026-09-05 02:58:15 | 48.26369 | 15.16088 | 86° | 102km/h | 14211m | 4.9m/s | -58.9°C | 5.8% | 0hPa | 2.7V | 00:00:00 | 00:00:00 | 00:00:00 | |
| PETON7-10 | 2026-09-05 02:58:14 | 48.26364 | 15.16010 | 85° | 104km/h | 14201m | 4.4m/s | -58.8°C | 9.5% | 0hPa | 2.7V | 00:00:00 | 01:09:31 | 00:00:00 | |
| OE5FHM-15 | 2026-09-05 02:58:13 | 48.26362 | 15.15970 | 86° | 110km/h | 14196m | 5.2m/s | -58.8°C | 9.4% | 0hPa | 2.7V | 00:00:00 | 01:09:30 | 00:00:00 | |
| DO3MHA-12 | 2026-09-05 02:58:12 | 48.26360 | 15.15932 | 86° | 106km/h | 14191m | 5.0m/s | -58.7°C | 9.4% | 0hPa | 2.7V | 00:00:00 | 01:09:29 | 00:00:00 | |
| OE3MUC-15 | 2026-09-05 02:58:10 | 48.26356 | 15.15853 | 87° | 106km/h | 14181m | 4.8m/s | -58.7°C | 9.5% | 0hPa | 2.7V | 00:00:00 | 00:00:00 | 00:00:00 | |
| OM5KV | 2026-09-05 02:58:07 | 48.26353 | 15.15773 | 89° | 106km/h | 14171m | 5.3m/s | -58.9°C | 5.9% | 0hPa | 2.7V | 00:00:00 | 00:00:00 | 00:00:00 | |
| OE3MUC-15 | 2026-09-05 02:58:06 | 48.26351 | 15.15693 | 88° | 106km/h | 14161m | 5.0m/s | -58.8°C | 9.7% | 0hPa | 2.7V | 00:00:00 | 00:00:00 | 00:00:00 | |
| OE5MMP-10 | 2026-09-05 02:58:03 | 48.26349 | 15.15572 | 88° | 104km/h | 14145m | 5.4m/s | -58.8°C | 9.7% | 0hPa | 2.7V | 00:00:00 | 01:09:20 | 00:00:00 | |
| DO3MHA-12 | 2026-09-05 02:58:02 | 48.26347 | 15.15532 | 87° | 106km/h | 14140m | 4.5m/s | -58.8°C | 9.8% | 0hPa | 2.6V | 00:00:00 | 01:09:19 | 00:00:00 | |
| OE5WHR-10 | 2026-09-05 02:58:01 | 48.26345 | 15.15493 | 87° | 110km/h | 14136m | 4.9m/s | -58.8°C | 9.8% | 0hPa | 2.7V | 00:00:00 | 00:00:00 | 00:00:00 | |
| OE5DXL-15 | 2026-09-05 02:58:00 | 48.26344 | 15.15454 | 87° | 110km/h | 14131m | 4.4m/s | -58.9°C | 9.9% | 0hPa | 2.7V | 00:00:00 | 00:00:00 | 00:00:00 | |
| PETON7-10 | 2026-09-05 02:57:59 | 48.26342 | 15.15416 | 87° | 111km/h | 14126m | 5.7m/s | -59.0°C | 9.9% | 0hPa | 2.7V | 00:00:00 | 00:00:00 | 08:30:00 | |
| OE3MUC-15 | 2026-09-05 02:57:58 | 48.26341 | 15.15376 | 87° | 106km/h | 14121m | 4.2m/s | -59.1°C | 10.1% | 0hPa | 2.7V | 00:00:00 | 00:00:00 | 00:00:00 | |
| PG1ADW-2 | 2026-09-05 02:57:56 | 48.26339 | 15.15297 | 90° | 111km/h | 14110m | 4.3m/s | -59.3°C | 10.5% | 0hPa | 2.7V | 00:00:00 | 00:00:00 | 00:00:00 | |
| OE3MUC-15 | 2026-09-05 02:57:54 | 48.26338 | 15.15216 | 91° | 111km/h | 14099m | 4.8m/s | -59.2°C | 10.6% | 0hPa | 2.7V | 00:00:00 | 00:00:00 | 08:30:00 | |
| OE5MMP-10 | 2026-09-05 02:57:53 | 48.26339 | 15.15175 | 91° | 113km/h | 14094m | 6.1m/s | -59.2°C | 10.6% | 0hPa | 2.7V | 00:00:00 | 01:09:10 | 00:00:00 | |
| DO3MHA-12 | 2026-09-05 02:57:52 | 48.26339 | 15.15133 | 92° | 113km/h | 14089m | 3.4m/s | -59.2°C | 10.7% | 0hPa | 2.7V | 00:00:00 | 01:09:09 | 00:00:00 | |
| OM5KV | 2026-09-05 02:57:51 | 48.26339 | 15.15133 | 92° | 113km/h | 14089m | 3.4m/s | -59.2°C | 6.8% | 0hPa | 2.7V | 00:00:00 | 00:00:00 | 00:00:00 | |
| OE3MUC-15 | 2026-09-05 02:57:50 | 48.26340 | 15.15046 | 91° | 115km/h | 14080m | 3.8m/s | -59.1°C | 10.8% | 0hPa | 2.7V | 00:00:00 | 00:00:00 | 00:00:00 | |
| OE8JPQ-2 | 2026-09-05 02:57:46 | 48.26341 | 15.14873 | 90° | 110km/h | 14061m | 5.0m/s | -59.0°C | 10.9% | 0hPa | 2.7V | 00:00:00 | 01:09:03 | 00:00:00 | |
| OE3MUC-15 | 2026-09-05 02:57:45 | 48.26341 | 15.14829 | 90° | 111km/h | 14056m | 4.4m/s | -59.1°C | 10.9% | 0hPa | 2.7V | 00:00:00 | 00:00:00 | 00:00:00 | |
| PETON7-10 | 2026-09-05 02:57:44 | 48.26340 | 15.14786 | 89° | 108km/h | 14051m | 6.3m/s | -59.0°C | 10.9% | 0hPa | 2.7V | 00:00:00 | 00:00:00 | 00:00:00 | |
| OE5MMP-10 | 2026-09-05 02:57:43 | 48.26340 | 15.14744 | 89° | 108km/h | 14045m | 4.3m/s | -59.0°C | 11.0% | 0hPa | 2.7V | 00:00:00 | 01:09:00 | 00:00:00 | |
| DO3MHA-12 | 2026-09-05 02:57:42 | 48.26339 | 15.14702 | 88° | 108km/h | 14040m | 6.6m/s | -59.0°C | 10.9% | 0hPa | 2.7V | 00:00:00 | 01:08:59 | 00:00:00 | |
| OE5WHR-10 | 2026-09-05 02:57:40 | 48.26336 | 15.14619 | 88° | 108km/h | 14029m | 6.9m/s | -58.9°C | 11.0% | 0hPa | 2.7V | 00:00:00 | 01:08:57 | 00:00:00 | |
| OE5DRO-10 | 2026-09-05 02:57:39 | 48.26335 | 15.14578 | 88° | 108km/h | 14023m | 4.0m/s | -58.9°C | 11.2% | 0hPa | 2.7V | 00:00:00 | 00:00:00 | 00:00:00 | |
| PG1ADW-2 | 2026-09-05 02:57:36 | 48.26330 | 15.14455 | 87° | 106km/h | 14008m | 4.8m/s | -58.8°C | 11.1% | 0hPa | 2.7V | 00:00:00 | 00:00:00 | 00:00:00 | |
| S52SK | 2026-09-05 02:57:34 | 48.26328 | 15.14415 | 87° | 106km/h | 14003m | 5.8m/s | -58.8°C | 7.4% | 0hPa | 2.7V | 00:00:00 | 00:00:00 | 00:00:00 | |
| OE5MMP-10 | 2026-09-05 02:57:33 | 48.26323 | 15.14335 | 84° | 108km/h | 13994m | 5.9m/s | -58.8°C | 11.1% | 0hPa | 2.7V | 00:00:00 | 01:08:50 | 08:30:00 | |
| DO3MHA-12 | 2026-09-05 02:57:32 | 48.26319 | 15.14295 | 83° | 108km/h | 13989m | 4.4m/s | -59.0°C | 11.3% | 0hPa | 2.7V | 00:00:00 | 01:08:49 | 00:00:00 | |
| OE5DXL-15 | 2026-09-05 02:57:30 | 48.26312 | 15.14215 | 84° | 110km/h | 13979m | 4.0m/s | -59.3°C | 11.8% | 0hPa | 2.7V | 00:00:00 | 00:00:00 | 00:00:00 | |
| PETON7-10 | 2026-09-05 02:57:29 | 48.26309 | 15.14174 | 84° | 106km/h | 13974m | 4.7m/s | -59.3°C | 11.8% | 0hPa | 2.7V | 00:00:00 | 01:08:46 | 00:00:00 | |
| OE8JPQ-2 | 2026-09-05 02:57:26 | 48.26301 | 15.14050 | 85° | 108km/h | 13961m | 4.6m/s | -59.2°C | 12.0% | 0hPa | 2.7V | 00:00:00 | 00:00:00 | 00:00:00 | |
| OE5MMP-10 | 2026-09-05 02:57:23 | 48.26292 | 15.13930 | 84° | 106km/h | 13946m | 5.8m/s | -59.3°C | 12.3% | 0hPa | 2.7V | 00:00:00 | 01:08:40 | 00:00:00 | |
| DO3MHA-12 | 2026-09-05 02:57:22 | 48.26289 | 15.13891 | 84° | 106km/h | 13941m | 3.6m/s | -59.4°C | 12.5% | 0hPa | 2.7V | 00:00:00 | 01:08:39 | 00:00:00 | |
| OE5DRO-10 | 2026-09-05 02:57:20 | 48.26282 | 15.13813 | 82° | 111km/h | 13932m | 4.3m/s | -59.4°C | 12.7% | 0hPa | 2.7V | 00:00:00 | 00:00:00 | 00:00:00 | |
| OE5WHR-10 | 2026-09-05 02:57:19 | 48.26279 | 15.13773 | 83° | 111km/h | 13928m | 3.8m/s | -59.4°C | 12.7% | 0hPa | 2.7V | 00:00:00 | 00:00:00 | 00:00:00 | |
| OE3MUC-15 | 2026-09-05 02:57:16 | 48.26268 | 15.13655 | 83° | 108km/h | 13914m | 5.4m/s | -59.7°C | 12.8% | 0hPa | 2.7V | 00:00:00 | 00:00:00 | 00:00:00 | |
| PETON7-10 | 2026-09-05 02:57:14 | 48.26262 | 15.13574 | 85° | 113km/h | 13904m | 6.5m/s | -60.3°C | 13.7% | 0hPa | 2.7V | 00:00:00 | 00:00:00 | 00:00:00 | |
| OE5MMP-10 | 2026-09-05 02:57:13 | 48.26259 | 15.13532 | 86° | 113km/h | 13899m | 4.5m/s | -60.5°C | 14.2% | 0hPa | 2.7V | 00:00:00 | 01:08:30 | 00:00:00 | |
| OE3MUC-15 | 2026-09-05 02:57:12 | 48.26257 | 15.13491 | 85° | 110km/h | 13893m | 6.1m/s | -60.6°C | 14.3% | 0hPa | 2.7V | 00:00:00 | 00:00:00 | 08:30:00 | |
| OE3MUC-15 | 2026-09-05 02:57:08 | 48.26248 | 15.13325 | 87° | 115km/h | 13875m | 3.4m/s | -60.8°C | 14.9% | 0hPa | 2.7V | 00:00:00 | 00:00:00 | 00:00:00 | |
| OE3MUC-15 | 2026-09-05 02:57:04 | 48.26240 | 15.13149 | 86° | 119km/h | 13855m | 4.2m/s | -61.0°C | 15.6% | 0hPa | 2.7V | 00:00:00 | 00:00:00 | 00:00:00 | |
| OE5MMP-10 | 2026-09-05 02:57:03 | 48.26238 | 15.13105 | 85° | 117km/h | 13850m | 5.6m/s | -61.1°C | 15.7% | 0hPa | 2.7V | 00:00:00 | 01:08:20 | 00:00:00 | |
| DO3MHA-12 | 2026-09-05 02:57:02 | 48.26236 | 15.13060 | 86° | 117km/h | 13845m | 3.8m/s | -61.1°C | 16.0% | 0hPa | 2.7V | 00:00:00 | 01:08:19 | 08:30:00 | |
| OM5KV | 2026-09-05 02:57:01 | 48.26236 | 15.13060 | 86° | 119km/h | 13845m | 3.9m/s | -61.2°C | 11.3% | 0hPa | 2.7V | 00:00:00 | 00:00:00 | 00:00:00 | |
| OE3OSB-13 | 2026-09-05 02:56:51 | 48.26216 | 15.12533 | 86° | 113km/h | 13790m | 5.6m/s | -61.3°C | 11.8% | -1.0hPa | 2.7V | 00:00:00 | 00:00:00 | 00:00:00 | |
| OE3MUC-15 | 2026-09-05 02:56:48 | 48.26212 | 15.12446 | 88° | 111km/h | 13781m | 5.1m/s | -61.4°C | 17.4% | 0hPa | 2.7V | 00:00:00 | 00:00:00 | 00:00:00 | |
| OM5KV | 2026-09-05 02:56:46 | 48.26210 | 15.12361 | 88° | 110km/h | 13771m | 4.7m/s | -61.4°C | 12.8% | 0hPa | 2.7V | 00:00:00 | 00:00:00 | 00:00:00 | |
| OM5KV | 2026-09-05 02:56:45 | 48.26210 | 15.12361 | 88° | 110km/h | 13771m | 4.7m/s | -61.4°C | 12.8% | 0hPa | 2.7V | 00:00:00 | 00:00:00 | 00:00:00 | |
| PETON7-10 | 2026-09-05 02:56:44 | 48.26206 | 15.12278 | 87° | 111km/h | 13763m | 4.7m/s | -61.4°C | 18.2% | 0hPa | 2.7V | 00:00:00 | 01:08:01 | 00:00:00 | |
| OE5MMP-10 | 2026-09-05 02:56:43 | 48.26205 | 15.12236 | 87° | 111km/h | 13759m | 3.3m/s | -61.4°C | 18.2% | 0hPa | 2.7V | 00:00:00 | 01:08:00 | 00:00:00 | |
| DO3MHA-12 | 2026-09-05 02:56:42 | 48.26203 | 15.12195 | 87° | 111km/h | 13754m | 4.9m/s | -61.4°C | 18.3% | 0hPa | 2.7V | 00:00:00 | 01:07:59 | 00:00:00 | |
| OE3MUC-15 | 2026-09-05 02:56:40 | 48.26199 | 15.12112 | 86° | 111km/h | 13745m | 5.5m/s | -61.5°C | 18.7% | 0hPa | 2.7V | 00:00:00 | 00:00:00 | 00:00:00 | |
| OM5KV | 2026-09-05 02:56:39 | 48.26199 | 15.12112 | 87° | 111km/h | 13745m | 5.5m/s | -61.5°C | 13.5% | 0hPa | 2.7V | 00:00:00 | 00:00:00 | 00:00:00 | |
| OE5WHR-10 | 2026-09-05 02:56:37 | 48.26193 | 15.11986 | 87° | 113km/h | 13731m | 2.9m/s | -61.7°C | 19.4% | 0hPa | 2.7V | 00:00:00 | 01:07:54 | 00:00:00 | |
| OE3MUC-15 | 2026-09-05 02:56:36 | 48.26191 | 15.11943 | 87° | 113km/h | 13726m | 5.9m/s | -61.8°C | 19.7% | 0hPa | 2.7V | 00:00:00 | 00:00:00 | 08:30:00 | |
| OE3JTB-15 | 2026-09-05 02:56:35 | 48.26189 | 15.11900 | 87° | 115km/h | 13721m | 3.5m/s | -61.8°C | 19.8% | 0hPa | 2.7V | 00:00:00 | 00:00:00 | 00:00:00 | |
| OE5MMP-10 | 2026-09-05 02:56:33 | 48.26184 | 15.11815 | 86° | 113km/h | 13713m | 3.0m/s | -61.8°C | 19.8% | 0hPa | 2.7V | 00:00:00 | 01:07:50 | 00:00:00 | |
| DO3MHA-12 | 2026-09-05 02:56:32 | 48.26183 | 15.11772 | 87° | 113km/h | 13709m | 4.8m/s | -61.7°C | 19.7% | 0hPa | 2.7V | 00:00:00 | 01:07:49 | 00:00:00 | |
| OE5DXL-15 | 2026-09-05 02:56:30 | 48.26179 | 15.11687 | 87° | 117km/h | 13699m | 4.0m/s | -61.7°C | 19.9% | 0hPa | 2.7V | 00:00:00 | 00:00:00 | 00:00:00 | |
| PETON7-10 | 2026-09-05 02:56:29 | 48.26178 | 15.11645 | 88° | 115km/h | 13695m | 5.1m/s | -61.7°C | 19.9% | 0hPa | 2.7V | 00:00:00 | 00:00:00 | 00:00:00 | |
| OE3MUC-15 | 2026-09-05 02:56:28 | 48.26177 | 15.11602 | 89° | 113km/h | 13690m | 3.8m/s | -61.6°C | 20.1% | 0hPa | 2.7V | 00:00:00 | 00:00:00 | 00:00:00 | |
| OE5FHM-15 | 2026-09-05 02:56:27 | 48.26176 | 15.11558 | 89° | 117km/h | 13686m | 5.0m/s | -61.6°C | 20.2% | 0hPa | 2.7V | 00:00:00 | 01:07:44 | 00:00:00 | |
| OE8JPQ-2 | 2026-09-05 02:56:26 | 48.26175 | 15.11516 | 89° | 115km/h | 13682m | 3.1m/s | -61.6°C | 20.3% | 0hPa | 2.7V | 00:00:00 | 00:00:00 | 00:00:00 | |
| OM5KV | 2026-09-05 02:56:25 | 48.26175 | 15.11516 | 90° | 113km/h | 13682m | 3.2m/s | -61.6°C | 14.9% | 0hPa | 2.7V | 00:00:00 | 00:00:00 | 00:00:00 | |
| OE3MUC-15 | 2026-09-05 02:56:24 | 48.26174 | 15.11429 | 89° | 115km/h | 13674m | 4.0m/s | -61.5°C | 20.2% | 0hPa | 2.7V | 00:00:00 | 00:00:00 | 00:00:00 | |
| OE5MMP-10 | 2026-09-05 02:56:23 | 48.26173 | 15.11385 | 89° | 115km/h | 13669m | 4.5m/s | -61.5°C | 20.0% | 0hPa | 2.7V | 00:00:00 | 01:07:40 | 00:00:00 | |
| DO3MHA-12 | 2026-09-05 02:56:22 | 48.26172 | 15.11342 | 89° | 115km/h | 13664m | 4.8m/s | -61.5°C | 20.3% | 0hPa | 2.7V | 00:00:00 | 01:07:39 | 00:00:00 | |
| OE3MUC-15 | 2026-09-05 02:56:20 | 48.26171 | 15.11256 | 89° | 115km/h | 13656m | 5.3m/s | -61.4°C | 20.3% | 0hPa | 2.7V | 00:00:00 | 00:00:00 | 00:00:00 | |
| OM5KV | 2026-09-05 02:56:18 | 48.26171 | 15.11213 | 91° | 115km/h | 13652m | 3.5m/s | -61.5°C | 15.1% | 0hPa | 2.7V | 00:00:00 | 00:00:00 | 00:00:00 | |
| OM5KV | 2026-09-05 02:56:17 | 48.26171 | 15.11127 | 92° | 115km/h | 13643m | 4.1m/s | -61.4°C | 15.2% | 0hPa | 2.7V | 00:00:00 | 00:00:00 | 00:00:00 | |
| PG1ADW-2 | 2026-09-05 02:56:16 | 48.26171 | 15.11083 | 91° | 119km/h | 13638m | 5.6m/s | -61.4°C | 20.8% | 0hPa | 2.7V | 00:00:00 | 00:00:00 | 00:00:00 | |
| S52SK | 2026-09-05 02:56:15 | 48.26171 | 15.11083 | 92° | 117km/h | 13638m | 5.7m/s | -61.4°C | 15.5% | 0hPa | 2.7V | 00:00:00 | 00:00:00 | 00:00:00 | |
| PETON7-10 | 2026-09-05 02:56:14 | 48.26172 | 15.10995 | 91° | 119km/h | 13628m | 3.9m/s | -61.3°C | 20.9% | 0hPa | 2.7V | 00:00:00 | 00:00:00 | 00:00:00 | |
| OE5MMP-10 | 2026-09-05 02:56:13 | 48.26172 | 15.10951 | 90° | 117km/h | 13625m | 3.4m/s | -61.4°C | 21.2% | 0hPa | 2.7V | 00:00:00 | 01:07:30 | 00:00:00 | |
| OE3MUC-15 | 2026-09-05 02:56:12 | 48.26172 | 15.10906 | 90° | 115km/h | 13620m | 5.7m/s | -61.4°C | 21.5% | 0hPa | 2.7V | 00:00:00 | 00:00:00 | 00:00:00 | |
| OM5KV | 2026-09-05 02:56:09 | 48.26171 | 15.10819 | 89° | 113km/h | 13611m | 6.1m/s | -61.4°C | 16.3% | 0hPa | 2.7V | 00:00:00 | 00:00:00 | 00:00:00 | |
| OE3MUC-15 | 2026-09-05 02:56:08 | 48.26169 | 15.10732 | 89° | 119km/h | 13603m | 5.4m/s | -61.3°C | 21.8% | 0hPa | 2.7V | 00:00:00 | 00:00:00 | 00:00:00 | |
| OE8JPQ-2 | 2026-09-05 02:56:06 | 48.26167 | 15.10643 | 88° | 120km/h | 13593m | 4.8m/s | -61.3°C | 22.0% | 0hPa | 2.7V | 00:00:00 | 00:00:00 | 00:00:00 | |
| OE3MUC-15 | 2026-09-05 02:56:04 | 48.26164 | 15.10553 | 88° | 122km/h | 13583m | 5.6m/s | -61.5°C | 22.7% | 0hPa | 2.7V | 00:00:00 | 00:00:00 | 00:00:00 | |
| OE5MMP-10 | 2026-09-05 02:56:03 | 48.26163 | 15.10506 | 89° | 122km/h | 13579m | 3.7m/s | -61.6°C | 23.2% | 0hPa | 2.7V | 00:00:00 | 01:07:20 | 08:30:00 | |
| DO3MHA-12 | 2026-09-05 02:56:02 | 48.26162 | 15.10460 | 88° | 122km/h | 13574m | 5.6m/s | -61.6°C | 23.5% | 0hPa | 2.7V | 00:00:00 | 01:07:19 | 00:00:00 | |
| OM5KV | 2026-09-05 02:56:01 | 48.26162 | 15.10460 | 89° | 122km/h | 13574m | 5.6m/s | -61.7°C | 17.9% | 0hPa | 2.7V | 00:00:00 | 00:00:00 | 00:00:00 | |
| OE3OSB-13 | 2026-09-05 02:55:49 | 48.26150 | 15.09816 | 88° | 117km/h | 13512m | 3.8m/s | -62.4°C | 19.9% | -1.0hPa | 2.7V | 00:00:00 | 00:00:00 | 00:00:00 | |
| OE8JPQ-2 | 2026-09-05 02:55:46 | 48.26147 | 15.09727 | 87° | 117km/h | 13504m | 4.2m/s | -62.3°C | 26.0% | 0hPa | 2.7V | 00:00:00 | 01:07:03 | 00:00:00 | |
| OE5DRO-10 | 2026-09-05 02:55:45 | 48.26145 | 15.09683 | 87° | 117km/h | 13499m | 4.7m/s | -62.3°C | 25.8% | 0hPa | 2.7V | 00:00:00 | 00:00:00 | 00:00:00 | |
| PETON7-10 | 2026-09-05 02:55:44 | 48.26144 | 15.09638 | 87° | 117km/h | 13495m | 3.7m/s | -62.2°C | 25.8% | 0hPa | 2.7V | 00:00:00 | 00:00:00 | 08:30:00 | |
| OE5MMP-10 | 2026-09-05 02:55:43 | 48.26142 | 15.09593 | 87° | 117km/h | 13490m | 4.9m/s | -62.2°C | 25.8% | 0hPa | 2.7V | 00:00:00 | 01:07:00 | 00:00:00 | |
| DO3MHA-12 | 2026-09-05 02:55:42 | 48.26140 | 15.09548 | 87° | 117km/h | 13486m | 4.1m/s | -62.2°C | 25.9% | 0hPa | 2.7V | 00:00:00 | 01:06:59 | 00:00:00 | |
| OM5KV | 2026-09-05 02:55:39 | 48.26137 | 15.09459 | 89° | 119km/h | 13478m | 4.6m/s | -62.2°C | 19.8% | 0hPa | 2.7V | 00:00:00 | 00:00:00 | 00:00:00 | |
| OE3JTB-15 | 2026-09-05 02:55:37 | 48.26134 | 15.09326 | 89° | 119km/h | 13464m | 5.3m/s | -62.6°C | 26.2% | 0hPa | 2.7V | 00:00:00 | 01:06:54 | 00:00:00 | |
| PG1ADW-2 | 2026-09-05 02:55:36 | 48.26133 | 15.09282 | 89° | 117km/h | 13460m | 3.6m/s | -62.8°C | 26.5% | 0hPa | 2.7V | 00:00:00 | 01:06:53 | 00:00:00 | |
| OE5WHR-10 | 2026-09-05 02:55:34 | 48.26131 | 15.09194 | 89° | 117km/h | 13450m | 3.8m/s | -62.9°C | 26.5% | 0hPa | 2.7V | 00:00:00 | 01:06:51 | 00:00:00 | |
| OE5MMP-10 | 2026-09-05 02:55:33 | 48.26130 | 15.09151 | 89° | 115km/h | 13446m | 5.0m/s | -62.9°C | 26.6% | 0hPa | 2.7V | 00:00:00 | 01:06:50 | 00:00:00 | |
| DO3MHA-12 | 2026-09-05 02:55:32 | 48.26129 | 15.09107 | 88° | 115km/h | 13441m | 3.5m/s | -62.9°C | 26.6% | 0hPa | 2.7V | 00:00:00 | 01:06:49 | 08:30:00 | |
| PETON7-10 | 2026-09-05 02:55:29 | 48.26126 | 15.08978 | 89° | 119km/h | 13429m | 4.7m/s | -63.0°C | 26.7% | 0hPa | 2.7V | 00:00:00 | 00:00:00 | 00:00:00 | |
| OM5KV | 2026-09-05 02:55:28 | 48.26126 | 15.08978 | 89° | 115km/h | 13429m | 4.8m/s | -63.0°C | 20.4% | 0hPa | 2.7V | 00:00:00 | 00:00:00 | 00:00:00 | |
| OE5FHM-15 | 2026-09-05 02:55:27 | 48.26124 | 15.08891 | 89° | 122km/h | 13421m | 4.4m/s | -63.0°C | 26.7% | 0hPa | 2.7V | 00:00:00 | 01:06:44 | 00:00:00 | |
| OE8JPQ-2 | 2026-09-05 02:55:26 | 48.26123 | 15.08848 | 89° | 120km/h | 13417m | 4.1m/s | -63.0°C | 26.7% | 0hPa | 2.7V | 00:00:00 | 00:00:00 | 08:30:00 | |
| OE5MMP-10 | 2026-09-05 02:55:23 | 48.26122 | 15.08717 | 89° | 120km/h | 13404m | 4.3m/s | -62.9°C | 27.0% | 0hPa | 2.7V | 00:00:00 | 01:06:40 | 00:00:00 | |
| DO3MHA-12 | 2026-09-05 02:55:22 | 48.26121 | 15.08673 | 89° | 120km/h | 13400m | 4.4m/s | -62.8°C | 27.3% | 0hPa | 2.7V | 00:00:00 | 01:06:39 | 00:00:00 | |
| OE3OSB-13 | 2026-09-05 02:55:18 | 48.26111 | 15.08446 | 84° | 122km/h | 13378m | 5.6m/s | -62.7°C | 21.1% | -1.0hPa | 2.7V | 00:00:00 | 00:00:00 | 00:00:00 | |
| OE3MUC-15 | 2026-09-05 02:55:16 | 48.26109 | 15.08399 | 86° | 124km/h | 13373m | 3.5m/s | -62.6°C | 28.0% | 0hPa | 2.7V | 00:00:00 | 00:00:00 | 00:00:00 | |
| PETON7-10 | 2026-09-05 02:55:14 | 48.26104 | 15.08307 | 87° | 124km/h | 13364m | 3.7m/s | -62.6°C | 27.9% | 0hPa | 2.7V | 00:00:00 | 01:06:31 | 00:00:00 | |
| OE5WHR-10 | 2026-09-05 02:55:13 | 48.26102 | 15.08261 | 88° | 126km/h | 13359m | 5.5m/s | -62.5°C | 27.8% | 0hPa | 2.7V | 00:00:00 | 00:00:00 | 00:00:00 | |
| DO3MHA-12 | 2026-09-05 02:55:12 | 48.26101 | 15.08215 | 89° | 124km/h | 13355m | 4.1m/s | -62.5°C | 28.0% | 0hPa | 2.7V | 00:00:00 | 01:06:29 | 00:00:00 | |
| OM5KV | 2026-09-05 02:55:11 | 48.26101 | 15.08215 | 89° | 122km/h | 13355m | 4.1m/s | -62.6°C | 21.6% | 0hPa | 2.7V | 00:00:00 | 00:00:00 | 00:00:00 | |
| OE3JTB-15 | 2026-09-05 02:55:08 | 48.26097 | 15.08028 | 88° | 126km/h | 13335m | 3.8m/s | -62.4°C | 28.4% | 0hPa | 2.7V | 00:00:00 | 00:00:00 | 00:00:00 | |
| OE5DRO-10 | 2026-09-05 02:55:07 | 48.26095 | 15.07981 | 87° | 128km/h | 13330m | 5.7m/s | -62.3°C | 28.4% | 0hPa | 2.7V | 00:00:00 | 00:00:00 | 00:00:00 | |
| OE8JPQ-2 | 2026-09-05 02:55:06 | 48.26092 | 15.07934 | 86° | 128km/h | 13325m | 4.0m/s | -62.3°C | 28.4% | 0hPa | 2.7V | 00:00:00 | 00:00:00 | 00:00:00 | |
| OM5KV | 2026-09-05 02:55:05 | 48.26092 | 15.07934 | 86° | 126km/h | 13325m | 4.1m/s | -62.4°C | 22.1% | 0hPa | 2.7V | 00:00:00 | 00:00:00 | 00:00:00 | |
| S52SK | 2026-09-05 02:55:04 | 48.26090 | 15.07886 | 86° | 126km/h | 13320m | 6.1m/s | -62.4°C | 22.2% | 0hPa | 2.7V | 00:00:00 | 00:00:00 | 00:00:00 | |
| OE5MMP-10 | 2026-09-05 02:55:03 | 48.26083 | 15.07792 | 85° | 128km/h | 13309m | 5.2m/s | -62.3°C | 29.1% | 0hPa | 2.7V | 00:00:00 | 01:06:20 | 00:00:00 | |
| DO3MHA-12 | 2026-09-05 02:55:02 | 48.26080 | 15.07745 | 86° | 128km/h | 13305m | 3.2m/s | -62.3°C | 29.1% | 0hPa | 2.7V | 00:00:00 | 01:06:19 | 00:00:00 | |
| OE5DXL-15 | 2026-09-05 02:55:00 | 48.26076 | 15.07649 | 87° | 126km/h | 13297m | 4.3m/s | -62.4°C | 29.2% | 0hPa | 2.7V | 00:00:00 | 00:00:00 | 00:00:00 | |
| PETON7-10 | 2026-09-05 02:54:59 | 48.26073 | 15.07601 | 86° | 128km/h | 13292m | 4.3m/s | -62.3°C | 29.0% | 0hPa | 2.7V | 00:00:00 | 00:00:00 | 00:00:00 | |
| S52SK | 2026-09-05 02:54:58 | 48.26073 | 15.07601 | 86° | 128km/h | 13292m | 4.4m/s | -62.4°C | 22.8% | 0hPa | 2.7V | 00:00:00 | 00:00:00 | 00:00:00 | |
| OE5FHM-15 | 2026-09-05 02:54:57 | 48.26067 | 15.07504 | 85° | 126km/h | 13283m | 4.4m/s | -62.2°C | 29.1% | 0hPa | 2.7V | 00:00:00 | 01:06:14 | 00:00:00 | |
| PG1ADW-2 | 2026-09-05 02:54:56 | 48.26064 | 15.07455 | 85° | 128km/h | 13278m | 6.1m/s | -62.2°C | 29.2% | 0hPa | 2.7V | 00:00:00 | 00:00:00 | 00:00:00 | |
| DB0NH | 2026-09-05 02:54:54 | 48.26058 | 15.07358 | 85° | 126km/h | 13267m | 5.7m/s | -62.1°C | 29.5% | 0hPa | 2.7V | 00:00:00 | 01:06:11 | 00:00:00 | |
| OE5MMP-10 | 2026-09-05 02:54:53 | 48.26055 | 15.07310 | 85° | 128km/h | 13263m | 3.4m/s | -62.1°C | 29.6% | 0hPa | 2.7V | 00:00:00 | 01:06:10 | 00:00:00 | |
| DO3MHA-12 | 2026-09-05 02:54:52 | 48.26052 | 15.07262 | 86° | 128km/h | 13258m | 6.5m/s | -62.0°C | 29.5% | 0hPa | 2.7V | 00:00:00 | 01:06:09 | 00:00:00 | |
| OE5DRO-10 | 2026-09-05 02:54:48 | 48.26040 | 15.07070 | 84° | 126km/h | 13238m | 4.9m/s | -61.9°C | 30.1% | 0hPa | 2.7V | 00:00:00 | 00:00:00 | 00:00:00 | |
| OE8JPQ-2 | 2026-09-05 02:54:46 | 48.26032 | 15.06973 | 83° | 126km/h | 13230m | 3.2m/s | -62.0°C | 30.6% | 0hPa | 2.7V | 00:00:00 | 01:06:03 | 00:00:00 | |
| PETON7-10 | 2026-09-05 02:54:44 | 48.26024 | 15.06878 | 82° | 126km/h | 13220m | 4.2m/s | -62.0°C | 31.1% | 0hPa | 2.7V | 00:00:00 | 00:00:00 | 00:00:00 | |
| OE5MMP-10 | 2026-09-05 02:54:43 | 48.26019 | 15.06831 | 83° | 126km/h | 13216m | 5.8m/s | -62.0°C | 31.1% | 0hPa | 2.7V | 00:00:00 | 01:06:00 | 00:00:00 | |
| DO3MHA-12 | 2026-09-05 02:54:42 | 48.26015 | 15.06784 | 82° | 126km/h | 13211m | 3.9m/s | -62.0°C | 31.2% | 0hPa | 2.7V | 00:00:00 | 01:05:59 | 00:00:00 | |
| OE3MUC-15 | 2026-09-05 02:54:39 | 48.26001 | 15.06642 | 82° | 128km/h | 13196m | 5.9m/s | -61.9°C | 31.7% | 0hPa | 2.7V | 00:00:00 | 00:00:00 | 00:00:00 | |
| OM5KV | 2026-09-05 02:54:38 | 48.26001 | 15.06642 | 83° | 128km/h | 13196m | 6.0m/s | -62.0°C | 25.2% | 0hPa | 2.7V | 00:00:00 | 00:00:00 | 00:00:00 | |
| PG1ADW-2 | 2026-09-05 02:54:36 | 48.25988 | 15.06499 | 84° | 124km/h | 13181m | 3.6m/s | -61.9°C | 32.8% | 0hPa | 2.7V | 00:00:00 | 00:00:00 | 00:00:00 | |
| OE3MUC-15 | 2026-09-05 02:54:35 | 48.25984 | 15.06452 | 85° | 124km/h | 13177m | 5.4m/s | -61.9°C | 32.8% | 0hPa | 2.7V | 00:00:00 | 00:00:00 | 00:00:00 | |
| OE5MMP-10 | 2026-09-05 02:54:33 | 48.25978 | 15.06359 | 84° | 124km/h | 13167m | 5.5m/s | -61.9°C | 33.4% | 0hPa | 2.7V | 00:00:00 | 01:05:50 | 08:30:00 | |
| DO3MHA-12 | 2026-09-05 02:54:32 | 48.25974 | 15.06313 | 83° | 124km/h | 13162m | 3.7m/s | -61.9°C | 33.6% | 0hPa | 2.7V | 00:00:00 | 01:05:49 | 00:00:00 | |
| OE5WHR-10 | 2026-09-05 02:54:31 | 48.25970 | 15.06266 | 84° | 124km/h | 13158m | 5.5m/s | -61.8°C | 33.6% | 0hPa | 2.7V | 00:00:00 | 01:05:48 | 00:00:00 | |
| OE5DXL-15 | 2026-09-05 02:54:30 | 48.25967 | 15.06219 | 85° | 124km/h | 13152m | 4.7m/s | -61.9°C | 33.9% | 0hPa | 2.7V | 00:00:00 | 00:00:00 | 08:30:00 | |
| PETON7-10 | 2026-09-05 02:54:29 | 48.25964 | 15.06172 | 84° | 124km/h | 13147m | 5.7m/s | -61.9°C | 34.1% | 0hPa | 2.7V | 00:00:00 | 01:05:46 | 00:00:00 | |
| OE5FHM-15 | 2026-09-05 02:54:27 | 48.25956 | 15.06079 | 84° | 122km/h | 13137m | 5.7m/s | -61.9°C | 34.7% | 0hPa | 2.7V | 00:00:00 | 01:05:44 | 00:00:00 | |
| OE8JPQ-2 | 2026-09-05 02:54:26 | 48.25953 | 15.06031 | 85° | 122km/h | 13132m | 4.9m/s | -61.9°C | 35.3% | 0hPa | 2.7V | 00:00:00 | 00:00:00 | 00:00:00 | |
| DB0NH | 2026-09-05 02:54:24 | 48.25946 | 15.05937 | 83° | 122km/h | 13121m | 3.5m/s | -61.9°C | 35.8% | 0hPa | 2.7V | 00:00:00 | 01:05:41 | 00:00:00 | |
| OE5MMP-10 | 2026-09-05 02:54:23 | 48.25942 | 15.05890 | 84° | 124km/h | 13116m | 6.0m/s | -61.9°C | 35.7% | 0hPa | 2.7V | 00:00:00 | 01:05:40 | 00:00:00 | |
| DO3MHA-12 | 2026-09-05 02:54:22 | 48.25939 | 15.05842 | 84° | 124km/h | 13111m | 5.2m/s | -61.8°C | 36.3% | 0hPa | 2.7V | 00:00:00 | 01:05:39 | 00:00:00 | |
| OE3MUC-15 | 2026-09-05 02:54:21 | 48.25935 | 15.05795 | 83° | 124km/h | 13105m | 5.8m/s | -61.8°C | 36.2% | 0hPa | 2.7V | 00:00:00 | 00:00:00 | 00:00:00 | |
| OM5KV | 2026-09-05 02:54:20 | 48.25935 | 15.05795 | 84° | 124km/h | 13105m | 5.9m/s | -61.9°C | 29.3% | 0hPa | 2.7V | 00:00:00 | 00:00:00 | 00:00:00 | |
| OM5KV | 2026-09-05 02:54:18 | 48.25927 | 15.05703 | 84° | 122km/h | 13095m | 6.2m/s | -61.8°C | 29.8% | 0hPa | 2.7V | 00:00:00 | 00:00:00 | 00:00:00 | |
| PG1ADW-2 | 2026-09-05 02:54:16 | 48.25917 | 15.05563 | 84° | 122km/h | 13079m | 6.0m/s | -61.7°C | 37.6% | 0hPa | 2.7V | 00:00:00 | 01:05:33 | 00:00:00 | |
| OE3OSB-13 | 2026-09-05 02:54:15 | 48.25914 | 15.05517 | 84° | 124km/h | 13074m | 4.9m/s | -61.7°C | 30.4% | -1.0hPa | 2.7V | 00:00:00 | 00:00:00 | 00:00:00 | |
| PETON7-10 | 2026-09-05 02:54:14 | 48.25911 | 15.05469 | 86° | 122km/h | 13068m | 5.8m/s | -61.6°C | 38.1% | 0hPa | 2.7V | 00:00:00 | 00:00:00 | 00:00:00 | |
| OE5MMP-10 | 2026-09-05 02:54:13 | 48.25908 | 15.05422 | 85° | 122km/h | 13063m | 4.3m/s | -61.6°C | 38.2% | 0hPa | 2.7V | 00:00:00 | 01:05:30 | 00:00:00 | |
| DO3MHA-12 | 2026-09-05 02:54:12 | 48.25905 | 15.05375 | 85° | 122km/h | 13058m | 5.7m/s | -61.6°C | 38.5% | 0hPa | 2.7V | 00:00:00 | 01:05:29 | 00:00:00 | |
| OM5KV | 2026-09-05 02:54:11 | 48.25905 | 15.05375 | 85° | 126km/h | 13058m | 5.8m/s | -61.7°C | 31.5% | 0hPa | 2.7V | 00:00:00 | 00:00:00 | 00:00:00 | |
| OE5WHR-10 | 2026-09-05 02:54:10 | 48.25899 | 15.05279 | 85° | 119km/h | 13047m | 6.2m/s | -61.6°C | 39.0% | 0hPa | 2.7V | 00:00:00 | 00:00:00 | 00:00:00 | |
| OE3MUC-15 | 2026-09-05 02:54:08 | 48.25892 | 15.05185 | 83° | 120km/h | 13036m | 6.0m/s | -61.6°C | 39.9% | 0hPa | 2.7V | 00:00:00 | 00:00:00 | 00:00:00 | |
| OM5KV | 2026-09-05 02:54:04 | 48.25876 | 15.05005 | 83° | 119km/h | 13015m | 6.2m/s | -61.7°C | 33.3% | 0hPa | 2.7V | 00:00:00 | 00:00:00 | 00:00:00 | |
| OE5MMP-10 | 2026-09-05 02:54:03 | 48.25871 | 15.04961 | 83° | 119km/h | 13010m | 4.6m/s | -61.7°C | 41.0% | 0hPa | 2.7V | 00:00:00 | 01:05:20 | 00:00:00 | |
| DO3MHA-12 | 2026-09-05 02:54:02 | 48.25868 | 15.04917 | 83° | 117km/h | 13004m | 6.0m/s | -61.7°C | 40.8% | 0hPa | 2.7V | 00:00:00 | 01:05:19 | 08:30:00 | |
| OE5DXL-15 | 2026-09-05 02:54:00 | 48.25860 | 15.04827 | 83° | 113km/h | 12994m | 6.4m/s | -61.7°C | 41.2% | 0hPa | 2.7V | 00:00:00 | 00:00:00 | 00:00:00 | |
| PETON7-10 | 2026-09-05 02:53:59 | 48.25856 | 15.04782 | 83° | 117km/h | 12988m | 4.6m/s | -61.6°C | 41.6% | 0hPa | 2.7V | 00:00:00 | 00:00:00 | 00:00:00 | |
| OE5FHM-15 | 2026-09-05 02:53:57 | 48.25849 | 15.04693 | 84° | 113km/h | 12977m | 4.7m/s | -61.6°C | 42.0% | 0hPa | 2.7V | 00:00:00 | 01:05:14 | 08:30:00 | |
| OE3MUC-15 | 2026-09-05 02:53:56 | 48.25846 | 15.04649 | 83° | 115km/h | 12971m | 6.5m/s | -61.5°C | 42.1% | 0hPa | 2.7V | 00:00:00 | 00:00:00 | 00:00:00 | |
| OE5MMP-10 | 2026-09-05 02:53:53 | 48.25836 | 15.04519 | 84° | 115km/h | 12954m | 4.7m/s | -61.4°C | 42.9% | 0hPa | 2.7V | 00:00:00 | 01:05:10 | 00:00:00 | |
| DO3MHA-12 | 2026-09-05 02:53:52 | 48.25833 | 15.04475 | 84° | 115km/h | 12949m | 6.3m/s | -61.3°C | 43.3% | 0hPa | 2.7V | 00:00:00 | 01:05:09 | 00:00:00 | |
| OE5DRO-10 | 2026-09-05 02:53:51 | 48.25830 | 15.04432 | 84° | 113km/h | 12943m | 4.4m/s | -61.3°C | 43.5% | 0hPa | 2.7V | 00:00:00 | 00:00:00 | 00:00:00 | |
| OE5WHR-10 | 2026-09-05 02:53:49 | 48.25824 | 15.04345 | 84° | 111km/h | 12933m | 4.7m/s | -61.3°C | 44.3% | 0hPa | 2.7V | 00:00:00 | 00:00:00 | 00:00:00 | |
| OE3MUC-15 | 2026-09-05 02:53:48 | 48.25821 | 15.04301 | 84° | 115km/h | 12928m | 5.4m/s | -61.3°C | 45.0% | 0hPa | 2.7V | 00:00:00 | 00:00:00 | 00:00:00 | |
| OE8JPQ-2 | 2026-09-05 02:53:47 | 48.25817 | 15.04258 | 84° | 111km/h | 12922m | 5.6m/s | -61.4°C | 45.5% | 0hPa | 2.7V | 00:00:00 | 00:00:00 | 00:00:00 | |
| OM5KV | 2026-09-05 02:53:45 | 48.25814 | 15.04215 | 85° | 115km/h | 12917m | 5.0m/s | -61.6°C | 39.3% | 0hPa | 2.7V | 00:00:00 | 00:00:00 | 00:00:00 | |
| PETON7-10 | 2026-09-05 02:53:44 | 48.25808 | 15.04128 | 83° | 111km/h | 12906m | 4.9m/s | -61.6°C | 47.4% | 0hPa | 2.7V | 00:00:00 | 01:05:01 | 00:00:00 | |
| OE5MMP-10 | 2026-09-05 02:53:43 | 48.25804 | 15.04085 | 84° | 111km/h | 12901m | 6.3m/s | -61.6°C | 47.4% | 0hPa | 2.7V | 00:00:00 | 01:05:00 | 00:00:00 | |
| DO3MHA-12 | 2026-09-05 02:53:42 | 48.25801 | 15.04042 | 84° | 111km/h | 12895m | 4.6m/s | -61.6°C | 47.8% | 0hPa | 2.7V | 00:00:00 | 01:04:59 | 00:00:00 | |
| OE3JTB-15 | 2026-09-05 02:53:41 | 48.25797 | 15.03999 | 83° | 108km/h | 12890m | 6.2m/s | -61.6°C | 48.1% | 0hPa | 2.7V | 00:00:00 | 00:00:00 | 08:30:00 | |
| OM5KV | 2026-09-05 02:53:40 | 48.25797 | 15.03999 | 83° | 113km/h | 12890m | 6.2m/s | -61.7°C | 40.3% | 0hPa | 2.7V | 00:00:00 | 00:00:00 | 00:00:00 | |
| OM5KV | 2026-09-05 02:53:39 | 48.25794 | 15.03957 | 84° | 111km/h | 12884m | 4.8m/s | -61.7°C | 40.7% | 0hPa | 2.7V | 00:00:00 | 00:00:00 | 00:00:00 | |
| OE5MMP-10 | 2026-09-05 02:53:33 | 48.25776 | 15.03664 | 86° | 106km/h | 12847m | 5.0m/s | -61.7°C | 50.7% | 0hPa | 2.7V | 00:00:00 | 01:04:50 | 00:00:00 | |
| DO3MHA-12 | 2026-09-05 02:53:32 | 48.25774 | 15.03623 | 87° | 106km/h | 12841m | 5.9m/s | -61.6°C | 50.4% | 0hPa | 2.7V | 00:00:00 | 01:04:49 | 00:00:00 | |
| OE5DXL-15 | 2026-09-05 02:53:30 | 48.25771 | 15.03543 | 87° | 104km/h | 12830m | 6.0m/s | -61.6°C | 50.5% | 0hPa | 2.7V | 00:00:00 | 00:00:00 | 00:00:00 | |
| PETON7-10 | 2026-09-05 02:53:29 | 48.25769 | 15.03503 | 86° | 106km/h | 12824m | 5.1m/s | -61.6°C | 51.0% | 0hPa | 2.7V | 00:00:00 | 00:00:00 | 08:30:00 | |
| OE5WHR-10 | 2026-09-05 02:53:28 | 48.25767 | 15.03462 | 87° | 104km/h | 12819m | 5.8m/s | -61.6°C | 51.0% | 0hPa | 2.7V | 00:00:00 | 01:04:45 | 00:00:00 | |
| OE5FHM-15 | 2026-09-05 02:53:27 | 48.25766 | 15.03422 | 88° | 104km/h | 12813m | 5.0m/s | -61.6°C | 51.6% | 0hPa | 2.7V | 00:00:00 | 01:04:44 | 00:00:00 | |
| DB0NH | 2026-09-05 02:53:23 | 48.25759 | 15.03262 | 87° | 102km/h | 12792m | 5.1m/s | -61.4°C | 51.5% | 0hPa | 2.7V | 00:00:00 | 01:04:40 | 00:00:00 | |
| OM5KV | 2026-09-05 02:53:21 | 48.25758 | 15.03221 | 87° | 108km/h | 12786m | 6.5m/s | -61.4°C | 43.3% | 0hPa | 2.7V | 00:00:00 | 00:00:00 | 00:00:00 | |
| OE3MUC-15 | 2026-09-05 02:53:20 | 48.25754 | 15.03140 | 88° | 106km/h | 12774m | 6.4m/s | -61.3°C | 51.5% | 0hPa | 2.7V | 00:00:00 | 00:00:00 | 00:00:00 | |
| OE3MUC-15 | 2026-09-05 02:53:16 | 48.25749 | 15.02981 | 88° | 102km/h | 12753m | 6.5m/s | -61.1°C | 51.6% | 0hPa | 2.7V | 00:00:00 | 00:00:00 | 00:00:00 | |
| PETON7-10 | 2026-09-05 02:53:14 | 48.25746 | 15.02903 | 87° | 102km/h | 12742m | 6.6m/s | -61.0°C | 51.6% | 0hPa | 2.7V | 00:00:00 | 00:00:00 | 00:00:00 | |
| OE5MMP-10 | 2026-09-05 02:53:13 | 48.25745 | 15.02864 | 88° | 104km/h | 12736m | 4.5m/s | -61.0°C | 51.8% | 0hPa | 2.7V | 00:00:00 | 01:04:30 | 00:00:00 | |
| DO3MHA-12 | 2026-09-05 02:53:12 | 48.25744 | 15.02825 | 88° | 104km/h | 12731m | 5.9m/s | -60.9°C | 51.7% | 0hPa | 2.7V | 00:00:00 | 01:04:29 | 00:00:00 | |
| OM5KV | 2026-09-05 02:53:09 | 48.25741 | 15.02748 | 87° | 102km/h | 12721m | 5.9m/s | -60.9°C | 44.2% | 0hPa | 2.7V | 00:00:00 | 00:00:00 | 00:00:00 | |
| OE3MUC-15 | 2026-09-05 02:53:08 | 48.25738 | 15.02670 | 88° | 104km/h | 12710m | 5.8m/s | -60.8°C | 52.0% | 0hPa | 2.7V | 00:00:00 | 00:00:00 | 00:00:00 | |
| OE8JPQ-2 | 2026-09-05 02:53:07 | 48.25737 | 15.02630 | 88° | 102km/h | 12704m | 5.9m/s | -60.7°C | 52.0% | 0hPa | 2.7V | 00:00:00 | 00:00:00 | 00:00:00 | |
| OE3MUC-15 | 2026-09-05 02:53:04 | 48.25734 | 15.02512 | 89° | 100km/h | 12688m | 5.2m/s | -60.6°C | 52.3% | 0hPa | 2.7V | 00:00:00 | 00:00:00 | 08:30:00 | |
| OE5MMP-10 | 2026-09-05 02:53:03 | 48.25733 | 15.02473 | 88° | 102km/h | 12683m | 5.6m/s | -60.6°C | 51.9% | 0hPa | 2.7V | 00:00:00 | 01:04:20 | 08:30:00 | |
| DO3MHA-12 | 2026-09-05 02:53:02 | 48.25732 | 15.02434 | 87° | 102km/h | 12677m | 5.4m/s | -60.6°C | 52.3% | 0hPa | 2.7V | 00:00:00 | 01:04:19 | 00:00:00 | |
| OE5DXL-15 | 2026-09-05 02:53:00 | 48.25729 | 15.02358 | 87° | 104km/h | 12665m | 5.1m/s | -60.6°C | 52.4% | 0hPa | 2.7V | 00:00:00 | 00:00:00 | 00:00:00 | |
| PETON7-10 | 2026-09-05 02:52:59 | 48.25727 | 15.02321 | 86° | 104km/h | 12660m | 5.9m/s | -60.6°C | 52.5% | 0hPa | 2.7V | 00:00:00 | 01:04:16 | 00:00:00 | |
| OE3MUC-15 | 2026-09-05 02:52:58 | 48.25725 | 15.02283 | 87° | 102km/h | 12655m | 3.7m/s | -60.5°C | 52.7% | 0hPa | 2.7V | 00:00:00 | 00:00:00 | 00:00:00 | |
| OE5FHM-15 | 2026-09-05 02:52:57 | 48.25723 | 15.02245 | 88° | 106km/h | 12650m | 6.4m/s | -60.5°C | 52.8% | 0hPa | 2.7V | 00:00:00 | 01:04:14 | 00:00:00 | |
| PG1ADW-2 | 2026-09-05 02:52:56 | 48.25723 | 15.02206 | 90° | 106km/h | 12644m | 4.4m/s | -60.6°C | 53.5% | 0hPa | 2.7V | 00:00:00 | 01:04:13 | 00:00:00 | |
| OE3MUC-15 | 2026-09-05 02:52:54 | 48.25722 | 15.02127 | 89° | 104km/h | 12633m | 6.5m/s | -60.5°C | 52.8% | 0hPa | 2.7V | 00:00:00 | 00:00:00 | 00:00:00 | |
| OE5MMP-10 | 2026-09-05 02:52:53 | 48.25721 | 15.02088 | 89° | 106km/h | 12627m | 5.4m/s | -60.5°C | 53.1% | 0hPa | 2.7V | 00:00:00 | 01:04:10 | 00:00:00 | |
| DO3MHA-12 | 2026-09-05 02:52:52 | 48.25721 | 15.02049 | 89° | 106km/h | 12621m | 7.6m/s | -60.4°C | 52.9% | 0hPa | 2.7V | 00:00:00 | 01:04:09 | 00:00:00 | |
| OM5KV | 2026-09-05 02:52:51 | 48.25721 | 15.02049 | 90° | 104km/h | 12621m | 7.7m/s | -60.5°C | 45.1% | 0hPa | 2.7V | 00:00:00 | 00:00:00 | 00:00:00 | |
| OE3MUC-15 | 2026-09-05 02:52:50 | 48.25721 | 15.01970 | 91° | 106km/h | 12609m | 6.7m/s | -60.3°C | 53.5% | 0hPa | 2.7V | 00:00:00 | 00:00:00 | 00:00:00 | |
| OE8JPQ-2 | 2026-09-05 02:52:47 | 48.25723 | 15.01850 | 94° | 106km/h | 12593m | 5.7m/s | 0°C | 0% | 0hPa | 2.7V | 00:00:00 | 00:00:00 | 00:00:00 | |
| OE3MUC-15 | 2026-09-05 02:52:46 | 48.25725 | 15.01809 | 93° | 108km/h | 12588m | 4.7m/s | -60.3°C | 54.0% | 0hPa | 2.7V | 00:00:00 | 00:00:00 | 00:00:00 | |
| PETON7-10 | 2026-09-05 02:52:44 | 48.25726 | 15.01728 | 91° | 106km/h | 12578m | 4.7m/s | -60.3°C | 54.3% | 0hPa | 2.7V | 00:00:00 | 00:00:00 | 00:00:00 | |
| OE5MMP-10 | 2026-09-05 02:52:43 | 48.25726 | 15.01687 | 92° | 106km/h | 12572m | 6.1m/s | -60.2°C | 53.5% | 0hPa | 2.7V | 00:00:00 | 01:04:00 | 00:00:00 | |
| DO3MHA-12 | 2026-09-05 02:52:42 | 48.25727 | 15.01646 | 92° | 106km/h | 12567m | 4.8m/s | -60.2°C | 53.5% | 0hPa | 2.7V | 00:00:00 | 01:03:59 | 00:00:00 | |
| OM5KV | 2026-09-05 02:52:41 | 48.25727 | 15.01646 | 93° | 108km/h | 12567m | 4.9m/s | -60.2°C | 45.8% | 0hPa | 2.7V | 00:00:00 | 00:00:00 | 00:00:00 | |
| OM5KV | 2026-09-05 02:52:40 | 48.25728 | 15.01606 | 93° | 106km/h | 12561m | 6.5m/s | -60.2°C | 45.5% | 0hPa | 2.7V | 00:00:00 | 00:00:00 | 00:00:00 | |
| OE3MUC-15 | 2026-09-05 02:52:38 | 48.25730 | 15.01486 | 91° | 104km/h | 12544m | 4.7m/s | -60.0°C | 53.6% | 0hPa | 2.7V | 00:00:00 | 00:00:00 | 00:00:00 | |
| PG1ADW-2 | 2026-09-05 02:52:36 | 48.25730 | 15.01408 | 90° | 104km/h | 12533m | 5.0m/s | -59.9°C | 53.9% | 0hPa | 2.7V | 00:00:00 | 00:00:00 | 00:00:00 | |
| OE5DRO-10 | 2026-09-05 02:52:35 | 48.25730 | 15.01368 | 89° | 104km/h | 12527m | 6.3m/s | -59.9°C | 54.2% | 0hPa | 2.7V | 00:00:00 | 00:00:00 | 08:30:00 | |
| OE3MUC-15 | 2026-09-05 02:52:34 | 48.25729 | 15.01328 | 89° | 104km/h | 12522m | 4.2m/s | -59.8°C | 54.4% | 0hPa | 2.7V | 00:00:00 | 00:00:00 | 00:00:00 | |
| DO3MHA-12 | 2026-09-05 02:52:32 | 48.25727 | 15.01249 | 90° | 102km/h | 12511m | 4.2m/s | -59.7°C | 55.1% | 0hPa | 2.7V | 00:00:00 | 01:03:49 | 08:30:00 | |
| OE3MUC-15 | 2026-09-05 02:52:30 | 48.25727 | 15.01170 | 90° | 102km/h | 12502m | 4.4m/s | -59.7°C | 55.5% | 0hPa | 2.7V | 00:00:00 | 00:00:00 | 00:00:00 | |
| PETON7-10 | 2026-09-05 02:52:29 | 48.25727 | 15.01131 | 90° | 104km/h | 12496m | 6.5m/s | -59.7°C | 55.4% | 0hPa | 2.7V | 00:00:00 | 00:00:00 | 00:00:00 | |
| OE8JPQ-2 | 2026-09-05 02:52:27 | 48.25727 | 15.01054 | 90° | 99km/h | 12485m | 6.2m/s | 0°C | 0% | 0hPa | 2.7V | 00:00:00 | 01:03:44 | 00:00:00 | |
| OE5FHM-15 | 2026-09-05 02:52:26 | 48.25726 | 15.01015 | 90° | 95km/h | 12480m | 4.7m/s | -59.7°C | 56.9% | 0hPa | 2.7V | 00:00:00 | 01:03:43 | 00:00:00 | |
| OE5WHR-10 | 2026-09-05 02:52:25 | 48.25726 | 15.00977 | 89° | 102km/h | 12475m | 5.4m/s | -59.8°C | 58.0% | 0hPa | 2.7V | 00:00:00 | 01:03:42 | 00:00:00 | |
| OE5MMP-10 | 2026-09-05 02:52:23 | 48.25725 | 15.00899 | 90° | 104km/h | 12464m | 5.0m/s | -59.8°C | 59.1% | 0hPa | 2.7V | 00:00:00 | 01:03:40 | 00:00:00 | |
| OE3MUC-15 | 2026-09-05 02:52:22 | 48.25724 | 15.00860 | 89° | 104km/h | 12459m | 5.4m/s | -59.8°C | 59.0% | 0hPa | 2.7V | 00:00:00 | 00:00:00 | 00:00:00 | |
| OE3MUC-15 | 2026-09-05 02:52:18 | 48.25721 | 15.00702 | 89° | 104km/h | 12438m | 6.4m/s | -59.6°C | 59.9% | 0hPa | 2.7V | 00:00:00 | 00:00:00 | 00:00:00 | |
| PG1ADW-2 | 2026-09-05 02:52:16 | 48.25720 | 15.00623 | 90° | 100km/h | 12427m | 6.2m/s | -59.6°C | 60.8% | 0hPa | 2.7V | 00:00:00 | 00:00:00 | 08:30:00 | |
| OM5KV | 2026-09-05 02:52:15 | 48.25720 | 15.00623 | 90° | 106km/h | 12427m | 6.3m/s | -59.7°C | 52.6% | 0hPa | 2.7V | 00:00:00 | 00:00:00 | 00:00:00 | |
| OE3MUC-15 | 2026-09-05 02:52:14 | 48.25719 | 15.00545 | 90° | 102km/h | 12417m | 6.0m/s | -59.6°C | 61.2% | 0hPa | 2.7V | 00:00:00 | 00:00:00 | 00:00:00 | |
| OE5MMP-10 | 2026-09-05 02:52:13 | 48.25719 | 15.00506 | 90° | 100km/h | 12411m | 4.7m/s | -59.5°C | 61.2% | 0hPa | 2.7V | 00:00:00 | 01:03:30 | 00:00:00 | |
| DO3MHA-12 | 2026-09-05 02:52:12 | 48.25719 | 15.00468 | 91° | 100km/h | 12406m | 6.0m/s | -59.5°C | 61.0% | 0hPa | 2.7V | 00:00:00 | 01:03:29 | 00:00:00 | |
| OE3OSB-13 | 2026-09-05 02:52:11 | 48.25719 | 15.00392 | 89° | 99km/h | 12396m | 6.5m/s | -59.5°C | 52.8% | -1.0hPa | 2.7V | 00:00:00 | 00:00:00 | 00:00:00 | |
| OE3MUC-15 | 2026-09-05 02:52:10 | 48.25719 | 15.00392 | 90° | 100km/h | 12396m | 6.5m/s | -59.4°C | 61.4% | 0hPa | 2.7V | 00:00:00 | 00:00:00 | 00:00:00 | |
| OM5KV | 2026-09-05 02:52:09 | 48.25719 | 15.00392 | 91° | 99km/h | 12396m | 6.5m/s | -59.5°C | 53.2% | 0hPa | 2.7V | 00:00:00 | 00:00:00 | 00:00:00 | |
| OE3MUC-15 | 2026-09-05 02:52:06 | 48.25716 | 15.00240 | 87° | 99km/h | 12376m | 5.8m/s | -59.3°C | 60.7% | 0hPa | 2.7V | 00:00:00 | 00:00:00 | 00:00:00 | |
| OE5WHR-10 | 2026-09-05 02:52:04 | 48.25713 | 15.00165 | 87° | 97km/h | 12365m | 6.0m/s | -59.2°C | 60.4% | 0hPa | 2.7V | 00:00:00 | 00:00:00 | 00:00:00 | |
| OE5MMP-10 | 2026-09-05 02:52:03 | 48.25712 | 15.00128 | 89° | 97km/h | 12359m | 5.2m/s | -59.2°C | 60.8% | 0hPa | 2.7V | 00:00:00 | 01:03:20 | 00:00:00 | |
| DO3MHA-12 | 2026-09-05 02:52:02 | 48.25712 | 15.00091 | 89° | 97km/h | 12354m | 5.5m/s | -59.1°C | 60.2% | 0hPa | 2.7V | 00:00:00 | 01:03:19 | 00:00:00 | |
| OE5DXL-15 | 2026-09-05 02:52:00 | 48.25710 | 15.00019 | 89° | 97km/h | 12342m | 3.9m/s | -59.0°C | 61.1% | 0hPa | 2.7V | 00:00:00 | 00:00:00 | 00:00:00 | |
| PETON7-10 | 2026-09-05 02:51:59 | 48.25710 | 14.99982 | 88° | 97km/h | 12337m | 6.4m/s | -59.0°C | 61.1% | 0hPa | 2.7V | 00:00:00 | 00:00:00 | 00:00:00 | |
| OE3MUC-15 | 2026-09-05 02:51:58 | 48.25708 | 14.99945 | 87° | 99km/h | 12332m | 3.2m/s | -59.0°C | 61.6% | 0hPa | 2.7V | 00:00:00 | 01:03:15 | 00:00:00 | |
| OE5DRO-10 | 2026-09-05 02:51:57 | 48.25707 | 14.99908 | 87° | 97km/h | 12328m | 5.0m/s | -58.9°C | 61.0% | 0hPa | 2.7V | 00:00:00 | 00:00:00 | 00:00:00 | |
| PG1ADW-2 | 2026-09-05 02:51:56 | 48.25706 | 14.99871 | 88° | 97km/h | 12322m | 5.1m/s | -58.9°C | 60.8% | 0hPa | 2.7V | 00:00:00 | 00:00:00 | 00:00:00 | |
| OE3MUC-15 | 2026-09-05 02:51:54 | 48.25704 | 14.99799 | 89° | 95km/h | 12313m | 3.2m/s | -58.8°C | 61.2% | 0hPa | 2.7V | 00:00:00 | 00:00:00 | 00:00:00 | |
| OE5MMP-10 | 2026-09-05 02:51:53 | 48.25703 | 14.99763 | 88° | 97km/h | 12308m | 5.7m/s | -58.7°C | 60.7% | 0hPa | 2.7V | 00:00:00 | 01:03:10 | 00:00:00 | |
| DO3MHA-12 | 2026-09-05 02:51:52 | 48.25702 | 14.99727 | 86° | 97km/h | 12303m | 4.9m/s | -58.7°C | 61.1% | 0hPa | 2.7V | 00:00:00 | 01:03:09 | 00:00:00 | |
| OE8JPQ-2 | 2026-09-05 02:51:51 | 48.25700 | 14.99690 | 86° | 97km/h | 12297m | 6.0m/s | 0°C | 0% | 0hPa | 2.7V | 00:00:00 | 00:00:00 | 08:30:00 | |
| OE3MUC-15 | 2026-09-05 02:51:50 | 48.25698 | 14.99653 | 85° | 97km/h | 12293m | 3.6m/s | -58.6°C | 61.4% | 0hPa | 2.7V | 00:00:00 | 00:00:00 | 08:30:00 | |
| OE3MUC-15 | 2026-09-05 02:51:46 | 48.25689 | 14.99508 | 86° | 97km/h | 12273m | 4.0m/s | -58.5°C | 61.2% | 0hPa | 2.7V | 00:00:00 | 00:00:00 | 00:00:00 | |
| OM5KV | 2026-09-05 02:51:45 | 48.25688 | 14.99508 | 86° | 97km/h | 12273m | 4.1m/s | -58.5°C | 53.3% | 0hPa | 2.7V | 00:00:00 | 00:00:00 | 00:00:00 | |
| PETON7-10 | 2026-09-05 02:51:44 | 48.25684 | 14.99434 | 84° | 97km/h | 12264m | 4.3m/s | -58.4°C | 61.4% | 0hPa | 2.7V | 00:00:00 | 00:00:00 | 00:00:00 | |
| OE5MMP-10 | 2026-09-05 02:51:43 | 48.25681 | 14.99398 | 85° | 95km/h | 12260m | 4.2m/s | -58.4°C | 61.1% | 0hPa | 2.7V | 00:00:00 | 01:03:00 | 00:00:00 | |
| DO3MHA-12 | 2026-09-05 02:51:42 | 48.25679 | 14.99361 | 86° | 95km/h | 12255m | 5.1m/s | -58.3°C | 61.6% | 0hPa | 2.7V | 00:00:00 | 01:02:59 | 00:00:00 | |
| OM5KV | 2026-09-05 02:51:39 | 48.25675 | 14.99288 | 86° | 97km/h | 12246m | 5.7m/s | -58.3°C | 54.0% | 0hPa | 2.7V | 00:00:00 | 00:00:00 | 00:00:00 | |
| OE5DRO-10 | 2026-09-05 02:51:38 | 48.25672 | 14.99217 | 86° | 95km/h | 12237m | 4.9m/s | -58.2°C | 62.2% | 0hPa | 2.7V | 00:00:00 | 00:00:00 | 00:00:00 | |
| PG1ADW-2 | 2026-09-05 02:51:36 | 48.25669 | 14.99146 | 86° | 95km/h | 12228m | 4.5m/s | -58.1°C | 62.0% | 0hPa | 2.7V | 00:00:00 | 01:02:53 | 00:00:00 | |
| OK1ALN | 2026-09-05 02:51:35 | 48.25668 | 14.99146 | 87° | 95km/h | 12228m | 4.6m/s | -58.2°C | 54.2% | 0hPa | 2.7V | 00:00:00 | 00:00:00 | 00:00:00 | |
| OE5MMP-10 | 2026-09-05 02:51:33 | 48.25664 | 14.99037 | 87° | 95km/h | 12214m | 3.7m/s | -58.0°C | 62.7% | 0hPa | 2.7V | 00:00:00 | 01:02:50 | 08:30:00 | |
| DO3MHA-12 | 2026-09-05 02:51:32 | 48.25662 | 14.99001 | 86° | 95km/h | 12210m | 5.3m/s | -58.0°C | 63.0% | 0hPa | 2.7V | 00:00:00 | 01:02:49 | 00:00:00 | |
| OE8JPQ-2 | 2026-09-05 02:51:31 | 48.25660 | 14.98964 | 87° | 95km/h | 12205m | 4.1m/s | 0°C | 0% | 0hPa | 2.7V | 00:00:00 | 00:00:00 | 00:00:00 | |
| OE5DXL-15 | 2026-09-05 02:51:30 | 48.25659 | 14.98927 | 88° | 95km/h | 12201m | 4.8m/s | -57.9°C | 63.9% | 0hPa | 2.7V | 00:00:00 | 00:00:00 | 00:00:00 | |
| PETON7-10 | 2026-09-05 02:51:29 | 48.25658 | 14.98892 | 87° | 95km/h | 12196m | 3.7m/s | -57.9°C | 64.2% | 0hPa | 2.7V | 00:00:00 | 01:02:46 | 00:00:00 | |
| OM5KV | 2026-09-05 02:51:27 | 48.25656 | 14.98856 | 86° | 95km/h | 12192m | 4.8m/s | -57.9°C | 56.6% | 0hPa | 2.7V | 00:00:00 | 00:00:00 | 00:00:00 | |
| S52SK | 2026-09-05 02:51:26 | 48.25654 | 14.98820 | 86° | 95km/h | 12188m | 3.6m/s | -57.8°C | 56.6% | 0hPa | 2.7V | 00:00:00 | 00:00:00 | 00:00:00 | |
| OE5MMP-10 | 2026-09-05 02:51:23 | 48.25646 | 14.98678 | 86° | 95km/h | 12169m | 3.8m/s | -57.6°C | 63.6% | 0hPa | 2.7V | 00:00:00 | 01:02:40 | 00:00:00 | |
| DO3MHA-12 | 2026-09-05 02:51:22 | 48.25645 | 14.98642 | 86° | 95km/h | 12165m | 5.2m/s | -57.6°C | 63.5% | 0hPa | 2.7V | 00:00:00 | 01:02:39 | 00:00:00 | |
| S52SK | 2026-09-05 02:51:21 | 48.25645 | 14.98642 | 87° | 93km/h | 12165m | 5.3m/s | -57.6°C | 55.7% | 0hPa | 2.7V | 00:00:00 | 00:00:00 | 00:00:00 | |
| OE5DRO-10 | 2026-09-05 02:51:19 | 48.25638 | 14.98537 | 85° | 95km/h | 12152m | 3.5m/s | -57.5°C | 62.8% | 0hPa | 2.7V | 00:00:00 | 00:00:00 | 00:00:00 | |
| OE3MUC-15 | 2026-09-05 02:51:18 | 48.25636 | 14.98501 | 86° | 97km/h | 12147m | 5.5m/s | -57.4°C | 62.1% | 0hPa | 2.7V | 00:00:00 | 00:00:00 | 00:00:00 | |
| PG1ADW-2 | 2026-09-05 02:51:16 | 48.25633 | 14.98428 | 85° | 95km/h | 12137m | 6.1m/s | -57.3°C | 61.6% | 0hPa | 2.7V | 00:00:00 | 00:00:00 | 00:00:00 | |
| OE3JTB-15 | 2026-09-05 02:51:15 | 48.25630 | 14.98392 | 85° | 93km/h | 12132m | 4.0m/s | -57.3°C | 61.5% | 0hPa | 2.7V | 00:00:00 | 01:02:32 | 00:00:00 | |
| PETON7-10 | 2026-09-05 02:51:14 | 48.25628 | 14.98356 | 85° | 95km/h | 12127m | 6.0m/s | -57.3°C | 61.4% | 0hPa | 2.7V | 00:00:00 | 00:00:00 | 08:30:00 | |
| OE5MMP-10 | 2026-09-05 02:51:13 | 48.25626 | 14.98320 | 85° | 95km/h | 12123m | 3.0m/s | -57.2°C | 61.3% | 0hPa | 2.7V | 00:00:00 | 01:02:30 | 00:00:00 | |
| DO3MHA-12 | 2026-09-05 02:51:12 | 48.25623 | 14.98285 | 84° | 95km/h | 12118m | 6.1m/s | -57.2°C | 60.5% | 0hPa | 2.7V | 00:00:00 | 01:02:29 | 00:00:00 | |
| OE8JPQ-2 | 2026-09-05 02:51:11 | 48.25620 | 14.98250 | 83° | 93km/h | 12113m | 3.6m/s | 0°C | 0% | 0hPa | 2.7V | 00:00:00 | 01:02:28 | 00:00:00 | |
| OE3MUC-15 | 2026-09-05 02:51:10 | 48.25618 | 14.98215 | 85° | 93km/h | 12108m | 5.7m/s | -57.1°C | 60.3% | 0hPa | 2.7V | 00:00:00 | 00:00:00 | 00:00:00 | |
| OE3OSB-13 | 2026-09-05 02:51:09 | 48.25613 | 14.98145 | 83° | 93km/h | 12099m | 5.8m/s | -57.2°C | 52.9% | -1.0hPa | 2.7V | 00:00:00 | 00:00:00 | 00:00:00 | |
| OE3MUC-15 | 2026-09-05 02:51:06 | 48.25607 | 14.98074 | 84° | 95km/h | 12090m | 5.4m/s | -57.1°C | 60.4% | 0hPa | 2.7V | 00:00:00 | 00:00:00 | 00:00:00 | |
| OE5MMP-10 | 2026-09-05 02:51:03 | 48.25599 | 14.97965 | 84° | 93km/h | 12075m | 4.1m/s | -57.0°C | 60.7% | 0hPa | 2.7V | 00:00:00 | 01:02:20 | 00:00:00 | |
| OE3MUC-15 | 2026-09-05 02:51:02 | 48.25597 | 14.97930 | 85° | 93km/h | 12070m | 4.8m/s | -56.9°C | 60.3% | 0hPa | 2.7V | 00:00:00 | 00:00:00 | 00:00:00 | |
| OE5WHR-10 | 2026-09-05 02:51:01 | 48.25594 | 14.97894 | 86° | 93km/h | 12066m | 4.1m/s | -56.9°C | 60.9% | 0hPa | 2.7V | 00:00:00 | 00:00:00 | 00:00:00 | |
| OE5DXL-15 | 2026-09-05 02:51:00 | 48.25592 | 14.97859 | 85° | 93km/h | 12061m | 5.3m/s | -56.9°C | 60.5% | 0hPa | 2.7V | 00:00:00 | 00:00:00 | 00:00:00 | |
| PETON7-10 | 2026-09-05 02:50:59 | 48.25590 | 14.97824 | 84° | 93km/h | 12056m | 4.2m/s | -56.8°C | 61.0% | 0hPa | 2.7V | 00:00:00 | 00:00:00 | 00:00:00 | |
| OE3MUC-15 | 2026-09-05 02:50:58 | 48.25587 | 14.97789 | 85° | 93km/h | 12052m | 4.5m/s | -56.8°C | 60.5% | 0hPa | 2.7V | 00:00:00 | 00:00:00 | 00:00:00 | |
| OM5KV | 2026-09-05 02:50:57 | 48.25587 | 14.97789 | 85° | 93km/h | 12052m | 4.5m/s | -56.8°C | 53.1% | 0hPa | 2.7V | 00:00:00 | 00:00:00 | 00:00:00 | |
| PG1ADW-2 | 2026-09-05 02:50:56 | 48.25582 | 14.97720 | 84° | 93km/h | 12043m | 5.5m/s | -56.7°C | 60.1% | 0hPa | 2.7V | 00:00:00 | 00:00:00 | 00:00:00 | |
| OE3MUC-15 | 2026-09-05 02:50:54 | 48.25577 | 14.97651 | 84° | 93km/h | 12034m | 5.4m/s | -56.7°C | 60.2% | 0hPa | 2.7V | 00:00:00 | 00:00:00 | 00:00:00 | |
| OE5MMP-10 | 2026-09-05 02:50:53 | 48.25574 | 14.97616 | 86° | 93km/h | 12029m | 4.3m/s | -56.7°C | 60.7% | 0hPa | 2.7V | 00:00:00 | 01:02:10 | 00:00:00 | |
| DO3MHA-12 | 2026-09-05 02:50:52 | 48.25572 | 14.97581 | 85° | 93km/h | 12024m | 4.9m/s | -56.7°C | 60.5% | 0hPa | 2.7V | 00:00:00 | 01:02:09 | 00:00:00 | |
| OE8JPQ-2 | 2026-09-05 02:50:51 | 48.25570 | 14.97546 | 85° | 93km/h | 12019m | 4.3m/s | 0°C | 0% | 0hPa | 2.7V | 00:00:00 | 00:00:00 | 00:00:00 | |
| OE3MUC-15 | 2026-09-05 02:50:50 | 48.25568 | 14.97511 | 86° | 93km/h | 12015m | 5.6m/s | -56.6°C | 60.5% | 0hPa | 2.7V | 00:00:00 | 00:00:00 | 00:00:00 | |
| OE3MUC-15 | 2026-09-05 02:50:46 | 48.25562 | 14.97369 | 87° | 95km/h | 11997m | 4.0m/s | -56.4°C | 60.2% | 0hPa | 2.7V | 00:00:00 | 00:00:00 | 00:00:00 | |
| OM5KV | 2026-09-05 02:50:45 | 48.25562 | 14.97369 | 88° | 93km/h | 11997m | 4.1m/s | -56.5°C | 53.0% | 0hPa | 2.7V | 00:00:00 | 00:00:00 | 00:00:00 | |
| PETON7-10 | 2026-09-05 02:50:44 | 48.25560 | 14.97298 | 87° | 93km/h | 11987m | 5.4m/s | -56.3°C | 59.8% | 0hPa | 2.7V | 00:00:00 | 01:02:01 | 00:00:00 | |
| OE5MMP-10 | 2026-09-05 02:50:43 | 48.25558 | 14.97262 | 88° | 93km/h | 11982m | 3.8m/s | -56.3°C | 59.8% | 0hPa | 2.7V | 00:00:00 | 01:02:00 | 00:00:00 | |
| OE3MUC-15 | 2026-09-05 02:50:42 | 48.25557 | 14.97227 | 89° | 95km/h | 11977m | 5.9m/s | -56.2°C | 59.6% | 0hPa | 2.7V | 00:00:00 | 00:00:00 | 00:00:00 | |
| OM5KV | 2026-09-05 02:50:40 | 48.25557 | 14.97190 | 90° | 95km/h | 11973m | 3.8m/s | -56.3°C | 52.9% | 0hPa | 2.7V | 00:00:00 | 00:00:00 | 00:00:00 | |
| OE3MUC-15 | 2026-09-05 02:50:38 | 48.25555 | 14.97083 | 90° | 93km/h | 11958m | 5.7m/s | -56.1°C | 60.1% | 0hPa | 2.7V | 00:00:00 | 00:00:00 | 08:30:00 | |
| PG1ADW-2 | 2026-09-05 02:50:36 | 48.25553 | 14.97012 | 88° | 93km/h | 11949m | 4.6m/s | -56.0°C | 60.8% | 0hPa | 2.7V | 00:00:00 | 00:00:00 | 00:00:00 | |
| OE3MUC-15 | 2026-09-05 02:50:34 | 48.25551 | 14.96942 | 89° | 91km/h | 11940m | 5.0m/s | -55.9°C | 60.8% | 0hPa | 2.7V | 00:00:00 | 00:00:00 | 00:00:00 | |
| OE5MMP-10 | 2026-09-05 02:50:33 | 48.25551 | 14.96908 | 88° | 93km/h | 11936m | 4.1m/s | -55.9°C | 60.9% | 0hPa | 2.7V | 00:00:00 | 01:01:50 | 00:00:00 | |
| DO3MHA-12 | 2026-09-05 02:50:32 | 48.25549 | 14.96873 | 88° | 93km/h | 11931m | 5.0m/s | -55.8°C | 61.6% | 0hPa | 2.7V | 00:00:00 | 01:01:49 | 00:00:00 | |
| OK1ALN | 2026-09-05 02:50:31 | 48.25550 | 14.96873 | 88° | 91km/h | 11931m | 5.0m/s | -55.9°C | 54.4% | 0hPa | 2.7V | 00:00:00 | 00:00:00 | 00:00:00 | |
| OE3MUC-15 | 2026-09-05 02:50:30 | 48.25547 | 14.96803 | 88° | 93km/h | 11923m | 5.1m/s | -55.8°C | 60.8% | 0hPa | 2.7V | 00:00:00 | 00:00:00 | 00:00:00 | |
| PETON7-10 | 2026-09-05 02:50:29 | 48.25546 | 14.96768 | 88° | 93km/h | 11919m | 3.9m/s | -55.7°C | 60.5% | 0hPa | 2.7V | 00:00:00 | 00:00:00 | 00:00:00 | |
| OM5KV | 2026-09-05 02:50:28 | 48.25546 | 14.96768 | 88° | 91km/h | 11919m | 3.9m/s | -55.8°C | 53.4% | 0hPa | 2.7V | 00:00:00 | 00:00:00 | 00:00:00 | |
| OE3MUC-15 | 2026-09-05 02:50:26 | 48.25543 | 14.96663 | 88° | 93km/h | 11905m | 3.8m/s | -55.6°C | 61.2% | 0hPa | 2.7V | 00:00:00 | 00:00:00 | 00:00:00 | |
| OE5MMP-10 | 2026-09-05 02:50:23 | 48.25540 | 14.96558 | 88° | 91km/h | 11891m | 5.4m/s | -55.5°C | 61.0% | 0hPa | 2.7V | 00:00:00 | 01:01:40 | 00:00:00 | |
| OM5KV | 2026-09-05 02:50:22 | 48.25540 | 14.96558 | 88° | 93km/h | 11891m | 5.4m/s | -55.5°C | 54.0% | 0hPa | 2.7V | 00:00:00 | 00:00:00 | 00:00:00 | |
| OE5DRO-10 | 2026-09-05 02:50:21 | 48.25538 | 14.96487 | 87° | 91km/h | 11882m | 5.6m/s | -55.4°C | 61.2% | 0hPa | 2.7V | 00:00:00 | 00:00:00 | 00:00:00 | |
| OE5WHR-10 | 2026-09-05 02:50:19 | 48.25534 | 14.96418 | 87° | 91km/h | 11873m | 5.4m/s | -55.3°C | 61.3% | 0hPa | 2.7V | 00:00:00 | 01:01:36 | 00:00:00 | |
| OE3MUC-15 | 2026-09-05 02:50:18 | 48.25533 | 14.96383 | 87° | 91km/h | 11868m | 4.1m/s | -55.3°C | 61.9% | 0hPa | 2.7V | 00:00:00 | 00:00:00 | 00:00:00 | |
| OE3JTB-15 | 2026-09-05 02:50:17 | 48.25532 | 14.96348 | 86° | 91km/h | 11863m | 4.4m/s | -55.2°C | 61.6% | 0hPa | 2.7V | 00:00:00 | 00:00:00 | 00:00:00 | |
| PG1ADW-2 | 2026-09-05 02:50:16 | 48.25530 | 14.96314 | 86° | 91km/h | 11859m | 4.6m/s | -55.2°C | 62.1% | 0hPa | 2.7V | 00:00:00 | 01:01:33 | 00:00:00 | |
| OE3MUC-15 | 2026-09-05 02:50:14 | 48.25526 | 14.96245 | 86° | 91km/h | 11849m | 4.0m/s | -55.1°C | 62.4% | 0hPa | 2.7V | 00:00:00 | 00:00:00 | 00:00:00 | |
| OE5MMP-10 | 2026-09-05 02:50:13 | 48.25524 | 14.96211 | 85° | 91km/h | 11845m | 5.0m/s | -55.1°C | 62.7% | 0hPa | 2.7V | 00:00:00 | 01:01:30 | 00:00:00 | |
| DO3MHA-12 | 2026-09-05 02:50:12 | 48.25522 | 14.96177 | 85° | 91km/h | 11841m | 3.2m/s | -55.1°C | 62.8% | 0hPa | 2.7V | 00:00:00 | 01:01:29 | 00:00:00 | |
| OK1ALN | 2026-09-05 02:50:11 | 48.25522 | 14.96177 | 86° | 91km/h | 11841m | 3.2m/s | -55.1°C | 55.8% | 0hPa | 2.7V | 00:00:00 | 00:00:00 | 00:00:00 | |
| OE3MUC-15 | 2026-09-05 02:50:10 | 48.25518 | 14.96108 | 85° | 93km/h | 11832m | 4.1m/s | -55.0°C | 62.6% | 0hPa | 2.7V | 00:00:00 | 00:00:00 | 00:00:00 | |
| OE8JPQ-2 | 2026-09-05 02:50:09 | 48.25516 | 14.96073 | 86° | 93km/h | 11828m | 5.0m/s | 0°C | 0% | 0hPa | 2.7V | 00:00:00 | 01:01:26 | 00:00:00 | |
| OM5KV | 2026-09-05 02:50:08 | 48.25516 | 14.96073 | 86° | 91km/h | 11828m | 5.0m/s | -55.0°C | 55.7% | 0hPa | 2.7V | 00:00:00 | 00:00:00 | 00:00:00 | |
| OE3OSB-13 | 2026-09-05 02:50:07 | 48.25511 | 14.95968 | 86° | 91km/h | 11816m | 3.5m/s | -54.9°C | 54.8% | -1.0hPa | 2.7V | 00:00:00 | 00:00:00 | 00:00:00 | |
| OE3MUC-15 | 2026-09-05 02:50:06 | 48.25511 | 14.95968 | 87° | 91km/h | 11816m | 3.5m/s | -54.9°C | 62.1% | 0hPa | 2.7V | 00:00:00 | 00:00:00 | 00:00:00 | |
| OE5MMP-10 | 2026-09-05 02:50:03 | 48.25508 | 14.95866 | 89° | 93km/h | 11803m | 4.4m/s | -54.8°C | 61.9% | 0hPa | 2.7V | 00:00:00 | 01:01:20 | 08:30:00 | |
| DO3MHA-12 | 2026-09-05 02:50:02 | 48.25508 | 14.95831 | 89° | 93km/h | 11799m | 3.9m/s | -54.7°C | 61.5% | 0hPa | 2.7V | 00:00:00 | 01:01:19 | 00:00:00 | |
| OM5KV | 2026-09-05 02:50:01 | 48.25507 | 14.95797 | 89° | 89km/h | 11795m | 4.0m/s | -54.8°C | 54.6% | 0hPa | 2.7V | 00:00:00 | 00:00:00 | 00:00:00 | |
| OE5DXL-15 | 2026-09-05 02:50:00 | 48.25506 | 14.95763 | 88° | 93km/h | 11790m | 4.9m/s | -54.7°C | 60.8% | 0hPa | 2.7V | 00:00:00 | 00:00:00 | 08:30:00 | |
| PETON7-10 | 2026-09-05 02:49:59 | 48.25505 | 14.95729 | 88° | 93km/h | 11786m | 3.8m/s | -54.7°C | 60.8% | 0hPa | 2.7V | 00:00:00 | 01:01:16 | 00:00:00 | |
| OE5WHR-10 | 2026-09-05 02:49:58 | 48.25504 | 14.95694 | 88° | 93km/h | 11781m | 5.5m/s | -54.6°C | 60.4% | 0hPa | 2.7V | 00:00:00 | 00:00:00 | 08:30:00 | |
| OM5KV | 2026-09-05 02:49:57 | 48.25504 | 14.95694 | 89° | 91km/h | 11781m | 5.6m/s | -54.7°C | 53.6% | 0hPa | 2.7V | 00:00:00 | 00:00:00 | 00:00:00 | |
| PG1ADW-2 | 2026-09-05 02:49:56 | 48.25502 | 14.95623 | 88° | 93km/h | 11772m | 4.7m/s | -54.6°C | 59.8% | 0hPa | 2.7V | 00:00:00 | 00:00:00 | 00:00:00 | |
| OE3MUC-15 | 2026-09-05 02:49:54 | 48.25500 | 14.95551 | 88° | 95km/h | 11763m | 4.3m/s | -54.6°C | 58.0% | 0hPa | 2.7V | 00:00:00 | 00:00:00 | 00:00:00 | |
| OE5MMP-10 | 2026-09-05 02:49:53 | 48.25499 | 14.95516 | 88° | 93km/h | 11759m | 4.3m/s | -54.5°C | 57.7% | 0hPa | 2.7V | 00:00:00 | 01:01:10 | 00:00:00 | |
| DO3MHA-12 | 2026-09-05 02:49:52 | 48.25498 | 14.95480 | 88° | 93km/h | 11755m | 3.9m/s | -54.5°C | 58.1% | 0hPa | 2.7V | 00:00:00 | 01:01:09 | 00:00:00 | |
| OM5KV | 2026-09-05 02:49:51 | 48.25498 | 14.95480 | 89° | 95km/h | 11755m | 4.0m/s | -54.6°C | 51.5% | 0hPa | 2.7V | 00:00:00 | 00:00:00 | 00:00:00 | |
| OE3MUC-15 | 2026-09-05 02:49:50 | 48.25495 | 14.95409 | 88° | 93km/h | 11746m | 3.4m/s | -54.5°C | 58.4% | 0hPa | 2.7V | 00:00:00 | 00:00:00 | 00:00:00 | |
| OE8JPQ-2 | 2026-09-05 02:49:49 | 48.25495 | 14.95374 | 89° | 91km/h | 11742m | 5.4m/s | 0°C | 0% | 0hPa | 2.7V | 00:00:00 | 00:00:00 | 00:00:00 | |
| OE3JTB-15 | 2026-09-05 02:49:48 | 48.25495 | 14.95338 | 91° | 93km/h | 11737m | 3.8m/s | -54.4°C | 58.7% | 0hPa | 2.7V | 00:00:00 | 01:01:05 | 00:00:00 | |
| OE3MUC-15 | 2026-09-05 02:49:46 | 48.25495 | 14.95269 | 91° | 91km/h | 11727m | 5.7m/s | -54.3°C | 58.5% | 0hPa | 2.7V | 00:00:00 | 00:00:00 | 00:00:00 | |
| PETON7-10 | 2026-09-05 02:49:44 | 48.25496 | 14.95200 | 92° | 91km/h | 11717m | 5.4m/s | -54.2°C | 59.3% | 0hPa | 2.7V | 00:00:00 | 00:00:00 | 00:00:00 | |
| OE5MMP-10 | 2026-09-05 02:49:43 | 48.25497 | 14.95165 | 91° | 93km/h | 11713m | 2.3m/s | -54.2°C | 59.9% | 0hPa | 2.7V | 00:00:00 | 01:01:00 | 00:00:00 | |
| DO3MHA-12 | 2026-09-05 02:49:42 | 48.25497 | 14.95130 | 90° | 93km/h | 11710m | 4.6m/s | -54.2°C | 59.4% | 0hPa | 2.7V | 00:00:00 | 01:00:59 | 00:00:00 | |
| OE5DRO-10 | 2026-09-05 02:49:41 | 48.25497 | 14.95095 | 91° | 93km/h | 11706m | 3.0m/s | -54.1°C | 59.5% | 0hPa | 2.7V | 00:00:00 | 00:00:00 | 08:30:00 | |
| OE5WHR-10 | 2026-09-05 02:49:37 | 48.25498 | 14.94953 | 90° | 91km/h | 11688m | 4.0m/s | -54.0°C | 58.5% | 0hPa | 2.7V | 00:00:00 | 00:00:00 | 00:00:00 | |
| OE3OSB-13 | 2026-09-05 02:49:36 | 48.25497 | 14.94883 | 89° | 91km/h | 11680m | 4.4m/s | -54.0°C | 51.4% | -1.0hPa | 2.7V | 00:00:00 | 00:00:00 | 00:00:00 | |
| OE5FHM-15 | 2026-09-05 02:49:34 | 48.25497 | 14.94849 | 90° | 93km/h | 11676m | 3.8m/s | -53.9°C | 58.0% | 0hPa | 2.7V | 00:00:00 | 01:00:51 | 00:00:00 | |
| OE5MMP-10 | 2026-09-05 02:49:33 | 48.25497 | 14.94815 | 90° | 91km/h | 11672m | 4.6m/s | -53.8°C | 58.2% | 0hPa | 2.7V | 00:00:00 | 01:00:50 | 00:00:00 | |
| DO3MHA-12 | 2026-09-05 02:49:32 | 48.25497 | 14.94782 | 90° | 93km/h | 11668m | 3.5m/s | -53.8°C | 58.2% | 0hPa | 2.7V | 00:00:00 | 01:00:49 | 08:30:00 | |
| OE5DXL-15 | 2026-09-05 02:49:30 | 48.25497 | 14.94713 | 90° | 93km/h | 11660m | 2.4m/s | -53.7°C | 58.6% | 0hPa | 2.7V | 00:00:00 | 00:00:00 | 00:00:00 | |
| OE8JPQ-2 | 2026-09-05 02:49:29 | 48.25497 | 14.94678 | 91° | 93km/h | 11656m | 4.8m/s | 0°C | 0% | 0hPa | 2.7V | 00:00:00 | 00:00:00 | 00:00:00 | |
| OM5KV | 2026-09-05 02:49:24 | 48.25500 | 14.94537 | 94° | 93km/h | 11639m | 5.5m/s | -53.6°C | 52.3% | 0hPa | 2.7V | 00:00:00 | 00:00:00 | 00:00:00 | |
| OE5MMP-10 | 2026-09-05 02:49:23 | 48.25502 | 14.94466 | 93° | 93km/h | 11630m | 5.1m/s | -53.5°C | 58.8% | 0hPa | 2.7V | 00:00:00 | 01:00:40 | 00:00:00 | |
| DO3MHA-12 | 2026-09-05 02:49:22 | 48.25503 | 14.94431 | 92° | 93km/h | 11625m | 3.3m/s | -53.4°C | 58.8% | 0hPa | 2.7V | 00:00:00 | 01:00:39 | 00:00:00 | |
| OE3MUC-15 | 2026-09-05 02:49:18 | 48.25505 | 14.94291 | 92° | 95km/h | 11609m | 4.4m/s | -53.3°C | 58.7% | 0hPa | 2.7V | 00:00:00 | 00:00:00 | 00:00:00 | |
| OE5WHR-10 | 2026-09-05 02:49:16 | 48.25506 | 14.94220 | 92° | 93km/h | 11600m | 3.9m/s | -53.2°C | 58.7% | 0hPa | 2.7V | 00:00:00 | 01:00:33 | 00:00:00 | |
| PETON7-10 | 2026-09-05 02:49:14 | 48.25507 | 14.94148 | 91° | 93km/h | 11592m | 4.5m/s | -53.1°C | 58.5% | 0hPa | 2.7V | 00:00:00 | 01:00:31 | 00:00:00 | |
| OE5MMP-10 | 2026-09-05 02:49:13 | 48.25507 | 14.94112 | 92° | 93km/h | 11586m | 6.0m/s | -53.1°C | 58.9% | 0hPa | 2.7V | 00:00:00 | 01:00:30 | 00:00:00 | |
| DO3MHA-12 | 2026-09-05 02:49:12 | 48.25508 | 14.94076 | 92° | 93km/h | 11581m | 3.1m/s | -53.0°C | 59.4% | 0hPa | 2.7V | 00:00:00 | 01:00:29 | 00:00:00 | |
| OE3MUC-15 | 2026-09-05 02:49:10 | 48.25508 | 14.94006 | 91° | 91km/h | 11574m | 2.1m/s | -53.0°C | 60.2% | 0hPa | 2.7V | 00:00:00 | 00:00:00 | 00:00:00 | |
| OK1ALN | 2026-09-05 02:49:09 | 48.25508 | 14.94006 | 92° | 91km/h | 11574m | 2.1m/s | -53.0°C | 53.7% | 0hPa | 2.7V | 00:00:00 | 00:00:00 | 00:00:00 | |
| OE8JPQ-2 | 2026-09-05 02:49:08 | 48.25509 | 14.93936 | 92° | 95km/h | 11566m | 4.6m/s | 0°C | 0% | 0hPa | 2.7V | 00:00:00 | 01:00:25 | 00:00:00 | |
| OE3MUC-15 | 2026-09-05 02:49:06 | 48.25510 | 14.93867 | 92° | 93km/h | 11557m | 3.8m/s | -52.8°C | 60.5% | 0hPa | 2.7V | 00:00:00 | 00:00:00 | 00:00:00 | |
| OE3OSB-13 | 2026-09-05 02:49:05 | 48.25512 | 14.93796 | 92° | 93km/h | 11548m | 2.9m/s | -52.8°C | 54.4% | -1.0hPa | 2.7V | 00:00:00 | 00:00:00 | 00:00:00 | |
| OE5FHM-15 | 2026-09-05 02:49:04 | 48.25512 | 14.93796 | 93° | 93km/h | 11548m | 2.9m/s | -52.7°C | 61.1% | 0hPa | 2.7V | 00:00:00 | 01:00:21 | 00:00:00 | |
| OE5MMP-10 | 2026-09-05 02:49:03 | 48.25512 | 14.93761 | 93° | 93km/h | 11544m | 5.4m/s | -52.7°C | 60.9% | 0hPa | 2.7V | 00:00:00 | 01:00:20 | 00:00:00 | |
| OE3MUC-15 | 2026-09-05 02:49:02 | 48.25514 | 14.93725 | 94° | 95km/h | 11539m | 4.0m/s | -52.7°C | 61.4% | 0hPa | 2.7V | 00:00:00 | 01:00:19 | 00:00:00 | |
| OE5DXL-15 | 2026-09-05 02:49:00 | 48.25516 | 14.93654 | 93° | 93km/h | 11531m | 3.6m/s | -52.6°C | 62.0% | 0hPa | 2.7V | 00:00:00 | 00:00:00 | 00:00:00 | |
| PETON7-10 | 2026-09-05 02:48:59 | 48.25517 | 14.93619 | 93° | 93km/h | 11527m | 4.4m/s | -52.5°C | 62.4% | 0hPa | 2.7V | 00:00:00 | 00:00:00 | 08:30:00 | |
| OE3MUC-15 | 2026-09-05 02:48:58 | 48.25518 | 14.93584 | 92° | 93km/h | 11523m | 3.4m/s | -52.5°C | 62.6% | 0hPa | 2.7V | 00:00:00 | 00:00:00 | 00:00:00 | |
| S52SK | 2026-09-05 02:48:57 | 48.25518 | 14.93584 | 92° | 93km/h | 11523m | 3.4m/s | -52.6°C | 0% | 0hPa | 2.7V | 00:00:00 | 00:00:00 | 00:00:00 | |
| PG1ADW-2 | 2026-09-05 02:48:56 | 48.25519 | 14.93513 | 91° | 93km/h | 11515m | 4.5m/s | -52.4°C | 63.1% | 0hPa | 2.7V | 00:00:00 | 01:00:13 | 00:00:00 | |
| OE5WHR-10 | 2026-09-05 02:48:55 | 48.25519 | 14.93477 | 91° | 93km/h | 11511m | 3.7m/s | -52.4°C | 63.5% | 0hPa | 2.7V | 00:00:00 | 00:00:00 | 00:00:00 | |
| OE3MUC-15 | 2026-09-05 02:48:54 | 48.25519 | 14.93442 | 90° | 93km/h | 11506m | 5.2m/s | -52.4°C | 63.8% | 0hPa | 2.7V | 00:00:00 | 00:00:00 | 00:00:00 | |
| OE5MMP-10 | 2026-09-05 02:48:53 | 48.25519 | 14.93406 | 92° | 93km/h | 11502m | 2.9m/s | -52.3°C | 64.1% | 0hPa | 2.7V | 00:00:00 | 01:00:10 | 00:00:00 | |
| DO3MHA-12 | 2026-09-05 02:48:52 | 48.25519 | 14.93371 | 92° | 93km/h | 11498m | 5.0m/s | -52.3°C | 63.5% | 0hPa | 2.7V | 00:00:00 | 01:00:09 | 00:00:00 | |
| S52SK | 2026-09-05 02:48:51 | 48.25519 | 14.93371 | 92° | 93km/h | 11498m | 5.0m/s | -52.3°C | 0% | 0hPa | 2.7V | 00:00:00 | 00:00:00 | 00:00:00 | |
| OE3MUC-15 | 2026-09-05 02:48:50 | 48.25521 | 14.93300 | 92° | 95km/h | 11490m | 5.4m/s | -52.2°C | 63.7% | 0hPa | 2.7V | 00:00:00 | 00:00:00 | 08:30:00 | |
| OK1ALN | 2026-09-05 02:48:49 | 48.25521 | 14.93265 | 93° | 93km/h | 11485m | 3.6m/s | -52.2°C | 57.3% | 0hPa | 2.7V | 00:00:00 | 00:00:00 | 00:00:00 | |
| OM5KV | 2026-09-05 02:48:48 | 48.25521 | 14.93265 | 93° | 93km/h | 11485m | 3.6m/s | -52.2°C | 57.3% | 0hPa | 2.7V | 00:00:00 | 00:00:00 | 00:00:00 | |
| OM5KV | 2026-09-05 02:48:47 | 48.25523 | 14.93229 | 93° | 93km/h | 11481m | 5.2m/s | -52.2°C | 57.2% | 0hPa | 2.7V | 00:00:00 | 00:00:00 | 00:00:00 | |
| OE3MUC-15 | 2026-09-05 02:48:46 | 48.25525 | 14.93158 | 94° | 95km/h | 11472m | 3.8m/s | -52.1°C | 63.8% | 0hPa | 2.7V | 00:00:00 | 00:00:00 | 00:00:00 | |
| PETON7-10 | 2026-09-05 02:48:44 | 48.25528 | 14.93086 | 94° | 93km/h | 11465m | 4.6m/s | -52.0°C | 62.8% | 0hPa | 2.7V | 00:00:00 | 00:00:00 | 00:00:00 | |
| OE5MMP-10 | 2026-09-05 02:48:43 | 48.25530 | 14.93051 | 94° | 93km/h | 11460m | 4.4m/s | -51.9°C | 63.0% | 0hPa | 2.7V | 00:00:00 | 01:00:00 | 00:00:00 | |
| DO3MHA-12 | 2026-09-05 02:48:42 | 48.25531 | 14.93016 | 94° | 93km/h | 11456m | 3.7m/s | -51.9°C | 63.3% | 0hPa | 2.7V | 00:00:00 | 00:59:59 | 00:00:00 | |
| OE3JTB-15 | 2026-09-05 02:48:41 | 48.25533 | 14.92980 | 93° | 95km/h | 11452m | 5.5m/s | -51.9°C | 63.3% | 0hPa | 2.7V | 00:00:00 | 00:00:00 | 00:00:00 | |
| OM5KV | 2026-09-05 02:48:40 | 48.25532 | 14.92980 | 94° | 91km/h | 11452m | 5.6m/s | -51.9°C | 57.0% | 0hPa | 2.7V | 00:00:00 | 00:00:00 | 00:00:00 | |
| OE3MUC-15 | 2026-09-05 02:48:38 | 48.25535 | 14.92875 | 93° | 95km/h | 11439m | 3.1m/s | -51.8°C | 63.9% | 0hPa | 2.7V | 00:00:00 | 00:00:00 | 00:00:00 | |
| PG1ADW-2 | 2026-09-05 02:48:36 | 48.25537 | 14.92803 | 93° | 95km/h | 11431m | 3.3m/s | -51.7°C | 63.9% | 0hPa | 2.7V | 00:00:00 | 00:00:00 | 00:00:00 | |
| OE5FHM-15 | 2026-09-05 02:48:34 | 48.25539 | 14.92731 | 92° | 95km/h | 11422m | 4.4m/s | -51.6°C | 63.7% | 0hPa | 2.7V | 00:00:00 | 00:59:51 | 00:00:00 | |
| OE5MMP-10 | 2026-09-05 02:48:33 | 48.25540 | 14.92696 | 93° | 95km/h | 11418m | 3.6m/s | -51.6°C | 64.0% | 0hPa | 2.7V | 00:00:00 | 00:59:50 | 08:30:00 | |
| DO3MHA-12 | 2026-09-05 02:48:32 | 48.25541 | 14.92660 | 93° | 95km/h | 11414m | 4.0m/s | -51.5°C | 63.5% | 0hPa | 2.7V | 00:00:00 | 00:59:49 | 00:00:00 | |
| OE3MUC-15 | 2026-09-05 02:48:30 | 48.25543 | 14.92588 | 93° | 95km/h | 11406m | 5.6m/s | -51.5°C | 64.0% | 0hPa | 2.7V | 00:00:00 | 00:00:00 | 00:00:00 | |
| PETON7-10 | 2026-09-05 02:48:29 | 48.25544 | 14.92553 | 92° | 95km/h | 11401m | 3.7m/s | -51.4°C | 64.5% | 0hPa | 2.7V | 00:00:00 | 00:59:46 | 00:00:00 | |
| OK1ALN | 2026-09-05 02:48:28 | 48.25543 | 14.92553 | 93° | 93km/h | 11401m | 3.7m/s | -51.5°C | 58.2% | 0hPa | 2.7V | 00:00:00 | 00:00:00 | 00:00:00 | |
| OE3MUC-15 | 2026-09-05 02:48:26 | 48.25546 | 14.92445 | 93° | 95km/h | 11389m | 4.8m/s | -51.3°C | 63.9% | 0hPa | 2.7V | 00:00:00 | 00:00:00 | 00:00:00 | |
| OE5DRO-10 | 2026-09-05 02:48:25 | 48.25547 | 14.92410 | 93° | 95km/h | 11385m | 3.3m/s | -51.3°C | 63.7% | 0hPa | 2.7V | 00:00:00 | 00:00:00 | 00:00:00 | |
| OE5MMP-10 | 2026-09-05 02:48:23 | 48.25549 | 14.92338 | 93° | 95km/h | 11376m | 4.0m/s | -51.2°C | 63.2% | 0hPa | 2.7V | 00:00:00 | 00:59:40 | 00:00:00 | |
| OE3MUC-15 | 2026-09-05 02:48:22 | 48.25551 | 14.92303 | 94° | 95km/h | 11372m | 4.2m/s | -51.2°C | 63.6% | 0hPa | 2.7V | 00:00:00 | 00:00:00 | 00:00:00 | |
| OE3MUC-15 | 2026-09-05 02:48:18 | 48.25556 | 14.92160 | 93° | 97km/h | 11356m | 3.7m/s | -51.1°C | 63.2% | 0hPa | 2.7V | 00:00:00 | 00:00:00 | 00:00:00 | |
| PG1ADW-2 | 2026-09-05 02:48:16 | 48.25558 | 14.92088 | 95° | 95km/h | 11347m | 4.8m/s | -51.0°C | 62.9% | 0hPa | 2.7V | 00:00:00 | 00:00:00 | 00:00:00 | |
| OE3MUC-15 | 2026-09-05 02:48:14 | 48.25562 | 14.92015 | 94° | 93km/h | 11338m | 4.3m/s | -50.9°C | 62.7% | 0hPa | 2.7V | 00:00:00 | 00:00:00 | 08:30:00 | |
| OE5WHR-10 | 2026-09-05 02:48:13 | 48.25563 | 14.91979 | 93° | 95km/h | 11334m | 3.6m/s | -50.9°C | 62.4% | 0hPa | 2.7V | 00:00:00 | 00:59:30 | 00:00:00 | |
| DO3MHA-12 | 2026-09-05 02:48:12 | 48.25564 | 14.91944 | 94° | 95km/h | 11329m | 5.4m/s | -50.9°C | 62.2% | 0hPa | 2.7V | 00:00:00 | 00:59:29 | 00:00:00 | |
| OE3MUC-15 | 2026-09-05 02:48:10 | 48.25567 | 14.91873 | 93° | 93km/h | 11320m | 5.6m/s | -50.8°C | 62.8% | 0hPa | 2.7V | 00:00:00 | 00:00:00 | 00:00:00 | |
| OK1ALN | 2026-09-05 02:48:07 | 48.25569 | 14.91804 | 94° | 91km/h | 11312m | 5.4m/s | -50.8°C | 57.3% | 0hPa | 2.7V | 00:00:00 | 00:00:00 | 00:00:00 | |
| OE3MUC-15 | 2026-09-05 02:48:06 | 48.25570 | 14.91733 | 91° | 97km/h | 11303m | 4.3m/s | -50.7°C | 64.7% | 0hPa | 2.7V | 00:00:00 | 00:00:00 | 00:00:00 | |
| OE5FHM-15 | 2026-09-05 02:48:04 | 48.25571 | 14.91660 | 93° | 95km/h | 11295m | 4.0m/s | -50.6°C | 65.4% | 0hPa | 2.7V | 00:00:00 | 00:59:21 | 00:00:00 | |
| OE5MMP-10 | 2026-09-05 02:48:03 | 48.25572 | 14.91623 | 92° | 95km/h | 11291m | 3.8m/s | -50.6°C | 65.2% | 0hPa | 2.7V | 00:00:00 | 00:59:20 | 00:00:00 | |
| DO3MHA-12 | 2026-09-05 02:48:02 | 48.25573 | 14.91586 | 91° | 93km/h | 11287m | 3.9m/s | -50.5°C | 65.7% | 0hPa | 2.7V | 00:00:00 | 00:59:19 | 08:30:00 | |
| OE5DXL-15 | 2026-09-05 02:48:00 | 48.25574 | 14.91512 | 94° | 95km/h | 11278m | 4.0m/s | -50.4°C | 66.2% | 0hPa | 2.7V | 00:00:00 | 00:00:00 | 00:00:00 | |
| PETON7-10 | 2026-09-05 02:47:59 | 48.25575 | 14.91477 | 92° | 93km/h | 11274m | 3.3m/s | -50.4°C | 65.9% | 0hPa | 2.7V | 00:00:00 | 00:00:00 | 00:00:00 | |
| OE3MUC-15 | 2026-09-05 02:47:58 | 48.25575 | 14.91442 | 92° | 93km/h | 11270m | 4.6m/s | -50.4°C | 65.9% | 0hPa | 2.7V | 00:00:00 | 00:00:00 | 00:00:00 | |
| PG1ADW-2 | 2026-09-05 02:47:56 | 48.25578 | 14.91373 | 94° | 95km/h | 11261m | 4.0m/s | -50.3°C | 66.4% | 0hPa | 2.7V | 00:00:00 | 00:00:00 | 00:00:00 | |
| OE3MUC-15 | 2026-09-05 02:47:54 | 48.25580 | 14.91303 | 93° | 95km/h | 11253m | 3.8m/s | -50.2°C | 66.7% | 0hPa | 2.7V | 00:00:00 | 00:00:00 | 00:00:00 | |
| OE5MMP-10 | 2026-09-05 02:47:53 | 48.25581 | 14.91267 | 94° | 93km/h | 11249m | 4.9m/s | -50.2°C | 66.9% | 0hPa | 2.7V | 00:00:00 | 00:59:10 | 00:00:00 | |
| DO3MHA-12 | 2026-09-05 02:47:52 | 48.25583 | 14.91231 | 94° | 93km/h | 11244m | 3.0m/s | -50.2°C | 67.8% | 0hPa | 2.7V | 00:00:00 | 00:59:09 | 00:00:00 | |
| OE3MUC-15 | 2026-09-05 02:47:50 | 48.25585 | 14.91159 | 93° | 93km/h | 11237m | 4.1m/s | -50.1°C | 67.4% | 0hPa | 2.7V | 00:00:00 | 00:00:00 | 00:00:00 | |
| OE5DRO-10 | 2026-09-05 02:47:47 | 48.25588 | 14.91052 | 92° | 95km/h | 11225m | 3.8m/s | -50.0°C | 67.8% | 0hPa | 2.7V | 00:00:00 | 00:00:00 | 00:00:00 | |
| OE3MUC-15 | 2026-09-05 02:47:46 | 48.25589 | 14.91017 | 93° | 93km/h | 11221m | 3.7m/s | -50.0°C | 68.0% | 0hPa | 2.7V | 00:00:00 | 00:00:00 | 00:00:00 | |
| OM5KV | 2026-09-05 02:47:44 | 48.25591 | 14.90947 | 94° | 91km/h | 11213m | 3.8m/s | -50.0°C | 62.4% | 0hPa | 2.7V | 00:00:00 | 00:00:00 | 00:00:00 | |
| OE5MMP-10 | 2026-09-05 02:47:43 | 48.25592 | 14.90912 | 94° | 97km/h | 11209m | 3.6m/s | -49.9°C | 68.0% | 0hPa | 2.7V | 00:00:00 | 00:59:00 | 00:00:00 | |
| OE3MUC-15 | 2026-09-05 02:47:42 | 48.25594 | 14.90876 | 94° | 97km/h | 11205m | 4.3m/s | -49.8°C | 67.8% | 0hPa | 2.7V | 00:00:00 | 00:00:00 | 00:00:00 | |
| OM5KV | 2026-09-05 02:47:37 | 48.25602 | 14.90730 | 95° | 99km/h | 11189m | 4.0m/s | -49.7°C | 62.2% | 0hPa | 2.7V | 00:00:00 | 00:00:00 | 00:00:00 | |
| PG1ADW-2 | 2026-09-05 02:47:36 | 48.25606 | 14.90656 | 96° | 97km/h | 11181m | 3.4m/s | -49.6°C | 68.7% | 0hPa | 2.7V | 00:00:00 | 00:58:53 | 00:00:00 | |
| OE5FHM-15 | 2026-09-05 02:47:34 | 48.25610 | 14.90584 | 95° | 97km/h | 11173m | 2.8m/s | -49.6°C | 68.4% | 0hPa | 2.7V | 00:00:00 | 00:58:51 | 00:00:00 | |
| OE5MMP-10 | 2026-09-05 02:47:33 | 48.25612 | 14.90548 | 95° | 97km/h | 11170m | 4.7m/s | -49.5°C | 68.0% | 0hPa | 2.7V | 00:00:00 | 00:58:50 | 00:00:00 | |
| OE3OSB-13 | 2026-09-05 02:47:32 | 48.25615 | 14.90477 | 93° | 95km/h | 11162m | 4.6m/s | -49.5°C | 60.8% | -1.0hPa | 2.7V | 00:00:00 | 00:00:00 | 00:00:00 | |
| OE5WHR-10 | 2026-09-05 02:47:31 | 48.25615 | 14.90477 | 94° | 97km/h | 11163m | 4.5m/s | -49.5°C | 67.0% | 0hPa | 2.7V | 00:00:00 | 00:00:00 | 00:00:00 | |
| OE5DXL-15 | 2026-09-05 02:47:30 | 48.25617 | 14.90441 | 95° | 97km/h | 11159m | 3.6m/s | -49.5°C | 66.5% | 0hPa | 2.7V | 00:00:00 | 00:00:00 | 00:00:00 | |
| PETON7-10 | 2026-09-05 02:47:29 | 48.25619 | 14.90405 | 96° | 97km/h | 11154m | 5.3m/s | -49.4°C | 66.3% | 0hPa | 2.7V | 00:00:00 | 00:00:00 | 00:00:00 | |
| OE5DRO-10 | 2026-09-05 02:47:28 | 48.25621 | 14.90369 | 96° | 97km/h | 11150m | 2.9m/s | -49.4°C | 66.6% | 0hPa | 2.7V | 00:00:00 | 00:00:00 | 00:00:00 | |
| OK1ALN | 2026-09-05 02:47:26 | 48.25624 | 14.90333 | 97° | 97km/h | 11146m | 5.5m/s | -49.4°C | 0% | 0hPa | 2.7V | 00:00:00 | 00:00:00 | 00:00:00 | |
| OM5KV | 2026-09-05 02:47:25 | 48.25626 | 14.90297 | 96° | 99km/h | 11142m | 2.4m/s | -49.4°C | 61.0% | 0hPa | 2.7V | 00:00:00 | 00:00:00 | 00:00:00 | |
| OE5MMP-10 | 2026-09-05 02:47:23 | 48.25633 | 14.90183 | 95° | 97km/h | 11130m | 5.5m/s | -49.3°C | 67.4% | 0hPa | 2.7V | 00:00:00 | 00:58:40 | 00:00:00 | |
| DO3MHA-12 | 2026-09-05 02:47:22 | 48.25635 | 14.90145 | 95° | 95km/h | 11126m | 2.4m/s | -49.3°C | 68.3% | 0hPa | 2.7V | 00:00:00 | 00:58:39 | 00:00:00 | |
| OM5KV | 2026-09-05 02:47:19 | 48.25640 | 14.90070 | 97° | 95km/h | 11118m | 2.7m/s | -49.2°C | 63.4% | 0hPa | 2.7V | 00:00:00 | 00:00:00 | 00:00:00 | |
| OE3MUC-15 | 2026-09-05 02:47:18 | 48.25644 | 14.90000 | 97° | 95km/h | 11110m | 4.0m/s | -49.1°C | 69.5% | 0hPa | 2.7V | 00:00:00 | 00:00:00 | 00:00:00 | |
| PG1ADW-2 | 2026-09-05 02:47:16 | 48.25650 | 14.89930 | 99° | 97km/h | 11101m | 4.1m/s | -49.0°C | 70.1% | 0hPa | 2.7V | 00:00:00 | 00:00:00 | 00:00:00 | |
| PETON7-10 | 2026-09-05 02:47:14 | 48.25657 | 14.89858 | 97° | 97km/h | 11093m | 5.8m/s | -49.0°C | 69.3% | 0hPa | 2.7V | 00:00:00 | 00:00:00 | 00:00:00 | |
| OE5MMP-10 | 2026-09-05 02:47:13 | 48.25660 | 14.89822 | 96° | 97km/h | 11088m | 4.3m/s | -48.9°C | 69.8% | 0hPa | 2.7V | 00:00:00 | 00:58:30 | 00:00:00 | |
| DO3MHA-12 | 2026-09-05 02:47:12 | 48.25662 | 14.89786 | 96° | 99km/h | 11083m | 5.6m/s | -48.9°C | 69.5% | 0hPa | 2.7V | 00:00:00 | 00:58:29 | 00:00:00 | |
| OE3MUC-15 | 2026-09-05 02:47:10 | 48.25668 | 14.89713 | 99° | 99km/h | 11072m | 4.5m/s | -48.8°C | 70.1% | 0hPa | 2.7V | 00:00:00 | 00:00:00 | 00:00:00 | |
| OE5DRO-10 | 2026-09-05 02:47:09 | 48.25672 | 14.89676 | 99° | 99km/h | 11066m | 5.9m/s | -48.8°C | 70.4% | 0hPa | 2.7V | 00:00:00 | 00:00:00 | 00:00:00 | |
| OM5KV | 2026-09-05 02:47:07 | 48.25676 | 14.89639 | 100° | 99km/h | 11061m | 4.2m/s | -48.8°C | 65.2% | 0hPa | 2.7V | 00:00:00 | 00:00:00 | 00:00:00 | |
| OE3MUC-15 | 2026-09-05 02:47:06 | 48.25683 | 14.89565 | 99° | 99km/h | 11051m | 3.9m/s | -48.6°C | 72.1% | 0hPa | 2.7V | 00:00:00 | 00:00:00 | 00:00:00 | |
| OK1ALN | 2026-09-05 02:47:05 | 48.25683 | 14.89565 | 99° | 100km/h | 11051m | 4.0m/s | -48.7°C | 0% | 0hPa | 2.7V | 00:00:00 | 00:00:00 | 00:00:00 | |
| OE5FHM-15 | 2026-09-05 02:47:04 | 48.25690 | 14.89492 | 97° | 100km/h | 11043m | 2.5m/s | -48.6°C | 72.9% | 0hPa | 2.7V | 00:00:00 | 00:58:21 | 08:30:00 | |
| DO3MHA-12 | 2026-09-05 02:47:02 | 48.25695 | 14.89418 | 97° | 99km/h | 11034m | 3.7m/s | -48.5°C | 73.9% | 0hPa | 2.7V | 00:00:00 | 00:58:19 | 00:00:00 | |
| OE5DXL-15 | 2026-09-05 02:47:00 | 48.25702 | 14.89345 | 100° | 100km/h | 11025m | 2.8m/s | -48.4°C | 75.0% | 0hPa | 2.7V | 00:00:00 | 00:00:00 | 00:00:00 | |
| PETON7-10 | 2026-09-05 02:46:59 | 48.25706 | 14.89308 | 100° | 102km/h | 11021m | 4.5m/s | -48.4°C | 75.0% | 0hPa | 2.7V | 00:00:00 | 00:58:16 | 00:00:00 | |
| OE3MUC-15 | 2026-09-05 02:46:58 | 48.25710 | 14.89271 | 100° | 99km/h | 11018m | 3.1m/s | -48.4°C | 76.0% | 0hPa | 2.7V | 00:00:00 | 00:00:00 | 00:00:00 | |
| PG1ADW-2 | 2026-09-05 02:46:56 | 48.25719 | 14.89196 | 100° | 100km/h | 11009m | 4.1m/s | -48.3°C | 76.6% | 0hPa | 2.7V | 00:00:00 | 00:00:00 | 00:00:00 | |
| OE3MUC-15 | 2026-09-05 02:46:54 | 48.25726 | 14.89122 | 98° | 104km/h | 11000m | 4.1m/s | -48.3°C | 77.7% | 0hPa | 2.7V | 00:00:00 | 00:00:00 | 00:00:00 | |
| OE5MMP-10 | 2026-09-05 02:46:53 | 48.25729 | 14.89084 | 99° | 104km/h | 10995m | 5.3m/s | -48.2°C | 78.2% | 0hPa | 2.7V | 00:00:00 | 00:58:10 | 00:00:00 | |
| DO3MHA-12 | 2026-09-05 02:46:52 | 48.25733 | 14.89045 | 98° | 102km/h | 10991m | 3.9m/s | -48.2°C | 78.7% | 0hPa | 2.7V | 00:00:00 | 00:58:09 | 00:00:00 | |
| OE3MUC-15 | 2026-09-05 02:46:50 | 48.25740 | 14.88967 | 99° | 104km/h | 10981m | 4.6m/s | -48.1°C | 79.5% | 0hPa | 2.7V | 00:00:00 | 00:00:00 | 00:00:00 | |
| OE5WHR-10 | 2026-09-05 02:46:49 | 48.25744 | 14.88929 | 100° | 99km/h | 10978m | 1.6m/s | -48.0°C | 78.9% | 0hPa | 2.7V | 00:00:00 | 00:00:00 | 08:30:00 | |
| OE3MUC-15 | 2026-09-05 02:46:46 | 48.25757 | 14.88812 | 99° | 102km/h | 10962m | 5.5m/s | -47.9°C | 75.8% | 0hPa | 2.7V | 00:00:00 | 00:00:00 | 00:00:00 | |
| OE3JTB-15 | 2026-09-05 02:46:45 | 48.25761 | 14.88773 | 98° | 99km/h | 10957m | 6.2m/s | -47.8°C | 75.6% | 0hPa | 2.7V | 00:00:00 | 00:58:02 | 00:00:00 | |
| PETON7-10 | 2026-09-05 02:46:44 | 48.25764 | 14.88735 | 99° | 99km/h | 10952m | 3.0m/s | -47.8°C | 74.9% | 0hPa | 2.7V | 00:00:00 | 00:00:00 | 08:30:00 | |
| OE5MMP-10 | 2026-09-05 02:46:43 | 48.25768 | 14.88697 | 99° | 99km/h | 10946m | 8.4m/s | -47.7°C | 73.6% | 0hPa | 2.7V | 00:00:00 | 00:58:00 | 00:00:00 | |
| DO3MHA-12 | 2026-09-05 02:46:42 | 48.25772 | 14.88660 | 100° | 99km/h | 10940m | 4.8m/s | -47.7°C | 74.2% | 0hPa | 2.7V | 00:00:00 | 00:57:59 | 00:00:00 | |
| OM5KV | 2026-09-05 02:46:40 | 48.25776 | 14.88623 | 100° | 97km/h | 10933m | 6.9m/s | -47.7°C | 68.3% | 0hPa | 2.7V | 00:00:00 | 00:00:00 | 00:00:00 | |
| OE3MUC-15 | 2026-09-05 02:46:38 | 48.25785 | 14.88513 | 96° | 99km/h | 10920m | 3.4m/s | -47.5°C | 73.7% | 0hPa | 2.7V | 00:00:00 | 00:00:00 | 00:00:00 | |
| PG1ADW-2 | 2026-09-05 02:46:36 | 48.25790 | 14.88439 | 96° | 99km/h | 10910m | 6.1m/s | -47.4°C | 72.3% | 0hPa | 2.7V | 00:00:00 | 00:00:00 | 00:00:00 | |
| OE5FHM-15 | 2026-09-05 02:46:34 | 48.25795 | 14.88366 | 97° | 99km/h | 10900m | 5.5m/s | -47.3°C | 72.1% | 0hPa | 2.7V | 00:00:00 | 00:57:51 | 00:00:00 | |
| OE5MMP-10 | 2026-09-05 02:46:33 | 48.25799 | 14.88329 | 98° | 97km/h | 10896m | 3.1m/s | -47.3°C | 72.1% | 0hPa | 2.7V | 00:00:00 | 00:57:50 | 00:00:00 | |
| DO3MHA-12 | 2026-09-05 02:46:32 | 48.25802 | 14.88292 | 99° | 99km/h | 10891m | 5.3m/s | -47.2°C | 71.7% | 0hPa | 2.7V | 00:00:00 | 00:57:49 | 08:30:00 | |
| OE5DRO-10 | 2026-09-05 02:46:31 | 48.25806 | 14.88257 | 100° | 99km/h | 10887m | 3.6m/s | -47.2°C | 71.7% | 0hPa | 2.7V | 00:00:00 | 00:00:00 | 00:00:00 | |
| OE3MUC-15 | 2026-09-05 02:46:30 | 48.25810 | 14.88221 | 100° | 99km/h | 10883m | 5.3m/s | -47.1°C | 71.7% | 0hPa | 2.7V | 00:00:00 | 00:00:00 | 00:00:00 | |
| PETON7-10 | 2026-09-05 02:46:29 | 48.25814 | 14.88183 | 98° | 99km/h | 10878m | 2.9m/s | -47.1°C | 71.4% | 0hPa | 2.7V | 00:00:00 | 00:00:00 | 00:00:00 | |
| OE5WHR-10 | 2026-09-05 02:46:28 | 48.25817 | 14.88146 | 97° | 99km/h | 10875m | 4.8m/s | -47.1°C | 70.0% | 0hPa | 2.7V | 00:00:00 | 00:00:00 | 00:00:00 | |
| OE3MUC-15 | 2026-09-05 02:46:26 | 48.25823 | 14.88073 | 99° | 99km/h | 10865m | 5.7m/s | -47.0°C | 69.9% | 0hPa | 2.7V | 00:00:00 | 00:00:00 | 08:30:00 | |
| OE5MMP-10 | 2026-09-05 02:46:23 | 48.25834 | 14.87962 | 97° | 97km/h | 10854m | 3.3m/s | -46.8°C | 69.4% | 0hPa | 2.7V | 00:00:00 | 00:57:40 | 00:00:00 | |
| OE3MUC-15 | 2026-09-05 02:46:22 | 48.25836 | 14.87925 | 97° | 99km/h | 10851m | 3.8m/s | -46.8°C | 68.4% | 0hPa | 2.7V | 00:00:00 | 00:00:00 | 00:00:00 | |
| S52SK | 2026-09-05 02:46:19 | 48.25843 | 14.87849 | 100° | 99km/h | 10841m | 4.8m/s | -46.8°C | 0% | 0hPa | 2.7V | 00:00:00 | 00:00:00 | 00:00:00 | |
| OE3MUC-15 | 2026-09-05 02:46:18 | 48.25850 | 14.87777 | 98° | 97km/h | 10833m | 5.3m/s | -46.6°C | 69.0% | 0hPa | 2.7V | 00:00:00 | 00:00:00 | 00:00:00 | |
| PG1ADW-2 | 2026-09-05 02:46:16 | 48.25856 | 14.87704 | 98° | 99km/h | 10826m | 3.4m/s | -46.5°C | 68.7% | 0hPa | 2.7V | 00:00:00 | 00:57:33 | 08:30:00 | |
| OE3MUC-15 | 2026-09-05 02:46:14 | 48.25865 | 14.87633 | 101° | 99km/h | 10818m | 3.7m/s | -46.5°C | 68.0% | 0hPa | 2.7V | 00:00:00 | 00:00:00 | 00:00:00 | |
| OE5MMP-10 | 2026-09-05 02:46:13 | 48.25869 | 14.87596 | 100° | 100km/h | 10814m | 4.8m/s | -46.4°C | 68.1% | 0hPa | 2.9V | 00:00:00 | 00:57:30 | 00:00:00 | |
| DO3MHA-12 | 2026-09-05 02:46:12 | 48.25873 | 14.87559 | 100° | 100km/h | 10810m | 2.9m/s | -46.4°C | 68.0% | 0hPa | 2.9V | 00:00:00 | 00:57:29 | 00:00:00 | |
| OE3MUC-15 | 2026-09-05 02:46:10 | 48.25882 | 14.87484 | 101° | 102km/h | 10800m | 7.0m/s | -46.3°C | 66.8% | 0hPa | 2.9V | 00:00:00 | 00:00:00 | 00:00:00 | |
| OE5WHR-10 | 2026-09-05 02:46:07 | 48.25894 | 14.87369 | 99° | 97km/h | 10786m | 3.2m/s | -46.1°C | 65.8% | 0hPa | 2.9V | 00:00:00 | 00:57:24 | 00:00:00 | |
| OE3MUC-15 | 2026-09-05 02:46:06 | 48.25898 | 14.87332 | 99° | 97km/h | 10781m | 5.9m/s | -46.1°C | 65.1% | 0hPa | 2.9V | 00:00:00 | 00:57:23 | 00:00:00 | |
| OE5FHM-15 | 2026-09-05 02:46:04 | 48.25905 | 14.87259 | 97° | 99km/h | 10773m | 6.7m/s | -46.0°C | 63.0% | 0hPa | 2.9V | 00:00:00 | 00:57:21 | 00:00:00 | |
| DB0NH | 2026-09-05 02:46:03 | 48.25907 | 14.87223 | 94° | 106km/h | 10766m | 7.4m/s | -45.9°C | 62.6% | 0hPa | 2.9V | 00:00:00 | 00:57:20 | 00:00:00 | |
| DO3MHA-12 | 2026-09-05 02:46:02 | 48.25909 | 14.87186 | 95° | 100km/h | 10760m | 5.1m/s | -45.9°C | 62.3% | 0hPa | 2.9V | 00:00:00 | 00:57:19 | 00:00:00 | |
| OM5KV | 2026-09-05 02:46:01 | 48.25910 | 14.87150 | 95° | 95km/h | 10755m | 6.3m/s | -45.9°C | 57.2% | 0hPa | 2.7V | 00:00:00 | 00:00:00 | 00:00:00 | |
| OE5DXL-15 | 2026-09-05 02:46:00 | 48.25912 | 14.87114 | 96° | 95km/h | 10749m | 5.2m/s | -45.8°C | 62.1% | 0hPa | 2.7V | 00:00:00 | 00:00:00 | 00:00:00 | |
| PETON7-10 | 2026-09-05 02:45:59 | 48.25915 | 14.87076 | 96° | 97km/h | 10744m | 6.1m/s | -45.8°C | 61.6% | 0hPa | 2.7V | 00:00:00 | 00:00:00 | 00:00:00 | |
| OE3MUC-15 | 2026-09-05 02:45:58 | 48.25918 | 14.87037 | 98° | 102km/h | 10738m | 4.7m/s | -45.7°C | 61.8% | 0hPa | 2.9V | 00:00:00 | 00:00:00 | 00:00:00 | |
| PG1ADW-2 | 2026-09-05 02:45:56 | 48.25925 | 14.86959 | 98° | 93km/h | 10730m | 4.4m/s | -45.6°C | 61.6% | 0hPa | 2.9V | 00:00:00 | 00:00:00 | 00:00:00 | |
| OK1ALN | 2026-09-05 02:45:55 | 48.25925 | 14.86959 | 99° | 100km/h | 10730m | 4.4m/s | 0°C | 0% | 0hPa | 2.9V | 00:00:00 | 00:00:00 | 00:00:00 | |
| OE3MUC-15 | 2026-09-05 02:45:54 | 48.25934 | 14.86885 | 103° | 99km/h | 10721m | 3.8m/s | -45.6°C | 61.4% | 0hPa | 2.9V | 00:00:00 | 00:00:00 | 00:00:00 | |
| OE5MMP-10 | 2026-09-05 02:45:53 | 48.25940 | 14.86848 | 105° | 95km/h | 10717m | 4.0m/s | -45.5°C | 61.3% | 0hPa | 2.9V | 00:00:00 | 00:57:10 | 00:00:00 | |
| DO3MHA-12 | 2026-09-05 02:45:52 | 48.25947 | 14.86812 | 108° | 95km/h | 10713m | 3.3m/s | -45.5°C | 60.7% | 0hPa | 2.9V | 00:00:00 | 00:57:09 | 00:00:00 | |
| OE3MUC-15 | 2026-09-05 02:45:50 | 48.25962 | 14.86744 | 110° | 89km/h | 10707m | 1.0m/s | -45.5°C | 61.1% | 0hPa | 2.9V | 00:00:00 | 00:00:00 | 08:30:00 | |
| OE3JTB-15 | 2026-09-05 02:45:47 | 48.25981 | 14.86646 | 100° | 93km/h | 10695m | 7.6m/s | -45.3°C | 58.6% | 0hPa | 2.7V | 00:00:00 | 00:00:00 | 00:00:00 | |
| OE5WHR-10 | 2026-09-05 02:45:46 | 48.25984 | 14.86611 | 97° | 93km/h | 10687m | 9.5m/s | -45.2°C | 58.1% | 0hPa | 2.7V | 00:00:00 | 00:00:00 | 00:00:00 | |
| PETON7-10 | 2026-09-05 02:45:44 | 48.25986 | 14.86537 | 90° | 93km/h | 10670m | 7.6m/s | -45.1°C | 58.4% | 0hPa | 2.9V | 00:00:00 | 00:00:00 | 00:00:00 | |
| OE5MMP-10 | 2026-09-05 02:45:43 | 48.25986 | 14.86500 | 90° | 91km/h | 10664m | 5.8m/s | -45.0°C | 58.6% | 0hPa | 2.9V | 00:00:00 | 00:57:00 | 00:00:00 | |
| OE3MUC-15 | 2026-09-05 02:45:42 | 48.25986 | 14.86465 | 92° | 86km/h | 10658m | 5.5m/s | -45.0°C | 58.1% | 0hPa | 2.9V | 00:00:00 | 00:00:00 | 00:00:00 | |
| OM5KV | 2026-09-05 02:45:38 | 48.25988 | 14.86369 | 94° | 88km/h | 10640m | 7.8m/s | -44.9°C | 50.8% | 0hPa | 2.9V | 00:00:00 | 00:00:00 | 00:00:00 | |
| PG1ADW-2 | 2026-09-05 02:45:36 | 48.25993 | 14.86261 | 97° | 93km/h | 10620m | 7.8m/s | -44.7°C | 51.3% | 0hPa | 2.9V | 00:00:00 | 00:00:00 | 00:00:00 | |
| OE5DRO-10 | 2026-09-05 02:45:34 | 48.25998 | 14.86189 | 96° | 93km/h | 10605m | 4.9m/s | -44.5°C | 48.3% | 0hPa | 2.9V | 00:00:00 | 00:00:00 | 00:00:00 | |
| OE5FHM-15 | 2026-09-05 02:45:33 | 48.26000 | 14.86154 | 94° | 97km/h | 10599m | 6.6m/s | -44.5°C | 45.7% | 0hPa | 2.9V | 00:00:00 | 00:56:50 | 00:00:00 | |
| DO3MHA-12 | 2026-09-05 02:45:32 | 48.26002 | 14.86118 | 95° | 93km/h | 10594m | 5.1m/s | -44.4°C | 43.3% | 0hPa | 2.9V | 00:00:00 | 00:56:49 | 00:00:00 | |
| OE5DXL-15 | 2026-09-05 02:45:30 | 48.26005 | 14.86046 | 95° | 95km/h | 10580m | 5.7m/s | -44.3°C | 38.0% | 0hPa | 2.7V | 00:00:00 | 00:00:00 | 08:30:00 | |
| PETON7-10 | 2026-09-05 02:45:29 | 48.26007 | 14.86012 | 93° | 93km/h | 10575m | 4.4m/s | -44.3°C | 35.5% | 0hPa | 2.9V | 00:00:00 | 00:56:46 | 00:00:00 | |
| OE3OSB-13 | 2026-09-05 02:45:27 | 48.26010 | 14.85908 | 93° | 89km/h | 10563m | 4.4m/s | -44.2°C | 24.0% | -1.0hPa | 2.9V | 00:00:00 | 00:00:00 | 00:00:00 | |
| OE5WHR-10 | 2026-09-05 02:45:25 | 48.26011 | 14.85873 | 94° | 97km/h | 10559m | 3.4m/s | -44.2°C | 24.3% | 0hPa | 2.9V | 00:00:00 | 00:00:00 | 00:00:00 | |
| OE5MMP-10 | 2026-09-05 02:45:23 | 48.26014 | 14.85803 | 94° | 95km/h | 10550m | 3.3m/s | -44.2°C | 20.0% | 0hPa | 2.9V | 00:00:00 | 00:56:40 | 00:00:00 | |
| DO3MHA-12 | 2026-09-05 02:45:22 | 48.26016 | 14.85767 | 94° | 95km/h | 10545m | 6.0m/s | -44.2°C | 19.5% | 0hPa | 2.9V | 00:00:00 | 00:56:39 | 00:00:00 | |
| OK1ALN | 2026-09-05 02:45:21 | 48.26016 | 14.85767 | 95° | 93km/h | 10545m | 6.0m/s | 0°C | 0% | 0hPa | 2.9V | 00:00:00 | 00:00:00 | 00:00:00 | |
| OE3MUC-15 | 2026-09-05 02:45:18 | 48.26021 | 14.85626 | 94° | 95km/h | 10528m | 3.7m/s | -44.2°C | 20.1% | 0hPa | 2.9V | 00:00:00 | 00:00:00 | 00:00:00 | |
| PG1ADW-2 | 2026-09-05 02:45:16 | 48.26024 | 14.85554 | 95° | 99km/h | 10520m | 5.1m/s | -44.2°C | 20.2% | 0hPa | 2.9V | 00:00:00 | 00:00:00 | 00:00:00 | |
| OE5DRO-10 | 2026-09-05 02:45:15 | 48.26026 | 14.85517 | 95° | 99km/h | 10516m | 3.4m/s | -44.2°C | 20.4% | 0hPa | 2.9V | 00:00:00 | 00:00:00 | 00:00:00 | |
| PETON7-10 | 2026-09-05 02:45:14 | 48.26028 | 14.85480 | 95° | 99km/h | 10511m | 6.1m/s | -44.2°C | 20.6% | 0hPa | 2.9V | 00:00:00 | 00:00:00 | 00:00:00 | |
| OE5MMP-10 | 2026-09-05 02:45:13 | 48.26030 | 14.85443 | 95° | 99km/h | 10506m | 3.7m/s | -44.2°C | 21.0% | 0hPa | 2.7V | 00:00:00 | 00:56:30 | 00:00:00 | |
| DO3MHA-12 | 2026-09-05 02:45:12 | 48.26032 | 14.85406 | 95° | 99km/h | 10501m | 5.7m/s | -44.2°C | 21.1% | 0hPa | 2.7V | 00:00:00 | 00:56:29 | 00:00:00 | |
| OM5KV | 2026-09-05 02:45:11 | 48.26032 | 14.85406 | 96° | 99km/h | 10501m | 5.7m/s | -44.3°C | 18.3% | 0hPa | 2.7V | 00:00:00 | 00:00:00 | 00:00:00 | |
| OE3MUC-15 | 2026-09-05 02:45:10 | 48.26035 | 14.85331 | 94° | 97km/h | 10492m | 5.4m/s | -44.3°C | 21.9% | 0hPa | 2.7V | 00:00:00 | 00:00:00 | 00:00:00 | |
| OE3MUC-15 | 2026-09-05 02:45:06 | 48.26037 | 14.85184 | 90° | 99km/h | 10473m | 4.8m/s | -44.2°C | 23.0% | 0hPa | 2.7V | 00:00:00 | 00:00:00 | 00:00:00 | |
| OM5KV | 2026-09-05 02:45:05 | 48.26038 | 14.85184 | 90° | 97km/h | 10473m | 4.8m/s | -44.3°C | 20.0% | 0hPa | 2.7V | 00:00:00 | 00:00:00 | 00:00:00 | |
| OE5WHR-10 | 2026-09-05 02:45:04 | 48.26036 | 14.85109 | 90° | 104km/h | 10465m | 4.7m/s | -44.2°C | 23.3% | 0hPa | 2.7V | 00:00:00 | 00:56:21 | 00:00:00 | |
| OE5FHM-15 | 2026-09-05 02:45:02 | 48.26036 | 14.85034 | 90° | 108km/h | 10456m | 4.6m/s | -44.2°C | 23.4% | 0hPa | 2.7V | 00:00:00 | 00:56:19 | 00:00:00 | |
| OE5DXL-15 | 2026-09-05 02:45:00 | 48.26036 | 14.84958 | 91° | 106km/h | 10448m | 4.6m/s | -44.1°C | 23.5% | 0hPa | 2.7V | 00:00:00 | 00:00:00 | 00:00:00 | |
| PETON7-10 | 2026-09-05 02:44:59 | 48.26036 | 14.84919 | 91° | 104km/h | 10442m | 5.7m/s | -44.1°C | 23.6% | 0hPa | 2.7V | 00:00:00 | 00:00:00 | 00:00:00 | |
| OE3MUC-15 | 2026-09-05 02:44:58 | 48.26036 | 14.84881 | 91° | 104km/h | 10438m | 3.4m/s | -44.0°C | 23.6% | 0hPa | 2.7V | 00:00:00 | 00:00:00 | 00:00:00 | |
| PG1ADW-2 | 2026-09-05 02:44:56 | 48.26038 | 14.84802 | 92° | 106km/h | 10429m | 4.0m/s | -44.0°C | 23.7% | 0hPa | 2.7V | 00:00:00 | 00:56:13 | 00:00:00 | |
| OM5KV | 2026-09-05 02:44:55 | 48.26038 | 14.84802 | 93° | 104km/h | 10429m | 4.1m/s | -44.0°C | 20.8% | 0hPa | 2.7V | 00:00:00 | 00:00:00 | 00:00:00 | |
| OE3MUC-15 | 2026-09-05 02:44:54 | 48.26039 | 14.84723 | 92° | 104km/h | 10420m | 5.2m/s | -43.9°C | 23.7% | 0hPa | 2.7V | 00:00:00 | 00:00:00 | 00:00:00 | |
| OE5MMP-10 | 2026-09-05 02:44:53 | 48.26040 | 14.84684 | 92° | 104km/h | 10415m | 4.2m/s | -43.9°C | 23.9% | 0hPa | 2.7V | 00:00:00 | 00:56:10 | 00:00:00 | |
| OE3MUC-15 | 2026-09-05 02:44:50 | 48.26041 | 14.84565 | 91° | 104km/h | 10401m | 5.5m/s | -43.8°C | 24.2% | 0hPa | 2.7V | 00:00:00 | 00:00:00 | 00:00:00 | |
| DO3MHA-12 | 2026-09-05 02:44:49 | 48.26041 | 14.84525 | 92° | 104km/h | 10396m | 3.2m/s | -43.8°C | 24.4% | 0hPa | 2.7V | 00:00:00 | 00:56:06 | 00:00:00 | |
| OE3MUC-15 | 2026-09-05 02:44:46 | 48.26042 | 14.84407 | 91° | 106km/h | 10384m | 4.9m/s | -43.8°C | 24.5% | 0hPa | 2.7V | 00:00:00 | 00:00:00 | 00:00:00 | |
| PETON7-10 | 2026-09-05 02:44:44 | 48.26043 | 14.84327 | 91° | 110km/h | 10374m | 3.9m/s | -43.7°C | 24.6% | 0hPa | 2.7V | 00:00:00 | 00:56:01 | 00:00:00 | |
| OE5WHR-10 | 2026-09-05 02:44:43 | 48.26043 | 14.84286 | 90° | 110km/h | 10370m | 5.8m/s | -43.7°C | 24.5% | 0hPa | 2.7V | 00:00:00 | 00:00:00 | 00:00:00 | |
| OE3MUC-15 | 2026-09-05 02:44:42 | 48.26042 | 14.84245 | 90° | 110km/h | 10365m | 3.6m/s | -43.7°C | 24.7% | 0hPa | 2.7V | 00:00:00 | 00:00:00 | 00:00:00 | |
| OM5KV | 2026-09-05 02:44:40 | 48.26042 | 14.84204 | 91° | 108km/h | 10360m | 5.1m/s | -43.7°C | 21.8% | 0hPa | 2.7V | 00:00:00 | 00:00:00 | 00:00:00 | |
| OE3MUC-15 | 2026-09-05 02:44:38 | 48.26042 | 14.84080 | 91° | 110km/h | 10347m | 3.9m/s | -43.5°C | 24.7% | 0hPa | 2.7V | 00:00:00 | 00:00:00 | 08:30:00 | |
| OM5KV | 2026-09-05 02:44:37 | 48.26042 | 14.84038 | 92° | 108km/h | 10343m | 4.0m/s | -43.6°C | 21.8% | 0hPa | 2.9V | 00:00:00 | 00:00:00 | 00:00:00 | |
| PG1ADW-2 | 2026-09-05 02:44:36 | 48.26043 | 14.83997 | 91° | 110km/h | 10338m | 5.8m/s | -43.5°C | 24.6% | 0hPa | 2.9V | 00:00:00 | 00:00:00 | 00:00:00 | |
| OE3MUC-15 | 2026-09-05 02:44:34 | 48.26043 | 14.83914 | 91° | 110km/h | 10328m | 5.5m/s | -43.4°C | 24.7% | 0hPa | 2.9V | 00:00:00 | 00:00:00 | 00:00:00 | |
| OE5MMP-10 | 2026-09-05 02:44:33 | 48.26044 | 14.83873 | 91° | 110km/h | 10324m | 4.4m/s | -43.4°C | 24.9% | 0hPa | 2.9V | 00:00:00 | 00:55:50 | 00:00:00 | |
| OE5DXL-15 | 2026-09-05 02:44:30 | 48.26044 | 14.83748 | 90° | 111km/h | 10308m | 4.2m/s | -43.3°C | 25.6% | 0hPa | 2.9V | 00:00:00 | 00:00:00 | 00:00:00 | |
| PETON7-10 | 2026-09-05 02:44:29 | 48.26043 | 14.83706 | 89° | 110km/h | 10303m | 4.9m/s | -43.3°C | 26.0% | 0hPa | 2.9V | 00:00:00 | 00:00:00 | 08:30:00 | |
| DB0NH | 2026-09-05 02:44:28 | 48.26042 | 14.83665 | 88° | 111km/h | 10299m | 3.1m/s | -43.4°C | 26.4% | 0hPa | 2.9V | 00:00:00 | 00:55:45 | 00:00:00 | |
| OE3MUC-15 | 2026-09-05 02:44:26 | 48.26041 | 14.83582 | 90° | 106km/h | 10290m | 3.9m/s | -43.5°C | 27.1% | 0hPa | 2.7V | 00:00:00 | 00:00:00 | 00:00:00 | |
| OE3OSB-13 | 2026-09-05 02:44:25 | 48.26040 | 14.83502 | 89° | 104km/h | 10282m | 3.2m/s | -43.6°C | 24.0% | -1.0hPa | 2.9V | 00:00:00 | 00:00:00 | 00:00:00 | |
| OE5MMP-10 | 2026-09-05 02:44:23 | 48.26040 | 14.83462 | 89° | 110km/h | 10278m | 5.2m/s | -43.5°C | 27.0% | 0hPa | 2.9V | 00:00:00 | 00:55:40 | 00:00:00 | |
| OE3MUC-15 | 2026-09-05 02:44:22 | 48.26039 | 14.83421 | 89° | 108km/h | 10273m | 4.8m/s | -43.5°C | 26.8% | 0hPa | 2.9V | 00:00:00 | 00:00:00 | 00:00:00 | |
| OE3JTB-15 | 2026-09-05 02:44:20 | 48.26038 | 14.83341 | 89° | 113km/h | 10262m | 4.2m/s | -43.4°C | 26.6% | 0hPa | 2.9V | 00:00:00 | 00:00:00 | 00:00:00 | |
| OE3MUC-15 | 2026-09-05 02:44:18 | 48.26035 | 14.83258 | 87° | 113km/h | 10252m | 3.5m/s | -43.3°C | 26.6% | 0hPa | 2.9V | 00:00:00 | 00:00:00 | 00:00:00 | |
| DO3MHA-12 | 2026-09-05 02:44:17 | 48.26034 | 14.83215 | 87° | 113km/h | 10247m | 6.3m/s | -43.3°C | 26.3% | 0hPa | 2.9V | 00:00:00 | 00:55:34 | 00:00:00 | |
| PG1ADW-2 | 2026-09-05 02:44:16 | 48.26032 | 14.83173 | 87° | 113km/h | 10242m | 4.4m/s | -43.2°C | 26.5% | 0hPa | 2.9V | 00:00:00 | 00:00:00 | 00:00:00 | |
| OE3MUC-15 | 2026-09-05 02:44:14 | 48.26028 | 14.83087 | 88° | 110km/h | 10233m | 3.9m/s | -43.2°C | 26.8% | 0hPa | 2.7V | 00:00:00 | 00:00:00 | 00:00:00 | |
| OE5MMP-10 | 2026-09-05 02:44:13 | 48.26027 | 14.83045 | 88° | 111km/h | 10228m | 4.3m/s | -43.1°C | 27.1% | 0hPa | 2.9V | 00:00:00 | 00:55:30 | 00:00:00 | |
| OM5KV | 2026-09-05 02:44:12 | 48.26027 | 14.83045 | 89° | 110km/h | 10228m | 4.4m/s | -43.2°C | 24.0% | 0hPa | 2.9V | 00:00:00 | 00:00:00 | 00:00:00 | |
| OE3MUC-15 | 2026-09-05 02:44:10 | 48.26024 | 14.82920 | 89° | 111km/h | 10216m | 4.6m/s | -43.0°C | 27.2% | 0hPa | 2.9V | 00:00:00 | 00:00:00 | 00:00:00 | |
| OE3MUC-15 | 2026-09-05 02:44:06 | 48.26018 | 14.82751 | 86° | 113km/h | 10198m | 4.2m/s | -42.9°C | 27.7% | 0hPa | 2.9V | 00:00:00 | 00:00:00 | 00:00:00 | |
| DO3MHA-12 | 2026-09-05 02:44:05 | 48.26015 | 14.82708 | 86° | 115km/h | 10193m | 5.4m/s | -42.9°C | 27.6% | 0hPa | 2.9V | 00:00:00 | 00:55:22 | 00:00:00 | |
| OE5MMP-10 | 2026-09-05 02:44:03 | 48.26012 | 14.82623 | 87° | 117km/h | 10183m | 5.5m/s | -42.8°C | 27.8% | 0hPa | 2.9V | 00:00:00 | 00:55:20 | 08:30:00 | |
| OE3MUC-15 | 2026-09-05 02:44:02 | 48.26010 | 14.82579 | 88° | 115km/h | 10178m | 4.3m/s | -42.8°C | 28.3% | 0hPa | 2.7V | 00:00:00 | 00:00:00 | 08:30:00 | |
| OE5WHR-10 | 2026-09-05 02:44:01 | 48.26009 | 14.82536 | 88° | 117km/h | 10173m | 5.8m/s | -42.8°C | 28.1% | 0hPa | 2.9V | 00:00:00 | 00:55:18 | 00:00:00 | |
| OE5DXL-15 | 2026-09-05 02:44:00 | 48.26007 | 14.82493 | 88° | 115km/h | 10168m | 3.7m/s | -42.8°C | 28.2% | 0hPa | 2.9V | 00:00:00 | 00:00:00 | 00:00:00 | |
| PETON7-10 | 2026-09-05 02:43:59 | 48.26006 | 14.82449 | 89° | 117km/h | 10163m | 6.1m/s | -42.7°C | 28.0% | 0hPa | 2.7V | 00:00:00 | 00:55:16 | 00:00:00 | |
| PG1ADW-2 | 2026-09-05 02:43:56 | 48.26005 | 14.82316 | 89° | 115km/h | 10148m | 3.7m/s | -42.6°C | 27.5% | 0hPa | 2.7V | 00:00:00 | 00:00:00 | 00:00:00 | |
| OE3MUC-15 | 2026-09-05 02:43:54 | 48.26002 | 14.82227 | 88° | 117km/h | 10139m | 4.1m/s | -42.5°C | 27.4% | 0hPa | 2.7V | 00:00:00 | 00:00:00 | 00:00:00 | |
| OE5MMP-10 | 2026-09-05 02:43:53 | 48.26001 | 14.82183 | 86° | 115km/h | 10134m | 4.7m/s | -42.5°C | 27.3% | 0hPa | 2.7V | 00:00:00 | 00:55:10 | 00:00:00 | |
| OE3JTB-15 | 2026-09-05 02:43:51 | 48.25995 | 14.82095 | 86° | 115km/h | 10124m | 4.4m/s | -42.4°C | 27.1% | 0hPa | 2.7V | 00:00:00 | 00:55:08 | 00:00:00 | |
| OE3MUC-15 | 2026-09-05 02:43:50 | 48.25993 | 14.82052 | 85° | 115km/h | 10119m | 5.5m/s | -42.4°C | 26.8% | 0hPa | 2.7V | 00:00:00 | 00:00:00 | 00:00:00 | |
| S52SK | 2026-09-05 02:43:49 | 48.25993 | 14.82052 | 86° | 113km/h | 10119m | 5.5m/s | -42.4°C | 0% | 0hPa | 2.9V | 00:00:00 | 00:00:00 | 00:00:00 | |
| OE3MUC-15 | 2026-09-05 02:43:46 | 48.25982 | 14.81879 | 85° | 117km/h | 10100m | 5.3m/s | -42.2°C | 26.8% | 0hPa | 2.9V | 00:00:00 | 00:00:00 | 00:00:00 | |
| DO3MHA-12 | 2026-09-05 02:43:45 | 48.25980 | 14.81835 | 86° | 115km/h | 10095m | 3.8m/s | -42.2°C | 26.9% | 0hPa | 2.9V | 00:00:00 | 00:55:02 | 00:00:00 | |
| PETON7-10 | 2026-09-05 02:43:44 | 48.25977 | 14.81791 | 85° | 115km/h | 10090m | 6.5m/s | -42.2°C | 26.7% | 0hPa | 2.9V | 00:00:00 | 00:00:00 | 00:00:00 | |
| OE5MMP-10 | 2026-09-05 02:43:43 | 48.25974 | 14.81746 | 85° | 113km/h | 10085m | 2.9m/s | -42.1°C | 27.2% | 0hPa | 2.9V | 00:00:00 | 00:55:00 | 00:00:00 | |
| OE5WHR-10 | 2026-09-05 02:43:40 | 48.25966 | 14.81614 | 85° | 113km/h | 10072m | 4.9m/s | -42.0°C | 26.8% | 0hPa | 2.9V | 00:00:00 | 00:00:00 | 08:30:00 | |
| S52SK | 2026-09-05 02:43:38 | 48.25964 | 14.81572 | 86° | 113km/h | 10067m | 5.0m/s | -42.0°C | 0% | 0hPa | 2.9V | 00:00:00 | 00:00:00 | 00:00:00 | |
| PG1ADW-2 | 2026-09-05 02:43:36 | 48.25956 | 14.81445 | 84° | 113km/h | 10051m | 5.8m/s | -41.9°C | 27.3% | 0hPa | 2.9V | 00:00:00 | 00:54:53 | 00:00:00 | |
| DO3MHA-12 | 2026-09-05 02:43:35 | 48.25953 | 14.81403 | 84° | 113km/h | 10047m | 3.2m/s | -41.9°C | 27.5% | 0hPa | 2.9V | 00:00:00 | 00:54:52 | 00:00:00 | |
| OM5KV | 2026-09-05 02:43:34 | 48.25953 | 14.81403 | 85° | 113km/h | 10047m | 3.3m/s | -41.9°C | 24.6% | 0hPa | 2.9V | 00:00:00 | 00:00:00 | 00:00:00 | |
| OE5MMP-10 | 2026-09-05 02:43:33 | 48.25946 | 14.81318 | 83° | 113km/h | 10037m | 4.4m/s | -41.8°C | 27.5% | 0hPa | 2.9V | 00:00:00 | 00:54:50 | 00:00:00 | |
| OE5DXL-15 | 2026-09-05 02:43:30 | 48.25936 | 14.81189 | 84° | 113km/h | 10023m | 4.4m/s | -41.7°C | 28.1% | 0hPa | 2.9V | 00:00:00 | 00:00:00 | 00:00:00 | |
| PETON7-10 | 2026-09-05 02:43:29 | 48.25932 | 14.81146 | 84° | 113km/h | 10018m | 4.3m/s | -41.7°C | 27.8% | 0hPa | 2.9V | 00:00:00 | 00:00:00 | 00:00:00 | |
| DB0NH | 2026-09-05 02:43:28 | 48.25929 | 14.81103 | 84° | 113km/h | 10014m | 4.8m/s | 0°C | 0% | 0hPa | 2.9V | 00:00:00 | 00:54:45 | 00:00:00 | |
| DO3MHA-12 | 2026-09-05 02:43:25 | 48.25921 | 14.80974 | 85° | 113km/h | 10000m | 4.0m/s | -41.5°C | 27.7% | 0hPa | 2.9V | 00:00:00 | 00:54:42 | 00:00:00 | |
| OM5KV | 2026-09-05 02:43:24 | 48.25921 | 14.80974 | 85° | 115km/h | 10000m | 4.1m/s | -41.6°C | 24.9% | 0hPa | 2.9V | 00:00:00 | 00:00:00 | 00:00:00 | |
| OE5MMP-10 | 2026-09-05 02:43:23 | 48.25914 | 14.80888 | 83° | 111km/h | 9990m | 3.4m/s | -41.4°C | 27.8% | 0hPa | 2.9V | 00:00:00 | 00:54:40 | 00:00:00 | |
| OE3JTB-15 | 2026-09-05 02:43:22 | 48.25911 | 14.80845 | 84° | 111km/h | 9985m | 6.3m/s | -41.4°C | 27.6% | 0hPa | 2.9V | 00:00:00 | 00:00:00 | 00:00:00 | |
| OE5DRO-10 | 2026-09-05 02:43:21 | 48.25907 | 14.80802 | 82° | 111km/h | 9980m | 3.2m/s | -41.4°C | 27.7% | 0hPa | 2.9V | 00:00:00 | 00:00:00 | 00:00:00 | |
| OE5WHR-10 | 2026-09-05 02:43:19 | 48.25898 | 14.80718 | 81° | 113km/h | 9971m | 3.9m/s | -41.3°C | 27.3% | 0hPa | 2.9V | 00:00:00 | 00:00:00 | 00:00:00 | |
| OE3MUC-15 | 2026-09-05 02:43:18 | 48.25893 | 14.80676 | 81° | 111km/h | 9966m | 4.0m/s | -41.2°C | 27.0% | 0hPa | 2.9V | 00:00:00 | 00:00:00 | 00:00:00 | |
| PG1ADW-2 | 2026-09-05 02:43:16 | 48.25884 | 14.80593 | 81° | 113km/h | 9956m | 5.9m/s | -41.1°C | 27.0% | 0hPa | 2.9V | 00:00:00 | 00:00:00 | 08:30:00 | |
| DO3MHA-12 | 2026-09-05 02:43:15 | 48.25879 | 14.80551 | 82° | 111km/h | 9952m | 2.6m/s | -41.1°C | 27.1% | 0hPa | 2.7V | 00:00:00 | 00:54:32 | 00:00:00 | |
| PETON7-10 | 2026-09-05 02:43:14 | 48.25875 | 14.80510 | 81° | 113km/h | 9948m | 5.7m/s | -41.1°C | 26.7% | 0hPa | 2.7V | 00:00:00 | 00:54:31 | 00:00:00 | |
| OE5MMP-10 | 2026-09-05 02:43:13 | 48.25871 | 14.80469 | 81° | 111km/h | 9941m | 6.8m/s | -41.0°C | 26.6% | 0hPa | 2.7V | 00:00:00 | 00:54:30 | 00:00:00 | |
| OM5KV | 2026-09-05 02:43:12 | 48.25871 | 14.80469 | 81° | 110km/h | 9941m | 6.9m/s | -41.1°C | 23.9% | 0hPa | 2.7V | 00:00:00 | 00:00:00 | 00:00:00 | |
| OE3MUC-15 | 2026-09-05 02:43:10 | 48.25859 | 14.80345 | 83° | 115km/h | 9923m | 4.8m/s | -40.9°C | 27.2% | 0hPa | 2.7V | 00:00:00 | 00:54:27 | 00:00:00 | |
| OE5FHM-15 | 2026-09-05 02:43:06 | 48.25841 | 14.80173 | 83° | 111km/h | 9903m | 5.8m/s | -40.8°C | 27.8% | 0hPa | 2.7V | 00:00:00 | 00:54:23 | 00:00:00 | |
| DO3MHA-12 | 2026-09-05 02:43:05 | 48.25838 | 14.80131 | 83° | 113km/h | 9898m | 3.1m/s | -40.7°C | 28.0% | 0hPa | 2.7V | 00:00:00 | 00:54:22 | 08:30:00 | |
| OE5MMP-10 | 2026-09-05 02:43:03 | 48.25831 | 14.80048 | 83° | 113km/h | 9888m | 5.1m/s | -40.6°C | 27.8% | 0hPa | 2.9V | 00:00:00 | 00:54:20 | 00:00:00 | |
| OE3MUC-15 | 2026-09-05 02:43:02 | 48.25827 | 14.80005 | 83° | 115km/h | 9883m | 4.8m/s | -40.6°C | 27.9% | 0hPa | 2.9V | 00:00:00 | 00:00:00 | 00:00:00 | |
| OE3OSB-13 | 2026-09-05 02:42:52 | 48.25778 | 14.79542 | 83° | 106km/h | 9822m | 5.6m/s | -40.1°C | 23.6% | -1.0hPa | 2.7V | 00:00:00 | 00:00:00 | 00:00:00 | |
| DO3MHA-12 | 2026-09-05 02:42:50 | 48.25775 | 14.79501 | 84° | 110km/h | 9817m | 3.0m/s | -40.0°C | 26.5% | 0hPa | 2.7V | 00:00:00 | 00:54:07 | 00:00:00 | |
| OM5KV | 2026-09-05 02:42:48 | 48.25772 | 14.79461 | 84° | 110km/h | 9813m | 5.2m/s | -40.0°C | 23.7% | 0hPa | 2.7V | 00:00:00 | 00:00:00 | 00:00:00 | |
| OE3MUC-15 | 2026-09-05 02:42:46 | 48.25759 | 14.79336 | 80° | 111km/h | 9799m | 5.9m/s | -39.8°C | 25.9% | 0hPa | 2.7V | 00:00:00 | 00:00:00 | 00:00:00 | |
| PETON7-10 | 2026-09-05 02:42:44 | 48.25748 | 14.79253 | 80° | 111km/h | 9789m | 5.9m/s | -39.7°C | 25.9% | 0hPa | 2.7V | 00:00:00 | 00:00:00 | 00:00:00 | |
| OE5DRO-10 | 2026-09-05 02:42:43 | 48.25743 | 14.79211 | 82° | 111km/h | 9784m | 3.8m/s | -39.7°C | 25.9% | 0hPa | 2.7V | 00:00:00 | 00:00:00 | 00:00:00 | |
| OE3MUC-15 | 2026-09-05 02:42:42 | 48.25739 | 14.79169 | 82° | 111km/h | 9780m | 5.3m/s | -39.6°C | 25.5% | 0hPa | 2.7V | 00:00:00 | 00:00:00 | 00:00:00 | |
| OE3MUC-15 | 2026-09-05 02:42:38 | 48.25724 | 14.79003 | 84° | 108km/h | 9758m | 6.2m/s | -39.4°C | 25.7% | 0hPa | 2.7V | 00:00:00 | 00:00:00 | 00:00:00 | |
| OE5WHR-10 | 2026-09-05 02:42:37 | 48.25721 | 14.78962 | 83° | 111km/h | 9753m | 3.6m/s | -39.4°C | 26.0% | 0hPa | 2.7V | 00:00:00 | 00:00:00 | 00:00:00 | |
| PG1ADW-2 | 2026-09-05 02:42:36 | 48.25717 | 14.78921 | 82° | 111km/h | 9748m | 5.9m/s | -39.3°C | 25.8% | 0hPa | 2.9V | 00:00:00 | 00:00:00 | 00:00:00 | |
| OE3MUC-15 | 2026-09-05 02:42:34 | 48.25708 | 14.78840 | 81° | 113km/h | 9737m | 4.8m/s | -39.3°C | 26.2% | 0hPa | 2.9V | 00:00:00 | 00:00:00 | 00:00:00 | |
| OE5MMP-10 | 2026-09-05 02:42:33 | 48.25703 | 14.78798 | 82° | 111km/h | 9733m | 5.4m/s | -39.2°C | 26.5% | 0hPa | 2.9V | 00:00:00 | 00:53:50 | 08:30:00 | |
| DO3MHA-12 | 2026-09-05 02:42:31 | 48.25695 | 14.78713 | 81° | 111km/h | 9721m | 4.7m/s | -39.2°C | 27.3% | 0hPa | 2.9V | 00:00:00 | 00:53:48 | 00:00:00 | |
| OM5KV | 2026-09-05 02:42:30 | 48.25695 | 14.78713 | 81° | 113km/h | 9721m | 4.7m/s | -39.2°C | 24.6% | 0hPa | 2.9V | 00:00:00 | 00:00:00 | 00:00:00 | |
| PETON7-10 | 2026-09-05 02:42:29 | 48.25685 | 14.78630 | 81° | 113km/h | 9711m | 5.0m/s | -39.1°C | 27.6% | 0hPa | 2.9V | 00:00:00 | 00:53:46 | 00:00:00 | |
| S52SK | 2026-09-05 02:42:28 | 48.25685 | 14.78630 | 82° | 111km/h | 9711m | 5.1m/s | -39.2°C | 0% | 0hPa | 2.9V | 00:00:00 | 00:00:00 | 00:00:00 | |
| OE3MUC-15 | 2026-09-05 02:42:26 | 48.25673 | 14.78506 | 82° | 111km/h | 9695m | 4.2m/s | -39.0°C | 28.6% | 0hPa | 2.9V | 00:00:00 | 00:00:00 | 00:00:00 | |
| NBG1-10 | 2026-09-05 02:42:25 | 48.25669 | 14.78466 | 84° | 115km/h | 9691m | 4.9m/s | 0°C | 0% | 0hPa | 2.9V | 00:00:00 | 00:53:42 | 00:00:00 | |
| OE5DRO-10 | 2026-09-05 02:42:24 | 48.25666 | 14.78423 | 85° | 113km/h | 9686m | 4.6m/s | -38.9°C | 28.7% | 0hPa | 2.9V | 00:00:00 | 00:00:00 | 00:00:00 | |
| OE5FHM-15 | 2026-09-05 02:42:23 | 48.25663 | 14.78380 | 84° | 115km/h | 9681m | 5.0m/s | -38.9°C | 28.7% | 0hPa | 2.9V | 00:00:00 | 00:53:40 | 00:00:00 | |
| OE3MUC-15 | 2026-09-05 02:42:22 | 48.25659 | 14.78337 | 84° | 115km/h | 9676m | 4.8m/s | -38.9°C | 29.0% | 0hPa | 2.9V | 00:00:00 | 00:00:00 | 00:00:00 | |
| DO3MHA-12 | 2026-09-05 02:42:21 | 48.25656 | 14.78293 | 85° | 113km/h | 9670m | 5.4m/s | -38.8°C | 28.8% | 0hPa | 2.9V | 00:00:00 | 00:53:38 | 00:00:00 | |
| OE3MUC-15 | 2026-09-05 02:42:18 | 48.25648 | 14.78163 | 85° | 111km/h | 9655m | 3.8m/s | -38.7°C | 29.5% | 0hPa | 2.9V | 00:00:00 | 00:00:00 | 00:00:00 | |
| PG1ADW-2 | 2026-09-05 02:42:16 | 48.25643 | 14.78079 | 86° | 115km/h | 9645m | 3.7m/s | -38.7°C | 29.4% | 0hPa | 2.9V | 00:00:00 | 00:53:33 | 00:00:00 | |
| OE3MUC-15 | 2026-09-05 02:42:14 | 48.25638 | 14.77996 | 85° | 113km/h | 9635m | 3.8m/s | -38.6°C | 29.2% | 0hPa | 2.9V | 00:00:00 | 00:00:00 | 08:30:00 | |
| OE5MMP-10 | 2026-09-05 02:42:13 | 48.25635 | 14.77954 | 86° | 115km/h | 9631m | 5.6m/s | -38.6°C | 29.0% | 0hPa | 2.9V | 00:00:00 | 00:53:30 | 00:00:00 | |
| DO3MHA-12 | 2026-09-05 02:42:11 | 48.25630 | 14.77868 | 86° | 115km/h | 9620m | 4.7m/s | -38.5°C | 28.9% | 0hPa | 2.9V | 00:00:00 | 00:53:28 | 00:00:00 | |
| OE3MUC-15 | 2026-09-05 02:42:10 | 48.25628 | 14.77824 | 85° | 115km/h | 9615m | 5.3m/s | -38.4°C | 28.7% | 0hPa | 2.9V | 00:00:00 | 00:00:00 | 00:00:00 | |
| OM5KV | 2026-09-05 02:42:08 | 48.25625 | 14.77780 | 86° | 115km/h | 9609m | 6.5m/s | -38.4°C | 26.0% | 0hPa | 2.9V | 00:00:00 | 00:00:00 | 00:00:00 | |
| OE3MUC-15 | 2026-09-05 02:42:06 | 48.25617 | 14.77651 | 85° | 115km/h | 9593m | 4.2m/s | -38.2°C | 28.4% | 0hPa | 2.9V | 00:00:00 | 00:00:00 | 00:00:00 | |
| OE5DRO-10 | 2026-09-05 02:42:05 | 48.25614 | 14.77608 | 86° | 117km/h | 9588m | 5.4m/s | -38.2°C | 28.5% | 0hPa | 2.9V | 00:00:00 | 00:00:00 | 00:00:00 | |
| OE5MMP-10 | 2026-09-05 02:42:03 | 48.25610 | 14.77520 | 86° | 117km/h | 9579m | 5.1m/s | -38.1°C | 28.1% | 0hPa | 2.7V | 00:00:00 | 00:53:20 | 00:00:00 | |
| OE3MUC-15 | 2026-09-05 02:42:02 | 48.25608 | 14.77476 | 86° | 117km/h | 9574m | 4.1m/s | -38.0°C | 28.2% | 0hPa | 2.9V | 00:00:00 | 00:00:00 | 00:00:00 | |
| OE3OSB-13 | 2026-09-05 02:41:50 | 48.25573 | 14.76902 | 83° | 117km/h | 9507m | 5.1m/s | -37.6°C | 27.2% | -1.0hPa | 2.9V | 00:00:00 | 00:00:00 | 00:00:00 | |
| NBG1-10 | 2026-09-05 02:41:49 | 48.25573 | 14.76902 | 84° | 115km/h | 9507m | 5.1m/s | 0°C | 0% | 0hPa | 2.9V | 00:00:00 | 00:53:06 | 00:00:00 | |
| DO3MHA-12 | 2026-09-05 02:41:47 | 48.25566 | 14.76815 | 83° | 115km/h | 9497m | 4.4m/s | -37.4°C | 29.9% | 0hPa | 2.9V | 00:00:00 | 00:53:04 | 00:00:00 | |
| OE3MUC-15 | 2026-09-05 02:41:46 | 48.25562 | 14.76772 | 84° | 113km/h | 9491m | 6.9m/s | -37.4°C | 29.8% | 0hPa | 2.7V | 00:00:00 | 00:00:00 | 00:00:00 | |
| PETON7-10 | 2026-09-05 02:41:44 | 48.25557 | 14.76686 | 85° | 117km/h | 9481m | 4.9m/s | -37.3°C | 29.4% | 0hPa | 2.7V | 00:00:00 | 00:53:01 | 00:00:00 | |
| OE5MMP-10 | 2026-09-05 02:41:43 | 48.25554 | 14.76644 | 84° | 117km/h | 9476m | 5.9m/s | -37.2°C | 29.3% | 0hPa | 2.7V | 00:00:00 | 00:53:00 | 00:00:00 | |
| OM5KV | 2026-09-05 02:41:42 | 48.25554 | 14.76644 | 84° | 110km/h | 9476m | 6.0m/s | -37.3°C | 26.8% | 0hPa | 2.7V | 00:00:00 | 00:00:00 | 00:00:00 | |
| DO3MHA-12 | 2026-09-05 02:41:37 | 48.25531 | 14.76383 | 84° | 117km/h | 9446m | 8.0m/s | -36.9°C | 28.7% | 0hPa | 2.7V | 00:00:00 | 00:52:54 | 00:00:00 | |
| PG1ADW-2 | 2026-09-05 02:41:36 | 48.25528 | 14.76338 | 85° | 115km/h | 9439m | 6.3m/s | -36.8°C | 28.8% | 0hPa | 2.7V | 00:00:00 | 00:00:00 | 00:00:00 | |
| OE5WHR-10 | 2026-09-05 02:41:34 | 48.25521 | 14.76250 | 83° | 115km/h | 9428m | 5.9m/s | -36.7°C | 28.8% | 0hPa | 2.7V | 00:00:00 | 00:00:00 | 00:00:00 | |
| OE5MMP-10 | 2026-09-05 02:41:33 | 48.25517 | 14.76206 | 82° | 117km/h | 9423m | 4.3m/s | -36.7°C | 28.6% | 0hPa | 2.9V | 00:00:00 | 00:52:50 | 00:00:00 | |
| OM5KV | 2026-09-05 02:41:31 | 48.25513 | 14.76163 | 82° | 117km/h | 9418m | 7.8m/s | -36.7°C | 25.9% | 0hPa | 2.9V | 00:00:00 | 00:00:00 | 00:00:00 | |
| OE5DXL-15 | 2026-09-05 02:41:30 | 48.25504 | 14.76073 | 82° | 115km/h | 9404m | 5.7m/s | -36.5°C | 28.2% | 0hPa | 2.9V | 00:00:00 | 00:00:00 | 00:00:00 | |
| PETON7-10 | 2026-09-05 02:41:29 | 48.25499 | 14.76029 | 82° | 115km/h | 9398m | 6.8m/s | -36.5°C | 28.3% | 0hPa | 2.9V | 00:00:00 | 00:00:00 | 00:00:00 | |
| DO3MHA-12 | 2026-09-05 02:41:27 | 48.25491 | 14.75942 | 83° | 113km/h | 9388m | 7.7m/s | -36.4°C | 27.8% | 0hPa | 2.9V | 00:00:00 | 00:52:44 | 00:00:00 | |
| OE5DRO-10 | 2026-09-05 02:41:26 | 48.25487 | 14.75897 | 83° | 115km/h | 9381m | 7.1m/s | -36.3°C | 27.9% | 0hPa | 2.9V | 00:00:00 | 00:00:00 | 00:00:00 | |
| OE5MMP-10 | 2026-09-05 02:41:23 | 48.25475 | 14.75768 | 82° | 113km/h | 9365m | 3.2m/s | -36.2°C | 27.8% | 0hPa | 2.9V | 00:00:00 | 00:52:40 | 00:00:00 | |
| OE3OSB-13 | 2026-09-05 02:41:19 | 48.25458 | 14.75555 | 82° | 111km/h | 9334m | 7.4m/s | -35.9°C | 24.4% | -1.0hPa | 2.9V | 00:00:00 | 00:00:00 | 00:00:00 | |
| NBG1-10 | 2026-09-05 02:41:16 | 48.25451 | 14.75469 | 85° | 115km/h | 9321m | 6.8m/s | 0°C | 0% | 0hPa | 2.9V | 00:00:00 | 00:52:33 | 00:00:00 | |
| DO3MHA-12 | 2026-09-05 02:41:15 | 48.25448 | 14.75427 | 84° | 113km/h | 9315m | 4.3m/s | -35.7°C | 26.7% | 0hPa | 2.9V | 00:00:00 | 00:52:32 | 08:30:00 | |
| PETON7-10 | 2026-09-05 02:41:14 | 48.25444 | 14.75384 | 83° | 115km/h | 9310m | 5.6m/s | -35.7°C | 26.7% | 0hPa | 2.9V | 00:00:00 | 00:00:00 | 00:00:00 | |
| OE5WHR-10 | 2026-09-05 02:41:13 | 48.25440 | 14.75341 | 81° | 115km/h | 9306m | 4.6m/s | -35.6°C | 27.0% | 0hPa | 2.9V | 00:00:00 | 00:00:00 | 00:00:00 | |
| OM5KV | 2026-09-05 02:41:11 | 48.25436 | 14.75299 | 81° | 111km/h | 9300m | 6.2m/s | -35.6°C | 24.7% | 0hPa | 2.9V | 00:00:00 | 00:00:00 | 00:00:00 | |
| OE3MUC-15 | 2026-09-05 02:41:10 | 48.25426 | 14.75214 | 81° | 113km/h | 9289m | 6.1m/s | -35.5°C | 27.0% | 0hPa | 2.9V | 00:00:00 | 00:00:00 | 00:00:00 | |
| OM5KV | 2026-09-05 02:41:09 | 48.25426 | 14.75214 | 82° | 113km/h | 9289m | 6.1m/s | -35.5°C | 24.8% | 0hPa | 2.9V | 00:00:00 | 00:00:00 | 00:00:00 | |
| OE5DRO-10 | 2026-09-05 02:41:07 | 48.25413 | 14.75086 | 81° | 115km/h | 9273m | 6.9m/s | -35.3°C | 27.0% | 0hPa | 2.9V | 00:00:00 | 00:00:00 | 08:30:00 | |
| OE3MUC-15 | 2026-09-05 02:41:06 | 48.25409 | 14.75043 | 82° | 115km/h | 9267m | 5.7m/s | -35.3°C | 27.0% | 0hPa | 2.9V | 00:00:00 | 00:00:00 | 00:00:00 | |
| DO3MHA-12 | 2026-09-05 02:41:04 | 48.25401 | 14.74956 | 83° | 115km/h | 9257m | 4.1m/s | -35.2°C | 26.9% | 0hPa | 2.9V | 00:00:00 | 00:52:21 | 00:00:00 | |
| OE5MMP-10 | 2026-09-05 02:41:03 | 48.25397 | 14.74913 | 83° | 115km/h | 9252m | 6.5m/s | -35.1°C | 26.7% | 0hPa | 2.9V | 00:00:00 | 00:52:20 | 08:30:00 | |
| OE3MUC-15 | 2026-09-05 02:41:02 | 48.25393 | 14.74870 | 83° | 113km/h | 9246m | 4.8m/s | -35.1°C | 26.8% | 0hPa | 2.9V | 00:00:00 | 00:00:00 | 08:30:00 | |
| OE3OSB-13 | 2026-09-05 02:40:47 | 48.25337 | 14.74215 | 80° | 115km/h | 9166m | 6.0m/s | -34.5°C | 23.9% | -1.0hPa | 2.9V | 00:00:00 | 00:00:00 | 00:00:00 | |
| OE3MUC-15 | 2026-09-05 02:40:46 | 48.25333 | 14.74171 | 82° | 113km/h | 9160m | 6.3m/s | -34.3°C | 26.1% | 0hPa | 2.9V | 00:00:00 | 00:00:00 | 00:00:00 | |
| OM5KV | 2026-09-05 02:40:45 | 48.25332 | 14.74171 | 82° | 115km/h | 9160m | 6.3m/s | -34.4°C | 24.0% | 0hPa | 2.9V | 00:00:00 | 00:00:00 | 00:00:00 | |
| PETON7-10 | 2026-09-05 02:40:44 | 48.25325 | 14.74086 | 84° | 117km/h | 9149m | 4.4m/s | -34.2°C | 25.9% | 0hPa | 2.9V | 00:00:00 | 00:00:00 | 00:00:00 | |
| OE5MMP-10 | 2026-09-05 02:40:43 | 48.25322 | 14.74043 | 84° | 117km/h | 9143m | 7.2m/s | -34.2°C | 25.5% | 0hPa | 2.9V | 00:00:00 | 00:52:00 | 00:00:00 | |
| OE3MUC-15 | 2026-09-05 02:40:42 | 48.25318 | 14.74001 | 82° | 117km/h | 9137m | 5.9m/s | -34.1°C | 25.5% | 0hPa | 2.9V | 00:00:00 | 00:00:00 | 00:00:00 | |
| OM5KV | 2026-09-05 02:40:39 | 48.25309 | 14.73913 | 81° | 117km/h | 9127m | 5.9m/s | -34.1°C | 23.4% | 0hPa | 2.9V | 00:00:00 | 00:00:00 | 00:00:00 | |
| OE3MUC-15 | 2026-09-05 02:40:38 | 48.25298 | 14.73827 | 80° | 117km/h | 9116m | 6.6m/s | -33.9°C | 25.5% | 0hPa | 2.9V | 00:00:00 | 00:00:00 | 00:00:00 | |
| PG1ADW-2 | 2026-09-05 02:40:36 | 48.25288 | 14.73740 | 82° | 119km/h | 9105m | 4.6m/s | -33.8°C | 25.5% | 0hPa | 2.9V | 00:00:00 | 00:00:00 | 00:00:00 | |
| OM5KV | 2026-09-05 02:40:35 | 48.25288 | 14.73740 | 82° | 115km/h | 9105m | 4.7m/s | -33.9°C | 23.5% | 0hPa | 2.9V | 00:00:00 | 00:00:00 | 00:00:00 | |
| DO3MHA-12 | 2026-09-05 02:40:34 | 48.25280 | 14.73652 | 82° | 119km/h | 9092m | 7.1m/s | -33.7°C | 25.8% | 0hPa | 2.9V | 00:00:00 | 00:51:51 | 00:00:00 | |
| OE5MMP-10 | 2026-09-05 02:40:33 | 48.25275 | 14.73606 | 82° | 117km/h | 9087m | 5.1m/s | -33.7°C | 25.9% | 0hPa | 2.9V | 00:00:00 | 00:51:50 | 00:00:00 | |
| OE5WHR-10 | 2026-09-05 02:40:31 | 48.25266 | 14.73516 | 82° | 119km/h | 9074m | 7.3m/s | -33.6°C | 25.8% | 0hPa | 2.9V | 00:00:00 | 00:00:00 | 08:30:00 | |
| OE3MUC-15 | 2026-09-05 02:40:30 | 48.25262 | 14.73473 | 82° | 117km/h | 9067m | 6.7m/s | -33.6°C | 25.7% | 0hPa | 2.7V | 00:00:00 | 00:00:00 | 00:00:00 | |
| PETON7-10 | 2026-09-05 02:40:29 | 48.25257 | 14.73430 | 81° | 119km/h | 9060m | 6.8m/s | -33.5°C | 25.6% | 0hPa | 2.7V | 00:00:00 | 00:00:00 | 00:00:00 | |
| OM5KV | 2026-09-05 02:40:28 | 48.25257 | 14.73430 | 82° | 115km/h | 9060m | 6.9m/s | -33.5°C | 23.6% | 0hPa | 2.7V | 00:00:00 | 00:00:00 | 00:00:00 | |
| OE3MUC-15 | 2026-09-05 02:40:26 | 48.25241 | 14.73299 | 79° | 117km/h | 9040m | 6.8m/s | -33.4°C | 25.6% | 0hPa | 2.7V | 00:00:00 | 00:00:00 | 08:30:00 | |
| OE3JTB-15 | 2026-09-05 02:40:25 | 48.25236 | 14.73255 | 81° | 119km/h | 9033m | 6.1m/s | -33.3°C | 25.5% | 0hPa | 2.9V | 00:00:00 | 00:00:00 | 08:30:00 | |
| DO3MHA-12 | 2026-09-05 02:40:24 | 48.25231 | 14.73212 | 82° | 119km/h | 9027m | 5.6m/s | -33.2°C | 25.6% | 0hPa | 2.7V | 00:00:00 | 00:51:41 | 00:00:00 | |
| OE5MMP-10 | 2026-09-05 02:40:23 | 48.25227 | 14.73168 | 83° | 120km/h | 9022m | 4.8m/s | -33.2°C | 25.4% | 0hPa | 2.7V | 00:00:00 | 00:51:40 | 00:00:00 | |
| OE3MUC-15 | 2026-09-05 02:40:22 | 48.25223 | 14.73123 | 83° | 120km/h | 9016m | 6.2m/s | -33.1°C | 25.4% | 0hPa | 2.7V | 00:00:00 | 00:00:00 | 00:00:00 | |
| OE5FHM-15 | 2026-09-05 02:40:18 | 48.25204 | 14.72942 | 81° | 120km/h | 8992m | 6.8m/s | -32.9°C | 24.6% | 0hPa | 2.7V | 00:00:00 | 00:51:35 | 08:30:00 | |
| OM5KV | 2026-09-05 02:40:17 | 48.25204 | 14.72942 | 81° | 120km/h | 8992m | 6.9m/s | -33.0°C | 22.7% | 0hPa | 2.9V | 00:00:00 | 00:00:00 | 00:00:00 | |
| PG1ADW-2 | 2026-09-05 02:40:16 | 48.25194 | 14.72853 | 81° | 119km/h | 8978m | 4.8m/s | -32.8°C | 24.6% | 0hPa | 2.9V | 00:00:00 | 00:00:00 | 08:30:00 | |
| PETON7-10 | 2026-09-05 02:40:14 | 48.25183 | 14.72765 | 80° | 117km/h | 8967m | 4.1m/s | -32.7°C | 24.5% | 0hPa | 2.7V | 00:00:00 | 00:51:31 | 00:00:00 | |
| OE5MMP-10 | 2026-09-05 02:40:13 | 48.25177 | 14.72721 | 80° | 117km/h | 8962m | 5.5m/s | -32.6°C | 24.4% | 0hPa | 2.7V | 00:00:00 | 00:51:30 | 00:00:00 | |
| OM5KV | 2026-09-05 02:40:12 | 48.25178 | 14.72721 | 81° | 120km/h | 8962m | 5.6m/s | -32.7°C | 22.5% | 0hPa | 2.7V | 00:00:00 | 00:00:00 | 00:00:00 | |
| OE5WHR-10 | 2026-09-05 02:40:10 | 48.25164 | 14.72588 | 84° | 119km/h | 8946m | 4.2m/s | -32.5°C | 24.5% | 0hPa | 2.7V | 00:00:00 | 00:00:00 | 00:00:00 | |
| OE3MUC-15 | 2026-09-05 02:40:06 | 48.25150 | 14.72412 | 83° | 113km/h | 8926m | 5.4m/s | -32.3°C | 24.1% | 0hPa | 2.7V | 00:00:00 | 00:00:00 | 00:00:00 | |
| DO3MHA-12 | 2026-09-05 02:40:04 | 48.25142 | 14.72327 | 83° | 120km/h | 8917m | 6.2m/s | -32.2°C | 24.0% | 0hPa | 2.7V | 00:00:00 | 00:51:21 | 00:00:00 | |
| OE5MMP-10 | 2026-09-05 02:40:03 | 48.25138 | 14.72284 | 83° | 120km/h | 8912m | 2.5m/s | -32.2°C | 24.2% | 0hPa | 2.7V | 00:00:00 | 00:51:20 | 00:00:00 | |
| OE3MUC-15 | 2026-09-05 02:40:02 | 48.25134 | 14.72240 | 83° | 122km/h | 8908m | 4.6m/s | -32.1°C | 23.8% | 0hPa | 2.7V | 00:00:00 | 00:00:00 | 00:00:00 | |
| OE3OSB-13 | 2026-09-05 02:39:45 | 48.25070 | 14.71417 | 84° | 120km/h | 8800m | 6.0m/s | -31.3°C | 19.5% | -1.0hPa | 2.9V | 00:00:00 | 00:00:00 | 00:00:00 | |
| PETON7-10 | 2026-09-05 02:39:44 | 48.25069 | 14.71417 | 85° | 122km/h | 8801m | 5.9m/s | -31.2°C | 21.3% | 0hPa | 2.9V | 00:00:00 | 00:00:00 | 00:00:00 | |
| DO3MHA-12 | 2026-09-05 02:39:43 | 48.25067 | 14.71371 | 86° | 124km/h | 8795m | 5.2m/s | -31.2°C | 21.2% | 0hPa | 2.9V | 00:00:00 | 00:51:00 | 08:30:00 | |
| OM5KV | 2026-09-05 02:39:37 | 48.25052 | 14.71136 | 84° | 124km/h | 8760m | 6.0m/s | -31.0°C | 18.9% | 0hPa | 2.7V | 00:00:00 | 00:00:00 | 00:00:00 | |
| PG1ADW-2 | 2026-09-05 02:39:36 | 48.25043 | 14.71044 | 81° | 120km/h | 8748m | 6.0m/s | -30.8°C | 20.5% | 0hPa | 2.7V | 00:00:00 | 00:50:53 | 00:00:00 | |
| DO3MHA-12 | 2026-09-05 02:39:33 | 48.25029 | 14.70912 | 82° | 119km/h | 8731m | 6.8m/s | -30.7°C | 20.6% | 0hPa | 2.7V | 00:00:00 | 00:50:50 | 00:00:00 | |
| OE5DRO-10 | 2026-09-05 02:39:32 | 48.25025 | 14.70868 | 83° | 120km/h | 8725m | 5.1m/s | -30.7°C | 20.5% | 0hPa | 2.7V | 00:00:00 | 00:00:00 | 00:00:00 | |
| OE5DXL-15 | 2026-09-05 02:39:30 | 48.25016 | 14.70777 | 81° | 120km/h | 8715m | 6.0m/s | -30.6°C | 20.5% | 0hPa | 2.7V | 00:00:00 | 00:00:00 | 00:00:00 | |
| PETON7-10 | 2026-09-05 02:39:29 | 48.25011 | 14.70732 | 81° | 120km/h | 8710m | 3.5m/s | -30.5°C | 20.6% | 0hPa | 2.9V | 00:00:00 | 00:50:46 | 00:00:00 | |
| OE5WHR-10 | 2026-09-05 02:39:28 | 48.25006 | 14.70686 | 82° | 122km/h | 8704m | 7.1m/s | -30.5°C | 20.4% | 0hPa | 2.9V | 00:00:00 | 00:00:00 | 00:00:00 | |
| OE5FHM-15 | 2026-09-05 02:39:26 | 48.24999 | 14.70596 | 84° | 122km/h | 8694m | 6.8m/s | -30.4°C | 20.7% | 0hPa | 2.9V | 00:00:00 | 00:50:43 | 00:00:00 | |
| DO3MHA-12 | 2026-09-05 02:39:23 | 48.24985 | 14.70462 | 81° | 122km/h | 8678m | 4.2m/s | -30.2°C | 21.0% | 0hPa | 2.9V | 00:00:00 | 00:50:40 | 00:00:00 | |
| OE3MUC-15 | 2026-09-05 02:39:18 | 48.24966 | 14.70237 | 84° | 124km/h | 8650m | 5.4m/s | -30.0°C | 21.1% | 0hPa | 2.9V | 00:00:00 | 00:00:00 | 00:00:00 | |
| PG1ADW-2 | 2026-09-05 02:39:16 | 48.24957 | 14.70145 | 81° | 122km/h | 8640m | 3.3m/s | -29.9°C | 21.6% | 0hPa | 2.9V | 00:00:00 | 00:00:00 | 00:00:00 | |
| OE3MUC-15 | 2026-09-05 02:39:14 | 48.24947 | 14.70052 | 82° | 122km/h | 8630m | 5.5m/s | -29.8°C | 21.7% | 0hPa | 2.9V | 00:00:00 | 00:00:00 | 08:30:00 | |
| OE5MMP-10 | 2026-09-05 02:39:13 | 48.24942 | 14.70006 | 83° | 122km/h | 8625m | 3.9m/s | -29.7°C | 21.9% | 0hPa | 2.7V | 00:00:00 | 00:50:30 | 00:00:00 | |
| DO3MHA-12 | 2026-09-05 02:39:12 | 48.24938 | 14.69960 | 83° | 122km/h | 8621m | 4.1m/s | -29.7°C | 21.9% | 0hPa | 2.7V | 00:00:00 | 00:50:29 | 00:00:00 | |
| OM5KV | 2026-09-05 02:39:11 | 48.24938 | 14.69960 | 84° | 120km/h | 8621m | 4.1m/s | -29.7°C | 20.3% | 0hPa | 2.7V | 00:00:00 | 00:00:00 | 00:00:00 | |
| OE3MUC-15 | 2026-09-05 02:39:10 | 48.24930 | 14.69868 | 82° | 124km/h | 8609m | 9.4m/s | -29.6°C | 21.6% | 0hPa | 2.7V | 00:00:00 | 00:00:00 | 00:00:00 | |
| OM5KV | 2026-09-05 02:39:09 | 48.24930 | 14.69868 | 82° | 126km/h | 8609m | 9.4m/s | -29.6°C | 20.1% | 0hPa | 2.7V | 00:00:00 | 00:00:00 | 00:00:00 | |
| OE5WHR-10 | 2026-09-05 02:39:07 | 48.24916 | 14.69727 | 83° | 120km/h | 8588m | 5.3m/s | -29.4°C | 21.9% | 0hPa | 2.7V | 00:00:00 | 00:00:00 | 00:00:00 | |
| OE3MUC-15 | 2026-09-05 02:39:06 | 48.24912 | 14.69682 | 83° | 119km/h | 8583m | 5.2m/s | -29.4°C | 21.8% | 0hPa | 2.7V | 00:00:00 | 00:00:00 | 00:00:00 | |
| OM5KV | 2026-09-05 02:39:05 | 48.24912 | 14.69682 | 84° | 120km/h | 8583m | 5.2m/s | -29.4°C | 20.3% | 0hPa | 2.7V | 00:00:00 | 00:00:00 | 00:00:00 | |
| OE5MMP-10 | 2026-09-05 02:39:03 | 48.24901 | 14.69549 | 83° | 120km/h | 8565m | 4.3m/s | -29.2°C | 21.6% | 0hPa | 2.7V | 00:00:00 | 00:50:20 | 00:00:00 | |
| OE5DXL-15 | 2026-09-05 02:39:00 | 48.24890 | 14.69413 | 85° | 120km/h | 8550m | 6.6m/s | -29.1°C | 21.8% | 0hPa | 2.9V | 00:00:00 | 00:00:00 | 00:00:00 | |
| PETON7-10 | 2026-09-05 02:38:59 | 48.24887 | 14.69367 | 84° | 120km/h | 8544m | 4.5m/s | -29.0°C | 21.8% | 0hPa | 2.9V | 00:00:00 | 00:00:00 | 00:00:00 | |
| PG1ADW-2 | 2026-09-05 02:38:56 | 48.24875 | 14.69229 | 84° | 120km/h | 8530m | 7.5m/s | -28.9°C | 21.5% | 0hPa | 2.9V | 00:00:00 | 00:00:00 | 00:00:00 | |
| OE3MUC-15 | 2026-09-05 02:38:54 | 48.24868 | 14.69138 | 83° | 117km/h | 8518m | 7.2m/s | -28.8°C | 21.5% | 0hPa | 2.9V | 00:00:00 | 00:00:00 | 00:00:00 | |
| OE5MMP-10 | 2026-09-05 02:38:53 | 48.24864 | 14.69093 | 83° | 120km/h | 8513m | 3.6m/s | -28.7°C | 21.7% | 0hPa | 2.9V | 00:00:00 | 00:50:10 | 00:00:00 | |
| OM5KV | 2026-09-05 02:38:52 | 48.24860 | 14.69049 | 84° | 115km/h | 8508m | 5.3m/s | -28.7°C | 20.0% | 0hPa | 2.9V | 00:00:00 | 00:00:00 | 00:00:00 | |
| OE5FHM-15 | 2026-09-05 02:38:51 | 48.24856 | 14.69006 | 85° | 120km/h | 8503m | 5.9m/s | -28.6°C | 21.7% | 0hPa | 2.9V | 00:00:00 | 00:50:08 | 00:00:00 | |
| OE3MUC-15 | 2026-09-05 02:38:50 | 48.24853 | 14.68962 | 85° | 122km/h | 8498m | 3.4m/s | -28.6°C | 21.8% | 0hPa | 2.9V | 00:00:00 | 00:00:00 | 00:00:00 | |
| OE3MUC-15 | 2026-09-05 02:38:46 | 48.24840 | 14.68776 | 85° | 120km/h | 8480m | 4.6m/s | -28.4°C | 21.8% | 0hPa | 2.9V | 00:00:00 | 00:00:00 | 00:00:00 | |
| PETON7-10 | 2026-09-05 02:38:44 | 48.24835 | 14.68685 | 85° | 120km/h | 8469m | 5.8m/s | -28.4°C | 22.2% | 0hPa | 2.9V | 00:00:00 | 00:50:01 | 00:00:00 | |
| OE5MMP-10 | 2026-09-05 02:38:43 | 48.24832 | 14.68640 | 85° | 120km/h | 8464m | 5.4m/s | -28.3°C | 22.8% | 0hPa | 2.9V | 00:00:00 | 00:50:00 | 00:00:00 | |
| DO3MHA-12 | 2026-09-05 02:38:42 | 48.24829 | 14.68595 | 86° | 120km/h | 8459m | 4.8m/s | -28.3°C | 23.2% | 0hPa | 2.9V | 00:00:00 | 00:49:59 | 00:00:00 | |
| OM5KV | 2026-09-05 02:38:41 | 48.24829 | 14.68595 | 86° | 119km/h | 8459m | 4.9m/s | -28.4°C | 21.7% | 0hPa | 2.9V | 00:00:00 | 00:00:00 | 00:00:00 | |
| S52SK | 2026-09-05 02:38:39 | 48.24824 | 14.68506 | 86° | 119km/h | 8448m | 5.9m/s | -28.3°C | 0% | 0hPa | 2.9V | 00:00:00 | 00:00:00 | 00:00:00 | |
| OE3MUC-15 | 2026-09-05 02:38:38 | 48.24819 | 14.68416 | 85° | 122km/h | 8436m | 5.2m/s | -28.2°C | 23.0% | 0hPa | 2.9V | 00:00:00 | 00:00:00 | 08:30:00 | |
| PG1ADW-2 | 2026-09-05 02:38:36 | 48.24814 | 14.68325 | 86° | 120km/h | 8425m | 4.6m/s | -28.1°C | 22.9% | 0hPa | 2.9V | 00:00:00 | 00:00:00 | 00:00:00 | |
| OM5KV | 2026-09-05 02:38:35 | 48.24814 | 14.68325 | 87° | 122km/h | 8425m | 4.6m/s | -28.1°C | 21.5% | 0hPa | 2.9V | 00:00:00 | 00:00:00 | 00:00:00 | |
| OE3MUC-15 | 2026-09-05 02:38:34 | 48.24810 | 14.68232 | 88° | 120km/h | 8416m | 2.8m/s | -28.0°C | 22.9% | 0hPa | 2.9V | 00:00:00 | 00:00:00 | 00:00:00 | |
| OE5MMP-10 | 2026-09-05 02:38:33 | 48.24809 | 14.68186 | 88° | 119km/h | 8411m | 6.7m/s | -27.9°C | 22.6% | 0hPa | 2.9V | 00:00:00 | 00:49:50 | 00:00:00 | |
| DO3MHA-12 | 2026-09-05 02:38:32 | 48.24807 | 14.68140 | 86° | 119km/h | 8405m | 3.2m/s | -27.9°C | 22.8% | 0hPa | 2.9V | 00:00:00 | 00:49:49 | 00:00:00 | |
| OE5DRO-10 | 2026-09-05 02:38:31 | 48.24804 | 14.68095 | 85° | 119km/h | 8401m | 5.6m/s | -27.8°C | 22.6% | 0hPa | 2.9V | 00:00:00 | 00:00:00 | 00:00:00 | |
| OE3MUC-15 | 2026-09-05 02:38:30 | 48.24802 | 14.68050 | 87° | 119km/h | 8396m | 5.0m/s | -27.8°C | 22.6% | 0hPa | 2.9V | 00:00:00 | 00:00:00 | 00:00:00 | |
| OM5KV | 2026-09-05 02:38:29 | 48.24802 | 14.68050 | 87° | 120km/h | 8396m | 5.1m/s | -27.8°C | 21.2% | 0hPa | 2.9V | 00:00:00 | 00:00:00 | 00:00:00 | |
| OE5WHR-10 | 2026-09-05 02:38:25 | 48.24793 | 14.67828 | 88° | 119km/h | 8370m | 5.3m/s | -27.6°C | 23.6% | 0hPa | 2.9V | 00:00:00 | 00:00:00 | 00:00:00 | |
| OE5MMP-10 | 2026-09-05 02:38:23 | 48.24790 | 14.67738 | 86° | 119km/h | 8362m | 5.6m/s | -27.6°C | 24.3% | 0hPa | 2.9V | 00:00:00 | 00:49:40 | 00:00:00 | |
| DO3MHA-12 | 2026-09-05 02:38:22 | 48.24787 | 14.67691 | 86° | 119km/h | 8356m | 4.7m/s | -27.6°C | 24.7% | 0hPa | 2.9V | 00:00:00 | 00:49:39 | 00:00:00 | |
| OE3MUC-15 | 2026-09-05 02:38:18 | 48.24779 | 14.67510 | 85° | 117km/h | 8336m | 7.2m/s | -27.4°C | 24.8% | 0hPa | 2.9V | 00:00:00 | 00:00:00 | 00:00:00 | |
| OE3MUC-15 | 2026-09-05 02:38:14 | 48.24768 | 14.67334 | 85° | 117km/h | 8315m | 7.0m/s | -27.3°C | 25.1% | 0hPa | 2.9V | 00:00:00 | 00:00:00 | 00:00:00 | |
| OE5MMP-10 | 2026-09-05 02:38:13 | 48.24765 | 14.67290 | 85° | 117km/h | 8310m | 2.9m/s | -27.2°C | 25.4% | 0hPa | 2.9V | 00:00:00 | 00:49:30 | 00:00:00 | |
| OE5DRO-10 | 2026-09-05 02:38:12 | 48.24762 | 14.67246 | 85° | 117km/h | 8305m | 6.6m/s | -27.2°C | 25.5% | 0hPa | 2.9V | 00:00:00 | 00:00:00 | 08:30:00 | |
| OE5FHM-15 | 2026-09-05 02:38:10 | 48.24756 | 14.67156 | 85° | 117km/h | 8295m | 4.9m/s | -27.2°C | 26.2% | 0hPa | 2.9V | 00:00:00 | 00:49:27 | 00:00:00 | |
| OM5KV | 2026-09-05 02:38:07 | 48.24750 | 14.67068 | 85° | 115km/h | 8285m | 5.1m/s | -27.2°C | 25.7% | 0hPa | 2.7V | 00:00:00 | 00:00:00 | 00:00:00 | |
| OE3MUC-15 | 2026-09-05 02:38:06 | 48.24744 | 14.66980 | 85° | 115km/h | 8275m | 5.6m/s | -27.2°C | 28.0% | 0hPa | 2.7V | 00:00:00 | 00:00:00 | 00:00:00 | |
| OE5WHR-10 | 2026-09-05 02:38:04 | 48.24739 | 14.66893 | 84° | 117km/h | 8266m | 4.3m/s | -27.1°C | 29.1% | 0hPa | 2.7V | 00:00:00 | 00:00:00 | 00:00:00 | |
| OE5MMP-10 | 2026-09-05 02:38:03 | 48.24735 | 14.66850 | 83° | 117km/h | 8262m | 4.3m/s | -27.1°C | 29.6% | 0hPa | 2.7V | 00:00:00 | 00:49:20 | 08:30:00 | |
| OE5DXL-15 | 2026-09-05 02:38:00 | 48.24725 | 14.66719 | 85° | 119km/h | 8248m | 4.5m/s | -27.1°C | 31.0% | 0hPa | 2.9V | 00:00:00 | 00:00:00 | 00:00:00 | |
| PETON7-10 | 2026-09-05 02:37:59 | 48.24721 | 14.66675 | 84° | 119km/h | 8243m | 5.5m/s | -27.1°C | 31.1% | 0hPa | 2.9V | 00:00:00 | 00:49:16 | 00:00:00 | |
| OE3MUC-15 | 2026-09-05 02:37:58 | 48.24718 | 14.66630 | 83° | 117km/h | 8238m | 3.5m/s | -27.0°C | 31.3% | 0hPa | 2.9V | 00:00:00 | 00:00:00 | 00:00:00 | |
| PG1ADW-2 | 2026-09-05 02:37:56 | 48.24710 | 14.66542 | 83° | 117km/h | 8230m | 6.5m/s | -26.9°C | 30.9% | 0hPa | 2.9V | 00:00:00 | 00:00:00 | 00:00:00 | |
| OE3MUC-15 | 2026-09-05 02:37:54 | 48.24700 | 14.66457 | 81° | 117km/h | 8220m | 6.1m/s | -26.8°C | 30.9% | 0hPa | 2.9V | 00:00:00 | 00:00:00 | 00:00:00 | |
| OE5MMP-10 | 2026-09-05 02:37:53 | 48.24695 | 14.66413 | 81° | 119km/h | 8215m | 3.2m/s | -26.8°C | 31.0% | 0hPa | 2.9V | 00:00:00 | 00:49:10 | 00:00:00 | |
| OE3MUC-15 | 2026-09-05 02:37:50 | 48.24680 | 14.66280 | 80° | 122km/h | 8202m | 6.4m/s | -26.7°C | 30.3% | 0hPa | 2.9V | 00:00:00 | 00:00:00 | 00:00:00 | |
| OE3MUC-15 | 2026-09-05 02:37:46 | 48.24660 | 14.66100 | 82° | 115km/h | 8179m | 6.4m/s | -26.5°C | 29.4% | 0hPa | 2.7V | 00:00:00 | 00:00:00 | 00:00:00 | |
| PETON7-10 | 2026-09-05 02:37:44 | 48.24652 | 14.66014 | 83° | 119km/h | 8168m | 6.0m/s | -26.4°C | 29.3% | 0hPa | 2.7V | 00:00:00 | 00:00:00 | 08:30:00 | |
| OE5MMP-10 | 2026-09-05 02:37:43 | 48.24648 | 14.65971 | 82° | 119km/h | 8163m | 4.1m/s | -26.3°C | 29.4% | 0hPa | 2.9V | 00:00:00 | 00:49:00 | 00:00:00 | |
| OE3MUC-15 | 2026-09-05 02:37:42 | 48.24644 | 14.65927 | 82° | 117km/h | 8158m | 5.6m/s | -26.3°C | 29.1% | 0hPa | 2.9V | 00:00:00 | 00:00:00 | 00:00:00 | |
| OM5KV | 2026-09-05 02:37:41 | 48.24639 | 14.65884 | 82° | 117km/h | 8153m | 3.8m/s | -26.3°C | 27.7% | 0hPa | 2.9V | 00:00:00 | 00:00:00 | 00:00:00 | |
| OE5FHM-15 | 2026-09-05 02:37:40 | 48.24634 | 14.65840 | 82° | 119km/h | 8149m | 5.7m/s | -26.2°C | 28.9% | 0hPa | 2.9V | 00:00:00 | 00:48:57 | 00:00:00 | |
| PG1ADW-2 | 2026-09-05 02:37:36 | 48.24614 | 14.65663 | 81° | 119km/h | 8129m | 5.9m/s | -26.0°C | 28.4% | 0hPa | 2.9V | 00:00:00 | 00:00:00 | 00:00:00 | |
| OE5DRO-10 | 2026-09-05 02:37:34 | 48.24606 | 14.65573 | 83° | 119km/h | 8119m | 5.7m/s | -25.9°C | 28.6% | 0hPa | 2.9V | 00:00:00 | 00:00:00 | 00:00:00 | |
| OE5MMP-10 | 2026-09-05 02:37:33 | 48.24601 | 14.65529 | 82° | 119km/h | 8113m | 5.5m/s | -25.8°C | 28.9% | 0hPa | 2.9V | 00:00:00 | 00:48:50 | 00:00:00 | |
| OM5KV | 2026-09-05 02:37:31 | 48.24597 | 14.65484 | 83° | 120km/h | 8108m | 5.2m/s | -25.9°C | 27.3% | 0hPa | 2.7V | 00:00:00 | 00:00:00 | 00:00:00 | |
| OE5DXL-15 | 2026-09-05 02:37:30 | 48.24588 | 14.65393 | 82° | 117km/h | 8097m | 5.3m/s | -25.7°C | 29.0% | 0hPa | 2.7V | 00:00:00 | 00:00:00 | 00:00:00 | |
| PETON7-10 | 2026-09-05 02:37:29 | 48.24584 | 14.65349 | 81° | 119km/h | 8092m | 4.2m/s | -25.7°C | 29.1% | 0hPa | 2.7V | 00:00:00 | 00:00:00 | 00:00:00 | |
| OE3JTB-15 | 2026-09-05 02:37:25 | 48.24564 | 14.65175 | 79° | 119km/h | 8072m | 4.8m/s | -25.5°C | 28.6% | 0hPa | 2.7V | 00:00:00 | 00:00:00 | 00:00:00 | |
| OE5MMP-10 | 2026-09-05 02:37:23 | 48.24552 | 14.65088 | 80° | 119km/h | 8062m | 4.6m/s | -25.4°C | 28.6% | 0hPa | 2.9V | 00:00:00 | 00:48:40 | 00:00:00 | |
| OE5WHR-10 | 2026-09-05 02:37:22 | 48.24547 | 14.65043 | 80° | 119km/h | 8058m | 4.2m/s | -25.4°C | 28.3% | 0hPa | 2.9V | 00:00:00 | 00:00:00 | 08:30:00 | |
| OM5KV | 2026-09-05 02:37:19 | 48.24536 | 14.64954 | 82° | 120km/h | 8046m | 4.8m/s | -25.3°C | 26.7% | 0hPa | 2.9V | 00:00:00 | 00:00:00 | 00:00:00 | |
| OE3MUC-15 | 2026-09-05 02:37:18 | 48.24527 | 14.64864 | 83° | 119km/h | 8036m | 3.5m/s | -25.2°C | 27.8% | 0hPa | 2.9V | 00:00:00 | 00:48:35 | 00:00:00 | |
| PG1ADW-2 | 2026-09-05 02:37:16 | 48.24518 | 14.64775 | 82° | 117km/h | 8025m | 3.8m/s | -25.1°C | 26.8% | 0hPa | 2.9V | 00:00:00 | 00:00:00 | 08:30:00 | |
| OE5DRO-10 | 2026-09-05 02:37:15 | 48.24514 | 14.64732 | 82° | 117km/h | 8020m | 5.7m/s | -25.1°C | 26.5% | 0hPa | 2.7V | 00:00:00 | 00:00:00 | 00:00:00 | |
| PETON7-10 | 2026-09-05 02:37:14 | 48.24509 | 14.64689 | 81° | 117km/h | 8016m | 3.6m/s | -25.1°C | 26.6% | 0hPa | 2.9V | 00:00:00 | 00:48:31 | 00:00:00 | |
| OE5MMP-10 | 2026-09-05 02:37:13 | 48.24504 | 14.64646 | 80° | 117km/h | 8011m | 6.1m/s | -25.0°C | 26.4% | 0hPa | 2.9V | 00:00:00 | 00:48:30 | 00:00:00 | |
| S52SK | 2026-09-05 02:37:12 | 48.24504 | 14.64646 | 80° | 117km/h | 8011m | 6.2m/s | -25.0°C | 0% | 0hPa | 2.9V | 00:00:00 | 00:00:00 | 00:00:00 | |
| OE5FHM-15 | 2026-09-05 02:37:10 | 48.24486 | 14.64514 | 79° | 119km/h | 7994m | 7.7m/s | -24.8°C | 25.2% | 0hPa | 2.9V | 00:00:00 | 00:48:27 | 00:00:00 | |
| OM5KV | 2026-09-05 02:37:08 | 48.24473 | 14.64427 | 79° | 119km/h | 7979m | 7.2m/s | -24.8°C | 23.9% | 0hPa | 2.9V | 00:00:00 | 00:00:00 | 00:00:00 | |
| OM5KV | 2026-09-05 02:37:07 | 48.24473 | 14.64427 | 79° | 119km/h | 7979m | 7.2m/s | -24.8°C | 23.9% | 0hPa | 2.9V | 00:00:00 | 00:00:00 | 00:00:00 | |
| OE3MUC-15 | 2026-09-05 02:37:06 | 48.24463 | 14.64340 | 82° | 117km/h | 7966m | 6.5m/s | -24.6°C | 24.6% | 0hPa | 2.9V | 00:00:00 | 00:00:00 | 00:00:00 | |
| OE5MMP-10 | 2026-09-05 02:37:03 | 48.24450 | 14.64208 | 80° | 119km/h | 7948m | 7.7m/s | -24.4°C | 22.7% | 0hPa | 2.9V | 00:00:00 | 00:48:20 | 00:00:00 | |
| OE3MUC-15 | 2026-09-05 02:37:02 | 48.24444 | 14.64164 | 79° | 117km/h | 7940m | 6.1m/s | -24.4°C | 22.5% | 0hPa | 2.9V | 00:00:00 | 00:00:00 | 00:00:00 | |
| OE5WHR-10 | 2026-09-05 02:37:01 | 48.24438 | 14.64121 | 79° | 119km/h | 7934m | 5.8m/s | -24.3°C | 22.2% | 0hPa | 2.7V | 00:00:00 | 00:00:00 | 00:00:00 | |
| OE5DXL-15 | 2026-09-05 02:37:00 | 48.24433 | 14.64078 | 81° | 119km/h | 7928m | 6.4m/s | -24.3°C | 21.9% | 0hPa | 2.7V | 00:00:00 | 00:00:00 | 00:00:00 | |
| PETON7-10 | 2026-09-05 02:36:59 | 48.24428 | 14.64034 | 82° | 119km/h | 7921m | 7.6m/s | -24.2°C | 21.6% | 0hPa | 2.7V | 00:00:00 | 00:00:00 | 00:00:00 | |
| OE3MUC-15 | 2026-09-05 02:36:58 | 48.24424 | 14.63989 | 82° | 119km/h | 7915m | 4.2m/s | -24.2°C | 21.5% | 0hPa | 2.9V | 00:00:00 | 00:00:00 | 00:00:00 | |
| PG1ADW-2 | 2026-09-05 02:36:56 | 48.24414 | 14.63900 | 81° | 117km/h | 7903m | 3.8m/s | -24.0°C | 21.1% | 0hPa | 2.9V | 00:00:00 | 00:48:13 | 00:00:00 | |
| OE3JTB-15 | 2026-09-05 02:36:55 | 48.24409 | 14.63856 | 82° | 119km/h | 7899m | 4.8m/s | -24.0°C | 20.7% | 0hPa | 2.9V | 00:00:00 | 00:00:00 | 00:00:00 | |
| OE3MUC-15 | 2026-09-05 02:36:54 | 48.24404 | 14.63810 | 81° | 119km/h | 7895m | 3.3m/s | -23.9°C | 20.5% | 0hPa | 2.9V | 00:00:00 | 00:00:00 | 00:00:00 | |
| OE5MMP-10 | 2026-09-05 02:36:53 | 48.24399 | 14.63766 | 82° | 119km/h | 7891m | 3.5m/s | -23.9°C | 19.9% | 0hPa | 2.9V | 00:00:00 | 00:48:10 | 00:00:00 | |
| OE3MUC-15 | 2026-09-05 02:36:50 | 48.24388 | 14.63633 | 85° | 117km/h | 7870m | 6.4m/s | -23.7°C | 18.2% | 0hPa | 2.9V | 00:00:00 | 00:00:00 | 08:30:00 | |
| OE3MUC-15 | 2026-09-05 02:36:46 | 48.24375 | 14.63457 | 82° | 119km/h | 7842m | 7.0m/s | -23.5°C | 14.5% | 0hPa | 2.9V | 00:00:00 | 00:00:00 | 00:00:00 | |
| PETON7-10 | 2026-09-05 02:36:44 | 48.24366 | 14.63368 | 81° | 119km/h | 7829m | 4.8m/s | -23.4°C | 12.9% | 0hPa | 2.9V | 00:00:00 | 00:00:00 | 00:00:00 | |
| OE5MMP-10 | 2026-09-05 02:36:43 | 48.24361 | 14.63323 | 82° | 117km/h | 7825m | 3.2m/s | -23.4°C | 12.6% | 0hPa | 2.9V | 00:00:00 | 00:48:00 | 00:00:00 | |
| OE3MUC-15 | 2026-09-05 02:36:42 | 48.24356 | 14.63278 | 82° | 115km/h | 7820m | 6.4m/s | -23.3°C | 12.5% | 0hPa | 2.9V | 00:00:00 | 00:00:00 | 00:00:00 | |
| OM5KV | 2026-09-05 02:36:41 | 48.24356 | 14.63278 | 83° | 119km/h | 7820m | 6.4m/s | -23.4°C | 11.6% | 0hPa | 2.9V | 00:00:00 | 00:00:00 | 00:00:00 | |
| OE5FHM-15 | 2026-09-05 02:36:40 | 48.24349 | 14.63191 | 84° | 119km/h | 7809m | 6.0m/s | -23.2°C | 12.3% | 0hPa | 2.9V | 00:00:00 | 00:47:57 | 00:00:00 | |
| OE3OSB-13 | 2026-09-05 02:36:39 | 48.24343 | 14.63106 | 84° | 115km/h | 7798m | 4.9m/s | -23.2°C | 11.6% | -1.0hPa | 2.9V | 00:00:00 | 00:00:00 | 00:00:00 | |
| OE3MUC-15 | 2026-09-05 02:36:38 | 48.24343 | 14.63106 | 85° | 117km/h | 7798m | 4.8m/s | -23.1°C | 12.5% | 0hPa | 2.9V | 00:00:00 | 00:00:00 | 00:00:00 | |
| OE5DRO-10 | 2026-09-05 02:36:37 | 48.24340 | 14.63062 | 83° | 120km/h | 7793m | 5.3m/s | -23.1°C | 12.4% | 0hPa | 2.9V | 00:00:00 | 00:00:00 | 00:00:00 | |
| PG1ADW-2 | 2026-09-05 02:36:36 | 48.24336 | 14.63019 | 82° | 120km/h | 7787m | 4.3m/s | -23.1°C | 12.4% | 0hPa | 2.9V | 00:00:00 | 00:00:00 | 00:00:00 | |
| OM5KV | 2026-09-05 02:36:35 | 48.24335 | 14.63019 | 83° | 117km/h | 7787m | 4.3m/s | -23.1°C | 11.6% | 0hPa | 2.9V | 00:00:00 | 00:00:00 | 00:00:00 | |
| OE3MUC-15 | 2026-09-05 02:36:34 | 48.24327 | 14.62930 | 83° | 124km/h | 7774m | 5.9m/s | -23.0°C | 12.6% | 0hPa | 2.9V | 00:00:00 | 00:00:00 | 00:00:00 | |
| OE5MMP-10 | 2026-09-05 02:36:33 | 48.24323 | 14.62885 | 82° | 122km/h | 7768m | 4.9m/s | -22.9°C | 12.6% | 0hPa | 2.9V | 00:00:00 | 00:47:50 | 08:30:00 | |
| OM5KV | 2026-09-05 02:36:32 | 48.24323 | 14.62885 | 82° | 124km/h | 7768m | 5.0m/s | -23.0°C | 11.7% | 0hPa | 2.9V | 00:00:00 | 00:00:00 | 00:00:00 | |
| OE3MUC-15 | 2026-09-05 02:36:30 | 48.24306 | 14.62745 | 81° | 119km/h | 7751m | 7.0m/s | -22.8°C | 12.6% | 0hPa | 2.9V | 00:00:00 | 00:00:00 | 00:00:00 | |
| PETON7-10 | 2026-09-05 02:36:29 | 48.24302 | 14.62700 | 84° | 119km/h | 7746m | 2.2m/s | -22.8°C | 12.7% | 0hPa | 2.9V | 00:00:00 | 00:47:46 | 00:00:00 | |
| OE3MUC-15 | 2026-09-05 02:36:26 | 48.24292 | 14.62566 | 84° | 122km/h | 7725m | 7.4m/s | -22.6°C | 12.0% | 0hPa | 2.9V | 00:00:00 | 00:00:00 | 00:00:00 | |
| OE5MMP-10 | 2026-09-05 02:36:23 | 48.24281 | 14.62427 | 82° | 119km/h | 7701m | 6.9m/s | -22.5°C | 13.0% | 0hPa | 2.9V | 00:00:00 | 00:47:40 | 00:00:00 | |
| OE3MUC-15 | 2026-09-05 02:36:22 | 48.24277 | 14.62384 | 82° | 119km/h | 7695m | 4.2m/s | -22.5°C | 13.0% | 0hPa | 2.9V | 00:00:00 | 00:00:00 | 00:00:00 | |
| OM5KV | 2026-09-05 02:36:21 | 48.24277 | 14.62384 | 82° | 115km/h | 7695m | 4.2m/s | -22.5°C | 12.2% | 0hPa | 2.9V | 00:00:00 | 00:00:00 | 00:00:00 | |
| OM5KV | 2026-09-05 02:36:20 | 48.24272 | 14.62340 | 82° | 115km/h | 7689m | 5.3m/s | -22.5°C | 12.1% | 0hPa | 2.9V | 00:00:00 | 00:00:00 | 00:00:00 | |
| OE5WHR-10 | 2026-09-05 02:36:19 | 48.24263 | 14.62251 | 82° | 117km/h | 7677m | 5.3m/s | -22.3°C | 12.8% | 0hPa | 2.9V | 00:00:00 | 00:00:00 | 00:00:00 | |
| OE3MUC-15 | 2026-09-05 02:36:18 | 48.24258 | 14.62206 | 82° | 119km/h | 7671m | 6.3m/s | -22.3°C | 12.7% | 0hPa | 2.9V | 00:00:00 | 00:00:00 | 00:00:00 | |
| PG1ADW-2 | 2026-09-05 02:36:16 | 48.24251 | 14.62115 | 83° | 117km/h | 7658m | 5.0m/s | -22.1°C | 12.6% | 0hPa | 2.9V | 00:00:00 | 00:00:00 | 00:00:00 | |
| OM5KV | 2026-09-05 02:36:15 | 48.24250 | 14.62115 | 84° | 119km/h | 7658m | 5.0m/s | -22.2°C | 11.8% | 0hPa | 2.9V | 00:00:00 | 00:00:00 | 00:00:00 | |
| PETON7-10 | 2026-09-05 02:36:14 | 48.24243 | 14.62027 | 83° | 117km/h | 7647m | 6.4m/s | -22.0°C | 12.5% | 0hPa | 2.9V | 00:00:00 | 00:00:00 | 00:00:00 | |
| OE5MMP-10 | 2026-09-05 02:36:13 | 48.24239 | 14.61984 | 82° | 117km/h | 7641m | 5.6m/s | -22.0°C | 12.4% | 0hPa | 2.9V | 00:00:00 | 00:47:30 | 00:00:00 | |
| OE5FHM-15 | 2026-09-05 02:36:10 | 48.24226 | 14.61851 | 82° | 117km/h | 7625m | 7.5m/s | -21.8°C | 12.2% | 0hPa | 2.9V | 00:00:00 | 00:47:27 | 00:00:00 | |
| OM5KV | 2026-09-05 02:36:07 | 48.24218 | 14.61764 | 84° | 115km/h | 7611m | 5.7m/s | -21.7°C | 11.4% | 0hPa | 2.9V | 00:00:00 | 00:00:00 | 00:00:00 | |
| OE3MUC-15 | 2026-09-05 02:36:06 | 48.24211 | 14.61677 | 83° | 119km/h | 7599m | 5.4m/s | -21.5°C | 12.2% | 0hPa | 2.9V | 00:00:00 | 00:00:00 | 00:00:00 | |
| OM5KV | 2026-09-05 02:36:04 | 48.24207 | 14.61632 | 83° | 119km/h | 7594m | 3.6m/s | -21.5°C | 11.5% | 0hPa | 2.9V | 00:00:00 | 00:00:00 | 00:00:00 | |
| OE5MMP-10 | 2026-09-05 02:36:03 | 48.24199 | 14.61544 | 83° | 117km/h | 7584m | 5.3m/s | -21.4°C | 12.1% | 0hPa | 2.9V | 00:00:00 | 00:47:20 | 00:00:00 | |
| OE3MUC-15 | 2026-09-05 02:36:02 | 48.24195 | 14.61499 | 85° | 117km/h | 7578m | 7.2m/s | -21.3°C | 12.1% | 0hPa | 2.7V | 00:00:00 | 00:00:00 | 00:00:00 | |
| OM5KV | 2026-09-05 02:36:01 | 48.24195 | 14.61499 | 86° | 119km/h | 7578m | 7.3m/s | -21.4°C | 11.3% | 0hPa | 2.9V | 00:00:00 | 00:00:00 | 00:00:00 | |
| OE5DXL-15 | 2026-09-05 02:36:00 | 48.24191 | 14.61411 | 86° | 117km/h | 7564m | 7.7m/s | -21.2°C | 12.1% | 0hPa | 2.9V | 00:00:00 | 00:00:00 | 00:00:00 | |
| PETON7-10 | 2026-09-05 02:35:59 | 48.24188 | 14.61368 | 84° | 117km/h | 7556m | 7.2m/s | -21.2°C | 12.1% | 0hPa | 2.9V | 00:00:00 | 00:00:00 | 00:00:00 | |
| OE5WHR-10 | 2026-09-05 02:35:58 | 48.24185 | 14.61325 | 82° | 119km/h | 7549m | 4.9m/s | -21.1°C | 12.0% | 0hPa | 2.9V | 00:00:00 | 00:00:00 | 00:00:00 | |
| OE3JTB-15 | 2026-09-05 02:35:57 | 48.24180 | 14.61281 | 82° | 119km/h | 7542m | 7.6m/s | -21.1°C | 12.0% | 0hPa | 2.9V | 00:00:00 | 00:00:00 | 00:00:00 | |
| PG1ADW-2 | 2026-09-05 02:35:56 | 48.24176 | 14.61236 | 81° | 119km/h | 7536m | 4.6m/s | -21.0°C | 12.1% | 0hPa | 2.9V | 00:00:00 | 00:00:00 | 00:00:00 | |
| OM5KV | 2026-09-05 02:35:55 | 48.24175 | 14.61237 | 81° | 120km/h | 7536m | 4.6m/s | -21.1°C | 11.3% | 0hPa | 2.9V | 00:00:00 | 00:00:00 | 00:00:00 | |
| OE3MUC-15 | 2026-09-05 02:35:54 | 48.24165 | 14.61147 | 82° | 119km/h | 7523m | 3.9m/s | -20.9°C | 11.8% | 0hPa | 2.9V | 00:00:00 | 00:00:00 | 00:00:00 | |
| OE5MMP-10 | 2026-09-05 02:35:53 | 48.24161 | 14.61103 | 83° | 117km/h | 7519m | 4.9m/s | -20.9°C | 11.8% | 0hPa | 2.9V | 00:00:00 | 00:47:10 | 00:00:00 | |
| OM5KV | 2026-09-05 02:35:52 | 48.24161 | 14.61103 | 84° | 119km/h | 7519m | 4.9m/s | -20.9°C | 11.1% | 0hPa | 2.9V | 00:00:00 | 00:00:00 | 00:00:00 | |
| OE3MUC-15 | 2026-09-05 02:35:50 | 48.24153 | 14.60970 | 87° | 115km/h | 7501m | 9.2m/s | -20.7°C | 11.8% | 0hPa | 2.9V | 00:00:00 | 00:00:00 | 00:00:00 | |
| OM5KV | 2026-09-05 02:35:49 | 48.24153 | 14.60970 | 87° | 115km/h | 7501m | 9.3m/s | -20.8°C | 11.0% | 0hPa | 2.7V | 00:00:00 | 00:00:00 | 00:00:00 | |
| OE3MUC-15 | 2026-09-05 02:35:46 | 48.24140 | 14.60796 | 83° | 119km/h | 7479m | 6.1m/s | -20.6°C | 12.2% | 0hPa | 2.7V | 00:00:00 | 00:00:00 | 00:00:00 | |
| PETON7-10 | 2026-09-05 02:35:44 | 48.24132 | 14.60708 | 83° | 119km/h | 7468m | 6.0m/s | -20.5°C | 12.2% | 0hPa | 2.7V | 00:00:00 | 00:47:01 | 00:00:00 | |
| OE5MMP-10 | 2026-09-05 02:35:43 | 48.24128 | 14.60662 | 82° | 119km/h | 7462m | 6.1m/s | -20.4°C | 12.1% | 0hPa | 2.7V | 00:00:00 | 00:47:00 | 00:00:00 | |
| OM5KV | 2026-09-05 02:35:41 | 48.24124 | 14.60617 | 83° | 119km/h | 7455m | 6.6m/s | -20.4°C | 11.4% | 0hPa | 2.7V | 00:00:00 | 00:00:00 | 00:00:00 | |
| OE5FHM-15 | 2026-09-05 02:35:40 | 48.24115 | 14.60529 | 83° | 119km/h | 7444m | 4.7m/s | -20.3°C | 12.2% | 0hPa | 2.7V | 00:00:00 | 00:46:57 | 00:00:00 | |
| OM5KV | 2026-09-05 02:35:38 | 48.24112 | 14.60484 | 84° | 120km/h | 7438m | 5.9m/s | -20.3°C | 11.4% | 0hPa | 2.7V | 00:00:00 | 00:00:00 | 00:00:00 | |
| OE5WHR-10 | 2026-09-05 02:35:37 | 48.24105 | 14.60394 | 84° | 117km/h | 7428m | 6.7m/s | -20.2°C | 12.3% | 0hPa | 2.7V | 00:00:00 | 00:46:54 | 00:00:00 | |
| PG1ADW-2 | 2026-09-05 02:35:36 | 48.24101 | 14.60350 | 82° | 117km/h | 7423m | 2.5m/s | -20.1°C | 12.5% | 0hPa | 2.7V | 00:00:00 | 00:46:53 | 00:00:00 | |
| OE5MMP-10 | 2026-09-05 02:35:33 | 48.24088 | 14.60218 | 81° | 119km/h | 7405m | 6.6m/s | -20.0°C | 12.3% | 0hPa | 2.7V | 00:00:00 | 00:46:50 | 00:00:00 | |
| OM5KV | 2026-09-05 02:35:31 | 48.24083 | 14.60173 | 82° | 119km/h | 7400m | 3.2m/s | -20.0°C | 11.7% | 0hPa | 2.9V | 00:00:00 | 00:00:00 | 00:00:00 | |
| OE5DXL-15 | 2026-09-05 02:35:30 | 48.24073 | 14.60083 | 82° | 117km/h | 7390m | 3.4m/s | -19.9°C | 12.4% | 0hPa | 2.9V | 00:00:00 | 00:00:00 | 00:00:00 | |
| PETON7-10 | 2026-09-05 02:35:29 | 48.24069 | 14.60038 | 82° | 117km/h | 7386m | 5.2m/s | -19.9°C | 12.2% | 0hPa | 2.9V | 00:00:00 | 00:00:00 | 08:30:00 | |
| OE3JTB-15 | 2026-09-05 02:35:28 | 48.24065 | 14.59994 | 83° | 117km/h | 7381m | 3.5m/s | -19.8°C | 12.4% | 0hPa | 2.7V | 00:00:00 | 00:00:00 | 00:00:00 | |
| OM5KV | 2026-09-05 02:35:25 | 48.24059 | 14.59904 | 86° | 122km/h | 7371m | 6.0m/s | -19.8°C | 12.0% | 0hPa | 2.7V | 00:00:00 | 00:00:00 | 00:00:00 | |
| OE5MMP-10 | 2026-09-05 02:35:23 | 48.24049 | 14.59769 | 83° | 115km/h | 7357m | 5.3m/s | -19.7°C | 13.0% | 0hPa | 2.7V | 00:00:00 | 00:46:40 | 00:00:00 | |
| OE5DRO-10 | 2026-09-05 02:35:21 | 48.24040 | 14.59682 | 82° | 117km/h | 7347m | 5.8m/s | -19.6°C | 12.7% | 0hPa | 2.7V | 00:00:00 | 00:00:00 | 08:30:00 | |
| OE3MUC-15 | 2026-09-05 02:35:18 | 48.24026 | 14.59553 | 80° | 115km/h | 7331m | 5.2m/s | -19.5°C | 12.7% | 0hPa | 2.9V | 00:00:00 | 00:00:00 | 00:00:00 | |
| OE5WHR-10 | 2026-09-05 02:35:16 | 48.24017 | 14.59468 | 82° | 117km/h | 7320m | 4.4m/s | -19.4°C | 12.8% | 0hPa | 2.9V | 00:00:00 | 00:00:00 | 00:00:00 | |
| PETON7-10 | 2026-09-05 02:35:14 | 48.24008 | 14.59380 | 82° | 117km/h | 7312m | 5.9m/s | -19.3°C | 12.5% | 0hPa | 2.9V | 00:00:00 | 00:00:00 | 00:00:00 | |
| OE5MMP-10 | 2026-09-05 02:35:13 | 48.24004 | 14.59336 | 82° | 117km/h | 7307m | 3.9m/s | -19.3°C | 12.6% | 0hPa | 2.9V | 00:00:00 | 00:46:30 | 00:00:00 | |
| OM5KV | 2026-09-05 02:35:11 | 48.24000 | 14.59291 | 82° | 119km/h | 7301m | 7.4m/s | -19.3°C | 11.7% | 0hPa | 2.9V | 00:00:00 | 00:00:00 | 00:00:00 | |
| OE5FHM-15 | 2026-09-05 02:35:10 | 48.23990 | 14.59201 | 81° | 117km/h | 7290m | 3.8m/s | -19.1°C | 12.3% | 0hPa | 2.9V | 00:00:00 | 00:46:27 | 08:30:00 | |
| OE5HKT-10 | 2026-09-05 02:35:08 | 48.23981 | 14.59114 | 82° | 115km/h | 7279m | 4.6m/s | -19.0°C | 12.2% | 0hPa | 2.9V | 00:00:00 | 00:46:25 | 00:00:00 | |
| OE3MUC-15 | 2026-09-05 02:35:06 | 48.23973 | 14.59026 | 83° | 115km/h | 7269m | 3.4m/s | -18.9°C | 12.2% | 0hPa | 2.9V | 00:00:00 | 00:00:00 | 00:00:00 | |
| OE3OSB-13 | 2026-09-05 02:35:05 | 48.23969 | 14.58983 | 81° | 115km/h | 7264m | 5.6m/s | -18.9°C | 11.3% | -1.0hPa | 2.9V | 00:00:00 | 00:00:00 | 00:00:00 | |
| OE5MMP-10 | 2026-09-05 02:35:03 | 48.23960 | 14.58896 | 81° | 117km/h | 7255m | 6.1m/s | -18.7°C | 11.8% | 0hPa | 2.9V | 00:00:00 | 00:46:20 | 08:30:00 | |
| OE3MUC-15 | 2026-09-05 02:35:02 | 48.23955 | 14.58853 | 80° | 117km/h | 7250m | 4.5m/s | -18.7°C | 11.8% | 0hPa | 2.9V | 00:00:00 | 00:00:00 | 08:30:00 | |
| OE5DXL-15 | 2026-09-05 02:35:00 | 48.23944 | 14.58766 | 79° | 115km/h | 7241m | 3.7m/s | -18.7°C | 11.9% | 0hPa | 2.7V | 00:00:00 | 00:00:00 | 00:00:00 | |
| PETON7-10 | 2026-09-05 02:34:59 | 48.23937 | 14.58723 | 78° | 115km/h | 7236m | 4.8m/s | -18.6°C | 11.9% | 0hPa | 2.9V | 00:00:00 | 00:46:16 | 00:00:00 | |
| OE3MUC-15 | 2026-09-05 02:34:58 | 48.23931 | 14.58679 | 79° | 115km/h | 7232m | 3.7m/s | -18.6°C | 12.0% | 0hPa | 2.9V | 00:00:00 | 00:00:00 | 00:00:00 | |
| OM5KV | 2026-09-05 02:34:57 | 48.23931 | 14.58679 | 79° | 119km/h | 7232m | 3.8m/s | -18.6°C | 11.3% | 0hPa | 2.9V | 00:00:00 | 00:00:00 | 00:00:00 | |
| PG1ADW-2 | 2026-09-05 02:34:56 | 48.23920 | 14.58592 | 82° | 117km/h | 7223m | 4.9m/s | -18.5°C | 12.0% | 0hPa | 2.9V | 00:00:00 | 00:00:00 | 00:00:00 | |
| OE5WHR-10 | 2026-09-05 02:34:55 | 48.23916 | 14.58549 | 83° | 115km/h | 7218m | 4.7m/s | -18.5°C | 12.0% | 0hPa | 2.9V | 00:00:00 | 00:00:00 | 00:00:00 | |
| OE3MUC-15 | 2026-09-05 02:34:54 | 48.23913 | 14.58507 | 83° | 115km/h | 7213m | 6.0m/s | -18.5°C | 11.9% | 0hPa | 2.9V | 00:00:00 | 00:00:00 | 00:00:00 | |
| OE5MMP-10 | 2026-09-05 02:34:53 | 48.23909 | 14.58463 | 84° | 117km/h | 7208m | 3.6m/s | -18.5°C | 12.2% | 0hPa | 2.9V | 00:00:00 | 00:46:10 | 00:00:00 | |
| OE3MUC-15 | 2026-09-05 02:34:50 | 48.23898 | 14.58332 | 81° | 115km/h | 7191m | 5.7m/s | -18.4°C | 12.2% | 0hPa | 2.9V | 00:00:00 | 00:00:00 | 00:00:00 | |
| OM5KV | 2026-09-05 02:34:49 | 48.23898 | 14.58332 | 82° | 117km/h | 7191m | 5.7m/s | -18.4°C | 11.6% | 0hPa | 2.9V | 00:00:00 | 00:00:00 | 00:00:00 | |
| OE3MUC-15 | 2026-09-05 02:34:46 | 48.23879 | 14.58161 | 81° | 119km/h | 7166m | 6.6m/s | -18.1°C | 12.1% | 0hPa | 2.9V | 00:00:00 | 00:00:00 | 00:00:00 | |
| PETON7-10 | 2026-09-05 02:34:44 | 48.23868 | 14.58073 | 80° | 115km/h | 7153m | 10.0m/s | 0°C | 0% | 0hPa | 2.9V | 00:00:00 | 00:00:00 | 00:00:00 | |
| OE5MMP-10 | 2026-09-05 02:34:43 | 48.23862 | 14.58029 | 80° | 115km/h | 7146m | 5.1m/s | -18.0°C | 12.1% | 0hPa | 2.9V | 00:00:00 | 00:46:00 | 00:00:00 | |
| OE3MUC-15 | 2026-09-05 02:34:42 | 48.23857 | 14.57984 | 79° | 119km/h | 7140m | 6.6m/s | -17.9°C | 12.1% | 0hPa | 2.9V | 00:00:00 | 00:00:00 | 00:00:00 | |
| OM5KV | 2026-09-05 02:34:41 | 48.23857 | 14.57984 | 80° | 119km/h | 7140m | 6.6m/s | -18.0°C | 11.4% | 0hPa | 2.9V | 00:00:00 | 00:00:00 | 00:00:00 | |
| OE5FHM-15 | 2026-09-05 02:34:40 | 48.23845 | 14.57896 | 81° | 115km/h | 7130m | 5.8m/s | -17.8°C | 12.4% | 0hPa | 2.9V | 00:00:00 | 00:45:57 | 00:00:00 | |
| OE3MUC-15 | 2026-09-05 02:34:38 | 48.23836 | 14.57807 | 82° | 111km/h | 7122m | 6.2m/s | -17.8°C | 12.8% | 0hPa | 2.9V | 00:00:00 | 00:00:00 | 00:00:00 | |
| PG1ADW-2 | 2026-09-05 02:34:36 | 48.23829 | 14.57723 | 83° | 115km/h | 7110m | 6.2m/s | -17.8°C | 14.1% | 0hPa | 2.9V | 00:00:00 | 00:00:00 | 00:00:00 | |
| OE5WHR-10 | 2026-09-05 02:34:34 | 48.23821 | 14.57641 | 82° | 115km/h | 7102m | 4.5m/s | -17.7°C | 14.8% | 0hPa | 2.9V | 00:00:00 | 00:45:51 | 00:00:00 | |
| OE5MMP-10 | 2026-09-05 02:34:33 | 48.23817 | 14.57598 | 82° | 115km/h | 7097m | 3.7m/s | -17.7°C | 14.9% | 0hPa | 2.9V | 00:00:00 | 00:45:50 | 00:00:00 | |
| OE3MUC-15 | 2026-09-05 02:34:30 | 48.23803 | 14.57468 | 81° | 113km/h | 7077m | 9.2m/s | -17.7°C | 14.6% | 0hPa | 2.9V | 00:00:00 | 00:00:00 | 00:00:00 | |
| PETON7-10 | 2026-09-05 02:34:29 | 48.23798 | 14.57426 | 79° | 117km/h | 7069m | 6.2m/s | -17.6°C | 14.7% | 0hPa | 2.9V | 00:00:00 | 00:00:00 | 00:00:00 | |
| OE3MUC-15 | 2026-09-05 02:34:26 | 48.23781 | 14.57298 | 81° | 115km/h | 7055m | 1.4m/s | -17.6°C | 15.2% | 0hPa | 2.9V | 00:00:00 | 00:00:00 | 08:30:00 | |
| OM5KV | 2026-09-05 02:34:25 | 48.23782 | 14.57298 | 82° | 117km/h | 7055m | 1.4m/s | -17.6°C | 14.5% | 0hPa | 2.9V | 00:00:00 | 00:00:00 | 00:00:00 | |
| OE5MMP-10 | 2026-09-05 02:34:23 | 48.23769 | 14.57170 | 82° | 117km/h | 7033m | 6.6m/s | -17.5°C | 15.2% | 0hPa | 2.9V | 00:00:00 | 00:45:40 | 00:00:00 | |
| OE3MUC-15 | 2026-09-05 02:34:22 | 48.23764 | 14.57127 | 79° | 119km/h | 7027m | 6.7m/s | -17.5°C | 15.6% | 0hPa | 2.9V | 00:00:00 | 00:45:39 | 00:00:00 | |
| Es werden nur die letzten 3500 von 3983 Frames angezeigt. GPX/KML und Diagramme bleiben verfügbar. | |||||||||||||||